<?xml version='1.0' encoding='UTF-8'?><gpx version="1.1" creator="JPX - https://github.com/jenetics/jpx" xmlns="http://www.topografix.com/GPX/1/1"><trk><trkseg><trkpt lat="44.0235588" lon="8.1220427"><ele>155.0</ele><time>2026-05-03T14:25:04.466Z</time></trkpt><trkpt lat="44.0235043" lon="8.1221772"><ele>155.0</ele><time>2026-05-03T14:25:06.465Z</time></trkpt><trkpt lat="44.0234501" lon="8.1222949"><ele>155.0</ele><time>2026-05-03T14:25:08.461Z</time></trkpt><trkpt lat="44.0233971" lon="8.1224239"><ele>155.0</ele><time>2026-05-03T14:25:10.462Z</time></trkpt><trkpt lat="44.0233571" lon="8.1225826"><ele>155.0</ele><time>2026-05-03T14:25:12.465Z</time></trkpt><trkpt lat="44.0233348" lon="8.1226736"><ele>154.6</ele><time>2026-05-03T14:25:13.467Z</time></trkpt><trkpt lat="44.0232822" lon="8.1227309"><ele>154.2</ele><time>2026-05-03T14:25:14.473Z</time></trkpt><trkpt lat="44.0232163" lon="8.1228554"><ele>153.8</ele><time>2026-05-03T14:25:16.46Z</time></trkpt><trkpt lat="44.0231316" lon="8.1229631"><ele>153.4</ele><time>2026-05-03T14:25:18.462Z</time></trkpt><trkpt lat="44.0230617" lon="8.1230595"><ele>153.0</ele><time>2026-05-03T14:25:20.464Z</time></trkpt><trkpt lat="44.0229983" lon="8.1230997"><ele>153.0</ele><time>2026-05-03T14:25:21.467Z</time></trkpt><trkpt lat="44.0229135" lon="8.1231624"><ele>153.0</ele><time>2026-05-03T14:25:23.462Z</time></trkpt><trkpt lat="44.0227966" lon="8.1231811"><ele>153.0</ele><time>2026-05-03T14:25:25.467Z</time></trkpt><trkpt lat="44.0227205" lon="8.123191"><ele>153.0</ele><time>2026-05-03T14:25:26.469Z</time></trkpt><trkpt lat="44.0226429" lon="8.1231801"><ele>153.0</ele><time>2026-05-03T14:25:27.461Z</time></trkpt><trkpt lat="44.0225649" lon="8.1231717"><ele>153.0</ele><time>2026-05-03T14:25:28.461Z</time></trkpt><trkpt lat="44.0224987" lon="8.1232077"><ele>155.83333333333334</ele><time>2026-05-03T14:25:29.472Z</time></trkpt><trkpt lat="44.0224085" lon="8.1232579"><ele>158.66666666666666</ele><time>2026-05-03T14:25:30.465Z</time></trkpt><trkpt lat="44.0223426" lon="8.123322"><ele>161.5</ele><time>2026-05-03T14:25:31.461Z</time></trkpt><trkpt lat="44.0222737" lon="8.1233914"><ele>164.33333333333331</ele><time>2026-05-03T14:25:32.461Z</time></trkpt><trkpt lat="44.0221842" lon="8.1234336"><ele>167.16666666666666</ele><time>2026-05-03T14:25:33.463Z</time></trkpt><trkpt lat="44.0221297" lon="8.1235141"><ele>170.0</ele><time>2026-05-03T14:25:34.46Z</time></trkpt><trkpt lat="44.0220793" lon="8.1235765"><ele>170.0</ele><time>2026-05-03T14:25:35.46Z</time></trkpt><trkpt lat="44.0219583" lon="8.1236179"><ele>170.0</ele><time>2026-05-03T14:25:37.461Z</time></trkpt><trkpt lat="44.0218897" lon="8.1236298"><ele>170.0</ele><time>2026-05-03T14:25:38.464Z</time></trkpt><trkpt lat="44.0217449" lon="8.1235885"><ele>170.0</ele><time>2026-05-03T14:25:40.465Z</time></trkpt><trkpt lat="44.0216712" lon="8.1235266"><ele>170.0</ele><time>2026-05-03T14:25:41.462Z</time></trkpt><trkpt lat="44.0216033" lon="8.1234782"><ele>171.5</ele><time>2026-05-03T14:25:42.46Z</time></trkpt><trkpt lat="44.0215367" lon="8.1234234"><ele>173.0</ele><time>2026-05-03T14:25:43.46Z</time></trkpt><trkpt lat="44.0214604" lon="8.1233772"><ele>174.5</ele><time>2026-05-03T14:25:44.46Z</time></trkpt><trkpt lat="44.0213429" lon="8.1232858"><ele>176.0</ele><time>2026-05-03T14:25:46.461Z</time></trkpt><trkpt lat="44.0212834" lon="8.12322"><ele>177.5</ele><time>2026-05-03T14:25:47.465Z</time></trkpt><trkpt lat="44.0212212" lon="8.1231869"><ele>179.0</ele><time>2026-05-03T14:25:48.463Z</time></trkpt><trkpt lat="44.0211363" lon="8.1231626"><ele>179.0</ele><time>2026-05-03T14:25:49.462Z</time></trkpt><trkpt lat="44.0210176" lon="8.123186"><ele>179.0</ele><time>2026-05-03T14:25:51.462Z</time></trkpt><trkpt lat="44.0208903" lon="8.1232425"><ele>179.0</ele><time>2026-05-03T14:25:53.47Z</time></trkpt><trkpt lat="44.0207865" lon="8.1233297"><ele>179.0</ele><time>2026-05-03T14:25:55.46Z</time></trkpt><trkpt lat="44.0207277" lon="8.12337"><ele>179.0</ele><time>2026-05-03T14:25:56.461Z</time></trkpt><trkpt lat="44.0206658" lon="8.1234232"><ele>179.39999999999998</ele><time>2026-05-03T14:25:57.463Z</time></trkpt><trkpt lat="44.0206193" lon="8.1234969"><ele>179.8</ele><time>2026-05-03T14:25:58.463Z</time></trkpt><trkpt lat="44.0205438" lon="8.1235887"><ele>180.2</ele><time>2026-05-03T14:26:00.463Z</time></trkpt><trkpt lat="44.020499" lon="8.1237346"><ele>180.60000000000002</ele><time>2026-05-03T14:26:02.465Z</time></trkpt><trkpt lat="44.02043" lon="8.1238277"><ele>181.0</ele><time>2026-05-03T14:26:04.461Z</time></trkpt><trkpt lat="44.0203452" lon="8.1238487"><ele>181.0</ele><time>2026-05-03T14:26:06.461Z</time></trkpt><trkpt lat="44.0202731" lon="8.123832"><ele>181.0</ele><time>2026-05-03T14:26:07.462Z</time></trkpt><trkpt lat="44.0201467" lon="8.1237791"><ele>181.0</ele><time>2026-05-03T14:26:09.46Z</time></trkpt><trkpt lat="44.0200852" lon="8.1237333"><ele>181.0</ele><time>2026-05-03T14:26:10.463Z</time></trkpt><trkpt lat="44.0199678" lon="8.123711"><ele>181.0</ele><time>2026-05-03T14:26:12.461Z</time></trkpt><trkpt lat="44.0198958" lon="8.1237025"><ele>185.0</ele><time>2026-05-03T14:26:13.461Z</time></trkpt><trkpt lat="44.0197685" lon="8.1237703"><ele>189.0</ele><time>2026-05-03T14:26:15.461Z</time></trkpt><trkpt lat="44.0196876" lon="8.1237914"><ele>193.0</ele><time>2026-05-03T14:26:16.463Z</time></trkpt><trkpt lat="44.0195817" lon="8.1237783"><ele>197.0</ele><time>2026-05-03T14:26:18.466Z</time></trkpt><trkpt lat="44.0194691" lon="8.1237805"><ele>201.0</ele><time>2026-05-03T14:26:20.47Z</time></trkpt><trkpt lat="44.0193666" lon="8.1237419"><ele>201.0</ele><time>2026-05-03T14:26:22.46Z</time></trkpt><trkpt lat="44.0192749" lon="8.1237212"><ele>201.0</ele><time>2026-05-03T14:26:24.462Z</time></trkpt><trkpt lat="44.0191792" lon="8.1237249"><ele>201.0</ele><time>2026-05-03T14:26:26.462Z</time></trkpt><trkpt lat="44.0190942" lon="8.1237195"><ele>201.0</ele><time>2026-05-03T14:26:28.46Z</time></trkpt><trkpt lat="44.0190459" lon="8.1236078"><ele>201.0</ele><time>2026-05-03T14:26:31.46Z</time></trkpt><trkpt lat="44.019054" lon="8.1235039"><ele>201.0</ele><time>2026-05-03T14:26:33.463Z</time></trkpt><trkpt lat="44.0190831" lon="8.1234202"><ele>202.60000000000002</ele><time>2026-05-03T14:26:34.46Z</time></trkpt><trkpt lat="44.0191368" lon="8.1232486"><ele>204.2</ele><time>2026-05-03T14:26:36.46Z</time></trkpt><trkpt lat="44.0191573" lon="8.1230768"><ele>205.8</ele><time>2026-05-03T14:26:38.462Z</time></trkpt><trkpt lat="44.0192087" lon="8.122976"><ele>207.39999999999998</ele><time>2026-05-03T14:26:39.461Z</time></trkpt><trkpt lat="44.0192387" lon="8.1228827"><ele>209.0</ele><time>2026-05-03T14:26:40.462Z</time></trkpt><trkpt lat="44.0192982" lon="8.1227083"><ele>209.0</ele><time>2026-05-03T14:26:42.461Z</time></trkpt><trkpt lat="44.0193177" lon="8.1225835"><ele>209.0</ele><time>2026-05-03T14:26:44.463Z</time></trkpt><trkpt lat="44.0192936" lon="8.1224526"><ele>209.0</ele><time>2026-05-03T14:26:46.462Z</time></trkpt><trkpt lat="44.0192838" lon="8.1223025"><ele>209.0</ele><time>2026-05-03T14:26:48.462Z</time></trkpt><trkpt lat="44.0192756" lon="8.122211"><ele>209.0</ele><time>2026-05-03T14:26:49.46Z</time></trkpt><trkpt lat="44.0192502" lon="8.1220452"><ele>209.00000000000003</ele><time>2026-05-03T14:26:51.46Z</time></trkpt><trkpt lat="44.019257" lon="8.1219244"><ele>209.0</ele><time>2026-05-03T14:26:53.458Z</time></trkpt><trkpt lat="44.0192861" lon="8.1218056"><ele>209.0</ele><time>2026-05-03T14:26:55.468Z</time></trkpt><trkpt lat="44.0193261" lon="8.1216741"><ele>209.0</ele><time>2026-05-03T14:26:57.46Z</time></trkpt><trkpt lat="44.0192912" lon="8.121571"><ele>209.00000000000003</ele><time>2026-05-03T14:27:00.464Z</time></trkpt><trkpt lat="44.0192312" lon="8.1215992"><ele>209.0</ele><time>2026-05-03T14:27:02.46Z</time></trkpt><trkpt lat="44.0191938" lon="8.1216812"><ele>212.6</ele><time>2026-05-03T14:27:03.462Z</time></trkpt><trkpt lat="44.0191412" lon="8.1217639"><ele>216.2</ele><time>2026-05-03T14:27:05.462Z</time></trkpt><trkpt lat="44.0190577" lon="8.1218392"><ele>219.79999999999998</ele><time>2026-05-03T14:27:07.462Z</time></trkpt><trkpt lat="44.0189179" lon="8.1218063"><ele>223.39999999999998</ele><time>2026-05-03T14:27:09.462Z</time></trkpt><trkpt lat="44.0188514" lon="8.1218004"><ele>227.0</ele><time>2026-05-03T14:27:10.461Z</time></trkpt><trkpt lat="44.0187417" lon="8.1218318"><ele>227.00000000000003</ele><time>2026-05-03T14:27:12.46Z</time></trkpt><trkpt lat="44.018661" lon="8.1217917"><ele>227.0</ele><time>2026-05-03T14:27:14.462Z</time></trkpt><trkpt lat="44.0185563" lon="8.1217111"><ele>227.0</ele><time>2026-05-03T14:27:16.468Z</time></trkpt><trkpt lat="44.0184887" lon="8.1216527"><ele>227.0</ele><time>2026-05-03T14:27:17.47Z</time></trkpt><trkpt lat="44.0184379" lon="8.121585"><ele>227.00000000000003</ele><time>2026-05-03T14:27:19.463Z</time></trkpt><trkpt lat="44.0183744" lon="8.1215459"><ele>227.0</ele><time>2026-05-03T14:27:20.46Z</time></trkpt><trkpt lat="44.0182494" lon="8.1215415"><ele>227.8</ele><time>2026-05-03T14:27:22.465Z</time></trkpt><trkpt lat="44.0181234" lon="8.1215491"><ele>228.6</ele><time>2026-05-03T14:27:24.463Z</time></trkpt><trkpt lat="44.018057" lon="8.1215644"><ele>229.40000000000003</ele><time>2026-05-03T14:27:25.466Z</time></trkpt><trkpt lat="44.0179405" lon="8.1215896"><ele>230.20000000000002</ele><time>2026-05-03T14:27:27.46Z</time></trkpt><trkpt lat="44.01781" lon="8.1216295"><ele>231.0</ele><time>2026-05-03T14:27:29.461Z</time></trkpt><trkpt lat="44.0177406" lon="8.1216427"><ele>232.66666666666666</ele><time>2026-05-03T14:27:30.461Z</time></trkpt><trkpt lat="44.0176758" lon="8.1216461"><ele>234.33333333333331</ele><time>2026-05-03T14:27:31.459Z</time></trkpt><trkpt lat="44.017549" lon="8.1216659"><ele>236.0</ele><time>2026-05-03T14:27:33.465Z</time></trkpt><trkpt lat="44.0174702" lon="8.1216553"><ele>237.66666666666666</ele><time>2026-05-03T14:27:34.464Z</time></trkpt><trkpt lat="44.0173889" lon="8.121639"><ele>239.33333333333331</ele><time>2026-05-03T14:27:35.463Z</time></trkpt><trkpt lat="44.0173223" lon="8.1215723"><ele>241.0</ele><time>2026-05-03T14:27:38.459Z</time></trkpt><trkpt lat="44.0172473" lon="8.1215727"><ele>243.99999999999997</ele><time>2026-05-03T14:27:40.462Z</time></trkpt><trkpt lat="44.017219" lon="8.1214825"><ele>247.0</ele><time>2026-05-03T14:27:44.463Z</time></trkpt><trkpt lat="44.017211" lon="8.1213487"><ele>250.0</ele><time>2026-05-03T14:27:46.459Z</time></trkpt><trkpt lat="44.0172116" lon="8.1212283"><ele>253.0</ele><time>2026-05-03T14:27:48.463Z</time></trkpt><trkpt lat="44.0172368" lon="8.121143"><ele>255.99999999999997</ele><time>2026-05-03T14:27:49.462Z</time></trkpt><trkpt lat="44.0172599" lon="8.1210243"><ele>259.0</ele><time>2026-05-03T14:27:51.466Z</time></trkpt><trkpt lat="44.0173673" lon="8.1209318"><ele>259.0</ele><time>2026-05-03T14:27:53.463Z</time></trkpt><trkpt lat="44.0174233" lon="8.1208714"><ele>259.0</ele><time>2026-05-03T14:27:54.46Z</time></trkpt><trkpt lat="44.0174557" lon="8.120734"><ele>259.0</ele><time>2026-05-03T14:27:56.46Z</time></trkpt><trkpt lat="44.0175031" lon="8.1206655"><ele>259.0</ele><time>2026-05-03T14:27:57.461Z</time></trkpt><trkpt lat="44.0175625" lon="8.1205973"><ele>259.0</ele><time>2026-05-03T14:27:58.46Z</time></trkpt><trkpt lat="44.0176514" lon="8.1205126"><ele>259.0</ele><time>2026-05-03T14:28:00.464Z</time></trkpt><trkpt lat="44.0176805" lon="8.1204115"><ele>258.66666666666663</ele><time>2026-05-03T14:28:02.464Z</time></trkpt><trkpt lat="44.017674" lon="8.1203219"><ele>258.3333333333333</ele><time>2026-05-03T14:28:04.464Z</time></trkpt><trkpt lat="44.0176452" lon="8.1202353"><ele>258.0</ele><time>2026-05-03T14:28:06.457Z</time></trkpt><trkpt lat="44.0175696" lon="8.1202036"><ele>257.6666666666667</ele><time>2026-05-03T14:28:08.463Z</time></trkpt><trkpt lat="44.0174653" lon="8.1202157"><ele>257.33333333333337</ele><time>2026-05-03T14:28:10.463Z</time></trkpt><trkpt lat="44.0173719" lon="8.1201837"><ele>257.0</ele><time>2026-05-03T14:28:12.46Z</time></trkpt><trkpt lat="44.0172938" lon="8.120089"><ele>257.0</ele><time>2026-05-03T14:28:14.463Z</time></trkpt><trkpt lat="44.01722" lon="8.120015"><ele>257.0</ele><time>2026-05-03T14:28:17.46Z</time></trkpt><trkpt lat="44.0171531" lon="8.1199611"><ele>257.0</ele><time>2026-05-03T14:28:19.462Z</time></trkpt><trkpt lat="44.0170934" lon="8.1199063"><ele>257.0</ele><time>2026-05-03T14:28:21.462Z</time></trkpt><trkpt lat="44.0170924" lon="8.119796"><ele>257.0</ele><time>2026-05-03T14:28:23.46Z</time></trkpt><trkpt lat="44.017165" lon="8.119709"><ele>257.0</ele><time>2026-05-03T14:28:25.458Z</time></trkpt><trkpt lat="44.0173053" lon="8.1195475"><ele>258.2</ele><time>2026-05-03T14:28:27.46Z</time></trkpt><trkpt lat="44.0174318" lon="8.1194397"><ele>259.4</ele><time>2026-05-03T14:28:29.462Z</time></trkpt><trkpt lat="44.0174906" lon="8.1193682"><ele>260.6</ele><time>2026-05-03T14:28:30.463Z</time></trkpt><trkpt lat="44.0175448" lon="8.1193022"><ele>261.8</ele><time>2026-05-03T14:28:31.461Z</time></trkpt><trkpt lat="44.0176652" lon="8.1191822"><ele>263.0</ele><time>2026-05-03T14:28:33.459Z</time></trkpt><trkpt lat="44.0177326" lon="8.1191231"><ele>260.0</ele><time>2026-05-03T14:28:34.462Z</time></trkpt><trkpt lat="44.0178022" lon="8.1191126"><ele>257.0</ele><time>2026-05-03T14:28:35.461Z</time></trkpt><trkpt lat="44.0178982" lon="8.1190374"><ele>254.0</ele><time>2026-05-03T14:28:37.466Z</time></trkpt><trkpt lat="44.0179765" lon="8.1189831"><ele>251.0</ele><time>2026-05-03T14:28:39.459Z</time></trkpt><trkpt lat="44.0180219" lon="8.1188715"><ele>248.00000000000003</ele><time>2026-05-03T14:28:41.46Z</time></trkpt><trkpt lat="44.0180563" lon="8.1187828"><ele>245.0</ele><time>2026-05-03T14:28:43.457Z</time></trkpt><trkpt lat="44.0180133" lon="8.118711"><ele>245.00000000000003</ele><time>2026-05-03T14:28:45.458Z</time></trkpt><trkpt lat="44.0179384" lon="8.1186422"><ele>245.0</ele><time>2026-05-03T14:28:47.464Z</time></trkpt><trkpt lat="44.0178694" lon="8.1185865"><ele>245.0</ele><time>2026-05-03T14:28:49.465Z</time></trkpt><trkpt lat="44.0178008" lon="8.1185128"><ele>245.0</ele><time>2026-05-03T14:28:51.461Z</time></trkpt><trkpt lat="44.0177279" lon="8.1184551"><ele>245.00000000000003</ele><time>2026-05-03T14:28:52.464Z</time></trkpt><trkpt lat="44.0176757" lon="8.1183605"><ele>245.0</ele><time>2026-05-03T14:28:54.462Z</time></trkpt><trkpt lat="44.0176187" lon="8.1183079"><ele>245.66666666666669</ele><time>2026-05-03T14:28:55.461Z</time></trkpt><trkpt lat="44.0175346" lon="8.1182117"><ele>246.33333333333334</ele><time>2026-05-03T14:28:57.464Z</time></trkpt><trkpt lat="44.017486" lon="8.1181543"><ele>247.0</ele><time>2026-05-03T14:28:58.464Z</time></trkpt><trkpt lat="44.0174139" lon="8.1180993"><ele>247.66666666666669</ele><time>2026-05-03T14:28:59.461Z</time></trkpt><trkpt lat="44.0173844" lon="8.1179758"><ele>248.33333333333334</ele><time>2026-05-03T14:29:01.46Z</time></trkpt><trkpt lat="44.0173467" lon="8.1178998"><ele>249.0</ele><time>2026-05-03T14:29:02.46Z</time></trkpt><trkpt lat="44.0173215" lon="8.1178082"><ele>254.0</ele><time>2026-05-03T14:29:03.458Z</time></trkpt><trkpt lat="44.0172423" lon="8.1176711"><ele>259.0</ele><time>2026-05-03T14:29:05.46Z</time></trkpt><trkpt lat="44.0171861" lon="8.1176117"><ele>264.0</ele><time>2026-05-03T14:29:06.463Z</time></trkpt><trkpt lat="44.017154" lon="8.1175021"><ele>269.0</ele><time>2026-05-03T14:29:08.469Z</time></trkpt><trkpt lat="44.017218" lon="8.1174242"><ele>274.0</ele><time>2026-05-03T14:29:09.461Z</time></trkpt><trkpt lat="44.0173194" lon="8.1173362"><ele>276.0</ele><time>2026-05-03T14:29:11.464Z</time></trkpt><trkpt lat="44.0173782" lon="8.1172994"><ele>278.0</ele><time>2026-05-03T14:29:12.46Z</time></trkpt><trkpt lat="44.0174401" lon="8.1172541"><ele>280.0</ele><time>2026-05-03T14:29:13.461Z</time></trkpt><trkpt lat="44.0175314" lon="8.117115"><ele>282.0</ele><time>2026-05-03T14:29:15.459Z</time></trkpt><trkpt lat="44.0175737" lon="8.1169948"><ele>284.0</ele><time>2026-05-03T14:29:17.46Z</time></trkpt><trkpt lat="44.0175313" lon="8.1168826"><ele>284.0</ele><time>2026-05-03T14:29:20.463Z</time></trkpt><trkpt lat="44.0174862" lon="8.1167541"><ele>284.0</ele><time>2026-05-03T14:29:22.46Z</time></trkpt><trkpt lat="44.017405" lon="8.1166204"><ele>284.0</ele><time>2026-05-03T14:29:24.463Z</time></trkpt><trkpt lat="44.0173432" lon="8.1165702"><ele>284.0</ele><time>2026-05-03T14:29:25.465Z</time></trkpt><trkpt lat="44.0172861" lon="8.1164906"><ele>284.0</ele><time>2026-05-03T14:29:27.468Z</time></trkpt><trkpt lat="44.0172459" lon="8.1163835"><ele>287.0</ele><time>2026-05-03T14:29:30.459Z</time></trkpt><trkpt lat="44.0173116" lon="8.1162299"><ele>290.0</ele><time>2026-05-03T14:29:32.46Z</time></trkpt><trkpt lat="44.0173757" lon="8.1160979"><ele>293.0</ele><time>2026-05-03T14:29:34.462Z</time></trkpt><trkpt lat="44.0174281" lon="8.1159631"><ele>296.0</ele><time>2026-05-03T14:29:36.462Z</time></trkpt><trkpt lat="44.0173662" lon="8.1159279"><ele>299.0</ele><time>2026-05-03T14:29:37.464Z</time></trkpt><trkpt lat="44.0173403" lon="8.1158457"><ele>301.59999999999997</ele><time>2026-05-03T14:29:38.464Z</time></trkpt><trkpt lat="44.0172757" lon="8.1156866"><ele>304.2</ele><time>2026-05-03T14:29:40.46Z</time></trkpt><trkpt lat="44.0172412" lon="8.1156083"><ele>306.79999999999995</ele><time>2026-05-03T14:29:41.466Z</time></trkpt><trkpt lat="44.0172036" lon="8.115519"><ele>309.4</ele><time>2026-05-03T14:29:42.462Z</time></trkpt><trkpt lat="44.017157" lon="8.1153837"><ele>312.0</ele><time>2026-05-03T14:29:44.461Z</time></trkpt><trkpt lat="44.017151" lon="8.1152553"><ele>312.0</ele><time>2026-05-03T14:29:46.466Z</time></trkpt><trkpt lat="44.0171454" lon="8.1151578"><ele>312.0</ele><time>2026-05-03T14:29:48.458Z</time></trkpt><trkpt lat="44.0172317" lon="8.1150942"><ele>312.0</ele><time>2026-05-03T14:29:50.46Z</time></trkpt><trkpt lat="44.0172901" lon="8.1149683"><ele>312.0</ele><time>2026-05-03T14:29:52.465Z</time></trkpt><trkpt lat="44.0173266" lon="8.1148858"><ele>312.0</ele><time>2026-05-03T14:29:53.462Z</time></trkpt><trkpt lat="44.0174231" lon="8.1148357"><ele>312.0</ele><time>2026-05-03T14:29:54.458Z</time></trkpt><trkpt lat="44.0174856" lon="8.1147864"><ele>314.8333333333333</ele><time>2026-05-03T14:29:55.459Z</time></trkpt><trkpt lat="44.017554" lon="8.1147084"><ele>317.6666666666667</ele><time>2026-05-03T14:29:57.469Z</time></trkpt><trkpt lat="44.0175251" lon="8.1145937"><ele>320.5</ele><time>2026-05-03T14:29:59.461Z</time></trkpt><trkpt lat="44.0175173" lon="8.1144727"><ele>323.33333333333337</ele><time>2026-05-03T14:30:01.462Z</time></trkpt><trkpt lat="44.0174932" lon="8.1143514"><ele>326.1666666666667</ele><time>2026-05-03T14:30:03.463Z</time></trkpt><trkpt lat="44.0174738" lon="8.114265"><ele>329.0</ele><time>2026-05-03T14:30:04.46Z</time></trkpt><trkpt lat="44.0174602" lon="8.1141173"><ele>325.0</ele><time>2026-05-03T14:30:06.462Z</time></trkpt><trkpt lat="44.0175051" lon="8.113997"><ele>321.0</ele><time>2026-05-03T14:30:07.471Z</time></trkpt><trkpt lat="44.0175494" lon="8.1138854"><ele>317.0</ele><time>2026-05-03T14:30:09.461Z</time></trkpt><trkpt lat="44.0176194" lon="8.1138136"><ele>313.0</ele><time>2026-05-03T14:30:12.464Z</time></trkpt><trkpt lat="44.0176394" lon="8.1137161"><ele>309.0</ele><time>2026-05-03T14:30:15.459Z</time></trkpt><trkpt lat="44.0176908" lon="8.1135985"><ele>305.0</ele><time>2026-05-03T14:30:18.46Z</time></trkpt><trkpt lat="44.0177942" lon="8.113555"><ele>305.0</ele><time>2026-05-03T14:30:20.463Z</time></trkpt><trkpt lat="44.0179159" lon="8.1135051"><ele>305.0</ele><time>2026-05-03T14:30:21.461Z</time></trkpt><trkpt lat="44.0179987" lon="8.1135002"><ele>305.0</ele><time>2026-05-03T14:30:22.461Z</time></trkpt><trkpt lat="44.0180619" lon="8.1134769"><ele>305.0</ele><time>2026-05-03T14:30:23.46Z</time></trkpt><trkpt lat="44.0181939" lon="8.1134577"><ele>305.0</ele><time>2026-05-03T14:30:25.46Z</time></trkpt><trkpt lat="44.0183327" lon="8.1134487"><ele>302.0</ele><time>2026-05-03T14:30:27.46Z</time></trkpt><trkpt lat="44.0184574" lon="8.1134508"><ele>299.0</ele><time>2026-05-03T14:30:29.461Z</time></trkpt><trkpt lat="44.0185206" lon="8.1134736"><ele>296.0</ele><time>2026-05-03T14:30:30.462Z</time></trkpt><trkpt lat="44.0186174" lon="8.1135684"><ele>293.0</ele><time>2026-05-03T14:30:31.459Z</time></trkpt><trkpt lat="44.0186888" lon="8.1136093"><ele>290.0</ele><time>2026-05-03T14:30:32.46Z</time></trkpt><trkpt lat="44.0187511" lon="8.1136549"><ele>290.0</ele><time>2026-05-03T14:30:33.463Z</time></trkpt><trkpt lat="44.0188079" lon="8.1137218"><ele>290.0</ele><time>2026-05-03T14:30:34.461Z</time></trkpt><trkpt lat="44.0188492" lon="8.1138035"><ele>290.0</ele><time>2026-05-03T14:30:35.466Z</time></trkpt><trkpt lat="44.0188852" lon="8.1138868"><ele>290.0</ele><time>2026-05-03T14:30:36.462Z</time></trkpt><trkpt lat="44.0189442" lon="8.1139992"><ele>290.0</ele><time>2026-05-03T14:30:38.458Z</time></trkpt><trkpt lat="44.0190099" lon="8.1139873"><ele>290.0</ele><time>2026-05-03T14:30:40.463Z</time></trkpt><trkpt lat="44.0190502" lon="8.1139137"><ele>290.0</ele><time>2026-05-03T14:30:42.465Z</time></trkpt><trkpt lat="44.0190519" lon="8.113762"><ele>290.0</ele><time>2026-05-03T14:30:44.467Z</time></trkpt><trkpt lat="44.0190413" lon="8.1136374"><ele>290.0</ele><time>2026-05-03T14:30:46.464Z</time></trkpt><trkpt lat="44.0190035" lon="8.1135417"><ele>290.0</ele><time>2026-05-03T14:30:48.468Z</time></trkpt><trkpt lat="44.0189764" lon="8.1134344"><ele>290.0</ele><time>2026-05-03T14:30:50.461Z</time></trkpt><trkpt lat="44.0190326" lon="8.1133209"><ele>290.0</ele><time>2026-05-03T14:30:52.458Z</time></trkpt><trkpt lat="44.0191096" lon="8.113264"><ele>290.0</ele><time>2026-05-03T14:30:54.467Z</time></trkpt><trkpt lat="44.0191419" lon="8.1131434"><ele>288.0</ele><time>2026-05-03T14:30:56.462Z</time></trkpt><trkpt lat="44.0191364" lon="8.1130425"><ele>286.0</ele><time>2026-05-03T14:30:58.463Z</time></trkpt><trkpt lat="44.0191671" lon="8.1128953"><ele>284.0</ele><time>2026-05-03T14:31:00.468Z</time></trkpt><trkpt lat="44.0192424" lon="8.1128057"><ele>282.0</ele><time>2026-05-03T14:31:03.463Z</time></trkpt><trkpt lat="44.0193401" lon="8.1127598"><ele>280.0</ele><time>2026-05-03T14:31:05.466Z</time></trkpt><trkpt lat="44.0194738" lon="8.1127805"><ele>280.0</ele><time>2026-05-03T14:31:08.458Z</time></trkpt><trkpt lat="44.0195444" lon="8.1127905"><ele>280.0</ele><time>2026-05-03T14:31:10.461Z</time></trkpt><trkpt lat="44.0196178" lon="8.1128205"><ele>280.0</ele><time>2026-05-03T14:31:12.464Z</time></trkpt><trkpt lat="44.019688" lon="8.1127414"><ele>280.0</ele><time>2026-05-03T14:31:15.469Z</time></trkpt><trkpt lat="44.0196848" lon="8.112641"><ele>280.0</ele><time>2026-05-03T14:31:17.462Z</time></trkpt><trkpt lat="44.0196623" lon="8.1125389"><ele>280.0</ele><time>2026-05-03T14:31:19.458Z</time></trkpt><trkpt lat="44.0196178" lon="8.1123974"><ele>281.8333333333333</ele><time>2026-05-03T14:31:21.462Z</time></trkpt><trkpt lat="44.0196124" lon="8.1123091"><ele>283.66666666666663</ele><time>2026-05-03T14:31:23.462Z</time></trkpt><trkpt lat="44.01963" lon="8.1121796"><ele>285.5</ele><time>2026-05-03T14:31:25.465Z</time></trkpt><trkpt lat="44.0196623" lon="8.1120875"><ele>287.3333333333333</ele><time>2026-05-03T14:31:27.461Z</time></trkpt><trkpt lat="44.0197264" lon="8.1120466"><ele>289.1666666666667</ele><time>2026-05-03T14:31:30.463Z</time></trkpt><trkpt lat="44.019806" lon="8.1119966"><ele>291.0</ele><time>2026-05-03T14:31:33.465Z</time></trkpt><trkpt lat="44.0199367" lon="8.1120238"><ele>284.25</ele><time>2026-05-03T14:31:35.46Z</time></trkpt><trkpt lat="44.0201132" lon="8.1120069"><ele>277.5</ele><time>2026-05-03T14:31:38.462Z</time></trkpt><trkpt lat="44.0202156" lon="8.1120006"><ele>270.75</ele><time>2026-05-03T14:31:40.465Z</time></trkpt><trkpt lat="44.0203427" lon="8.1119781"><ele>264.0</ele><time>2026-05-03T14:31:43.463Z</time></trkpt><trkpt lat="44.020435" lon="8.1118943"><ele>264.0</ele><time>2026-05-03T14:31:45.46Z</time></trkpt><trkpt lat="44.0205065" lon="8.1118709"><ele>264.0</ele><time>2026-05-03T14:31:46.46Z</time></trkpt><trkpt lat="44.0205761" lon="8.1118469"><ele>264.0</ele><time>2026-05-03T14:31:47.462Z</time></trkpt><trkpt lat="44.0206787" lon="8.111885"><ele>264.0</ele><time>2026-05-03T14:31:49.465Z</time></trkpt><trkpt lat="44.0207998" lon="8.1119181"><ele>264.0</ele><time>2026-05-03T14:31:51.465Z</time></trkpt><trkpt lat="44.020937" lon="8.1119022"><ele>261.0</ele><time>2026-05-03T14:31:53.463Z</time></trkpt><trkpt lat="44.0210272" lon="8.1118812"><ele>258.0</ele><time>2026-05-03T14:31:54.461Z</time></trkpt><trkpt lat="44.0211054" lon="8.1118465"><ele>255.0</ele><time>2026-05-03T14:31:55.459Z</time></trkpt><trkpt lat="44.0211683" lon="8.1118224"><ele>252.0</ele><time>2026-05-03T14:31:56.462Z</time></trkpt><trkpt lat="44.0212374" lon="8.1118145"><ele>249.0</ele><time>2026-05-03T14:31:57.463Z</time></trkpt><trkpt lat="44.0212866" lon="8.1116956"><ele>246.0</ele><time>2026-05-03T14:31:59.463Z</time></trkpt><trkpt lat="44.0213625" lon="8.1116129"><ele>249.20000000000002</ele><time>2026-05-03T14:32:01.46Z</time></trkpt><trkpt lat="44.0213337" lon="8.1114877"><ele>252.40000000000003</ele><time>2026-05-03T14:32:03.465Z</time></trkpt><trkpt lat="44.0213327" lon="8.1113876"><ele>255.6</ele><time>2026-05-03T14:32:05.465Z</time></trkpt><trkpt lat="44.0213403" lon="8.1112664"><ele>258.8</ele><time>2026-05-03T14:32:07.462Z</time></trkpt><trkpt lat="44.0213097" lon="8.1111315"><ele>262.0</ele><time>2026-05-03T14:32:09.466Z</time></trkpt><trkpt lat="44.0213048" lon="8.1109971"><ele>262.0</ele><time>2026-05-03T14:32:11.466Z</time></trkpt><trkpt lat="44.0213301" lon="8.1108555"><ele>262.0</ele><time>2026-05-03T14:32:13.461Z</time></trkpt><trkpt lat="44.0213913" lon="8.110767"><ele>262.0</ele><time>2026-05-03T14:32:15.464Z</time></trkpt><trkpt lat="44.021514" lon="8.1106869"><ele>262.0</ele><time>2026-05-03T14:32:17.463Z</time></trkpt><trkpt lat="44.0215723" lon="8.1106236"><ele>262.0</ele><time>2026-05-03T14:32:20.46Z</time></trkpt><trkpt lat="44.0216155" lon="8.1105557"><ele>259.0</ele><time>2026-05-03T14:32:21.464Z</time></trkpt><trkpt lat="44.0217133" lon="8.1104792"><ele>256.0</ele><time>2026-05-03T14:32:23.461Z</time></trkpt><trkpt lat="44.0218398" lon="8.1104096"><ele>253.0</ele><time>2026-05-03T14:32:25.463Z</time></trkpt><trkpt lat="44.021911" lon="8.1103496"><ele>250.0</ele><time>2026-05-03T14:32:27.46Z</time></trkpt><trkpt lat="44.0219825" lon="8.1102555"><ele>247.0</ele><time>2026-05-03T14:32:29.461Z</time></trkpt><trkpt lat="44.0220327" lon="8.110135"><ele>247.0</ele><time>2026-05-03T14:32:31.461Z</time></trkpt><trkpt lat="44.0220539" lon="8.1099807"><ele>247.0</ele><time>2026-05-03T14:32:33.459Z</time></trkpt><trkpt lat="44.0220826" lon="8.1098618"><ele>247.0</ele><time>2026-05-03T14:32:34.47Z</time></trkpt><trkpt lat="44.0221099" lon="8.1097408"><ele>247.0</ele><time>2026-05-03T14:32:35.46Z</time></trkpt><trkpt lat="44.0222163" lon="8.1096304"><ele>247.0</ele><time>2026-05-03T14:32:37.463Z</time></trkpt><trkpt lat="44.022272" lon="8.1095442"><ele>248.0</ele><time>2026-05-03T14:32:38.465Z</time></trkpt><trkpt lat="44.0223699" lon="8.109443"><ele>249.0</ele><time>2026-05-03T14:32:40.462Z</time></trkpt><trkpt lat="44.0224858" lon="8.1094296"><ele>250.0</ele><time>2026-05-03T14:32:42.461Z</time></trkpt><trkpt lat="44.0225766" lon="8.1094143"><ele>251.0</ele><time>2026-05-03T14:32:44.462Z</time></trkpt><trkpt lat="44.0227348" lon="8.1092768"><ele>246.83333333333334</ele><time>2026-05-03T14:32:49.46Z</time></trkpt><trkpt lat="44.0227719" lon="8.1091209"><ele>242.66666666666669</ele><time>2026-05-03T14:32:51.463Z</time></trkpt><trkpt lat="44.022807" lon="8.1090455"><ele>238.5</ele><time>2026-05-03T14:32:52.463Z</time></trkpt><trkpt lat="44.0228312" lon="8.1089588"><ele>234.33333333333331</ele><time>2026-05-03T14:32:53.46Z</time></trkpt><trkpt lat="44.02285" lon="8.1088378"><ele>230.16666666666666</ele><time>2026-05-03T14:32:55.463Z</time></trkpt><trkpt lat="44.0228892" lon="8.1087279"><ele>226.0</ele><time>2026-05-03T14:32:57.465Z</time></trkpt><trkpt lat="44.022915" lon="8.1086182"><ele>225.20000000000002</ele><time>2026-05-03T14:32:59.459Z</time></trkpt><trkpt lat="44.0229745" lon="8.1085228"><ele>224.40000000000003</ele><time>2026-05-03T14:33:01.461Z</time></trkpt><trkpt lat="44.0230276" lon="8.1083976"><ele>223.6</ele><time>2026-05-03T14:33:03.458Z</time></trkpt><trkpt lat="44.0230769" lon="8.1082826"><ele>222.8</ele><time>2026-05-03T14:33:05.464Z</time></trkpt><trkpt lat="44.023155" lon="8.1081959"><ele>222.0</ele><time>2026-05-03T14:33:07.464Z</time></trkpt><trkpt lat="44.0232319" lon="8.1081853"><ele>218.39999999999998</ele><time>2026-05-03T14:33:08.466Z</time></trkpt><trkpt lat="44.0233466" lon="8.1081486"><ele>214.79999999999998</ele><time>2026-05-03T14:33:10.467Z</time></trkpt><trkpt lat="44.0234521" lon="8.1081791"><ele>211.2</ele><time>2026-05-03T14:33:12.464Z</time></trkpt><trkpt lat="44.0235384" lon="8.1082321"><ele>207.6</ele><time>2026-05-03T14:33:14.465Z</time></trkpt><trkpt lat="44.0236294" lon="8.1082696"><ele>204.0</ele><time>2026-05-03T14:33:16.463Z</time></trkpt><trkpt lat="44.0237488" lon="8.1082391"><ele>202.83333333333334</ele><time>2026-05-03T14:33:18.462Z</time></trkpt><trkpt lat="44.023871" lon="8.1082138"><ele>201.66666666666669</ele><time>2026-05-03T14:33:20.463Z</time></trkpt><trkpt lat="44.0239364" lon="8.1081906"><ele>200.5</ele><time>2026-05-03T14:33:21.479Z</time></trkpt><trkpt lat="44.0240103" lon="8.1081805"><ele>199.33333333333334</ele><time>2026-05-03T14:33:22.463Z</time></trkpt><trkpt lat="44.0240867" lon="8.1081706"><ele>198.16666666666669</ele><time>2026-05-03T14:33:23.469Z</time></trkpt><trkpt lat="44.02417" lon="8.1081716"><ele>197.0</ele><time>2026-05-03T14:33:24.461Z</time></trkpt><trkpt lat="44.0242484" lon="8.1081656"><ele>195.2</ele><time>2026-05-03T14:33:25.46Z</time></trkpt><trkpt lat="44.0243228" lon="8.1081678"><ele>193.39999999999998</ele><time>2026-05-03T14:33:26.464Z</time></trkpt><trkpt lat="44.0243912" lon="8.108167"><ele>191.60000000000002</ele><time>2026-05-03T14:33:27.466Z</time></trkpt><trkpt lat="44.0244883" lon="8.108131"><ele>189.8</ele><time>2026-05-03T14:33:29.464Z</time></trkpt><trkpt lat="44.0245456" lon="8.1079899"><ele>188.0</ele><time>2026-05-03T14:33:32.463Z</time></trkpt><trkpt lat="44.0245623" lon="8.1078245"><ele>188.0</ele><time>2026-05-03T14:33:34.467Z</time></trkpt><trkpt lat="44.0245146" lon="8.10769"><ele>188.0</ele><time>2026-05-03T14:33:36.464Z</time></trkpt><trkpt lat="44.0243816" lon="8.1076336"><ele>188.0</ele><time>2026-05-03T14:33:38.464Z</time></trkpt><trkpt lat="44.0243177" lon="8.1075928"><ele>188.0</ele><time>2026-05-03T14:33:39.465Z</time></trkpt><trkpt lat="44.0242548" lon="8.1075435"><ele>188.0</ele><time>2026-05-03T14:33:40.463Z</time></trkpt><trkpt lat="44.0241932" lon="8.1075052"><ele>189.8</ele><time>2026-05-03T14:33:41.469Z</time></trkpt><trkpt lat="44.0240822" lon="8.1074417"><ele>191.60000000000002</ele><time>2026-05-03T14:33:43.46Z</time></trkpt><trkpt lat="44.0239801" lon="8.1073953"><ele>193.39999999999998</ele><time>2026-05-03T14:33:45.463Z</time></trkpt><trkpt lat="44.023905" lon="8.1073428"><ele>195.2</ele><time>2026-05-03T14:33:47.463Z</time></trkpt><trkpt lat="44.0239632" lon="8.107271"><ele>197.0</ele><time>2026-05-03T14:33:50.472Z</time></trkpt><trkpt lat="44.0240501" lon="8.1072778"><ele>191.0</ele><time>2026-05-03T14:33:52.469Z</time></trkpt><trkpt lat="44.0241688" lon="8.1072504"><ele>185.0</ele><time>2026-05-03T14:33:54.465Z</time></trkpt><trkpt lat="44.0242997" lon="8.107244"><ele>179.0</ele><time>2026-05-03T14:33:56.464Z</time></trkpt><trkpt lat="44.0243666" lon="8.1072478"><ele>173.0</ele><time>2026-05-03T14:33:57.464Z</time></trkpt><trkpt lat="44.0244864" lon="8.1072664"><ele>167.0</ele><time>2026-05-03T14:33:59.466Z</time></trkpt><trkpt lat="44.0245606" lon="8.107245"><ele>167.0</ele><time>2026-05-03T14:34:00.463Z</time></trkpt><trkpt lat="44.0246328" lon="8.1072459"><ele>167.0</ele><time>2026-05-03T14:34:01.469Z</time></trkpt><trkpt lat="44.0247029" lon="8.1072518"><ele>167.0</ele><time>2026-05-03T14:34:02.469Z</time></trkpt><trkpt lat="44.0247747" lon="8.1072531"><ele>167.0</ele><time>2026-05-03T14:34:03.462Z</time></trkpt><trkpt lat="44.0248573" lon="8.1072401"><ele>167.0</ele><time>2026-05-03T14:34:04.465Z</time></trkpt><trkpt lat="44.0249417" lon="8.1072073"><ele>167.0</ele><time>2026-05-03T14:34:05.464Z</time></trkpt><trkpt lat="44.0250179" lon="8.1071876"><ele>165.8</ele><time>2026-05-03T14:34:06.462Z</time></trkpt><trkpt lat="44.0251123" lon="8.1071851"><ele>164.6</ele><time>2026-05-03T14:34:08.458Z</time></trkpt><trkpt lat="44.025191" lon="8.1072884"><ele>163.4</ele><time>2026-05-03T14:34:10.462Z</time></trkpt><trkpt lat="44.0252124" lon="8.107413"><ele>162.20000000000002</ele><time>2026-05-03T14:34:11.471Z</time></trkpt><trkpt lat="44.0252437" lon="8.1075288"><ele>161.0</ele><time>2026-05-03T14:34:12.462Z</time></trkpt><trkpt lat="44.0252711" lon="8.1076275"><ele>164.20000000000002</ele><time>2026-05-03T14:34:13.462Z</time></trkpt><trkpt lat="44.0252928" lon="8.1077314"><ele>167.4</ele><time>2026-05-03T14:34:14.463Z</time></trkpt><trkpt lat="44.0252726" lon="8.1078795"><ele>170.6</ele><time>2026-05-03T14:34:16.464Z</time></trkpt><trkpt lat="44.0252115" lon="8.107989"><ele>173.8</ele><time>2026-05-03T14:34:18.466Z</time></trkpt><trkpt lat="44.0251606" lon="8.1080431"><ele>177.0</ele><time>2026-05-03T14:34:19.462Z</time></trkpt><trkpt lat="44.0250535" lon="8.1080612"><ele>177.0</ele><time>2026-05-03T14:34:21.461Z</time></trkpt><trkpt lat="44.0249859" lon="8.1081129"><ele>177.0</ele><time>2026-05-03T14:34:23.462Z</time></trkpt><trkpt lat="44.0249591" lon="8.108273"><ele>177.0</ele><time>2026-05-03T14:34:26.466Z</time></trkpt><trkpt lat="44.0250281" lon="8.1083118"><ele>177.0</ele><time>2026-05-03T14:34:28.465Z</time></trkpt><trkpt lat="44.0250911" lon="8.1081796"><ele>177.0</ele><time>2026-05-03T14:34:30.463Z</time></trkpt><trkpt lat="44.0252156" lon="8.1081071"><ele>177.0</ele><time>2026-05-03T14:34:32.476Z</time></trkpt><trkpt lat="44.0253029" lon="8.1080831"><ele>177.0</ele><time>2026-05-03T14:34:33.462Z</time></trkpt><trkpt lat="44.0253774" lon="8.1080711"><ele>177.0</ele><time>2026-05-03T14:34:34.462Z</time></trkpt><trkpt lat="44.0254456" lon="8.1080791"><ele>177.0</ele><time>2026-05-03T14:34:35.463Z</time></trkpt><trkpt lat="44.0255494" lon="8.1080718"><ele>177.0</ele><time>2026-05-03T14:34:37.463Z</time></trkpt><trkpt lat="44.0256504" lon="8.1079942"><ele>177.0</ele><time>2026-05-03T14:34:39.46Z</time></trkpt><trkpt lat="44.0257193" lon="8.1079253"><ele>177.0</ele><time>2026-05-03T14:34:40.464Z</time></trkpt><trkpt lat="44.0257912" lon="8.1078501"><ele>177.0</ele><time>2026-05-03T14:34:41.461Z</time></trkpt><trkpt lat="44.0258245" lon="8.1077563"><ele>177.0</ele><time>2026-05-03T14:34:42.462Z</time></trkpt><trkpt lat="44.0258389" lon="8.1075957"><ele>177.0</ele><time>2026-05-03T14:34:44.463Z</time></trkpt><trkpt lat="44.0258287" lon="8.1074994"><ele>177.0</ele><time>2026-05-03T14:34:46.461Z</time></trkpt><trkpt lat="44.0257798" lon="8.1074123"><ele>174.33333333333334</ele><time>2026-05-03T14:34:47.464Z</time></trkpt><trkpt lat="44.0257558" lon="8.1073304"><ele>171.66666666666666</ele><time>2026-05-03T14:34:48.463Z</time></trkpt><trkpt lat="44.0257133" lon="8.1072559"><ele>169.0</ele><time>2026-05-03T14:34:49.461Z</time></trkpt><trkpt lat="44.0256753" lon="8.1071734"><ele>166.33333333333331</ele><time>2026-05-03T14:34:50.462Z</time></trkpt><trkpt lat="44.0256774" lon="8.107078"><ele>163.66666666666666</ele><time>2026-05-03T14:34:52.461Z</time></trkpt><trkpt lat="44.0256535" lon="8.1069592"><ele>161.0</ele><time>2026-05-03T14:34:55.467Z</time></trkpt><trkpt lat="44.0255954" lon="8.1068444"><ele>161.0</ele><time>2026-05-03T14:34:57.462Z</time></trkpt><trkpt lat="44.0255553" lon="8.1067473"><ele>161.0</ele><time>2026-05-03T14:34:58.464Z</time></trkpt><trkpt lat="44.0254379" lon="8.1066486"><ele>161.0</ele><time>2026-05-03T14:34:59.462Z</time></trkpt><trkpt lat="44.0253627" lon="8.106565"><ele>161.0</ele><time>2026-05-03T14:35:00.46Z</time></trkpt><trkpt lat="44.025316" lon="8.1064641"><ele>161.0</ele><time>2026-05-03T14:35:01.463Z</time></trkpt><trkpt lat="44.0252394" lon="8.1064009"><ele>157.4</ele><time>2026-05-03T14:35:02.464Z</time></trkpt><trkpt lat="44.0251664" lon="8.1063211"><ele>153.8</ele><time>2026-05-03T14:35:03.462Z</time></trkpt><trkpt lat="44.0250719" lon="8.1062505"><ele>150.20000000000002</ele><time>2026-05-03T14:35:04.462Z</time></trkpt><trkpt lat="44.0249655" lon="8.106195"><ele>146.60000000000002</ele><time>2026-05-03T14:35:05.467Z</time></trkpt><trkpt lat="44.0248995" lon="8.1062135"><ele>143.0</ele><time>2026-05-03T14:35:06.467Z</time></trkpt><trkpt lat="44.0247987" lon="8.1062069"><ele>143.0</ele><time>2026-05-03T14:35:07.457Z</time></trkpt><trkpt lat="44.0247134" lon="8.1062462"><ele>143.0</ele><time>2026-05-03T14:35:08.46Z</time></trkpt><trkpt lat="44.0246229" lon="8.1062685"><ele>143.0</ele><time>2026-05-03T14:35:09.458Z</time></trkpt><trkpt lat="44.024533" lon="8.1062665"><ele>143.0</ele><time>2026-05-03T14:35:10.462Z</time></trkpt><trkpt lat="44.0244488" lon="8.10627"><ele>143.0</ele><time>2026-05-03T14:35:11.461Z</time></trkpt><trkpt lat="44.0243518" lon="8.1062513"><ele>143.0</ele><time>2026-05-03T14:35:12.463Z</time></trkpt><trkpt lat="44.0242466" lon="8.106201"><ele>143.0</ele><time>2026-05-03T14:35:13.467Z</time></trkpt><trkpt lat="44.0241451" lon="8.1061571"><ele>143.0</ele><time>2026-05-03T14:35:14.464Z</time></trkpt><trkpt lat="44.0240587" lon="8.1061326"><ele>143.0</ele><time>2026-05-03T14:35:15.465Z</time></trkpt><trkpt lat="44.0239749" lon="8.106108"><ele>143.0</ele><time>2026-05-03T14:35:16.46Z</time></trkpt><trkpt lat="44.0239009" lon="8.1060792"><ele>144.0</ele><time>2026-05-03T14:35:17.46Z</time></trkpt><trkpt lat="44.0237917" lon="8.1060242"><ele>145.0</ele><time>2026-05-03T14:35:18.461Z</time></trkpt><trkpt lat="44.0236913" lon="8.105969"><ele>146.0</ele><time>2026-05-03T14:35:19.461Z</time></trkpt><trkpt lat="44.0236147" lon="8.1059562"><ele>147.0</ele><time>2026-05-03T14:35:20.464Z</time></trkpt><trkpt lat="44.0235499" lon="8.1059304"><ele>148.0</ele><time>2026-05-03T14:35:21.464Z</time></trkpt><trkpt lat="44.0234268" lon="8.1059213"><ele>148.0</ele><time>2026-05-03T14:35:23.464Z</time></trkpt><trkpt lat="44.0233519" lon="8.1059264"><ele>148.0</ele><time>2026-05-03T14:35:24.467Z</time></trkpt><trkpt lat="44.02329" lon="8.105954"><ele>148.0</ele><time>2026-05-03T14:35:25.465Z</time></trkpt><trkpt lat="44.0231789" lon="8.1059755"><ele>148.0</ele><time>2026-05-03T14:35:27.464Z</time></trkpt><trkpt lat="44.0230572" lon="8.1059579"><ele>148.0</ele><time>2026-05-03T14:35:29.46Z</time></trkpt><trkpt lat="44.0229778" lon="8.1059265"><ele>150.0</ele><time>2026-05-03T14:35:30.469Z</time></trkpt><trkpt lat="44.0228464" lon="8.1059194"><ele>152.0</ele><time>2026-05-03T14:35:32.46Z</time></trkpt><trkpt lat="44.022736" lon="8.1059434"><ele>154.0</ele><time>2026-05-03T14:35:34.46Z</time></trkpt><trkpt lat="44.0226361" lon="8.105888"><ele>156.0</ele><time>2026-05-03T14:35:36.462Z</time></trkpt><trkpt lat="44.0225813" lon="8.1058334"><ele>158.0</ele><time>2026-05-03T14:35:37.461Z</time></trkpt><trkpt lat="44.0225158" lon="8.1057718"><ele>157.6</ele><time>2026-05-03T14:35:38.459Z</time></trkpt><trkpt lat="44.0224722" lon="8.1056673"><ele>157.20000000000002</ele><time>2026-05-03T14:35:39.467Z</time></trkpt><trkpt lat="44.0223728" lon="8.1055787"><ele>156.8</ele><time>2026-05-03T14:35:41.46Z</time></trkpt><trkpt lat="44.0222879" lon="8.1055306"><ele>156.4</ele><time>2026-05-03T14:35:42.459Z</time></trkpt><trkpt lat="44.0222124" lon="8.1055246"><ele>156.0</ele><time>2026-05-03T14:35:43.462Z</time></trkpt><trkpt lat="44.0221677" lon="8.1056183"><ele>156.0</ele><time>2026-05-03T14:35:44.461Z</time></trkpt><trkpt lat="44.0221152" lon="8.1056667"><ele>156.0</ele><time>2026-05-03T14:35:45.461Z</time></trkpt><trkpt lat="44.022046" lon="8.1056743"><ele>156.0</ele><time>2026-05-03T14:35:46.463Z</time></trkpt><trkpt lat="44.0219312" lon="8.1057189"><ele>156.0</ele><time>2026-05-03T14:35:48.462Z</time></trkpt><trkpt lat="44.021832" lon="8.1057595"><ele>156.0</ele><time>2026-05-03T14:35:50.459Z</time></trkpt><trkpt lat="44.0217467" lon="8.1058556"><ele>157.83333333333334</ele><time>2026-05-03T14:35:52.462Z</time></trkpt><trkpt lat="44.0217008" lon="8.1059255"><ele>159.66666666666666</ele><time>2026-05-03T14:35:53.461Z</time></trkpt><trkpt lat="44.0216209" lon="8.1060078"><ele>161.5</ele><time>2026-05-03T14:35:55.46Z</time></trkpt><trkpt lat="44.0215533" lon="8.1060776"><ele>163.33333333333331</ele><time>2026-05-03T14:35:57.462Z</time></trkpt><trkpt lat="44.0214812" lon="8.106069"><ele>165.16666666666666</ele><time>2026-05-03T14:35:58.463Z</time></trkpt><trkpt lat="44.0213703" lon="8.1061031"><ele>167.0</ele><time>2026-05-03T14:36:00.46Z</time></trkpt><trkpt lat="44.0212901" lon="8.1061486"><ele>172.0</ele><time>2026-05-03T14:36:02.466Z</time></trkpt><trkpt lat="44.0211983" lon="8.106102"><ele>177.0</ele><time>2026-05-03T14:36:04.468Z</time></trkpt><trkpt lat="44.0211725" lon="8.1059967"><ele>182.0</ele><time>2026-05-03T14:36:06.461Z</time></trkpt><trkpt lat="44.0211533" lon="8.1058462"><ele>187.0</ele><time>2026-05-03T14:36:08.461Z</time></trkpt><trkpt lat="44.0212207" lon="8.1057597"><ele>192.0</ele><time>2026-05-03T14:36:09.462Z</time></trkpt><trkpt lat="44.0212304" lon="8.1056346"><ele>191.99999999999997</ele><time>2026-05-03T14:36:10.467Z</time></trkpt><trkpt lat="44.02125" lon="8.1055385"><ele>192.0</ele><time>2026-05-03T14:36:11.46Z</time></trkpt><trkpt lat="44.0212716" lon="8.1054384"><ele>192.0</ele><time>2026-05-03T14:36:12.463Z</time></trkpt><trkpt lat="44.0212996" lon="8.1053581"><ele>192.0</ele><time>2026-05-03T14:36:13.46Z</time></trkpt><trkpt lat="44.0213389" lon="8.1052741"><ele>192.0</ele><time>2026-05-03T14:36:14.464Z</time></trkpt><trkpt lat="44.0213545" lon="8.1051875"><ele>191.99999999999997</ele><time>2026-05-03T14:36:15.463Z</time></trkpt><trkpt lat="44.0212914" lon="8.1051533"><ele>192.0</ele><time>2026-05-03T14:36:16.463Z</time></trkpt><trkpt lat="44.0212337" lon="8.1050865"><ele>192.0</ele><time>2026-05-03T14:36:17.47Z</time></trkpt><trkpt lat="44.0211875" lon="8.1049223"><ele>192.0</ele><time>2026-05-03T14:36:19.463Z</time></trkpt><trkpt lat="44.0211608" lon="8.1048299"><ele>192.0</ele><time>2026-05-03T14:36:20.466Z</time></trkpt><trkpt lat="44.0211149" lon="8.104763"><ele>192.0</ele><time>2026-05-03T14:36:21.459Z</time></trkpt><trkpt lat="44.0210552" lon="8.1047121"><ele>192.0</ele><time>2026-05-03T14:36:22.461Z</time></trkpt><trkpt lat="44.0209861" lon="8.1046579"><ele>192.0</ele><time>2026-05-03T14:36:23.46Z</time></trkpt><trkpt lat="44.0209229" lon="8.104662"><ele>190.42857142857142</ele><time>2026-05-03T14:36:24.46Z</time></trkpt><trkpt lat="44.0208601" lon="8.1046188"><ele>188.85714285714286</ele><time>2026-05-03T14:36:25.463Z</time></trkpt><trkpt lat="44.0208014" lon="8.1045816"><ele>187.28571428571428</ele><time>2026-05-03T14:36:26.463Z</time></trkpt><trkpt lat="44.0207527" lon="8.104504"><ele>185.71428571428572</ele><time>2026-05-03T14:36:27.464Z</time></trkpt><trkpt lat="44.020697" lon="8.1044442"><ele>184.14285714285714</ele><time>2026-05-03T14:36:28.466Z</time></trkpt><trkpt lat="44.0206399" lon="8.1043645"><ele>182.57142857142856</ele><time>2026-05-03T14:36:29.46Z</time></trkpt><trkpt lat="44.0205945" lon="8.1042859"><ele>181.0</ele><time>2026-05-03T14:36:30.46Z</time></trkpt><trkpt lat="44.0205267" lon="8.1042126"><ele>187.5</ele><time>2026-05-03T14:36:31.462Z</time></trkpt><trkpt lat="44.0204605" lon="8.1040267"><ele>194.0</ele><time>2026-05-03T14:36:33.462Z</time></trkpt><trkpt lat="44.0203608" lon="8.1039599"><ele>200.5</ele><time>2026-05-03T14:36:35.462Z</time></trkpt><trkpt lat="44.0202286" lon="8.103901"><ele>207.0</ele><time>2026-05-03T14:36:37.463Z</time></trkpt><trkpt lat="44.0201515" lon="8.1038628"><ele>207.0</ele><time>2026-05-03T14:36:38.462Z</time></trkpt><trkpt lat="44.0200921" lon="8.1038129"><ele>207.0</ele><time>2026-05-03T14:36:39.459Z</time></trkpt><trkpt lat="44.0201096" lon="8.1036852"><ele>207.0</ele><time>2026-05-03T14:36:41.461Z</time></trkpt><trkpt lat="44.0201644" lon="8.1035595"><ele>207.0</ele><time>2026-05-03T14:36:43.464Z</time></trkpt><trkpt lat="44.020238" lon="8.1034851"><ele>207.0</ele><time>2026-05-03T14:36:44.463Z</time></trkpt><trkpt lat="44.0202932" lon="8.1034028"><ele>207.0</ele><time>2026-05-03T14:36:45.464Z</time></trkpt><trkpt lat="44.0203795" lon="8.1033424"><ele>207.0</ele><time>2026-05-03T14:36:46.463Z</time></trkpt><trkpt lat="44.0204341" lon="8.1032775"><ele>207.0</ele><time>2026-05-03T14:36:47.466Z</time></trkpt><trkpt lat="44.0205044" lon="8.103247"><ele>207.0</ele><time>2026-05-03T14:36:48.459Z</time></trkpt><trkpt lat="44.0205948" lon="8.103235"><ele>207.0</ele><time>2026-05-03T14:36:49.464Z</time></trkpt><trkpt lat="44.0206666" lon="8.1032046"><ele>207.0</ele><time>2026-05-03T14:36:50.459Z</time></trkpt><trkpt lat="44.0207302" lon="8.1031508"><ele>207.0</ele><time>2026-05-03T14:36:51.467Z</time></trkpt><trkpt lat="44.0208061" lon="8.1030327"><ele>207.33333333333334</ele><time>2026-05-03T14:36:53.46Z</time></trkpt><trkpt lat="44.0209021" lon="8.1030002"><ele>207.66666666666669</ele><time>2026-05-03T14:36:55.46Z</time></trkpt><trkpt lat="44.0209729" lon="8.1030071"><ele>208.0</ele><time>2026-05-03T14:36:56.469Z</time></trkpt><trkpt lat="44.0210493" lon="8.1030094"><ele>208.33333333333334</ele><time>2026-05-03T14:36:57.464Z</time></trkpt><trkpt lat="44.0211163" lon="8.1030096"><ele>208.66666666666669</ele><time>2026-05-03T14:36:58.46Z</time></trkpt><trkpt lat="44.0212215" lon="8.1029798"><ele>209.0</ele><time>2026-05-03T14:37:00.461Z</time></trkpt><trkpt lat="44.0212842" lon="8.1029115"><ele>209.0</ele><time>2026-05-03T14:37:02.46Z</time></trkpt><trkpt lat="44.0212881" lon="8.1027815"><ele>209.0</ele><time>2026-05-03T14:37:04.46Z</time></trkpt><trkpt lat="44.0212805" lon="8.1026822"><ele>209.0</ele><time>2026-05-03T14:37:05.462Z</time></trkpt><trkpt lat="44.0212912" lon="8.1025947"><ele>209.0</ele><time>2026-05-03T14:37:06.462Z</time></trkpt><trkpt lat="44.0213506" lon="8.1024474"><ele>209.0</ele><time>2026-05-03T14:37:08.458Z</time></trkpt><trkpt lat="44.0214294" lon="8.1023424"><ele>210.66666666666669</ele><time>2026-05-03T14:37:10.467Z</time></trkpt><trkpt lat="44.0215255" lon="8.1023513"><ele>212.33333333333334</ele><time>2026-05-03T14:37:11.46Z</time></trkpt><trkpt lat="44.0216047" lon="8.1022881"><ele>214.0</ele><time>2026-05-03T14:37:13.462Z</time></trkpt><trkpt lat="44.0216656" lon="8.1022569"><ele>215.66666666666669</ele><time>2026-05-03T14:37:14.46Z</time></trkpt><trkpt lat="44.0217301" lon="8.1022346"><ele>217.33333333333334</ele><time>2026-05-03T14:37:15.462Z</time></trkpt><trkpt lat="44.0217945" lon="8.1022079"><ele>219.0</ele><time>2026-05-03T14:37:16.465Z</time></trkpt><trkpt lat="44.02188" lon="8.102185"><ele>219.0</ele><time>2026-05-03T14:37:17.464Z</time></trkpt><trkpt lat="44.0219679" lon="8.1021683"><ele>218.99999999999997</ele><time>2026-05-03T14:37:19.463Z</time></trkpt><trkpt lat="44.0220852" lon="8.1021595"><ele>218.99999999999997</ele><time>2026-05-03T14:37:21.46Z</time></trkpt><trkpt lat="44.022193" lon="8.1022039"><ele>219.0</ele><time>2026-05-03T14:37:23.463Z</time></trkpt><trkpt lat="44.0222571" lon="8.102266"><ele>219.0</ele><time>2026-05-03T14:37:24.462Z</time></trkpt><trkpt lat="44.0223669" lon="8.1023589"><ele>219.0</ele><time>2026-05-03T14:37:26.463Z</time></trkpt><trkpt lat="44.0224239" lon="8.1024124"><ele>219.0</ele><time>2026-05-03T14:37:27.46Z</time></trkpt><trkpt lat="44.0224887" lon="8.1024916"><ele>219.0</ele><time>2026-05-03T14:37:28.461Z</time></trkpt><trkpt lat="44.0225409" lon="8.1025733"><ele>219.0</ele><time>2026-05-03T14:37:29.46Z</time></trkpt><trkpt lat="44.0226013" lon="8.1026144"><ele>219.0</ele><time>2026-05-03T14:37:30.46Z</time></trkpt><trkpt lat="44.0226675" lon="8.1026482"><ele>219.0</ele><time>2026-05-03T14:37:31.464Z</time></trkpt><trkpt lat="44.0227808" lon="8.1026842"><ele>217.2</ele><time>2026-05-03T14:37:33.463Z</time></trkpt><trkpt lat="44.0228489" lon="8.1026861"><ele>215.39999999999998</ele><time>2026-05-03T14:37:35.465Z</time></trkpt><trkpt lat="44.0228986" lon="8.1025093"><ele>213.6</ele><time>2026-05-03T14:37:37.46Z</time></trkpt><trkpt lat="44.0229645" lon="8.1023595"><ele>211.8</ele><time>2026-05-03T14:37:39.46Z</time></trkpt><trkpt lat="44.0230193" lon="8.1022827"><ele>210.0</ele><time>2026-05-03T14:37:40.462Z</time></trkpt><trkpt lat="44.0231155" lon="8.102169"><ele>212.16666666666666</ele><time>2026-05-03T14:37:42.463Z</time></trkpt><trkpt lat="44.0231673" lon="8.102099"><ele>214.33333333333331</ele><time>2026-05-03T14:37:43.46Z</time></trkpt><trkpt lat="44.0232188" lon="8.1020201"><ele>216.5</ele><time>2026-05-03T14:37:44.461Z</time></trkpt><trkpt lat="44.0233058" lon="8.1019533"><ele>218.66666666666666</ele><time>2026-05-03T14:37:45.47Z</time></trkpt><trkpt lat="44.0233703" lon="8.1018912"><ele>220.83333333333331</ele><time>2026-05-03T14:37:46.461Z</time></trkpt><trkpt lat="44.0234479" lon="8.101829"><ele>223.0</ele><time>2026-05-03T14:37:47.462Z</time></trkpt><trkpt lat="44.0235267" lon="8.1017289"><ele>223.0</ele><time>2026-05-03T14:37:49.459Z</time></trkpt><trkpt lat="44.0235958" lon="8.1015852"><ele>223.0</ele><time>2026-05-03T14:37:51.46Z</time></trkpt><trkpt lat="44.0234961" lon="8.1014798"><ele>223.0</ele><time>2026-05-03T14:37:53.463Z</time></trkpt><trkpt lat="44.0234382" lon="8.1014166"><ele>223.0</ele><time>2026-05-03T14:37:54.463Z</time></trkpt><trkpt lat="44.0233817" lon="8.1013521"><ele>223.0</ele><time>2026-05-03T14:37:55.461Z</time></trkpt><trkpt lat="44.0232851" lon="8.1012059"><ele>223.99999999999997</ele><time>2026-05-03T14:37:57.464Z</time></trkpt><trkpt lat="44.0232988" lon="8.1010747"><ele>225.0</ele><time>2026-05-03T14:37:59.464Z</time></trkpt><trkpt lat="44.0233408" lon="8.1009941"><ele>226.0</ele><time>2026-05-03T14:38:00.461Z</time></trkpt><trkpt lat="44.0233603" lon="8.1008932"><ele>227.0</ele><time>2026-05-03T14:38:01.461Z</time></trkpt><trkpt lat="44.0234432" lon="8.100858"><ele>227.99999999999997</ele><time>2026-05-03T14:38:02.46Z</time></trkpt><trkpt lat="44.0235053" lon="8.1007958"><ele>229.0</ele><time>2026-05-03T14:38:03.464Z</time></trkpt><trkpt lat="44.0235403" lon="8.1007109"><ele>230.79999999999998</ele><time>2026-05-03T14:38:04.462Z</time></trkpt><trkpt lat="44.0235563" lon="8.1006086"><ele>232.59999999999997</ele><time>2026-05-03T14:38:05.466Z</time></trkpt><trkpt lat="44.0236121" lon="8.1005177"><ele>234.4</ele><time>2026-05-03T14:38:06.467Z</time></trkpt><trkpt lat="44.0237188" lon="8.1004083"><ele>236.2</ele><time>2026-05-03T14:38:08.458Z</time></trkpt><trkpt lat="44.0238053" lon="8.1003497"><ele>238.0</ele><time>2026-05-03T14:38:09.459Z</time></trkpt><trkpt lat="44.023866" lon="8.1002816"><ele>238.0</ele><time>2026-05-03T14:38:10.461Z</time></trkpt><trkpt lat="44.0239269" lon="8.1002191"><ele>238.0</ele><time>2026-05-03T14:38:11.461Z</time></trkpt><trkpt lat="44.0240358" lon="8.1001469"><ele>238.0</ele><time>2026-05-03T14:38:13.461Z</time></trkpt><trkpt lat="44.0241785" lon="8.1000811"><ele>238.0</ele><time>2026-05-03T14:38:15.461Z</time></trkpt><trkpt lat="44.0242604" lon="8.1000128"><ele>238.0</ele><time>2026-05-03T14:38:16.461Z</time></trkpt><trkpt lat="44.024334" lon="8.099914"><ele>234.16666666666666</ele><time>2026-05-03T14:38:17.463Z</time></trkpt><trkpt lat="44.0243904" lon="8.0998497"><ele>230.33333333333331</ele><time>2026-05-03T14:38:18.461Z</time></trkpt><trkpt lat="44.0244545" lon="8.0997791"><ele>226.5</ele><time>2026-05-03T14:38:19.461Z</time></trkpt><trkpt lat="44.0245126" lon="8.0997151"><ele>222.66666666666669</ele><time>2026-05-03T14:38:21.462Z</time></trkpt><trkpt lat="44.0244554" lon="8.0996641"><ele>218.83333333333334</ele><time>2026-05-03T14:38:25.46Z</time></trkpt><trkpt lat="44.0243895" lon="8.099592"><ele>215.0</ele><time>2026-05-03T14:38:54.464Z</time></trkpt><trkpt lat="44.0242695" lon="8.0995014"><ele>215.0</ele><time>2026-05-03T14:38:56.464Z</time></trkpt><trkpt lat="44.0242204" lon="8.0994248"><ele>215.0</ele><time>2026-05-03T14:38:57.462Z</time></trkpt><trkpt lat="44.0241626" lon="8.0993659"><ele>215.0</ele><time>2026-05-03T14:38:58.465Z</time></trkpt><trkpt lat="44.0240556" lon="8.0992713"><ele>215.0</ele><time>2026-05-03T14:38:59.46Z</time></trkpt><trkpt lat="44.0240025" lon="8.0991493"><ele>215.0</ele><time>2026-05-03T14:39:01.464Z</time></trkpt><trkpt lat="44.0239507" lon="8.099042"><ele>214.0</ele><time>2026-05-03T14:39:02.463Z</time></trkpt><trkpt lat="44.023889" lon="8.0989994"><ele>213.0</ele><time>2026-05-03T14:39:03.462Z</time></trkpt><trkpt lat="44.0237899" lon="8.0989664"><ele>212.0</ele><time>2026-05-03T14:39:04.464Z</time></trkpt><trkpt lat="44.0236727" lon="8.0989859"><ele>211.0</ele><time>2026-05-03T14:39:05.459Z</time></trkpt><trkpt lat="44.0236119" lon="8.0991674"><ele>210.0</ele><time>2026-05-03T14:39:06.462Z</time></trkpt><trkpt lat="44.0234786" lon="8.0992186"><ele>212.2</ele><time>2026-05-03T14:39:08.458Z</time></trkpt><trkpt lat="44.0234058" lon="8.0992334"><ele>214.4</ele><time>2026-05-03T14:39:09.458Z</time></trkpt><trkpt lat="44.0233379" lon="8.0992424"><ele>216.60000000000002</ele><time>2026-05-03T14:39:10.461Z</time></trkpt><trkpt lat="44.0232572" lon="8.0992138"><ele>218.8</ele><time>2026-05-03T14:39:11.46Z</time></trkpt><trkpt lat="44.023106" lon="8.0990765"><ele>221.0</ele><time>2026-05-03T14:39:14.46Z</time></trkpt><trkpt lat="44.0230973" lon="8.0989541"><ele>221.0</ele><time>2026-05-03T14:39:15.461Z</time></trkpt><trkpt lat="44.0230366" lon="8.0988461"><ele>221.00000000000003</ele><time>2026-05-03T14:39:16.462Z</time></trkpt><trkpt lat="44.022993" lon="8.0987479"><ele>221.00000000000003</ele><time>2026-05-03T14:39:17.461Z</time></trkpt><trkpt lat="44.022927" lon="8.0986154"><ele>221.0</ele><time>2026-05-03T14:39:19.464Z</time></trkpt><trkpt lat="44.0228614" lon="8.0985794"><ele>221.0</ele><time>2026-05-03T14:39:20.464Z</time></trkpt><trkpt lat="44.0227889" lon="8.0985058"><ele>221.0</ele><time>2026-05-03T14:39:22.461Z</time></trkpt><trkpt lat="44.0227103" lon="8.0984622"><ele>221.00000000000003</ele><time>2026-05-03T14:39:23.461Z</time></trkpt><trkpt lat="44.0226578" lon="8.0985655"><ele>221.00000000000003</ele><time>2026-05-03T14:39:24.463Z</time></trkpt><trkpt lat="44.0225554" lon="8.0986462"><ele>221.0</ele><time>2026-05-03T14:39:26.462Z</time></trkpt><trkpt lat="44.0224859" lon="8.0987047"><ele>221.0</ele><time>2026-05-03T14:39:27.462Z</time></trkpt><trkpt lat="44.022402" lon="8.0987113"><ele>221.60000000000002</ele><time>2026-05-03T14:39:28.463Z</time></trkpt><trkpt lat="44.0223158" lon="8.0987649"><ele>222.20000000000002</ele><time>2026-05-03T14:39:29.461Z</time></trkpt><trkpt lat="44.0222293" lon="8.0988215"><ele>222.79999999999998</ele><time>2026-05-03T14:39:30.464Z</time></trkpt><trkpt lat="44.0221668" lon="8.0988823"><ele>223.39999999999998</ele><time>2026-05-03T14:39:31.461Z</time></trkpt><trkpt lat="44.022087" lon="8.0989567"><ele>224.0</ele><time>2026-05-03T14:39:32.46Z</time></trkpt><trkpt lat="44.0219564" lon="8.0990074"><ele>224.0</ele><time>2026-05-03T14:39:34.458Z</time></trkpt><trkpt lat="44.0218868" lon="8.0990028"><ele>223.99999999999997</ele><time>2026-05-03T14:39:35.463Z</time></trkpt><trkpt lat="44.0217985" lon="8.0989815"><ele>223.99999999999997</ele><time>2026-05-03T14:39:36.46Z</time></trkpt><trkpt lat="44.0216921" lon="8.0988838"><ele>224.0</ele><time>2026-05-03T14:39:38.462Z</time></trkpt><trkpt lat="44.021627" lon="8.09882"><ele>224.0</ele><time>2026-05-03T14:39:39.461Z</time></trkpt><trkpt lat="44.0215514" lon="8.0987718"><ele>225.00000000000003</ele><time>2026-05-03T14:39:40.465Z</time></trkpt><trkpt lat="44.0214805" lon="8.0987465"><ele>226.0</ele><time>2026-05-03T14:39:41.462Z</time></trkpt><trkpt lat="44.0213617" lon="8.0987749"><ele>227.0</ele><time>2026-05-03T14:39:43.461Z</time></trkpt><trkpt lat="44.0212843" lon="8.0988126"><ele>228.0</ele><time>2026-05-03T14:39:44.461Z</time></trkpt><trkpt lat="44.0212049" lon="8.0988479"><ele>229.00000000000003</ele><time>2026-05-03T14:39:45.463Z</time></trkpt><trkpt lat="44.0211324" lon="8.0988566"><ele>230.0</ele><time>2026-05-03T14:39:46.46Z</time></trkpt><trkpt lat="44.0210546" lon="8.0988997"><ele>229.99999999999997</ele><time>2026-05-03T14:39:47.462Z</time></trkpt><trkpt lat="44.0209771" lon="8.098941"><ele>230.0</ele><time>2026-05-03T14:39:48.461Z</time></trkpt><trkpt lat="44.0209424" lon="8.0988676"><ele>229.99999999999997</ele><time>2026-05-03T14:39:49.463Z</time></trkpt><trkpt lat="44.0208816" lon="8.0988201"><ele>229.99999999999997</ele><time>2026-05-03T14:39:50.464Z</time></trkpt><trkpt lat="44.0208229" lon="8.0987602"><ele>230.0</ele><time>2026-05-03T14:39:52.461Z</time></trkpt><trkpt lat="44.0207673" lon="8.098711"><ele>229.99999999999997</ele><time>2026-05-03T14:39:53.46Z</time></trkpt><trkpt lat="44.0206751" lon="8.098694"><ele>229.99999999999997</ele><time>2026-05-03T14:39:54.464Z</time></trkpt><trkpt lat="44.0205872" lon="8.0987005"><ele>232.83333333333334</ele><time>2026-05-03T14:39:55.462Z</time></trkpt><trkpt lat="44.0205112" lon="8.0987042"><ele>235.66666666666669</ele><time>2026-05-03T14:39:56.46Z</time></trkpt><trkpt lat="44.0204195" lon="8.0987304"><ele>238.5</ele><time>2026-05-03T14:39:57.461Z</time></trkpt><trkpt lat="44.0203447" lon="8.098766"><ele>241.33333333333331</ele><time>2026-05-03T14:39:58.464Z</time></trkpt><trkpt lat="44.020271" lon="8.0987563"><ele>244.16666666666666</ele><time>2026-05-03T14:39:59.463Z</time></trkpt><trkpt lat="44.0201903" lon="8.098762"><ele>247.0</ele><time>2026-05-03T14:40:00.462Z</time></trkpt><trkpt lat="44.0200603" lon="8.0987336"><ele>251.33333333333331</ele><time>2026-05-03T14:40:02.463Z</time></trkpt><trkpt lat="44.0199782" lon="8.0987076"><ele>255.66666666666666</ele><time>2026-05-03T14:40:03.458Z</time></trkpt><trkpt lat="44.0199576" lon="8.0985755"><ele>260.0</ele><time>2026-05-03T14:40:04.458Z</time></trkpt><trkpt lat="44.0198904" lon="8.0985112"><ele>264.3333333333333</ele><time>2026-05-03T14:40:05.459Z</time></trkpt><trkpt lat="44.019834" lon="8.0984439"><ele>268.6666666666667</ele><time>2026-05-03T14:40:06.461Z</time></trkpt><trkpt lat="44.0197261" lon="8.0984132"><ele>273.0</ele><time>2026-05-03T14:40:07.462Z</time></trkpt><trkpt lat="44.0196442" lon="8.0983723"><ele>273.0</ele><time>2026-05-03T14:40:08.466Z</time></trkpt><trkpt lat="44.0195561" lon="8.0983181"><ele>273.0</ele><time>2026-05-03T14:40:09.462Z</time></trkpt><trkpt lat="44.0195009" lon="8.0982554"><ele>273.0</ele><time>2026-05-03T14:40:10.465Z</time></trkpt><trkpt lat="44.0193964" lon="8.0981901"><ele>273.0</ele><time>2026-05-03T14:40:12.461Z</time></trkpt><trkpt lat="44.0193317" lon="8.0981563"><ele>273.0</ele><time>2026-05-03T14:40:13.462Z</time></trkpt><trkpt lat="44.0192627" lon="8.0980991"><ele>273.0</ele><time>2026-05-03T14:40:14.462Z</time></trkpt><trkpt lat="44.0192877" lon="8.0979403"><ele>273.6</ele><time>2026-05-03T14:40:16.461Z</time></trkpt><trkpt lat="44.0193355" lon="8.0977615"><ele>274.20000000000005</ele><time>2026-05-03T14:40:18.463Z</time></trkpt><trkpt lat="44.0193821" lon="8.0976049"><ele>274.8</ele><time>2026-05-03T14:40:20.468Z</time></trkpt><trkpt lat="44.0193734" lon="8.0974816"><ele>275.40000000000003</ele><time>2026-05-03T14:40:22.463Z</time></trkpt><trkpt lat="44.019434" lon="8.0974043"><ele>276.0</ele><time>2026-05-03T14:40:23.462Z</time></trkpt><trkpt lat="44.0194868" lon="8.0973403"><ele>276.0</ele><time>2026-05-03T14:40:24.471Z</time></trkpt><trkpt lat="44.0195433" lon="8.0973012"><ele>276.0</ele><time>2026-05-03T14:40:25.46Z</time></trkpt><trkpt lat="44.019582" lon="8.097216"><ele>276.0</ele><time>2026-05-03T14:40:26.465Z</time></trkpt><trkpt lat="44.0196401" lon="8.0970578"><ele>276.0</ele><time>2026-05-03T14:40:28.459Z</time></trkpt><trkpt lat="44.0196258" lon="8.0969495"><ele>276.0</ele><time>2026-05-03T14:40:29.466Z</time></trkpt><trkpt lat="44.0196212" lon="8.0968416"><ele>276.0</ele><time>2026-05-03T14:40:30.461Z</time></trkpt><trkpt lat="44.0195733" lon="8.0966954"><ele>273.0</ele><time>2026-05-03T14:40:32.461Z</time></trkpt><trkpt lat="44.0195368" lon="8.0965066"><ele>270.0</ele><time>2026-05-03T14:40:34.461Z</time></trkpt><trkpt lat="44.0194468" lon="8.0964898"><ele>267.0</ele><time>2026-05-03T14:40:35.46Z</time></trkpt><trkpt lat="44.019385" lon="8.0963589"><ele>264.0</ele><time>2026-05-03T14:40:37.468Z</time></trkpt><trkpt lat="44.0192912" lon="8.0961987"><ele>264.0</ele><time>2026-05-03T14:40:39.46Z</time></trkpt><trkpt lat="44.019269" lon="8.096088"><ele>264.0</ele><time>2026-05-03T14:40:40.463Z</time></trkpt><trkpt lat="44.0192648" lon="8.0959864"><ele>264.0</ele><time>2026-05-03T14:40:41.461Z</time></trkpt><trkpt lat="44.0192216" lon="8.0958791"><ele>264.0</ele><time>2026-05-03T14:40:42.462Z</time></trkpt><trkpt lat="44.0192051" lon="8.0957751"><ele>264.0</ele><time>2026-05-03T14:40:43.461Z</time></trkpt><trkpt lat="44.0191789" lon="8.0956888"><ele>264.0</ele><time>2026-05-03T14:40:44.46Z</time></trkpt><trkpt lat="44.0191067" lon="8.0956042"><ele>269.1666666666667</ele><time>2026-05-03T14:40:45.462Z</time></trkpt><trkpt lat="44.0190692" lon="8.0954995"><ele>274.3333333333333</ele><time>2026-05-03T14:40:46.462Z</time></trkpt><trkpt lat="44.0190052" lon="8.0954372"><ele>279.5</ele><time>2026-05-03T14:40:47.467Z</time></trkpt><trkpt lat="44.0189105" lon="8.0953875"><ele>284.66666666666663</ele><time>2026-05-03T14:40:48.464Z</time></trkpt><trkpt lat="44.0189313" lon="8.0952527"><ele>289.8333333333333</ele><time>2026-05-03T14:40:51.47Z</time></trkpt><trkpt lat="44.0189276" lon="8.0951608"><ele>295.0</ele><time>2026-05-03T14:40:53.463Z</time></trkpt><trkpt lat="44.0188953" lon="8.0950567"><ele>295.0</ele><time>2026-05-03T14:40:56.462Z</time></trkpt><trkpt lat="44.0188817" lon="8.0949396"><ele>295.0</ele><time>2026-05-03T14:40:58.457Z</time></trkpt><trkpt lat="44.018902" lon="8.0948371"><ele>295.0</ele><time>2026-05-03T14:41:00.461Z</time></trkpt><trkpt lat="44.0189911" lon="8.0947841"><ele>295.0</ele><time>2026-05-03T14:41:01.459Z</time></trkpt><trkpt lat="44.0190543" lon="8.0946927"><ele>295.0</ele><time>2026-05-03T14:41:03.46Z</time></trkpt><trkpt lat="44.0191014" lon="8.0945613"><ele>292.3333333333333</ele><time>2026-05-03T14:41:05.465Z</time></trkpt><trkpt lat="44.0191526" lon="8.0944234"><ele>289.66666666666663</ele><time>2026-05-03T14:41:07.463Z</time></trkpt><trkpt lat="44.0192097" lon="8.0943659"><ele>287.0</ele><time>2026-05-03T14:41:08.461Z</time></trkpt><trkpt lat="44.0192578" lon="8.0942668"><ele>284.3333333333333</ele><time>2026-05-03T14:41:09.472Z</time></trkpt><trkpt lat="44.0193065" lon="8.0942082"><ele>281.6666666666667</ele><time>2026-05-03T14:41:10.461Z</time></trkpt><trkpt lat="44.0193713" lon="8.0941537"><ele>279.0</ele><time>2026-05-03T14:41:11.46Z</time></trkpt><trkpt lat="44.0194047" lon="8.0940669"><ele>279.0</ele><time>2026-05-03T14:41:12.46Z</time></trkpt><trkpt lat="44.0194137" lon="8.0939674"><ele>279.0</ele><time>2026-05-03T14:41:13.462Z</time></trkpt><trkpt lat="44.0194226" lon="8.0937949"><ele>279.0</ele><time>2026-05-03T14:41:15.463Z</time></trkpt><trkpt lat="44.0194168" lon="8.0935961"><ele>279.0</ele><time>2026-05-03T14:41:17.458Z</time></trkpt><trkpt lat="44.0194159" lon="8.0935067"><ele>279.0</ele><time>2026-05-03T14:41:18.461Z</time></trkpt><trkpt lat="44.0194674" lon="8.0933641"><ele>279.0</ele><time>2026-05-03T14:41:20.46Z</time></trkpt><trkpt lat="44.0196804" lon="8.0932812"><ele>279.0</ele><time>2026-05-03T14:41:27.465Z</time></trkpt><trkpt lat="44.0197688" lon="8.0932542"><ele>279.0</ele><time>2026-05-03T14:41:29.464Z</time></trkpt><trkpt lat="44.019788" lon="8.0931692"><ele>279.0</ele><time>2026-05-03T14:41:31.46Z</time></trkpt><trkpt lat="44.0198045" lon="8.0930662"><ele>281.8</ele><time>2026-05-03T14:41:33.462Z</time></trkpt><trkpt lat="44.0198209" lon="8.0929077"><ele>284.59999999999997</ele><time>2026-05-03T14:41:35.464Z</time></trkpt><trkpt lat="44.0198389" lon="8.0927463"><ele>287.4</ele><time>2026-05-03T14:41:37.462Z</time></trkpt><trkpt lat="44.0198591" lon="8.0926615"><ele>290.2</ele><time>2026-05-03T14:41:38.456Z</time></trkpt><trkpt lat="44.0198725" lon="8.0925747"><ele>293.0</ele><time>2026-05-03T14:41:39.46Z</time></trkpt><trkpt lat="44.0198876" lon="8.0924088"><ele>295.4</ele><time>2026-05-03T14:41:41.46Z</time></trkpt><trkpt lat="44.0198586" lon="8.0923109"><ele>297.8</ele><time>2026-05-03T14:41:42.46Z</time></trkpt><trkpt lat="44.0198678" lon="8.0921569"><ele>300.2</ele><time>2026-05-03T14:41:44.465Z</time></trkpt><trkpt lat="44.0198873" lon="8.0920243"><ele>302.6</ele><time>2026-05-03T14:41:46.461Z</time></trkpt><trkpt lat="44.0199492" lon="8.0919308"><ele>305.0</ele><time>2026-05-03T14:41:48.46Z</time></trkpt><trkpt lat="44.0201386" lon="8.0918666"><ele>298.8</ele><time>2026-05-03T14:41:53.461Z</time></trkpt><trkpt lat="44.0202318" lon="8.091799"><ele>292.6</ele><time>2026-05-03T14:41:55.461Z</time></trkpt><trkpt lat="44.0203449" lon="8.091803"><ele>286.4</ele><time>2026-05-03T14:41:57.468Z</time></trkpt><trkpt lat="44.0204335" lon="8.0918286"><ele>280.2</ele><time>2026-05-03T14:41:59.463Z</time></trkpt><trkpt lat="44.0205038" lon="8.0918485"><ele>274.0</ele><time>2026-05-03T14:42:00.46Z</time></trkpt><trkpt lat="44.0205749" lon="8.0918802"><ele>274.0</ele><time>2026-05-03T14:42:01.462Z</time></trkpt><trkpt lat="44.0206357" lon="8.0919157"><ele>274.0</ele><time>2026-05-03T14:42:02.461Z</time></trkpt><trkpt lat="44.0207291" lon="8.0919998"><ele>274.0</ele><time>2026-05-03T14:42:04.464Z</time></trkpt><trkpt lat="44.020802" lon="8.0920055"><ele>274.0</ele><time>2026-05-03T14:42:05.465Z</time></trkpt><trkpt lat="44.0208992" lon="8.0920343"><ele>274.0</ele><time>2026-05-03T14:42:07.46Z</time></trkpt><trkpt lat="44.0209981" lon="8.0920408"><ele>274.0</ele><time>2026-05-03T14:42:09.46Z</time></trkpt><trkpt lat="44.0211276" lon="8.0920542"><ele>275.0</ele><time>2026-05-03T14:42:11.459Z</time></trkpt><trkpt lat="44.0212133" lon="8.0920547"><ele>276.0</ele><time>2026-05-03T14:42:12.463Z</time></trkpt><trkpt lat="44.0213352" lon="8.0921243"><ele>277.0</ele><time>2026-05-03T14:42:14.461Z</time></trkpt><trkpt lat="44.0213819" lon="8.0921881"><ele>278.0</ele><time>2026-05-03T14:42:15.46Z</time></trkpt><trkpt lat="44.021439" lon="8.0922548"><ele>279.0</ele><time>2026-05-03T14:42:16.461Z</time></trkpt><trkpt lat="44.0214953" lon="8.0923356"><ele>280.0</ele><time>2026-05-03T14:42:17.46Z</time></trkpt><trkpt lat="44.0215519" lon="8.0924614"><ele>277.8333333333333</ele><time>2026-05-03T14:42:18.458Z</time></trkpt><trkpt lat="44.0216196" lon="8.0925403"><ele>275.66666666666663</ele><time>2026-05-03T14:42:19.462Z</time></trkpt><trkpt lat="44.0216706" lon="8.0925925"><ele>273.5</ele><time>2026-05-03T14:42:20.464Z</time></trkpt><trkpt lat="44.0217561" lon="8.0926474"><ele>271.3333333333333</ele><time>2026-05-03T14:42:23.464Z</time></trkpt><trkpt lat="44.021846" lon="8.0926489"><ele>269.1666666666667</ele><time>2026-05-03T14:42:25.463Z</time></trkpt><trkpt lat="44.021934" lon="8.0926057"><ele>267.0</ele><time>2026-05-03T14:42:27.464Z</time></trkpt><trkpt lat="44.0220023" lon="8.0924715"><ele>272.4</ele><time>2026-05-03T14:42:29.462Z</time></trkpt><trkpt lat="44.0220715" lon="8.0923592"><ele>277.79999999999995</ele><time>2026-05-03T14:42:31.462Z</time></trkpt><trkpt lat="44.0221642" lon="8.0923269"><ele>283.2</ele><time>2026-05-03T14:42:33.466Z</time></trkpt><trkpt lat="44.0222505" lon="8.0923344"><ele>288.59999999999997</ele><time>2026-05-03T14:42:35.465Z</time></trkpt><trkpt lat="44.0223384" lon="8.0923335"><ele>294.0</ele><time>2026-05-03T14:42:36.462Z</time></trkpt><trkpt lat="44.0224558" lon="8.0923314"><ele>291.4</ele><time>2026-05-03T14:42:38.458Z</time></trkpt><trkpt lat="44.0225277" lon="8.0923317"><ele>288.79999999999995</ele><time>2026-05-03T14:42:39.459Z</time></trkpt><trkpt lat="44.0225978" lon="8.0923304"><ele>286.20000000000005</ele><time>2026-05-03T14:42:40.461Z</time></trkpt><trkpt lat="44.0227324" lon="8.0923146"><ele>283.6</ele><time>2026-05-03T14:42:42.461Z</time></trkpt><trkpt lat="44.0228472" lon="8.0922798"><ele>281.0</ele><time>2026-05-03T14:42:44.467Z</time></trkpt><trkpt lat="44.0229643" lon="8.0922507"><ele>281.0</ele><time>2026-05-03T14:42:51.46Z</time></trkpt><trkpt lat="44.0229973" lon="8.0921503"><ele>281.0</ele><time>2026-05-03T14:43:07.464Z</time></trkpt><trkpt lat="44.0230021" lon="8.0920177"><ele>281.0</ele><time>2026-05-03T14:43:09.468Z</time></trkpt><trkpt lat="44.0229844" lon="8.0919183"><ele>281.0</ele><time>2026-05-03T14:43:10.463Z</time></trkpt><trkpt lat="44.0229873" lon="8.0917522"><ele>281.0</ele><time>2026-05-03T14:43:12.46Z</time></trkpt><trkpt lat="44.0229645" lon="8.0916469"><ele>281.0</ele><time>2026-05-03T14:43:14.461Z</time></trkpt><trkpt lat="44.0228627" lon="8.0915666"><ele>280.1666666666667</ele><time>2026-05-03T14:43:16.46Z</time></trkpt><trkpt lat="44.0227808" lon="8.0915085"><ele>279.33333333333337</ele><time>2026-05-03T14:43:18.465Z</time></trkpt><trkpt lat="44.0227154" lon="8.0914405"><ele>278.5</ele><time>2026-05-03T14:43:19.466Z</time></trkpt><trkpt lat="44.0226382" lon="8.0913809"><ele>277.6666666666667</ele><time>2026-05-03T14:43:21.457Z</time></trkpt><trkpt lat="44.0225814" lon="8.0913373"><ele>276.8333333333333</ele><time>2026-05-03T14:43:22.458Z</time></trkpt><trkpt lat="44.0225199" lon="8.0912838"><ele>276.0</ele><time>2026-05-03T14:43:23.463Z</time></trkpt><trkpt lat="44.0224611" lon="8.0912236"><ele>282.5</ele><time>2026-05-03T14:43:25.46Z</time></trkpt><trkpt lat="44.0223469" lon="8.0911927"><ele>289.0</ele><time>2026-05-03T14:43:27.465Z</time></trkpt><trkpt lat="44.0222542" lon="8.0911137"><ele>295.5</ele><time>2026-05-03T14:43:29.463Z</time></trkpt><trkpt lat="44.0221784" lon="8.0909245"><ele>302.0</ele><time>2026-05-03T14:43:31.462Z</time></trkpt><trkpt lat="44.0221894" lon="8.0907907"><ele>301.83333333333337</ele><time>2026-05-03T14:43:33.464Z</time></trkpt><trkpt lat="44.0221964" lon="8.0906951"><ele>301.6666666666667</ele><time>2026-05-03T14:43:34.461Z</time></trkpt><trkpt lat="44.0221741" lon="8.0905781"><ele>301.5</ele><time>2026-05-03T14:43:35.46Z</time></trkpt><trkpt lat="44.0221728" lon="8.0904695"><ele>301.3333333333333</ele><time>2026-05-03T14:43:36.462Z</time></trkpt><trkpt lat="44.0221843" lon="8.0903389"><ele>301.16666666666663</ele><time>2026-05-03T14:43:37.462Z</time></trkpt><trkpt lat="44.0222163" lon="8.0902354"><ele>301.0</ele><time>2026-05-03T14:43:38.462Z</time></trkpt><trkpt lat="44.0223005" lon="8.0901395"><ele>301.0</ele><time>2026-05-03T14:43:39.464Z</time></trkpt><trkpt lat="44.0223388" lon="8.0899851"><ele>301.0</ele><time>2026-05-03T14:43:41.458Z</time></trkpt><trkpt lat="44.0223848" lon="8.0899117"><ele>301.0</ele><time>2026-05-03T14:43:42.462Z</time></trkpt><trkpt lat="44.0223751" lon="8.0898009"><ele>301.0</ele><time>2026-05-03T14:43:44.462Z</time></trkpt><trkpt lat="44.0223046" lon="8.0897057"><ele>301.0</ele><time>2026-05-03T14:43:46.464Z</time></trkpt><trkpt lat="44.0222438" lon="8.0896634"><ele>301.0</ele><time>2026-05-03T14:43:48.462Z</time></trkpt><trkpt lat="44.0221722" lon="8.0896003"><ele>298.6</ele><time>2026-05-03T14:43:51.46Z</time></trkpt><trkpt lat="44.0220704" lon="8.0895271"><ele>296.20000000000005</ele><time>2026-05-03T14:43:53.467Z</time></trkpt><trkpt lat="44.0220018" lon="8.0894562"><ele>293.79999999999995</ele><time>2026-05-03T14:43:55.46Z</time></trkpt><trkpt lat="44.0219761" lon="8.0893652"><ele>291.4</ele><time>2026-05-03T14:43:56.465Z</time></trkpt><trkpt lat="44.0219511" lon="8.0892441"><ele>289.0</ele><time>2026-05-03T14:43:57.461Z</time></trkpt><trkpt lat="44.0218939" lon="8.0891483"><ele>286.4</ele><time>2026-05-03T14:43:59.459Z</time></trkpt><trkpt lat="44.0218096" lon="8.0890458"><ele>283.79999999999995</ele><time>2026-05-03T14:44:01.456Z</time></trkpt><trkpt lat="44.0217071" lon="8.0889489"><ele>281.20000000000005</ele><time>2026-05-03T14:44:03.462Z</time></trkpt><trkpt lat="44.0217512" lon="8.0888649"><ele>278.6</ele><time>2026-05-03T14:44:04.461Z</time></trkpt><trkpt lat="44.0217035" lon="8.0887355"><ele>276.0</ele><time>2026-05-03T14:44:06.461Z</time></trkpt><trkpt lat="44.0216665" lon="8.0885835"><ele>279.0</ele><time>2026-05-03T14:44:08.462Z</time></trkpt><trkpt lat="44.0216302" lon="8.0884557"><ele>282.0</ele><time>2026-05-03T14:44:10.462Z</time></trkpt><trkpt lat="44.0215414" lon="8.0883338"><ele>285.0</ele><time>2026-05-03T14:44:12.466Z</time></trkpt><trkpt lat="44.0214514" lon="8.0882386"><ele>288.0</ele><time>2026-05-03T14:44:14.458Z</time></trkpt><trkpt lat="44.0213815" lon="8.0881933"><ele>291.0</ele><time>2026-05-03T14:44:16.459Z</time></trkpt><trkpt lat="44.0212926" lon="8.0881089"><ele>291.0</ele><time>2026-05-03T14:44:18.464Z</time></trkpt><trkpt lat="44.0212199" lon="8.0881113"><ele>291.0</ele><time>2026-05-03T14:44:19.464Z</time></trkpt><trkpt lat="44.0211214" lon="8.0881159"><ele>291.0</ele><time>2026-05-03T14:44:21.457Z</time></trkpt><trkpt lat="44.0210229" lon="8.0881068"><ele>291.0</ele><time>2026-05-03T14:44:23.462Z</time></trkpt><trkpt lat="44.0209479" lon="8.0881191"><ele>291.0</ele><time>2026-05-03T14:44:25.47Z</time></trkpt><trkpt lat="44.0208654" lon="8.0881076"><ele>291.0</ele><time>2026-05-03T14:44:27.462Z</time></trkpt><trkpt lat="44.0207624" lon="8.087933"><ele>298.6</ele><time>2026-05-03T14:44:29.464Z</time></trkpt><trkpt lat="44.020705" lon="8.0878385"><ele>306.20000000000005</ele><time>2026-05-03T14:44:30.46Z</time></trkpt><trkpt lat="44.0206806" lon="8.0876673"><ele>313.79999999999995</ele><time>2026-05-03T14:44:33.461Z</time></trkpt><trkpt lat="44.020619" lon="8.08756"><ele>321.4</ele><time>2026-05-03T14:44:35.463Z</time></trkpt><trkpt lat="44.0205922" lon="8.0874376"><ele>329.0</ele><time>2026-05-03T14:44:37.461Z</time></trkpt><trkpt lat="44.020566" lon="8.0873524"><ele>329.0</ele><time>2026-05-03T14:44:38.461Z</time></trkpt><trkpt lat="44.0206181" lon="8.0872147"><ele>329.0</ele><time>2026-05-03T14:44:39.464Z</time></trkpt><trkpt lat="44.020653" lon="8.0871332"><ele>329.0</ele><time>2026-05-03T14:44:40.464Z</time></trkpt><trkpt lat="44.0206639" lon="8.0870415"><ele>329.0</ele><time>2026-05-03T14:44:41.459Z</time></trkpt><trkpt lat="44.0206708" lon="8.0869459"><ele>329.0</ele><time>2026-05-03T14:44:42.462Z</time></trkpt><trkpt lat="44.0206997" lon="8.086823"><ele>329.0</ele><time>2026-05-03T14:44:43.461Z</time></trkpt><trkpt lat="44.0207128" lon="8.0867014"><ele>329.0</ele><time>2026-05-03T14:44:44.461Z</time></trkpt><trkpt lat="44.0207304" lon="8.0866037"><ele>329.0</ele><time>2026-05-03T14:44:45.467Z</time></trkpt><trkpt lat="44.0207523" lon="8.0864701"><ele>329.0</ele><time>2026-05-03T14:47:24.46Z</time></trkpt><trkpt lat="44.0207573" lon="8.086354"><ele>329.0</ele><time>2026-05-03T14:47:26.462Z</time></trkpt><trkpt lat="44.0207648" lon="8.0862069"><ele>329.0</ele><time>2026-05-03T14:47:28.464Z</time></trkpt><trkpt lat="44.0207229" lon="8.0861218"><ele>329.0</ele><time>2026-05-03T14:47:30.466Z</time></trkpt><trkpt lat="44.020662" lon="8.0860958"><ele>327.6</ele><time>2026-05-03T14:47:32.464Z</time></trkpt><trkpt lat="44.0205564" lon="8.0861225"><ele>326.2</ele><time>2026-05-03T14:47:34.461Z</time></trkpt><trkpt lat="44.0204501" lon="8.0861777"><ele>324.8</ele><time>2026-05-03T14:47:36.463Z</time></trkpt><trkpt lat="44.0203738" lon="8.0862009"><ele>323.40000000000003</ele><time>2026-05-03T14:47:38.461Z</time></trkpt><trkpt lat="44.0202611" lon="8.0861671"><ele>322.0</ele><time>2026-05-03T14:47:40.463Z</time></trkpt><trkpt lat="44.0202057" lon="8.0861074"><ele>322.0</ele><time>2026-05-03T14:47:41.458Z</time></trkpt><trkpt lat="44.0201252" lon="8.0860705"><ele>322.0</ele><time>2026-05-03T14:47:43.463Z</time></trkpt><trkpt lat="44.0200308" lon="8.0859885"><ele>322.0</ele><time>2026-05-03T14:47:45.463Z</time></trkpt><trkpt lat="44.0199727" lon="8.0859358"><ele>322.0</ele><time>2026-05-03T14:47:46.462Z</time></trkpt><trkpt lat="44.0200428" lon="8.0859137"><ele>322.0</ele><time>2026-05-03T14:47:47.461Z</time></trkpt><trkpt lat="44.0200155" lon="8.0858308"><ele>322.0</ele><time>2026-05-03T14:47:49.459Z</time></trkpt><trkpt lat="44.019932" lon="8.0856537"><ele>328.66666666666663</ele><time>2026-05-03T14:47:52.46Z</time></trkpt><trkpt lat="44.019895" lon="8.0855647"><ele>335.3333333333333</ele><time>2026-05-03T14:47:53.46Z</time></trkpt><trkpt lat="44.0198621" lon="8.0854083"><ele>342.0</ele><time>2026-05-03T14:47:55.459Z</time></trkpt><trkpt lat="44.0198815" lon="8.0853035"><ele>348.6666666666667</ele><time>2026-05-03T14:47:56.459Z</time></trkpt><trkpt lat="44.0199073" lon="8.0851997"><ele>355.33333333333337</ele><time>2026-05-03T14:47:57.462Z</time></trkpt><trkpt lat="44.0199315" lon="8.0851043"><ele>362.0</ele><time>2026-05-03T14:47:58.464Z</time></trkpt><trkpt lat="44.0199463" lon="8.0850065"><ele>362.75</ele><time>2026-05-03T14:47:59.465Z</time></trkpt><trkpt lat="44.0199038" lon="8.0849049"><ele>363.5</ele><time>2026-05-03T14:48:01.46Z</time></trkpt><trkpt lat="44.0199461" lon="8.084765"><ele>364.25</ele><time>2026-05-03T14:48:04.46Z</time></trkpt><trkpt lat="44.0200382" lon="8.0846584"><ele>365.0</ele><time>2026-05-03T14:48:06.46Z</time></trkpt><trkpt lat="44.0202577" lon="8.0846023"><ele>354.25</ele><time>2026-05-03T14:48:11.461Z</time></trkpt><trkpt lat="44.0201619" lon="8.0842547"><ele>343.5</ele><time>2026-05-03T14:48:16.462Z</time></trkpt><trkpt lat="44.0200959" lon="8.0841801"><ele>332.75</ele><time>2026-05-03T14:48:17.461Z</time></trkpt><trkpt lat="44.0200547" lon="8.0840831"><ele>322.0</ele><time>2026-05-03T14:48:18.463Z</time></trkpt><trkpt lat="44.0199939" lon="8.0839699"><ele>321.0</ele><time>2026-05-03T14:48:20.458Z</time></trkpt><trkpt lat="44.0200136" lon="8.0838149"><ele>320.0</ele><time>2026-05-03T14:48:22.458Z</time></trkpt><trkpt lat="44.0200238" lon="8.0837205"><ele>319.0</ele><time>2026-05-03T14:48:23.46Z</time></trkpt><trkpt lat="44.0200927" lon="8.0836382"><ele>318.0</ele><time>2026-05-03T14:48:24.461Z</time></trkpt><trkpt lat="44.0201228" lon="8.0835364"><ele>317.0</ele><time>2026-05-03T14:48:25.462Z</time></trkpt><trkpt lat="44.0201636" lon="8.083452"><ele>316.0</ele><time>2026-05-03T14:48:26.46Z</time></trkpt><trkpt lat="44.0201738" lon="8.0833628"><ele>313.2</ele><time>2026-05-03T14:48:27.462Z</time></trkpt><trkpt lat="44.0201656" lon="8.083186"><ele>310.40000000000003</ele><time>2026-05-03T14:48:29.464Z</time></trkpt><trkpt lat="44.0201402" lon="8.083093"><ele>307.6</ele><time>2026-05-03T14:48:30.461Z</time></trkpt><trkpt lat="44.0200987" lon="8.0829225"><ele>304.8</ele><time>2026-05-03T14:48:32.461Z</time></trkpt><trkpt lat="44.0200339" lon="8.0828447"><ele>302.0</ele><time>2026-05-03T14:48:34.461Z</time></trkpt><trkpt lat="44.019974" lon="8.0827882"><ele>307.5</ele><time>2026-05-03T14:48:35.462Z</time></trkpt><trkpt lat="44.0198968" lon="8.0826978"><ele>313.0</ele><time>2026-05-03T14:48:37.462Z</time></trkpt><trkpt lat="44.0198576" lon="8.0825298"><ele>318.5</ele><time>2026-05-03T14:48:39.469Z</time></trkpt><trkpt lat="44.019801" lon="8.082385"><ele>324.0</ele><time>2026-05-03T14:48:41.46Z</time></trkpt><trkpt lat="44.0198196" lon="8.082226"><ele>324.0</ele><time>2026-05-03T14:48:43.466Z</time></trkpt><trkpt lat="44.0197527" lon="8.0821279"><ele>324.0</ele><time>2026-05-03T14:48:45.459Z</time></trkpt><trkpt lat="44.0196841" lon="8.0819982"><ele>324.0</ele><time>2026-05-03T14:48:47.461Z</time></trkpt><trkpt lat="44.0196114" lon="8.0819317"><ele>324.0</ele><time>2026-05-03T14:48:49.461Z</time></trkpt><trkpt lat="44.0195552" lon="8.0818594"><ele>324.0</ele><time>2026-05-03T14:48:50.461Z</time></trkpt><trkpt lat="44.0194868" lon="8.0817396"><ele>324.0</ele><time>2026-05-03T14:48:52.458Z</time></trkpt><trkpt lat="44.0193935" lon="8.0816251"><ele>324.0</ele><time>2026-05-03T14:48:54.46Z</time></trkpt><trkpt lat="44.0193006" lon="8.0815155"><ele>324.0</ele><time>2026-05-03T14:48:56.464Z</time></trkpt><trkpt lat="44.0192317" lon="8.0813623"><ele>324.0</ele><time>2026-05-03T14:48:58.461Z</time></trkpt><trkpt lat="44.0191782" lon="8.0812153"><ele>329.0</ele><time>2026-05-03T14:49:00.461Z</time></trkpt><trkpt lat="44.019122" lon="8.0810726"><ele>334.0</ele><time>2026-05-03T14:49:02.457Z</time></trkpt><trkpt lat="44.0190789" lon="8.0809533"><ele>339.0</ele><time>2026-05-03T14:49:03.469Z</time></trkpt><trkpt lat="44.0190301" lon="8.0808963"><ele>344.0</ele><time>2026-05-03T14:49:04.458Z</time></trkpt><trkpt lat="44.0189783" lon="8.0808209"><ele>349.0</ele><time>2026-05-03T14:49:05.462Z</time></trkpt><trkpt lat="44.0189805" lon="8.0806937"><ele>354.0</ele><time>2026-05-03T14:49:07.463Z</time></trkpt><trkpt lat="44.0190271" lon="8.0805939"><ele>354.2</ele><time>2026-05-03T14:49:09.46Z</time></trkpt><trkpt lat="44.0191204" lon="8.0804967"><ele>354.4</ele><time>2026-05-03T14:49:11.461Z</time></trkpt><trkpt lat="44.0192168" lon="8.0803901"><ele>354.6</ele><time>2026-05-03T14:49:13.459Z</time></trkpt><trkpt lat="44.0193068" lon="8.0803633"><ele>354.8</ele><time>2026-05-03T14:49:14.46Z</time></trkpt><trkpt lat="44.0193775" lon="8.0803259"><ele>355.0</ele><time>2026-05-03T14:49:15.46Z</time></trkpt><trkpt lat="44.0194937" lon="8.0802299"><ele>350.5</ele><time>2026-05-03T14:49:17.462Z</time></trkpt><trkpt lat="44.0195937" lon="8.0802306"><ele>346.0</ele><time>2026-05-03T14:49:18.46Z</time></trkpt><trkpt lat="44.0196186" lon="8.0801421"><ele>341.5</ele><time>2026-05-03T14:49:19.459Z</time></trkpt><trkpt lat="44.0195685" lon="8.0800544"><ele>337.0</ele><time>2026-05-03T14:49:20.461Z</time></trkpt><trkpt lat="44.0195868" lon="8.0799689"><ele>332.5</ele><time>2026-05-03T14:49:21.459Z</time></trkpt><trkpt lat="44.0196218" lon="8.0798053"><ele>328.0</ele><time>2026-05-03T14:49:23.465Z</time></trkpt><trkpt lat="44.0196425" lon="8.0797116"><ele>328.0</ele><time>2026-05-03T14:49:24.462Z</time></trkpt><trkpt lat="44.0196577" lon="8.0795608"><ele>328.0</ele><time>2026-05-03T14:49:26.457Z</time></trkpt><trkpt lat="44.0197269" lon="8.0794134"><ele>328.0</ele><time>2026-05-03T14:49:28.46Z</time></trkpt><trkpt lat="44.0197584" lon="8.0793196"><ele>328.0</ele><time>2026-05-03T14:49:29.46Z</time></trkpt><trkpt lat="44.0197944" lon="8.0792378"><ele>328.0</ele><time>2026-05-03T14:49:30.461Z</time></trkpt><trkpt lat="44.0197976" lon="8.0791419"><ele>328.0</ele><time>2026-05-03T14:49:32.458Z</time></trkpt><trkpt lat="44.0198542" lon="8.0790679"><ele>322.59999999999997</ele><time>2026-05-03T14:49:34.462Z</time></trkpt><trkpt lat="44.0199872" lon="8.0791293"><ele>317.2</ele><time>2026-05-03T14:49:38.46Z</time></trkpt><trkpt lat="44.0201037" lon="8.0791746"><ele>311.8</ele><time>2026-05-03T14:49:40.468Z</time></trkpt><trkpt lat="44.0201776" lon="8.0792275"><ele>306.4</ele><time>2026-05-03T14:49:41.461Z</time></trkpt><trkpt lat="44.0202553" lon="8.079276"><ele>301.0</ele><time>2026-05-03T14:49:42.46Z</time></trkpt><trkpt lat="44.0203076" lon="8.0793268"><ele>301.0</ele><time>2026-05-03T14:49:43.458Z</time></trkpt><trkpt lat="44.0203822" lon="8.0794023"><ele>301.0</ele><time>2026-05-03T14:49:44.458Z</time></trkpt><trkpt lat="44.0204378" lon="8.0794523"><ele>301.0</ele><time>2026-05-03T14:49:45.459Z</time></trkpt><trkpt lat="44.020487" lon="8.0795165"><ele>301.0</ele><time>2026-05-03T14:49:46.463Z</time></trkpt><trkpt lat="44.0205912" lon="8.0795891"><ele>301.0</ele><time>2026-05-03T14:49:48.463Z</time></trkpt><trkpt lat="44.0206563" lon="8.0796215"><ele>301.0</ele><time>2026-05-03T14:49:49.461Z</time></trkpt><trkpt lat="44.0208042" lon="8.0796587"><ele>302.8</ele><time>2026-05-03T14:49:51.461Z</time></trkpt><trkpt lat="44.0209321" lon="8.0796762"><ele>304.6</ele><time>2026-05-03T14:49:53.459Z</time></trkpt><trkpt lat="44.0210477" lon="8.0797318"><ele>306.4</ele><time>2026-05-03T14:49:55.462Z</time></trkpt><trkpt lat="44.0211126" lon="8.0797579"><ele>308.2</ele><time>2026-05-03T14:49:56.461Z</time></trkpt><trkpt lat="44.0211786" lon="8.079777"><ele>310.0</ele><time>2026-05-03T14:49:57.46Z</time></trkpt><trkpt lat="44.021249" lon="8.0797739"><ele>310.0</ele><time>2026-05-03T14:49:58.464Z</time></trkpt><trkpt lat="44.0213573" lon="8.0797449"><ele>310.0</ele><time>2026-05-03T14:50:00.465Z</time></trkpt><trkpt lat="44.0214483" lon="8.0796604"><ele>310.0</ele><time>2026-05-03T14:50:02.464Z</time></trkpt><trkpt lat="44.0215015" lon="8.0795842"><ele>310.0</ele><time>2026-05-03T14:50:03.46Z</time></trkpt><trkpt lat="44.0215466" lon="8.0794783"><ele>310.0</ele><time>2026-05-03T14:50:04.461Z</time></trkpt><trkpt lat="44.0215791" lon="8.0793753"><ele>310.0</ele><time>2026-05-03T14:50:05.463Z</time></trkpt><trkpt lat="44.0216086" lon="8.0792844"><ele>310.0</ele><time>2026-05-03T14:50:06.458Z</time></trkpt><trkpt lat="44.0216421" lon="8.079209"><ele>310.0</ele><time>2026-05-03T14:50:07.463Z</time></trkpt><trkpt lat="44.0217088" lon="8.0790806"><ele>310.0</ele><time>2026-05-03T14:50:09.46Z</time></trkpt><trkpt lat="44.0217451" lon="8.0789743"><ele>310.0</ele><time>2026-05-03T14:50:11.46Z</time></trkpt><trkpt lat="44.0218442" lon="8.0789106"><ele>310.0</ele><time>2026-05-03T14:50:14.459Z</time></trkpt><trkpt lat="44.0219107" lon="8.0788949"><ele>311.14285714285717</ele><time>2026-05-03T14:50:15.465Z</time></trkpt><trkpt lat="44.021972" lon="8.0788673"><ele>312.2857142857143</ele><time>2026-05-03T14:50:16.463Z</time></trkpt><trkpt lat="44.0220407" lon="8.0788324"><ele>313.42857142857144</ele><time>2026-05-03T14:50:17.462Z</time></trkpt><trkpt lat="44.0220976" lon="8.0787948"><ele>314.57142857142856</ele><time>2026-05-03T14:50:18.463Z</time></trkpt><trkpt lat="44.0221572" lon="8.0787451"><ele>315.7142857142857</ele><time>2026-05-03T14:50:19.462Z</time></trkpt><trkpt lat="44.0222239" lon="8.0787023"><ele>316.85714285714283</ele><time>2026-05-03T14:50:20.468Z</time></trkpt><trkpt lat="44.0222938" lon="8.0786782"><ele>318.0</ele><time>2026-05-03T14:50:21.459Z</time></trkpt><trkpt lat="44.0224034" lon="8.0786456"><ele>318.0</ele><time>2026-05-03T14:50:23.461Z</time></trkpt><trkpt lat="44.0224681" lon="8.0786271"><ele>318.0</ele><time>2026-05-03T14:50:24.462Z</time></trkpt><trkpt lat="44.0225751" lon="8.0786292"><ele>318.0</ele><time>2026-05-03T14:50:25.466Z</time></trkpt><trkpt lat="44.0226378" lon="8.0785914"><ele>318.0</ele><time>2026-05-03T14:50:26.458Z</time></trkpt><trkpt lat="44.0227114" lon="8.0785655"><ele>318.0</ele><time>2026-05-03T14:50:27.457Z</time></trkpt><trkpt lat="44.0227833" lon="8.0785585"><ele>318.0</ele><time>2026-05-03T14:50:28.461Z</time></trkpt><trkpt lat="44.0229071" lon="8.0785101"><ele>316.8</ele><time>2026-05-03T14:50:30.464Z</time></trkpt><trkpt lat="44.023038" lon="8.0785747"><ele>315.6</ele><time>2026-05-03T14:50:32.46Z</time></trkpt><trkpt lat="44.0230942" lon="8.0786354"><ele>314.4</ele><time>2026-05-03T14:50:33.463Z</time></trkpt><trkpt lat="44.0231896" lon="8.078655"><ele>313.2</ele><time>2026-05-03T14:50:35.46Z</time></trkpt><trkpt lat="44.0233102" lon="8.0786544"><ele>312.0</ele><time>2026-05-03T14:50:37.466Z</time></trkpt><trkpt lat="44.0234356" lon="8.0786209"><ele>312.0</ele><time>2026-05-03T14:50:39.462Z</time></trkpt><trkpt lat="44.023544" lon="8.0785806"><ele>312.0</ele><time>2026-05-03T14:50:41.46Z</time></trkpt><trkpt lat="44.0236506" lon="8.0786084"><ele>312.0</ele><time>2026-05-03T14:50:43.463Z</time></trkpt><trkpt lat="44.0237065" lon="8.078666"><ele>312.0</ele><time>2026-05-03T14:50:44.463Z</time></trkpt><trkpt lat="44.0237677" lon="8.0787087"><ele>312.0</ele><time>2026-05-03T14:50:45.461Z</time></trkpt><trkpt lat="44.0238471" lon="8.0787913"><ele>312.0</ele><time>2026-05-03T14:50:46.464Z</time></trkpt><trkpt lat="44.0239239" lon="8.078851"><ele>312.0</ele><time>2026-05-03T14:50:47.459Z</time></trkpt><trkpt lat="44.0239967" lon="8.0789285"><ele>312.0</ele><time>2026-05-03T14:50:48.467Z</time></trkpt><trkpt lat="44.0240621" lon="8.0789932"><ele>312.0</ele><time>2026-05-03T14:50:49.46Z</time></trkpt><trkpt lat="44.0241228" lon="8.0790495"><ele>312.0</ele><time>2026-05-03T14:50:50.462Z</time></trkpt><trkpt lat="44.0242745" lon="8.0790623"><ele>311.8333333333333</ele><time>2026-05-03T14:51:00.462Z</time></trkpt><trkpt lat="44.0243364" lon="8.0789452"><ele>311.6666666666667</ele><time>2026-05-03T14:51:02.459Z</time></trkpt><trkpt lat="44.0243786" lon="8.0788547"><ele>311.5</ele><time>2026-05-03T14:51:04.461Z</time></trkpt><trkpt lat="44.0244265" lon="8.0787656"><ele>311.33333333333337</ele><time>2026-05-03T14:51:06.461Z</time></trkpt><trkpt lat="44.0245327" lon="8.0787853"><ele>311.1666666666667</ele><time>2026-05-03T14:51:10.463Z</time></trkpt><trkpt lat="44.0245935" lon="8.0788286"><ele>311.0</ele><time>2026-05-03T14:51:11.466Z</time></trkpt><trkpt lat="44.0246523" lon="8.0789409"><ele>311.0</ele><time>2026-05-03T14:51:12.467Z</time></trkpt><trkpt lat="44.0247207" lon="8.0790275"><ele>311.0</ele><time>2026-05-03T14:51:13.462Z</time></trkpt><trkpt lat="44.0247995" lon="8.0791079"><ele>311.0</ele><time>2026-05-03T14:51:14.46Z</time></trkpt><trkpt lat="44.0248678" lon="8.0791833"><ele>311.0</ele><time>2026-05-03T14:51:15.467Z</time></trkpt><trkpt lat="44.0249218" lon="8.0792687"><ele>311.0</ele><time>2026-05-03T14:51:16.468Z</time></trkpt><trkpt lat="44.0249792" lon="8.0793498"><ele>311.0</ele><time>2026-05-03T14:51:17.462Z</time></trkpt><trkpt lat="44.0250277" lon="8.0794408"><ele>307.40000000000003</ele><time>2026-05-03T14:51:18.469Z</time></trkpt><trkpt lat="44.025046" lon="8.0795504"><ele>303.8</ele><time>2026-05-03T14:51:19.466Z</time></trkpt><trkpt lat="44.0250632" lon="8.0796739"><ele>300.20000000000005</ele><time>2026-05-03T14:51:20.463Z</time></trkpt><trkpt lat="44.0250411" lon="8.0798265"><ele>296.6</ele><time>2026-05-03T14:51:21.468Z</time></trkpt><trkpt lat="44.0250495" lon="8.079959"><ele>293.0</ele><time>2026-05-03T14:51:22.466Z</time></trkpt><trkpt lat="44.0250752" lon="8.0800761"><ele>293.0</ele><time>2026-05-03T14:51:23.462Z</time></trkpt><trkpt lat="44.0250837" lon="8.0801963"><ele>293.0</ele><time>2026-05-03T14:51:24.462Z</time></trkpt><trkpt lat="44.0251083" lon="8.0803009"><ele>293.0</ele><time>2026-05-03T14:51:25.465Z</time></trkpt><trkpt lat="44.0251379" lon="8.0803883"><ele>293.0</ele><time>2026-05-03T14:51:26.467Z</time></trkpt><trkpt lat="44.0251893" lon="8.0804986"><ele>293.0</ele><time>2026-05-03T14:51:28.468Z</time></trkpt><trkpt lat="44.0251811" lon="8.0804012"><ele>293.0</ele><time>2026-05-03T14:51:43.466Z</time></trkpt><trkpt lat="44.0251324" lon="8.080315"><ele>293.0</ele><time>2026-05-03T14:51:45.458Z</time></trkpt><trkpt lat="44.0250801" lon="8.080265"><ele>293.0</ele><time>2026-05-03T14:52:00.461Z</time></trkpt><trkpt lat="44.0250582" lon="8.0801342"><ele>293.0</ele><time>2026-05-03T14:52:43.464Z</time></trkpt><trkpt lat="44.025072" lon="8.0800017"><ele>293.0</ele><time>2026-05-03T14:52:45.462Z</time></trkpt><trkpt lat="44.0251026" lon="8.0798812"><ele>293.0</ele><time>2026-05-03T14:52:47.461Z</time></trkpt><trkpt lat="44.0251391" lon="8.0797726"><ele>293.0</ele><time>2026-05-03T14:52:49.461Z</time></trkpt><trkpt lat="44.025171" lon="8.0796391"><ele>292.8</ele><time>2026-05-03T14:52:51.464Z</time></trkpt><trkpt lat="44.0252112" lon="8.0795143"><ele>292.6</ele><time>2026-05-03T14:52:53.459Z</time></trkpt><trkpt lat="44.02525" lon="8.0793892"><ele>292.4</ele><time>2026-05-03T14:52:55.459Z</time></trkpt><trkpt lat="44.0253259" lon="8.0792785"><ele>292.2</ele><time>2026-05-03T14:52:57.46Z</time></trkpt><trkpt lat="44.0253418" lon="8.0791567"><ele>292.0</ele><time>2026-05-03T14:52:59.461Z</time></trkpt><trkpt lat="44.0253421" lon="8.0790683"><ele>290.8333333333333</ele><time>2026-05-03T14:53:00.46Z</time></trkpt><trkpt lat="44.0253422" lon="8.0789317"><ele>289.66666666666663</ele><time>2026-05-03T14:53:02.462Z</time></trkpt><trkpt lat="44.0253605" lon="8.0788337"><ele>288.5</ele><time>2026-05-03T14:53:05.463Z</time></trkpt><trkpt lat="44.0253413" lon="8.0787454"><ele>287.3333333333333</ele><time>2026-05-03T14:53:09.459Z</time></trkpt><trkpt lat="44.0253692" lon="8.078656"><ele>286.1666666666667</ele><time>2026-05-03T14:53:19.463Z</time></trkpt><trkpt lat="44.0254355" lon="8.078544"><ele>285.0</ele><time>2026-05-03T14:53:21.461Z</time></trkpt><trkpt lat="44.0254971" lon="8.0784723"><ele>285.0</ele><time>2026-05-03T14:53:23.46Z</time></trkpt><trkpt lat="44.025504" lon="8.0783464"><ele>285.0</ele><time>2026-05-03T14:53:28.468Z</time></trkpt><trkpt lat="44.0255015" lon="8.0782271"><ele>285.0</ele><time>2026-05-03T14:53:30.46Z</time></trkpt><trkpt lat="44.0254936" lon="8.0781086"><ele>285.0</ele><time>2026-05-03T14:53:32.46Z</time></trkpt><trkpt lat="44.0255149" lon="8.0779536"><ele>285.0</ele><time>2026-05-03T14:53:34.463Z</time></trkpt><trkpt lat="44.0255318" lon="8.0777847"><ele>284.6</ele><time>2026-05-03T14:53:36.456Z</time></trkpt><trkpt lat="44.0255075" lon="8.0776309"><ele>284.2</ele><time>2026-05-03T14:53:38.459Z</time></trkpt><trkpt lat="44.0255053" lon="8.0775051"><ele>283.8</ele><time>2026-05-03T14:53:41.464Z</time></trkpt><trkpt lat="44.0255451" lon="8.0774031"><ele>283.4</ele><time>2026-05-03T14:53:44.459Z</time></trkpt><trkpt lat="44.0256039" lon="8.0773143"><ele>283.0</ele><time>2026-05-03T14:53:46.466Z</time></trkpt><trkpt lat="44.0256977" lon="8.0772006"><ele>281.0</ele><time>2026-05-03T14:53:47.463Z</time></trkpt><trkpt lat="44.0257628" lon="8.0771528"><ele>279.0</ele><time>2026-05-03T14:53:48.463Z</time></trkpt><trkpt lat="44.0258557" lon="8.0770672"><ele>277.0</ele><time>2026-05-03T14:53:50.46Z</time></trkpt><trkpt lat="44.0259413" lon="8.0769573"><ele>275.0</ele><time>2026-05-03T14:53:51.463Z</time></trkpt><trkpt lat="44.0259785" lon="8.0768586"><ele>273.0</ele><time>2026-05-03T14:53:52.463Z</time></trkpt><trkpt lat="44.0260121" lon="8.0767213"><ele>273.0</ele><time>2026-05-03T14:53:54.461Z</time></trkpt><trkpt lat="44.0260638" lon="8.0766657"><ele>273.0</ele><time>2026-05-03T14:53:55.458Z</time></trkpt><trkpt lat="44.0261359" lon="8.0765999"><ele>273.0</ele><time>2026-05-03T14:53:58.458Z</time></trkpt><trkpt lat="44.0261636" lon="8.0765081"><ele>273.0</ele><time>2026-05-03T14:53:59.46Z</time></trkpt><trkpt lat="44.0261861" lon="8.0763721"><ele>273.0</ele><time>2026-05-03T14:54:01.46Z</time></trkpt><trkpt lat="44.026239" lon="8.0762831"><ele>273.0</ele><time>2026-05-03T14:54:02.46Z</time></trkpt><trkpt lat="44.026285" lon="8.0762013"><ele>272.0</ele><time>2026-05-03T14:54:03.459Z</time></trkpt><trkpt lat="44.0263866" lon="8.0761091"><ele>271.0</ele><time>2026-05-03T14:54:05.459Z</time></trkpt><trkpt lat="44.0265253" lon="8.0760442"><ele>270.0</ele><time>2026-05-03T14:54:07.459Z</time></trkpt><trkpt lat="44.0265969" lon="8.0760355"><ele>269.0</ele><time>2026-05-03T14:54:08.465Z</time></trkpt><trkpt lat="44.0267215" lon="8.075983"><ele>269.0</ele><time>2026-05-03T14:54:10.463Z</time></trkpt><trkpt lat="44.0268085" lon="8.0759358"><ele>269.0</ele><time>2026-05-03T14:54:11.463Z</time></trkpt><trkpt lat="44.0268609" lon="8.0758745"><ele>269.0</ele><time>2026-05-03T14:54:12.465Z</time></trkpt><trkpt lat="44.0268892" lon="8.0757888"><ele>269.0</ele><time>2026-05-03T14:54:13.462Z</time></trkpt><trkpt lat="44.0269239" lon="8.0757059"><ele>269.0</ele><time>2026-05-03T14:54:14.46Z</time></trkpt><trkpt lat="44.0269668" lon="8.0755951"><ele>269.0</ele><time>2026-05-03T14:54:16.459Z</time></trkpt><trkpt lat="44.0270377" lon="8.0755396"><ele>268.0</ele><time>2026-05-03T14:54:18.457Z</time></trkpt><trkpt lat="44.0271512" lon="8.0755157"><ele>267.0</ele><time>2026-05-03T14:54:20.464Z</time></trkpt><trkpt lat="44.0272038" lon="8.0754483"><ele>266.0</ele><time>2026-05-03T14:54:22.464Z</time></trkpt><trkpt lat="44.0271701" lon="8.0753693"><ele>265.0</ele><time>2026-05-03T14:54:24.463Z</time></trkpt><trkpt lat="44.0270972" lon="8.0752667"><ele>264.0</ele><time>2026-05-03T14:54:26.46Z</time></trkpt><trkpt lat="44.0270232" lon="8.0751548"><ele>264.0</ele><time>2026-05-03T14:54:28.462Z</time></trkpt><trkpt lat="44.026925" lon="8.075067"><ele>264.0</ele><time>2026-05-03T14:54:30.463Z</time></trkpt><trkpt lat="44.0268523" lon="8.0749716"><ele>264.0</ele><time>2026-05-03T14:54:32.464Z</time></trkpt><trkpt lat="44.026798" lon="8.0749033"><ele>264.0</ele><time>2026-05-03T14:54:33.46Z</time></trkpt><trkpt lat="44.0267092" lon="8.0747831"><ele>264.0</ele><time>2026-05-03T14:54:35.461Z</time></trkpt><trkpt lat="44.0266156" lon="8.0746817"><ele>264.6666666666667</ele><time>2026-05-03T14:54:37.46Z</time></trkpt><trkpt lat="44.0265662" lon="8.0746208"><ele>265.3333333333333</ele><time>2026-05-03T14:54:38.466Z</time></trkpt><trkpt lat="44.0265101" lon="8.0745341"><ele>266.0</ele><time>2026-05-03T14:54:40.466Z</time></trkpt><trkpt lat="44.0264344" lon="8.0743909"><ele>266.66666666666663</ele><time>2026-05-03T14:54:42.462Z</time></trkpt><trkpt lat="44.0264158" lon="8.0742889"><ele>267.3333333333333</ele><time>2026-05-03T14:54:44.46Z</time></trkpt><trkpt lat="44.026375" lon="8.0741773"><ele>268.0</ele><time>2026-05-03T14:54:45.459Z</time></trkpt><trkpt lat="44.0263157" lon="8.0741108"><ele>265.16666666666663</ele><time>2026-05-03T14:54:48.458Z</time></trkpt><trkpt lat="44.0262427" lon="8.0740269"><ele>262.3333333333333</ele><time>2026-05-03T14:54:50.463Z</time></trkpt><trkpt lat="44.0262295" lon="8.0739249"><ele>259.5</ele><time>2026-05-03T14:54:52.459Z</time></trkpt><trkpt lat="44.026246" lon="8.0738108"><ele>256.6666666666667</ele><time>2026-05-03T14:54:54.459Z</time></trkpt><trkpt lat="44.0263091" lon="8.0737097"><ele>253.83333333333334</ele><time>2026-05-03T14:54:56.459Z</time></trkpt><trkpt lat="44.0263824" lon="8.0736257"><ele>251.0</ele><time>2026-05-03T14:54:58.461Z</time></trkpt><trkpt lat="44.0264651" lon="8.0734755"><ele>251.00000000000003</ele><time>2026-05-03T14:55:00.46Z</time></trkpt><trkpt lat="44.0265123" lon="8.0733782"><ele>251.0</ele><time>2026-05-03T14:55:01.466Z</time></trkpt><trkpt lat="44.0265516" lon="8.0732936"><ele>251.0</ele><time>2026-05-03T14:55:02.459Z</time></trkpt><trkpt lat="44.0265907" lon="8.0732203"><ele>251.0</ele><time>2026-05-03T14:55:03.461Z</time></trkpt><trkpt lat="44.0266022" lon="8.0730762"><ele>251.00000000000003</ele><time>2026-05-03T14:55:05.459Z</time></trkpt><trkpt lat="44.026655" lon="8.0729614"><ele>251.0</ele><time>2026-05-03T14:55:07.457Z</time></trkpt><trkpt lat="44.0266862" lon="8.0728796"><ele>247.99999999999997</ele><time>2026-05-03T14:55:09.46Z</time></trkpt><trkpt lat="44.0267406" lon="8.0728303"><ele>245.0</ele><time>2026-05-03T14:55:11.464Z</time></trkpt><trkpt lat="44.02681" lon="8.0727639"><ele>241.99999999999997</ele><time>2026-05-03T14:55:25.461Z</time></trkpt><trkpt lat="44.0268762" lon="8.0726971"><ele>238.99999999999997</ele><time>2026-05-03T14:55:28.46Z</time></trkpt><trkpt lat="44.0269541" lon="8.0726621"><ele>236.0</ele><time>2026-05-03T14:55:35.46Z</time></trkpt><trkpt lat="44.0270091" lon="8.0726148"><ele>232.99999999999997</ele><time>2026-05-03T14:55:37.467Z</time></trkpt><trkpt lat="44.0270665" lon="8.0725655"><ele>229.99999999999997</ele><time>2026-05-03T14:55:39.46Z</time></trkpt><trkpt lat="44.0271413" lon="8.0725197"><ele>229.99999999999997</ele><time>2026-05-03T14:55:42.463Z</time></trkpt><trkpt lat="44.0272075" lon="8.0724771"><ele>230.0</ele><time>2026-05-03T14:55:45.463Z</time></trkpt><trkpt lat="44.0272574" lon="8.0724187"><ele>229.99999999999997</ele><time>2026-05-03T14:55:48.458Z</time></trkpt><trkpt lat="44.027336" lon="8.0723802"><ele>229.99999999999997</ele><time>2026-05-03T14:55:51.461Z</time></trkpt><trkpt lat="44.0273985" lon="8.0723252"><ele>230.0</ele><time>2026-05-03T14:55:54.46Z</time></trkpt><trkpt lat="44.0274763" lon="8.0722882"><ele>229.99999999999997</ele><time>2026-05-03T14:55:57.461Z</time></trkpt><trkpt lat="44.0275375" lon="8.0722596"><ele>229.99999999999997</ele><time>2026-05-03T14:55:59.461Z</time></trkpt><trkpt lat="44.0276041" lon="8.0721819"><ele>227.7142857142857</ele><time>2026-05-03T14:56:02.462Z</time></trkpt><trkpt lat="44.0275319" lon="8.0721136"><ele>225.42857142857142</ele><time>2026-05-03T14:56:07.456Z</time></trkpt><trkpt lat="44.0274672" lon="8.0721007"><ele>223.14285714285714</ele><time>2026-05-03T14:56:09.462Z</time></trkpt><trkpt lat="44.0274063" lon="8.0720672"><ele>220.85714285714283</ele><time>2026-05-03T14:56:11.457Z</time></trkpt><trkpt lat="44.0273283" lon="8.0720236"><ele>218.57142857142856</ele><time>2026-05-03T14:56:13.463Z</time></trkpt><trkpt lat="44.0272756" lon="8.0719696"><ele>216.2857142857143</ele><time>2026-05-03T14:56:14.461Z</time></trkpt><trkpt lat="44.0272223" lon="8.0719149"><ele>214.0</ele><time>2026-05-03T14:56:16.46Z</time></trkpt><trkpt lat="44.0271773" lon="8.0718341"><ele>213.99999999999997</ele><time>2026-05-03T14:56:18.46Z</time></trkpt><trkpt lat="44.0271792" lon="8.0717447"><ele>214.0</ele><time>2026-05-03T14:56:20.457Z</time></trkpt><trkpt lat="44.0271799" lon="8.0716562"><ele>214.0</ele><time>2026-05-03T14:56:22.462Z</time></trkpt><trkpt lat="44.0271401" lon="8.0715869"><ele>214.0</ele><time>2026-05-03T14:56:24.462Z</time></trkpt><trkpt lat="44.0270749" lon="8.071485"><ele>213.99999999999997</ele><time>2026-05-03T14:56:26.46Z</time></trkpt><trkpt lat="44.0270359" lon="8.0713742"><ele>214.0</ele><time>2026-05-03T14:56:28.46Z</time></trkpt><trkpt lat="44.0270293" lon="8.0712519"><ele>210.83333333333331</ele><time>2026-05-03T14:56:30.462Z</time></trkpt><trkpt lat="44.0270376" lon="8.0711351"><ele>207.66666666666666</ele><time>2026-05-03T14:56:32.46Z</time></trkpt><trkpt lat="44.0270229" lon="8.0710239"><ele>204.5</ele><time>2026-05-03T14:56:34.465Z</time></trkpt><trkpt lat="44.0270055" lon="8.0709096"><ele>201.33333333333331</ele><time>2026-05-03T14:56:36.462Z</time></trkpt><trkpt lat="44.026991" lon="8.0710148"><ele>198.16666666666666</ele><time>2026-05-03T14:57:08.459Z</time></trkpt><trkpt lat="44.027021" lon="8.0711132"><ele>195.0</ele><time>2026-05-03T14:57:10.465Z</time></trkpt><trkpt lat="44.0270352" lon="8.0712531"><ele>195.0</ele><time>2026-05-03T14:57:13.458Z</time></trkpt><trkpt lat="44.0270711" lon="8.0713433"><ele>195.0</ele><time>2026-05-03T14:57:14.46Z</time></trkpt><trkpt lat="44.0271034" lon="8.0714198"><ele>195.0</ele><time>2026-05-03T14:57:16.462Z</time></trkpt><trkpt lat="44.0271222" lon="8.0715266"><ele>195.0</ele><time>2026-05-03T14:57:18.463Z</time></trkpt><trkpt lat="44.0271401" lon="8.071641"><ele>195.0</ele><time>2026-05-03T14:57:20.461Z</time></trkpt><trkpt lat="44.027162" lon="8.0717577"><ele>195.0</ele><time>2026-05-03T14:57:22.465Z</time></trkpt><trkpt lat="44.0271893" lon="8.0718571"><ele>197.16666666666666</ele><time>2026-05-03T14:57:24.463Z</time></trkpt><trkpt lat="44.0272442" lon="8.0719284"><ele>199.33333333333331</ele><time>2026-05-03T14:57:26.461Z</time></trkpt><trkpt lat="44.0273212" lon="8.0719782"><ele>201.5</ele><time>2026-05-03T14:57:28.46Z</time></trkpt><trkpt lat="44.0274099" lon="8.0720264"><ele>203.66666666666666</ele><time>2026-05-03T14:57:30.465Z</time></trkpt><trkpt lat="44.0274965" lon="8.0720429"><ele>205.83333333333331</ele><time>2026-05-03T14:57:32.458Z</time></trkpt><trkpt lat="44.0275749" lon="8.0721163"><ele>208.0</ele><time>2026-05-03T14:57:34.459Z</time></trkpt><trkpt lat="44.0276158" lon="8.0721993"><ele>208.0</ele><time>2026-05-03T14:58:03.46Z</time></trkpt><trkpt lat="44.0275567" lon="8.0722434"><ele>208.0</ele><time>2026-05-03T14:58:06.467Z</time></trkpt><trkpt lat="44.0274834" lon="8.0722198"><ele>208.0</ele><time>2026-05-03T14:59:19.461Z</time></trkpt><trkpt lat="44.0274073" lon="8.0720582"><ele>208.0</ele><time>2026-05-03T14:59:21.459Z</time></trkpt><trkpt lat="44.0273221" lon="8.0720187"><ele>208.0</ele><time>2026-05-03T14:59:23.46Z</time></trkpt><trkpt lat="44.0272399" lon="8.0719531"><ele>208.99999999999997</ele><time>2026-05-03T14:59:25.46Z</time></trkpt><trkpt lat="44.0272117" lon="8.0718593"><ele>210.0</ele><time>2026-05-03T14:59:28.46Z</time></trkpt><trkpt lat="44.0271931" lon="8.0717614"><ele>211.0</ele><time>2026-05-03T14:59:30.459Z</time></trkpt><trkpt lat="44.0271624" lon="8.0716445"><ele>212.0</ele><time>2026-05-03T14:59:32.462Z</time></trkpt><trkpt lat="44.0271168" lon="8.0715432"><ele>212.99999999999997</ele><time>2026-05-03T14:59:35.459Z</time></trkpt><trkpt lat="44.0270787" lon="8.0714458"><ele>214.0</ele><time>2026-05-03T14:59:37.462Z</time></trkpt><trkpt lat="44.0270534" lon="8.0712972"><ele>210.83333333333331</ele><time>2026-05-03T14:59:40.458Z</time></trkpt><trkpt lat="44.0270408" lon="8.0711617"><ele>207.66666666666666</ele><time>2026-05-03T14:59:42.463Z</time></trkpt><trkpt lat="44.0270213" lon="8.0710587"><ele>204.5</ele><time>2026-05-03T14:59:44.459Z</time></trkpt><trkpt lat="44.0270252" lon="8.0709575"><ele>201.33333333333331</ele><time>2026-05-03T14:59:46.459Z</time></trkpt><trkpt lat="44.0269846" lon="8.0708651"><ele>198.16666666666666</ele><time>2026-05-03T14:59:49.458Z</time></trkpt><trkpt lat="44.0269016" lon="8.0708356"><ele>195.0</ele><time>2026-05-03T14:59:52.463Z</time></trkpt><trkpt lat="44.0268845" lon="8.0709261"><ele>195.0</ele><time>2026-05-03T15:01:28.468Z</time></trkpt><trkpt lat="44.0269039" lon="8.0710291"><ele>195.0</ele><time>2026-05-03T15:01:30.466Z</time></trkpt><trkpt lat="44.0269281" lon="8.0711234"><ele>195.0</ele><time>2026-05-03T15:01:32.461Z</time></trkpt><trkpt lat="44.0269581" lon="8.0712445"><ele>195.0</ele><time>2026-05-03T15:01:34.463Z</time></trkpt><trkpt lat="44.0270071" lon="8.0713878"><ele>195.0</ele><time>2026-05-03T15:01:36.463Z</time></trkpt><trkpt lat="44.027054" lon="8.0714875"><ele>195.0</ele><time>2026-05-03T15:01:38.462Z</time></trkpt><trkpt lat="44.0271292" lon="8.0716034"><ele>198.8</ele><time>2026-05-03T15:01:40.461Z</time></trkpt><trkpt lat="44.0271397" lon="8.071735"><ele>202.6</ele><time>2026-05-03T15:01:42.459Z</time></trkpt><trkpt lat="44.0271602" lon="8.0718548"><ele>206.39999999999998</ele><time>2026-05-03T15:01:44.466Z</time></trkpt><trkpt lat="44.0272328" lon="8.0719554"><ele>210.2</ele><time>2026-05-03T15:01:47.463Z</time></trkpt><trkpt lat="44.0273345" lon="8.072032"><ele>214.0</ele><time>2026-05-03T15:01:49.459Z</time></trkpt><trkpt lat="44.0274245" lon="8.072083"><ele>213.99999999999997</ele><time>2026-05-03T15:01:51.462Z</time></trkpt><trkpt lat="44.0275145" lon="8.0721128"><ele>214.0</ele><time>2026-05-03T15:01:53.463Z</time></trkpt><trkpt lat="44.0275733" lon="8.0721468"><ele>214.0</ele><time>2026-05-03T15:01:54.461Z</time></trkpt><trkpt lat="44.027616" lon="8.072216"><ele>214.0</ele><time>2026-05-03T15:01:58.461Z</time></trkpt><trkpt lat="44.027556" lon="8.0722618"><ele>213.99999999999997</ele><time>2026-05-03T15:02:00.46Z</time></trkpt><trkpt lat="44.027477" lon="8.0722698"><ele>214.0</ele><time>2026-05-03T15:02:01.465Z</time></trkpt><trkpt lat="44.027407" lon="8.0723389"><ele>213.99999999999997</ele><time>2026-05-03T15:02:03.467Z</time></trkpt><trkpt lat="44.0273355" lon="8.0723724"><ele>214.0</ele><time>2026-05-03T15:02:05.461Z</time></trkpt><trkpt lat="44.0272711" lon="8.0723971"><ele>214.0</ele><time>2026-05-03T15:02:07.46Z</time></trkpt><trkpt lat="44.0272133" lon="8.0724913"><ele>214.0</ele><time>2026-05-03T15:02:09.462Z</time></trkpt><trkpt lat="44.027146" lon="8.072561"><ele>213.99999999999997</ele><time>2026-05-03T15:02:11.466Z</time></trkpt><trkpt lat="44.0270362" lon="8.0725816"><ele>214.0</ele><time>2026-05-03T15:02:13.46Z</time></trkpt><trkpt lat="44.0269556" lon="8.0726429"><ele>216.66666666666666</ele><time>2026-05-03T15:02:15.464Z</time></trkpt><trkpt lat="44.0268971" lon="8.0727275"><ele>219.33333333333331</ele><time>2026-05-03T15:02:17.458Z</time></trkpt><trkpt lat="44.0268449" lon="8.0727966"><ele>222.0</ele><time>2026-05-03T15:02:19.461Z</time></trkpt><trkpt lat="44.0267748" lon="8.0728251"><ele>224.66666666666669</ele><time>2026-05-03T15:02:21.471Z</time></trkpt><trkpt lat="44.0267118" lon="8.0728657"><ele>227.33333333333334</ele><time>2026-05-03T15:02:24.477Z</time></trkpt><trkpt lat="44.0266761" lon="8.0729679"><ele>230.0</ele><time>2026-05-03T15:02:27.471Z</time></trkpt><trkpt lat="44.026669" lon="8.0730719"><ele>231.50000000000003</ele><time>2026-05-03T15:02:29.46Z</time></trkpt><trkpt lat="44.0266429" lon="8.0731664"><ele>233.0</ele><time>2026-05-03T15:02:31.461Z</time></trkpt><trkpt lat="44.0266041" lon="8.0732513"><ele>234.5</ele><time>2026-05-03T15:02:33.459Z</time></trkpt><trkpt lat="44.0265542" lon="8.073331"><ele>236.0</ele><time>2026-05-03T15:02:35.462Z</time></trkpt><trkpt lat="44.0264704" lon="8.073379"><ele>237.50000000000003</ele><time>2026-05-03T15:02:37.459Z</time></trkpt><trkpt lat="44.0264037" lon="8.0734604"><ele>239.0</ele><time>2026-05-03T15:02:39.464Z</time></trkpt><trkpt lat="44.0263696" lon="8.0735853"><ele>243.0</ele><time>2026-05-03T15:02:41.458Z</time></trkpt><trkpt lat="44.0262664" lon="8.0739047"><ele>247.0</ele><time>2026-05-03T15:02:42.457Z</time></trkpt><trkpt lat="44.026311" lon="8.0740438"><ele>251.0</ele><time>2026-05-03T15:02:44.462Z</time></trkpt><trkpt lat="44.0263607" lon="8.074148"><ele>254.4</ele><time>2026-05-03T15:02:46.458Z</time></trkpt><trkpt lat="44.0263989" lon="8.0742509"><ele>257.8</ele><time>2026-05-03T15:02:47.461Z</time></trkpt><trkpt lat="44.0264279" lon="8.074411"><ele>261.20000000000005</ele><time>2026-05-03T15:02:49.463Z</time></trkpt><trkpt lat="44.0264522" lon="8.0745177"><ele>264.6</ele><time>2026-05-03T15:02:50.466Z</time></trkpt><trkpt lat="44.0264779" lon="8.0746292"><ele>268.0</ele><time>2026-05-03T15:02:51.459Z</time></trkpt><trkpt lat="44.0265465" lon="8.0747209"><ele>267.2</ele><time>2026-05-03T15:02:52.464Z</time></trkpt><trkpt lat="44.0266774" lon="8.0748706"><ele>266.4</ele><time>2026-05-03T15:02:54.461Z</time></trkpt><trkpt lat="44.0267377" lon="8.0749368"><ele>265.59999999999997</ele><time>2026-05-03T15:02:55.459Z</time></trkpt><trkpt lat="44.0267969" lon="8.0750257"><ele>264.8</ele><time>2026-05-03T15:02:56.46Z</time></trkpt><trkpt lat="44.0268435" lon="8.0750875"><ele>264.0</ele><time>2026-05-03T15:02:57.462Z</time></trkpt><trkpt lat="44.0268953" lon="8.0751432"><ele>264.0</ele><time>2026-05-03T15:02:58.46Z</time></trkpt><trkpt lat="44.0269757" lon="8.0751848"><ele>264.0</ele><time>2026-05-03T15:02:59.461Z</time></trkpt><trkpt lat="44.0270627" lon="8.0752873"><ele>264.0</ele><time>2026-05-03T15:03:01.46Z</time></trkpt><trkpt lat="44.0271134" lon="8.0753978"><ele>264.0</ele><time>2026-05-03T15:03:03.462Z</time></trkpt><trkpt lat="44.0271357" lon="8.0754861"><ele>264.0</ele><time>2026-05-03T15:03:05.466Z</time></trkpt><trkpt lat="44.0270644" lon="8.0755198"><ele>264.0</ele><time>2026-05-03T15:03:07.467Z</time></trkpt><trkpt lat="44.0269491" lon="8.0755644"><ele>264.0</ele><time>2026-05-03T15:03:09.467Z</time></trkpt><trkpt lat="44.026875" lon="8.0756876"><ele>264.0</ele><time>2026-05-03T15:03:11.463Z</time></trkpt><trkpt lat="44.0268254" lon="8.0758089"><ele>264.0</ele><time>2026-05-03T15:03:13.459Z</time></trkpt><trkpt lat="44.026787" lon="8.0758875"><ele>264.0</ele><time>2026-05-03T15:03:14.465Z</time></trkpt><trkpt lat="44.0266951" lon="8.0759969"><ele>264.0</ele><time>2026-05-03T15:03:16.464Z</time></trkpt><trkpt lat="44.0266036" lon="8.0760358"><ele>269.8</ele><time>2026-05-03T15:03:18.461Z</time></trkpt><trkpt lat="44.026465" lon="8.0760747"><ele>275.59999999999997</ele><time>2026-05-03T15:03:20.459Z</time></trkpt><trkpt lat="44.0263676" lon="8.0761583"><ele>281.4</ele><time>2026-05-03T15:03:22.462Z</time></trkpt><trkpt lat="44.0263283" lon="8.0762961"><ele>287.2</ele><time>2026-05-03T15:03:24.459Z</time></trkpt><trkpt lat="44.0263018" lon="8.0763883"><ele>293.0</ele><time>2026-05-03T15:03:25.46Z</time></trkpt><trkpt lat="44.0262726" lon="8.0764703"><ele>293.0</ele><time>2026-05-03T15:03:26.461Z</time></trkpt><trkpt lat="44.026174" lon="8.0765874"><ele>293.0</ele><time>2026-05-03T15:03:28.46Z</time></trkpt><trkpt lat="44.0260931" lon="8.0766598"><ele>293.0</ele><time>2026-05-03T15:03:30.463Z</time></trkpt><trkpt lat="44.0260185" lon="8.0767784"><ele>293.0</ele><time>2026-05-03T15:03:32.469Z</time></trkpt><trkpt lat="44.0259776" lon="8.0768778"><ele>293.0</ele><time>2026-05-03T15:03:33.459Z</time></trkpt><trkpt lat="44.0258538" lon="8.0769783"><ele>293.33333333333337</ele><time>2026-05-03T15:03:35.46Z</time></trkpt><trkpt lat="44.025791" lon="8.0770032"><ele>293.6666666666667</ele><time>2026-05-03T15:03:36.463Z</time></trkpt><trkpt lat="44.0256739" lon="8.0770871"><ele>294.0</ele><time>2026-05-03T15:03:38.46Z</time></trkpt><trkpt lat="44.0256166" lon="8.0771356"><ele>294.3333333333333</ele><time>2026-05-03T15:03:39.463Z</time></trkpt><trkpt lat="44.0255349" lon="8.077195"><ele>294.66666666666663</ele><time>2026-05-03T15:03:41.463Z</time></trkpt><trkpt lat="44.0254963" lon="8.0773018"><ele>295.0</ele><time>2026-05-03T15:03:43.46Z</time></trkpt><trkpt lat="44.0254967" lon="8.0774297"><ele>293.0</ele><time>2026-05-03T15:03:45.458Z</time></trkpt><trkpt lat="44.0254995" lon="8.0775187"><ele>291.0</ele><time>2026-05-03T15:03:46.459Z</time></trkpt><trkpt lat="44.0254953" lon="8.0776264"><ele>289.0</ele><time>2026-05-03T15:03:47.459Z</time></trkpt><trkpt lat="44.0255112" lon="8.0777914"><ele>287.0</ele><time>2026-05-03T15:03:49.46Z</time></trkpt><trkpt lat="44.0254906" lon="8.077931"><ele>285.0</ele><time>2026-05-03T15:03:51.456Z</time></trkpt><trkpt lat="44.025468" lon="8.078039"><ele>283.0</ele><time>2026-05-03T15:03:52.457Z</time></trkpt><trkpt lat="44.0254834" lon="8.0781365"><ele>283.0</ele><time>2026-05-03T15:03:53.461Z</time></trkpt><trkpt lat="44.0254684" lon="8.0782338"><ele>283.0</ele><time>2026-05-03T15:03:54.464Z</time></trkpt><trkpt lat="44.0254389" lon="8.078317"><ele>283.0</ele><time>2026-05-03T15:03:57.463Z</time></trkpt><trkpt lat="44.0253886" lon="8.0783811"><ele>283.0</ele><time>2026-05-03T15:04:00.46Z</time></trkpt><trkpt lat="44.0253204" lon="8.0784756"><ele>283.0</ele><time>2026-05-03T15:04:02.459Z</time></trkpt><trkpt lat="44.0252614" lon="8.0785983"><ele>283.0</ele><time>2026-05-03T15:04:04.467Z</time></trkpt><trkpt lat="44.0252469" lon="8.0787453"><ele>283.4</ele><time>2026-05-03T15:04:06.466Z</time></trkpt><trkpt lat="44.0252458" lon="8.0788548"><ele>283.8</ele><time>2026-05-03T15:04:07.46Z</time></trkpt><trkpt lat="44.0252627" lon="8.0789712"><ele>284.2</ele><time>2026-05-03T15:04:08.462Z</time></trkpt><trkpt lat="44.0252711" lon="8.0790726"><ele>284.6</ele><time>2026-05-03T15:04:09.462Z</time></trkpt><trkpt lat="44.0252796" lon="8.0792297"><ele>285.0</ele><time>2026-05-03T15:04:11.459Z</time></trkpt><trkpt lat="44.0252108" lon="8.0793781"><ele>286.1666666666667</ele><time>2026-05-03T15:04:13.46Z</time></trkpt><trkpt lat="44.0251672" lon="8.0794811"><ele>287.3333333333333</ele><time>2026-05-03T15:04:14.461Z</time></trkpt><trkpt lat="44.0251487" lon="8.0796029"><ele>288.5</ele><time>2026-05-03T15:04:15.464Z</time></trkpt><trkpt lat="44.0251149" lon="8.079685"><ele>289.66666666666663</ele><time>2026-05-03T15:04:16.46Z</time></trkpt><trkpt lat="44.0250845" lon="8.0797824"><ele>290.8333333333333</ele><time>2026-05-03T15:04:17.463Z</time></trkpt><trkpt lat="44.0250643" lon="8.0798732"><ele>292.0</ele><time>2026-05-03T15:04:18.46Z</time></trkpt><trkpt lat="44.0250566" lon="8.0799693"><ele>292.2</ele><time>2026-05-03T15:04:19.462Z</time></trkpt><trkpt lat="44.0250346" lon="8.0800838"><ele>292.4</ele><time>2026-05-03T15:04:21.459Z</time></trkpt><trkpt lat="44.025055" lon="8.0802029"><ele>292.6</ele><time>2026-05-03T15:04:38.46Z</time></trkpt><trkpt lat="44.0250757" lon="8.0803108"><ele>292.8</ele><time>2026-05-03T15:04:41.461Z</time></trkpt><trkpt lat="44.0250083" lon="8.0802455"><ele>293.0</ele><time>2026-05-03T15:04:47.46Z</time></trkpt><trkpt lat="44.0250062" lon="8.0800558"><ele>293.0</ele><time>2026-05-03T15:04:49.462Z</time></trkpt><trkpt lat="44.0250042" lon="8.0799592"><ele>293.0</ele><time>2026-05-03T15:04:50.463Z</time></trkpt><trkpt lat="44.0249969" lon="8.0798611"><ele>293.0</ele><time>2026-05-03T15:04:51.471Z</time></trkpt><trkpt lat="44.0249969" lon="8.0797673"><ele>293.0</ele><time>2026-05-03T15:04:52.461Z</time></trkpt><trkpt lat="44.024995" lon="8.0795961"><ele>293.0</ele><time>2026-05-03T15:04:54.457Z</time></trkpt><trkpt lat="44.0249802" lon="8.0794469"><ele>293.0</ele><time>2026-05-03T15:04:56.461Z</time></trkpt><trkpt lat="44.0249525" lon="8.0793642"><ele>294.5</ele><time>2026-05-03T15:04:57.462Z</time></trkpt><trkpt lat="44.0249004" lon="8.0792849"><ele>296.0</ele><time>2026-05-03T15:04:58.461Z</time></trkpt><trkpt lat="44.0248478" lon="8.079202"><ele>297.5</ele><time>2026-05-03T15:04:59.462Z</time></trkpt><trkpt lat="44.0247945" lon="8.0791283"><ele>299.0</ele><time>2026-05-03T15:05:00.463Z</time></trkpt><trkpt lat="44.0247309" lon="8.0790599"><ele>300.5</ele><time>2026-05-03T15:05:01.46Z</time></trkpt><trkpt lat="44.0246701" lon="8.0789953"><ele>302.0</ele><time>2026-05-03T15:05:02.461Z</time></trkpt><trkpt lat="44.0246123" lon="8.0789265"><ele>303.8</ele><time>2026-05-03T15:05:03.463Z</time></trkpt><trkpt lat="44.0245669" lon="8.0788531"><ele>305.6</ele><time>2026-05-03T15:05:04.462Z</time></trkpt><trkpt lat="44.0244996" lon="8.0787323"><ele>307.40000000000003</ele><time>2026-05-03T15:05:06.461Z</time></trkpt><trkpt lat="44.0244404" lon="8.0787713"><ele>309.2</ele><time>2026-05-03T15:05:08.461Z</time></trkpt><trkpt lat="44.0244023" lon="8.078897"><ele>311.0</ele><time>2026-05-03T15:05:10.462Z</time></trkpt><trkpt lat="44.024329" lon="8.0790293"><ele>309.5</ele><time>2026-05-03T15:05:12.464Z</time></trkpt><trkpt lat="44.0242773" lon="8.079128"><ele>308.0</ele><time>2026-05-03T15:05:14.469Z</time></trkpt><trkpt lat="44.0242343" lon="8.0792332"><ele>306.5</ele><time>2026-05-03T15:05:17.46Z</time></trkpt><trkpt lat="44.0242192" lon="8.0793484"><ele>305.0</ele><time>2026-05-03T15:05:19.46Z</time></trkpt><trkpt lat="44.0242252" lon="8.0794594"><ele>303.5</ele><time>2026-05-03T15:05:21.455Z</time></trkpt><trkpt lat="44.0242673" lon="8.0795711"><ele>302.0</ele><time>2026-05-03T15:05:23.465Z</time></trkpt><trkpt lat="44.0243418" lon="8.0796842"><ele>302.0</ele><time>2026-05-03T15:05:25.463Z</time></trkpt><trkpt lat="44.0243893" lon="8.0797446"><ele>302.0</ele><time>2026-05-03T15:05:26.466Z</time></trkpt><trkpt lat="44.0244387" lon="8.0798049"><ele>302.0</ele><time>2026-05-03T15:05:27.463Z</time></trkpt><trkpt lat="44.0245098" lon="8.0799398"><ele>302.0</ele><time>2026-05-03T15:05:29.462Z</time></trkpt><trkpt lat="44.0245829" lon="8.080011"><ele>302.0</ele><time>2026-05-03T15:05:31.462Z</time></trkpt><trkpt lat="44.0246577" lon="8.0800852"><ele>302.0</ele><time>2026-05-03T15:05:33.463Z</time></trkpt><trkpt lat="44.0247172" lon="8.0801377"><ele>300.5</ele><time>2026-05-03T15:05:35.464Z</time></trkpt><trkpt lat="44.0247812" lon="8.080202"><ele>299.0</ele><time>2026-05-03T15:05:38.466Z</time></trkpt><trkpt lat="44.0248618" lon="8.080237"><ele>297.5</ele><time>2026-05-03T15:05:39.462Z</time></trkpt><trkpt lat="44.024965" lon="8.0802881"><ele>296.0</ele><time>2026-05-03T15:05:41.457Z</time></trkpt><trkpt lat="44.0250322" lon="8.0803192"><ele>294.5</ele><time>2026-05-03T15:05:43.462Z</time></trkpt><trkpt lat="44.0250526" lon="8.0802326"><ele>293.0</ele><time>2026-05-03T15:05:46.459Z</time></trkpt><trkpt lat="44.0250279" lon="8.0801288"><ele>293.0</ele><time>2026-05-03T15:05:47.462Z</time></trkpt><trkpt lat="44.0250131" lon="8.0799937"><ele>293.0</ele><time>2026-05-03T15:05:48.463Z</time></trkpt><trkpt lat="44.0250266" lon="8.0798579"><ele>293.0</ele><time>2026-05-03T15:05:49.463Z</time></trkpt><trkpt lat="44.0250421" lon="8.0797072"><ele>293.0</ele><time>2026-05-03T15:05:50.462Z</time></trkpt><trkpt lat="44.0250343" lon="8.0795939"><ele>293.0</ele><time>2026-05-03T15:05:51.463Z</time></trkpt><trkpt lat="44.0250403" lon="8.0794767"><ele>292.8</ele><time>2026-05-03T15:05:52.466Z</time></trkpt><trkpt lat="44.0250274" lon="8.0793579"><ele>292.6</ele><time>2026-05-03T15:05:53.465Z</time></trkpt><trkpt lat="44.0249828" lon="8.0792603"><ele>292.4</ele><time>2026-05-03T15:05:54.462Z</time></trkpt><trkpt lat="44.0248499" lon="8.0791652"><ele>292.2</ele><time>2026-05-03T15:05:55.465Z</time></trkpt><trkpt lat="44.0247459" lon="8.0790594"><ele>292.0</ele><time>2026-05-03T15:05:56.46Z</time></trkpt><trkpt lat="44.0246646" lon="8.0789529"><ele>295.16666666666663</ele><time>2026-05-03T15:05:57.46Z</time></trkpt><trkpt lat="44.0246024" lon="8.0788586"><ele>298.3333333333333</ele><time>2026-05-03T15:05:58.461Z</time></trkpt><trkpt lat="44.0245262" lon="8.0787576"><ele>301.5</ele><time>2026-05-03T15:06:00.457Z</time></trkpt><trkpt lat="44.0244648" lon="8.0787936"><ele>304.6666666666667</ele><time>2026-05-03T15:06:02.457Z</time></trkpt><trkpt lat="44.0244578" lon="8.0788909"><ele>307.83333333333337</ele><time>2026-05-03T15:06:03.467Z</time></trkpt><trkpt lat="44.0243962" lon="8.0789995"><ele>311.0</ele><time>2026-05-03T15:06:05.46Z</time></trkpt><trkpt lat="44.0243305" lon="8.0790941"><ele>311.1666666666667</ele><time>2026-05-03T15:06:07.462Z</time></trkpt><trkpt lat="44.0242851" lon="8.0791548"><ele>311.33333333333337</ele><time>2026-05-03T15:06:09.463Z</time></trkpt><trkpt lat="44.0241572" lon="8.07912"><ele>311.5</ele><time>2026-05-03T15:06:18.463Z</time></trkpt><trkpt lat="44.0241012" lon="8.0790694"><ele>311.6666666666667</ele><time>2026-05-03T15:06:19.464Z</time></trkpt><trkpt lat="44.0240371" lon="8.0789974"><ele>311.8333333333333</ele><time>2026-05-03T15:06:20.466Z</time></trkpt><trkpt lat="44.0239695" lon="8.0789707"><ele>312.0</ele><time>2026-05-03T15:06:21.46Z</time></trkpt><trkpt lat="44.023898" lon="8.0788974"><ele>312.0</ele><time>2026-05-03T15:06:22.458Z</time></trkpt><trkpt lat="44.0237937" lon="8.0787904"><ele>312.0</ele><time>2026-05-03T15:06:24.462Z</time></trkpt><trkpt lat="44.0237479" lon="8.0787297"><ele>312.0</ele><time>2026-05-03T15:06:25.459Z</time></trkpt><trkpt lat="44.0236376" lon="8.0786598"><ele>312.0</ele><time>2026-05-03T15:06:27.46Z</time></trkpt><trkpt lat="44.0235271" lon="8.0786695"><ele>312.0</ele><time>2026-05-03T15:06:29.459Z</time></trkpt><trkpt lat="44.0234525" lon="8.07868"><ele>312.0</ele><time>2026-05-03T15:06:30.462Z</time></trkpt><trkpt lat="44.0233863" lon="8.078685"><ele>312.0</ele><time>2026-05-03T15:06:31.462Z</time></trkpt><trkpt lat="44.0232809" lon="8.0786827"><ele>312.0</ele><time>2026-05-03T15:06:33.459Z</time></trkpt><trkpt lat="44.0232273" lon="8.0786335"><ele>312.0</ele><time>2026-05-03T15:06:34.459Z</time></trkpt><trkpt lat="44.0231535" lon="8.0786056"><ele>312.0</ele><time>2026-05-03T15:06:35.46Z</time></trkpt><trkpt lat="44.0230859" lon="8.0785596"><ele>312.0</ele><time>2026-05-03T15:06:36.459Z</time></trkpt><trkpt lat="44.0230278" lon="8.0785113"><ele>311.8333333333333</ele><time>2026-05-03T15:06:37.461Z</time></trkpt><trkpt lat="44.0229619" lon="8.0784824"><ele>311.6666666666667</ele><time>2026-05-03T15:06:38.461Z</time></trkpt><trkpt lat="44.022899" lon="8.0784738"><ele>311.5</ele><time>2026-05-03T15:06:39.458Z</time></trkpt><trkpt lat="44.0228316" lon="8.0784787"><ele>311.33333333333337</ele><time>2026-05-03T15:06:40.462Z</time></trkpt><trkpt lat="44.0227556" lon="8.0785037"><ele>311.1666666666667</ele><time>2026-05-03T15:06:41.463Z</time></trkpt><trkpt lat="44.0226932" lon="8.078518"><ele>311.0</ele><time>2026-05-03T15:06:42.459Z</time></trkpt><trkpt lat="44.0225808" lon="8.0785189"><ele>311.0</ele><time>2026-05-03T15:06:44.459Z</time></trkpt><trkpt lat="44.0225196" lon="8.0785534"><ele>311.0</ele><time>2026-05-03T15:06:45.462Z</time></trkpt><trkpt lat="44.0224116" lon="8.0785917"><ele>311.0</ele><time>2026-05-03T15:06:47.46Z</time></trkpt><trkpt lat="44.0223498" lon="8.0786115"><ele>311.0</ele><time>2026-05-03T15:06:48.459Z</time></trkpt><trkpt lat="44.0222576" lon="8.0786657"><ele>311.0</ele><time>2026-05-03T15:06:50.461Z</time></trkpt><trkpt lat="44.0222056" lon="8.0787158"><ele>311.0</ele><time>2026-05-03T15:06:51.464Z</time></trkpt><trkpt lat="44.0221242" lon="8.0787784"><ele>312.1666666666667</ele><time>2026-05-03T15:06:53.464Z</time></trkpt><trkpt lat="44.0220513" lon="8.0787858"><ele>313.33333333333337</ele><time>2026-05-03T15:06:54.461Z</time></trkpt><trkpt lat="44.0219623" lon="8.0787866"><ele>314.5</ele><time>2026-05-03T15:06:56.458Z</time></trkpt><trkpt lat="44.0219057" lon="8.0788359"><ele>315.6666666666667</ele><time>2026-05-03T15:06:58.46Z</time></trkpt><trkpt lat="44.021878" lon="8.0789154"><ele>316.8333333333333</ele><time>2026-05-03T15:06:59.465Z</time></trkpt><trkpt lat="44.0217811" lon="8.0790343"><ele>318.0</ele><time>2026-05-03T15:07:01.458Z</time></trkpt><trkpt lat="44.0216975" lon="8.0791142"><ele>316.6666666666667</ele><time>2026-05-03T15:07:03.462Z</time></trkpt><trkpt lat="44.0216529" lon="8.079226"><ele>315.3333333333333</ele><time>2026-05-03T15:07:04.465Z</time></trkpt><trkpt lat="44.0216076" lon="8.0793013"><ele>314.0</ele><time>2026-05-03T15:07:05.459Z</time></trkpt><trkpt lat="44.0215495" lon="8.0793961"><ele>312.66666666666663</ele><time>2026-05-03T15:07:06.46Z</time></trkpt><trkpt lat="44.0214988" lon="8.0794943"><ele>311.3333333333333</ele><time>2026-05-03T15:07:07.46Z</time></trkpt><trkpt lat="44.0214449" lon="8.0795631"><ele>310.0</ele><time>2026-05-03T15:07:08.462Z</time></trkpt><trkpt lat="44.021396" lon="8.0796532"><ele>310.0</ele><time>2026-05-03T15:07:09.462Z</time></trkpt><trkpt lat="44.0212856" lon="8.0797071"><ele>310.0</ele><time>2026-05-03T15:07:11.46Z</time></trkpt><trkpt lat="44.0211534" lon="8.0797253"><ele>310.0</ele><time>2026-05-03T15:07:13.46Z</time></trkpt><trkpt lat="44.0210753" lon="8.0797305"><ele>310.0</ele><time>2026-05-03T15:07:14.46Z</time></trkpt><trkpt lat="44.0210046" lon="8.0797151"><ele>310.0</ele><time>2026-05-03T15:07:15.459Z</time></trkpt><trkpt lat="44.0209438" lon="8.0796855"><ele>310.0</ele><time>2026-05-03T15:07:16.461Z</time></trkpt><trkpt lat="44.0208754" lon="8.0796528"><ele>310.0</ele><time>2026-05-03T15:07:17.458Z</time></trkpt><trkpt lat="44.0208103" lon="8.0796299"><ele>310.0</ele><time>2026-05-03T15:07:18.465Z</time></trkpt><trkpt lat="44.0207393" lon="8.0796228"><ele>310.0</ele><time>2026-05-03T15:07:19.466Z</time></trkpt><trkpt lat="44.0206628" lon="8.0795975"><ele>310.0</ele><time>2026-05-03T15:07:20.461Z</time></trkpt><trkpt lat="44.0205894" lon="8.0795621"><ele>310.0</ele><time>2026-05-03T15:07:21.46Z</time></trkpt><trkpt lat="44.020522" lon="8.0795538"><ele>310.0</ele><time>2026-05-03T15:07:22.466Z</time></trkpt><trkpt lat="44.0204123" lon="8.079493"><ele>308.5</ele><time>2026-05-03T15:07:24.467Z</time></trkpt><trkpt lat="44.0203588" lon="8.0794315"><ele>307.0</ele><time>2026-05-03T15:07:25.467Z</time></trkpt><trkpt lat="44.0203107" lon="8.079365"><ele>305.5</ele><time>2026-05-03T15:07:26.46Z</time></trkpt><trkpt lat="44.0202513" lon="8.079323"><ele>304.0</ele><time>2026-05-03T15:07:27.465Z</time></trkpt><trkpt lat="44.0201881" lon="8.0792652"><ele>302.5</ele><time>2026-05-03T15:07:28.46Z</time></trkpt><trkpt lat="44.0200736" lon="8.0791908"><ele>301.0</ele><time>2026-05-03T15:07:30.458Z</time></trkpt><trkpt lat="44.0200234" lon="8.0791252"><ele>305.5</ele><time>2026-05-03T15:07:31.463Z</time></trkpt><trkpt lat="44.0199657" lon="8.079085"><ele>310.0</ele><time>2026-05-03T15:07:32.462Z</time></trkpt><trkpt lat="44.0199104" lon="8.0790361"><ele>314.5</ele><time>2026-05-03T15:07:33.461Z</time></trkpt><trkpt lat="44.0198416" lon="8.0789851"><ele>319.0</ele><time>2026-05-03T15:07:36.457Z</time></trkpt><trkpt lat="44.0197622" lon="8.0790559"><ele>323.5</ele><time>2026-05-03T15:07:39.458Z</time></trkpt><trkpt lat="44.0197162" lon="8.0791778"><ele>328.0</ele><time>2026-05-03T15:07:41.462Z</time></trkpt><trkpt lat="44.0196484" lon="8.0792767"><ele>328.0</ele><time>2026-05-03T15:07:42.458Z</time></trkpt><trkpt lat="44.0196002" lon="8.0793431"><ele>328.0</ele><time>2026-05-03T15:07:43.458Z</time></trkpt><trkpt lat="44.0195803" lon="8.0795311"><ele>328.0</ele><time>2026-05-03T15:07:45.458Z</time></trkpt><trkpt lat="44.0195593" lon="8.0796273"><ele>328.0</ele><time>2026-05-03T15:07:46.462Z</time></trkpt><trkpt lat="44.0195705" lon="8.0797229"><ele>328.0</ele><time>2026-05-03T15:07:47.461Z</time></trkpt><trkpt lat="44.0195276" lon="8.0798779"><ele>326.16666666666663</ele><time>2026-05-03T15:07:49.46Z</time></trkpt><trkpt lat="44.0195294" lon="8.0800186"><ele>324.3333333333333</ele><time>2026-05-03T15:07:51.46Z</time></trkpt><trkpt lat="44.0194505" lon="8.0801392"><ele>322.5</ele><time>2026-05-03T15:07:53.461Z</time></trkpt><trkpt lat="44.0193883" lon="8.0801792"><ele>320.6666666666667</ele><time>2026-05-03T15:07:54.457Z</time></trkpt><trkpt lat="44.0193095" lon="8.0802077"><ele>318.83333333333337</ele><time>2026-05-03T15:07:55.463Z</time></trkpt><trkpt lat="44.0192451" lon="8.0802373"><ele>317.0</ele><time>2026-05-03T15:07:56.458Z</time></trkpt><trkpt lat="44.0191774" lon="8.080279"><ele>323.33333333333337</ele><time>2026-05-03T15:07:57.46Z</time></trkpt><trkpt lat="44.0190683" lon="8.0803566"><ele>329.6666666666667</ele><time>2026-05-03T15:07:59.457Z</time></trkpt><trkpt lat="44.019007" lon="8.0804146"><ele>336.0</ele><time>2026-05-03T15:08:00.46Z</time></trkpt><trkpt lat="44.0189438" lon="8.0804515"><ele>342.3333333333333</ele><time>2026-05-03T15:08:01.459Z</time></trkpt><trkpt lat="44.0188907" lon="8.0805094"><ele>348.66666666666663</ele><time>2026-05-03T15:08:02.464Z</time></trkpt><trkpt lat="44.0188917" lon="8.0806337"><ele>355.0</ele><time>2026-05-03T15:08:04.46Z</time></trkpt><trkpt lat="44.0189478" lon="8.0807444"><ele>354.8</ele><time>2026-05-03T15:08:05.466Z</time></trkpt><trkpt lat="44.0190304" lon="8.0808913"><ele>354.6</ele><time>2026-05-03T15:08:07.459Z</time></trkpt><trkpt lat="44.01909" lon="8.080979"><ele>354.4</ele><time>2026-05-03T15:08:08.46Z</time></trkpt><trkpt lat="44.0191415" lon="8.0810639"><ele>354.2</ele><time>2026-05-03T15:08:09.459Z</time></trkpt><trkpt lat="44.0191847" lon="8.0811473"><ele>354.0</ele><time>2026-05-03T15:08:10.463Z</time></trkpt><trkpt lat="44.0192525" lon="8.0812983"><ele>348.0</ele><time>2026-05-03T15:08:12.464Z</time></trkpt><trkpt lat="44.019294" lon="8.0814576"><ele>342.0</ele><time>2026-05-03T15:08:14.467Z</time></trkpt><trkpt lat="44.0193656" lon="8.0815684"><ele>336.0</ele><time>2026-05-03T15:08:16.458Z</time></trkpt><trkpt lat="44.0194561" lon="8.0816689"><ele>330.0</ele><time>2026-05-03T15:08:18.459Z</time></trkpt><trkpt lat="44.0195038" lon="8.0817415"><ele>324.0</ele><time>2026-05-03T15:08:19.462Z</time></trkpt><trkpt lat="44.0195731" lon="8.0817985"><ele>324.0</ele><time>2026-05-03T15:08:20.461Z</time></trkpt><trkpt lat="44.0196321" lon="8.0818936"><ele>324.0</ele><time>2026-05-03T15:08:22.461Z</time></trkpt><trkpt lat="44.0197061" lon="8.0820172"><ele>324.0</ele><time>2026-05-03T15:08:24.456Z</time></trkpt><trkpt lat="44.0197396" lon="8.0820928"><ele>324.0</ele><time>2026-05-03T15:08:25.458Z</time></trkpt><trkpt lat="44.0197865" lon="8.0822008"><ele>324.0</ele><time>2026-05-03T15:08:26.46Z</time></trkpt><trkpt lat="44.0198268" lon="8.082312"><ele>324.0</ele><time>2026-05-03T15:08:27.492Z</time></trkpt><trkpt lat="44.0198303" lon="8.0824014"><ele>324.0</ele><time>2026-05-03T15:08:28.458Z</time></trkpt><trkpt lat="44.0198449" lon="8.0824892"><ele>324.0</ele><time>2026-05-03T15:08:29.459Z</time></trkpt><trkpt lat="44.0198698" lon="8.0826377"><ele>324.0</ele><time>2026-05-03T15:08:31.458Z</time></trkpt><trkpt lat="44.0198848" lon="8.0827243"><ele>324.0</ele><time>2026-05-03T15:08:32.46Z</time></trkpt><trkpt lat="44.0199325" lon="8.082784"><ele>324.0</ele><time>2026-05-03T15:08:33.465Z</time></trkpt><trkpt lat="44.020002" lon="8.0829218"><ele>322.4</ele><time>2026-05-03T15:08:35.462Z</time></trkpt><trkpt lat="44.0200548" lon="8.0830145"><ele>320.79999999999995</ele><time>2026-05-03T15:08:37.46Z</time></trkpt><trkpt lat="44.0200777" lon="8.0830962"><ele>319.20000000000005</ele><time>2026-05-03T15:08:38.461Z</time></trkpt><trkpt lat="44.0200907" lon="8.0832667"><ele>317.6</ele><time>2026-05-03T15:08:40.459Z</time></trkpt><trkpt lat="44.0200724" lon="8.0833992"><ele>316.0</ele><time>2026-05-03T15:08:42.463Z</time></trkpt><trkpt lat="44.0200118" lon="8.0835122"><ele>316.0</ele><time>2026-05-03T15:08:44.463Z</time></trkpt><trkpt lat="44.0199404" lon="8.0836499"><ele>316.0</ele><time>2026-05-03T15:08:46.471Z</time></trkpt><trkpt lat="44.0199203" lon="8.0837505"><ele>316.0</ele><time>2026-05-03T15:08:47.466Z</time></trkpt><trkpt lat="44.0199306" lon="8.0838881"><ele>316.0</ele><time>2026-05-03T15:08:49.461Z</time></trkpt><trkpt lat="44.0199781" lon="8.0839794"><ele>316.0</ele><time>2026-05-03T15:08:50.461Z</time></trkpt><trkpt lat="44.0200233" lon="8.0840587"><ele>317.0</ele><time>2026-05-03T15:08:51.459Z</time></trkpt><trkpt lat="44.020075" lon="8.0841497"><ele>318.0</ele><time>2026-05-03T15:08:52.461Z</time></trkpt><trkpt lat="44.0201476" lon="8.0842074"><ele>319.0</ele><time>2026-05-03T15:08:53.458Z</time></trkpt><trkpt lat="44.0202014" lon="8.0843053"><ele>320.0</ele><time>2026-05-03T15:08:54.458Z</time></trkpt><trkpt lat="44.0202407" lon="8.0844343"><ele>321.0</ele><time>2026-05-03T15:08:56.462Z</time></trkpt><trkpt lat="44.0202393" lon="8.0845258"><ele>322.0</ele><time>2026-05-03T15:08:58.459Z</time></trkpt><trkpt lat="44.0201613" lon="8.0845728"><ele>322.0</ele><time>2026-05-03T15:09:00.463Z</time></trkpt><trkpt lat="44.0200619" lon="8.0846409"><ele>322.0</ele><time>2026-05-03T15:09:02.458Z</time></trkpt><trkpt lat="44.0199877" lon="8.084736"><ele>322.0</ele><time>2026-05-03T15:09:04.46Z</time></trkpt><trkpt lat="44.0199859" lon="8.0848779"><ele>322.0</ele><time>2026-05-03T15:09:06.461Z</time></trkpt><trkpt lat="44.019988" lon="8.0850527"><ele>322.0</ele><time>2026-05-03T15:09:08.46Z</time></trkpt><trkpt lat="44.0199775" lon="8.0852195"><ele>322.0</ele><time>2026-05-03T15:09:10.46Z</time></trkpt><trkpt lat="44.0199618" lon="8.0853211"><ele>322.0</ele><time>2026-05-03T15:09:11.458Z</time></trkpt><trkpt lat="44.0199458" lon="8.0854066"><ele>322.0</ele><time>2026-05-03T15:09:12.465Z</time></trkpt><trkpt lat="44.0199621" lon="8.0854936"><ele>322.0</ele><time>2026-05-03T15:09:13.462Z</time></trkpt><trkpt lat="44.020024" lon="8.0856306"><ele>322.0</ele><time>2026-05-03T15:09:15.463Z</time></trkpt><trkpt lat="44.0200726" lon="8.0857173"><ele>322.0</ele><time>2026-05-03T15:09:16.461Z</time></trkpt><trkpt lat="44.020093" lon="8.0858362"><ele>322.0</ele><time>2026-05-03T15:09:18.461Z</time></trkpt><trkpt lat="44.0201023" lon="8.0859383"><ele>322.0</ele><time>2026-05-03T15:09:20.46Z</time></trkpt><trkpt lat="44.0201589" lon="8.085988"><ele>322.0</ele><time>2026-05-03T15:09:23.463Z</time></trkpt><trkpt lat="44.0202174" lon="8.0860617"><ele>322.0</ele><time>2026-05-03T15:09:37.46Z</time></trkpt><trkpt lat="44.0202563" lon="8.086142"><ele>322.0</ele><time>2026-05-03T15:09:39.464Z</time></trkpt><trkpt lat="44.0203155" lon="8.086231"><ele>322.0</ele><time>2026-05-03T15:09:41.46Z</time></trkpt><trkpt lat="44.0204744" lon="8.0861885"><ele>322.0</ele><time>2026-05-03T15:09:43.46Z</time></trkpt><trkpt lat="44.0204599" lon="8.0860989"><ele>322.0</ele><time>2026-05-03T15:09:44.463Z</time></trkpt><trkpt lat="44.0205242" lon="8.0860596"><ele>322.0</ele><time>2026-05-03T15:09:45.461Z</time></trkpt><trkpt lat="44.0205884" lon="8.0860114"><ele>322.0</ele><time>2026-05-03T15:09:46.459Z</time></trkpt><trkpt lat="44.0206524" lon="8.0860355"><ele>322.0</ele><time>2026-05-03T15:09:47.459Z</time></trkpt><trkpt lat="44.020743" lon="8.0860976"><ele>322.0</ele><time>2026-05-03T15:09:49.459Z</time></trkpt><trkpt lat="44.0207687" lon="8.0861881"><ele>322.0</ele><time>2026-05-03T15:09:52.458Z</time></trkpt><trkpt lat="44.0207881" lon="8.0863019"><ele>322.0</ele><time>2026-05-03T15:10:06.461Z</time></trkpt><trkpt lat="44.0207961" lon="8.0863922"><ele>322.0</ele><time>2026-05-03T15:10:07.463Z</time></trkpt><trkpt lat="44.0207909" lon="8.0865404"><ele>322.0</ele><time>2026-05-03T15:10:09.46Z</time></trkpt><trkpt lat="44.0207636" lon="8.0866592"><ele>322.0</ele><time>2026-05-03T15:10:11.46Z</time></trkpt><trkpt lat="44.0207504" lon="8.0867702"><ele>322.0</ele><time>2026-05-03T15:10:13.461Z</time></trkpt><trkpt lat="44.0207394" lon="8.086892"><ele>322.0</ele><time>2026-05-03T15:10:15.457Z</time></trkpt><trkpt lat="44.0207197" lon="8.0870256"><ele>323.16666666666663</ele><time>2026-05-03T15:10:17.464Z</time></trkpt><trkpt lat="44.0207012" lon="8.0871317"><ele>324.3333333333333</ele><time>2026-05-03T15:10:18.467Z</time></trkpt><trkpt lat="44.0207177" lon="8.087219"><ele>325.5</ele><time>2026-05-03T15:10:19.458Z</time></trkpt><trkpt lat="44.0207101" lon="8.0873417"><ele>326.6666666666667</ele><time>2026-05-03T15:10:20.462Z</time></trkpt><trkpt lat="44.0207031" lon="8.0875273"><ele>327.83333333333337</ele><time>2026-05-03T15:10:22.46Z</time></trkpt><trkpt lat="44.0207375" lon="8.0876307"><ele>329.0</ele><time>2026-05-03T15:10:23.464Z</time></trkpt><trkpt lat="44.0207739" lon="8.0877228"><ele>329.5</ele><time>2026-05-03T15:10:24.468Z</time></trkpt><trkpt lat="44.0207767" lon="8.0878317"><ele>330.0</ele><time>2026-05-03T15:10:25.46Z</time></trkpt><trkpt lat="44.0208191" lon="8.0879168"><ele>330.5</ele><time>2026-05-03T15:10:26.46Z</time></trkpt><trkpt lat="44.0208679" lon="8.0879844"><ele>331.0</ele><time>2026-05-03T15:10:27.459Z</time></trkpt><trkpt lat="44.0209568" lon="8.0880583"><ele>331.5</ele><time>2026-05-03T15:10:29.462Z</time></trkpt><trkpt lat="44.0210236" lon="8.0880529"><ele>332.0</ele><time>2026-05-03T15:10:31.46Z</time></trkpt><trkpt lat="44.0211473" lon="8.088021"><ele>325.20000000000005</ele><time>2026-05-03T15:10:33.46Z</time></trkpt><trkpt lat="44.02125" lon="8.0880368"><ele>318.40000000000003</ele><time>2026-05-03T15:10:35.458Z</time></trkpt><trkpt lat="44.021313" lon="8.0880722"><ele>311.6</ele><time>2026-05-03T15:10:36.459Z</time></trkpt><trkpt lat="44.0213879" lon="8.0881284"><ele>304.8</ele><time>2026-05-03T15:10:38.464Z</time></trkpt><trkpt lat="44.0214694" lon="8.0882391"><ele>298.0</ele><time>2026-05-03T15:10:40.467Z</time></trkpt><trkpt lat="44.0215166" lon="8.0883734"><ele>298.0</ele><time>2026-05-03T15:10:42.464Z</time></trkpt><trkpt lat="44.0215467" lon="8.0884849"><ele>298.0</ele><time>2026-05-03T15:10:43.462Z</time></trkpt><trkpt lat="44.0215555" lon="8.0885717"><ele>298.0</ele><time>2026-05-03T15:10:44.459Z</time></trkpt><trkpt lat="44.0215765" lon="8.0886811"><ele>298.0</ele><time>2026-05-03T15:10:45.46Z</time></trkpt><trkpt lat="44.0215867" lon="8.088836"><ele>298.0</ele><time>2026-05-03T15:10:47.463Z</time></trkpt><trkpt lat="44.0216362" lon="8.0889131"><ele>298.0</ele><time>2026-05-03T15:10:49.458Z</time></trkpt><trkpt lat="44.0217067" lon="8.0889649"><ele>296.2</ele><time>2026-05-03T15:10:50.468Z</time></trkpt><trkpt lat="44.021792" lon="8.0890077"><ele>294.4</ele><time>2026-05-03T15:10:51.458Z</time></trkpt><trkpt lat="44.0218674" lon="8.0890798"><ele>292.59999999999997</ele><time>2026-05-03T15:10:53.46Z</time></trkpt><trkpt lat="44.0219088" lon="8.0892257"><ele>290.8</ele><time>2026-05-03T15:10:55.461Z</time></trkpt><trkpt lat="44.0219222" lon="8.0893363"><ele>289.0</ele><time>2026-05-03T15:10:56.461Z</time></trkpt><trkpt lat="44.0219826" lon="8.0894074"><ele>289.0</ele><time>2026-05-03T15:10:57.457Z</time></trkpt><trkpt lat="44.0220431" lon="8.0894588"><ele>289.0</ele><time>2026-05-03T15:10:58.461Z</time></trkpt><trkpt lat="44.0221099" lon="8.0894959"><ele>289.0</ele><time>2026-05-03T15:10:59.461Z</time></trkpt><trkpt lat="44.0222196" lon="8.089616"><ele>289.0</ele><time>2026-05-03T15:11:01.462Z</time></trkpt><trkpt lat="44.022271" lon="8.0896713"><ele>289.0</ele><time>2026-05-03T15:11:02.461Z</time></trkpt><trkpt lat="44.0223139" lon="8.0897381"><ele>289.0</ele><time>2026-05-03T15:11:03.465Z</time></trkpt><trkpt lat="44.0223049" lon="8.0898622"><ele>291.4</ele><time>2026-05-03T15:11:05.461Z</time></trkpt><trkpt lat="44.0222418" lon="8.0899638"><ele>293.79999999999995</ele><time>2026-05-03T15:11:07.46Z</time></trkpt><trkpt lat="44.022154" lon="8.0900521"><ele>296.20000000000005</ele><time>2026-05-03T15:11:09.463Z</time></trkpt><trkpt lat="44.0221082" lon="8.0902091"><ele>298.6</ele><time>2026-05-03T15:11:11.46Z</time></trkpt><trkpt lat="44.0221315" lon="8.090292"><ele>301.0</ele><time>2026-05-03T15:11:12.466Z</time></trkpt><trkpt lat="44.022159" lon="8.090382"><ele>301.0</ele><time>2026-05-03T15:11:13.461Z</time></trkpt><trkpt lat="44.0221808" lon="8.0904706"><ele>301.0</ele><time>2026-05-03T15:11:14.463Z</time></trkpt><trkpt lat="44.0221601" lon="8.0906209"><ele>301.0</ele><time>2026-05-03T15:11:16.466Z</time></trkpt><trkpt lat="44.0221386" lon="8.0907629"><ele>301.0</ele><time>2026-05-03T15:11:18.464Z</time></trkpt><trkpt lat="44.0221977" lon="8.0908989"><ele>301.0</ele><time>2026-05-03T15:11:20.464Z</time></trkpt><trkpt lat="44.0222841" lon="8.0910044"><ele>301.16666666666663</ele><time>2026-05-03T15:11:22.462Z</time></trkpt><trkpt lat="44.0223599" lon="8.091045"><ele>301.3333333333333</ele><time>2026-05-03T15:11:23.46Z</time></trkpt><trkpt lat="44.0224433" lon="8.0911184"><ele>301.5</ele><time>2026-05-03T15:11:24.462Z</time></trkpt><trkpt lat="44.0225179" lon="8.0911891"><ele>301.6666666666667</ele><time>2026-05-03T15:11:25.458Z</time></trkpt><trkpt lat="44.0225825" lon="8.0912561"><ele>301.83333333333337</ele><time>2026-05-03T15:11:26.457Z</time></trkpt><trkpt lat="44.0226624" lon="8.0913322"><ele>302.0</ele><time>2026-05-03T15:11:28.456Z</time></trkpt><trkpt lat="44.0227616" lon="8.0914029"><ele>298.5</ele><time>2026-05-03T15:11:30.458Z</time></trkpt><trkpt lat="44.0228213" lon="8.0914415"><ele>295.0</ele><time>2026-05-03T15:11:31.46Z</time></trkpt><trkpt lat="44.0228773" lon="8.0915092"><ele>291.5</ele><time>2026-05-03T15:11:32.461Z</time></trkpt><trkpt lat="44.0229436" lon="8.0915502"><ele>288.0</ele><time>2026-05-03T15:11:33.46Z</time></trkpt><trkpt lat="44.0229873" lon="8.091675"><ele>284.5</ele><time>2026-05-03T15:11:35.458Z</time></trkpt><trkpt lat="44.0229878" lon="8.0918185"><ele>281.0</ele><time>2026-05-03T15:11:37.465Z</time></trkpt><trkpt lat="44.0230091" lon="8.0919763"><ele>281.0</ele><time>2026-05-03T15:11:39.46Z</time></trkpt><trkpt lat="44.0230559" lon="8.092112"><ele>281.0</ele><time>2026-05-03T15:11:41.458Z</time></trkpt><trkpt lat="44.0229998" lon="8.0921923"><ele>281.0</ele><time>2026-05-03T15:11:43.46Z</time></trkpt><trkpt lat="44.0229227" lon="8.0922291"><ele>281.0</ele><time>2026-05-03T15:11:45.463Z</time></trkpt><trkpt lat="44.022854" lon="8.0922615"><ele>281.0</ele><time>2026-05-03T15:11:48.469Z</time></trkpt><trkpt lat="44.0227953" lon="8.0923039"><ele>281.0</ele><time>2026-05-03T15:11:52.46Z</time></trkpt><trkpt lat="44.0227373" lon="8.0923408"><ele>281.0</ele><time>2026-05-03T15:11:54.459Z</time></trkpt><trkpt lat="44.0226671" lon="8.0923465"><ele>281.0</ele><time>2026-05-03T15:11:56.459Z</time></trkpt><trkpt lat="44.0225785" lon="8.0923421"><ele>281.0</ele><time>2026-05-03T15:11:58.458Z</time></trkpt><trkpt lat="44.0224841" lon="8.09233"><ele>281.0</ele><time>2026-05-03T15:12:00.458Z</time></trkpt><trkpt lat="44.0223804" lon="8.0922747"><ele>281.0</ele><time>2026-05-03T15:12:02.465Z</time></trkpt><trkpt lat="44.0222739" lon="8.0922435"><ele>283.6</ele><time>2026-05-03T15:12:04.46Z</time></trkpt><trkpt lat="44.0221684" lon="8.0922681"><ele>286.20000000000005</ele><time>2026-05-03T15:12:06.458Z</time></trkpt><trkpt lat="44.0220919" lon="8.0923999"><ele>288.79999999999995</ele><time>2026-05-03T15:12:08.46Z</time></trkpt><trkpt lat="44.0220541" lon="8.0924892"><ele>291.4</ele><time>2026-05-03T15:12:09.459Z</time></trkpt><trkpt lat="44.0219884" lon="8.0926369"><ele>294.0</ele><time>2026-05-03T15:12:11.461Z</time></trkpt><trkpt lat="44.0219179" lon="8.0927064"><ele>288.59999999999997</ele><time>2026-05-03T15:12:12.463Z</time></trkpt><trkpt lat="44.0217976" lon="8.0927392"><ele>283.2</ele><time>2026-05-03T15:12:14.472Z</time></trkpt><trkpt lat="44.0216993" lon="8.0927125"><ele>277.79999999999995</ele><time>2026-05-03T15:12:16.458Z</time></trkpt><trkpt lat="44.021611" lon="8.0926508"><ele>272.4</ele><time>2026-05-03T15:12:18.46Z</time></trkpt><trkpt lat="44.021554" lon="8.0926064"><ele>267.0</ele><time>2026-05-03T15:12:19.466Z</time></trkpt><trkpt lat="44.0214965" lon="8.0925106"><ele>269.1666666666667</ele><time>2026-05-03T15:12:20.459Z</time></trkpt><trkpt lat="44.0214363" lon="8.0924097"><ele>271.3333333333333</ele><time>2026-05-03T15:12:21.464Z</time></trkpt><trkpt lat="44.0213873" lon="8.0923118"><ele>273.5</ele><time>2026-05-03T15:12:22.46Z</time></trkpt><trkpt lat="44.0213254" lon="8.0922197"><ele>275.66666666666663</ele><time>2026-05-03T15:12:23.46Z</time></trkpt><trkpt lat="44.0212632" lon="8.0921606"><ele>277.8333333333333</ele><time>2026-05-03T15:12:24.467Z</time></trkpt><trkpt lat="44.0212093" lon="8.0921025"><ele>280.0</ele><time>2026-05-03T15:12:25.458Z</time></trkpt><trkpt lat="44.0211572" lon="8.0920147"><ele>280.0</ele><time>2026-05-03T15:12:26.459Z</time></trkpt><trkpt lat="44.0210583" lon="8.0919932"><ele>280.0</ele><time>2026-05-03T15:12:28.459Z</time></trkpt><trkpt lat="44.0209382" lon="8.0920073"><ele>280.0</ele><time>2026-05-03T15:12:30.458Z</time></trkpt><trkpt lat="44.0208495" lon="8.09199"><ele>280.0</ele><time>2026-05-03T15:12:32.462Z</time></trkpt><trkpt lat="44.0207276" lon="8.0919447"><ele>280.0</ele><time>2026-05-03T15:12:34.459Z</time></trkpt><trkpt lat="44.0206451" lon="8.0919091"><ele>279.0</ele><time>2026-05-03T15:12:35.46Z</time></trkpt><trkpt lat="44.0205817" lon="8.091877"><ele>278.0</ele><time>2026-05-03T15:12:36.46Z</time></trkpt><trkpt lat="44.0205152" lon="8.0918348"><ele>277.0</ele><time>2026-05-03T15:12:37.457Z</time></trkpt><trkpt lat="44.0204458" lon="8.0918113"><ele>276.0</ele><time>2026-05-03T15:12:38.459Z</time></trkpt><trkpt lat="44.0203849" lon="8.0917622"><ele>275.0</ele><time>2026-05-03T15:12:39.466Z</time></trkpt><trkpt lat="44.0202816" lon="8.0917549"><ele>274.0</ele><time>2026-05-03T15:12:41.462Z</time></trkpt><trkpt lat="44.0201527" lon="8.0917939"><ele>274.0</ele><time>2026-05-03T15:12:43.462Z</time></trkpt><trkpt lat="44.0200479" lon="8.0918496"><ele>274.0</ele><time>2026-05-03T15:12:45.465Z</time></trkpt><trkpt lat="44.0199702" lon="8.091767"><ele>274.0</ele><time>2026-05-03T15:12:47.46Z</time></trkpt><trkpt lat="44.0199209" lon="8.0918243"><ele>274.0</ele><time>2026-05-03T15:12:51.464Z</time></trkpt><trkpt lat="44.0199141" lon="8.0919204"><ele>274.0</ele><time>2026-05-03T15:12:52.459Z</time></trkpt><trkpt lat="44.0198976" lon="8.0921118"><ele>277.16666666666663</ele><time>2026-05-03T15:12:54.46Z</time></trkpt><trkpt lat="44.0198875" lon="8.0922002"><ele>280.3333333333333</ele><time>2026-05-03T15:12:55.467Z</time></trkpt><trkpt lat="44.0198856" lon="8.0923"><ele>283.5</ele><time>2026-05-03T15:12:56.466Z</time></trkpt><trkpt lat="44.0198845" lon="8.0924068"><ele>286.6666666666667</ele><time>2026-05-03T15:12:57.465Z</time></trkpt><trkpt lat="44.0198675" lon="8.0925049"><ele>289.83333333333337</ele><time>2026-05-03T15:12:58.459Z</time></trkpt><trkpt lat="44.0198503" lon="8.0927055"><ele>293.0</ele><time>2026-05-03T15:13:00.457Z</time></trkpt><trkpt lat="44.0198341" lon="8.092831"><ele>293.0</ele><time>2026-05-03T15:13:01.459Z</time></trkpt><trkpt lat="44.0198182" lon="8.0929345"><ele>293.0</ele><time>2026-05-03T15:13:02.461Z</time></trkpt><trkpt lat="44.0198234" lon="8.0930538"><ele>293.0</ele><time>2026-05-03T15:13:03.466Z</time></trkpt><trkpt lat="44.0198189" lon="8.0931429"><ele>293.0</ele><time>2026-05-03T15:13:04.461Z</time></trkpt><trkpt lat="44.0197667" lon="8.0932584"><ele>293.0</ele><time>2026-05-03T15:13:06.457Z</time></trkpt><trkpt lat="44.0196763" lon="8.0933108"><ele>293.0</ele><time>2026-05-03T15:13:08.459Z</time></trkpt><trkpt lat="44.0196019" lon="8.0933214"><ele>290.2</ele><time>2026-05-03T15:13:09.466Z</time></trkpt><trkpt lat="44.0195024" lon="8.0933247"><ele>287.4</ele><time>2026-05-03T15:13:10.459Z</time></trkpt><trkpt lat="44.0194275" lon="8.0933098"><ele>284.59999999999997</ele><time>2026-05-03T15:13:12.46Z</time></trkpt><trkpt lat="44.0193642" lon="8.0934073"><ele>281.8</ele><time>2026-05-03T15:13:14.46Z</time></trkpt><trkpt lat="44.0193823" lon="8.0935653"><ele>279.0</ele><time>2026-05-03T15:13:16.464Z</time></trkpt><trkpt lat="44.0193946" lon="8.0937324"><ele>279.0</ele><time>2026-05-03T15:13:18.462Z</time></trkpt><trkpt lat="44.0194079" lon="8.093873"><ele>279.0</ele><time>2026-05-03T15:13:20.462Z</time></trkpt><trkpt lat="44.019319" lon="8.0940208"><ele>279.0</ele><time>2026-05-03T15:13:22.465Z</time></trkpt><trkpt lat="44.0192841" lon="8.0940943"><ele>279.0</ele><time>2026-05-03T15:13:23.462Z</time></trkpt><trkpt lat="44.0192086" lon="8.0942132"><ele>279.0</ele><time>2026-05-03T15:13:25.46Z</time></trkpt><trkpt lat="44.0191409" lon="8.0943436"><ele>284.8</ele><time>2026-05-03T15:13:27.46Z</time></trkpt><trkpt lat="44.0190707" lon="8.0944618"><ele>290.59999999999997</ele><time>2026-05-03T15:13:29.461Z</time></trkpt><trkpt lat="44.018996" lon="8.0945462"><ele>296.4</ele><time>2026-05-03T15:13:31.464Z</time></trkpt><trkpt lat="44.018937" lon="8.0946285"><ele>302.2</ele><time>2026-05-03T15:13:33.46Z</time></trkpt><trkpt lat="44.0188554" lon="8.094709"><ele>308.0</ele><time>2026-05-03T15:13:35.464Z</time></trkpt><trkpt lat="44.0187993" lon="8.0948327"><ele>305.4</ele><time>2026-05-03T15:13:37.46Z</time></trkpt><trkpt lat="44.0188528" lon="8.0949482"><ele>302.8</ele><time>2026-05-03T15:13:39.461Z</time></trkpt><trkpt lat="44.018916" lon="8.0950348"><ele>300.2</ele><time>2026-05-03T15:13:41.461Z</time></trkpt><trkpt lat="44.0189549" lon="8.0951493"><ele>297.6</ele><time>2026-05-03T15:13:43.467Z</time></trkpt><trkpt lat="44.0189544" lon="8.0952624"><ele>295.0</ele><time>2026-05-03T15:13:45.461Z</time></trkpt><trkpt lat="44.0189832" lon="8.0954166"><ele>295.0</ele><time>2026-05-03T15:13:47.462Z</time></trkpt><trkpt lat="44.019035" lon="8.0955125"><ele>295.0</ele><time>2026-05-03T15:13:48.464Z</time></trkpt><trkpt lat="44.0190905" lon="8.0956114"><ele>295.0</ele><time>2026-05-03T15:13:49.459Z</time></trkpt><trkpt lat="44.0191312" lon="8.0956861"><ele>295.0</ele><time>2026-05-03T15:13:50.461Z</time></trkpt><trkpt lat="44.0191681" lon="8.0958056"><ele>295.0</ele><time>2026-05-03T15:13:52.465Z</time></trkpt><trkpt lat="44.0192066" lon="8.0959645"><ele>289.8333333333333</ele><time>2026-05-03T15:13:54.464Z</time></trkpt><trkpt lat="44.0192401" lon="8.0960777"><ele>284.66666666666663</ele><time>2026-05-03T15:13:55.464Z</time></trkpt><trkpt lat="44.019286" lon="8.0961682"><ele>279.5</ele><time>2026-05-03T15:13:56.456Z</time></trkpt><trkpt lat="44.0193123" lon="8.0962505"><ele>274.3333333333333</ele><time>2026-05-03T15:13:57.458Z</time></trkpt><trkpt lat="44.0193744" lon="8.0963308"><ele>269.1666666666667</ele><time>2026-05-03T15:13:58.461Z</time></trkpt><trkpt lat="44.0194234" lon="8.0964045"><ele>264.0</ele><time>2026-05-03T15:13:59.465Z</time></trkpt><trkpt lat="44.0194911" lon="8.0964634"><ele>264.0</ele><time>2026-05-03T15:14:00.462Z</time></trkpt><trkpt lat="44.0195542" lon="8.0965351"><ele>264.0</ele><time>2026-05-03T15:14:01.461Z</time></trkpt><trkpt lat="44.0195955" lon="8.0966905"><ele>264.0</ele><time>2026-05-03T15:14:03.464Z</time></trkpt><trkpt lat="44.0195941" lon="8.0967872"><ele>264.0</ele><time>2026-05-03T15:14:04.462Z</time></trkpt><trkpt lat="44.0196051" lon="8.0968855"><ele>264.0</ele><time>2026-05-03T15:14:05.461Z</time></trkpt><trkpt lat="44.0195981" lon="8.0969771"><ele>264.0</ele><time>2026-05-03T15:14:06.459Z</time></trkpt><trkpt lat="44.0195507" lon="8.0971066"><ele>264.8333333333333</ele><time>2026-05-03T15:14:08.461Z</time></trkpt><trkpt lat="44.0195021" lon="8.0971671"><ele>265.6666666666667</ele><time>2026-05-03T15:14:09.464Z</time></trkpt><trkpt lat="44.0194342" lon="8.0972145"><ele>266.5</ele><time>2026-05-03T15:14:10.465Z</time></trkpt><trkpt lat="44.0193271" lon="8.0973135"><ele>267.33333333333337</ele><time>2026-05-03T15:14:12.464Z</time></trkpt><trkpt lat="44.0193018" lon="8.0974323"><ele>268.1666666666667</ele><time>2026-05-03T15:14:14.46Z</time></trkpt><trkpt lat="44.0193033" lon="8.0975261"><ele>269.0</ele><time>2026-05-03T15:14:15.465Z</time></trkpt><trkpt lat="44.0192986" lon="8.0976523"><ele>269.0</ele><time>2026-05-03T15:14:16.458Z</time></trkpt><trkpt lat="44.0192812" lon="8.0978113"><ele>269.0</ele><time>2026-05-03T15:14:18.463Z</time></trkpt><trkpt lat="44.0193058" lon="8.097951"><ele>269.0</ele><time>2026-05-03T15:14:20.461Z</time></trkpt><trkpt lat="44.0193379" lon="8.0980401"><ele>269.0</ele><time>2026-05-03T15:14:22.469Z</time></trkpt><trkpt lat="44.0194471" lon="8.0981021"><ele>269.0</ele><time>2026-05-03T15:14:24.46Z</time></trkpt><trkpt lat="44.0195017" lon="8.0981581"><ele>269.0</ele><time>2026-05-03T15:14:25.46Z</time></trkpt><trkpt lat="44.0195813" lon="8.0982197"><ele>269.0</ele><time>2026-05-03T15:14:26.46Z</time></trkpt><trkpt lat="44.0196427" lon="8.0982717"><ele>269.0</ele><time>2026-05-03T15:14:27.459Z</time></trkpt><trkpt lat="44.0197121" lon="8.0983222"><ele>269.0</ele><time>2026-05-03T15:14:28.459Z</time></trkpt><trkpt lat="44.0197851" lon="8.0983764"><ele>269.0</ele><time>2026-05-03T15:14:29.463Z</time></trkpt><trkpt lat="44.0198544" lon="8.0984423"><ele>269.0</ele><time>2026-05-03T15:14:30.463Z</time></trkpt><trkpt lat="44.0199042" lon="8.0985007"><ele>269.6666666666667</ele><time>2026-05-03T15:14:31.459Z</time></trkpt><trkpt lat="44.0199622" lon="8.098551"><ele>270.33333333333337</ele><time>2026-05-03T15:14:32.462Z</time></trkpt><trkpt lat="44.0200306" lon="8.0986576"><ele>271.0</ele><time>2026-05-03T15:14:34.458Z</time></trkpt><trkpt lat="44.0200908" lon="8.098697"><ele>271.6666666666667</ele><time>2026-05-03T15:14:35.462Z</time></trkpt><trkpt lat="44.0201591" lon="8.0987201"><ele>272.3333333333333</ele><time>2026-05-03T15:14:36.461Z</time></trkpt><trkpt lat="44.0202357" lon="8.0987021"><ele>273.0</ele><time>2026-05-03T15:14:37.462Z</time></trkpt><trkpt lat="44.0203081" lon="8.0986466"><ele>267.8</ele><time>2026-05-03T15:14:38.46Z</time></trkpt><trkpt lat="44.0203769" lon="8.0986056"><ele>262.6</ele><time>2026-05-03T15:14:39.463Z</time></trkpt><trkpt lat="44.0204485" lon="8.0985721"><ele>257.4</ele><time>2026-05-03T15:14:40.46Z</time></trkpt><trkpt lat="44.0205603" lon="8.0985475"><ele>252.2</ele><time>2026-05-03T15:14:42.458Z</time></trkpt><trkpt lat="44.0206289" lon="8.0985356"><ele>247.0</ele><time>2026-05-03T15:14:43.464Z</time></trkpt><trkpt lat="44.0207366" lon="8.0986154"><ele>246.99999999999997</ele><time>2026-05-03T15:14:45.466Z</time></trkpt><trkpt lat="44.0207713" lon="8.0987198"><ele>247.0</ele><time>2026-05-03T15:14:46.461Z</time></trkpt><trkpt lat="44.0208281" lon="8.0987593"><ele>247.0</ele><time>2026-05-03T15:14:47.462Z</time></trkpt><trkpt lat="44.0208813" lon="8.0988198"><ele>247.0</ele><time>2026-05-03T15:14:48.463Z</time></trkpt><trkpt lat="44.0209661" lon="8.0987988"><ele>246.99999999999997</ele><time>2026-05-03T15:14:49.464Z</time></trkpt><trkpt lat="44.0210375" lon="8.0987918"><ele>247.0</ele><time>2026-05-03T15:14:50.46Z</time></trkpt><trkpt lat="44.021164" lon="8.0987736"><ele>244.16666666666666</ele><time>2026-05-03T15:14:52.459Z</time></trkpt><trkpt lat="44.0212461" lon="8.0987329"><ele>241.33333333333331</ele><time>2026-05-03T15:14:53.458Z</time></trkpt><trkpt lat="44.0213157" lon="8.0987019"><ele>238.5</ele><time>2026-05-03T15:14:54.46Z</time></trkpt><trkpt lat="44.0213873" lon="8.0986775"><ele>235.66666666666669</ele><time>2026-05-03T15:14:55.456Z</time></trkpt><trkpt lat="44.021451" lon="8.098671"><ele>232.83333333333334</ele><time>2026-05-03T15:14:56.461Z</time></trkpt><trkpt lat="44.0215863" lon="8.0987571"><ele>230.0</ele><time>2026-05-03T15:14:58.463Z</time></trkpt><trkpt lat="44.0216586" lon="8.098809"><ele>228.8</ele><time>2026-05-03T15:14:59.461Z</time></trkpt><trkpt lat="44.0217671" lon="8.0988726"><ele>227.6</ele><time>2026-05-03T15:15:01.461Z</time></trkpt><trkpt lat="44.0218666" lon="8.0989256"><ele>226.39999999999998</ele><time>2026-05-03T15:15:03.461Z</time></trkpt><trkpt lat="44.0219555" lon="8.0989303"><ele>225.2</ele><time>2026-05-03T15:15:04.466Z</time></trkpt><trkpt lat="44.0220424" lon="8.0989093"><ele>224.0</ele><time>2026-05-03T15:15:05.461Z</time></trkpt><trkpt lat="44.0221248" lon="8.0988508"><ele>224.00000000000003</ele><time>2026-05-03T15:15:06.459Z</time></trkpt><trkpt lat="44.0222139" lon="8.0987941"><ele>224.0</ele><time>2026-05-03T15:15:07.466Z</time></trkpt><trkpt lat="44.0222741" lon="8.0987463"><ele>224.0</ele><time>2026-05-03T15:15:08.464Z</time></trkpt><trkpt lat="44.0223577" lon="8.0987033"><ele>224.0</ele><time>2026-05-03T15:15:09.469Z</time></trkpt><trkpt lat="44.0224443" lon="8.098652"><ele>224.00000000000003</ele><time>2026-05-03T15:15:10.46Z</time></trkpt><trkpt lat="44.0225097" lon="8.0986167"><ele>224.0</ele><time>2026-05-03T15:15:11.461Z</time></trkpt><trkpt lat="44.0225671" lon="8.0985658"><ele>223.39999999999998</ele><time>2026-05-03T15:15:12.461Z</time></trkpt><trkpt lat="44.0226279" lon="8.0985073"><ele>222.79999999999998</ele><time>2026-05-03T15:15:13.459Z</time></trkpt><trkpt lat="44.0227273" lon="8.0984361"><ele>222.20000000000002</ele><time>2026-05-03T15:15:15.461Z</time></trkpt><trkpt lat="44.0228136" lon="8.0984793"><ele>221.60000000000002</ele><time>2026-05-03T15:15:17.461Z</time></trkpt><trkpt lat="44.0228931" lon="8.0985918"><ele>221.0</ele><time>2026-05-03T15:15:19.461Z</time></trkpt><trkpt lat="44.0229425" lon="8.0987153"><ele>221.0</ele><time>2026-05-03T15:15:21.461Z</time></trkpt><trkpt lat="44.0230178" lon="8.0988619"><ele>221.00000000000003</ele><time>2026-05-03T15:15:23.461Z</time></trkpt><trkpt lat="44.0230495" lon="8.0989445"><ele>221.00000000000003</ele><time>2026-05-03T15:15:24.461Z</time></trkpt><trkpt lat="44.0231088" lon="8.0990179"><ele>221.0</ele><time>2026-05-03T15:15:25.462Z</time></trkpt><trkpt lat="44.0231627" lon="8.0990911"><ele>221.0</ele><time>2026-05-03T15:15:26.459Z</time></trkpt><trkpt lat="44.0232512" lon="8.0991993"><ele>222.50000000000003</ele><time>2026-05-03T15:15:28.459Z</time></trkpt><trkpt lat="44.0233505" lon="8.0992504"><ele>224.0</ele><time>2026-05-03T15:15:30.459Z</time></trkpt><trkpt lat="44.0234165" lon="8.0992747"><ele>225.5</ele><time>2026-05-03T15:15:31.461Z</time></trkpt><trkpt lat="44.0235011" lon="8.0992809"><ele>227.0</ele><time>2026-05-03T15:15:32.465Z</time></trkpt><trkpt lat="44.0235488" lon="8.0992025"><ele>228.50000000000003</ele><time>2026-05-03T15:15:33.458Z</time></trkpt><trkpt lat="44.0236254" lon="8.0991555"><ele>230.0</ele><time>2026-05-03T15:15:34.46Z</time></trkpt><trkpt lat="44.0237035" lon="8.099138"><ele>230.0</ele><time>2026-05-03T15:15:35.461Z</time></trkpt><trkpt lat="44.0238002" lon="8.099038"><ele>230.0</ele><time>2026-05-03T15:15:37.46Z</time></trkpt><trkpt lat="44.0238633" lon="8.0990228"><ele>230.0</ele><time>2026-05-03T15:15:38.459Z</time></trkpt><trkpt lat="44.023931" lon="8.0990373"><ele>230.0</ele><time>2026-05-03T15:15:39.462Z</time></trkpt><trkpt lat="44.0240334" lon="8.0991049"><ele>230.0</ele><time>2026-05-03T15:15:41.461Z</time></trkpt><trkpt lat="44.0240875" lon="8.099227"><ele>230.0</ele><time>2026-05-03T15:15:43.462Z</time></trkpt><trkpt lat="44.0241364" lon="8.0993032"><ele>230.0</ele><time>2026-05-03T15:15:44.46Z</time></trkpt><trkpt lat="44.0242254" lon="8.0994285"><ele>230.0</ele><time>2026-05-03T15:15:46.461Z</time></trkpt><trkpt lat="44.0243164" lon="8.0994915"><ele>230.0</ele><time>2026-05-03T15:15:48.465Z</time></trkpt><trkpt lat="44.0243888" lon="8.0995427"><ele>230.0</ele><time>2026-05-03T15:15:50.459Z</time></trkpt><trkpt lat="44.0244688" lon="8.0995855"><ele>227.50000000000003</ele><time>2026-05-03T15:15:53.459Z</time></trkpt><trkpt lat="44.0245433" lon="8.0996453"><ele>225.0</ele><time>2026-05-03T15:15:55.46Z</time></trkpt><trkpt lat="44.0245982" lon="8.0997386"><ele>222.5</ele><time>2026-05-03T15:15:57.459Z</time></trkpt><trkpt lat="44.0246816" lon="8.0998317"><ele>220.0</ele><time>2026-05-03T15:15:59.46Z</time></trkpt><trkpt lat="44.0247466" lon="8.0998804"><ele>217.50000000000003</ele><time>2026-05-03T15:16:00.461Z</time></trkpt><trkpt lat="44.02481" lon="8.0999204"><ele>215.0</ele><time>2026-05-03T15:16:01.46Z</time></trkpt><trkpt lat="44.0249212" lon="8.0999599"><ele>213.16666666666669</ele><time>2026-05-03T15:16:03.461Z</time></trkpt><trkpt lat="44.0249814" lon="8.0999856"><ele>211.33333333333334</ele><time>2026-05-03T15:16:04.46Z</time></trkpt><trkpt lat="44.0250524" lon="8.1000386"><ele>209.5</ele><time>2026-05-03T15:16:05.464Z</time></trkpt><trkpt lat="44.0251308" lon="8.1001144"><ele>207.66666666666669</ele><time>2026-05-03T15:16:06.469Z</time></trkpt><trkpt lat="44.0252012" lon="8.1001755"><ele>205.83333333333334</ele><time>2026-05-03T15:16:07.462Z</time></trkpt><trkpt lat="44.025281" lon="8.1002262"><ele>204.0</ele><time>2026-05-03T15:16:08.457Z</time></trkpt><trkpt lat="44.0253515" lon="8.1002843"><ele>204.0</ele><time>2026-05-03T15:16:09.458Z</time></trkpt><trkpt lat="44.0254216" lon="8.1003226"><ele>204.0</ele><time>2026-05-03T15:16:10.457Z</time></trkpt><trkpt lat="44.025483" lon="8.1003793"><ele>204.0</ele><time>2026-05-03T15:16:11.464Z</time></trkpt><trkpt lat="44.0255599" lon="8.1004508"><ele>204.0</ele><time>2026-05-03T15:16:12.464Z</time></trkpt><trkpt lat="44.0255987" lon="8.1005327"><ele>204.0</ele><time>2026-05-03T15:16:13.461Z</time></trkpt><trkpt lat="44.0256518" lon="8.1005874"><ele>204.0</ele><time>2026-05-03T15:16:14.461Z</time></trkpt><trkpt lat="44.0257554" lon="8.1006115"><ele>201.83333333333334</ele><time>2026-05-03T15:16:16.463Z</time></trkpt><trkpt lat="44.0258534" lon="8.1005218"><ele>199.66666666666666</ele><time>2026-05-03T15:16:18.467Z</time></trkpt><trkpt lat="44.0259013" lon="8.1004554"><ele>197.5</ele><time>2026-05-03T15:16:19.461Z</time></trkpt><trkpt lat="44.0259738" lon="8.1003351"><ele>195.33333333333331</ele><time>2026-05-03T15:16:21.465Z</time></trkpt><trkpt lat="44.0260366" lon="8.1002959"><ele>193.16666666666666</ele><time>2026-05-03T15:16:22.467Z</time></trkpt><trkpt lat="44.0260919" lon="8.1002339"><ele>191.0</ele><time>2026-05-03T15:16:23.46Z</time></trkpt><trkpt lat="44.0261424" lon="8.1001733"><ele>191.0</ele><time>2026-05-03T15:16:24.463Z</time></trkpt><trkpt lat="44.0261865" lon="8.100097"><ele>191.0</ele><time>2026-05-03T15:16:25.467Z</time></trkpt><trkpt lat="44.0262139" lon="8.1000075"><ele>191.0</ele><time>2026-05-03T15:16:26.464Z</time></trkpt><trkpt lat="44.0262804" lon="8.0998886"><ele>191.0</ele><time>2026-05-03T15:16:28.46Z</time></trkpt><trkpt lat="44.0263369" lon="8.0999546"><ele>191.0</ele><time>2026-05-03T15:16:31.462Z</time></trkpt><trkpt lat="44.0263363" lon="8.1000561"><ele>191.0</ele><time>2026-05-03T15:16:33.464Z</time></trkpt><trkpt lat="44.0262726" lon="8.1001869"><ele>191.0</ele><time>2026-05-03T15:16:35.474Z</time></trkpt><trkpt lat="44.0262381" lon="8.1002663"><ele>191.0</ele><time>2026-05-03T15:16:36.466Z</time></trkpt><trkpt lat="44.026188" lon="8.1004056"><ele>191.0</ele><time>2026-05-03T15:16:38.468Z</time></trkpt><trkpt lat="44.0261808" lon="8.100561"><ele>191.0</ele><time>2026-05-03T15:16:40.461Z</time></trkpt><trkpt lat="44.0262035" lon="8.1006529"><ele>191.0</ele><time>2026-05-03T15:16:41.459Z</time></trkpt><trkpt lat="44.0263166" lon="8.1006965"><ele>189.0</ele><time>2026-05-03T15:16:42.463Z</time></trkpt><trkpt lat="44.0263707" lon="8.1007684"><ele>187.0</ele><time>2026-05-03T15:16:43.464Z</time></trkpt><trkpt lat="44.0264311" lon="8.1008304"><ele>185.0</ele><time>2026-05-03T15:16:44.462Z</time></trkpt><trkpt lat="44.0264923" lon="8.1009085"><ele>183.0</ele><time>2026-05-03T15:16:45.464Z</time></trkpt><trkpt lat="44.0265606" lon="8.1009971"><ele>181.0</ele><time>2026-05-03T15:16:46.462Z</time></trkpt><trkpt lat="44.026614" lon="8.1010858"><ele>179.0</ele><time>2026-05-03T15:16:47.46Z</time></trkpt><trkpt lat="44.0266539" lon="8.1011555"><ele>176.0</ele><time>2026-05-03T15:16:48.468Z</time></trkpt><trkpt lat="44.0267504" lon="8.1012432"><ele>173.0</ele><time>2026-05-03T15:16:50.46Z</time></trkpt><trkpt lat="44.0268038" lon="8.1012911"><ele>170.0</ele><time>2026-05-03T15:16:51.464Z</time></trkpt><trkpt lat="44.0268632" lon="8.1013274"><ele>167.0</ele><time>2026-05-03T15:16:52.461Z</time></trkpt><trkpt lat="44.0269253" lon="8.1013681"><ele>164.0</ele><time>2026-05-03T15:16:53.464Z</time></trkpt><trkpt lat="44.0270098" lon="8.1014959"><ele>161.0</ele><time>2026-05-03T15:16:55.463Z</time></trkpt><trkpt lat="44.0270555" lon="8.1015747"><ele>160.16666666666666</ele><time>2026-05-03T15:16:56.463Z</time></trkpt><trkpt lat="44.0271346" lon="8.1016783"><ele>159.33333333333331</ele><time>2026-05-03T15:16:58.465Z</time></trkpt><trkpt lat="44.027205" lon="8.1017397"><ele>158.5</ele><time>2026-05-03T15:17:00.461Z</time></trkpt><trkpt lat="44.0272794" lon="8.1017771"><ele>157.66666666666666</ele><time>2026-05-03T15:17:02.461Z</time></trkpt><trkpt lat="44.0273287" lon="8.1018342"><ele>156.83333333333334</ele><time>2026-05-03T15:17:04.46Z</time></trkpt><trkpt lat="44.027354" lon="8.1019188"><ele>156.0</ele><time>2026-05-03T15:17:06.463Z</time></trkpt><trkpt lat="44.0273523" lon="8.1020066"><ele>156.0</ele><time>2026-05-03T15:17:08.464Z</time></trkpt><trkpt lat="44.027313" lon="8.1020802"><ele>156.0</ele><time>2026-05-03T15:17:10.459Z</time></trkpt><trkpt lat="44.0272451" lon="8.1020943"><ele>156.0</ele><time>2026-05-03T15:17:12.464Z</time></trkpt><trkpt lat="44.027183" lon="8.1020511"><ele>156.0</ele><time>2026-05-03T15:17:14.464Z</time></trkpt><trkpt lat="44.0271126" lon="8.1019944"><ele>156.0</ele><time>2026-05-03T15:17:17.461Z</time></trkpt><trkpt lat="44.027042" lon="8.1019676"><ele>156.0</ele><time>2026-05-03T15:17:19.461Z</time></trkpt><trkpt lat="44.0269319" lon="8.1018991"><ele>156.0</ele><time>2026-05-03T15:17:21.461Z</time></trkpt><trkpt lat="44.0268705" lon="8.1018791"><ele>156.0</ele><time>2026-05-03T15:17:22.463Z</time></trkpt><trkpt lat="44.0267795" lon="8.1018668"><ele>156.0</ele><time>2026-05-03T15:17:24.462Z</time></trkpt><trkpt lat="44.0266681" lon="8.1018824"><ele>156.0</ele><time>2026-05-03T15:17:26.466Z</time></trkpt><trkpt lat="44.0266141" lon="8.1019307"><ele>156.0</ele><time>2026-05-03T15:17:27.467Z</time></trkpt><trkpt lat="44.0264972" lon="8.1020205"><ele>156.66666666666666</ele><time>2026-05-03T15:17:29.462Z</time></trkpt><trkpt lat="44.0264377" lon="8.1021227"><ele>157.33333333333334</ele><time>2026-05-03T15:17:30.46Z</time></trkpt><trkpt lat="44.0263694" lon="8.1021671"><ele>158.0</ele><time>2026-05-03T15:17:31.459Z</time></trkpt><trkpt lat="44.0262644" lon="8.1022058"><ele>158.66666666666669</ele><time>2026-05-03T15:17:33.461Z</time></trkpt><trkpt lat="44.0261959" lon="8.1022499"><ele>159.33333333333334</ele><time>2026-05-03T15:17:34.461Z</time></trkpt><trkpt lat="44.0261269" lon="8.1023034"><ele>160.0</ele><time>2026-05-03T15:17:35.462Z</time></trkpt><trkpt lat="44.026062" lon="8.1023565"><ele>160.0</ele><time>2026-05-03T15:17:36.462Z</time></trkpt><trkpt lat="44.025999" lon="8.1023841"><ele>160.0</ele><time>2026-05-03T15:17:37.466Z</time></trkpt><trkpt lat="44.0259346" lon="8.1023982"><ele>160.0</ele><time>2026-05-03T15:17:38.466Z</time></trkpt><trkpt lat="44.0258139" lon="8.1024228"><ele>160.0</ele><time>2026-05-03T15:17:40.463Z</time></trkpt><trkpt lat="44.0257202" lon="8.1024621"><ele>160.0</ele><time>2026-05-03T15:17:42.464Z</time></trkpt><trkpt lat="44.0257251" lon="8.1026134"><ele>161.16666666666669</ele><time>2026-05-03T15:17:44.461Z</time></trkpt><trkpt lat="44.0257456" lon="8.1026991"><ele>162.33333333333334</ele><time>2026-05-03T15:17:45.46Z</time></trkpt><trkpt lat="44.0258073" lon="8.1027635"><ele>163.5</ele><time>2026-05-03T15:17:46.466Z</time></trkpt><trkpt lat="44.0258543" lon="8.1028262"><ele>164.66666666666666</ele><time>2026-05-03T15:17:47.464Z</time></trkpt><trkpt lat="44.0259326" lon="8.1029333"><ele>165.83333333333331</ele><time>2026-05-03T15:17:49.461Z</time></trkpt><trkpt lat="44.0259781" lon="8.1031053"><ele>167.0</ele><time>2026-05-03T15:17:51.462Z</time></trkpt><trkpt lat="44.0260194" lon="8.1031892"><ele>161.4</ele><time>2026-05-03T15:17:52.461Z</time></trkpt><trkpt lat="44.0260581" lon="8.1032813"><ele>155.79999999999998</ele><time>2026-05-03T15:17:53.46Z</time></trkpt><trkpt lat="44.0261229" lon="8.1034258"><ele>150.2</ele><time>2026-05-03T15:17:55.463Z</time></trkpt><trkpt lat="44.0262311" lon="8.1035166"><ele>144.6</ele><time>2026-05-03T15:17:57.466Z</time></trkpt><trkpt lat="44.0262954" lon="8.1035214"><ele>139.0</ele><time>2026-05-03T15:17:58.467Z</time></trkpt><trkpt lat="44.0263605" lon="8.1035287"><ele>139.0</ele><time>2026-05-03T15:17:59.462Z</time></trkpt><trkpt lat="44.0264357" lon="8.1035826"><ele>139.0</ele><time>2026-05-03T15:18:00.457Z</time></trkpt><trkpt lat="44.0264996" lon="8.1036332"><ele>139.0</ele><time>2026-05-03T15:18:01.459Z</time></trkpt><trkpt lat="44.0265471" lon="8.1036986"><ele>139.0</ele><time>2026-05-03T15:18:02.462Z</time></trkpt><trkpt lat="44.0265961" lon="8.1037588"><ele>139.0</ele><time>2026-05-03T15:18:03.461Z</time></trkpt><trkpt lat="44.0266123" lon="8.1039191"><ele>139.0</ele><time>2026-05-03T15:18:05.459Z</time></trkpt><trkpt lat="44.0266344" lon="8.1040058"><ele>134.16666666666669</ele><time>2026-05-03T15:18:06.463Z</time></trkpt><trkpt lat="44.0266817" lon="8.104099"><ele>129.33333333333334</ele><time>2026-05-03T15:18:07.464Z</time></trkpt><trkpt lat="44.026723" lon="8.1041716"><ele>124.5</ele><time>2026-05-03T15:18:08.462Z</time></trkpt><trkpt lat="44.026786" lon="8.1042932"><ele>119.66666666666666</ele><time>2026-05-03T15:18:10.461Z</time></trkpt><trkpt lat="44.0267779" lon="8.104409"><ele>114.83333333333333</ele><time>2026-05-03T15:18:12.462Z</time></trkpt><trkpt lat="44.0267364" lon="8.1044899"><ele>110.0</ele><time>2026-05-03T15:18:14.46Z</time></trkpt><trkpt lat="44.0266917" lon="8.1045535"><ele>113.2</ele><time>2026-05-03T15:18:26.462Z</time></trkpt><trkpt lat="44.0265969" lon="8.1045978"><ele>116.4</ele><time>2026-05-03T15:18:28.466Z</time></trkpt><trkpt lat="44.0265378" lon="8.1046381"><ele>119.6</ele><time>2026-05-03T15:18:29.465Z</time></trkpt><trkpt lat="44.0264822" lon="8.1046834"><ele>122.8</ele><time>2026-05-03T15:18:30.461Z</time></trkpt><trkpt lat="44.026381" lon="8.1047627"><ele>126.0</ele><time>2026-05-03T15:18:32.464Z</time></trkpt><trkpt lat="44.0262613" lon="8.1047873"><ele>126.0</ele><time>2026-05-03T15:18:34.464Z</time></trkpt><trkpt lat="44.0261859" lon="8.1047761"><ele>126.0</ele><time>2026-05-03T15:18:35.459Z</time></trkpt><trkpt lat="44.0261207" lon="8.1047539"><ele>126.0</ele><time>2026-05-03T15:18:36.465Z</time></trkpt><trkpt lat="44.0260372" lon="8.1047278"><ele>126.0</ele><time>2026-05-03T15:18:37.46Z</time></trkpt><trkpt lat="44.0259621" lon="8.1047205"><ele>126.0</ele><time>2026-05-03T15:18:38.46Z</time></trkpt><trkpt lat="44.0258915" lon="8.1047369"><ele>126.0</ele><time>2026-05-03T15:18:39.461Z</time></trkpt><trkpt lat="44.0258678" lon="8.1048318"><ele>126.0</ele><time>2026-05-03T15:18:41.46Z</time></trkpt><trkpt lat="44.0259259" lon="8.104955"><ele>121.6</ele><time>2026-05-03T15:18:44.467Z</time></trkpt><trkpt lat="44.0260623" lon="8.1050027"><ele>117.19999999999999</ele><time>2026-05-03T15:18:46.465Z</time></trkpt><trkpt lat="44.0261431" lon="8.1050137"><ele>112.80000000000001</ele><time>2026-05-03T15:18:47.458Z</time></trkpt><trkpt lat="44.0262173" lon="8.105028"><ele>108.4</ele><time>2026-05-03T15:18:48.46Z</time></trkpt><trkpt lat="44.026302" lon="8.105056"><ele>104.0</ele><time>2026-05-03T15:18:49.462Z</time></trkpt><trkpt lat="44.0264005" lon="8.1050727"><ele>103.99999999999999</ele><time>2026-05-03T15:18:50.461Z</time></trkpt><trkpt lat="44.0264769" lon="8.1050947"><ele>104.0</ele><time>2026-05-03T15:18:51.461Z</time></trkpt><trkpt lat="44.0265602" lon="8.1051351"><ele>104.0</ele><time>2026-05-03T15:18:52.463Z</time></trkpt><trkpt lat="44.0266402" lon="8.1051617"><ele>104.0</ele><time>2026-05-03T15:18:53.459Z</time></trkpt><trkpt lat="44.0267173" lon="8.1052118"><ele>103.99999999999999</ele><time>2026-05-03T15:18:54.462Z</time></trkpt><trkpt lat="44.0268112" lon="8.1052714"><ele>104.0</ele><time>2026-05-03T15:18:55.463Z</time></trkpt><trkpt lat="44.0268801" lon="8.1053134"><ele>103.14285714285714</ele><time>2026-05-03T15:18:56.459Z</time></trkpt><trkpt lat="44.0269555" lon="8.1053589"><ele>102.28571428571429</ele><time>2026-05-03T15:18:57.461Z</time></trkpt><trkpt lat="44.0270329" lon="8.1053759"><ele>101.42857142857143</ele><time>2026-05-03T15:18:58.46Z</time></trkpt><trkpt lat="44.0271109" lon="8.1053708"><ele>100.57142857142857</ele><time>2026-05-03T15:18:59.461Z</time></trkpt><trkpt lat="44.0271753" lon="8.1053714"><ele>99.71428571428572</ele><time>2026-05-03T15:19:00.463Z</time></trkpt><trkpt lat="44.0272465" lon="8.1053975"><ele>98.85714285714286</ele><time>2026-05-03T15:19:01.46Z</time></trkpt><trkpt lat="44.0273137" lon="8.1054112"><ele>98.0</ele><time>2026-05-03T15:19:02.463Z</time></trkpt><trkpt lat="44.0273867" lon="8.1054136"><ele>97.99999999999999</ele><time>2026-05-03T15:19:03.464Z</time></trkpt><trkpt lat="44.0274511" lon="8.1054212"><ele>98.0</ele><time>2026-05-03T15:19:04.465Z</time></trkpt><trkpt lat="44.0275566" lon="8.1054048"><ele>98.0</ele><time>2026-05-03T15:19:06.463Z</time></trkpt><trkpt lat="44.0276186" lon="8.1053387"><ele>98.0</ele><time>2026-05-03T15:19:08.461Z</time></trkpt><trkpt lat="44.0276394" lon="8.1052306"><ele>97.99999999999999</ele><time>2026-05-03T15:19:10.463Z</time></trkpt><trkpt lat="44.027668" lon="8.1050976"><ele>98.0</ele><time>2026-05-03T15:19:12.465Z</time></trkpt><trkpt lat="44.0276981" lon="8.1049763"><ele>97.83333333333333</ele><time>2026-05-03T15:19:14.46Z</time></trkpt><trkpt lat="44.0277229" lon="8.104878"><ele>97.66666666666666</ele><time>2026-05-03T15:19:17.462Z</time></trkpt><trkpt lat="44.0277711" lon="8.1048129"><ele>97.5</ele><time>2026-05-03T15:20:12.459Z</time></trkpt><trkpt lat="44.0278301" lon="8.104744"><ele>97.33333333333334</ele><time>2026-05-03T15:20:14.463Z</time></trkpt><trkpt lat="44.0278004" lon="8.1048674"><ele>97.16666666666667</ele><time>2026-05-03T15:20:34.459Z</time></trkpt><trkpt lat="44.0277796" lon="8.1049772"><ele>97.0</ele><time>2026-05-03T15:20:36.46Z</time></trkpt><trkpt lat="44.0278104" lon="8.1050817"><ele>95.0</ele><time>2026-05-03T15:20:38.467Z</time></trkpt><trkpt lat="44.0279093" lon="8.1051704"><ele>93.0</ele><time>2026-05-03T15:20:40.46Z</time></trkpt><trkpt lat="44.0279665" lon="8.1052187"><ele>91.0</ele><time>2026-05-03T15:20:41.461Z</time></trkpt><trkpt lat="44.0280572" lon="8.1053149"><ele>89.0</ele><time>2026-05-03T15:20:43.465Z</time></trkpt><trkpt lat="44.0280803" lon="8.1054543"><ele>87.0</ele><time>2026-05-03T15:20:45.464Z</time></trkpt><trkpt lat="44.0280297" lon="8.1055098"><ele>87.0</ele><time>2026-05-03T15:20:46.473Z</time></trkpt><trkpt lat="44.0279206" lon="8.1055764"><ele>87.0</ele><time>2026-05-03T15:20:48.462Z</time></trkpt><trkpt lat="44.0278567" lon="8.105594"><ele>87.0</ele><time>2026-05-03T15:20:49.461Z</time></trkpt><trkpt lat="44.027789" lon="8.105606"><ele>87.0</ele><time>2026-05-03T15:20:50.464Z</time></trkpt><trkpt lat="44.0276855" lon="8.1056447"><ele>87.0</ele><time>2026-05-03T15:20:52.458Z</time></trkpt><trkpt lat="44.0275851" lon="8.1056494"><ele>87.0</ele><time>2026-05-03T15:20:54.458Z</time></trkpt><trkpt lat="44.0274963" lon="8.1056857"><ele>87.0</ele><time>2026-05-03T15:20:56.462Z</time></trkpt><trkpt lat="44.0274209" lon="8.1057397"><ele>87.0</ele><time>2026-05-03T15:20:58.459Z</time></trkpt><trkpt lat="44.027448" lon="8.105825"><ele>87.0</ele><time>2026-05-03T15:20:59.459Z</time></trkpt><trkpt lat="44.0275032" lon="8.1059684"><ele>87.0</ele><time>2026-05-03T15:21:01.461Z</time></trkpt><trkpt lat="44.027596" lon="8.1060262"><ele>86.39999999999999</ele><time>2026-05-03T15:21:02.463Z</time></trkpt><trkpt lat="44.0276802" lon="8.1060965"><ele>85.8</ele><time>2026-05-03T15:21:03.459Z</time></trkpt><trkpt lat="44.0277503" lon="8.1061532"><ele>85.2</ele><time>2026-05-03T15:21:04.46Z</time></trkpt><trkpt lat="44.0278304" lon="8.10623"><ele>84.6</ele><time>2026-05-03T15:21:05.466Z</time></trkpt><trkpt lat="44.0279187" lon="8.1063067"><ele>84.0</ele><time>2026-05-03T15:21:06.46Z</time></trkpt><trkpt lat="44.0279912" lon="8.1063635"><ele>84.0</ele><time>2026-05-03T15:21:07.459Z</time></trkpt><trkpt lat="44.0280897" lon="8.1064217"><ele>84.0</ele><time>2026-05-03T15:21:09.46Z</time></trkpt><trkpt lat="44.0281477" lon="8.1064648"><ele>84.0</ele><time>2026-05-03T15:21:12.462Z</time></trkpt><trkpt lat="44.0281152" lon="8.1063758"><ele>84.0</ele><time>2026-05-03T15:21:44.462Z</time></trkpt><trkpt lat="44.0281717" lon="8.1062678"><ele>84.0</ele><time>2026-05-03T15:22:07.459Z</time></trkpt><trkpt lat="44.0282663" lon="8.1062152"><ele>84.0</ele><time>2026-05-03T15:22:11.46Z</time></trkpt><trkpt lat="44.0283135" lon="8.1060865"><ele>82.60000000000001</ele><time>2026-05-03T15:22:14.458Z</time></trkpt><trkpt lat="44.0283443" lon="8.1059741"><ele>81.2</ele><time>2026-05-03T15:22:16.458Z</time></trkpt><trkpt lat="44.0283695" lon="8.1057798"><ele>79.80000000000001</ele><time>2026-05-03T15:22:18.458Z</time></trkpt><trkpt lat="44.0283982" lon="8.1056824"><ele>78.4</ele><time>2026-05-03T15:22:19.46Z</time></trkpt><trkpt lat="44.0283922" lon="8.105525"><ele>77.0</ele><time>2026-05-03T15:22:21.46Z</time></trkpt><trkpt lat="44.0284275" lon="8.1054317"><ele>77.0</ele><time>2026-05-03T15:22:23.46Z</time></trkpt><trkpt lat="44.0284687" lon="8.1053476"><ele>77.0</ele><time>2026-05-03T15:22:26.462Z</time></trkpt><trkpt lat="44.0285554" lon="8.1053353"><ele>77.0</ele><time>2026-05-03T15:22:30.461Z</time></trkpt><trkpt lat="44.0286169" lon="8.105378"><ele>77.0</ele><time>2026-05-03T15:22:32.459Z</time></trkpt><trkpt lat="44.0286848" lon="8.1054092"><ele>77.0</ele><time>2026-05-03T15:22:34.461Z</time></trkpt><trkpt lat="44.0288148" lon="8.1054084"><ele>77.0</ele><time>2026-05-03T15:22:36.459Z</time></trkpt><trkpt lat="44.0289445" lon="8.1053177"><ele>77.0</ele><time>2026-05-03T15:22:38.458Z</time></trkpt><trkpt lat="44.0290371" lon="8.105274"><ele>77.0</ele><time>2026-05-03T15:22:40.461Z</time></trkpt><trkpt lat="44.0291159" lon="8.105228"><ele>77.0</ele><time>2026-05-03T15:22:42.459Z</time></trkpt><trkpt lat="44.0293094" lon="8.1051578"><ele>77.0</ele><time>2026-05-03T15:22:51.458Z</time></trkpt><trkpt lat="44.0294142" lon="8.1050569"><ele>76.75</ele><time>2026-05-03T15:22:53.458Z</time></trkpt><trkpt lat="44.0295617" lon="8.1049938"><ele>76.5</ele><time>2026-05-03T15:22:56.459Z</time></trkpt><trkpt lat="44.0296466" lon="8.104904"><ele>76.25</ele><time>2026-05-03T15:22:58.46Z</time></trkpt><trkpt lat="44.0297108" lon="8.1048375"><ele>76.0</ele><time>2026-05-03T15:22:59.46Z</time></trkpt><trkpt lat="44.0297895" lon="8.1047027"><ele>76.0</ele><time>2026-05-03T15:23:01.465Z</time></trkpt><trkpt lat="44.0298342" lon="8.1046325"><ele>76.0</ele><time>2026-05-03T15:23:02.462Z</time></trkpt><trkpt lat="44.0298809" lon="8.1045623"><ele>76.0</ele><time>2026-05-03T15:23:03.465Z</time></trkpt><trkpt lat="44.029926" lon="8.1044655"><ele>76.0</ele><time>2026-05-03T15:23:04.463Z</time></trkpt><trkpt lat="44.0299799" lon="8.104359"><ele>76.0</ele><time>2026-05-03T15:23:05.462Z</time></trkpt><trkpt lat="44.0300297" lon="8.1042174"><ele>76.0</ele><time>2026-05-03T15:23:06.46Z</time></trkpt><trkpt lat="44.0300875" lon="8.1040939"><ele>72.75</ele><time>2026-05-03T15:23:07.462Z</time></trkpt><trkpt lat="44.0301498" lon="8.1039545"><ele>69.5</ele><time>2026-05-03T15:23:08.463Z</time></trkpt><trkpt lat="44.0302145" lon="8.1038465"><ele>66.25</ele><time>2026-05-03T15:23:09.465Z</time></trkpt><trkpt lat="44.0302994" lon="8.1037353"><ele>63.0</ele><time>2026-05-03T15:23:10.462Z</time></trkpt><trkpt lat="44.0303796" lon="8.1036121"><ele>63.0</ele><time>2026-05-03T15:23:11.461Z</time></trkpt><trkpt lat="44.0304626" lon="8.1035009"><ele>63.0</ele><time>2026-05-03T15:23:12.467Z</time></trkpt><trkpt lat="44.0305462" lon="8.1034034"><ele>63.0</ele><time>2026-05-03T15:23:13.461Z</time></trkpt><trkpt lat="44.0306224" lon="8.1033302"><ele>63.0</ele><time>2026-05-03T15:23:14.462Z</time></trkpt><trkpt lat="44.0306846" lon="8.1032611"><ele>63.0</ele><time>2026-05-03T15:23:15.46Z</time></trkpt><trkpt lat="44.030744" lon="8.1031955"><ele>63.333333333333336</ele><time>2026-05-03T15:23:16.46Z</time></trkpt><trkpt lat="44.0307966" lon="8.1031399"><ele>63.66666666666667</ele><time>2026-05-03T15:23:17.46Z</time></trkpt><trkpt lat="44.0308362" lon="8.103025"><ele>64.0</ele><time>2026-05-03T15:23:19.459Z</time></trkpt><trkpt lat="44.030874" lon="8.1028894"><ele>64.33333333333334</ele><time>2026-05-03T15:23:21.467Z</time></trkpt><trkpt lat="44.0309014" lon="8.1028101"><ele>64.66666666666667</ele><time>2026-05-03T15:23:22.462Z</time></trkpt><trkpt lat="44.0309355" lon="8.1026957"><ele>65.0</ele><time>2026-05-03T15:23:23.468Z</time></trkpt><trkpt lat="44.0309772" lon="8.102558"><ele>63.8</ele><time>2026-05-03T15:23:24.466Z</time></trkpt><trkpt lat="44.0310245" lon="8.1023937"><ele>62.6</ele><time>2026-05-03T15:23:25.464Z</time></trkpt><trkpt lat="44.0310553" lon="8.1022158"><ele>61.400000000000006</ele><time>2026-05-03T15:23:26.461Z</time></trkpt><trkpt lat="44.0310847" lon="8.1020831"><ele>60.2</ele><time>2026-05-03T15:23:27.461Z</time></trkpt><trkpt lat="44.0310998" lon="8.101975"><ele>59.0</ele><time>2026-05-03T15:23:28.46Z</time></trkpt><trkpt lat="44.0311182" lon="8.1018756"><ele>59.0</ele><time>2026-05-03T15:23:29.459Z</time></trkpt><trkpt lat="44.0311535" lon="8.1017699"><ele>59.00000000000001</ele><time>2026-05-03T15:23:30.46Z</time></trkpt><trkpt lat="44.0312043" lon="8.1016442"><ele>59.00000000000001</ele><time>2026-05-03T15:23:31.466Z</time></trkpt><trkpt lat="44.0312513" lon="8.1015187"><ele>59.0</ele><time>2026-05-03T15:23:32.46Z</time></trkpt><trkpt lat="44.031288" lon="8.1013981"><ele>59.0</ele><time>2026-05-03T15:23:33.461Z</time></trkpt><trkpt lat="44.0313233" lon="8.1012751"><ele>59.333333333333336</ele><time>2026-05-03T15:23:34.467Z</time></trkpt><trkpt lat="44.0313675" lon="8.1011575"><ele>59.66666666666667</ele><time>2026-05-03T15:23:35.461Z</time></trkpt><trkpt lat="44.0313797" lon="8.1010516"><ele>60.0</ele><time>2026-05-03T15:23:36.46Z</time></trkpt><trkpt lat="44.031405" lon="8.1009379"><ele>60.33333333333333</ele><time>2026-05-03T15:23:37.465Z</time></trkpt><trkpt lat="44.0314361" lon="8.1008364"><ele>60.666666666666664</ele><time>2026-05-03T15:23:38.459Z</time></trkpt><trkpt lat="44.0314536" lon="8.1007342"><ele>61.0</ele><time>2026-05-03T15:23:39.461Z</time></trkpt><trkpt lat="44.0314706" lon="8.100638"><ele>61.0</ele><time>2026-05-03T15:23:40.465Z</time></trkpt><trkpt lat="44.0314726" lon="8.1004058"><ele>61.0</ele><time>2026-05-03T15:23:43.462Z</time></trkpt><trkpt lat="44.0314659" lon="8.1002641"><ele>61.0</ele><time>2026-05-03T15:23:45.461Z</time></trkpt><trkpt lat="44.031499" lon="8.1001604"><ele>61.0</ele><time>2026-05-03T15:23:47.463Z</time></trkpt><trkpt lat="44.0316093" lon="8.1002199"><ele>59.49999999999999</ele><time>2026-05-03T15:23:49.462Z</time></trkpt><trkpt lat="44.031661" lon="8.1002991"><ele>58.0</ele><time>2026-05-03T15:23:50.462Z</time></trkpt><trkpt lat="44.0316938" lon="8.1003759"><ele>56.5</ele><time>2026-05-03T15:23:51.465Z</time></trkpt><trkpt lat="44.0317566" lon="8.1004693"><ele>55.0</ele><time>2026-05-03T15:23:53.459Z</time></trkpt><trkpt lat="44.0318763" lon="8.1004837"><ele>53.49999999999999</ele><time>2026-05-03T15:23:55.467Z</time></trkpt><trkpt lat="44.0319544" lon="8.1004941"><ele>52.0</ele><time>2026-05-03T15:23:56.462Z</time></trkpt><trkpt lat="44.0320243" lon="8.1005068"><ele>52.0</ele><time>2026-05-03T15:23:57.46Z</time></trkpt><trkpt lat="44.0321363" lon="8.1005636"><ele>52.0</ele><time>2026-05-03T15:23:59.463Z</time></trkpt><trkpt lat="44.0322041" lon="8.1006713"><ele>52.0</ele><time>2026-05-03T15:24:01.46Z</time></trkpt><trkpt lat="44.0322374" lon="8.1008819"><ele>52.0</ele><time>2026-05-03T15:24:03.459Z</time></trkpt><trkpt lat="44.0322548" lon="8.1010112"><ele>51.75</ele><time>2026-05-03T15:24:04.46Z</time></trkpt><trkpt lat="44.0322656" lon="8.1011623"><ele>51.5</ele><time>2026-05-03T15:24:05.463Z</time></trkpt><trkpt lat="44.0322828" lon="8.1013227"><ele>51.25</ele><time>2026-05-03T15:24:06.464Z</time></trkpt><trkpt lat="44.0323211" lon="8.1014817"><ele>51.0</ele><time>2026-05-03T15:24:07.464Z</time></trkpt><trkpt lat="44.0323467" lon="8.1016427"><ele>51.0</ele><time>2026-05-03T15:24:08.458Z</time></trkpt><trkpt lat="44.032371" lon="8.1017795"><ele>51.0</ele><time>2026-05-03T15:24:09.461Z</time></trkpt><trkpt lat="44.0323944" lon="8.101905"><ele>51.0</ele><time>2026-05-03T15:24:10.461Z</time></trkpt><trkpt lat="44.0324154" lon="8.102002"><ele>51.0</ele><time>2026-05-03T15:24:11.462Z</time></trkpt><trkpt lat="44.0324541" lon="8.1020856"><ele>51.0</ele><time>2026-05-03T15:24:12.463Z</time></trkpt><trkpt lat="44.0325065" lon="8.1021402"><ele>51.0</ele><time>2026-05-03T15:24:13.461Z</time></trkpt><trkpt lat="44.0325747" lon="8.1021686"><ele>51.0</ele><time>2026-05-03T15:24:14.461Z</time></trkpt><trkpt lat="44.0326614" lon="8.1021651"><ele>51.0</ele><time>2026-05-03T15:24:15.46Z</time></trkpt><trkpt lat="44.0327709" lon="8.1021418"><ele>51.0</ele><time>2026-05-03T15:24:16.469Z</time></trkpt><trkpt lat="44.0328861" lon="8.1021184"><ele>51.0</ele><time>2026-05-03T15:24:17.464Z</time></trkpt><trkpt lat="44.0329845" lon="8.1021043"><ele>51.0</ele><time>2026-05-03T15:24:18.468Z</time></trkpt><trkpt lat="44.0330513" lon="8.1021163"><ele>51.0</ele><time>2026-05-03T15:24:19.463Z</time></trkpt><trkpt lat="44.0330982" lon="8.1021938"><ele>51.0</ele><time>2026-05-03T15:24:21.459Z</time></trkpt><trkpt lat="44.0330928" lon="8.1024204"><ele>51.0</ele><time>2026-05-03T15:24:23.463Z</time></trkpt><trkpt lat="44.0330711" lon="8.1025993"><ele>51.0</ele><time>2026-05-03T15:24:24.46Z</time></trkpt><trkpt lat="44.0330585" lon="8.1028325"><ele>50.66666666666667</ele><time>2026-05-03T15:24:25.463Z</time></trkpt><trkpt lat="44.0330502" lon="8.103079"><ele>50.333333333333336</ele><time>2026-05-03T15:24:26.464Z</time></trkpt><trkpt lat="44.0330427" lon="8.1033623"><ele>50.0</ele><time>2026-05-03T15:24:27.462Z</time></trkpt><trkpt lat="44.0330288" lon="8.1036786"><ele>48.5</ele><time>2026-05-03T15:24:28.465Z</time></trkpt><trkpt lat="44.0330215" lon="8.1040054"><ele>47.0</ele><time>2026-05-03T15:24:29.467Z</time></trkpt><trkpt lat="44.0330217" lon="8.1043439"><ele>47.0</ele><time>2026-05-03T15:24:30.46Z</time></trkpt><trkpt lat="44.0330345" lon="8.1046987"><ele>47.0</ele><time>2026-05-03T15:24:31.464Z</time></trkpt><trkpt lat="44.0330588" lon="8.10506"><ele>47.5</ele><time>2026-05-03T15:24:32.461Z</time></trkpt><trkpt lat="44.0330921" lon="8.1054158"><ele>48.0</ele><time>2026-05-03T15:24:33.46Z</time></trkpt><trkpt lat="44.0331178" lon="8.1057576"><ele>48.33333333333333</ele><time>2026-05-03T15:24:34.462Z</time></trkpt><trkpt lat="44.0331393" lon="8.106076"><ele>48.666666666666664</ele><time>2026-05-03T15:24:35.464Z</time></trkpt><trkpt lat="44.0331634" lon="8.1063796"><ele>49.0</ele><time>2026-05-03T15:24:36.461Z</time></trkpt><trkpt lat="44.0331825" lon="8.1066705"><ele>48.33333333333333</ele><time>2026-05-03T15:24:37.457Z</time></trkpt><trkpt lat="44.0332022" lon="8.1069355"><ele>47.666666666666664</ele><time>2026-05-03T15:24:38.458Z</time></trkpt><trkpt lat="44.0332225" lon="8.1071904"><ele>47.0</ele><time>2026-05-03T15:24:39.46Z</time></trkpt><trkpt lat="44.0332401" lon="8.1074247"><ele>47.0</ele><time>2026-05-03T15:24:40.462Z</time></trkpt><trkpt lat="44.0332544" lon="8.1076453"><ele>47.0</ele><time>2026-05-03T15:24:41.459Z</time></trkpt><trkpt lat="44.0332726" lon="8.1078355"><ele>47.0</ele><time>2026-05-03T15:24:42.465Z</time></trkpt><trkpt lat="44.0332791" lon="8.1080027"><ele>47.0</ele><time>2026-05-03T15:24:43.46Z</time></trkpt><trkpt lat="44.0332867" lon="8.1081489"><ele>46.83333333333333</ele><time>2026-05-03T15:24:44.461Z</time></trkpt><trkpt lat="44.0332803" lon="8.1082715"><ele>46.666666666666664</ele><time>2026-05-03T15:24:45.463Z</time></trkpt><trkpt lat="44.0332695" lon="8.1083776"><ele>46.5</ele><time>2026-05-03T15:24:46.461Z</time></trkpt><trkpt lat="44.0332649" lon="8.1084725"><ele>46.333333333333336</ele><time>2026-05-03T15:24:47.463Z</time></trkpt><trkpt lat="44.033273" lon="8.1085898"><ele>46.16666666666667</ele><time>2026-05-03T15:24:49.464Z</time></trkpt><trkpt lat="44.0332998" lon="8.108694"><ele>46.0</ele><time>2026-05-03T15:28:21.46Z</time></trkpt><trkpt lat="44.0333693" lon="8.1086744"><ele>46.0</ele><time>2026-05-03T15:28:25.46Z</time></trkpt><trkpt lat="44.0333557" lon="8.1085563"><ele>46.0</ele><time>2026-05-03T15:28:26.461Z</time></trkpt><trkpt lat="44.0333425" lon="8.1084555"><ele>46.0</ele><time>2026-05-03T15:28:27.463Z</time></trkpt><trkpt lat="44.0333315" lon="8.1083558"><ele>46.0</ele><time>2026-05-03T15:28:28.466Z</time></trkpt><trkpt lat="44.0333171" lon="8.1082282"><ele>46.0</ele><time>2026-05-03T15:28:29.466Z</time></trkpt><trkpt lat="44.0333075" lon="8.108082"><ele>46.0</ele><time>2026-05-03T15:28:30.469Z</time></trkpt><trkpt lat="44.0332963" lon="8.1078997"><ele>46.0</ele><time>2026-05-03T15:28:31.463Z</time></trkpt><trkpt lat="44.0332796" lon="8.1076828"><ele>46.0</ele><time>2026-05-03T15:28:32.469Z</time></trkpt><trkpt lat="44.0332691" lon="8.1074495"><ele>46.0</ele><time>2026-05-03T15:28:33.462Z</time></trkpt><trkpt lat="44.0332489" lon="8.1072092"><ele>46.0</ele><time>2026-05-03T15:28:34.46Z</time></trkpt><trkpt lat="44.0332261" lon="8.1069558"><ele>46.0</ele><time>2026-05-03T15:28:35.46Z</time></trkpt><trkpt lat="44.033203" lon="8.1066965"><ele>46.0</ele><time>2026-05-03T15:28:36.461Z</time></trkpt><trkpt lat="44.0331789" lon="8.1064241"><ele>46.66666666666667</ele><time>2026-05-03T15:28:37.466Z</time></trkpt><trkpt lat="44.0331575" lon="8.1061537"><ele>47.333333333333336</ele><time>2026-05-03T15:28:38.463Z</time></trkpt><trkpt lat="44.0331432" lon="8.1058956"><ele>48.0</ele><time>2026-05-03T15:28:39.474Z</time></trkpt><trkpt lat="44.0331195" lon="8.1056281"><ele>48.0</ele><time>2026-05-03T15:28:40.463Z</time></trkpt><trkpt lat="44.0330988" lon="8.10534"><ele>48.0</ele><time>2026-05-03T15:28:41.458Z</time></trkpt><trkpt lat="44.0330779" lon="8.1050667"><ele>48.0</ele><time>2026-05-03T15:28:42.457Z</time></trkpt><trkpt lat="44.033064" lon="8.1048078"><ele>47.666666666666664</ele><time>2026-05-03T15:28:43.459Z</time></trkpt><trkpt lat="44.0330493" lon="8.1045566"><ele>47.33333333333333</ele><time>2026-05-03T15:28:44.46Z</time></trkpt><trkpt lat="44.0330361" lon="8.104309"><ele>47.0</ele><time>2026-05-03T15:28:45.463Z</time></trkpt><trkpt lat="44.03303" lon="8.104057"><ele>47.0</ele><time>2026-05-03T15:28:46.463Z</time></trkpt><trkpt lat="44.0330282" lon="8.1038091"><ele>47.0</ele><time>2026-05-03T15:28:47.464Z</time></trkpt><trkpt lat="44.033031" lon="8.1035807"><ele>47.0</ele><time>2026-05-03T15:28:48.465Z</time></trkpt><trkpt lat="44.0330372" lon="8.1033703"><ele>47.75</ele><time>2026-05-03T15:28:49.477Z</time></trkpt><trkpt lat="44.0330468" lon="8.1031556"><ele>48.5</ele><time>2026-05-03T15:28:50.463Z</time></trkpt><trkpt lat="44.0330589" lon="8.1029505"><ele>49.25</ele><time>2026-05-03T15:28:51.458Z</time></trkpt><trkpt lat="44.0330734" lon="8.1027646"><ele>50.0</ele><time>2026-05-03T15:28:52.46Z</time></trkpt><trkpt lat="44.0330862" lon="8.1025917"><ele>50.25</ele><time>2026-05-03T15:28:53.46Z</time></trkpt><trkpt lat="44.0330962" lon="8.102414"><ele>50.5</ele><time>2026-05-03T15:28:54.46Z</time></trkpt><trkpt lat="44.0331322" lon="8.1022599"><ele>50.75</ele><time>2026-05-03T15:28:55.461Z</time></trkpt><trkpt lat="44.0331752" lon="8.1021197"><ele>51.0</ele><time>2026-05-03T15:28:56.461Z</time></trkpt><trkpt lat="44.0332447" lon="8.1020009"><ele>52.25</ele><time>2026-05-03T15:28:57.462Z</time></trkpt><trkpt lat="44.0333111" lon="8.1018746"><ele>53.5</ele><time>2026-05-03T15:28:58.46Z</time></trkpt><trkpt lat="44.0333665" lon="8.101747"><ele>54.75</ele><time>2026-05-03T15:28:59.464Z</time></trkpt><trkpt lat="44.033403" lon="8.1015992"><ele>56.0</ele><time>2026-05-03T15:29:00.459Z</time></trkpt><trkpt lat="44.0334313" lon="8.1014292"><ele>56.333333333333336</ele><time>2026-05-03T15:29:01.465Z</time></trkpt><trkpt lat="44.0334388" lon="8.1012186"><ele>56.66666666666667</ele><time>2026-05-03T15:29:02.461Z</time></trkpt><trkpt lat="44.0333761" lon="8.1009852"><ele>57.0</ele><time>2026-05-03T15:29:03.46Z</time></trkpt><trkpt lat="44.0333304" lon="8.1007911"><ele>55.75</ele><time>2026-05-03T15:29:04.462Z</time></trkpt><trkpt lat="44.0332927" lon="8.1006228"><ele>54.5</ele><time>2026-05-03T15:29:05.462Z</time></trkpt><trkpt lat="44.0332465" lon="8.100496"><ele>53.25</ele><time>2026-05-03T15:29:06.46Z</time></trkpt><trkpt lat="44.0332077" lon="8.1003295"><ele>52.0</ele><time>2026-05-03T15:29:07.463Z</time></trkpt><trkpt lat="44.0331872" lon="8.1001536"><ele>52.0</ele><time>2026-05-03T15:29:08.461Z</time></trkpt><trkpt lat="44.0331716" lon="8.0999558"><ele>52.0</ele><time>2026-05-03T15:29:09.46Z</time></trkpt><trkpt lat="44.0331818" lon="8.0997419"><ele>52.0</ele><time>2026-05-03T15:29:10.46Z</time></trkpt><trkpt lat="44.0331985" lon="8.0995091"><ele>51.666666666666664</ele><time>2026-05-03T15:29:11.46Z</time></trkpt><trkpt lat="44.0332227" lon="8.0992372"><ele>51.33333333333333</ele><time>2026-05-03T15:29:12.457Z</time></trkpt><trkpt lat="44.0332631" lon="8.0989817"><ele>51.0</ele><time>2026-05-03T15:29:13.456Z</time></trkpt><trkpt lat="44.0333019" lon="8.0987485"><ele>55.33333333333333</ele><time>2026-05-03T15:29:14.465Z</time></trkpt><trkpt lat="44.0333475" lon="8.0985388"><ele>59.666666666666664</ele><time>2026-05-03T15:29:15.46Z</time></trkpt><trkpt lat="44.0333791" lon="8.0983276"><ele>64.0</ele><time>2026-05-03T15:29:16.463Z</time></trkpt><trkpt lat="44.0334171" lon="8.098125"><ele>64.75</ele><time>2026-05-03T15:29:17.466Z</time></trkpt><trkpt lat="44.0334593" lon="8.097926"><ele>65.5</ele><time>2026-05-03T15:29:18.46Z</time></trkpt><trkpt lat="44.0334911" lon="8.097737"><ele>66.25</ele><time>2026-05-03T15:29:19.46Z</time></trkpt><trkpt lat="44.0335114" lon="8.0975486"><ele>67.0</ele><time>2026-05-03T15:29:20.458Z</time></trkpt><trkpt lat="44.0335154" lon="8.0973747"><ele>67.0</ele><time>2026-05-03T15:29:21.459Z</time></trkpt><trkpt lat="44.0335183" lon="8.0972015"><ele>67.0</ele><time>2026-05-03T15:29:22.459Z</time></trkpt><trkpt lat="44.0335184" lon="8.0970223"><ele>67.0</ele><time>2026-05-03T15:29:23.462Z</time></trkpt><trkpt lat="44.0335244" lon="8.0968636"><ele>67.0</ele><time>2026-05-03T15:29:24.459Z</time></trkpt><trkpt lat="44.0335352" lon="8.0966951"><ele>66.25</ele><time>2026-05-03T15:29:25.464Z</time></trkpt><trkpt lat="44.0335419" lon="8.0965125"><ele>65.5</ele><time>2026-05-03T15:29:26.462Z</time></trkpt><trkpt lat="44.0335471" lon="8.0963207"><ele>64.75</ele><time>2026-05-03T15:29:27.467Z</time></trkpt><trkpt lat="44.0335281" lon="8.0961214"><ele>64.0</ele><time>2026-05-03T15:29:28.461Z</time></trkpt><trkpt lat="44.033503" lon="8.0959106"><ele>65.5</ele><time>2026-05-03T15:29:29.465Z</time></trkpt><trkpt lat="44.0334804" lon="8.0957092"><ele>67.0</ele><time>2026-05-03T15:29:30.462Z</time></trkpt><trkpt lat="44.0334535" lon="8.0955208"><ele>68.5</ele><time>2026-05-03T15:29:31.458Z</time></trkpt><trkpt lat="44.0333765" lon="8.0953729"><ele>70.0</ele><time>2026-05-03T15:29:32.459Z</time></trkpt><trkpt lat="44.0333183" lon="8.0952216"><ele>69.5</ele><time>2026-05-03T15:29:33.461Z</time></trkpt><trkpt lat="44.0332779" lon="8.0950765"><ele>69.0</ele><time>2026-05-03T15:29:34.466Z</time></trkpt><trkpt lat="44.0332706" lon="8.0949078"><ele>68.5</ele><time>2026-05-03T15:29:35.463Z</time></trkpt><trkpt lat="44.0332745" lon="8.0947215"><ele>68.0</ele><time>2026-05-03T15:29:36.462Z</time></trkpt><trkpt lat="44.0332855" lon="8.0944991"><ele>70.0</ele><time>2026-05-03T15:29:37.459Z</time></trkpt><trkpt lat="44.0333118" lon="8.0942719"><ele>72.0</ele><time>2026-05-03T15:29:38.459Z</time></trkpt><trkpt lat="44.0333366" lon="8.0940475"><ele>74.0</ele><time>2026-05-03T15:29:39.46Z</time></trkpt><trkpt lat="44.0333484" lon="8.0938344"><ele>74.25</ele><time>2026-05-03T15:29:40.464Z</time></trkpt><trkpt lat="44.033369" lon="8.0936495"><ele>74.5</ele><time>2026-05-03T15:29:41.462Z</time></trkpt><trkpt lat="44.0333796" lon="8.0934603"><ele>74.75</ele><time>2026-05-03T15:29:42.461Z</time></trkpt><trkpt lat="44.0334002" lon="8.0932561"><ele>75.0</ele><time>2026-05-03T15:29:43.456Z</time></trkpt><trkpt lat="44.0334209" lon="8.0930425"><ele>75.0</ele><time>2026-05-03T15:29:44.46Z</time></trkpt><trkpt lat="44.0334357" lon="8.092817"><ele>75.0</ele><time>2026-05-03T15:29:45.459Z</time></trkpt><trkpt lat="44.0334536" lon="8.0925776"><ele>75.0</ele><time>2026-05-03T15:29:46.458Z</time></trkpt><trkpt lat="44.0334777" lon="8.0923169"><ele>74.33333333333333</ele><time>2026-05-03T15:29:47.457Z</time></trkpt><trkpt lat="44.0334993" lon="8.0920531"><ele>73.66666666666666</ele><time>2026-05-03T15:29:48.459Z</time></trkpt><trkpt lat="44.0335242" lon="8.0917934"><ele>73.0</ele><time>2026-05-03T15:29:49.459Z</time></trkpt><trkpt lat="44.0335489" lon="8.0915425"><ele>72.66666666666666</ele><time>2026-05-03T15:29:50.46Z</time></trkpt><trkpt lat="44.0335662" lon="8.091301"><ele>72.33333333333333</ele><time>2026-05-03T15:29:51.464Z</time></trkpt><trkpt lat="44.0335876" lon="8.0910541"><ele>72.0</ele><time>2026-05-03T15:29:52.464Z</time></trkpt><trkpt lat="44.0336083" lon="8.0908121"><ele>72.0</ele><time>2026-05-03T15:29:53.465Z</time></trkpt><trkpt lat="44.0336391" lon="8.0905768"><ele>72.0</ele><time>2026-05-03T15:29:54.462Z</time></trkpt><trkpt lat="44.0336645" lon="8.0903392"><ele>72.0</ele><time>2026-05-03T15:29:55.46Z</time></trkpt><trkpt lat="44.0336927" lon="8.0901033"><ele>71.66666666666667</ele><time>2026-05-03T15:29:56.465Z</time></trkpt><trkpt lat="44.0337171" lon="8.0898774"><ele>71.33333333333334</ele><time>2026-05-03T15:29:57.461Z</time></trkpt><trkpt lat="44.0337308" lon="8.0896508"><ele>71.0</ele><time>2026-05-03T15:29:58.461Z</time></trkpt><trkpt lat="44.0337399" lon="8.0894219"><ele>71.0</ele><time>2026-05-03T15:29:59.462Z</time></trkpt><trkpt lat="44.0337361" lon="8.0891843"><ele>71.0</ele><time>2026-05-03T15:30:00.461Z</time></trkpt><trkpt lat="44.0337278" lon="8.0889552"><ele>71.0</ele><time>2026-05-03T15:30:01.459Z</time></trkpt><trkpt lat="44.03371" lon="8.0887108"><ele>71.66666666666667</ele><time>2026-05-03T15:30:02.458Z</time></trkpt><trkpt lat="44.0336954" lon="8.0884668"><ele>72.33333333333333</ele><time>2026-05-03T15:30:03.461Z</time></trkpt><trkpt lat="44.0336802" lon="8.0882241"><ele>73.0</ele><time>2026-05-03T15:30:04.46Z</time></trkpt><trkpt lat="44.0336678" lon="8.0879851"><ele>73.33333333333333</ele><time>2026-05-03T15:30:05.461Z</time></trkpt><trkpt lat="44.0336502" lon="8.0877488"><ele>73.66666666666667</ele><time>2026-05-03T15:30:06.461Z</time></trkpt><trkpt lat="44.0336265" lon="8.087499"><ele>74.0</ele><time>2026-05-03T15:30:07.464Z</time></trkpt><trkpt lat="44.0336122" lon="8.0872326"><ele>74.33333333333334</ele><time>2026-05-03T15:30:08.468Z</time></trkpt><trkpt lat="44.0336085" lon="8.086954"><ele>74.66666666666667</ele><time>2026-05-03T15:30:09.462Z</time></trkpt><trkpt lat="44.0336405" lon="8.0867027"><ele>75.0</ele><time>2026-05-03T15:30:10.459Z</time></trkpt><trkpt lat="44.0336738" lon="8.0864532"><ele>76.66666666666667</ele><time>2026-05-03T15:30:11.457Z</time></trkpt><trkpt lat="44.0336999" lon="8.0862211"><ele>78.33333333333334</ele><time>2026-05-03T15:30:12.459Z</time></trkpt><trkpt lat="44.0337228" lon="8.0860055"><ele>80.0</ele><time>2026-05-03T15:30:13.459Z</time></trkpt><trkpt lat="44.0337036" lon="8.0857731"><ele>81.33333333333334</ele><time>2026-05-03T15:30:14.456Z</time></trkpt><trkpt lat="44.0336692" lon="8.0855397"><ele>82.66666666666667</ele><time>2026-05-03T15:30:15.462Z</time></trkpt><trkpt lat="44.0336179" lon="8.0853023"><ele>84.0</ele><time>2026-05-03T15:30:16.457Z</time></trkpt><trkpt lat="44.033581" lon="8.0850872"><ele>83.5</ele><time>2026-05-03T15:30:17.465Z</time></trkpt><trkpt lat="44.0335457" lon="8.0849008"><ele>83.0</ele><time>2026-05-03T15:30:18.461Z</time></trkpt><trkpt lat="44.033537" lon="8.0847165"><ele>82.5</ele><time>2026-05-03T15:30:19.46Z</time></trkpt><trkpt lat="44.0335445" lon="8.0845192"><ele>82.0</ele><time>2026-05-03T15:30:20.46Z</time></trkpt><trkpt lat="44.033581" lon="8.0843205"><ele>82.0</ele><time>2026-05-03T15:30:21.461Z</time></trkpt><trkpt lat="44.0336392" lon="8.0841305"><ele>82.0</ele><time>2026-05-03T15:30:22.464Z</time></trkpt><trkpt lat="44.033733" lon="8.0839811"><ele>82.0</ele><time>2026-05-03T15:30:23.461Z</time></trkpt><trkpt lat="44.0338464" lon="8.083841"><ele>82.0</ele><time>2026-05-03T15:30:24.462Z</time></trkpt><trkpt lat="44.0339655" lon="8.0837063"><ele>81.33333333333333</ele><time>2026-05-03T15:30:25.461Z</time></trkpt><trkpt lat="44.0340899" lon="8.0836095"><ele>80.66666666666667</ele><time>2026-05-03T15:30:26.46Z</time></trkpt><trkpt lat="44.0342302" lon="8.0835511"><ele>80.0</ele><time>2026-05-03T15:30:27.459Z</time></trkpt><trkpt lat="44.0343896" lon="8.0834857"><ele>80.0</ele><time>2026-05-03T15:30:28.46Z</time></trkpt><trkpt lat="44.0345332" lon="8.0834011"><ele>80.0</ele><time>2026-05-03T15:30:29.461Z</time></trkpt><trkpt lat="44.0346629" lon="8.0833657"><ele>80.0</ele><time>2026-05-03T15:30:30.461Z</time></trkpt><trkpt lat="44.0347755" lon="8.0833106"><ele>80.0</ele><time>2026-05-03T15:30:31.455Z</time></trkpt><trkpt lat="44.0348767" lon="8.0832395"><ele>80.25</ele><time>2026-05-03T15:30:32.465Z</time></trkpt><trkpt lat="44.0348995" lon="8.0831072"><ele>80.5</ele><time>2026-05-03T15:30:33.456Z</time></trkpt><trkpt lat="44.0349082" lon="8.0829483"><ele>80.75</ele><time>2026-05-03T15:30:34.455Z</time></trkpt><trkpt lat="44.0348984" lon="8.0827738"><ele>81.0</ele><time>2026-05-03T15:30:35.459Z</time></trkpt><trkpt lat="44.0348707" lon="8.0825891"><ele>83.0</ele><time>2026-05-03T15:30:36.459Z</time></trkpt><trkpt lat="44.0348104" lon="8.082367"><ele>85.0</ele><time>2026-05-03T15:30:37.463Z</time></trkpt><trkpt lat="44.0347442" lon="8.082119"><ele>87.0</ele><time>2026-05-03T15:30:38.46Z</time></trkpt><trkpt lat="44.0346369" lon="8.0818102"><ele>89.33333333333333</ele><time>2026-05-03T15:30:39.462Z</time></trkpt><trkpt lat="44.0345491" lon="8.0815163"><ele>91.66666666666666</ele><time>2026-05-03T15:30:40.461Z</time></trkpt><trkpt lat="44.0344432" lon="8.0812743"><ele>94.0</ele><time>2026-05-03T15:30:41.459Z</time></trkpt><trkpt lat="44.0343454" lon="8.081039"><ele>94.0</ele><time>2026-05-03T15:30:42.46Z</time></trkpt><trkpt lat="44.0342349" lon="8.080853"><ele>94.0</ele><time>2026-05-03T15:30:43.461Z</time></trkpt><trkpt lat="44.0341276" lon="8.0806911"><ele>94.0</ele><time>2026-05-03T15:30:44.459Z</time></trkpt><trkpt lat="44.0340351" lon="8.0804884"><ele>93.66666666666666</ele><time>2026-05-03T15:30:45.459Z</time></trkpt><trkpt lat="44.0339634" lon="8.0802554"><ele>93.33333333333333</ele><time>2026-05-03T15:30:46.469Z</time></trkpt><trkpt lat="44.03391" lon="8.0799994"><ele>93.0</ele><time>2026-05-03T15:30:47.463Z</time></trkpt><trkpt lat="44.033859" lon="8.0797296"><ele>93.0</ele><time>2026-05-03T15:30:48.463Z</time></trkpt><trkpt lat="44.0337926" lon="8.0794516"><ele>93.0</ele><time>2026-05-03T15:30:49.459Z</time></trkpt><trkpt lat="44.0337267" lon="8.0791794"><ele>93.0</ele><time>2026-05-03T15:30:50.464Z</time></trkpt><trkpt lat="44.0336579" lon="8.0789271"><ele>94.0</ele><time>2026-05-03T15:30:51.457Z</time></trkpt><trkpt lat="44.033605" lon="8.0787033"><ele>95.0</ele><time>2026-05-03T15:30:52.458Z</time></trkpt><trkpt lat="44.033568" lon="8.0784968"><ele>96.0</ele><time>2026-05-03T15:30:53.462Z</time></trkpt><trkpt lat="44.0335695" lon="8.0782936"><ele>95.66666666666667</ele><time>2026-05-03T15:30:54.459Z</time></trkpt><trkpt lat="44.0336043" lon="8.0780884"><ele>95.33333333333334</ele><time>2026-05-03T15:30:55.461Z</time></trkpt><trkpt lat="44.0336697" lon="8.0778748"><ele>95.0</ele><time>2026-05-03T15:30:56.459Z</time></trkpt><trkpt lat="44.0337415" lon="8.0776621"><ele>95.0</ele><time>2026-05-03T15:30:57.464Z</time></trkpt><trkpt lat="44.0337934" lon="8.0774513"><ele>95.0</ele><time>2026-05-03T15:30:58.46Z</time></trkpt><trkpt lat="44.0338585" lon="8.0772844"><ele>95.0</ele><time>2026-05-03T15:30:59.459Z</time></trkpt><trkpt lat="44.0339569" lon="8.0771514"><ele>95.0</ele><time>2026-05-03T15:31:00.462Z</time></trkpt><trkpt lat="44.0340606" lon="8.0770188"><ele>97.25</ele><time>2026-05-03T15:31:01.46Z</time></trkpt><trkpt lat="44.0341689" lon="8.0769333"><ele>99.5</ele><time>2026-05-03T15:31:02.46Z</time></trkpt><trkpt lat="44.0342987" lon="8.0768692"><ele>101.75</ele><time>2026-05-03T15:31:03.462Z</time></trkpt><trkpt lat="44.0344657" lon="8.0768347"><ele>104.0</ele><time>2026-05-03T15:31:04.461Z</time></trkpt><trkpt lat="44.0346474" lon="8.0767986"><ele>104.0</ele><time>2026-05-03T15:31:05.462Z</time></trkpt><trkpt lat="44.0348042" lon="8.0767367"><ele>104.0</ele><time>2026-05-03T15:31:06.462Z</time></trkpt><trkpt lat="44.0349431" lon="8.0766652"><ele>104.0</ele><time>2026-05-03T15:31:07.458Z</time></trkpt><trkpt lat="44.0350351" lon="8.0765215"><ele>104.0</ele><time>2026-05-03T15:31:08.462Z</time></trkpt><trkpt lat="44.0351128" lon="8.0763373"><ele>108.0</ele><time>2026-05-03T15:31:09.462Z</time></trkpt><trkpt lat="44.0351759" lon="8.0761227"><ele>112.0</ele><time>2026-05-03T15:31:10.461Z</time></trkpt><trkpt lat="44.0352589" lon="8.0759458"><ele>116.0</ele><time>2026-05-03T15:31:11.459Z</time></trkpt><trkpt lat="44.0353342" lon="8.0757794"><ele>117.25</ele><time>2026-05-03T15:31:12.459Z</time></trkpt><trkpt lat="44.0353953" lon="8.0756235"><ele>118.5</ele><time>2026-05-03T15:31:13.459Z</time></trkpt><trkpt lat="44.0354427" lon="8.0754691"><ele>119.75</ele><time>2026-05-03T15:31:14.457Z</time></trkpt><trkpt lat="44.0354459" lon="8.0752931"><ele>121.0</ele><time>2026-05-03T15:31:15.467Z</time></trkpt><trkpt lat="44.0354504" lon="8.0751424"><ele>121.0</ele><time>2026-05-03T15:31:16.458Z</time></trkpt><trkpt lat="44.0354162" lon="8.0749814"><ele>121.0</ele><time>2026-05-03T15:31:17.46Z</time></trkpt><trkpt lat="44.0353306" lon="8.0748083"><ele>121.0</ele><time>2026-05-03T15:31:18.46Z</time></trkpt><trkpt lat="44.0352104" lon="8.074607"><ele>123.75</ele><time>2026-05-03T15:31:19.462Z</time></trkpt><trkpt lat="44.0350902" lon="8.0744722"><ele>126.5</ele><time>2026-05-03T15:31:20.461Z</time></trkpt><trkpt lat="44.03499" lon="8.0744205"><ele>129.25</ele><time>2026-05-03T15:31:21.461Z</time></trkpt><trkpt lat="44.0349091" lon="8.0743144"><ele>132.0</ele><time>2026-05-03T15:31:22.462Z</time></trkpt><trkpt lat="44.0348628" lon="8.0741695"><ele>126.33333333333334</ele><time>2026-05-03T15:31:23.458Z</time></trkpt><trkpt lat="44.0348203" lon="8.0739974"><ele>120.66666666666667</ele><time>2026-05-03T15:31:24.463Z</time></trkpt><trkpt lat="44.0347976" lon="8.0737568"><ele>115.0</ele><time>2026-05-03T15:31:25.464Z</time></trkpt><trkpt lat="44.0347421" lon="8.0735475"><ele>115.0</ele><time>2026-05-03T15:31:26.459Z</time></trkpt><trkpt lat="44.0346568" lon="8.0733642"><ele>115.0</ele><time>2026-05-03T15:31:27.462Z</time></trkpt><trkpt lat="44.0345462" lon="8.0731804"><ele>115.0</ele><time>2026-05-03T15:31:28.459Z</time></trkpt><trkpt lat="44.0344166" lon="8.0730452"><ele>112.33333333333334</ele><time>2026-05-03T15:31:29.458Z</time></trkpt><trkpt lat="44.0342998" lon="8.0728998"><ele>109.66666666666666</ele><time>2026-05-03T15:31:30.462Z</time></trkpt><trkpt lat="44.0341963" lon="8.072732"><ele>107.0</ele><time>2026-05-03T15:31:31.462Z</time></trkpt><trkpt lat="44.0340994" lon="8.0725418"><ele>108.75</ele><time>2026-05-03T15:31:32.461Z</time></trkpt><trkpt lat="44.0340534" lon="8.0723093"><ele>110.5</ele><time>2026-05-03T15:31:33.46Z</time></trkpt><trkpt lat="44.0339822" lon="8.0721217"><ele>112.25</ele><time>2026-05-03T15:31:34.455Z</time></trkpt><trkpt lat="44.0339366" lon="8.0719702"><ele>114.0</ele><time>2026-05-03T15:31:35.462Z</time></trkpt><trkpt lat="44.0339468" lon="8.0718435"><ele>114.0</ele><time>2026-05-03T15:31:36.462Z</time></trkpt><trkpt lat="44.0340079" lon="8.0717537"><ele>114.0</ele><time>2026-05-03T15:31:37.463Z</time></trkpt><trkpt lat="44.0340741" lon="8.0716708"><ele>114.0</ele><time>2026-05-03T15:31:38.467Z</time></trkpt><trkpt lat="44.0341821" lon="8.0716093"><ele>114.0</ele><time>2026-05-03T15:31:39.462Z</time></trkpt><trkpt lat="44.0342539" lon="8.0714815"><ele>114.0</ele><time>2026-05-03T15:31:40.464Z</time></trkpt><trkpt lat="44.0343005" lon="8.0713233"><ele>119.5</ele><time>2026-05-03T15:31:41.459Z</time></trkpt><trkpt lat="44.0343517" lon="8.0711865"><ele>125.0</ele><time>2026-05-03T15:31:42.459Z</time></trkpt><trkpt lat="44.0344338" lon="8.0710748"><ele>130.5</ele><time>2026-05-03T15:31:43.462Z</time></trkpt><trkpt lat="44.0345514" lon="8.0709807"><ele>136.0</ele><time>2026-05-03T15:31:44.462Z</time></trkpt><trkpt lat="44.0346738" lon="8.0709175"><ele>136.0</ele><time>2026-05-03T15:31:45.463Z</time></trkpt><trkpt lat="44.034791" lon="8.07091"><ele>136.0</ele><time>2026-05-03T15:31:46.464Z</time></trkpt><trkpt lat="44.0348867" lon="8.0708344"><ele>136.0</ele><time>2026-05-03T15:31:47.463Z</time></trkpt><trkpt lat="44.0349716" lon="8.0707469"><ele>136.0</ele><time>2026-05-03T15:31:48.467Z</time></trkpt><trkpt lat="44.0349381" lon="8.0706436"><ele>136.0</ele><time>2026-05-03T15:31:49.47Z</time></trkpt><trkpt lat="44.0348879" lon="8.0704896"><ele>136.0</ele><time>2026-05-03T15:31:50.463Z</time></trkpt><trkpt lat="44.0348425" lon="8.0703723"><ele>136.0</ele><time>2026-05-03T15:31:51.46Z</time></trkpt><trkpt lat="44.0347522" lon="8.0701807"><ele>136.0</ele><time>2026-05-03T15:31:52.465Z</time></trkpt><trkpt lat="44.0346958" lon="8.0700167"><ele>136.0</ele><time>2026-05-03T15:31:53.455Z</time></trkpt><trkpt lat="44.0346627" lon="8.0698459"><ele>136.0</ele><time>2026-05-03T15:31:54.459Z</time></trkpt><trkpt lat="44.0346553" lon="8.0696641"><ele>136.0</ele><time>2026-05-03T15:31:55.463Z</time></trkpt><trkpt lat="44.0346526" lon="8.0694686"><ele>136.0</ele><time>2026-05-03T15:31:56.459Z</time></trkpt><trkpt lat="44.0346663" lon="8.0692867"><ele>136.0</ele><time>2026-05-03T15:31:57.466Z</time></trkpt><trkpt lat="44.0346799" lon="8.0690884"><ele>134.8</ele><time>2026-05-03T15:31:58.462Z</time></trkpt><trkpt lat="44.034748" lon="8.0689613"><ele>133.6</ele><time>2026-05-03T15:31:59.461Z</time></trkpt><trkpt lat="44.0348033" lon="8.0688504"><ele>132.4</ele><time>2026-05-03T15:32:00.46Z</time></trkpt><trkpt lat="44.0348795" lon="8.0687561"><ele>131.2</ele><time>2026-05-03T15:32:01.466Z</time></trkpt><trkpt lat="44.0349786" lon="8.0686882"><ele>130.0</ele><time>2026-05-03T15:32:02.457Z</time></trkpt><trkpt lat="44.0351379" lon="8.0686694"><ele>135.25</ele><time>2026-05-03T15:32:03.462Z</time></trkpt><trkpt lat="44.0352772" lon="8.06861"><ele>140.5</ele><time>2026-05-03T15:32:04.46Z</time></trkpt><trkpt lat="44.035404" lon="8.0685475"><ele>145.75</ele><time>2026-05-03T15:32:05.464Z</time></trkpt><trkpt lat="44.0355198" lon="8.0684861"><ele>151.0</ele><time>2026-05-03T15:32:06.46Z</time></trkpt><trkpt lat="44.0355978" lon="8.0683885"><ele>151.0</ele><time>2026-05-03T15:32:07.461Z</time></trkpt><trkpt lat="44.0356836" lon="8.0682998"><ele>151.0</ele><time>2026-05-03T15:32:08.466Z</time></trkpt><trkpt lat="44.0357247" lon="8.0681745"><ele>151.0</ele><time>2026-05-03T15:32:09.474Z</time></trkpt><trkpt lat="44.0357296" lon="8.0680072"><ele>151.0</ele><time>2026-05-03T15:32:10.458Z</time></trkpt><trkpt lat="44.0356811" lon="8.0677264"><ele>150.33333333333334</ele><time>2026-05-03T15:32:11.455Z</time></trkpt><trkpt lat="44.0356848" lon="8.0674962"><ele>149.66666666666666</ele><time>2026-05-03T15:32:12.461Z</time></trkpt><trkpt lat="44.0357144" lon="8.0672268"><ele>149.0</ele><time>2026-05-03T15:32:13.457Z</time></trkpt><trkpt lat="44.0357334" lon="8.0669493"><ele>150.33333333333331</ele><time>2026-05-03T15:32:14.46Z</time></trkpt><trkpt lat="44.0357558" lon="8.066677"><ele>151.66666666666666</ele><time>2026-05-03T15:32:15.461Z</time></trkpt><trkpt lat="44.0357811" lon="8.0664104"><ele>153.0</ele><time>2026-05-03T15:32:16.462Z</time></trkpt><trkpt lat="44.0358162" lon="8.0661528"><ele>162.33333333333334</ele><time>2026-05-03T15:32:17.46Z</time></trkpt><trkpt lat="44.0358482" lon="8.0659108"><ele>171.66666666666669</ele><time>2026-05-03T15:32:18.459Z</time></trkpt><trkpt lat="44.0358728" lon="8.0656639"><ele>181.0</ele><time>2026-05-03T15:32:19.461Z</time></trkpt><trkpt lat="44.0358938" lon="8.0654724"><ele>180.0</ele><time>2026-05-03T15:32:20.46Z</time></trkpt><trkpt lat="44.0358739" lon="8.0653596"><ele>179.0</ele><time>2026-05-03T15:32:21.464Z</time></trkpt><trkpt lat="44.0358087" lon="8.0652654"><ele>178.0</ele><time>2026-05-03T15:32:22.462Z</time></trkpt><trkpt lat="44.0357349" lon="8.0651989"><ele>177.0</ele><time>2026-05-03T15:32:23.464Z</time></trkpt><trkpt lat="44.0355763" lon="8.0652167"><ele>176.0</ele><time>2026-05-03T15:32:24.458Z</time></trkpt><trkpt lat="44.035435" lon="8.0652241"><ele>176.0</ele><time>2026-05-03T15:32:25.467Z</time></trkpt><trkpt lat="44.0353096" lon="8.0651924"><ele>176.0</ele><time>2026-05-03T15:32:26.46Z</time></trkpt><trkpt lat="44.0351859" lon="8.0651379"><ele>176.0</ele><time>2026-05-03T15:32:27.46Z</time></trkpt><trkpt lat="44.0350814" lon="8.0650715"><ele>176.0</ele><time>2026-05-03T15:32:28.46Z</time></trkpt><trkpt lat="44.0350155" lon="8.0649886"><ele>175.75</ele><time>2026-05-03T15:32:29.461Z</time></trkpt><trkpt lat="44.0349989" lon="8.0648825"><ele>175.5</ele><time>2026-05-03T15:32:30.463Z</time></trkpt><trkpt lat="44.0350326" lon="8.0647361"><ele>175.25</ele><time>2026-05-03T15:32:31.48Z</time></trkpt><trkpt lat="44.0351108" lon="8.0645861"><ele>175.0</ele><time>2026-05-03T15:32:32.459Z</time></trkpt><trkpt lat="44.0352085" lon="8.0644252"><ele>175.0</ele><time>2026-05-03T15:32:33.457Z</time></trkpt><trkpt lat="44.0352926" lon="8.0642596"><ele>175.0</ele><time>2026-05-03T15:32:34.456Z</time></trkpt><trkpt lat="44.0353517" lon="8.0640948"><ele>175.0</ele><time>2026-05-03T15:32:35.459Z</time></trkpt><trkpt lat="44.0353715" lon="8.0638972"><ele>175.0</ele><time>2026-05-03T15:32:36.459Z</time></trkpt><trkpt lat="44.0354049" lon="8.0636995"><ele>176.0</ele><time>2026-05-03T15:32:37.461Z</time></trkpt><trkpt lat="44.0353485" lon="8.063445"><ele>177.0</ele><time>2026-05-03T15:32:38.46Z</time></trkpt><trkpt lat="44.0353332" lon="8.0632411"><ele>178.0</ele><time>2026-05-03T15:32:39.459Z</time></trkpt><trkpt lat="44.0353324" lon="8.0630863"><ele>178.0</ele><time>2026-05-03T15:32:40.462Z</time></trkpt><trkpt lat="44.0353004" lon="8.0629532"><ele>178.0</ele><time>2026-05-03T15:32:41.463Z</time></trkpt><trkpt lat="44.0353618" lon="8.0630071"><ele>178.0</ele><time>2026-05-03T15:32:45.458Z</time></trkpt><trkpt lat="44.0353767" lon="8.0631567"><ele>178.0</ele><time>2026-05-03T15:32:46.464Z</time></trkpt><trkpt lat="44.0354041" lon="8.0632882"><ele>178.0</ele><time>2026-05-03T15:32:47.458Z</time></trkpt><trkpt lat="44.0354422" lon="8.0634351"><ele>178.0</ele><time>2026-05-03T15:32:48.459Z</time></trkpt><trkpt lat="44.035501" lon="8.0635788"><ele>178.0</ele><time>2026-05-03T15:32:49.46Z</time></trkpt><trkpt lat="44.0355657" lon="8.0636791"><ele>178.0</ele><time>2026-05-03T15:32:50.459Z</time></trkpt><trkpt lat="44.0355781" lon="8.0638076"><ele>178.0</ele><time>2026-05-03T15:32:51.46Z</time></trkpt><trkpt lat="44.035574" lon="8.0639706"><ele>178.0</ele><time>2026-05-03T15:32:52.462Z</time></trkpt><trkpt lat="44.0355464" lon="8.0641446"><ele>177.5</ele><time>2026-05-03T15:32:53.457Z</time></trkpt><trkpt lat="44.0355214" lon="8.0642997"><ele>177.0</ele><time>2026-05-03T15:32:54.463Z</time></trkpt><trkpt lat="44.0355097" lon="8.064429"><ele>176.5</ele><time>2026-05-03T15:32:55.459Z</time></trkpt><trkpt lat="44.0354871" lon="8.0645517"><ele>176.0</ele><time>2026-05-03T15:32:56.464Z</time></trkpt><trkpt lat="44.0354716" lon="8.0646498"><ele>175.5</ele><time>2026-05-03T15:32:57.46Z</time></trkpt><trkpt lat="44.0354738" lon="8.0647399"><ele>175.0</ele><time>2026-05-03T15:32:58.459Z</time></trkpt><trkpt lat="44.0355523" lon="8.0648107"><ele>175.0</ele><time>2026-05-03T15:33:00.46Z</time></trkpt><trkpt lat="44.0357067" lon="8.0647497"><ele>175.0</ele><time>2026-05-03T15:33:02.462Z</time></trkpt><trkpt lat="44.0358027" lon="8.0647183"><ele>175.0</ele><time>2026-05-03T15:33:03.463Z</time></trkpt><trkpt lat="44.0358929" lon="8.0647"><ele>175.0</ele><time>2026-05-03T15:33:04.464Z</time></trkpt><trkpt lat="44.0360001" lon="8.0647196"><ele>178.0</ele><time>2026-05-03T15:33:05.465Z</time></trkpt><trkpt lat="44.0361048" lon="8.0647558"><ele>181.0</ele><time>2026-05-03T15:33:06.458Z</time></trkpt><trkpt lat="44.0362061" lon="8.0647754"><ele>184.0</ele><time>2026-05-03T15:33:07.462Z</time></trkpt><trkpt lat="44.0362945" lon="8.0648158"><ele>187.0</ele><time>2026-05-03T15:33:08.458Z</time></trkpt><trkpt lat="44.0363654" lon="8.064868"><ele>189.99999999999997</ele><time>2026-05-03T15:33:09.459Z</time></trkpt><trkpt lat="44.0364103" lon="8.064933"><ele>193.0</ele><time>2026-05-03T15:33:10.464Z</time></trkpt><trkpt lat="44.0364117" lon="8.0651238"><ele>193.0</ele><time>2026-05-03T15:33:12.458Z</time></trkpt><trkpt lat="44.0363818" lon="8.0652454"><ele>193.0</ele><time>2026-05-03T15:33:13.46Z</time></trkpt><trkpt lat="44.0363585" lon="8.0653961"><ele>193.0</ele><time>2026-05-03T15:33:14.46Z</time></trkpt><trkpt lat="44.036351" lon="8.0655658"><ele>193.0</ele><time>2026-05-03T15:33:15.462Z</time></trkpt><trkpt lat="44.0363323" lon="8.065711"><ele>193.0</ele><time>2026-05-03T15:33:16.462Z</time></trkpt><trkpt lat="44.0363414" lon="8.0658493"><ele>190.0</ele><time>2026-05-03T15:33:17.466Z</time></trkpt><trkpt lat="44.0363898" lon="8.066"><ele>187.0</ele><time>2026-05-03T15:33:18.46Z</time></trkpt><trkpt lat="44.036428" lon="8.0661558"><ele>184.0</ele><time>2026-05-03T15:33:19.461Z</time></trkpt><trkpt lat="44.036476" lon="8.0663244"><ele>181.0</ele><time>2026-05-03T15:33:20.46Z</time></trkpt><trkpt lat="44.036512" lon="8.0665082"><ele>179.5</ele><time>2026-05-03T15:33:21.458Z</time></trkpt><trkpt lat="44.0365428" lon="8.0666793"><ele>178.0</ele><time>2026-05-03T15:33:22.463Z</time></trkpt><trkpt lat="44.0365852" lon="8.0668503"><ele>176.5</ele><time>2026-05-03T15:33:23.461Z</time></trkpt><trkpt lat="44.036619" lon="8.0669973"><ele>175.0</ele><time>2026-05-03T15:33:24.46Z</time></trkpt><trkpt lat="44.0366274" lon="8.0671299"><ele>175.0</ele><time>2026-05-03T15:33:25.463Z</time></trkpt><trkpt lat="44.0366021" lon="8.0672532"><ele>175.0</ele><time>2026-05-03T15:33:26.463Z</time></trkpt><trkpt lat="44.0365713" lon="8.0673543"><ele>175.0</ele><time>2026-05-03T15:33:27.463Z</time></trkpt><trkpt lat="44.0365453" lon="8.0674593"><ele>175.0</ele><time>2026-05-03T15:33:28.463Z</time></trkpt><trkpt lat="44.0365325" lon="8.0675745"><ele>175.0</ele><time>2026-05-03T15:33:29.458Z</time></trkpt><trkpt lat="44.0365666" lon="8.0677321"><ele>174.5</ele><time>2026-05-03T15:33:30.459Z</time></trkpt><trkpt lat="44.0366199" lon="8.0678721"><ele>174.0</ele><time>2026-05-03T15:33:31.458Z</time></trkpt><trkpt lat="44.036674" lon="8.06801"><ele>173.5</ele><time>2026-05-03T15:33:32.458Z</time></trkpt><trkpt lat="44.0367307" lon="8.0681714"><ele>173.0</ele><time>2026-05-03T15:33:33.456Z</time></trkpt><trkpt lat="44.0367777" lon="8.0683361"><ele>181.5</ele><time>2026-05-03T15:33:34.457Z</time></trkpt><trkpt lat="44.0368365" lon="8.0684928"><ele>190.0</ele><time>2026-05-03T15:33:35.461Z</time></trkpt><trkpt lat="44.0368895" lon="8.0686754"><ele>198.5</ele><time>2026-05-03T15:33:36.46Z</time></trkpt><trkpt lat="44.0369383" lon="8.0688455"><ele>207.0</ele><time>2026-05-03T15:33:37.461Z</time></trkpt><trkpt lat="44.0369832" lon="8.0689879"><ele>206.6</ele><time>2026-05-03T15:33:38.458Z</time></trkpt><trkpt lat="44.0370208" lon="8.0691204"><ele>206.2</ele><time>2026-05-03T15:33:39.46Z</time></trkpt><trkpt lat="44.0370542" lon="8.069241"><ele>205.8</ele><time>2026-05-03T15:33:40.46Z</time></trkpt><trkpt lat="44.0370737" lon="8.0693411"><ele>205.4</ele><time>2026-05-03T15:33:41.463Z</time></trkpt><trkpt lat="44.0371181" lon="8.0694614"><ele>205.0</ele><time>2026-05-03T15:33:43.466Z</time></trkpt><trkpt lat="44.0371984" lon="8.0694216"><ele>205.0</ele><time>2026-05-03T15:33:45.462Z</time></trkpt><trkpt lat="44.03719" lon="8.069245"><ele>205.0</ele><time>2026-05-03T15:33:47.467Z</time></trkpt><trkpt lat="44.0371684" lon="8.0691348"><ele>205.0</ele><time>2026-05-03T15:33:48.459Z</time></trkpt><trkpt lat="44.0371571" lon="8.0690275"><ele>205.0</ele><time>2026-05-03T15:33:49.461Z</time></trkpt><trkpt lat="44.0371324" lon="8.0688956"><ele>205.0</ele><time>2026-05-03T15:33:50.458Z</time></trkpt><trkpt lat="44.0371271" lon="8.0687692"><ele>205.4</ele><time>2026-05-03T15:33:51.458Z</time></trkpt><trkpt lat="44.0371262" lon="8.0686329"><ele>205.8</ele><time>2026-05-03T15:33:52.463Z</time></trkpt><trkpt lat="44.0371258" lon="8.0684889"><ele>206.2</ele><time>2026-05-03T15:33:53.466Z</time></trkpt><trkpt lat="44.0371255" lon="8.0683548"><ele>206.6</ele><time>2026-05-03T15:33:54.461Z</time></trkpt><trkpt lat="44.0371106" lon="8.0682187"><ele>207.0</ele><time>2026-05-03T15:33:55.463Z</time></trkpt><trkpt lat="44.0370883" lon="8.0681044"><ele>207.83333333333334</ele><time>2026-05-03T15:33:56.462Z</time></trkpt><trkpt lat="44.0370471" lon="8.0680145"><ele>208.66666666666669</ele><time>2026-05-03T15:33:57.467Z</time></trkpt><trkpt lat="44.0370116" lon="8.0679344"><ele>209.5</ele><time>2026-05-03T15:33:58.46Z</time></trkpt><trkpt lat="44.0369775" lon="8.0678096"><ele>210.33333333333334</ele><time>2026-05-03T15:34:00.462Z</time></trkpt><trkpt lat="44.0369935" lon="8.0676828"><ele>211.16666666666669</ele><time>2026-05-03T15:34:03.466Z</time></trkpt><trkpt lat="44.0370179" lon="8.0675419"><ele>212.0</ele><time>2026-05-03T15:34:05.458Z</time></trkpt><trkpt lat="44.0370572" lon="8.0673855"><ele>213.00000000000003</ele><time>2026-05-03T15:34:07.461Z</time></trkpt><trkpt lat="44.0370756" lon="8.0672982"><ele>214.0</ele><time>2026-05-03T15:34:08.46Z</time></trkpt><trkpt lat="44.0370862" lon="8.0672117"><ele>215.0</ele><time>2026-05-03T15:34:09.46Z</time></trkpt><trkpt lat="44.03709" lon="8.0670426"><ele>216.0</ele><time>2026-05-03T15:34:11.456Z</time></trkpt><trkpt lat="44.0370701" lon="8.0669459"><ele>217.00000000000003</ele><time>2026-05-03T15:34:12.458Z</time></trkpt><trkpt lat="44.0370693" lon="8.0668429"><ele>218.0</ele><time>2026-05-03T15:34:13.454Z</time></trkpt><trkpt lat="44.0370486" lon="8.0667379"><ele>218.00000000000003</ele><time>2026-05-03T15:34:14.46Z</time></trkpt><trkpt lat="44.0370449" lon="8.0666423"><ele>218.0</ele><time>2026-05-03T15:34:15.458Z</time></trkpt><trkpt lat="44.037048" lon="8.0665269"><ele>218.0</ele><time>2026-05-03T15:34:16.457Z</time></trkpt><trkpt lat="44.0370544" lon="8.0664131"><ele>218.0</ele><time>2026-05-03T15:34:17.458Z</time></trkpt><trkpt lat="44.0370647" lon="8.0662981"><ele>218.00000000000003</ele><time>2026-05-03T15:34:18.458Z</time></trkpt><trkpt lat="44.0370657" lon="8.066194"><ele>218.0</ele><time>2026-05-03T15:34:19.459Z</time></trkpt><trkpt lat="44.0370647" lon="8.0660799"><ele>218.2</ele><time>2026-05-03T15:34:20.464Z</time></trkpt><trkpt lat="44.0370973" lon="8.0659575"><ele>218.4</ele><time>2026-05-03T15:34:22.463Z</time></trkpt><trkpt lat="44.037147" lon="8.0658495"><ele>218.59999999999997</ele><time>2026-05-03T15:34:24.46Z</time></trkpt><trkpt lat="44.0372367" lon="8.06579"><ele>218.79999999999998</ele><time>2026-05-03T15:34:26.459Z</time></trkpt><trkpt lat="44.0373667" lon="8.0657815"><ele>219.0</ele><time>2026-05-03T15:34:28.46Z</time></trkpt><trkpt lat="44.0374363" lon="8.0657688"><ele>222.0</ele><time>2026-05-03T15:34:29.46Z</time></trkpt><trkpt lat="44.0375004" lon="8.0657585"><ele>225.0</ele><time>2026-05-03T15:34:30.463Z</time></trkpt><trkpt lat="44.0375816" lon="8.0657272"><ele>228.0</ele><time>2026-05-03T15:34:32.456Z</time></trkpt><trkpt lat="44.0376536" lon="8.0656979"><ele>231.0</ele><time>2026-05-03T15:34:35.461Z</time></trkpt><trkpt lat="44.037712" lon="8.0656154"><ele>234.0</ele><time>2026-05-03T15:34:49.458Z</time></trkpt><trkpt lat="44.0377735" lon="8.0655074"><ele>237.0</ele><time>2026-05-03T15:34:51.461Z</time></trkpt><trkpt lat="44.0378087" lon="8.0653499"><ele>237.0</ele><time>2026-05-03T15:34:53.458Z</time></trkpt><trkpt lat="44.0378109" lon="8.0651778"><ele>237.0</ele><time>2026-05-03T15:34:55.458Z</time></trkpt><trkpt lat="44.0378413" lon="8.0650136"><ele>237.0</ele><time>2026-05-03T15:34:57.469Z</time></trkpt><trkpt lat="44.0379038" lon="8.0648751"><ele>237.0</ele><time>2026-05-03T15:34:59.464Z</time></trkpt><trkpt lat="44.037939" lon="8.0647817"><ele>237.0</ele><time>2026-05-03T15:35:01.458Z</time></trkpt><trkpt lat="44.0378675" lon="8.0646669"><ele>239.16666666666666</ele><time>2026-05-03T15:35:04.459Z</time></trkpt><trkpt lat="44.0377903" lon="8.0645408"><ele>241.33333333333331</ele><time>2026-05-03T15:35:06.463Z</time></trkpt><trkpt lat="44.0377422" lon="8.0644588"><ele>243.5</ele><time>2026-05-03T15:35:07.463Z</time></trkpt><trkpt lat="44.0376922" lon="8.0643613"><ele>245.66666666666666</ele><time>2026-05-03T15:35:08.463Z</time></trkpt><trkpt lat="44.0376369" lon="8.0642729"><ele>247.83333333333331</ele><time>2026-05-03T15:35:09.459Z</time></trkpt><trkpt lat="44.0375917" lon="8.0641946"><ele>250.0</ele><time>2026-05-03T15:35:10.465Z</time></trkpt><trkpt lat="44.0375524" lon="8.0641228"><ele>248.66666666666666</ele><time>2026-05-03T15:35:11.459Z</time></trkpt><trkpt lat="44.0374981" lon="8.0640452"><ele>247.33333333333331</ele><time>2026-05-03T15:35:12.459Z</time></trkpt><trkpt lat="44.0374475" lon="8.0639747"><ele>246.0</ele><time>2026-05-03T15:35:13.457Z</time></trkpt><trkpt lat="44.0374066" lon="8.063907"><ele>244.66666666666669</ele><time>2026-05-03T15:35:14.457Z</time></trkpt><trkpt lat="44.0373492" lon="8.0638495"><ele>243.33333333333334</ele><time>2026-05-03T15:35:15.458Z</time></trkpt><trkpt lat="44.037267" lon="8.0637161"><ele>242.0</ele><time>2026-05-03T15:35:17.461Z</time></trkpt><trkpt lat="44.0372363" lon="8.0636314"><ele>242.0</ele><time>2026-05-03T15:35:18.459Z</time></trkpt><trkpt lat="44.0372277" lon="8.0635419"><ele>242.0</ele><time>2026-05-03T15:35:19.463Z</time></trkpt><trkpt lat="44.0371811" lon="8.0633958"><ele>242.0</ele><time>2026-05-03T15:35:21.462Z</time></trkpt><trkpt lat="44.0371243" lon="8.0633369"><ele>242.0</ele><time>2026-05-03T15:35:22.459Z</time></trkpt><trkpt lat="44.0370327" lon="8.0632476"><ele>242.0</ele><time>2026-05-03T15:35:24.461Z</time></trkpt><trkpt lat="44.0369524" lon="8.0631256"><ele>243.8</ele><time>2026-05-03T15:35:26.459Z</time></trkpt><trkpt lat="44.0369307" lon="8.0629891"><ele>245.6</ele><time>2026-05-03T15:35:28.46Z</time></trkpt><trkpt lat="44.0369315" lon="8.0628983"><ele>247.40000000000003</ele><time>2026-05-03T15:35:29.467Z</time></trkpt><trkpt lat="44.0369537" lon="8.0627307"><ele>249.20000000000002</ele><time>2026-05-03T15:35:31.461Z</time></trkpt><trkpt lat="44.0369347" lon="8.062556"><ele>251.0</ele><time>2026-05-03T15:35:33.461Z</time></trkpt><trkpt lat="44.0369154" lon="8.0624561"><ele>253.16666666666669</ele><time>2026-05-03T15:35:34.458Z</time></trkpt><trkpt lat="44.036906" lon="8.062354"><ele>255.33333333333334</ele><time>2026-05-03T15:35:35.459Z</time></trkpt><trkpt lat="44.0368872" lon="8.0621969"><ele>257.5</ele><time>2026-05-03T15:35:37.464Z</time></trkpt><trkpt lat="44.0368345" lon="8.0621321"><ele>259.6666666666667</ele><time>2026-05-03T15:35:38.459Z</time></trkpt><trkpt lat="44.0367849" lon="8.0620484"><ele>261.8333333333333</ele><time>2026-05-03T15:35:39.466Z</time></trkpt><trkpt lat="44.0367428" lon="8.0619446"><ele>264.0</ele><time>2026-05-03T15:35:40.459Z</time></trkpt><trkpt lat="44.0366844" lon="8.0618336"><ele>264.0</ele><time>2026-05-03T15:35:41.458Z</time></trkpt><trkpt lat="44.0366416" lon="8.0617401"><ele>264.0</ele><time>2026-05-03T15:35:42.458Z</time></trkpt><trkpt lat="44.0365941" lon="8.0616797"><ele>264.0</ele><time>2026-05-03T15:35:43.459Z</time></trkpt><trkpt lat="44.0365168" lon="8.0615568"><ele>264.0</ele><time>2026-05-03T15:35:45.462Z</time></trkpt><trkpt lat="44.0365106" lon="8.0613956"><ele>264.0</ele><time>2026-05-03T15:35:47.464Z</time></trkpt><trkpt lat="44.0365113" lon="8.0612964"><ele>264.0</ele><time>2026-05-03T15:35:48.459Z</time></trkpt><trkpt lat="44.0365331" lon="8.061184"><ele>264.5</ele><time>2026-05-03T15:35:49.459Z</time></trkpt><trkpt lat="44.0365782" lon="8.0610407"><ele>265.0</ele><time>2026-05-03T15:35:50.464Z</time></trkpt><trkpt lat="44.0366107" lon="8.0609167"><ele>265.5</ele><time>2026-05-03T15:35:51.46Z</time></trkpt><trkpt lat="44.0366433" lon="8.0608028"><ele>266.0</ele><time>2026-05-03T15:35:52.46Z</time></trkpt><trkpt lat="44.0366686" lon="8.0606978"><ele>266.5</ele><time>2026-05-03T15:35:53.46Z</time></trkpt><trkpt lat="44.0366772" lon="8.0605984"><ele>267.0</ele><time>2026-05-03T15:35:54.462Z</time></trkpt><trkpt lat="44.0366857" lon="8.0604962"><ele>267.0</ele><time>2026-05-03T15:35:55.462Z</time></trkpt><trkpt lat="44.0367038" lon="8.060385"><ele>267.0</ele><time>2026-05-03T15:35:56.462Z</time></trkpt><trkpt lat="44.0367274" lon="8.0602822"><ele>267.0</ele><time>2026-05-03T15:35:57.456Z</time></trkpt><trkpt lat="44.0367533" lon="8.0601229"><ele>267.0</ele><time>2026-05-03T15:35:59.458Z</time></trkpt><trkpt lat="44.0367527" lon="8.0600287"><ele>267.0</ele><time>2026-05-03T15:36:00.459Z</time></trkpt><trkpt lat="44.0367183" lon="8.0599229"><ele>267.0</ele><time>2026-05-03T15:36:01.46Z</time></trkpt><trkpt lat="44.03668" lon="8.0598402"><ele>267.0</ele><time>2026-05-03T15:36:02.459Z</time></trkpt><trkpt lat="44.0366441" lon="8.0597279"><ele>267.0</ele><time>2026-05-03T15:36:03.461Z</time></trkpt><trkpt lat="44.0366016" lon="8.0596603"><ele>267.0</ele><time>2026-05-03T15:36:04.462Z</time></trkpt><trkpt lat="44.0365433" lon="8.0595871"><ele>267.0</ele><time>2026-05-03T15:36:05.46Z</time></trkpt><trkpt lat="44.0364399" lon="8.0594721"><ele>267.0</ele><time>2026-05-03T15:36:07.463Z</time></trkpt><trkpt lat="44.0363842" lon="8.0594286"><ele>267.0</ele><time>2026-05-03T15:36:08.463Z</time></trkpt><trkpt lat="44.0362721" lon="8.0593588"><ele>267.0</ele><time>2026-05-03T15:36:10.458Z</time></trkpt><trkpt lat="44.0362078" lon="8.0593326"><ele>267.0</ele><time>2026-05-03T15:36:11.461Z</time></trkpt><trkpt lat="44.0360995" lon="8.0593342"><ele>267.0</ele><time>2026-05-03T15:36:13.461Z</time></trkpt><trkpt lat="44.0360184" lon="8.0592949"><ele>267.0</ele><time>2026-05-03T15:36:15.462Z</time></trkpt><trkpt lat="44.0360259" lon="8.0591527"><ele>267.0</ele><time>2026-05-03T15:36:17.469Z</time></trkpt><trkpt lat="44.0360125" lon="8.0589878"><ele>269.0</ele><time>2026-05-03T15:36:19.468Z</time></trkpt><trkpt lat="44.035981" lon="8.0588887"><ele>271.0</ele><time>2026-05-03T15:36:20.459Z</time></trkpt><trkpt lat="44.0359244" lon="8.0587347"><ele>273.0</ele><time>2026-05-03T15:36:22.459Z</time></trkpt><trkpt lat="44.0359052" lon="8.0586276"><ele>275.0</ele><time>2026-05-03T15:36:23.464Z</time></trkpt><trkpt lat="44.0359009" lon="8.0585399"><ele>277.0</ele><time>2026-05-03T15:36:24.463Z</time></trkpt><trkpt lat="44.0359112" lon="8.0584501"><ele>279.0</ele><time>2026-05-03T15:36:25.465Z</time></trkpt><trkpt lat="44.0359136" lon="8.0583542"><ele>279.5</ele><time>2026-05-03T15:36:26.457Z</time></trkpt><trkpt lat="44.03591" lon="8.058254"><ele>280.0</ele><time>2026-05-03T15:36:27.456Z</time></trkpt><trkpt lat="44.0359029" lon="8.0581567"><ele>280.5</ele><time>2026-05-03T15:36:28.467Z</time></trkpt><trkpt lat="44.0358913" lon="8.0580512"><ele>281.0</ele><time>2026-05-03T15:36:29.459Z</time></trkpt><trkpt lat="44.0358786" lon="8.0579526"><ele>281.5</ele><time>2026-05-03T15:36:30.461Z</time></trkpt><trkpt lat="44.035876" lon="8.0578314"><ele>282.0</ele><time>2026-05-03T15:36:31.461Z</time></trkpt><trkpt lat="44.035921" lon="8.0577004"><ele>282.0</ele><time>2026-05-03T15:36:33.46Z</time></trkpt><trkpt lat="44.0359566" lon="8.0575677"><ele>282.0</ele><time>2026-05-03T15:36:35.465Z</time></trkpt><trkpt lat="44.0359603" lon="8.0574761"><ele>282.0</ele><time>2026-05-03T15:36:36.46Z</time></trkpt><trkpt lat="44.0359485" lon="8.0573851"><ele>282.0</ele><time>2026-05-03T15:36:37.462Z</time></trkpt><trkpt lat="44.0359505" lon="8.057271"><ele>282.0</ele><time>2026-05-03T15:36:38.459Z</time></trkpt><trkpt lat="44.0359518" lon="8.0571533"><ele>282.0</ele><time>2026-05-03T15:36:39.46Z</time></trkpt><trkpt lat="44.0359438" lon="8.0570335"><ele>282.3333333333333</ele><time>2026-05-03T15:36:40.459Z</time></trkpt><trkpt lat="44.0359439" lon="8.0569192"><ele>282.6666666666667</ele><time>2026-05-03T15:36:41.462Z</time></trkpt><trkpt lat="44.0359678" lon="8.0567957"><ele>283.0</ele><time>2026-05-03T15:36:42.46Z</time></trkpt><trkpt lat="44.0359863" lon="8.0566932"><ele>283.33333333333337</ele><time>2026-05-03T15:36:43.461Z</time></trkpt><trkpt lat="44.0359933" lon="8.0565961"><ele>283.6666666666667</ele><time>2026-05-03T15:36:44.461Z</time></trkpt><trkpt lat="44.0360067" lon="8.0564918"><ele>284.0</ele><time>2026-05-03T15:36:45.459Z</time></trkpt><trkpt lat="44.0360127" lon="8.0563896"><ele>285.0</ele><time>2026-05-03T15:36:46.464Z</time></trkpt><trkpt lat="44.0360313" lon="8.0562876"><ele>286.0</ele><time>2026-05-03T15:36:47.46Z</time></trkpt><trkpt lat="44.0360285" lon="8.0561983"><ele>287.0</ele><time>2026-05-03T15:36:48.467Z</time></trkpt><trkpt lat="44.0360303" lon="8.0560978"><ele>288.0</ele><time>2026-05-03T15:36:49.46Z</time></trkpt><trkpt lat="44.0360354" lon="8.0559901"><ele>289.0</ele><time>2026-05-03T15:36:50.46Z</time></trkpt><trkpt lat="44.036031" lon="8.0558808"><ele>290.0</ele><time>2026-05-03T15:36:51.459Z</time></trkpt><trkpt lat="44.0360179" lon="8.0557829"><ele>291.0</ele><time>2026-05-03T15:36:52.461Z</time></trkpt><trkpt lat="44.0360129" lon="8.0556077"><ele>292.0</ele><time>2026-05-03T15:36:54.464Z</time></trkpt><trkpt lat="44.0360395" lon="8.0555034"><ele>293.0</ele><time>2026-05-03T15:36:55.457Z</time></trkpt><trkpt lat="44.0360819" lon="8.0554345"><ele>294.0</ele><time>2026-05-03T15:36:56.459Z</time></trkpt><trkpt lat="44.03613" lon="8.055353"><ele>295.0</ele><time>2026-05-03T15:36:57.459Z</time></trkpt><trkpt lat="44.036159" lon="8.0552478"><ele>296.0</ele><time>2026-05-03T15:36:58.459Z</time></trkpt><trkpt lat="44.0361873" lon="8.0551511"><ele>297.0</ele><time>2026-05-03T15:36:59.463Z</time></trkpt><trkpt lat="44.0362158" lon="8.0549939"><ele>297.8</ele><time>2026-05-03T15:37:01.464Z</time></trkpt><trkpt lat="44.036236" lon="8.0548999"><ele>298.6</ele><time>2026-05-03T15:37:02.461Z</time></trkpt><trkpt lat="44.0362372" lon="8.0547978"><ele>299.40000000000003</ele><time>2026-05-03T15:37:03.463Z</time></trkpt><trkpt lat="44.0362627" lon="8.0546446"><ele>300.2</ele><time>2026-05-03T15:37:05.46Z</time></trkpt><trkpt lat="44.0363349" lon="8.0545651"><ele>301.0</ele><time>2026-05-03T15:37:07.463Z</time></trkpt><trkpt lat="44.0364011" lon="8.0544545"><ele>301.0</ele><time>2026-05-03T15:37:09.462Z</time></trkpt><trkpt lat="44.0364098" lon="8.0543075"><ele>301.0</ele><time>2026-05-03T15:37:11.463Z</time></trkpt><trkpt lat="44.0363842" lon="8.0542184"><ele>301.0</ele><time>2026-05-03T15:37:12.466Z</time></trkpt><trkpt lat="44.0363545" lon="8.0540834"><ele>301.0</ele><time>2026-05-03T15:37:14.461Z</time></trkpt><trkpt lat="44.0363526" lon="8.0539871"><ele>301.0</ele><time>2026-05-03T15:37:17.464Z</time></trkpt><trkpt lat="44.0363635" lon="8.0538911"><ele>301.0</ele><time>2026-05-03T15:37:26.461Z</time></trkpt><trkpt lat="44.0364409" lon="8.0537556"><ele>300.42857142857144</ele><time>2026-05-03T15:37:28.46Z</time></trkpt><trkpt lat="44.0364841" lon="8.0536847"><ele>299.8571428571429</ele><time>2026-05-03T15:37:29.462Z</time></trkpt><trkpt lat="44.0365292" lon="8.053593"><ele>299.2857142857143</ele><time>2026-05-03T15:37:30.463Z</time></trkpt><trkpt lat="44.0365713" lon="8.0535083"><ele>298.7142857142857</ele><time>2026-05-03T15:37:31.461Z</time></trkpt><trkpt lat="44.036612" lon="8.0534208"><ele>298.14285714285717</ele><time>2026-05-03T15:37:32.462Z</time></trkpt><trkpt lat="44.0366528" lon="8.0533304"><ele>297.57142857142856</ele><time>2026-05-03T15:37:33.462Z</time></trkpt><trkpt lat="44.036695" lon="8.0532408"><ele>297.0</ele><time>2026-05-03T15:37:34.46Z</time></trkpt><trkpt lat="44.0367355" lon="8.0531548"><ele>302.6</ele><time>2026-05-03T15:37:35.46Z</time></trkpt><trkpt lat="44.0368062" lon="8.0530269"><ele>308.2</ele><time>2026-05-03T15:37:37.463Z</time></trkpt><trkpt lat="44.036865" lon="8.0529221"><ele>313.8</ele><time>2026-05-03T15:37:39.463Z</time></trkpt><trkpt lat="44.0368812" lon="8.052836"><ele>319.4</ele><time>2026-05-03T15:37:40.458Z</time></trkpt><trkpt lat="44.0368816" lon="8.0526791"><ele>325.0</ele><time>2026-05-03T15:37:42.463Z</time></trkpt><trkpt lat="44.0368976" lon="8.0525419"><ele>326.0</ele><time>2026-05-03T15:37:44.462Z</time></trkpt><trkpt lat="44.0368944" lon="8.0524084"><ele>327.0</ele><time>2026-05-03T15:37:52.462Z</time></trkpt><trkpt lat="44.0368125" lon="8.0522958"><ele>328.0</ele><time>2026-05-03T15:37:54.462Z</time></trkpt><trkpt lat="44.036746" lon="8.0521572"><ele>329.0</ele><time>2026-05-03T15:37:56.462Z</time></trkpt><trkpt lat="44.0367224" lon="8.0520573"><ele>330.0</ele><time>2026-05-03T15:37:57.462Z</time></trkpt><trkpt lat="44.0367173" lon="8.0518888"><ele>330.0</ele><time>2026-05-03T15:37:59.467Z</time></trkpt><trkpt lat="44.0367406" lon="8.051801"><ele>330.0</ele><time>2026-05-03T15:38:00.458Z</time></trkpt><trkpt lat="44.0367658" lon="8.0516906"><ele>330.0</ele><time>2026-05-03T15:38:01.461Z</time></trkpt><trkpt lat="44.0367865" lon="8.0515887"><ele>330.0</ele><time>2026-05-03T15:38:02.459Z</time></trkpt><trkpt lat="44.0368101" lon="8.0514901"><ele>330.0</ele><time>2026-05-03T15:38:03.466Z</time></trkpt><trkpt lat="44.0368239" lon="8.0513988"><ele>330.0</ele><time>2026-05-03T15:38:04.462Z</time></trkpt><trkpt lat="44.0368427" lon="8.0512298"><ele>329.8333333333333</ele><time>2026-05-03T15:38:06.458Z</time></trkpt><trkpt lat="44.036866" lon="8.0511422"><ele>329.6666666666667</ele><time>2026-05-03T15:38:07.459Z</time></trkpt><trkpt lat="44.036899" lon="8.051055"><ele>329.5</ele><time>2026-05-03T15:38:08.461Z</time></trkpt><trkpt lat="44.0369331" lon="8.0509794"><ele>329.33333333333337</ele><time>2026-05-03T15:38:09.463Z</time></trkpt><trkpt lat="44.0369658" lon="8.0508794"><ele>329.1666666666667</ele><time>2026-05-03T15:38:11.463Z</time></trkpt><trkpt lat="44.0369087" lon="8.0509808"><ele>329.0</ele><time>2026-05-03T15:38:17.465Z</time></trkpt><trkpt lat="44.0368492" lon="8.0511893"><ele>329.0</ele><time>2026-05-03T15:38:19.468Z</time></trkpt><trkpt lat="44.0368147" lon="8.0513464"><ele>329.0</ele><time>2026-05-03T15:38:20.465Z</time></trkpt><trkpt lat="44.0367781" lon="8.0515167"><ele>329.0</ele><time>2026-05-03T15:38:21.46Z</time></trkpt><trkpt lat="44.0367458" lon="8.051662"><ele>329.0</ele><time>2026-05-03T15:38:22.458Z</time></trkpt><trkpt lat="44.0367186" lon="8.0517904"><ele>329.1666666666667</ele><time>2026-05-03T15:38:23.46Z</time></trkpt><trkpt lat="44.0367016" lon="8.0518837"><ele>329.33333333333337</ele><time>2026-05-03T15:38:24.466Z</time></trkpt><trkpt lat="44.0367045" lon="8.0520683"><ele>329.5</ele><time>2026-05-03T15:38:26.46Z</time></trkpt><trkpt lat="44.0367508" lon="8.0521668"><ele>329.6666666666667</ele><time>2026-05-03T15:38:27.462Z</time></trkpt><trkpt lat="44.0367993" lon="8.0522565"><ele>329.8333333333333</ele><time>2026-05-03T15:38:28.46Z</time></trkpt><trkpt lat="44.0368302" lon="8.0523357"><ele>330.0</ele><time>2026-05-03T15:38:29.46Z</time></trkpt><trkpt lat="44.0369026" lon="8.0524429"><ele>330.0</ele><time>2026-05-03T15:38:31.463Z</time></trkpt><trkpt lat="44.0370042" lon="8.0524538"><ele>330.0</ele><time>2026-05-03T15:38:33.459Z</time></trkpt><trkpt lat="44.03709" lon="8.0524001"><ele>330.0</ele><time>2026-05-03T15:38:35.463Z</time></trkpt><trkpt lat="44.0371471" lon="8.0523211"><ele>330.0</ele><time>2026-05-03T15:38:37.466Z</time></trkpt><trkpt lat="44.0372131" lon="8.0521864"><ele>330.0</ele><time>2026-05-03T15:38:54.468Z</time></trkpt><trkpt lat="44.0373384" lon="8.0519797"><ele>330.0</ele><time>2026-05-03T15:38:55.46Z</time></trkpt><trkpt lat="44.037393" lon="8.0518512"><ele>330.0</ele><time>2026-05-03T15:38:56.46Z</time></trkpt><trkpt lat="44.0374383" lon="8.051716"><ele>330.0</ele><time>2026-05-03T15:38:57.461Z</time></trkpt><trkpt lat="44.0374735" lon="8.0515852"><ele>330.0</ele><time>2026-05-03T15:38:58.459Z</time></trkpt><trkpt lat="44.0374964" lon="8.0514558"><ele>330.0</ele><time>2026-05-03T15:38:59.458Z</time></trkpt><trkpt lat="44.0375424" lon="8.0513242"><ele>334.2</ele><time>2026-05-03T15:39:00.459Z</time></trkpt><trkpt lat="44.0375994" lon="8.0511942"><ele>338.4</ele><time>2026-05-03T15:39:01.463Z</time></trkpt><trkpt lat="44.0376702" lon="8.0510892"><ele>342.6</ele><time>2026-05-03T15:39:02.458Z</time></trkpt><trkpt lat="44.0377529" lon="8.0509717"><ele>346.8</ele><time>2026-05-03T15:39:03.463Z</time></trkpt><trkpt lat="44.0378299" lon="8.0508492"><ele>351.0</ele><time>2026-05-03T15:39:04.461Z</time></trkpt><trkpt lat="44.0378817" lon="8.0507363"><ele>353.8</ele><time>2026-05-03T15:39:05.46Z</time></trkpt><trkpt lat="44.0379569" lon="8.0506528"><ele>356.6</ele><time>2026-05-03T15:39:06.462Z</time></trkpt><trkpt lat="44.0380443" lon="8.050581"><ele>359.4</ele><time>2026-05-03T15:39:07.458Z</time></trkpt><trkpt lat="44.0381111" lon="8.050499"><ele>362.2</ele><time>2026-05-03T15:39:08.459Z</time></trkpt><trkpt lat="44.0381784" lon="8.050403"><ele>365.0</ele><time>2026-05-03T15:39:09.459Z</time></trkpt><trkpt lat="44.0381949" lon="8.0502916"><ele>365.0</ele><time>2026-05-03T15:39:10.459Z</time></trkpt><trkpt lat="44.0381905" lon="8.05017"><ele>365.0</ele><time>2026-05-03T15:39:11.461Z</time></trkpt><trkpt lat="44.0381675" lon="8.050048"><ele>365.0</ele><time>2026-05-03T15:39:12.461Z</time></trkpt><trkpt lat="44.0381491" lon="8.0499393"><ele>365.0</ele><time>2026-05-03T15:39:13.465Z</time></trkpt><trkpt lat="44.0381613" lon="8.0498339"><ele>365.0</ele><time>2026-05-03T15:39:14.461Z</time></trkpt><trkpt lat="44.0381868" lon="8.0497298"><ele>365.0</ele><time>2026-05-03T15:39:15.462Z</time></trkpt><trkpt lat="44.0383222" lon="8.0496365"><ele>367.0</ele><time>2026-05-03T15:39:16.46Z</time></trkpt><trkpt lat="44.0384134" lon="8.0495412"><ele>369.0</ele><time>2026-05-03T15:39:17.463Z</time></trkpt><trkpt lat="44.0385315" lon="8.0494537"><ele>371.0</ele><time>2026-05-03T15:39:18.458Z</time></trkpt><trkpt lat="44.0386453" lon="8.0493605"><ele>373.0</ele><time>2026-05-03T15:39:19.458Z</time></trkpt><trkpt lat="44.0387438" lon="8.0492625"><ele>373.0</ele><time>2026-05-03T15:39:20.462Z</time></trkpt><trkpt lat="44.0388239" lon="8.0491677"><ele>373.0</ele><time>2026-05-03T15:39:21.46Z</time></trkpt><trkpt lat="44.0388941" lon="8.0490688"><ele>373.0</ele><time>2026-05-03T15:39:22.458Z</time></trkpt><trkpt lat="44.0389521" lon="8.0489728"><ele>373.0</ele><time>2026-05-03T15:39:23.463Z</time></trkpt><trkpt lat="44.039002" lon="8.048876"><ele>373.0</ele><time>2026-05-03T15:39:24.459Z</time></trkpt><trkpt lat="44.0390575" lon="8.0487775"><ele>372.5</ele><time>2026-05-03T15:39:25.457Z</time></trkpt><trkpt lat="44.0391327" lon="8.0486968"><ele>372.0</ele><time>2026-05-03T15:39:26.457Z</time></trkpt><trkpt lat="44.0391917" lon="8.048631"><ele>371.5</ele><time>2026-05-03T15:39:27.46Z</time></trkpt><trkpt lat="44.0392495" lon="8.0485691"><ele>371.0</ele><time>2026-05-03T15:39:28.459Z</time></trkpt><trkpt lat="44.0393052" lon="8.0484902"><ele>370.5</ele><time>2026-05-03T15:39:29.46Z</time></trkpt><trkpt lat="44.0393551" lon="8.0484167"><ele>370.0</ele><time>2026-05-03T15:39:30.461Z</time></trkpt><trkpt lat="44.0394091" lon="8.0483406"><ele>376.0</ele><time>2026-05-03T15:39:31.467Z</time></trkpt><trkpt lat="44.0394751" lon="8.0482749"><ele>382.0</ele><time>2026-05-03T15:39:32.462Z</time></trkpt><trkpt lat="44.0395547" lon="8.0482164"><ele>388.0</ele><time>2026-05-03T15:39:33.459Z</time></trkpt><trkpt lat="44.0396213" lon="8.0481607"><ele>394.0</ele><time>2026-05-03T15:39:34.464Z</time></trkpt><trkpt lat="44.0397317" lon="8.0481074"><ele>400.0</ele><time>2026-05-03T15:39:35.458Z</time></trkpt><trkpt lat="44.0398283" lon="8.0480867"><ele>400.0</ele><time>2026-05-03T15:39:36.463Z</time></trkpt><trkpt lat="44.0399139" lon="8.0480878"><ele>400.0</ele><time>2026-05-03T15:39:37.459Z</time></trkpt><trkpt lat="44.0399982" lon="8.0481588"><ele>400.0</ele><time>2026-05-03T15:39:39.458Z</time></trkpt><trkpt lat="44.0400494" lon="8.0483163"><ele>400.0</ele><time>2026-05-03T15:39:41.464Z</time></trkpt><trkpt lat="44.0400877" lon="8.0484518"><ele>400.0</ele><time>2026-05-03T15:39:42.459Z</time></trkpt><trkpt lat="44.0401148" lon="8.0486201"><ele>390.0</ele><time>2026-05-03T15:39:43.458Z</time></trkpt><trkpt lat="44.0401407" lon="8.0487951"><ele>380.0</ele><time>2026-05-03T15:39:44.463Z</time></trkpt><trkpt lat="44.0401479" lon="8.0489954"><ele>370.0</ele><time>2026-05-03T15:39:45.458Z</time></trkpt><trkpt lat="44.0401868" lon="8.0491722"><ele>360.0</ele><time>2026-05-03T15:39:46.46Z</time></trkpt><trkpt lat="44.0402234" lon="8.0493326"><ele>358.5</ele><time>2026-05-03T15:39:47.465Z</time></trkpt><trkpt lat="44.0402535" lon="8.0494591"><ele>357.0</ele><time>2026-05-03T15:39:48.461Z</time></trkpt><trkpt lat="44.0403265" lon="8.0495582"><ele>355.5</ele><time>2026-05-03T15:39:49.459Z</time></trkpt><trkpt lat="44.0403872" lon="8.0496204"><ele>354.0</ele><time>2026-05-03T15:39:50.46Z</time></trkpt><trkpt lat="44.0404541" lon="8.0496362"><ele>352.5</ele><time>2026-05-03T15:39:51.467Z</time></trkpt><trkpt lat="44.0405221" lon="8.0496892"><ele>351.0</ele><time>2026-05-03T15:39:52.463Z</time></trkpt><trkpt lat="44.0405629" lon="8.0497826"><ele>351.0</ele><time>2026-05-03T15:39:53.461Z</time></trkpt><trkpt lat="44.0405719" lon="8.0498949"><ele>351.0</ele><time>2026-05-03T15:39:54.459Z</time></trkpt><trkpt lat="44.0405407" lon="8.0500314"><ele>351.0</ele><time>2026-05-03T15:39:55.458Z</time></trkpt><trkpt lat="44.0405272" lon="8.0501638"><ele>351.0</ele><time>2026-05-03T15:39:56.459Z</time></trkpt><trkpt lat="44.0405303" lon="8.050303"><ele>351.0</ele><time>2026-05-03T15:39:57.461Z</time></trkpt><trkpt lat="44.040567" lon="8.0504577"><ele>348.8</ele><time>2026-05-03T15:39:58.464Z</time></trkpt><trkpt lat="44.0406198" lon="8.0506175"><ele>346.6</ele><time>2026-05-03T15:39:59.458Z</time></trkpt><trkpt lat="44.040655" lon="8.0507568"><ele>344.4</ele><time>2026-05-03T15:40:00.459Z</time></trkpt><trkpt lat="44.0406621" lon="8.0508859"><ele>342.2</ele><time>2026-05-03T15:40:01.464Z</time></trkpt><trkpt lat="44.0406838" lon="8.0510033"><ele>340.0</ele><time>2026-05-03T15:40:02.458Z</time></trkpt><trkpt lat="44.0407328" lon="8.0511053"><ele>345.6</ele><time>2026-05-03T15:40:03.463Z</time></trkpt><trkpt lat="44.0408117" lon="8.0511908"><ele>351.2</ele><time>2026-05-03T15:40:04.46Z</time></trkpt><trkpt lat="44.0409138" lon="8.0512421"><ele>356.79999999999995</ele><time>2026-05-03T15:40:05.46Z</time></trkpt><trkpt lat="44.0410377" lon="8.0512847"><ele>362.4</ele><time>2026-05-03T15:40:06.467Z</time></trkpt><trkpt lat="44.0411475" lon="8.0513228"><ele>368.0</ele><time>2026-05-03T15:40:07.458Z</time></trkpt><trkpt lat="44.0412473" lon="8.0513572"><ele>368.0</ele><time>2026-05-03T15:40:08.462Z</time></trkpt><trkpt lat="44.0413383" lon="8.0514026"><ele>368.0</ele><time>2026-05-03T15:40:09.463Z</time></trkpt><trkpt lat="44.0414113" lon="8.0514815"><ele>368.0</ele><time>2026-05-03T15:40:10.463Z</time></trkpt><trkpt lat="44.0414684" lon="8.0516035"><ele>368.0</ele><time>2026-05-03T15:40:11.462Z</time></trkpt><trkpt lat="44.0415081" lon="8.0516989"><ele>368.0</ele><time>2026-05-03T15:40:12.459Z</time></trkpt><trkpt lat="44.0415556" lon="8.0518311"><ele>365.1666666666667</ele><time>2026-05-03T15:40:14.459Z</time></trkpt><trkpt lat="44.0416016" lon="8.0519211"><ele>362.33333333333337</ele><time>2026-05-03T15:40:16.46Z</time></trkpt><trkpt lat="44.0415801" lon="8.0520796"><ele>359.5</ele><time>2026-05-03T15:40:18.468Z</time></trkpt><trkpt lat="44.0415691" lon="8.0521715"><ele>356.6666666666667</ele><time>2026-05-03T15:40:19.462Z</time></trkpt><trkpt lat="44.04155" lon="8.052284"><ele>353.8333333333333</ele><time>2026-05-03T15:40:20.463Z</time></trkpt><trkpt lat="44.0415514" lon="8.0523964"><ele>351.0</ele><time>2026-05-03T15:40:21.462Z</time></trkpt><trkpt lat="44.0415333" lon="8.0525092"><ele>350.6</ele><time>2026-05-03T15:40:22.469Z</time></trkpt><trkpt lat="44.0414995" lon="8.0526048"><ele>350.20000000000005</ele><time>2026-05-03T15:40:23.463Z</time></trkpt><trkpt lat="44.0414545" lon="8.0527229"><ele>349.79999999999995</ele><time>2026-05-03T15:40:24.456Z</time></trkpt><trkpt lat="44.0414137" lon="8.0528286"><ele>349.4</ele><time>2026-05-03T15:40:25.46Z</time></trkpt><trkpt lat="44.0413865" lon="8.0529285"><ele>349.0</ele><time>2026-05-03T15:40:26.46Z</time></trkpt><trkpt lat="44.0413672" lon="8.0530946"><ele>349.0</ele><time>2026-05-03T15:40:28.459Z</time></trkpt><trkpt lat="44.0413885" lon="8.05321"><ele>349.0</ele><time>2026-05-03T15:40:29.461Z</time></trkpt><trkpt lat="44.0414093" lon="8.0533293"><ele>349.0</ele><time>2026-05-03T15:40:30.46Z</time></trkpt><trkpt lat="44.0414133" lon="8.0534391"><ele>349.0</ele><time>2026-05-03T15:40:31.463Z</time></trkpt><trkpt lat="44.0414032" lon="8.0535439"><ele>349.0</ele><time>2026-05-03T15:40:32.459Z</time></trkpt><trkpt lat="44.041393" lon="8.0536411"><ele>349.0</ele><time>2026-05-03T15:40:33.459Z</time></trkpt><trkpt lat="44.0413668" lon="8.0537974"><ele>350.8333333333333</ele><time>2026-05-03T15:40:35.457Z</time></trkpt><trkpt lat="44.0413653" lon="8.0539176"><ele>352.66666666666663</ele><time>2026-05-03T15:40:37.464Z</time></trkpt><trkpt lat="44.0414207" lon="8.0540108"><ele>354.5</ele><time>2026-05-03T15:40:39.461Z</time></trkpt><trkpt lat="44.0414976" lon="8.0540588"><ele>356.3333333333333</ele><time>2026-05-03T15:40:41.461Z</time></trkpt><trkpt lat="44.0416167" lon="8.0540624"><ele>358.1666666666667</ele><time>2026-05-03T15:40:43.46Z</time></trkpt><trkpt lat="44.0416886" lon="8.0540554"><ele>360.0</ele><time>2026-05-03T15:40:44.466Z</time></trkpt><trkpt lat="44.0417695" lon="8.0540359"><ele>363.0</ele><time>2026-05-03T15:40:45.462Z</time></trkpt><trkpt lat="44.0418467" lon="8.0540257"><ele>366.0</ele><time>2026-05-03T15:40:46.459Z</time></trkpt><trkpt lat="44.0419205" lon="8.0540331"><ele>369.0</ele><time>2026-05-03T15:40:47.464Z</time></trkpt><trkpt lat="44.0419922" lon="8.0540573"><ele>372.0</ele><time>2026-05-03T15:40:48.458Z</time></trkpt><trkpt lat="44.0420675" lon="8.054103"><ele>375.0</ele><time>2026-05-03T15:40:49.464Z</time></trkpt><trkpt lat="44.0421515" lon="8.0541304"><ele>378.0</ele><time>2026-05-03T15:40:50.459Z</time></trkpt><trkpt lat="44.0422331" lon="8.0541504"><ele>378.0</ele><time>2026-05-03T15:40:51.46Z</time></trkpt><trkpt lat="44.0422998" lon="8.054157"><ele>378.0</ele><time>2026-05-03T15:40:52.461Z</time></trkpt><trkpt lat="44.0423639" lon="8.0541693"><ele>378.0</ele><time>2026-05-03T15:40:53.468Z</time></trkpt><trkpt lat="44.0424802" lon="8.0542272"><ele>378.0</ele><time>2026-05-03T15:40:55.457Z</time></trkpt><trkpt lat="44.0425528" lon="8.0542625"><ele>378.0</ele><time>2026-05-03T15:40:56.465Z</time></trkpt><trkpt lat="44.0426289" lon="8.054302"><ele>378.0</ele><time>2026-05-03T15:40:57.46Z</time></trkpt><trkpt lat="44.0426912" lon="8.0543502"><ele>380.3333333333333</ele><time>2026-05-03T15:40:58.463Z</time></trkpt><trkpt lat="44.0427587" lon="8.0543971"><ele>382.66666666666663</ele><time>2026-05-03T15:40:59.461Z</time></trkpt><trkpt lat="44.0428181" lon="8.0544375"><ele>385.0</ele><time>2026-05-03T15:41:00.459Z</time></trkpt><trkpt lat="44.0428891" lon="8.0544776"><ele>387.3333333333333</ele><time>2026-05-03T15:41:02.462Z</time></trkpt><trkpt lat="44.042957" lon="8.0545812"><ele>389.66666666666663</ele><time>2026-05-03T15:41:05.46Z</time></trkpt><trkpt lat="44.0429703" lon="8.0547463"><ele>392.0</ele><time>2026-05-03T15:41:07.462Z</time></trkpt><trkpt lat="44.042961" lon="8.0548439"><ele>392.0</ele><time>2026-05-03T15:41:08.461Z</time></trkpt><trkpt lat="44.0429555" lon="8.0549461"><ele>392.0</ele><time>2026-05-03T15:41:09.462Z</time></trkpt><trkpt lat="44.0429353" lon="8.0550337"><ele>392.0</ele><time>2026-05-03T15:41:10.461Z</time></trkpt><trkpt lat="44.0429531" lon="8.0552039"><ele>392.0</ele><time>2026-05-03T15:41:12.463Z</time></trkpt><trkpt lat="44.0430313" lon="8.0553312"><ele>392.0</ele><time>2026-05-03T15:41:14.459Z</time></trkpt><trkpt lat="44.0430675" lon="8.0554299"><ele>390.66666666666663</ele><time>2026-05-03T15:41:15.461Z</time></trkpt><trkpt lat="44.0430671" lon="8.0555451"><ele>389.3333333333333</ele><time>2026-05-03T15:41:16.464Z</time></trkpt><trkpt lat="44.0430604" lon="8.0556516"><ele>388.0</ele><time>2026-05-03T15:41:17.46Z</time></trkpt><trkpt lat="44.0430553" lon="8.0557499"><ele>386.66666666666663</ele><time>2026-05-03T15:41:18.462Z</time></trkpt><trkpt lat="44.0430496" lon="8.0558771"><ele>385.3333333333333</ele><time>2026-05-03T15:41:20.459Z</time></trkpt><trkpt lat="44.0430882" lon="8.0559573"><ele>384.0</ele><time>2026-05-03T15:41:32.459Z</time></trkpt><trkpt lat="44.0431586" lon="8.055938"><ele>384.0</ele><time>2026-05-03T15:41:34.456Z</time></trkpt><trkpt lat="44.0432273" lon="8.0558082"><ele>384.0</ele><time>2026-05-03T15:41:36.465Z</time></trkpt><trkpt lat="44.0432443" lon="8.0557234"><ele>384.0</ele><time>2026-05-03T15:41:37.459Z</time></trkpt><trkpt lat="44.0432656" lon="8.0555925"><ele>384.0</ele><time>2026-05-03T15:41:39.462Z</time></trkpt><trkpt lat="44.0433226" lon="8.0556381"><ele>384.0</ele><time>2026-05-03T15:41:42.459Z</time></trkpt><trkpt lat="44.0433202" lon="8.0557689"><ele>384.0</ele><time>2026-05-03T15:41:44.468Z</time></trkpt><trkpt lat="44.0433524" lon="8.055929"><ele>387.5</ele><time>2026-05-03T15:41:46.455Z</time></trkpt><trkpt lat="44.0434351" lon="8.0560079"><ele>391.0</ele><time>2026-05-03T15:41:48.459Z</time></trkpt><trkpt lat="44.0435411" lon="8.056027"><ele>394.5</ele><time>2026-05-03T15:41:50.463Z</time></trkpt><trkpt lat="44.0436289" lon="8.0560222"><ele>398.0</ele><time>2026-05-03T15:41:52.458Z</time></trkpt><trkpt lat="44.0436896" lon="8.0559487"><ele>401.5</ele><time>2026-05-03T15:41:54.46Z</time></trkpt><trkpt lat="44.0436975" lon="8.0558483"><ele>405.0</ele><time>2026-05-03T15:41:56.461Z</time></trkpt><trkpt lat="44.0437092" lon="8.0557184"><ele>405.6</ele><time>2026-05-03T15:41:58.462Z</time></trkpt><trkpt lat="44.0437265" lon="8.0556193"><ele>406.2</ele><time>2026-05-03T15:42:00.465Z</time></trkpt><trkpt lat="44.0437523" lon="8.0554894"><ele>406.79999999999995</ele><time>2026-05-03T15:42:12.47Z</time></trkpt><trkpt lat="44.0437546" lon="8.0553313"><ele>407.4</ele><time>2026-05-03T15:42:13.466Z</time></trkpt><trkpt lat="44.043768" lon="8.0552336"><ele>408.0</ele><time>2026-05-03T15:42:14.467Z</time></trkpt><trkpt lat="44.0438178" lon="8.0550743"><ele>408.0</ele><time>2026-05-03T15:42:16.46Z</time></trkpt><trkpt lat="44.0438564" lon="8.054989"><ele>408.0</ele><time>2026-05-03T15:42:17.457Z</time></trkpt><trkpt lat="44.043895" lon="8.0549077"><ele>408.0</ele><time>2026-05-03T15:42:18.46Z</time></trkpt><trkpt lat="44.0439255" lon="8.0548196"><ele>408.0</ele><time>2026-05-03T15:42:19.46Z</time></trkpt><trkpt lat="44.0439643" lon="8.0546841"><ele>408.0</ele><time>2026-05-03T15:42:21.46Z</time></trkpt><trkpt lat="44.0439552" lon="8.0545525"><ele>408.0</ele><time>2026-05-03T15:42:23.467Z</time></trkpt><trkpt lat="44.0439488" lon="8.0544567"><ele>409.0</ele><time>2026-05-03T15:42:24.467Z</time></trkpt><trkpt lat="44.0439257" lon="8.0543619"><ele>410.0</ele><time>2026-05-03T15:42:25.458Z</time></trkpt><trkpt lat="44.0439027" lon="8.0542249"><ele>411.0</ele><time>2026-05-03T15:42:27.458Z</time></trkpt><trkpt lat="44.0439764" lon="8.0541253"><ele>412.0</ele><time>2026-05-03T15:42:29.474Z</time></trkpt><trkpt lat="44.0440577" lon="8.0540465"><ele>413.0</ele><time>2026-05-03T15:42:31.466Z</time></trkpt><trkpt lat="44.0440793" lon="8.0539222"><ele>414.8333333333333</ele><time>2026-05-03T15:42:33.459Z</time></trkpt><trkpt lat="44.0440371" lon="8.0537888"><ele>416.66666666666663</ele><time>2026-05-03T15:42:34.464Z</time></trkpt><trkpt lat="44.0440036" lon="8.0536814"><ele>418.5</ele><time>2026-05-03T15:42:35.461Z</time></trkpt><trkpt lat="44.0439724" lon="8.0535647"><ele>420.33333333333337</ele><time>2026-05-03T15:42:36.461Z</time></trkpt><trkpt lat="44.0439534" lon="8.0534735"><ele>422.1666666666667</ele><time>2026-05-03T15:42:37.462Z</time></trkpt><trkpt lat="44.0439361" lon="8.0533673"><ele>424.0</ele><time>2026-05-03T15:42:38.462Z</time></trkpt><trkpt lat="44.0439076" lon="8.0532706"><ele>427.1666666666667</ele><time>2026-05-03T15:42:39.462Z</time></trkpt><trkpt lat="44.043872" lon="8.0531673"><ele>430.33333333333337</ele><time>2026-05-03T15:42:40.46Z</time></trkpt><trkpt lat="44.0438439" lon="8.0530726"><ele>433.5</ele><time>2026-05-03T15:42:41.459Z</time></trkpt><trkpt lat="44.0438153" lon="8.0529705"><ele>436.66666666666663</ele><time>2026-05-03T15:42:42.457Z</time></trkpt><trkpt lat="44.0437899" lon="8.0528703"><ele>439.8333333333333</ele><time>2026-05-03T15:42:43.466Z</time></trkpt><trkpt lat="44.0437657" lon="8.0527735"><ele>443.0</ele><time>2026-05-03T15:42:44.46Z</time></trkpt><trkpt lat="44.0437292" lon="8.0526724"><ele>442.99999999999994</ele><time>2026-05-03T15:42:45.46Z</time></trkpt><trkpt lat="44.0436902" lon="8.0525721"><ele>443.0</ele><time>2026-05-03T15:42:46.46Z</time></trkpt><trkpt lat="44.0436421" lon="8.0524896"><ele>443.0</ele><time>2026-05-03T15:42:47.462Z</time></trkpt><trkpt lat="44.0436076" lon="8.0524151"><ele>443.0</ele><time>2026-05-03T15:42:48.461Z</time></trkpt><trkpt lat="44.0435832" lon="8.052333"><ele>442.99999999999994</ele><time>2026-05-03T15:42:49.465Z</time></trkpt><trkpt lat="44.0435756" lon="8.0521658"><ele>443.0</ele><time>2026-05-03T15:42:51.462Z</time></trkpt><trkpt lat="44.0435931" lon="8.0520671"><ele>443.3333333333333</ele><time>2026-05-03T15:42:52.458Z</time></trkpt><trkpt lat="44.0436186" lon="8.0519616"><ele>443.66666666666663</ele><time>2026-05-03T15:42:53.456Z</time></trkpt><trkpt lat="44.0436351" lon="8.0518494"><ele>444.0</ele><time>2026-05-03T15:42:54.459Z</time></trkpt><trkpt lat="44.0436451" lon="8.0517359"><ele>444.33333333333337</ele><time>2026-05-03T15:42:55.459Z</time></trkpt><trkpt lat="44.0436879" lon="8.0515909"><ele>444.6666666666667</ele><time>2026-05-03T15:42:57.463Z</time></trkpt><trkpt lat="44.043685" lon="8.0514742"><ele>445.0</ele><time>2026-05-03T15:42:58.463Z</time></trkpt><trkpt lat="44.0436816" lon="8.0513711"><ele>446.83333333333337</ele><time>2026-05-03T15:42:59.462Z</time></trkpt><trkpt lat="44.0436697" lon="8.0512719"><ele>448.6666666666667</ele><time>2026-05-03T15:43:00.459Z</time></trkpt><trkpt lat="44.0436626" lon="8.0511804"><ele>450.5</ele><time>2026-05-03T15:43:01.461Z</time></trkpt><trkpt lat="44.0436135" lon="8.0510945"><ele>452.33333333333337</ele><time>2026-05-03T15:43:03.46Z</time></trkpt><trkpt lat="44.0435667" lon="8.0509225"><ele>454.1666666666667</ele><time>2026-05-03T15:43:05.461Z</time></trkpt><trkpt lat="44.0435463" lon="8.0508301"><ele>456.0</ele><time>2026-05-03T15:43:06.46Z</time></trkpt><trkpt lat="44.0435126" lon="8.050747"><ele>458.3333333333333</ele><time>2026-05-03T15:43:07.458Z</time></trkpt><trkpt lat="44.0434632" lon="8.0506842"><ele>460.66666666666663</ele><time>2026-05-03T15:43:08.464Z</time></trkpt><trkpt lat="44.0433909" lon="8.0506463"><ele>463.0</ele><time>2026-05-03T15:43:09.462Z</time></trkpt><trkpt lat="44.0433316" lon="8.0505077"><ele>465.3333333333333</ele><time>2026-05-03T15:43:11.461Z</time></trkpt><trkpt lat="44.0433263" lon="8.0504098"><ele>467.66666666666663</ele><time>2026-05-03T15:43:12.46Z</time></trkpt><trkpt lat="44.0433148" lon="8.0503181"><ele>470.0</ele><time>2026-05-03T15:43:13.461Z</time></trkpt><trkpt lat="44.0433162" lon="8.0502123"><ele>466.49999999999994</ele><time>2026-05-03T15:43:14.464Z</time></trkpt><trkpt lat="44.0432578" lon="8.0501313"><ele>463.0</ele><time>2026-05-03T15:43:15.459Z</time></trkpt><trkpt lat="44.0431948" lon="8.0500512"><ele>459.5</ele><time>2026-05-03T15:43:16.464Z</time></trkpt><trkpt lat="44.0431436" lon="8.0499872"><ele>456.0</ele><time>2026-05-03T15:43:17.458Z</time></trkpt><trkpt lat="44.0431048" lon="8.0498962"><ele>452.49999999999994</ele><time>2026-05-03T15:43:18.461Z</time></trkpt><trkpt lat="44.0430521" lon="8.0497995"><ele>449.0</ele><time>2026-05-03T15:43:19.459Z</time></trkpt><trkpt lat="44.0430109" lon="8.049704"><ele>448.99999999999994</ele><time>2026-05-03T15:43:20.463Z</time></trkpt><trkpt lat="44.0429711" lon="8.0496293"><ele>449.0</ele><time>2026-05-03T15:43:21.463Z</time></trkpt><trkpt lat="44.0429525" lon="8.0494853"><ele>449.0</ele><time>2026-05-03T15:43:23.459Z</time></trkpt><trkpt lat="44.0429781" lon="8.0493903"><ele>449.0</ele><time>2026-05-03T15:43:24.463Z</time></trkpt><trkpt lat="44.0430098" lon="8.049294"><ele>448.99999999999994</ele><time>2026-05-03T15:43:25.455Z</time></trkpt><trkpt lat="44.0430269" lon="8.0491802"><ele>449.0</ele><time>2026-05-03T15:43:26.458Z</time></trkpt><trkpt lat="44.0430233" lon="8.0490483"><ele>450.6</ele><time>2026-05-03T15:43:27.459Z</time></trkpt><trkpt lat="44.0430094" lon="8.0489334"><ele>452.2</ele><time>2026-05-03T15:43:28.458Z</time></trkpt><trkpt lat="44.0429924" lon="8.0488012"><ele>453.80000000000007</ele><time>2026-05-03T15:43:29.458Z</time></trkpt><trkpt lat="44.0429757" lon="8.0486616"><ele>455.40000000000003</ele><time>2026-05-03T15:43:30.462Z</time></trkpt><trkpt lat="44.0429561" lon="8.0485434"><ele>457.0</ele><time>2026-05-03T15:43:31.461Z</time></trkpt><trkpt lat="44.0429099" lon="8.0484191"><ele>457.00000000000006</ele><time>2026-05-03T15:43:32.46Z</time></trkpt><trkpt lat="44.0428717" lon="8.0483009"><ele>457.0</ele><time>2026-05-03T15:43:33.462Z</time></trkpt><trkpt lat="44.0428441" lon="8.0481841"><ele>457.0</ele><time>2026-05-03T15:43:34.458Z</time></trkpt><trkpt lat="44.0428255" lon="8.0480731"><ele>457.0</ele><time>2026-05-03T15:43:35.458Z</time></trkpt><trkpt lat="44.0428072" lon="8.047968"><ele>457.00000000000006</ele><time>2026-05-03T15:43:36.459Z</time></trkpt><trkpt lat="44.0427641" lon="8.0478688"><ele>457.0</ele><time>2026-05-03T15:43:37.458Z</time></trkpt><trkpt lat="44.0427109" lon="8.0478028"><ele>459.1666666666667</ele><time>2026-05-03T15:43:38.46Z</time></trkpt><trkpt lat="44.042665" lon="8.0477392"><ele>461.33333333333337</ele><time>2026-05-03T15:43:39.461Z</time></trkpt><trkpt lat="44.0426286" lon="8.0476408"><ele>463.5</ele><time>2026-05-03T15:43:40.463Z</time></trkpt><trkpt lat="44.0426207" lon="8.0475532"><ele>465.66666666666663</ele><time>2026-05-03T15:43:41.458Z</time></trkpt><trkpt lat="44.0426124" lon="8.0474158"><ele>467.8333333333333</ele><time>2026-05-03T15:43:43.462Z</time></trkpt><trkpt lat="44.0425731" lon="8.0472776"><ele>470.0</ele><time>2026-05-03T15:43:45.463Z</time></trkpt><trkpt lat="44.0425394" lon="8.0471689"><ele>470.66666666666663</ele><time>2026-05-03T15:43:46.459Z</time></trkpt><trkpt lat="44.0425077" lon="8.0470584"><ele>471.3333333333333</ele><time>2026-05-03T15:43:47.46Z</time></trkpt><trkpt lat="44.0424776" lon="8.0469503"><ele>472.0</ele><time>2026-05-03T15:43:48.463Z</time></trkpt><trkpt lat="44.042462" lon="8.046836"><ele>472.66666666666663</ele><time>2026-05-03T15:43:49.46Z</time></trkpt><trkpt lat="44.0424515" lon="8.0467199"><ele>473.3333333333333</ele><time>2026-05-03T15:43:50.46Z</time></trkpt><trkpt lat="44.0424033" lon="8.0465905"><ele>474.0</ele><time>2026-05-03T15:43:51.464Z</time></trkpt><trkpt lat="44.0423607" lon="8.0464849"><ele>474.2</ele><time>2026-05-03T15:43:52.462Z</time></trkpt><trkpt lat="44.0423113" lon="8.0463687"><ele>474.4</ele><time>2026-05-03T15:43:53.459Z</time></trkpt><trkpt lat="44.0422569" lon="8.0462755"><ele>474.6</ele><time>2026-05-03T15:43:54.46Z</time></trkpt><trkpt lat="44.0421925" lon="8.0461726"><ele>474.8</ele><time>2026-05-03T15:43:55.459Z</time></trkpt><trkpt lat="44.0421205" lon="8.0460934"><ele>475.0</ele><time>2026-05-03T15:43:56.458Z</time></trkpt><trkpt lat="44.0420564" lon="8.0460279"><ele>475.00000000000006</ele><time>2026-05-03T15:43:57.461Z</time></trkpt><trkpt lat="44.041998" lon="8.045944"><ele>475.0</ele><time>2026-05-03T15:43:58.46Z</time></trkpt><trkpt lat="44.0419687" lon="8.0458657"><ele>475.0</ele><time>2026-05-03T15:43:59.465Z</time></trkpt><trkpt lat="44.0419469" lon="8.0457777"><ele>475.0</ele><time>2026-05-03T15:44:00.462Z</time></trkpt><trkpt lat="44.0419245" lon="8.0456913"><ele>475.00000000000006</ele><time>2026-05-03T15:44:01.461Z</time></trkpt><trkpt lat="44.041909" lon="8.0455631"><ele>475.0</ele><time>2026-05-03T15:44:02.463Z</time></trkpt><trkpt lat="44.0418971" lon="8.0454243"><ele>476.2</ele><time>2026-05-03T15:44:03.463Z</time></trkpt><trkpt lat="44.0418764" lon="8.045295"><ele>477.4</ele><time>2026-05-03T15:44:04.466Z</time></trkpt><trkpt lat="44.0418374" lon="8.0452055"><ele>478.6</ele><time>2026-05-03T15:44:05.462Z</time></trkpt><trkpt lat="44.0417748" lon="8.0450782"><ele>479.8</ele><time>2026-05-03T15:44:06.467Z</time></trkpt><trkpt lat="44.0417252" lon="8.0449616"><ele>481.0</ele><time>2026-05-03T15:44:07.465Z</time></trkpt><trkpt lat="44.0416882" lon="8.0448412"><ele>481.50000000000006</ele><time>2026-05-03T15:44:08.46Z</time></trkpt><trkpt lat="44.0416569" lon="8.0447379"><ele>482.0</ele><time>2026-05-03T15:44:09.462Z</time></trkpt><trkpt lat="44.0416159" lon="8.0446687"><ele>482.5</ele><time>2026-05-03T15:44:10.46Z</time></trkpt><trkpt lat="44.0415386" lon="8.0445741"><ele>483.0</ele><time>2026-05-03T15:44:12.463Z</time></trkpt><trkpt lat="44.0414855" lon="8.0445188"><ele>483.50000000000006</ele><time>2026-05-03T15:44:13.468Z</time></trkpt><trkpt lat="44.0414192" lon="8.0444539"><ele>484.0</ele><time>2026-05-03T15:44:14.46Z</time></trkpt><trkpt lat="44.0413438" lon="8.0443805"><ele>486.2</ele><time>2026-05-03T15:44:15.459Z</time></trkpt><trkpt lat="44.0412647" lon="8.0443097"><ele>488.4</ele><time>2026-05-03T15:44:16.462Z</time></trkpt><trkpt lat="44.0411786" lon="8.0442562"><ele>490.6</ele><time>2026-05-03T15:44:17.464Z</time></trkpt><trkpt lat="44.0410663" lon="8.0442203"><ele>492.8</ele><time>2026-05-03T15:44:18.462Z</time></trkpt><trkpt lat="44.0409544" lon="8.0441942"><ele>495.0</ele><time>2026-05-03T15:44:19.46Z</time></trkpt><trkpt lat="44.0408475" lon="8.0441597"><ele>496.6666666666667</ele><time>2026-05-03T15:44:20.463Z</time></trkpt><trkpt lat="44.0407358" lon="8.0441456"><ele>498.33333333333337</ele><time>2026-05-03T15:44:21.463Z</time></trkpt><trkpt lat="44.040643" lon="8.0441167"><ele>500.0</ele><time>2026-05-03T15:44:22.46Z</time></trkpt><trkpt lat="44.040566" lon="8.0440994"><ele>501.6666666666667</ele><time>2026-05-03T15:44:23.466Z</time></trkpt><trkpt lat="44.0404958" lon="8.0440675"><ele>503.33333333333337</ele><time>2026-05-03T15:44:24.455Z</time></trkpt><trkpt lat="44.0404278" lon="8.0440748"><ele>505.0</ele><time>2026-05-03T15:44:25.469Z</time></trkpt><trkpt lat="44.0403155" lon="8.0441704"><ele>505.0</ele><time>2026-05-03T15:44:27.462Z</time></trkpt><trkpt lat="44.0402598" lon="8.0442415"><ele>505.0</ele><time>2026-05-03T15:44:28.46Z</time></trkpt><trkpt lat="44.0401525" lon="8.0443161"><ele>505.0</ele><time>2026-05-03T15:44:30.462Z</time></trkpt><trkpt lat="44.0400356" lon="8.0443123"><ele>505.0</ele><time>2026-05-03T15:44:32.462Z</time></trkpt><trkpt lat="44.0399654" lon="8.0443132"><ele>505.0</ele><time>2026-05-03T15:44:33.464Z</time></trkpt><trkpt lat="44.0398708" lon="8.0443021"><ele>504.50000000000006</ele><time>2026-05-03T15:44:34.461Z</time></trkpt><trkpt lat="44.0397833" lon="8.0443082"><ele>504.0</ele><time>2026-05-03T15:44:35.458Z</time></trkpt><trkpt lat="44.0396921" lon="8.0443364"><ele>503.5</ele><time>2026-05-03T15:44:36.459Z</time></trkpt><trkpt lat="44.0396131" lon="8.0443837"><ele>503.0</ele><time>2026-05-03T15:44:37.461Z</time></trkpt><trkpt lat="44.0395481" lon="8.0444451"><ele>502.50000000000006</ele><time>2026-05-03T15:44:38.46Z</time></trkpt><trkpt lat="44.03948" lon="8.0444897"><ele>502.0</ele><time>2026-05-03T15:44:39.461Z</time></trkpt><trkpt lat="44.0394054" lon="8.0445271"><ele>502.00000000000006</ele><time>2026-05-03T15:44:40.46Z</time></trkpt><trkpt lat="44.0393475" lon="8.0445774"><ele>502.0</ele><time>2026-05-03T15:44:41.465Z</time></trkpt><trkpt lat="44.0392908" lon="8.0446366"><ele>502.0</ele><time>2026-05-03T15:44:42.46Z</time></trkpt><trkpt lat="44.0392431" lon="8.0446982"><ele>502.0</ele><time>2026-05-03T15:44:43.459Z</time></trkpt><trkpt lat="44.0391509" lon="8.0447299"><ele>502.00000000000006</ele><time>2026-05-03T15:44:45.461Z</time></trkpt><trkpt lat="44.0390786" lon="8.0446375"><ele>502.0</ele><time>2026-05-03T15:44:47.465Z</time></trkpt><trkpt lat="44.0390205" lon="8.0444951"><ele>499.33333333333337</ele><time>2026-05-03T15:44:49.464Z</time></trkpt><trkpt lat="44.0390256" lon="8.044407"><ele>496.6666666666667</ele><time>2026-05-03T15:44:51.463Z</time></trkpt><trkpt lat="44.0390131" lon="8.0442542"><ele>494.0</ele><time>2026-05-03T15:44:59.465Z</time></trkpt><trkpt lat="44.0389739" lon="8.0441553"><ele>491.33333333333337</ele><time>2026-05-03T15:45:00.462Z</time></trkpt><trkpt lat="44.0389269" lon="8.0440816"><ele>488.6666666666667</ele><time>2026-05-03T15:45:01.458Z</time></trkpt><trkpt lat="44.038872" lon="8.0440272"><ele>486.0</ele><time>2026-05-03T15:45:02.459Z</time></trkpt><trkpt lat="44.0388142" lon="8.0439593"><ele>486.0</ele><time>2026-05-03T15:45:03.459Z</time></trkpt><trkpt lat="44.0387645" lon="8.0438728"><ele>486.0</ele><time>2026-05-03T15:45:04.461Z</time></trkpt><trkpt lat="44.0387336" lon="8.0437918"><ele>486.0</ele><time>2026-05-03T15:45:05.461Z</time></trkpt><trkpt lat="44.038696" lon="8.0436307"><ele>486.0</ele><time>2026-05-03T15:45:07.461Z</time></trkpt><trkpt lat="44.0386892" lon="8.0434654"><ele>486.0</ele><time>2026-05-03T15:45:09.463Z</time></trkpt><trkpt lat="44.0386776" lon="8.0433684"><ele>489.8</ele><time>2026-05-03T15:45:10.464Z</time></trkpt><trkpt lat="44.0386784" lon="8.0432267"><ele>493.6</ele><time>2026-05-03T15:45:12.462Z</time></trkpt><trkpt lat="44.0386422" lon="8.0430795"><ele>497.4</ele><time>2026-05-03T15:45:14.455Z</time></trkpt><trkpt lat="44.0385567" lon="8.0429899"><ele>501.2</ele><time>2026-05-03T15:45:16.458Z</time></trkpt><trkpt lat="44.03848" lon="8.0429888"><ele>505.0</ele><time>2026-05-03T15:45:17.467Z</time></trkpt><trkpt lat="44.0384178" lon="8.0429655"><ele>505.00000000000006</ele><time>2026-05-03T15:45:18.463Z</time></trkpt><trkpt lat="44.0383327" lon="8.0429297"><ele>505.0</ele><time>2026-05-03T15:45:20.462Z</time></trkpt><trkpt lat="44.0382114" lon="8.0429146"><ele>505.0</ele><time>2026-05-03T15:45:22.462Z</time></trkpt><trkpt lat="44.0381407" lon="8.0429059"><ele>505.0</ele><time>2026-05-03T15:45:23.457Z</time></trkpt><trkpt lat="44.0380702" lon="8.0429036"><ele>505.00000000000006</ele><time>2026-05-03T15:45:24.46Z</time></trkpt><trkpt lat="44.0379911" lon="8.0428965"><ele>505.0</ele><time>2026-05-03T15:45:25.46Z</time></trkpt><trkpt lat="44.0378986" lon="8.0428843"><ele>502.33333333333337</ele><time>2026-05-03T15:45:26.458Z</time></trkpt><trkpt lat="44.0378233" lon="8.0428941"><ele>499.6666666666667</ele><time>2026-05-03T15:45:27.461Z</time></trkpt><trkpt lat="44.0377441" lon="8.0428813"><ele>497.0</ele><time>2026-05-03T15:45:28.46Z</time></trkpt><trkpt lat="44.03767" lon="8.0428531"><ele>494.33333333333337</ele><time>2026-05-03T15:45:29.461Z</time></trkpt><trkpt lat="44.0375903" lon="8.0427983"><ele>491.6666666666667</ele><time>2026-05-03T15:45:31.462Z</time></trkpt><trkpt lat="44.0375496" lon="8.042726"><ele>489.0</ele><time>2026-05-03T15:45:49.465Z</time></trkpt><trkpt lat="44.0375016" lon="8.0426038"><ele>486.5</ele><time>2026-05-03T15:45:51.46Z</time></trkpt><trkpt lat="44.0374715" lon="8.042445"><ele>484.0</ele><time>2026-05-03T15:45:53.464Z</time></trkpt><trkpt lat="44.0374652" lon="8.0423447"><ele>481.5</ele><time>2026-05-03T15:45:54.457Z</time></trkpt><trkpt lat="44.0374775" lon="8.0422561"><ele>479.0</ele><time>2026-05-03T15:45:55.458Z</time></trkpt><trkpt lat="44.0374613" lon="8.0421001"><ele>476.5</ele><time>2026-05-03T15:45:57.46Z</time></trkpt><trkpt lat="44.0374436" lon="8.0420019"><ele>474.0</ele><time>2026-05-03T15:45:58.463Z</time></trkpt><trkpt lat="44.0374293" lon="8.0419148"><ele>474.0</ele><time>2026-05-03T15:45:59.458Z</time></trkpt><trkpt lat="44.0373933" lon="8.0418263"><ele>474.0</ele><time>2026-05-03T15:46:00.458Z</time></trkpt><trkpt lat="44.037311" lon="8.0416943"><ele>474.0</ele><time>2026-05-03T15:46:02.46Z</time></trkpt><trkpt lat="44.0372398" lon="8.0416206"><ele>474.0</ele><time>2026-05-03T15:46:03.461Z</time></trkpt><trkpt lat="44.0371834" lon="8.0415788"><ele>474.0</ele><time>2026-05-03T15:46:04.461Z</time></trkpt><trkpt lat="44.0371276" lon="8.0415328"><ele>474.0</ele><time>2026-05-03T15:46:05.459Z</time></trkpt><trkpt lat="44.0370706" lon="8.0414948"><ele>477.0</ele><time>2026-05-03T15:46:06.459Z</time></trkpt><trkpt lat="44.0370157" lon="8.0413659"><ele>480.0</ele><time>2026-05-03T15:46:08.458Z</time></trkpt><trkpt lat="44.036961" lon="8.0412397"><ele>483.0</ele><time>2026-05-03T15:46:10.462Z</time></trkpt><trkpt lat="44.0369757" lon="8.041117"><ele>486.0</ele><time>2026-05-03T15:46:12.46Z</time></trkpt><trkpt lat="44.0369724" lon="8.0409526"><ele>489.0</ele><time>2026-05-03T15:46:14.46Z</time></trkpt><trkpt lat="44.0369516" lon="8.0408487"><ele>492.4</ele><time>2026-05-03T15:46:15.459Z</time></trkpt><trkpt lat="44.0369273" lon="8.0407017"><ele>495.79999999999995</ele><time>2026-05-03T15:46:17.466Z</time></trkpt><trkpt lat="44.0369037" lon="8.0405522"><ele>499.20000000000005</ele><time>2026-05-03T15:46:19.46Z</time></trkpt><trkpt lat="44.0368803" lon="8.0404509"><ele>502.6</ele><time>2026-05-03T15:46:20.462Z</time></trkpt><trkpt lat="44.0368483" lon="8.0403741"><ele>506.0</ele><time>2026-05-03T15:46:21.465Z</time></trkpt><trkpt lat="44.0368239" lon="8.0402249"><ele>505.99999999999994</ele><time>2026-05-03T15:46:22.462Z</time></trkpt><trkpt lat="44.0367945" lon="8.0401163"><ele>506.0</ele><time>2026-05-03T15:46:23.458Z</time></trkpt><trkpt lat="44.0367304" lon="8.0400361"><ele>506.0</ele><time>2026-05-03T15:46:24.461Z</time></trkpt><trkpt lat="44.0366796" lon="8.0399602"><ele>506.0</ele><time>2026-05-03T15:46:25.459Z</time></trkpt><trkpt lat="44.0366271" lon="8.039878"><ele>505.99999999999994</ele><time>2026-05-03T15:46:26.464Z</time></trkpt><trkpt lat="44.0365895" lon="8.0397829"><ele>506.0</ele><time>2026-05-03T15:46:27.461Z</time></trkpt><trkpt lat="44.0365549" lon="8.0396883"><ele>504.66666666666663</ele><time>2026-05-03T15:46:28.46Z</time></trkpt><trkpt lat="44.0365224" lon="8.0395704"><ele>503.3333333333333</ele><time>2026-05-03T15:46:29.459Z</time></trkpt><trkpt lat="44.0364918" lon="8.0394666"><ele>502.0</ele><time>2026-05-03T15:46:30.46Z</time></trkpt><trkpt lat="44.0364678" lon="8.039363"><ele>500.66666666666663</ele><time>2026-05-03T15:46:31.459Z</time></trkpt><trkpt lat="44.0364617" lon="8.0392692"><ele>499.3333333333333</ele><time>2026-05-03T15:46:32.462Z</time></trkpt><trkpt lat="44.0364567" lon="8.0391178"><ele>498.0</ele><time>2026-05-03T15:46:34.458Z</time></trkpt><trkpt lat="44.0364139" lon="8.0389545"><ele>498.0</ele><time>2026-05-03T15:46:36.462Z</time></trkpt><trkpt lat="44.0363689" lon="8.0388652"><ele>497.99999999999994</ele><time>2026-05-03T15:46:37.458Z</time></trkpt><trkpt lat="44.0363153" lon="8.038771"><ele>497.99999999999994</ele><time>2026-05-03T15:46:38.46Z</time></trkpt><trkpt lat="44.0362402" lon="8.0386814"><ele>498.0</ele><time>2026-05-03T15:46:39.462Z</time></trkpt><trkpt lat="44.0361579" lon="8.0386018"><ele>498.0</ele><time>2026-05-03T15:46:40.454Z</time></trkpt><trkpt lat="44.0360901" lon="8.0385195"><ele>498.0</ele><time>2026-05-03T15:46:41.46Z</time></trkpt><trkpt lat="44.0360486" lon="8.0384259"><ele>498.0</ele><time>2026-05-03T15:46:42.462Z</time></trkpt><trkpt lat="44.0359925" lon="8.0383486"><ele>498.0</ele><time>2026-05-03T15:46:43.462Z</time></trkpt><trkpt lat="44.0359441" lon="8.0382806"><ele>498.0</ele><time>2026-05-03T15:46:44.46Z</time></trkpt><trkpt lat="44.0358843" lon="8.038162"><ele>498.0</ele><time>2026-05-03T15:46:46.465Z</time></trkpt><trkpt lat="44.0359062" lon="8.0380635"><ele>498.0</ele><time>2026-05-03T15:46:48.463Z</time></trkpt><trkpt lat="44.0359888" lon="8.0379661"><ele>497.5</ele><time>2026-05-03T15:46:50.467Z</time></trkpt><trkpt lat="44.0360863" lon="8.0378626"><ele>497.0</ele><time>2026-05-03T15:46:52.46Z</time></trkpt><trkpt lat="44.0361484" lon="8.0378312"><ele>496.5</ele><time>2026-05-03T15:46:53.459Z</time></trkpt><trkpt lat="44.036215" lon="8.0378074"><ele>496.0</ele><time>2026-05-03T15:46:54.461Z</time></trkpt><trkpt lat="44.0362811" lon="8.0377602"><ele>495.5</ele><time>2026-05-03T15:46:55.465Z</time></trkpt><trkpt lat="44.0363742" lon="8.0376957"><ele>495.0</ele><time>2026-05-03T15:46:57.463Z</time></trkpt><trkpt lat="44.03648" lon="8.0376743"><ele>495.0</ele><time>2026-05-03T15:46:59.457Z</time></trkpt><trkpt lat="44.0365464" lon="8.0377037"><ele>495.0</ele><time>2026-05-03T15:47:00.467Z</time></trkpt><trkpt lat="44.0366628" lon="8.0377753"><ele>495.0</ele><time>2026-05-03T15:47:02.464Z</time></trkpt><trkpt lat="44.0367158" lon="8.0378319"><ele>495.0</ele><time>2026-05-03T15:47:03.458Z</time></trkpt><trkpt lat="44.036776" lon="8.0378874"><ele>495.0</ele><time>2026-05-03T15:47:04.458Z</time></trkpt><trkpt lat="44.0368765" lon="8.0379087"><ele>495.0</ele><time>2026-05-03T15:47:06.461Z</time></trkpt><trkpt lat="44.0369424" lon="8.0379134"><ele>496.3333333333333</ele><time>2026-05-03T15:47:07.471Z</time></trkpt><trkpt lat="44.0370133" lon="8.037875"><ele>497.66666666666663</ele><time>2026-05-03T15:47:08.457Z</time></trkpt><trkpt lat="44.0370773" lon="8.0378754"><ele>499.0</ele><time>2026-05-03T15:47:09.461Z</time></trkpt><trkpt lat="44.0371474" lon="8.037855"><ele>500.3333333333333</ele><time>2026-05-03T15:47:10.459Z</time></trkpt><trkpt lat="44.0372492" lon="8.0377811"><ele>501.66666666666663</ele><time>2026-05-03T15:47:13.459Z</time></trkpt><trkpt lat="44.0372989" lon="8.0377046"><ele>503.0</ele><time>2026-05-03T15:47:14.467Z</time></trkpt><trkpt lat="44.0373403" lon="8.0376036"><ele>503.0</ele><time>2026-05-03T15:47:15.467Z</time></trkpt><trkpt lat="44.0374211" lon="8.0374954"><ele>502.99999999999994</ele><time>2026-05-03T15:47:16.462Z</time></trkpt><trkpt lat="44.0374734" lon="8.0373546"><ele>502.99999999999994</ele><time>2026-05-03T15:47:17.458Z</time></trkpt><trkpt lat="44.0375469" lon="8.0372646"><ele>503.0</ele><time>2026-05-03T15:47:18.459Z</time></trkpt><trkpt lat="44.037615" lon="8.0371497"><ele>503.0</ele><time>2026-05-03T15:47:19.461Z</time></trkpt><trkpt lat="44.0376764" lon="8.0370585"><ele>502.99999999999994</ele><time>2026-05-03T15:47:20.462Z</time></trkpt><trkpt lat="44.0377281" lon="8.0369778"><ele>503.0</ele><time>2026-05-03T15:47:21.461Z</time></trkpt><trkpt lat="44.0377585" lon="8.0368845"><ele>503.0</ele><time>2026-05-03T15:47:22.464Z</time></trkpt><trkpt lat="44.0377513" lon="8.0367538"><ele>503.0</ele><time>2026-05-03T15:47:23.461Z</time></trkpt><trkpt lat="44.0377604" lon="8.036638"><ele>502.99999999999994</ele><time>2026-05-03T15:47:24.462Z</time></trkpt><trkpt lat="44.0377796" lon="8.0365289"><ele>503.0</ele><time>2026-05-03T15:47:25.457Z</time></trkpt><trkpt lat="44.0377849" lon="8.0364028"><ele>501.99999999999994</ele><time>2026-05-03T15:47:26.463Z</time></trkpt><trkpt lat="44.0378314" lon="8.0363048"><ele>501.0</ele><time>2026-05-03T15:47:27.458Z</time></trkpt><trkpt lat="44.0378591" lon="8.0362064"><ele>500.0</ele><time>2026-05-03T15:47:28.459Z</time></trkpt><trkpt lat="44.0378881" lon="8.0360999"><ele>499.0</ele><time>2026-05-03T15:47:29.463Z</time></trkpt><trkpt lat="44.0379182" lon="8.0360097"><ele>497.99999999999994</ele><time>2026-05-03T15:47:30.463Z</time></trkpt><trkpt lat="44.0379574" lon="8.0359278"><ele>497.0</ele><time>2026-05-03T15:47:31.459Z</time></trkpt><trkpt lat="44.0379883" lon="8.0358358"><ele>496.3333333333333</ele><time>2026-05-03T15:47:32.462Z</time></trkpt><trkpt lat="44.0380114" lon="8.0357377"><ele>495.66666666666663</ele><time>2026-05-03T15:47:33.459Z</time></trkpt><trkpt lat="44.0380304" lon="8.0356347"><ele>495.0</ele><time>2026-05-03T15:47:34.457Z</time></trkpt><trkpt lat="44.0380622" lon="8.0355435"><ele>494.33333333333337</ele><time>2026-05-03T15:47:35.46Z</time></trkpt><trkpt lat="44.0381022" lon="8.0354516"><ele>493.6666666666667</ele><time>2026-05-03T15:47:36.458Z</time></trkpt><trkpt lat="44.038171" lon="8.0353781"><ele>493.0</ele><time>2026-05-03T15:47:37.459Z</time></trkpt><trkpt lat="44.0382095" lon="8.0352847"><ele>493.0</ele><time>2026-05-03T15:47:38.463Z</time></trkpt><trkpt lat="44.0382386" lon="8.035199"><ele>492.99999999999994</ele><time>2026-05-03T15:47:39.464Z</time></trkpt><trkpt lat="44.038282" lon="8.0351091"><ele>492.99999999999994</ele><time>2026-05-03T15:47:40.458Z</time></trkpt><trkpt lat="44.0383613" lon="8.0349584"><ele>493.0</ele><time>2026-05-03T15:47:42.458Z</time></trkpt><trkpt lat="44.0383746" lon="8.0348054"><ele>493.0</ele><time>2026-05-03T15:47:44.459Z</time></trkpt><trkpt lat="44.0383782" lon="8.0346871"><ele>494.50000000000006</ele><time>2026-05-03T15:47:45.462Z</time></trkpt><trkpt lat="44.0383991" lon="8.0345974"><ele>496.0</ele><time>2026-05-03T15:47:46.464Z</time></trkpt><trkpt lat="44.038444" lon="8.0344927"><ele>497.5</ele><time>2026-05-03T15:47:47.464Z</time></trkpt><trkpt lat="44.0384979" lon="8.0344273"><ele>499.0</ele><time>2026-05-03T15:47:48.463Z</time></trkpt><trkpt lat="44.0385746" lon="8.0342882"><ele>500.50000000000006</ele><time>2026-05-03T15:47:50.466Z</time></trkpt><trkpt lat="44.0386023" lon="8.0341907"><ele>502.0</ele><time>2026-05-03T15:47:51.462Z</time></trkpt><trkpt lat="44.0386033" lon="8.0340556"><ele>502.0</ele><time>2026-05-03T15:47:52.463Z</time></trkpt><trkpt lat="44.0386045" lon="8.0339053"><ele>502.00000000000006</ele><time>2026-05-03T15:47:53.46Z</time></trkpt><trkpt lat="44.038608" lon="8.0337912"><ele>502.00000000000006</ele><time>2026-05-03T15:47:54.459Z</time></trkpt><trkpt lat="44.0386093" lon="8.0336651"><ele>502.0</ele><time>2026-05-03T15:47:55.459Z</time></trkpt><trkpt lat="44.0386308" lon="8.0335453"><ele>502.0</ele><time>2026-05-03T15:47:56.461Z</time></trkpt><trkpt lat="44.0386949" lon="8.0334159"><ele>502.0</ele><time>2026-05-03T15:47:58.465Z</time></trkpt><trkpt lat="44.0388042" lon="8.03332"><ele>502.00000000000006</ele><time>2026-05-03T15:48:00.467Z</time></trkpt><trkpt lat="44.0388904" lon="8.0332555"><ele>502.00000000000006</ele><time>2026-05-03T15:48:02.459Z</time></trkpt><trkpt lat="44.0389254" lon="8.0331312"><ele>502.0</ele><time>2026-05-03T15:48:04.46Z</time></trkpt><trkpt lat="44.0389287" lon="8.0330343"><ele>502.0</ele><time>2026-05-03T15:48:05.463Z</time></trkpt><trkpt lat="44.0389471" lon="8.0329212"><ele>500.1666666666667</ele><time>2026-05-03T15:48:06.459Z</time></trkpt><trkpt lat="44.0389893" lon="8.0328318"><ele>498.33333333333337</ele><time>2026-05-03T15:48:07.459Z</time></trkpt><trkpt lat="44.0390327" lon="8.0327444"><ele>496.5</ele><time>2026-05-03T15:48:08.46Z</time></trkpt><trkpt lat="44.0390522" lon="8.0326565"><ele>494.66666666666663</ele><time>2026-05-03T15:48:09.461Z</time></trkpt><trkpt lat="44.0390512" lon="8.0325448"><ele>492.8333333333333</ele><time>2026-05-03T15:48:10.459Z</time></trkpt><trkpt lat="44.0390284" lon="8.032374"><ele>491.0</ele><time>2026-05-03T15:48:11.457Z</time></trkpt><trkpt lat="44.0390123" lon="8.0322612"><ele>489.99999999999994</ele><time>2026-05-03T15:48:12.458Z</time></trkpt><trkpt lat="44.0390003" lon="8.0321498"><ele>489.0</ele><time>2026-05-03T15:48:13.46Z</time></trkpt><trkpt lat="44.0389958" lon="8.0320465"><ele>488.0</ele><time>2026-05-03T15:48:14.458Z</time></trkpt><trkpt lat="44.0390135" lon="8.0318998"><ele>487.0</ele><time>2026-05-03T15:48:16.459Z</time></trkpt><trkpt lat="44.0390641" lon="8.0318457"><ele>485.99999999999994</ele><time>2026-05-03T15:48:17.463Z</time></trkpt><trkpt lat="44.0391319" lon="8.0317408"><ele>485.0</ele><time>2026-05-03T15:48:19.46Z</time></trkpt><trkpt lat="44.0391129" lon="8.03159"><ele>484.99999999999994</ele><time>2026-05-03T15:48:21.463Z</time></trkpt><trkpt lat="44.0390969" lon="8.0315053"><ele>485.0</ele><time>2026-05-03T15:48:22.464Z</time></trkpt><trkpt lat="44.0390698" lon="8.0314184"><ele>485.0</ele><time>2026-05-03T15:48:23.467Z</time></trkpt><trkpt lat="44.0390667" lon="8.0313281"><ele>485.0</ele><time>2026-05-03T15:48:24.461Z</time></trkpt><trkpt lat="44.0390897" lon="8.0311217"><ele>484.99999999999994</ele><time>2026-05-03T15:48:26.459Z</time></trkpt><trkpt lat="44.0391065" lon="8.0310089"><ele>485.0</ele><time>2026-05-03T15:48:27.464Z</time></trkpt><trkpt lat="44.0391085" lon="8.0309083"><ele>485.0</ele><time>2026-05-03T15:48:28.458Z</time></trkpt><trkpt lat="44.0390708" lon="8.0308286"><ele>485.0</ele><time>2026-05-03T15:48:30.461Z</time></trkpt><trkpt lat="44.0389635" lon="8.0307119"><ele>485.0</ele><time>2026-05-03T15:48:32.459Z</time></trkpt><trkpt lat="44.0389228" lon="8.0306238"><ele>485.0</ele><time>2026-05-03T15:48:33.462Z</time></trkpt><trkpt lat="44.0388901" lon="8.0304924"><ele>485.0</ele><time>2026-05-03T15:48:34.458Z</time></trkpt><trkpt lat="44.0388591" lon="8.030395"><ele>485.49999999999994</ele><time>2026-05-03T15:48:35.458Z</time></trkpt><trkpt lat="44.0387986" lon="8.0302956"><ele>486.0</ele><time>2026-05-03T15:48:36.458Z</time></trkpt><trkpt lat="44.0387312" lon="8.0302224"><ele>486.5</ele><time>2026-05-03T15:48:37.458Z</time></trkpt><trkpt lat="44.038688" lon="8.0301495"><ele>487.0</ele><time>2026-05-03T15:48:38.46Z</time></trkpt><trkpt lat="44.0386399" lon="8.030034"><ele>487.49999999999994</ele><time>2026-05-03T15:48:40.455Z</time></trkpt><trkpt lat="44.0386755" lon="8.0298964"><ele>488.0</ele><time>2026-05-03T15:48:42.46Z</time></trkpt><trkpt lat="44.0387201" lon="8.0298133"><ele>487.99999999999994</ele><time>2026-05-03T15:48:43.469Z</time></trkpt><trkpt lat="44.0387705" lon="8.029711"><ele>488.0</ele><time>2026-05-03T15:48:44.461Z</time></trkpt><trkpt lat="44.0388067" lon="8.029618"><ele>488.0</ele><time>2026-05-03T15:48:45.459Z</time></trkpt><trkpt lat="44.038848" lon="8.0295186"><ele>488.0</ele><time>2026-05-03T15:48:46.46Z</time></trkpt><trkpt lat="44.0388586" lon="8.0294294"><ele>487.99999999999994</ele><time>2026-05-03T15:48:47.459Z</time></trkpt><trkpt lat="44.0388917" lon="8.0293159"><ele>488.0</ele><time>2026-05-03T15:48:48.46Z</time></trkpt><trkpt lat="44.0389134" lon="8.0292191"><ele>489.79999999999995</ele><time>2026-05-03T15:48:49.459Z</time></trkpt><trkpt lat="44.0389468" lon="8.0290688"><ele>491.59999999999997</ele><time>2026-05-03T15:48:51.462Z</time></trkpt><trkpt lat="44.0389399" lon="8.0289107"><ele>493.40000000000003</ele><time>2026-05-03T15:48:53.462Z</time></trkpt><trkpt lat="44.0388967" lon="8.0288151"><ele>495.20000000000005</ele><time>2026-05-03T15:48:54.466Z</time></trkpt><trkpt lat="44.0388341" lon="8.0286466"><ele>497.0</ele><time>2026-05-03T15:48:56.458Z</time></trkpt><trkpt lat="44.0387858" lon="8.0285863"><ele>497.0</ele><time>2026-05-03T15:48:57.459Z</time></trkpt><trkpt lat="44.0387003" lon="8.0284499"><ele>497.00000000000006</ele><time>2026-05-03T15:48:59.459Z</time></trkpt><trkpt lat="44.0386799" lon="8.0283092"><ele>497.00000000000006</ele><time>2026-05-03T15:49:01.462Z</time></trkpt><trkpt lat="44.038755" lon="8.0281709"><ele>497.0</ele><time>2026-05-03T15:49:03.466Z</time></trkpt><trkpt lat="44.0387998" lon="8.0281"><ele>497.0</ele><time>2026-05-03T15:49:04.462Z</time></trkpt><trkpt lat="44.0388371" lon="8.0279622"><ele>498.3333333333333</ele><time>2026-05-03T15:49:06.46Z</time></trkpt><trkpt lat="44.0388214" lon="8.0278725"><ele>499.66666666666663</ele><time>2026-05-03T15:49:07.462Z</time></trkpt><trkpt lat="44.0387856" lon="8.0277875"><ele>501.0</ele><time>2026-05-03T15:49:08.464Z</time></trkpt><trkpt lat="44.0387397" lon="8.0276487"><ele>502.33333333333337</ele><time>2026-05-03T15:49:10.457Z</time></trkpt><trkpt lat="44.0387252" lon="8.0275485"><ele>503.6666666666667</ele><time>2026-05-03T15:49:11.459Z</time></trkpt><trkpt lat="44.0387189" lon="8.0274496"><ele>505.0</ele><time>2026-05-03T15:49:12.455Z</time></trkpt><trkpt lat="44.0387465" lon="8.0272825"><ele>507.6</ele><time>2026-05-03T15:49:14.46Z</time></trkpt><trkpt lat="44.0386998" lon="8.0271452"><ele>510.2</ele><time>2026-05-03T15:49:16.461Z</time></trkpt><trkpt lat="44.0385896" lon="8.027179"><ele>512.8</ele><time>2026-05-03T15:49:17.465Z</time></trkpt><trkpt lat="44.038487" lon="8.0271229"><ele>515.4</ele><time>2026-05-03T15:49:19.46Z</time></trkpt><trkpt lat="44.0384284" lon="8.0270134"><ele>518.0</ele><time>2026-05-03T15:49:21.461Z</time></trkpt><trkpt lat="44.0384162" lon="8.0268003"><ele>518.0</ele><time>2026-05-03T15:49:23.465Z</time></trkpt><trkpt lat="44.0384229" lon="8.0266939"><ele>518.0</ele><time>2026-05-03T15:49:24.46Z</time></trkpt><trkpt lat="44.0384384" lon="8.0265907"><ele>518.0</ele><time>2026-05-03T15:49:25.465Z</time></trkpt><trkpt lat="44.0384323" lon="8.0264995"><ele>518.0</ele><time>2026-05-03T15:49:26.46Z</time></trkpt><trkpt lat="44.0383765" lon="8.0263467"><ele>518.0</ele><time>2026-05-03T15:49:28.46Z</time></trkpt><trkpt lat="44.0382817" lon="8.0262462"><ele>516.6</ele><time>2026-05-03T15:49:30.462Z</time></trkpt><trkpt lat="44.0382198" lon="8.0260916"><ele>515.1999999999999</ele><time>2026-05-03T15:49:32.462Z</time></trkpt><trkpt lat="44.0382043" lon="8.0259302"><ele>513.8</ele><time>2026-05-03T15:49:34.461Z</time></trkpt><trkpt lat="44.0381971" lon="8.0258292"><ele>512.4</ele><time>2026-05-03T15:49:35.46Z</time></trkpt><trkpt lat="44.0381855" lon="8.0257403"><ele>511.0</ele><time>2026-05-03T15:49:36.458Z</time></trkpt><trkpt lat="44.0381434" lon="8.0256375"><ele>511.00000000000006</ele><time>2026-05-03T15:49:37.459Z</time></trkpt><trkpt lat="44.0381111" lon="8.0255373"><ele>511.0</ele><time>2026-05-03T15:49:38.458Z</time></trkpt><trkpt lat="44.0380637" lon="8.0254367"><ele>511.0</ele><time>2026-05-03T15:49:39.461Z</time></trkpt><trkpt lat="44.0379996" lon="8.0253647"><ele>511.0</ele><time>2026-05-03T15:49:40.46Z</time></trkpt><trkpt lat="44.0379372" lon="8.025296"><ele>511.00000000000006</ele><time>2026-05-03T15:49:41.459Z</time></trkpt><trkpt lat="44.0378889" lon="8.0252204"><ele>511.0</ele><time>2026-05-03T15:49:42.456Z</time></trkpt><trkpt lat="44.0378441" lon="8.0251418"><ele>511.0</ele><time>2026-05-03T15:49:43.457Z</time></trkpt><trkpt lat="44.0377977" lon="8.0250058"><ele>511.0</ele><time>2026-05-03T15:49:45.461Z</time></trkpt><trkpt lat="44.0377339" lon="8.0248888"><ele>511.0</ele><time>2026-05-03T15:49:47.462Z</time></trkpt><trkpt lat="44.0376615" lon="8.0248651"><ele>511.0</ele><time>2026-05-03T15:49:48.464Z</time></trkpt><trkpt lat="44.0375976" lon="8.0248338"><ele>511.0</ele><time>2026-05-03T15:49:49.463Z</time></trkpt><trkpt lat="44.0375096" lon="8.0247113"><ele>515.0</ele><time>2026-05-03T15:49:51.461Z</time></trkpt><trkpt lat="44.0374693" lon="8.0245259"><ele>519.0</ele><time>2026-05-03T15:49:53.463Z</time></trkpt><trkpt lat="44.0374738" lon="8.0244153"><ele>523.0</ele><time>2026-05-03T15:49:54.458Z</time></trkpt><trkpt lat="44.0374812" lon="8.024295"><ele>527.0</ele><time>2026-05-03T15:49:55.459Z</time></trkpt><trkpt lat="44.0374727" lon="8.0242015"><ele>531.0</ele><time>2026-05-03T15:49:56.466Z</time></trkpt><trkpt lat="44.0374645" lon="8.0240947"><ele>531.0</ele><time>2026-05-03T15:49:57.459Z</time></trkpt><trkpt lat="44.0374371" lon="8.0240157"><ele>531.0</ele><time>2026-05-03T15:49:58.462Z</time></trkpt><trkpt lat="44.0373928" lon="8.023946"><ele>531.0</ele><time>2026-05-03T15:49:59.462Z</time></trkpt><trkpt lat="44.0373046" lon="8.0238458"><ele>531.0</ele><time>2026-05-03T15:50:01.463Z</time></trkpt><trkpt lat="44.0372261" lon="8.0238299"><ele>531.0</ele><time>2026-05-03T15:50:02.461Z</time></trkpt><trkpt lat="44.0371477" lon="8.0238268"><ele>531.0</ele><time>2026-05-03T15:50:03.459Z</time></trkpt><trkpt lat="44.0370652" lon="8.023839"><ele>531.0</ele><time>2026-05-03T15:50:04.461Z</time></trkpt><trkpt lat="44.0369766" lon="8.0238497"><ele>531.0</ele><time>2026-05-03T15:50:05.459Z</time></trkpt><trkpt lat="44.0368943" lon="8.0238638"><ele>531.0</ele><time>2026-05-03T15:50:06.47Z</time></trkpt><trkpt lat="44.0368171" lon="8.0238692"><ele>531.0</ele><time>2026-05-03T15:50:07.461Z</time></trkpt><trkpt lat="44.0367121" lon="8.0238533"><ele>531.0</ele><time>2026-05-03T15:50:09.462Z</time></trkpt><trkpt lat="44.0366567" lon="8.0237896"><ele>531.0</ele><time>2026-05-03T15:50:11.46Z</time></trkpt><trkpt lat="44.0366515" lon="8.0236509"><ele>531.0</ele><time>2026-05-03T15:50:13.456Z</time></trkpt><trkpt lat="44.0366496" lon="8.0235606"><ele>531.0</ele><time>2026-05-03T15:50:14.456Z</time></trkpt><trkpt lat="44.0366407" lon="8.02347"><ele>531.0</ele><time>2026-05-03T15:50:15.461Z</time></trkpt><trkpt lat="44.0366173" lon="8.0233044"><ele>531.0</ele><time>2026-05-03T15:50:17.462Z</time></trkpt><trkpt lat="44.0366159" lon="8.0232028"><ele>531.0</ele><time>2026-05-03T15:50:19.462Z</time></trkpt><trkpt lat="44.0365759" lon="8.0230769"><ele>531.0</ele><time>2026-05-03T15:52:38.459Z</time></trkpt><trkpt lat="44.0365398" lon="8.0229782"><ele>528.8</ele><time>2026-05-03T15:52:40.459Z</time></trkpt><trkpt lat="44.036489" lon="8.0228982"><ele>526.6</ele><time>2026-05-03T15:52:43.457Z</time></trkpt><trkpt lat="44.0363856" lon="8.0228397"><ele>524.4</ele><time>2026-05-03T15:52:45.459Z</time></trkpt><trkpt lat="44.0362893" lon="8.0227912"><ele>522.2</ele><time>2026-05-03T15:52:47.467Z</time></trkpt><trkpt lat="44.0361802" lon="8.0227958"><ele>520.0</ele><time>2026-05-03T15:52:49.459Z</time></trkpt><trkpt lat="44.036091" lon="8.0227947"><ele>520.0</ele><time>2026-05-03T15:52:51.461Z</time></trkpt><trkpt lat="44.0359959" lon="8.0227368"><ele>520.0</ele><time>2026-05-03T15:52:53.457Z</time></trkpt><trkpt lat="44.0359237" lon="8.0226171"><ele>520.0</ele><time>2026-05-03T15:52:55.466Z</time></trkpt><trkpt lat="44.0359038" lon="8.0225284"><ele>520.0</ele><time>2026-05-03T15:52:56.466Z</time></trkpt><trkpt lat="44.0358883" lon="8.0224286"><ele>520.0</ele><time>2026-05-03T15:52:57.462Z</time></trkpt><trkpt lat="44.035874" lon="8.0223373"><ele>520.0</ele><time>2026-05-03T15:52:58.458Z</time></trkpt><trkpt lat="44.0358421" lon="8.0222077"><ele>519.3333333333334</ele><time>2026-05-03T15:53:00.458Z</time></trkpt><trkpt lat="44.0357651" lon="8.0221358"><ele>518.6666666666667</ele><time>2026-05-03T15:53:02.463Z</time></trkpt><trkpt lat="44.0356964" lon="8.0221252"><ele>518.0</ele><time>2026-05-03T15:53:03.462Z</time></trkpt><trkpt lat="44.035616" lon="8.0221362"><ele>517.3333333333334</ele><time>2026-05-03T15:53:04.465Z</time></trkpt><trkpt lat="44.035528" lon="8.022124"><ele>516.6666666666666</ele><time>2026-05-03T15:53:05.46Z</time></trkpt><trkpt lat="44.0354614" lon="8.0221096"><ele>516.0</ele><time>2026-05-03T15:53:06.466Z</time></trkpt><trkpt lat="44.0353877" lon="8.0220924"><ele>516.0</ele><time>2026-05-03T15:53:07.459Z</time></trkpt><trkpt lat="44.0353128" lon="8.0220171"><ele>516.0</ele><time>2026-05-03T15:53:09.458Z</time></trkpt><trkpt lat="44.035274" lon="8.0218952"><ele>516.0</ele><time>2026-05-03T15:53:11.458Z</time></trkpt><trkpt lat="44.0352552" lon="8.0217175"><ele>516.0</ele><time>2026-05-03T15:53:13.464Z</time></trkpt><trkpt lat="44.0352332" lon="8.021608"><ele>516.0</ele><time>2026-05-03T15:53:14.457Z</time></trkpt><trkpt lat="44.0352028" lon="8.0215175"><ele>519.6666666666666</ele><time>2026-05-03T15:53:15.46Z</time></trkpt><trkpt lat="44.0351539" lon="8.021436"><ele>523.3333333333334</ele><time>2026-05-03T15:53:16.461Z</time></trkpt><trkpt lat="44.0350895" lon="8.0213497"><ele>527.0</ele><time>2026-05-03T15:53:17.458Z</time></trkpt><trkpt lat="44.035043" lon="8.021255"><ele>530.6666666666667</ele><time>2026-05-03T15:53:18.46Z</time></trkpt><trkpt lat="44.0350099" lon="8.0211643"><ele>534.3333333333334</ele><time>2026-05-03T15:53:19.46Z</time></trkpt><trkpt lat="44.0349749" lon="8.0210825"><ele>538.0</ele><time>2026-05-03T15:53:20.458Z</time></trkpt><trkpt lat="44.0349428" lon="8.0209954"><ele>538.0</ele><time>2026-05-03T15:53:21.461Z</time></trkpt><trkpt lat="44.0348894" lon="8.0209485"><ele>538.0</ele><time>2026-05-03T15:53:22.459Z</time></trkpt><trkpt lat="44.0348017" lon="8.020939"><ele>538.0</ele><time>2026-05-03T15:53:23.464Z</time></trkpt><trkpt lat="44.0347395" lon="8.0209951"><ele>538.0</ele><time>2026-05-03T15:53:24.462Z</time></trkpt><trkpt lat="44.0346621" lon="8.0210383"><ele>538.0</ele><time>2026-05-03T15:53:25.46Z</time></trkpt><trkpt lat="44.0345621" lon="8.0210169"><ele>538.0</ele><time>2026-05-03T15:53:26.46Z</time></trkpt><trkpt lat="44.0344891" lon="8.0210106"><ele>538.0</ele><time>2026-05-03T15:53:27.458Z</time></trkpt><trkpt lat="44.0344123" lon="8.0209694"><ele>538.0</ele><time>2026-05-03T15:53:28.461Z</time></trkpt><trkpt lat="44.0343315" lon="8.0209636"><ele>538.0</ele><time>2026-05-03T15:53:29.458Z</time></trkpt><trkpt lat="44.034239" lon="8.0209509"><ele>538.0</ele><time>2026-05-03T15:53:30.458Z</time></trkpt><trkpt lat="44.0341539" lon="8.0209554"><ele>538.0</ele><time>2026-05-03T15:53:31.458Z</time></trkpt><trkpt lat="44.0340696" lon="8.0209493"><ele>538.0</ele><time>2026-05-03T15:53:32.458Z</time></trkpt><trkpt lat="44.0339894" lon="8.0209491"><ele>534.0</ele><time>2026-05-03T15:53:33.464Z</time></trkpt><trkpt lat="44.0338972" lon="8.0209463"><ele>530.0</ele><time>2026-05-03T15:53:34.46Z</time></trkpt><trkpt lat="44.0338249" lon="8.0209335"><ele>526.0</ele><time>2026-05-03T15:53:35.46Z</time></trkpt><trkpt lat="44.0337614" lon="8.0209051"><ele>522.0</ele><time>2026-05-03T15:53:36.463Z</time></trkpt><trkpt lat="44.0336639" lon="8.0208655"><ele>518.0</ele><time>2026-05-03T15:53:38.455Z</time></trkpt><trkpt lat="44.0335836" lon="8.0207654"><ele>514.0</ele><time>2026-05-03T15:53:40.457Z</time></trkpt><trkpt lat="44.0335239" lon="8.0206471"><ele>514.0</ele><time>2026-05-03T15:53:42.461Z</time></trkpt><trkpt lat="44.0334857" lon="8.0205465"><ele>514.0</ele><time>2026-05-03T15:53:44.458Z</time></trkpt><trkpt lat="44.0334651" lon="8.0204532"><ele>514.0</ele><time>2026-05-03T15:53:46.463Z</time></trkpt><trkpt lat="44.0334714" lon="8.020348"><ele>514.0</ele><time>2026-05-03T15:53:48.457Z</time></trkpt><trkpt lat="44.0334981" lon="8.0202083"><ele>514.0</ele><time>2026-05-03T15:53:50.461Z</time></trkpt><trkpt lat="44.0335102" lon="8.0201177"><ele>514.0</ele><time>2026-05-03T15:53:51.465Z</time></trkpt><trkpt lat="44.0335358" lon="8.0199744"><ele>512.2</ele><time>2026-05-03T15:53:52.466Z</time></trkpt><trkpt lat="44.033548" lon="8.0198689"><ele>510.4</ele><time>2026-05-03T15:53:53.458Z</time></trkpt><trkpt lat="44.0335008" lon="8.0196849"><ele>508.6</ele><time>2026-05-03T15:53:54.46Z</time></trkpt><trkpt lat="44.033496" lon="8.0195448"><ele>506.8</ele><time>2026-05-03T15:53:55.462Z</time></trkpt><trkpt lat="44.033489" lon="8.019409"><ele>505.0</ele><time>2026-05-03T15:53:56.459Z</time></trkpt><trkpt lat="44.0335096" lon="8.0192807"><ele>505.1666666666667</ele><time>2026-05-03T15:53:57.461Z</time></trkpt><trkpt lat="44.033517" lon="8.0191473"><ele>505.33333333333337</ele><time>2026-05-03T15:53:58.458Z</time></trkpt><trkpt lat="44.0335398" lon="8.0190212"><ele>505.5</ele><time>2026-05-03T15:53:59.458Z</time></trkpt><trkpt lat="44.0335512" lon="8.0189045"><ele>505.66666666666663</ele><time>2026-05-03T15:54:00.464Z</time></trkpt><trkpt lat="44.0335482" lon="8.0188021"><ele>505.8333333333333</ele><time>2026-05-03T15:54:01.461Z</time></trkpt><trkpt lat="44.0335639" lon="8.0187006"><ele>506.0</ele><time>2026-05-03T15:54:02.463Z</time></trkpt><trkpt lat="44.0335974" lon="8.0185667"><ele>505.99999999999994</ele><time>2026-05-03T15:54:04.461Z</time></trkpt><trkpt lat="44.0335571" lon="8.0184238"><ele>506.0</ele><time>2026-05-03T15:54:06.457Z</time></trkpt><trkpt lat="44.0335064" lon="8.0183543"><ele>506.0</ele><time>2026-05-03T15:54:07.465Z</time></trkpt><trkpt lat="44.0334577" lon="8.0182802"><ele>506.0</ele><time>2026-05-03T15:54:08.459Z</time></trkpt><trkpt lat="44.0333975" lon="8.0182057"><ele>505.99999999999994</ele><time>2026-05-03T15:54:09.456Z</time></trkpt><trkpt lat="44.0333461" lon="8.0181395"><ele>506.0</ele><time>2026-05-03T15:54:10.455Z</time></trkpt><trkpt lat="44.0332914" lon="8.0180879"><ele>496.4</ele><time>2026-05-03T15:54:11.456Z</time></trkpt><trkpt lat="44.0332247" lon="8.0180492"><ele>486.8</ele><time>2026-05-03T15:54:12.464Z</time></trkpt><trkpt lat="44.0331577" lon="8.0179991"><ele>477.19999999999993</ele><time>2026-05-03T15:54:13.458Z</time></trkpt><trkpt lat="44.0331075" lon="8.0179316"><ele>467.59999999999997</ele><time>2026-05-03T15:54:14.46Z</time></trkpt><trkpt lat="44.0330724" lon="8.0177616"><ele>458.0</ele><time>2026-05-03T15:54:16.459Z</time></trkpt><trkpt lat="44.0330782" lon="8.017607"><ele>457.99999999999994</ele><time>2026-05-03T15:54:18.459Z</time></trkpt><trkpt lat="44.0331186" lon="8.017534"><ele>458.0</ele><time>2026-05-03T15:54:19.459Z</time></trkpt><trkpt lat="44.0331598" lon="8.0174638"><ele>458.0</ele><time>2026-05-03T15:54:20.465Z</time></trkpt><trkpt lat="44.0332082" lon="8.0174046"><ele>458.0</ele><time>2026-05-03T15:54:21.463Z</time></trkpt><trkpt lat="44.0332535" lon="8.0173419"><ele>457.99999999999994</ele><time>2026-05-03T15:54:22.461Z</time></trkpt><trkpt lat="44.0332784" lon="8.0171806"><ele>458.0</ele><time>2026-05-03T15:54:24.463Z</time></trkpt><trkpt lat="44.0332721" lon="8.0170481"><ele>456.99999999999994</ele><time>2026-05-03T15:54:26.458Z</time></trkpt><trkpt lat="44.0332637" lon="8.0169299"><ele>456.0</ele><time>2026-05-03T15:54:39.462Z</time></trkpt><trkpt lat="44.0332684" lon="8.0168363"><ele>455.0</ele><time>2026-05-03T15:54:40.467Z</time></trkpt><trkpt lat="44.0332677" lon="8.0167308"><ele>454.0</ele><time>2026-05-03T15:54:41.461Z</time></trkpt><trkpt lat="44.033272" lon="8.0166298"><ele>452.99999999999994</ele><time>2026-05-03T15:54:42.461Z</time></trkpt><trkpt lat="44.0333" lon="8.0165217"><ele>452.0</ele><time>2026-05-03T15:54:43.473Z</time></trkpt><trkpt lat="44.0333386" lon="8.0164286"><ele>453.16666666666663</ele><time>2026-05-03T15:54:44.465Z</time></trkpt><trkpt lat="44.0334001" lon="8.0163477"><ele>454.3333333333333</ele><time>2026-05-03T15:54:45.463Z</time></trkpt><trkpt lat="44.0334394" lon="8.0162674"><ele>455.5</ele><time>2026-05-03T15:54:46.461Z</time></trkpt><trkpt lat="44.0334658" lon="8.0161292"><ele>456.66666666666663</ele><time>2026-05-03T15:54:48.46Z</time></trkpt><trkpt lat="44.033461" lon="8.0160224"><ele>457.8333333333333</ele><time>2026-05-03T15:54:49.459Z</time></trkpt><trkpt lat="44.0334423" lon="8.0159343"><ele>459.0</ele><time>2026-05-03T15:54:50.461Z</time></trkpt><trkpt lat="44.03348" lon="8.0157555"><ele>459.0</ele><time>2026-05-03T15:54:52.459Z</time></trkpt><trkpt lat="44.0335166" lon="8.0156669"><ele>459.0</ele><time>2026-05-03T15:54:53.457Z</time></trkpt><trkpt lat="44.0336028" lon="8.0155773"><ele>459.0</ele><time>2026-05-03T15:54:55.457Z</time></trkpt><trkpt lat="44.0336667" lon="8.0155643"><ele>459.0</ele><time>2026-05-03T15:54:56.462Z</time></trkpt><trkpt lat="44.0337614" lon="8.0155001"><ele>459.0</ele><time>2026-05-03T15:54:58.461Z</time></trkpt><trkpt lat="44.033843" lon="8.0154645"><ele>459.0</ele><time>2026-05-03T15:55:00.458Z</time></trkpt><trkpt lat="44.0338303" lon="8.0153579"><ele>459.0</ele><time>2026-05-03T15:55:03.46Z</time></trkpt><trkpt lat="44.0337613" lon="8.0153468"><ele>459.0</ele><time>2026-05-03T15:55:05.47Z</time></trkpt><trkpt lat="44.0336894" lon="8.0153761"><ele>459.0</ele><time>2026-05-03T15:55:06.458Z</time></trkpt><trkpt lat="44.0336047" lon="8.0153963"><ele>459.0</ele><time>2026-05-03T15:55:07.465Z</time></trkpt><trkpt lat="44.0335189" lon="8.0154376"><ele>459.0</ele><time>2026-05-03T15:55:08.462Z</time></trkpt><trkpt lat="44.0334244" lon="8.0154915"><ele>459.0</ele><time>2026-05-03T15:55:09.461Z</time></trkpt><trkpt lat="44.0333611" lon="8.0155665"><ele>459.0</ele><time>2026-05-03T15:55:10.466Z</time></trkpt><trkpt lat="44.0333105" lon="8.015662"><ele>459.0</ele><time>2026-05-03T15:55:11.457Z</time></trkpt><trkpt lat="44.0332675" lon="8.0157512"><ele>459.0</ele><time>2026-05-03T15:55:12.461Z</time></trkpt><trkpt lat="44.033228" lon="8.0158288"><ele>459.0</ele><time>2026-05-03T15:55:13.456Z</time></trkpt><trkpt lat="44.0332483" lon="8.015999"><ele>459.0</ele><time>2026-05-03T15:55:15.458Z</time></trkpt><trkpt lat="44.0332521" lon="8.0160891"><ele>459.0</ele><time>2026-05-03T15:55:16.459Z</time></trkpt><trkpt lat="44.0332393" lon="8.0161808"><ele>457.8333333333333</ele><time>2026-05-03T15:55:17.458Z</time></trkpt><trkpt lat="44.0332034" lon="8.0162548"><ele>456.66666666666663</ele><time>2026-05-03T15:55:18.461Z</time></trkpt><trkpt lat="44.0331346" lon="8.0163433"><ele>455.5</ele><time>2026-05-03T15:55:19.46Z</time></trkpt><trkpt lat="44.0330901" lon="8.0164108"><ele>454.3333333333333</ele><time>2026-05-03T15:55:20.459Z</time></trkpt><trkpt lat="44.0330548" lon="8.0165447"><ele>453.16666666666663</ele><time>2026-05-03T15:55:21.461Z</time></trkpt><trkpt lat="44.0330234" lon="8.0166592"><ele>452.0</ele><time>2026-05-03T15:55:22.461Z</time></trkpt><trkpt lat="44.0330234" lon="8.0167773"><ele>451.99999999999994</ele><time>2026-05-03T15:55:23.46Z</time></trkpt><trkpt lat="44.0330273" lon="8.0169018"><ele>452.0</ele><time>2026-05-03T15:55:24.458Z</time></trkpt><trkpt lat="44.0329957" lon="8.0170249"><ele>452.0</ele><time>2026-05-03T15:55:25.467Z</time></trkpt><trkpt lat="44.0329657" lon="8.0171271"><ele>452.0</ele><time>2026-05-03T15:55:26.465Z</time></trkpt><trkpt lat="44.0329237" lon="8.0172171"><ele>451.99999999999994</ele><time>2026-05-03T15:55:27.461Z</time></trkpt><trkpt lat="44.0328804" lon="8.0173023"><ele>452.0</ele><time>2026-05-03T15:55:28.46Z</time></trkpt><trkpt lat="44.0328303" lon="8.0174063"><ele>453.20000000000005</ele><time>2026-05-03T15:55:29.459Z</time></trkpt><trkpt lat="44.032783" lon="8.0175186"><ele>454.40000000000003</ele><time>2026-05-03T15:55:30.463Z</time></trkpt><trkpt lat="44.0327515" lon="8.0176343"><ele>455.59999999999997</ele><time>2026-05-03T15:55:31.462Z</time></trkpt><trkpt lat="44.0327262" lon="8.0177509"><ele>456.79999999999995</ele><time>2026-05-03T15:55:32.461Z</time></trkpt><trkpt lat="44.0327118" lon="8.017883"><ele>458.0</ele><time>2026-05-03T15:55:33.46Z</time></trkpt><trkpt lat="44.0327063" lon="8.0180131"><ele>457.99999999999994</ele><time>2026-05-03T15:55:34.462Z</time></trkpt><trkpt lat="44.0326937" lon="8.0181172"><ele>458.0</ele><time>2026-05-03T15:55:35.459Z</time></trkpt><trkpt lat="44.0327134" lon="8.0182235"><ele>458.0</ele><time>2026-05-03T15:55:36.462Z</time></trkpt><trkpt lat="44.0327491" lon="8.0183281"><ele>458.0</ele><time>2026-05-03T15:55:37.462Z</time></trkpt><trkpt lat="44.0327998" lon="8.0184097"><ele>457.99999999999994</ele><time>2026-05-03T15:55:38.463Z</time></trkpt><trkpt lat="44.0328344" lon="8.0184976"><ele>458.0</ele><time>2026-05-03T15:55:39.466Z</time></trkpt><trkpt lat="44.0328499" lon="8.0185995"><ele>457.66666666666663</ele><time>2026-05-03T15:55:40.468Z</time></trkpt><trkpt lat="44.03283" lon="8.0187023"><ele>457.3333333333333</ele><time>2026-05-03T15:55:41.465Z</time></trkpt><trkpt lat="44.0328026" lon="8.0187952"><ele>457.0</ele><time>2026-05-03T15:55:42.474Z</time></trkpt><trkpt lat="44.0327595" lon="8.0189038"><ele>456.66666666666663</ele><time>2026-05-03T15:55:43.458Z</time></trkpt><trkpt lat="44.0326873" lon="8.0190032"><ele>456.3333333333333</ele><time>2026-05-03T15:55:44.457Z</time></trkpt><trkpt lat="44.0326284" lon="8.0190984"><ele>456.0</ele><time>2026-05-03T15:55:45.46Z</time></trkpt><trkpt lat="44.0325817" lon="8.0192071"><ele>456.8</ele><time>2026-05-03T15:55:46.46Z</time></trkpt><trkpt lat="44.0324952" lon="8.0193194"><ele>457.6</ele><time>2026-05-03T15:55:47.462Z</time></trkpt><trkpt lat="44.0324293" lon="8.0194317"><ele>458.4</ele><time>2026-05-03T15:55:48.463Z</time></trkpt><trkpt lat="44.0323747" lon="8.0195498"><ele>459.2</ele><time>2026-05-03T15:55:49.461Z</time></trkpt><trkpt lat="44.0322879" lon="8.0196586"><ele>460.0</ele><time>2026-05-03T15:55:50.468Z</time></trkpt><trkpt lat="44.0322136" lon="8.0197581"><ele>456.8</ele><time>2026-05-03T15:55:51.46Z</time></trkpt><trkpt lat="44.0321406" lon="8.0198599"><ele>453.6</ele><time>2026-05-03T15:55:52.465Z</time></trkpt><trkpt lat="44.0320692" lon="8.0199553"><ele>450.4</ele><time>2026-05-03T15:55:53.464Z</time></trkpt><trkpt lat="44.0319898" lon="8.0200289"><ele>447.2</ele><time>2026-05-03T15:55:54.46Z</time></trkpt><trkpt lat="44.0319096" lon="8.0200928"><ele>444.0</ele><time>2026-05-03T15:55:55.458Z</time></trkpt><trkpt lat="44.0318488" lon="8.020162"><ele>444.0</ele><time>2026-05-03T15:55:56.467Z</time></trkpt><trkpt lat="44.0317965" lon="8.0202434"><ele>444.0</ele><time>2026-05-03T15:55:57.465Z</time></trkpt><trkpt lat="44.0317666" lon="8.0203928"><ele>444.0</ele><time>2026-05-03T15:55:59.462Z</time></trkpt><trkpt lat="44.0318317" lon="8.0205502"><ele>444.0</ele><time>2026-05-03T15:56:01.459Z</time></trkpt><trkpt lat="44.0319095" lon="8.0206649"><ele>444.0</ele><time>2026-05-03T15:56:02.461Z</time></trkpt><trkpt lat="44.0320058" lon="8.0208087"><ele>442.25</ele><time>2026-05-03T15:56:03.466Z</time></trkpt><trkpt lat="44.0320933" lon="8.0209455"><ele>440.5</ele><time>2026-05-03T15:56:04.46Z</time></trkpt><trkpt lat="44.0321812" lon="8.0210797"><ele>438.75</ele><time>2026-05-03T15:56:05.461Z</time></trkpt><trkpt lat="44.0322585" lon="8.0212114"><ele>437.0</ele><time>2026-05-03T15:56:06.469Z</time></trkpt><trkpt lat="44.0323443" lon="8.021346"><ele>437.0</ele><time>2026-05-03T15:56:07.461Z</time></trkpt><trkpt lat="44.0324166" lon="8.0214633"><ele>437.00000000000006</ele><time>2026-05-03T15:56:08.458Z</time></trkpt><trkpt lat="44.0324846" lon="8.0215795"><ele>437.00000000000006</ele><time>2026-05-03T15:56:09.463Z</time></trkpt><trkpt lat="44.0325382" lon="8.0217184"><ele>437.0</ele><time>2026-05-03T15:56:10.461Z</time></trkpt><trkpt lat="44.0325992" lon="8.0218525"><ele>437.0</ele><time>2026-05-03T15:56:11.464Z</time></trkpt><trkpt lat="44.0326616" lon="8.0219654"><ele>438.40000000000003</ele><time>2026-05-03T15:56:12.463Z</time></trkpt><trkpt lat="44.0327255" lon="8.0220865"><ele>439.80000000000007</ele><time>2026-05-03T15:56:13.46Z</time></trkpt><trkpt lat="44.0327982" lon="8.0221852"><ele>441.2</ele><time>2026-05-03T15:56:14.458Z</time></trkpt><trkpt lat="44.0328765" lon="8.0222819"><ele>442.6</ele><time>2026-05-03T15:56:15.463Z</time></trkpt><trkpt lat="44.0329552" lon="8.0223812"><ele>444.0</ele><time>2026-05-03T15:56:16.465Z</time></trkpt><trkpt lat="44.0330245" lon="8.0224715"><ele>444.3333333333333</ele><time>2026-05-03T15:56:17.461Z</time></trkpt><trkpt lat="44.0330925" lon="8.0225635"><ele>444.66666666666663</ele><time>2026-05-03T15:56:18.462Z</time></trkpt><trkpt lat="44.0331571" lon="8.0226599"><ele>445.0</ele><time>2026-05-03T15:56:19.462Z</time></trkpt><trkpt lat="44.0332073" lon="8.0227502"><ele>445.3333333333333</ele><time>2026-05-03T15:56:20.461Z</time></trkpt><trkpt lat="44.0332515" lon="8.0228174"><ele>445.66666666666663</ele><time>2026-05-03T15:56:21.469Z</time></trkpt><trkpt lat="44.0333538" lon="8.0228717"><ele>446.0</ele><time>2026-05-03T15:56:23.462Z</time></trkpt><trkpt lat="44.0334879" lon="8.0228276"><ele>446.0</ele><time>2026-05-03T15:56:25.466Z</time></trkpt><trkpt lat="44.0335833" lon="8.0227703"><ele>446.0</ele><time>2026-05-03T15:56:26.466Z</time></trkpt><trkpt lat="44.0336919" lon="8.0227408"><ele>446.0</ele><time>2026-05-03T15:56:27.468Z</time></trkpt><trkpt lat="44.0337977" lon="8.0227149"><ele>446.0</ele><time>2026-05-03T15:56:28.465Z</time></trkpt><trkpt lat="44.033896" lon="8.0226861"><ele>446.0</ele><time>2026-05-03T15:56:29.46Z</time></trkpt><trkpt lat="44.0339767" lon="8.0226794"><ele>445.99999999999994</ele><time>2026-05-03T15:56:30.463Z</time></trkpt><trkpt lat="44.0340962" lon="8.0227213"><ele>446.0</ele><time>2026-05-03T15:56:32.461Z</time></trkpt><trkpt lat="44.0341356" lon="8.0228047"><ele>446.0</ele><time>2026-05-03T15:56:33.465Z</time></trkpt><trkpt lat="44.0341665" lon="8.022883"><ele>446.0</ele><time>2026-05-03T15:56:34.461Z</time></trkpt><trkpt lat="44.0342039" lon="8.0229637"><ele>445.99999999999994</ele><time>2026-05-03T15:56:35.461Z</time></trkpt><trkpt lat="44.0342539" lon="8.023075"><ele>446.0</ele><time>2026-05-03T15:56:36.465Z</time></trkpt><trkpt lat="44.0342936" lon="8.0231863"><ele>443.7142857142857</ele><time>2026-05-03T15:56:37.46Z</time></trkpt><trkpt lat="44.0343236" lon="8.0232816"><ele>441.42857142857144</ele><time>2026-05-03T15:56:38.462Z</time></trkpt><trkpt lat="44.0343633" lon="8.0233592"><ele>439.1428571428571</ele><time>2026-05-03T15:56:39.466Z</time></trkpt><trkpt lat="44.034423" lon="8.0234205"><ele>436.8571428571429</ele><time>2026-05-03T15:56:40.462Z</time></trkpt><trkpt lat="44.0344872" lon="8.0234646"><ele>434.5714285714286</ele><time>2026-05-03T15:56:41.461Z</time></trkpt><trkpt lat="44.0345517" lon="8.0235164"><ele>432.2857142857143</ele><time>2026-05-03T15:56:42.462Z</time></trkpt><trkpt lat="44.0346171" lon="8.0235549"><ele>430.0</ele><time>2026-05-03T15:56:43.457Z</time></trkpt><trkpt lat="44.034696" lon="8.0237165"><ele>430.00000000000006</ele><time>2026-05-03T15:56:45.458Z</time></trkpt><trkpt lat="44.0347404" lon="8.0237839"><ele>430.0</ele><time>2026-05-03T15:56:46.462Z</time></trkpt><trkpt lat="44.0347937" lon="8.0238578"><ele>430.0</ele><time>2026-05-03T15:56:47.461Z</time></trkpt><trkpt lat="44.0348296" lon="8.0239362"><ele>430.0</ele><time>2026-05-03T15:56:48.46Z</time></trkpt><trkpt lat="44.0348396" lon="8.0241067"><ele>430.00000000000006</ele><time>2026-05-03T15:56:50.459Z</time></trkpt><trkpt lat="44.0348176" lon="8.0242339"><ele>430.0</ele><time>2026-05-03T15:56:52.461Z</time></trkpt><trkpt lat="44.0347364" lon="8.0244082"><ele>424.33333333333337</ele><time>2026-05-03T15:56:54.464Z</time></trkpt><trkpt lat="44.0346997" lon="8.0244899"><ele>418.6666666666667</ele><time>2026-05-03T15:56:55.47Z</time></trkpt><trkpt lat="44.0346697" lon="8.0245873"><ele>413.0</ele><time>2026-05-03T15:56:56.461Z</time></trkpt><trkpt lat="44.0346604" lon="8.0246886"><ele>407.33333333333337</ele><time>2026-05-03T15:56:57.461Z</time></trkpt><trkpt lat="44.0346609" lon="8.0247913"><ele>401.6666666666667</ele><time>2026-05-03T15:56:58.46Z</time></trkpt><trkpt lat="44.0346572" lon="8.0249303"><ele>396.0</ele><time>2026-05-03T15:56:59.461Z</time></trkpt><trkpt lat="44.0346384" lon="8.0250537"><ele>395.0</ele><time>2026-05-03T15:57:00.462Z</time></trkpt><trkpt lat="44.034602" lon="8.0251703"><ele>394.0</ele><time>2026-05-03T15:57:01.462Z</time></trkpt><trkpt lat="44.034553" lon="8.0252524"><ele>393.0</ele><time>2026-05-03T15:57:02.467Z</time></trkpt><trkpt lat="44.0344778" lon="8.0253202"><ele>392.0</ele><time>2026-05-03T15:57:03.462Z</time></trkpt><trkpt lat="44.0343986" lon="8.0253951"><ele>391.0</ele><time>2026-05-03T15:57:04.465Z</time></trkpt><trkpt lat="44.034333" lon="8.0254488"><ele>390.0</ele><time>2026-05-03T15:57:05.462Z</time></trkpt><trkpt lat="44.0342821" lon="8.0255093"><ele>390.0</ele><time>2026-05-03T15:57:06.464Z</time></trkpt><trkpt lat="44.0342523" lon="8.0255967"><ele>390.0</ele><time>2026-05-03T15:57:07.461Z</time></trkpt><trkpt lat="44.0342658" lon="8.025689"><ele>390.0</ele><time>2026-05-03T15:57:08.461Z</time></trkpt><trkpt lat="44.0343425" lon="8.025772"><ele>390.0</ele><time>2026-05-03T15:57:10.462Z</time></trkpt><trkpt lat="44.0343316" lon="8.0258786"><ele>390.0</ele><time>2026-05-03T15:57:12.457Z</time></trkpt><trkpt lat="44.0342321" lon="8.0259197"><ele>390.0</ele><time>2026-05-03T15:57:14.464Z</time></trkpt><trkpt lat="44.0342072" lon="8.0257519"><ele>390.0</ele><time>2026-05-03T15:57:15.459Z</time></trkpt><trkpt lat="44.03419" lon="8.0256633"><ele>390.0</ele><time>2026-05-03T15:57:16.46Z</time></trkpt><trkpt lat="44.0342254" lon="8.025485"><ele>390.0</ele><time>2026-05-03T15:57:18.464Z</time></trkpt><trkpt lat="44.0342639" lon="8.0254051"><ele>390.0</ele><time>2026-05-03T15:57:19.463Z</time></trkpt><trkpt lat="44.0343192" lon="8.0253285"><ele>390.0</ele><time>2026-05-03T15:57:20.459Z</time></trkpt><trkpt lat="44.034404" lon="8.0251866"><ele>390.0</ele><time>2026-05-03T15:57:22.459Z</time></trkpt><trkpt lat="44.0344432" lon="8.0251093"><ele>390.0</ele><time>2026-05-03T15:57:23.46Z</time></trkpt><trkpt lat="44.0344588" lon="8.025012"><ele>390.0</ele><time>2026-05-03T15:57:24.466Z</time></trkpt><trkpt lat="44.0344593" lon="8.0249058"><ele>390.0</ele><time>2026-05-03T15:57:25.466Z</time></trkpt><trkpt lat="44.0344361" lon="8.024782"><ele>390.0</ele><time>2026-05-03T15:57:26.461Z</time></trkpt><trkpt lat="44.0344196" lon="8.0246573"><ele>390.0</ele><time>2026-05-03T15:57:27.464Z</time></trkpt><trkpt lat="44.0344365" lon="8.0245433"><ele>391.0</ele><time>2026-05-03T15:57:28.46Z</time></trkpt><trkpt lat="44.0344634" lon="8.0244498"><ele>392.0</ele><time>2026-05-03T15:57:29.461Z</time></trkpt><trkpt lat="44.0344573" lon="8.0243603"><ele>393.0</ele><time>2026-05-03T15:57:30.466Z</time></trkpt><trkpt lat="44.0344195" lon="8.0242718"><ele>394.0</ele><time>2026-05-03T15:57:31.461Z</time></trkpt><trkpt lat="44.0343828" lon="8.0241775"><ele>395.0</ele><time>2026-05-03T15:57:32.462Z</time></trkpt><trkpt lat="44.0343132" lon="8.0240221"><ele>396.0</ele><time>2026-05-03T15:57:34.464Z</time></trkpt><trkpt lat="44.0342542" lon="8.0239724"><ele>398.1666666666667</ele><time>2026-05-03T15:57:35.458Z</time></trkpt><trkpt lat="44.0341773" lon="8.0239432"><ele>400.33333333333337</ele><time>2026-05-03T15:57:36.458Z</time></trkpt><trkpt lat="44.0341018" lon="8.0238987"><ele>402.5</ele><time>2026-05-03T15:57:37.458Z</time></trkpt><trkpt lat="44.0340404" lon="8.0238385"><ele>404.6666666666667</ele><time>2026-05-03T15:57:38.461Z</time></trkpt><trkpt lat="44.0339867" lon="8.0237481"><ele>406.83333333333337</ele><time>2026-05-03T15:57:39.459Z</time></trkpt><trkpt lat="44.0339275" lon="8.0236371"><ele>409.0</ele><time>2026-05-03T15:57:40.459Z</time></trkpt><trkpt lat="44.033842" lon="8.0235653"><ele>409.00000000000006</ele><time>2026-05-03T15:57:41.46Z</time></trkpt><trkpt lat="44.0337571" lon="8.0235035"><ele>409.0</ele><time>2026-05-03T15:57:42.462Z</time></trkpt><trkpt lat="44.0336786" lon="8.0234721"><ele>409.0</ele><time>2026-05-03T15:57:43.461Z</time></trkpt><trkpt lat="44.0336023" lon="8.0234899"><ele>409.0</ele><time>2026-05-03T15:57:44.462Z</time></trkpt><trkpt lat="44.0335438" lon="8.0235261"><ele>409.00000000000006</ele><time>2026-05-03T15:57:45.464Z</time></trkpt><trkpt lat="44.0334815" lon="8.0236046"><ele>409.0</ele><time>2026-05-03T15:57:46.461Z</time></trkpt><trkpt lat="44.0334148" lon="8.0236672"><ele>409.0</ele><time>2026-05-03T15:57:47.466Z</time></trkpt><trkpt lat="44.0333491" lon="8.0237106"><ele>409.0</ele><time>2026-05-03T15:57:48.46Z</time></trkpt><trkpt lat="44.0332841" lon="8.0237449"><ele>409.0</ele><time>2026-05-03T15:57:49.46Z</time></trkpt><trkpt lat="44.0332192" lon="8.0237589"><ele>409.0</ele><time>2026-05-03T15:57:50.461Z</time></trkpt><trkpt lat="44.0331402" lon="8.0237484"><ele>409.0</ele><time>2026-05-03T15:57:51.46Z</time></trkpt><trkpt lat="44.0330622" lon="8.0237385"><ele>409.0</ele><time>2026-05-03T15:57:52.46Z</time></trkpt><trkpt lat="44.0329824" lon="8.0237415"><ele>409.0</ele><time>2026-05-03T15:57:53.458Z</time></trkpt><trkpt lat="44.0329033" lon="8.0237677"><ele>405.0</ele><time>2026-05-03T15:57:54.466Z</time></trkpt><trkpt lat="44.0328318" lon="8.0238115"><ele>401.0</ele><time>2026-05-03T15:57:55.462Z</time></trkpt><trkpt lat="44.0327711" lon="8.023874"><ele>397.0</ele><time>2026-05-03T15:57:56.461Z</time></trkpt><trkpt lat="44.0327076" lon="8.0239321"><ele>393.0</ele><time>2026-05-03T15:57:57.46Z</time></trkpt><trkpt lat="44.0325934" lon="8.0239809"><ele>389.0</ele><time>2026-05-03T15:57:59.459Z</time></trkpt><trkpt lat="44.0324879" lon="8.0239814"><ele>383.4</ele><time>2026-05-03T15:58:01.462Z</time></trkpt><trkpt lat="44.0323898" lon="8.0239704"><ele>377.79999999999995</ele><time>2026-05-03T15:58:03.461Z</time></trkpt><trkpt lat="44.0322891" lon="8.0239087"><ele>372.20000000000005</ele><time>2026-05-03T15:58:05.464Z</time></trkpt><trkpt lat="44.0322149" lon="8.0238197"><ele>366.6</ele><time>2026-05-03T15:58:07.459Z</time></trkpt><trkpt lat="44.0321746" lon="8.0237087"><ele>361.0</ele><time>2026-05-03T15:58:09.46Z</time></trkpt><trkpt lat="44.0321483" lon="8.023591"><ele>361.0</ele><time>2026-05-03T15:58:11.46Z</time></trkpt><trkpt lat="44.0321203" lon="8.0234635"><ele>361.0</ele><time>2026-05-03T15:58:13.468Z</time></trkpt><trkpt lat="44.0320831" lon="8.0233372"><ele>361.0</ele><time>2026-05-03T15:58:15.463Z</time></trkpt><trkpt lat="44.0320304" lon="8.0232375"><ele>361.0</ele><time>2026-05-03T15:58:17.465Z</time></trkpt><trkpt lat="44.0319665" lon="8.0231598"><ele>361.0</ele><time>2026-05-03T15:58:19.461Z</time></trkpt><trkpt lat="44.0318994" lon="8.0230835"><ele>358.20000000000005</ele><time>2026-05-03T15:58:21.463Z</time></trkpt><trkpt lat="44.031817" lon="8.0229957"><ele>355.40000000000003</ele><time>2026-05-03T15:58:23.462Z</time></trkpt><trkpt lat="44.031728" lon="8.0229319"><ele>352.6</ele><time>2026-05-03T15:58:25.458Z</time></trkpt><trkpt lat="44.0316342" lon="8.0228688"><ele>349.8</ele><time>2026-05-03T15:58:27.461Z</time></trkpt><trkpt lat="44.0315292" lon="8.0228044"><ele>347.0</ele><time>2026-05-03T15:58:29.467Z</time></trkpt><trkpt lat="44.0314381" lon="8.0227218"><ele>347.0</ele><time>2026-05-03T15:58:31.461Z</time></trkpt><trkpt lat="44.0313358" lon="8.0226472"><ele>347.0</ele><time>2026-05-03T15:58:33.456Z</time></trkpt><trkpt lat="44.0312911" lon="8.0225852"><ele>347.0</ele><time>2026-05-03T15:58:34.457Z</time></trkpt><trkpt lat="44.0312493" lon="8.0225187"><ele>347.0</ele><time>2026-05-03T15:58:35.457Z</time></trkpt><trkpt lat="44.0311704" lon="8.022402"><ele>347.0</ele><time>2026-05-03T15:58:37.458Z</time></trkpt><trkpt lat="44.0311324" lon="8.0223254"><ele>347.0</ele><time>2026-05-03T15:58:38.46Z</time></trkpt><trkpt lat="44.0310951" lon="8.0222425"><ele>352.33333333333337</ele><time>2026-05-03T15:58:39.461Z</time></trkpt><trkpt lat="44.0310574" lon="8.0221663"><ele>357.6666666666667</ele><time>2026-05-03T15:58:40.462Z</time></trkpt><trkpt lat="44.0310246" lon="8.02209"><ele>363.0</ele><time>2026-05-03T15:58:41.467Z</time></trkpt><trkpt lat="44.0309924" lon="8.0220133"><ele>368.3333333333333</ele><time>2026-05-03T15:58:42.461Z</time></trkpt><trkpt lat="44.0309268" lon="8.0218808"><ele>373.66666666666663</ele><time>2026-05-03T15:58:44.461Z</time></trkpt><trkpt lat="44.0308648" lon="8.0217974"><ele>379.0</ele><time>2026-05-03T15:58:46.46Z</time></trkpt><trkpt lat="44.0308577" lon="8.0219039"><ele>379.0</ele><time>2026-05-03T15:58:51.463Z</time></trkpt><trkpt lat="44.0309014" lon="8.0219797"><ele>379.0</ele><time>2026-05-03T15:58:52.465Z</time></trkpt><trkpt lat="44.0309364" lon="8.0220598"><ele>379.0</ele><time>2026-05-03T15:58:53.461Z</time></trkpt><trkpt lat="44.0309745" lon="8.0221618"><ele>379.0</ele><time>2026-05-03T15:58:54.459Z</time></trkpt><trkpt lat="44.0310157" lon="8.0222738"><ele>379.0</ele><time>2026-05-03T15:58:55.459Z</time></trkpt><trkpt lat="44.0310555" lon="8.0223771"><ele>379.0</ele><time>2026-05-03T15:58:56.46Z</time></trkpt><trkpt lat="44.0310926" lon="8.0224741"><ele>373.66666666666663</ele><time>2026-05-03T15:58:57.464Z</time></trkpt><trkpt lat="44.0311286" lon="8.0225664"><ele>368.3333333333333</ele><time>2026-05-03T15:58:58.463Z</time></trkpt><trkpt lat="44.0311705" lon="8.0226529"><ele>363.0</ele><time>2026-05-03T15:58:59.461Z</time></trkpt><trkpt lat="44.0312214" lon="8.0227226"><ele>357.6666666666667</ele><time>2026-05-03T15:59:00.466Z</time></trkpt><trkpt lat="44.0312907" lon="8.0228415"><ele>352.33333333333337</ele><time>2026-05-03T15:59:02.464Z</time></trkpt><trkpt lat="44.0313547" lon="8.0229194"><ele>347.0</ele><time>2026-05-03T15:59:04.458Z</time></trkpt><trkpt lat="44.0314346" lon="8.0229971"><ele>347.0</ele><time>2026-05-03T15:59:06.461Z</time></trkpt><trkpt lat="44.0314868" lon="8.0230642"><ele>347.0</ele><time>2026-05-03T15:59:07.46Z</time></trkpt><trkpt lat="44.0315408" lon="8.0231304"><ele>347.0</ele><time>2026-05-03T15:59:08.461Z</time></trkpt><trkpt lat="44.0315893" lon="8.0232217"><ele>347.0</ele><time>2026-05-03T15:59:09.461Z</time></trkpt><trkpt lat="44.0316403" lon="8.0233183"><ele>347.0</ele><time>2026-05-03T15:59:10.466Z</time></trkpt><trkpt lat="44.0316764" lon="8.023409"><ele>347.0</ele><time>2026-05-03T15:59:11.461Z</time></trkpt><trkpt lat="44.0317009" lon="8.0235204"><ele>349.8</ele><time>2026-05-03T15:59:12.463Z</time></trkpt><trkpt lat="44.0317247" lon="8.0236411"><ele>352.6</ele><time>2026-05-03T15:59:13.463Z</time></trkpt><trkpt lat="44.0317531" lon="8.023762"><ele>355.40000000000003</ele><time>2026-05-03T15:59:14.46Z</time></trkpt><trkpt lat="44.0317756" lon="8.0238876"><ele>358.20000000000005</ele><time>2026-05-03T15:59:15.459Z</time></trkpt><trkpt lat="44.0317931" lon="8.0240031"><ele>361.0</ele><time>2026-05-03T15:59:16.46Z</time></trkpt><trkpt lat="44.0317968" lon="8.0241302"><ele>359.3333333333333</ele><time>2026-05-03T15:59:17.462Z</time></trkpt><trkpt lat="44.0317899" lon="8.0242555"><ele>357.66666666666663</ele><time>2026-05-03T15:59:18.46Z</time></trkpt><trkpt lat="44.0317909" lon="8.0243572"><ele>356.0</ele><time>2026-05-03T15:59:19.458Z</time></trkpt><trkpt lat="44.0317943" lon="8.0244547"><ele>354.3333333333333</ele><time>2026-05-03T15:59:20.464Z</time></trkpt><trkpt lat="44.0318344" lon="8.0245362"><ele>352.6666666666667</ele><time>2026-05-03T15:59:21.459Z</time></trkpt><trkpt lat="44.0318657" lon="8.0246295"><ele>351.0</ele><time>2026-05-03T15:59:22.462Z</time></trkpt><trkpt lat="44.0319191" lon="8.0246977"><ele>351.0</ele><time>2026-05-03T15:59:23.459Z</time></trkpt><trkpt lat="44.0320084" lon="8.0247437"><ele>351.0</ele><time>2026-05-03T15:59:25.46Z</time></trkpt><trkpt lat="44.0321521" lon="8.0246266"><ele>351.0</ele><time>2026-05-03T15:59:27.459Z</time></trkpt><trkpt lat="44.0322375" lon="8.0245466"><ele>351.0</ele><time>2026-05-03T15:59:28.459Z</time></trkpt><trkpt lat="44.0323275" lon="8.0244961"><ele>351.0</ele><time>2026-05-03T15:59:29.462Z</time></trkpt><trkpt lat="44.0324213" lon="8.0244474"><ele>351.0</ele><time>2026-05-03T15:59:30.459Z</time></trkpt><trkpt lat="44.0325159" lon="8.024406"><ele>351.0</ele><time>2026-05-03T15:59:31.464Z</time></trkpt><trkpt lat="44.0326308" lon="8.0243752"><ele>351.0</ele><time>2026-05-03T15:59:32.467Z</time></trkpt><trkpt lat="44.0327373" lon="8.0243475"><ele>351.0</ele><time>2026-05-03T15:59:33.462Z</time></trkpt><trkpt lat="44.0328466" lon="8.0243331"><ele>353.6</ele><time>2026-05-03T15:59:34.458Z</time></trkpt><trkpt lat="44.0329434" lon="8.0243453"><ele>356.20000000000005</ele><time>2026-05-03T15:59:35.457Z</time></trkpt><trkpt lat="44.0330391" lon="8.0243495"><ele>358.79999999999995</ele><time>2026-05-03T15:59:36.46Z</time></trkpt><trkpt lat="44.0331321" lon="8.0243305"><ele>361.4</ele><time>2026-05-03T15:59:37.458Z</time></trkpt><trkpt lat="44.0332123" lon="8.0243094"><ele>364.0</ele><time>2026-05-03T15:59:38.469Z</time></trkpt><trkpt lat="44.0333036" lon="8.0243186"><ele>363.8333333333333</ele><time>2026-05-03T15:59:40.464Z</time></trkpt><trkpt lat="44.0333809" lon="8.0243462"><ele>363.66666666666663</ele><time>2026-05-03T15:59:44.46Z</time></trkpt><trkpt lat="44.0334431" lon="8.024433"><ele>363.5</ele><time>2026-05-03T15:59:46.467Z</time></trkpt><trkpt lat="44.0334634" lon="8.0245181"><ele>363.3333333333333</ele><time>2026-05-03T15:59:47.467Z</time></trkpt><trkpt lat="44.0334806" lon="8.0246498"><ele>363.1666666666667</ele><time>2026-05-03T15:59:49.462Z</time></trkpt><trkpt lat="44.0334987" lon="8.0247671"><ele>363.0</ele><time>2026-05-03T15:59:51.462Z</time></trkpt><trkpt lat="44.0335262" lon="8.024857"><ele>363.0</ele><time>2026-05-03T15:59:54.464Z</time></trkpt><trkpt lat="44.0335276" lon="8.0247286"><ele>363.0</ele><time>2026-05-03T15:59:58.459Z</time></trkpt><trkpt lat="44.0335028" lon="8.0246316"><ele>363.0</ele><time>2026-05-03T15:59:59.465Z</time></trkpt><trkpt lat="44.0334868" lon="8.0245193"><ele>363.0</ele><time>2026-05-03T16:00:00.462Z</time></trkpt><trkpt lat="44.033479" lon="8.0244288"><ele>363.0</ele><time>2026-05-03T16:00:01.463Z</time></trkpt><trkpt lat="44.033422" lon="8.0243122"><ele>363.0</ele><time>2026-05-03T16:00:03.46Z</time></trkpt><trkpt lat="44.0333396" lon="8.0242978"><ele>363.1666666666667</ele><time>2026-05-03T16:00:05.465Z</time></trkpt><trkpt lat="44.0333048" lon="8.0243741"><ele>363.3333333333333</ele><time>2026-05-03T16:00:06.464Z</time></trkpt><trkpt lat="44.0332556" lon="8.0244346"><ele>363.5</ele><time>2026-05-03T16:00:07.468Z</time></trkpt><trkpt lat="44.0331932" lon="8.0244925"><ele>363.66666666666663</ele><time>2026-05-03T16:00:08.473Z</time></trkpt><trkpt lat="44.0331356" lon="8.0245382"><ele>363.8333333333333</ele><time>2026-05-03T16:00:09.458Z</time></trkpt><trkpt lat="44.033058" lon="8.0245694"><ele>364.0</ele><time>2026-05-03T16:00:10.472Z</time></trkpt><trkpt lat="44.0329622" lon="8.0245946"><ele>364.0</ele><time>2026-05-03T16:00:11.459Z</time></trkpt><trkpt lat="44.0328535" lon="8.0246129"><ele>364.0</ele><time>2026-05-03T16:00:12.46Z</time></trkpt><trkpt lat="44.0327409" lon="8.0246481"><ele>364.0</ele><time>2026-05-03T16:00:13.462Z</time></trkpt><trkpt lat="44.0326342" lon="8.0246924"><ele>364.0</ele><time>2026-05-03T16:00:14.462Z</time></trkpt><trkpt lat="44.0325374" lon="8.0247427"><ele>364.0</ele><time>2026-05-03T16:00:15.466Z</time></trkpt><trkpt lat="44.0324438" lon="8.0247857"><ele>361.4</ele><time>2026-05-03T16:00:16.463Z</time></trkpt><trkpt lat="44.0323531" lon="8.0247719"><ele>358.79999999999995</ele><time>2026-05-03T16:00:17.462Z</time></trkpt><trkpt lat="44.0322749" lon="8.0247854"><ele>356.20000000000005</ele><time>2026-05-03T16:00:18.459Z</time></trkpt><trkpt lat="44.0321752" lon="8.0249015"><ele>353.6</ele><time>2026-05-03T16:00:20.46Z</time></trkpt><trkpt lat="44.0321297" lon="8.0250144"><ele>351.0</ele><time>2026-05-03T16:00:21.462Z</time></trkpt><trkpt lat="44.0320289" lon="8.0251318"><ele>349.3333333333333</ele><time>2026-05-03T16:00:22.459Z</time></trkpt><trkpt lat="44.0319476" lon="8.0252381"><ele>347.6666666666667</ele><time>2026-05-03T16:00:23.459Z</time></trkpt><trkpt lat="44.0318821" lon="8.0253408"><ele>346.0</ele><time>2026-05-03T16:00:24.458Z</time></trkpt><trkpt lat="44.0318259" lon="8.025423"><ele>344.33333333333337</ele><time>2026-05-03T16:00:25.458Z</time></trkpt><trkpt lat="44.0317899" lon="8.0254987"><ele>342.6666666666667</ele><time>2026-05-03T16:00:26.461Z</time></trkpt><trkpt lat="44.0317258" lon="8.0255883"><ele>341.0</ele><time>2026-05-03T16:00:28.46Z</time></trkpt><trkpt lat="44.0316273" lon="8.0256347"><ele>334.8</ele><time>2026-05-03T16:00:30.466Z</time></trkpt><trkpt lat="44.0315644" lon="8.0255515"><ele>328.6</ele><time>2026-05-03T16:00:32.461Z</time></trkpt><trkpt lat="44.0315151" lon="8.0254386"><ele>322.4</ele><time>2026-05-03T16:00:34.467Z</time></trkpt><trkpt lat="44.0314788" lon="8.025292"><ele>316.2</ele><time>2026-05-03T16:00:36.464Z</time></trkpt><trkpt lat="44.0314759" lon="8.0251132"><ele>310.0</ele><time>2026-05-03T16:00:38.463Z</time></trkpt><trkpt lat="44.031464" lon="8.0250234"><ele>311.2857142857143</ele><time>2026-05-03T16:00:39.463Z</time></trkpt><trkpt lat="44.03144" lon="8.0249405"><ele>312.57142857142856</ele><time>2026-05-03T16:00:40.467Z</time></trkpt><trkpt lat="44.0314043" lon="8.0248451"><ele>313.8571428571429</ele><time>2026-05-03T16:00:41.464Z</time></trkpt><trkpt lat="44.0313631" lon="8.0247516"><ele>315.1428571428571</ele><time>2026-05-03T16:00:42.462Z</time></trkpt><trkpt lat="44.0313297" lon="8.024648"><ele>316.4285714285714</ele><time>2026-05-03T16:00:43.465Z</time></trkpt><trkpt lat="44.0313033" lon="8.0245514"><ele>317.7142857142857</ele><time>2026-05-03T16:00:44.46Z</time></trkpt><trkpt lat="44.0312669" lon="8.0244728"><ele>319.0</ele><time>2026-05-03T16:00:45.456Z</time></trkpt><trkpt lat="44.0311737" lon="8.0243327"><ele>319.0</ele><time>2026-05-03T16:00:47.459Z</time></trkpt><trkpt lat="44.0311184" lon="8.0242427"><ele>319.0</ele><time>2026-05-03T16:00:48.459Z</time></trkpt><trkpt lat="44.0310564" lon="8.0241553"><ele>319.0</ele><time>2026-05-03T16:00:49.461Z</time></trkpt><trkpt lat="44.0309938" lon="8.0240763"><ele>319.0</ele><time>2026-05-03T16:00:50.462Z</time></trkpt><trkpt lat="44.0309414" lon="8.0239901"><ele>319.0</ele><time>2026-05-03T16:00:51.466Z</time></trkpt><trkpt lat="44.0308934" lon="8.0239093"><ele>319.0</ele><time>2026-05-03T16:00:52.462Z</time></trkpt><trkpt lat="44.0308426" lon="8.0238398"><ele>315.2</ele><time>2026-05-03T16:00:53.462Z</time></trkpt><trkpt lat="44.030793" lon="8.0237735"><ele>311.4</ele><time>2026-05-03T16:00:54.46Z</time></trkpt><trkpt lat="44.0307403" lon="8.02372"><ele>307.6</ele><time>2026-05-03T16:00:55.465Z</time></trkpt><trkpt lat="44.030646" lon="8.0236244"><ele>303.8</ele><time>2026-05-03T16:00:57.46Z</time></trkpt><trkpt lat="44.0305817" lon="8.023471"><ele>300.0</ele><time>2026-05-03T16:00:59.461Z</time></trkpt><trkpt lat="44.0305527" lon="8.0233803"><ele>302.3333333333333</ele><time>2026-05-03T16:01:00.466Z</time></trkpt><trkpt lat="44.0305296" lon="8.0232776"><ele>304.6666666666667</ele><time>2026-05-03T16:01:01.463Z</time></trkpt><trkpt lat="44.0305119" lon="8.0231656"><ele>307.0</ele><time>2026-05-03T16:01:02.459Z</time></trkpt><trkpt lat="44.0304882" lon="8.0230508"><ele>309.33333333333337</ele><time>2026-05-03T16:01:03.459Z</time></trkpt><trkpt lat="44.0304564" lon="8.0229344"><ele>311.6666666666667</ele><time>2026-05-03T16:01:04.462Z</time></trkpt><trkpt lat="44.030397" lon="8.0228428"><ele>314.0</ele><time>2026-05-03T16:01:05.461Z</time></trkpt><trkpt lat="44.0303425" lon="8.0227512"><ele>314.0</ele><time>2026-05-03T16:01:06.461Z</time></trkpt><trkpt lat="44.0302909" lon="8.0226857"><ele>314.0</ele><time>2026-05-03T16:01:07.46Z</time></trkpt><trkpt lat="44.0302342" lon="8.0226183"><ele>314.0</ele><time>2026-05-03T16:01:08.459Z</time></trkpt><trkpt lat="44.0301689" lon="8.0225651"><ele>314.0</ele><time>2026-05-03T16:01:09.46Z</time></trkpt><trkpt lat="44.0300971" lon="8.0225141"><ele>314.0</ele><time>2026-05-03T16:01:10.463Z</time></trkpt><trkpt lat="44.0300283" lon="8.0224737"><ele>314.0</ele><time>2026-05-03T16:01:11.462Z</time></trkpt><trkpt lat="44.0299497" lon="8.0224229"><ele>312.59999999999997</ele><time>2026-05-03T16:01:12.458Z</time></trkpt><trkpt lat="44.0298769" lon="8.0223762"><ele>311.2</ele><time>2026-05-03T16:01:13.456Z</time></trkpt><trkpt lat="44.0298038" lon="8.0223448"><ele>309.79999999999995</ele><time>2026-05-03T16:01:14.466Z</time></trkpt><trkpt lat="44.029689" lon="8.0222638"><ele>308.4</ele><time>2026-05-03T16:01:16.459Z</time></trkpt><trkpt lat="44.0296288" lon="8.0221938"><ele>307.0</ele><time>2026-05-03T16:01:17.464Z</time></trkpt><trkpt lat="44.0295643" lon="8.0221152"><ele>306.99999999999994</ele><time>2026-05-03T16:01:18.467Z</time></trkpt><trkpt lat="44.0295043" lon="8.0220364"><ele>307.0</ele><time>2026-05-03T16:01:19.461Z</time></trkpt><trkpt lat="44.0294666" lon="8.0219506"><ele>307.0</ele><time>2026-05-03T16:01:20.459Z</time></trkpt><trkpt lat="44.0294212" lon="8.0218848"><ele>307.0</ele><time>2026-05-03T16:01:21.46Z</time></trkpt><trkpt lat="44.0293673" lon="8.0218253"><ele>307.0</ele><time>2026-05-03T16:01:22.462Z</time></trkpt><trkpt lat="44.0293148" lon="8.0217608"><ele>306.99999999999994</ele><time>2026-05-03T16:01:23.462Z</time></trkpt><trkpt lat="44.0292531" lon="8.0216931"><ele>307.0</ele><time>2026-05-03T16:01:24.459Z</time></trkpt><trkpt lat="44.0291717" lon="8.0216241"><ele>305.5</ele><time>2026-05-03T16:01:25.459Z</time></trkpt><trkpt lat="44.0290969" lon="8.0215554"><ele>304.0</ele><time>2026-05-03T16:01:26.465Z</time></trkpt><trkpt lat="44.0290216" lon="8.0214842"><ele>302.5</ele><time>2026-05-03T16:01:27.46Z</time></trkpt><trkpt lat="44.0289477" lon="8.0214238"><ele>301.0</ele><time>2026-05-03T16:01:28.461Z</time></trkpt><trkpt lat="44.0288837" lon="8.0213614"><ele>299.5</ele><time>2026-05-03T16:01:29.461Z</time></trkpt><trkpt lat="44.0288089" lon="8.0212987"><ele>298.0</ele><time>2026-05-03T16:01:30.46Z</time></trkpt><trkpt lat="44.0287547" lon="8.0212147"><ele>298.0</ele><time>2026-05-03T16:01:31.463Z</time></trkpt><trkpt lat="44.0286906" lon="8.0211364"><ele>298.0</ele><time>2026-05-03T16:01:32.459Z</time></trkpt><trkpt lat="44.0286361" lon="8.0210469"><ele>298.0</ele><time>2026-05-03T16:01:33.458Z</time></trkpt><trkpt lat="44.0285793" lon="8.0209757"><ele>298.0</ele><time>2026-05-03T16:01:34.461Z</time></trkpt><trkpt lat="44.0285209" lon="8.0209103"><ele>298.0</ele><time>2026-05-03T16:01:35.463Z</time></trkpt><trkpt lat="44.0284486" lon="8.020856"><ele>298.0</ele><time>2026-05-03T16:01:36.464Z</time></trkpt><trkpt lat="44.0283657" lon="8.0208048"><ele>292.0</ele><time>2026-05-03T16:01:37.464Z</time></trkpt><trkpt lat="44.028283" lon="8.0207474"><ele>286.0</ele><time>2026-05-03T16:01:38.458Z</time></trkpt><trkpt lat="44.0282118" lon="8.0206761"><ele>280.0</ele><time>2026-05-03T16:01:39.459Z</time></trkpt><trkpt lat="44.0281329" lon="8.0206288"><ele>274.0</ele><time>2026-05-03T16:01:40.464Z</time></trkpt><trkpt lat="44.0280558" lon="8.020587"><ele>268.0</ele><time>2026-05-03T16:01:41.459Z</time></trkpt><trkpt lat="44.0279892" lon="8.0205573"><ele>262.0</ele><time>2026-05-03T16:01:42.459Z</time></trkpt><trkpt lat="44.0279183" lon="8.0205284"><ele>262.0</ele><time>2026-05-03T16:01:43.46Z</time></trkpt><trkpt lat="44.0278436" lon="8.0204959"><ele>262.0</ele><time>2026-05-03T16:01:44.46Z</time></trkpt><trkpt lat="44.027784" lon="8.0204481"><ele>262.0</ele><time>2026-05-03T16:01:45.465Z</time></trkpt><trkpt lat="44.0277216" lon="8.0203534"><ele>262.0</ele><time>2026-05-03T16:01:47.468Z</time></trkpt><trkpt lat="44.0277615" lon="8.0202486"><ele>262.0</ele><time>2026-05-03T16:01:49.459Z</time></trkpt><trkpt lat="44.0278539" lon="8.0201275"><ele>262.0</ele><time>2026-05-03T16:01:51.459Z</time></trkpt><trkpt lat="44.0279166" lon="8.0200681"><ele>262.0</ele><time>2026-05-03T16:01:52.46Z</time></trkpt><trkpt lat="44.0279961" lon="8.0200234"><ele>262.0</ele><time>2026-05-03T16:01:53.462Z</time></trkpt><trkpt lat="44.0280748" lon="8.0199577"><ele>262.0</ele><time>2026-05-03T16:01:54.461Z</time></trkpt><trkpt lat="44.0281411" lon="8.0198785"><ele>262.0</ele><time>2026-05-03T16:01:55.465Z</time></trkpt><trkpt lat="44.0282276" lon="8.0198314"><ele>262.0</ele><time>2026-05-03T16:01:56.463Z</time></trkpt><trkpt lat="44.0283129" lon="8.0197693"><ele>262.66666666666663</ele><time>2026-05-03T16:01:57.461Z</time></trkpt><trkpt lat="44.0283874" lon="8.019702"><ele>263.3333333333333</ele><time>2026-05-03T16:01:58.46Z</time></trkpt><trkpt lat="44.0284539" lon="8.0196287"><ele>264.0</ele><time>2026-05-03T16:01:59.46Z</time></trkpt><trkpt lat="44.0285176" lon="8.0195713"><ele>264.6666666666667</ele><time>2026-05-03T16:02:00.458Z</time></trkpt><trkpt lat="44.028576" lon="8.0194958"><ele>265.33333333333337</ele><time>2026-05-03T16:02:01.458Z</time></trkpt><trkpt lat="44.0286276" lon="8.019429"><ele>266.0</ele><time>2026-05-03T16:02:02.459Z</time></trkpt><trkpt lat="44.0286788" lon="8.0193662"><ele>266.0</ele><time>2026-05-03T16:02:03.464Z</time></trkpt><trkpt lat="44.028727" lon="8.0192976"><ele>266.0</ele><time>2026-05-03T16:02:04.462Z</time></trkpt><trkpt lat="44.0287632" lon="8.0191806"><ele>266.0</ele><time>2026-05-03T16:02:05.464Z</time></trkpt><trkpt lat="44.028798" lon="8.0190984"><ele>266.0</ele><time>2026-05-03T16:02:06.461Z</time></trkpt><trkpt lat="44.0288423" lon="8.0190081"><ele>266.0</ele><time>2026-05-03T16:02:07.462Z</time></trkpt><trkpt lat="44.028875" lon="8.0189238"><ele>266.0</ele><time>2026-05-03T16:02:08.46Z</time></trkpt><trkpt lat="44.0288956" lon="8.018788"><ele>266.83333333333337</ele><time>2026-05-03T16:02:09.46Z</time></trkpt><trkpt lat="44.0289378" lon="8.0186876"><ele>267.6666666666667</ele><time>2026-05-03T16:02:10.458Z</time></trkpt><trkpt lat="44.0289802" lon="8.018584"><ele>268.5</ele><time>2026-05-03T16:02:11.465Z</time></trkpt><trkpt lat="44.0290034" lon="8.0184767"><ele>269.3333333333333</ele><time>2026-05-03T16:02:12.461Z</time></trkpt><trkpt lat="44.0290505" lon="8.0183688"><ele>270.16666666666663</ele><time>2026-05-03T16:02:13.46Z</time></trkpt><trkpt lat="44.0290629" lon="8.0182579"><ele>271.0</ele><time>2026-05-03T16:02:14.459Z</time></trkpt><trkpt lat="44.0290659" lon="8.0181337"><ele>273.85714285714283</ele><time>2026-05-03T16:02:15.457Z</time></trkpt><trkpt lat="44.0290809" lon="8.018043"><ele>276.7142857142857</ele><time>2026-05-03T16:02:16.463Z</time></trkpt><trkpt lat="44.029112" lon="8.0179644"><ele>279.57142857142856</ele><time>2026-05-03T16:02:17.459Z</time></trkpt><trkpt lat="44.0291394" lon="8.017873"><ele>282.42857142857144</ele><time>2026-05-03T16:02:18.459Z</time></trkpt><trkpt lat="44.0291501" lon="8.0177755"><ele>285.2857142857143</ele><time>2026-05-03T16:02:20.459Z</time></trkpt><trkpt lat="44.029137" lon="8.017648"><ele>288.1428571428571</ele><time>2026-05-03T16:02:22.459Z</time></trkpt><trkpt lat="44.0290715" lon="8.0175964"><ele>291.0</ele><time>2026-05-03T16:02:24.465Z</time></trkpt><trkpt lat="44.0289634" lon="8.0176555"><ele>294.8</ele><time>2026-05-03T16:02:26.461Z</time></trkpt><trkpt lat="44.0288964" lon="8.0176959"><ele>298.6</ele><time>2026-05-03T16:02:27.458Z</time></trkpt><trkpt lat="44.0287986" lon="8.0177351"><ele>302.4</ele><time>2026-05-03T16:02:28.46Z</time></trkpt><trkpt lat="44.0287035" lon="8.0178084"><ele>306.2</ele><time>2026-05-03T16:02:29.459Z</time></trkpt><trkpt lat="44.0286216" lon="8.0178637"><ele>310.0</ele><time>2026-05-03T16:02:30.462Z</time></trkpt><trkpt lat="44.0285522" lon="8.0179181"><ele>310.0</ele><time>2026-05-03T16:02:31.465Z</time></trkpt><trkpt lat="44.0284703" lon="8.0179753"><ele>310.0</ele><time>2026-05-03T16:02:32.464Z</time></trkpt><trkpt lat="44.0283922" lon="8.0180187"><ele>310.0</ele><time>2026-05-03T16:02:33.458Z</time></trkpt><trkpt lat="44.0283077" lon="8.0180588"><ele>310.0</ele><time>2026-05-03T16:02:34.465Z</time></trkpt><trkpt lat="44.0282165" lon="8.0181024"><ele>310.0</ele><time>2026-05-03T16:02:35.462Z</time></trkpt><trkpt lat="44.0281345" lon="8.0181496"><ele>307.2</ele><time>2026-05-03T16:02:36.458Z</time></trkpt><trkpt lat="44.0280456" lon="8.0182134"><ele>304.4</ele><time>2026-05-03T16:02:37.458Z</time></trkpt><trkpt lat="44.0279553" lon="8.0182882"><ele>301.6</ele><time>2026-05-03T16:02:38.459Z</time></trkpt><trkpt lat="44.0278695" lon="8.0183448"><ele>298.8</ele><time>2026-05-03T16:02:39.461Z</time></trkpt><trkpt lat="44.0277866" lon="8.0183891"><ele>296.0</ele><time>2026-05-03T16:02:40.461Z</time></trkpt><trkpt lat="44.0277013" lon="8.0184429"><ele>291.5</ele><time>2026-05-03T16:02:41.463Z</time></trkpt><trkpt lat="44.0276272" lon="8.0184909"><ele>287.0</ele><time>2026-05-03T16:02:42.46Z</time></trkpt><trkpt lat="44.0275528" lon="8.018539"><ele>282.5</ele><time>2026-05-03T16:02:43.463Z</time></trkpt><trkpt lat="44.0274826" lon="8.0185874"><ele>278.0</ele><time>2026-05-03T16:02:44.461Z</time></trkpt><trkpt lat="44.027408" lon="8.0186059"><ele>273.5</ele><time>2026-05-03T16:02:45.459Z</time></trkpt><trkpt lat="44.0273318" lon="8.0186102"><ele>269.0</ele><time>2026-05-03T16:02:46.46Z</time></trkpt><trkpt lat="44.0272446" lon="8.0186334"><ele>264.1666666666667</ele><time>2026-05-03T16:02:47.466Z</time></trkpt><trkpt lat="44.0271624" lon="8.0186299"><ele>259.33333333333337</ele><time>2026-05-03T16:02:48.46Z</time></trkpt><trkpt lat="44.0270834" lon="8.018652"><ele>254.5</ele><time>2026-05-03T16:02:49.46Z</time></trkpt><trkpt lat="44.027017" lon="8.0186571"><ele>249.66666666666669</ele><time>2026-05-03T16:02:50.459Z</time></trkpt><trkpt lat="44.0269498" lon="8.0186384"><ele>244.83333333333334</ele><time>2026-05-03T16:02:51.461Z</time></trkpt><trkpt lat="44.0268856" lon="8.0185542"><ele>240.0</ele><time>2026-05-03T16:02:53.464Z</time></trkpt><trkpt lat="44.0268569" lon="8.0184672"><ele>240.0</ele><time>2026-05-03T16:02:54.464Z</time></trkpt><trkpt lat="44.0268429" lon="8.0183363"><ele>240.0</ele><time>2026-05-03T16:02:55.459Z</time></trkpt><trkpt lat="44.0268316" lon="8.0182106"><ele>240.0</ele><time>2026-05-03T16:02:56.457Z</time></trkpt><trkpt lat="44.0268175" lon="8.0180949"><ele>240.0</ele><time>2026-05-03T16:02:57.458Z</time></trkpt><trkpt lat="44.0268008" lon="8.0179817"><ele>240.0</ele><time>2026-05-03T16:02:58.46Z</time></trkpt><trkpt lat="44.0267784" lon="8.0178586"><ele>240.0</ele><time>2026-05-03T16:02:59.46Z</time></trkpt><trkpt lat="44.0267721" lon="8.0177503"><ele>240.33333333333334</ele><time>2026-05-03T16:03:00.456Z</time></trkpt><trkpt lat="44.0267744" lon="8.0176465"><ele>240.66666666666669</ele><time>2026-05-03T16:03:01.46Z</time></trkpt><trkpt lat="44.0267696" lon="8.0175483"><ele>241.0</ele><time>2026-05-03T16:03:02.46Z</time></trkpt><trkpt lat="44.0267616" lon="8.0174539"><ele>241.33333333333334</ele><time>2026-05-03T16:03:03.463Z</time></trkpt><trkpt lat="44.0267319" lon="8.0173384"><ele>241.66666666666669</ele><time>2026-05-03T16:03:04.464Z</time></trkpt><trkpt lat="44.0266815" lon="8.0172065"><ele>242.0</ele><time>2026-05-03T16:03:05.459Z</time></trkpt><trkpt lat="44.0266579" lon="8.0171027"><ele>238.50000000000003</ele><time>2026-05-03T16:03:06.462Z</time></trkpt><trkpt lat="44.0266429" lon="8.0169948"><ele>235.0</ele><time>2026-05-03T16:03:07.463Z</time></trkpt><trkpt lat="44.0266242" lon="8.016898"><ele>231.5</ele><time>2026-05-03T16:03:08.458Z</time></trkpt><trkpt lat="44.026607" lon="8.0167913"><ele>228.0</ele><time>2026-05-03T16:03:09.463Z</time></trkpt><trkpt lat="44.0265728" lon="8.0167026"><ele>224.50000000000003</ele><time>2026-05-03T16:03:10.46Z</time></trkpt><trkpt lat="44.0265332" lon="8.016618"><ele>221.0</ele><time>2026-05-03T16:03:11.457Z</time></trkpt><trkpt lat="44.0264727" lon="8.0165424"><ele>221.00000000000003</ele><time>2026-05-03T16:03:13.462Z</time></trkpt><trkpt lat="44.0264482" lon="8.0164401"><ele>221.0</ele><time>2026-05-03T16:03:15.459Z</time></trkpt><trkpt lat="44.0264131" lon="8.0163673"><ele>221.0</ele><time>2026-05-03T16:03:16.465Z</time></trkpt><trkpt lat="44.0263735" lon="8.016272"><ele>221.0</ele><time>2026-05-03T16:03:17.459Z</time></trkpt><trkpt lat="44.0263411" lon="8.0161566"><ele>221.00000000000003</ele><time>2026-05-03T16:03:18.46Z</time></trkpt><trkpt lat="44.0263174" lon="8.0160114"><ele>221.0</ele><time>2026-05-03T16:03:19.46Z</time></trkpt><trkpt lat="44.0263005" lon="8.0158728"><ele>225.60000000000002</ele><time>2026-05-03T16:03:20.459Z</time></trkpt><trkpt lat="44.0262704" lon="8.0157415"><ele>230.20000000000002</ele><time>2026-05-03T16:03:21.461Z</time></trkpt><trkpt lat="44.0262343" lon="8.0156376"><ele>234.79999999999998</ele><time>2026-05-03T16:03:22.459Z</time></trkpt><trkpt lat="44.0261807" lon="8.0155187"><ele>239.39999999999998</ele><time>2026-05-03T16:03:23.459Z</time></trkpt><trkpt lat="44.0261174" lon="8.0153908"><ele>244.0</ele><time>2026-05-03T16:03:24.461Z</time></trkpt><trkpt lat="44.026031" lon="8.015292"><ele>243.99999999999997</ele><time>2026-05-03T16:03:25.462Z</time></trkpt><trkpt lat="44.025977" lon="8.0152047"><ele>244.0</ele><time>2026-05-03T16:03:26.457Z</time></trkpt><trkpt lat="44.0259137" lon="8.0151565"><ele>243.99999999999997</ele><time>2026-05-03T16:03:27.46Z</time></trkpt><trkpt lat="44.0258533" lon="8.0151098"><ele>243.99999999999997</ele><time>2026-05-03T16:03:28.458Z</time></trkpt><trkpt lat="44.025786" lon="8.0150904"><ele>244.0</ele><time>2026-05-03T16:03:29.46Z</time></trkpt><trkpt lat="44.0257102" lon="8.0150555"><ele>243.99999999999997</ele><time>2026-05-03T16:03:30.461Z</time></trkpt><trkpt lat="44.0256429" lon="8.0150217"><ele>243.99999999999997</ele><time>2026-05-03T16:03:31.462Z</time></trkpt><trkpt lat="44.0255645" lon="8.0149857"><ele>243.66666666666666</ele><time>2026-05-03T16:03:33.464Z</time></trkpt><trkpt lat="44.0254805" lon="8.0149717"><ele>243.33333333333331</ele><time>2026-05-03T16:03:51.462Z</time></trkpt><trkpt lat="44.0253885" lon="8.0148542"><ele>243.0</ele><time>2026-05-03T16:03:53.466Z</time></trkpt><trkpt lat="44.0253348" lon="8.0147911"><ele>242.66666666666669</ele><time>2026-05-03T16:03:54.458Z</time></trkpt><trkpt lat="44.0252534" lon="8.0147577"><ele>242.33333333333334</ele><time>2026-05-03T16:03:55.458Z</time></trkpt><trkpt lat="44.0251859" lon="8.0147303"><ele>242.0</ele><time>2026-05-03T16:03:56.459Z</time></trkpt><trkpt lat="44.0250964" lon="8.0147335"><ele>242.00000000000003</ele><time>2026-05-03T16:03:57.46Z</time></trkpt><trkpt lat="44.0250205" lon="8.0147668"><ele>242.0</ele><time>2026-05-03T16:03:58.458Z</time></trkpt><trkpt lat="44.0249537" lon="8.014788"><ele>242.0</ele><time>2026-05-03T16:03:59.463Z</time></trkpt><trkpt lat="44.02484" lon="8.0147896"><ele>242.0</ele><time>2026-05-03T16:04:01.458Z</time></trkpt><trkpt lat="44.0247812" lon="8.0146929"><ele>242.00000000000003</ele><time>2026-05-03T16:04:03.462Z</time></trkpt><trkpt lat="44.0247827" lon="8.0145766"><ele>242.0</ele><time>2026-05-03T16:04:05.461Z</time></trkpt><trkpt lat="44.0247419" lon="8.0144628"><ele>241.50000000000003</ele><time>2026-05-03T16:04:07.463Z</time></trkpt><trkpt lat="44.0246583" lon="8.0143529"><ele>241.0</ele><time>2026-05-03T16:04:09.459Z</time></trkpt><trkpt lat="44.0246037" lon="8.0142852"><ele>240.5</ele><time>2026-05-03T16:04:10.458Z</time></trkpt><trkpt lat="44.0245732" lon="8.0141899"><ele>240.0</ele><time>2026-05-03T16:04:11.463Z</time></trkpt><trkpt lat="44.024527" lon="8.0140869"><ele>239.50000000000003</ele><time>2026-05-03T16:04:12.458Z</time></trkpt><trkpt lat="44.0244825" lon="8.013993"><ele>239.0</ele><time>2026-05-03T16:04:13.462Z</time></trkpt><trkpt lat="44.0244246" lon="8.0138976"><ele>239.0</ele><time>2026-05-03T16:04:14.46Z</time></trkpt><trkpt lat="44.0243453" lon="8.013791"><ele>238.99999999999997</ele><time>2026-05-03T16:04:15.461Z</time></trkpt><trkpt lat="44.0242746" lon="8.0137129"><ele>238.99999999999997</ele><time>2026-05-03T16:04:16.458Z</time></trkpt><trkpt lat="44.0242101" lon="8.0136206"><ele>239.0</ele><time>2026-05-03T16:04:17.458Z</time></trkpt><trkpt lat="44.024155" lon="8.0135061"><ele>239.0</ele><time>2026-05-03T16:04:18.457Z</time></trkpt><trkpt lat="44.024091" lon="8.0134263"><ele>238.00000000000003</ele><time>2026-05-03T16:04:19.466Z</time></trkpt><trkpt lat="44.0240269" lon="8.0133494"><ele>237.0</ele><time>2026-05-03T16:04:20.456Z</time></trkpt><trkpt lat="44.0239655" lon="8.0132867"><ele>236.0</ele><time>2026-05-03T16:04:21.458Z</time></trkpt><trkpt lat="44.0238825" lon="8.0132205"><ele>235.0</ele><time>2026-05-03T16:04:22.458Z</time></trkpt><trkpt lat="44.0238076" lon="8.0131591"><ele>234.00000000000003</ele><time>2026-05-03T16:04:23.459Z</time></trkpt><trkpt lat="44.0237332" lon="8.0130917"><ele>233.0</ele><time>2026-05-03T16:04:24.462Z</time></trkpt><trkpt lat="44.0236637" lon="8.0130095"><ele>233.00000000000003</ele><time>2026-05-03T16:04:25.459Z</time></trkpt><trkpt lat="44.0235951" lon="8.0129295"><ele>233.0</ele><time>2026-05-03T16:04:26.459Z</time></trkpt><trkpt lat="44.0235278" lon="8.01288"><ele>233.0</ele><time>2026-05-03T16:04:27.46Z</time></trkpt><trkpt lat="44.0234888" lon="8.0127903"><ele>233.0</ele><time>2026-05-03T16:04:28.458Z</time></trkpt><trkpt lat="44.0234219" lon="8.0126888"><ele>233.00000000000003</ele><time>2026-05-03T16:04:30.467Z</time></trkpt><trkpt lat="44.0233451" lon="8.0126477"><ele>233.0</ele><time>2026-05-03T16:04:39.458Z</time></trkpt><trkpt lat="44.0232764" lon="8.0127323"><ele>233.0</ele><time>2026-05-03T16:04:41.464Z</time></trkpt><trkpt lat="44.0232438" lon="8.0128865"><ele>233.0</ele><time>2026-05-03T16:04:43.457Z</time></trkpt><trkpt lat="44.0233126" lon="8.0130539"><ele>233.0</ele><time>2026-05-03T16:04:45.459Z</time></trkpt><trkpt lat="44.0233323" lon="8.0132029"><ele>233.0</ele><time>2026-05-03T16:04:47.457Z</time></trkpt><trkpt lat="44.0232684" lon="8.0132423"><ele>233.0</ele><time>2026-05-03T16:04:49.456Z</time></trkpt><trkpt lat="44.0231951" lon="8.0131544"><ele>233.50000000000003</ele><time>2026-05-03T16:04:52.459Z</time></trkpt><trkpt lat="44.0231618" lon="8.0130319"><ele>234.0</ele><time>2026-05-03T16:04:54.457Z</time></trkpt><trkpt lat="44.0231039" lon="8.012957"><ele>234.5</ele><time>2026-05-03T16:04:56.458Z</time></trkpt><trkpt lat="44.0230094" lon="8.01292"><ele>235.0</ele><time>2026-05-03T16:04:58.461Z</time></trkpt><trkpt lat="44.0229596" lon="8.0128498"><ele>235.50000000000003</ele><time>2026-05-03T16:05:00.458Z</time></trkpt><trkpt lat="44.0229317" lon="8.0127533"><ele>236.0</ele><time>2026-05-03T16:05:02.457Z</time></trkpt><trkpt lat="44.0229296" lon="8.0126078"><ele>236.0</ele><time>2026-05-03T16:05:04.465Z</time></trkpt><trkpt lat="44.022949" lon="8.0124963"><ele>236.0</ele><time>2026-05-03T16:05:05.458Z</time></trkpt><trkpt lat="44.0229429" lon="8.0124031"><ele>236.0</ele><time>2026-05-03T16:05:06.459Z</time></trkpt><trkpt lat="44.0229373" lon="8.0123144"><ele>236.0</ele><time>2026-05-03T16:05:07.465Z</time></trkpt><trkpt lat="44.0229177" lon="8.0122165"><ele>236.0</ele><time>2026-05-03T16:05:08.463Z</time></trkpt><trkpt lat="44.0228745" lon="8.0121088"><ele>236.0</ele><time>2026-05-03T16:05:09.457Z</time></trkpt><trkpt lat="44.0228519" lon="8.0120165"><ele>236.0</ele><time>2026-05-03T16:05:10.459Z</time></trkpt><trkpt lat="44.0228226" lon="8.011935"><ele>236.8</ele><time>2026-05-03T16:05:11.459Z</time></trkpt><trkpt lat="44.0227603" lon="8.0118186"><ele>237.60000000000002</ele><time>2026-05-03T16:05:13.46Z</time></trkpt><trkpt lat="44.0226861" lon="8.0118339"><ele>238.4</ele><time>2026-05-03T16:05:15.459Z</time></trkpt><trkpt lat="44.0226643" lon="8.0120005"><ele>239.2</ele><time>2026-05-03T16:05:17.462Z</time></trkpt><trkpt lat="44.0226466" lon="8.0121104"><ele>240.0</ele><time>2026-05-03T16:05:18.462Z</time></trkpt><trkpt lat="44.0225929" lon="8.0122833"><ele>240.0</ele><time>2026-05-03T16:05:20.463Z</time></trkpt><trkpt lat="44.0225413" lon="8.0123588"><ele>240.0</ele><time>2026-05-03T16:05:21.46Z</time></trkpt><trkpt lat="44.0224984" lon="8.0124621"><ele>240.0</ele><time>2026-05-03T16:05:22.455Z</time></trkpt><trkpt lat="44.0224245" lon="8.0126068"><ele>240.0</ele><time>2026-05-03T16:05:24.459Z</time></trkpt><trkpt lat="44.0223348" lon="8.0127021"><ele>240.0</ele><time>2026-05-03T16:05:26.46Z</time></trkpt><trkpt lat="44.0222386" lon="8.0127069"><ele>243.66666666666666</ele><time>2026-05-03T16:05:28.466Z</time></trkpt><trkpt lat="44.0221711" lon="8.0127043"><ele>247.33333333333331</ele><time>2026-05-03T16:05:29.464Z</time></trkpt><trkpt lat="44.0220988" lon="8.012686"><ele>251.0</ele><time>2026-05-03T16:05:30.464Z</time></trkpt><trkpt lat="44.022031" lon="8.0126846"><ele>254.66666666666666</ele><time>2026-05-03T16:05:31.459Z</time></trkpt><trkpt lat="44.0219672" lon="8.0126922"><ele>258.3333333333333</ele><time>2026-05-03T16:05:32.465Z</time></trkpt><trkpt lat="44.0218474" lon="8.0127316"><ele>262.0</ele><time>2026-05-03T16:05:34.461Z</time></trkpt><trkpt lat="44.0217903" lon="8.0127689"><ele>262.0</ele><time>2026-05-03T16:05:35.46Z</time></trkpt><trkpt lat="44.0217105" lon="8.0127867"><ele>262.0</ele><time>2026-05-03T16:05:36.459Z</time></trkpt><trkpt lat="44.0216329" lon="8.0128137"><ele>262.0</ele><time>2026-05-03T16:05:37.464Z</time></trkpt><trkpt lat="44.0215447" lon="8.0128261"><ele>262.0</ele><time>2026-05-03T16:05:38.458Z</time></trkpt><trkpt lat="44.0214672" lon="8.0128419"><ele>262.0</ele><time>2026-05-03T16:05:39.46Z</time></trkpt><trkpt lat="44.0213531" lon="8.0128797"><ele>262.0</ele><time>2026-05-03T16:05:41.458Z</time></trkpt><trkpt lat="44.0212471" lon="8.012859"><ele>265.4</ele><time>2026-05-03T16:05:43.459Z</time></trkpt><trkpt lat="44.0211295" lon="8.0128684"><ele>268.79999999999995</ele><time>2026-05-03T16:05:45.459Z</time></trkpt><trkpt lat="44.0210174" lon="8.012877"><ele>272.2</ele><time>2026-05-03T16:05:47.46Z</time></trkpt><trkpt lat="44.0209529" lon="8.0128603"><ele>275.59999999999997</ele><time>2026-05-03T16:05:48.459Z</time></trkpt><trkpt lat="44.0208398" lon="8.0128501"><ele>279.0</ele><time>2026-05-03T16:05:50.46Z</time></trkpt><trkpt lat="44.0207623" lon="8.012864"><ele>279.8</ele><time>2026-05-03T16:05:51.461Z</time></trkpt><trkpt lat="44.020671" lon="8.0128613"><ele>280.59999999999997</ele><time>2026-05-03T16:05:53.455Z</time></trkpt><trkpt lat="44.0205753" lon="8.0128876"><ele>281.4</ele><time>2026-05-03T16:05:55.46Z</time></trkpt><trkpt lat="44.0204612" lon="8.0128874"><ele>282.2</ele><time>2026-05-03T16:05:57.464Z</time></trkpt><trkpt lat="44.0203632" lon="8.0128619"><ele>283.0</ele><time>2026-05-03T16:05:59.46Z</time></trkpt><trkpt lat="44.0202685" lon="8.0128518"><ele>283.0</ele><time>2026-05-03T16:06:01.461Z</time></trkpt><trkpt lat="44.0201454" lon="8.0128658"><ele>283.0</ele><time>2026-05-03T16:06:03.458Z</time></trkpt><trkpt lat="44.020071" lon="8.0128622"><ele>283.0</ele><time>2026-05-03T16:06:04.458Z</time></trkpt><trkpt lat="44.019995" lon="8.0128536"><ele>283.0</ele><time>2026-05-03T16:06:05.46Z</time></trkpt><trkpt lat="44.0199278" lon="8.0128349"><ele>283.0</ele><time>2026-05-03T16:06:06.462Z</time></trkpt><trkpt lat="44.0198212" lon="8.0128088"><ele>285.4</ele><time>2026-05-03T16:06:08.459Z</time></trkpt><trkpt lat="44.0196982" lon="8.0128003"><ele>287.8</ele><time>2026-05-03T16:06:10.459Z</time></trkpt><trkpt lat="44.0196344" lon="8.0128165"><ele>290.2</ele><time>2026-05-03T16:06:11.468Z</time></trkpt><trkpt lat="44.01952" lon="8.0128347"><ele>292.6</ele><time>2026-05-03T16:06:13.457Z</time></trkpt><trkpt lat="44.0194289" lon="8.0127984"><ele>295.0</ele><time>2026-05-03T16:06:15.463Z</time></trkpt><trkpt lat="44.0193344" lon="8.0127984"><ele>295.0</ele><time>2026-05-03T16:06:17.463Z</time></trkpt><trkpt lat="44.0192402" lon="8.0128722"><ele>295.0</ele><time>2026-05-03T16:06:19.465Z</time></trkpt><trkpt lat="44.0191491" lon="8.0129097"><ele>295.0</ele><time>2026-05-03T16:06:21.458Z</time></trkpt><trkpt lat="44.019027" lon="8.0129152"><ele>295.0</ele><time>2026-05-03T16:06:23.461Z</time></trkpt><trkpt lat="44.018953" lon="8.0129335"><ele>295.0</ele><time>2026-05-03T16:06:24.458Z</time></trkpt><trkpt lat="44.0188685" lon="8.0129662"><ele>297.5</ele><time>2026-05-03T16:06:25.461Z</time></trkpt><trkpt lat="44.0187872" lon="8.0129911"><ele>300.0</ele><time>2026-05-03T16:06:26.461Z</time></trkpt><trkpt lat="44.0187132" lon="8.013017"><ele>302.5</ele><time>2026-05-03T16:06:27.458Z</time></trkpt><trkpt lat="44.0186431" lon="8.0130344"><ele>305.0</ele><time>2026-05-03T16:06:28.46Z</time></trkpt><trkpt lat="44.0185788" lon="8.0130435"><ele>307.5</ele><time>2026-05-03T16:06:29.458Z</time></trkpt><trkpt lat="44.0184702" lon="8.0129921"><ele>310.0</ele><time>2026-05-03T16:06:31.461Z</time></trkpt><trkpt lat="44.0183587" lon="8.01298"><ele>311.0</ele><time>2026-05-03T16:06:33.459Z</time></trkpt><trkpt lat="44.0182519" lon="8.013045"><ele>312.0</ele><time>2026-05-03T16:06:35.459Z</time></trkpt><trkpt lat="44.0181368" lon="8.0130404"><ele>313.0</ele><time>2026-05-03T16:06:37.466Z</time></trkpt><trkpt lat="44.0180228" lon="8.01307"><ele>314.0</ele><time>2026-05-03T16:06:39.458Z</time></trkpt><trkpt lat="44.0179255" lon="8.0130792"><ele>315.0</ele><time>2026-05-03T16:06:41.466Z</time></trkpt><trkpt lat="44.0178025" lon="8.0130888"><ele>315.0</ele><time>2026-05-03T16:06:43.462Z</time></trkpt><trkpt lat="44.0177372" lon="8.0131067"><ele>315.0</ele><time>2026-05-03T16:06:44.46Z</time></trkpt><trkpt lat="44.0176728" lon="8.0131327"><ele>315.0</ele><time>2026-05-03T16:06:45.457Z</time></trkpt><trkpt lat="44.0176127" lon="8.0131679"><ele>315.0</ele><time>2026-05-03T16:06:46.461Z</time></trkpt><trkpt lat="44.0175146" lon="8.0131693"><ele>315.0</ele><time>2026-05-03T16:06:48.463Z</time></trkpt><trkpt lat="44.0174624" lon="8.0130814"><ele>315.0</ele><time>2026-05-03T16:06:50.458Z</time></trkpt><trkpt lat="44.0174324" lon="8.012942"><ele>315.8333333333333</ele><time>2026-05-03T16:06:52.462Z</time></trkpt><trkpt lat="44.0174168" lon="8.0128523"><ele>316.6666666666667</ele><time>2026-05-03T16:06:53.458Z</time></trkpt><trkpt lat="44.0173603" lon="8.0128078"><ele>317.5</ele><time>2026-05-03T16:06:55.461Z</time></trkpt><trkpt lat="44.0172842" lon="8.0128485"><ele>318.33333333333337</ele><time>2026-05-03T16:06:57.463Z</time></trkpt><trkpt lat="44.017202" lon="8.012961"><ele>319.1666666666667</ele><time>2026-05-03T16:06:59.461Z</time></trkpt><trkpt lat="44.0170998" lon="8.0130119"><ele>320.0</ele><time>2026-05-03T16:07:01.462Z</time></trkpt><trkpt lat="44.0170248" lon="8.0130269"><ele>320.0</ele><time>2026-05-03T16:07:02.459Z</time></trkpt><trkpt lat="44.0168935" lon="8.0130633"><ele>320.0</ele><time>2026-05-03T16:07:04.465Z</time></trkpt><trkpt lat="44.0167818" lon="8.0130437"><ele>320.0</ele><time>2026-05-03T16:07:06.459Z</time></trkpt><trkpt lat="44.0166743" lon="8.0130325"><ele>320.0</ele><time>2026-05-03T16:07:08.463Z</time></trkpt><trkpt lat="44.01661" lon="8.0130006"><ele>320.0</ele><time>2026-05-03T16:07:09.463Z</time></trkpt><trkpt lat="44.0165463" lon="8.0129713"><ele>318.2</ele><time>2026-05-03T16:07:10.46Z</time></trkpt><trkpt lat="44.016434" lon="8.0129127"><ele>316.4</ele><time>2026-05-03T16:07:12.461Z</time></trkpt><trkpt lat="44.0163107" lon="8.0128674"><ele>314.6</ele><time>2026-05-03T16:07:14.46Z</time></trkpt><trkpt lat="44.0162501" lon="8.0128372"><ele>312.8</ele><time>2026-05-03T16:07:15.461Z</time></trkpt><trkpt lat="44.0161312" lon="8.0127757"><ele>311.0</ele><time>2026-05-03T16:07:17.462Z</time></trkpt><trkpt lat="44.0160386" lon="8.0127034"><ele>311.0</ele><time>2026-05-03T16:07:19.458Z</time></trkpt><trkpt lat="44.0159837" lon="8.0126169"><ele>311.0</ele><time>2026-05-03T16:07:21.463Z</time></trkpt><trkpt lat="44.0159182" lon="8.0125598"><ele>311.0</ele><time>2026-05-03T16:07:23.466Z</time></trkpt><trkpt lat="44.0158323" lon="8.0125835"><ele>311.0</ele><time>2026-05-03T16:07:25.459Z</time></trkpt><trkpt lat="44.0157463" lon="8.0126621"><ele>311.0</ele><time>2026-05-03T16:07:27.458Z</time></trkpt><trkpt lat="44.0156615" lon="8.0127156"><ele>311.0</ele><time>2026-05-03T16:07:29.46Z</time></trkpt><trkpt lat="44.0155799" lon="8.0127641"><ele>310.6666666666667</ele><time>2026-05-03T16:07:31.459Z</time></trkpt><trkpt lat="44.0155187" lon="8.0127971"><ele>310.33333333333337</ele><time>2026-05-03T16:07:33.461Z</time></trkpt><trkpt lat="44.015446" lon="8.0127719"><ele>310.0</ele><time>2026-05-03T16:07:35.464Z</time></trkpt><trkpt lat="44.0153796" lon="8.012701"><ele>309.6666666666667</ele><time>2026-05-03T16:07:37.462Z</time></trkpt><trkpt lat="44.0152807" lon="8.0126811"><ele>309.3333333333333</ele><time>2026-05-03T16:07:39.464Z</time></trkpt><trkpt lat="44.0151919" lon="8.0126794"><ele>309.0</ele><time>2026-05-03T16:07:41.459Z</time></trkpt><trkpt lat="44.0151149" lon="8.0126455"><ele>309.00000000000006</ele><time>2026-05-03T16:07:43.457Z</time></trkpt><trkpt lat="44.0151022" lon="8.0125585"><ele>309.0</ele><time>2026-05-03T16:07:45.459Z</time></trkpt><trkpt lat="44.0151374" lon="8.0124796"><ele>309.0</ele><time>2026-05-03T16:07:47.458Z</time></trkpt><trkpt lat="44.015208" lon="8.0125073"><ele>309.0</ele><time>2026-05-03T16:07:49.459Z</time></trkpt><trkpt lat="44.0152724" lon="8.0125177"><ele>309.0</ele><time>2026-05-03T16:07:50.459Z</time></trkpt><trkpt lat="44.0153546" lon="8.0125037"><ele>309.00000000000006</ele><time>2026-05-03T16:07:52.463Z</time></trkpt><trkpt lat="44.0154211" lon="8.0124239"><ele>309.0</ele><time>2026-05-03T16:07:54.458Z</time></trkpt><trkpt lat="44.0154965" lon="8.0124002"><ele>313.3333333333333</ele><time>2026-05-03T16:07:56.46Z</time></trkpt><trkpt lat="44.0155615" lon="8.0123578"><ele>317.6666666666667</ele><time>2026-05-03T16:07:58.462Z</time></trkpt><trkpt lat="44.0156368" lon="8.0122438"><ele>322.0</ele><time>2026-05-03T16:08:00.457Z</time></trkpt><trkpt lat="44.0156973" lon="8.0121781"><ele>326.33333333333337</ele><time>2026-05-03T16:08:02.457Z</time></trkpt><trkpt lat="44.0157594" lon="8.0120877"><ele>330.6666666666667</ele><time>2026-05-03T16:08:04.46Z</time></trkpt><trkpt lat="44.0158281" lon="8.0120026"><ele>335.0</ele><time>2026-05-03T16:08:06.461Z</time></trkpt><trkpt lat="44.0159353" lon="8.011974"><ele>335.5</ele><time>2026-05-03T16:08:11.461Z</time></trkpt><trkpt lat="44.0159981" lon="8.0120276"><ele>336.0</ele><time>2026-05-03T16:08:13.459Z</time></trkpt><trkpt lat="44.0160585" lon="8.0120653"><ele>336.5</ele><time>2026-05-03T16:08:15.44Z</time></trkpt><trkpt lat="44.0161248" lon="8.0121055"><ele>337.0</ele><time>2026-05-03T16:08:16.458Z</time></trkpt><trkpt lat="44.0161993" lon="8.0121653"><ele>337.5</ele><time>2026-05-03T16:08:17.459Z</time></trkpt><trkpt lat="44.0162627" lon="8.0122246"><ele>338.0</ele><time>2026-05-03T16:08:18.461Z</time></trkpt><trkpt lat="44.0163677" lon="8.0122413"><ele>338.0</ele><time>2026-05-03T16:08:20.457Z</time></trkpt><trkpt lat="44.0164403" lon="8.0122032"><ele>338.0</ele><time>2026-05-03T16:08:22.457Z</time></trkpt><trkpt lat="44.0163946" lon="8.0121127"><ele>338.0</ele><time>2026-05-03T16:08:24.461Z</time></trkpt><trkpt lat="44.0163175" lon="8.012011"><ele>338.0</ele><time>2026-05-03T16:08:26.461Z</time></trkpt><trkpt lat="44.0162397" lon="8.0118697"><ele>338.0</ele><time>2026-05-03T16:08:28.463Z</time></trkpt><trkpt lat="44.0161875" lon="8.011797"><ele>338.0</ele><time>2026-05-03T16:08:29.458Z</time></trkpt><trkpt lat="44.0161318" lon="8.0117326"><ele>338.0</ele><time>2026-05-03T16:08:30.457Z</time></trkpt><trkpt lat="44.0160752" lon="8.0116821"><ele>338.0</ele><time>2026-05-03T16:08:31.458Z</time></trkpt><trkpt lat="44.0159911" lon="8.0116098"><ele>338.0</ele><time>2026-05-03T16:08:33.458Z</time></trkpt><trkpt lat="44.0158972" lon="8.0116199"><ele>338.0</ele><time>2026-05-03T16:08:35.467Z</time></trkpt><trkpt lat="44.0157938" lon="8.011662"><ele>338.0</ele><time>2026-05-03T16:08:37.458Z</time></trkpt><trkpt lat="44.0157071" lon="8.0117276"><ele>337.4</ele><time>2026-05-03T16:08:39.46Z</time></trkpt><trkpt lat="44.0155955" lon="8.0117718"><ele>336.79999999999995</ele><time>2026-05-03T16:08:41.46Z</time></trkpt><trkpt lat="44.0154648" lon="8.0117598"><ele>336.2</ele><time>2026-05-03T16:08:43.455Z</time></trkpt><trkpt lat="44.0153984" lon="8.0117389"><ele>335.6</ele><time>2026-05-03T16:08:44.461Z</time></trkpt><trkpt lat="44.0153342" lon="8.0117168"><ele>335.0</ele><time>2026-05-03T16:08:45.459Z</time></trkpt><trkpt lat="44.0152632" lon="8.0116908"><ele>335.0</ele><time>2026-05-03T16:08:46.458Z</time></trkpt><trkpt lat="44.015193" lon="8.0116595"><ele>335.0</ele><time>2026-05-03T16:08:47.458Z</time></trkpt><trkpt lat="44.0151208" lon="8.0116247"><ele>335.0</ele><time>2026-05-03T16:08:48.46Z</time></trkpt><trkpt lat="44.0150202" lon="8.0115873"><ele>335.0</ele><time>2026-05-03T16:08:50.458Z</time></trkpt><trkpt lat="44.0151077" lon="8.0115577"><ele>335.0</ele><time>2026-05-03T16:08:56.463Z</time></trkpt><trkpt lat="44.0151989" lon="8.0115523"><ele>335.0</ele><time>2026-05-03T16:08:58.458Z</time></trkpt><trkpt lat="44.0152911" lon="8.011514"><ele>340.2</ele><time>2026-05-03T16:09:00.458Z</time></trkpt><trkpt lat="44.0153539" lon="8.011503"><ele>345.4</ele><time>2026-05-03T16:09:01.467Z</time></trkpt><trkpt lat="44.0154675" lon="8.0115358"><ele>350.6</ele><time>2026-05-03T16:09:03.459Z</time></trkpt><trkpt lat="44.0155394" lon="8.0115747"><ele>355.8</ele><time>2026-05-03T16:09:05.457Z</time></trkpt><trkpt lat="44.0156615" lon="8.0115393"><ele>361.0</ele><time>2026-05-03T16:10:20.459Z</time></trkpt><trkpt lat="44.0157231" lon="8.0114352"><ele>361.0</ele><time>2026-05-03T16:10:22.461Z</time></trkpt><trkpt lat="44.0157758" lon="8.011332"><ele>361.0</ele><time>2026-05-03T16:10:24.46Z</time></trkpt><trkpt lat="44.0158222" lon="8.011253"><ele>361.0</ele><time>2026-05-03T16:10:26.46Z</time></trkpt><trkpt lat="44.0158912" lon="8.0111763"><ele>361.0</ele><time>2026-05-03T16:10:28.459Z</time></trkpt><trkpt lat="44.0160149" lon="8.0112203"><ele>361.0</ele><time>2026-05-03T16:10:30.461Z</time></trkpt><trkpt lat="44.0161208" lon="8.0112599"><ele>362.20000000000005</ele><time>2026-05-03T16:10:32.46Z</time></trkpt><trkpt lat="44.0162318" lon="8.0112768"><ele>363.40000000000003</ele><time>2026-05-03T16:10:34.456Z</time></trkpt><trkpt lat="44.0163462" lon="8.0113189"><ele>364.6</ele><time>2026-05-03T16:10:36.46Z</time></trkpt><trkpt lat="44.0164436" lon="8.0113976"><ele>365.8</ele><time>2026-05-03T16:10:38.458Z</time></trkpt><trkpt lat="44.0165076" lon="8.0114229"><ele>367.0</ele><time>2026-05-03T16:10:39.461Z</time></trkpt><trkpt lat="44.0166047" lon="8.0114675"><ele>367.3333333333333</ele><time>2026-05-03T16:10:41.457Z</time></trkpt><trkpt lat="44.0166814" lon="8.0114287"><ele>367.66666666666663</ele><time>2026-05-03T16:10:43.458Z</time></trkpt><trkpt lat="44.0167244" lon="8.0113392"><ele>368.0</ele><time>2026-05-03T16:10:45.458Z</time></trkpt><trkpt lat="44.0167431" lon="8.0112406"><ele>368.3333333333333</ele><time>2026-05-03T16:10:47.458Z</time></trkpt><trkpt lat="44.0167241" lon="8.0111308"><ele>368.6666666666667</ele><time>2026-05-03T16:10:49.459Z</time></trkpt><trkpt lat="44.0167245" lon="8.0109693"><ele>369.0</ele><time>2026-05-03T16:10:51.46Z</time></trkpt><trkpt lat="44.0166588" lon="8.0109501"><ele>368.5</ele><time>2026-05-03T16:10:53.455Z</time></trkpt><trkpt lat="44.0165869" lon="8.0109658"><ele>368.0</ele><time>2026-05-03T16:10:55.456Z</time></trkpt><trkpt lat="44.0165418" lon="8.0108601"><ele>367.5</ele><time>2026-05-03T16:10:58.461Z</time></trkpt><trkpt lat="44.0166517" lon="8.0108067"><ele>367.0</ele><time>2026-05-03T16:11:02.463Z</time></trkpt><trkpt lat="44.0168044" lon="8.0106843"><ele>371.66666666666663</ele><time>2026-05-03T16:11:06.458Z</time></trkpt><trkpt lat="44.0168703" lon="8.0106094"><ele>376.3333333333333</ele><time>2026-05-03T16:11:07.46Z</time></trkpt><trkpt lat="44.0169303" lon="8.0105506"><ele>381.0</ele><time>2026-05-03T16:11:08.459Z</time></trkpt><trkpt lat="44.0169967" lon="8.0105033"><ele>385.66666666666663</ele><time>2026-05-03T16:11:09.465Z</time></trkpt><trkpt lat="44.0170624" lon="8.0104624"><ele>390.3333333333333</ele><time>2026-05-03T16:11:10.459Z</time></trkpt><trkpt lat="44.0171233" lon="8.0104278"><ele>395.0</ele><time>2026-05-03T16:11:11.458Z</time></trkpt><trkpt lat="44.017213" lon="8.0103827"><ele>394.99999999999994</ele><time>2026-05-03T16:11:13.465Z</time></trkpt><trkpt lat="44.0172604" lon="8.0103088"><ele>395.0</ele><time>2026-05-03T16:11:16.46Z</time></trkpt><trkpt lat="44.0171465" lon="8.0102589"><ele>395.0</ele><time>2026-05-03T16:11:18.458Z</time></trkpt><trkpt lat="44.0170781" lon="8.0102639"><ele>395.0</ele><time>2026-05-03T16:11:19.457Z</time></trkpt><trkpt lat="44.0170103" lon="8.0102511"><ele>394.99999999999994</ele><time>2026-05-03T16:11:20.461Z</time></trkpt><trkpt lat="44.0169471" lon="8.0102513"><ele>395.0</ele><time>2026-05-03T16:11:21.46Z</time></trkpt><trkpt lat="44.0168574" lon="8.0102376"><ele>395.0</ele><time>2026-05-03T16:11:22.46Z</time></trkpt><trkpt lat="44.0167939" lon="8.0102139"><ele>395.0</ele><time>2026-05-03T16:11:23.459Z</time></trkpt><trkpt lat="44.0167308" lon="8.0102253"><ele>395.0</ele><time>2026-05-03T16:11:24.457Z</time></trkpt><trkpt lat="44.0166305" lon="8.0101928"><ele>395.0</ele><time>2026-05-03T16:11:26.465Z</time></trkpt><trkpt lat="44.0165626" lon="8.0100809"><ele>395.0</ele><time>2026-05-03T16:11:28.46Z</time></trkpt><trkpt lat="44.0164756" lon="8.0099514"><ele>397.3333333333333</ele><time>2026-05-03T16:11:30.463Z</time></trkpt><trkpt lat="44.0164235" lon="8.0098696"><ele>399.66666666666663</ele><time>2026-05-03T16:11:31.459Z</time></trkpt><trkpt lat="44.0163762" lon="8.0097725"><ele>402.0</ele><time>2026-05-03T16:11:32.459Z</time></trkpt><trkpt lat="44.016326" lon="8.0096957"><ele>404.33333333333337</ele><time>2026-05-03T16:11:33.458Z</time></trkpt><trkpt lat="44.0162809" lon="8.0096231"><ele>406.6666666666667</ele><time>2026-05-03T16:11:34.459Z</time></trkpt><trkpt lat="44.0162272" lon="8.0095648"><ele>409.0</ele><time>2026-05-03T16:11:35.456Z</time></trkpt><trkpt lat="44.0161292" lon="8.0094884"><ele>409.0</ele><time>2026-05-03T16:11:37.46Z</time></trkpt><trkpt lat="44.0160294" lon="8.0094322"><ele>409.0</ele><time>2026-05-03T16:11:39.46Z</time></trkpt><trkpt lat="44.0159714" lon="8.0093899"><ele>409.0</ele><time>2026-05-03T16:11:40.465Z</time></trkpt><trkpt lat="44.0158601" lon="8.0093218"><ele>409.0</ele><time>2026-05-03T16:11:42.464Z</time></trkpt><trkpt lat="44.0157915" lon="8.0093285"><ele>409.0</ele><time>2026-05-03T16:11:43.46Z</time></trkpt><trkpt lat="44.0156847" lon="8.009379"><ele>410.1666666666667</ele><time>2026-05-03T16:11:45.457Z</time></trkpt><trkpt lat="44.0156308" lon="8.0094305"><ele>411.33333333333337</ele><time>2026-05-03T16:11:46.464Z</time></trkpt><trkpt lat="44.0155631" lon="8.0095668"><ele>412.5</ele><time>2026-05-03T16:11:48.459Z</time></trkpt><trkpt lat="44.0155056" lon="8.0096781"><ele>413.66666666666663</ele><time>2026-05-03T16:11:50.464Z</time></trkpt><trkpt lat="44.0154533" lon="8.0097756"><ele>414.8333333333333</ele><time>2026-05-03T16:11:52.459Z</time></trkpt><trkpt lat="44.0153925" lon="8.0098224"><ele>416.0</ele><time>2026-05-03T16:11:54.461Z</time></trkpt><trkpt lat="44.0153356" lon="8.009742"><ele>415.99999999999994</ele><time>2026-05-03T16:11:57.46Z</time></trkpt><trkpt lat="44.0153403" lon="8.0096466"><ele>416.0</ele><time>2026-05-03T16:11:59.46Z</time></trkpt><trkpt lat="44.0153448" lon="8.0095561"><ele>416.0</ele><time>2026-05-03T16:12:00.458Z</time></trkpt><trkpt lat="44.015352" lon="8.009399"><ele>416.0</ele><time>2026-05-03T16:12:02.46Z</time></trkpt><trkpt lat="44.0153793" lon="8.0092566"><ele>415.99999999999994</ele><time>2026-05-03T16:12:04.457Z</time></trkpt><trkpt lat="44.0153954" lon="8.0091643"><ele>416.0</ele><time>2026-05-03T16:12:05.458Z</time></trkpt><trkpt lat="44.0154253" lon="8.0090866"><ele>422.0</ele><time>2026-05-03T16:12:06.461Z</time></trkpt><trkpt lat="44.0154563" lon="8.0090005"><ele>428.0</ele><time>2026-05-03T16:12:07.46Z</time></trkpt><trkpt lat="44.0155177" lon="8.0088442"><ele>434.0</ele><time>2026-05-03T16:12:09.461Z</time></trkpt><trkpt lat="44.0155921" lon="8.0087473"><ele>440.0</ele><time>2026-05-03T16:12:11.462Z</time></trkpt><trkpt lat="44.0156645" lon="8.0086157"><ele>446.0</ele><time>2026-05-03T16:12:13.461Z</time></trkpt><trkpt lat="44.0157463" lon="8.0085363"><ele>444.4</ele><time>2026-05-03T16:12:15.46Z</time></trkpt><trkpt lat="44.0158578" lon="8.0084383"><ele>442.8</ele><time>2026-05-03T16:12:17.465Z</time></trkpt><trkpt lat="44.0159229" lon="8.0084023"><ele>441.19999999999993</ele><time>2026-05-03T16:12:18.467Z</time></trkpt><trkpt lat="44.0160056" lon="8.0083594"><ele>439.59999999999997</ele><time>2026-05-03T16:12:19.46Z</time></trkpt><trkpt lat="44.0160645" lon="8.0082969"><ele>438.0</ele><time>2026-05-03T16:12:20.458Z</time></trkpt><trkpt lat="44.0161501" lon="8.0082374"><ele>443.1666666666667</ele><time>2026-05-03T16:12:21.46Z</time></trkpt><trkpt lat="44.0162384" lon="8.008219"><ele>448.33333333333337</ele><time>2026-05-03T16:12:23.458Z</time></trkpt><trkpt lat="44.0162997" lon="8.0081547"><ele>453.5</ele><time>2026-05-03T16:12:26.459Z</time></trkpt><trkpt lat="44.0162739" lon="8.0080611"><ele>458.6666666666667</ele><time>2026-05-03T16:12:29.459Z</time></trkpt><trkpt lat="44.0161819" lon="8.0080289"><ele>463.83333333333337</ele><time>2026-05-03T16:12:31.462Z</time></trkpt><trkpt lat="44.0160905" lon="8.0080328"><ele>469.0</ele><time>2026-05-03T16:12:32.461Z</time></trkpt><trkpt lat="44.0160095" lon="8.0080263"><ele>469.0</ele><time>2026-05-03T16:12:33.457Z</time></trkpt><trkpt lat="44.0159369" lon="8.0080347"><ele>469.0</ele><time>2026-05-03T16:12:34.458Z</time></trkpt><trkpt lat="44.015816" lon="8.0081123"><ele>469.0</ele><time>2026-05-03T16:12:36.46Z</time></trkpt><trkpt lat="44.0157116" lon="8.0081593"><ele>469.0</ele><time>2026-05-03T16:12:38.463Z</time></trkpt><trkpt lat="44.0155935" lon="8.008214"><ele>469.0</ele><time>2026-05-03T16:12:40.46Z</time></trkpt><trkpt lat="44.0155469" lon="8.0082784"><ele>464.4</ele><time>2026-05-03T16:12:41.459Z</time></trkpt><trkpt lat="44.0154911" lon="8.0083924"><ele>459.79999999999995</ele><time>2026-05-03T16:12:43.459Z</time></trkpt><trkpt lat="44.0153757" lon="8.0084073"><ele>455.20000000000005</ele><time>2026-05-03T16:12:45.464Z</time></trkpt><trkpt lat="44.0152859" lon="8.0085066"><ele>450.6</ele><time>2026-05-03T16:12:47.461Z</time></trkpt><trkpt lat="44.0152022" lon="8.0085884"><ele>446.0</ele><time>2026-05-03T16:12:49.458Z</time></trkpt><trkpt lat="44.0151032" lon="8.0086328"><ele>445.99999999999994</ele><time>2026-05-03T16:12:51.457Z</time></trkpt><trkpt lat="44.0150224" lon="8.0086188"><ele>446.0</ele><time>2026-05-03T16:12:53.46Z</time></trkpt><trkpt lat="44.0149506" lon="8.0085198"><ele>446.0</ele><time>2026-05-03T16:12:55.465Z</time></trkpt><trkpt lat="44.0148987" lon="8.008372"><ele>446.0</ele><time>2026-05-03T16:12:57.458Z</time></trkpt><trkpt lat="44.0148606" lon="8.0082983"><ele>445.99999999999994</ele><time>2026-05-03T16:12:58.462Z</time></trkpt><trkpt lat="44.0148191" lon="8.0082045"><ele>446.0</ele><time>2026-05-03T16:12:59.458Z</time></trkpt><trkpt lat="44.0147864" lon="8.0081018"><ele>447.16666666666663</ele><time>2026-05-03T16:13:00.458Z</time></trkpt><trkpt lat="44.0147441" lon="8.0080037"><ele>448.3333333333333</ele><time>2026-05-03T16:13:01.461Z</time></trkpt><trkpt lat="44.0146914" lon="8.0079204"><ele>449.5</ele><time>2026-05-03T16:13:02.457Z</time></trkpt><trkpt lat="44.0146452" lon="8.0078527"><ele>450.66666666666663</ele><time>2026-05-03T16:13:03.459Z</time></trkpt><trkpt lat="44.0145768" lon="8.0077321"><ele>451.8333333333333</ele><time>2026-05-03T16:13:05.461Z</time></trkpt><trkpt lat="44.0145159" lon="8.0076692"><ele>453.0</ele><time>2026-05-03T16:13:06.459Z</time></trkpt><trkpt lat="44.0144664" lon="8.0076055"><ele>453.0</ele><time>2026-05-03T16:13:07.465Z</time></trkpt><trkpt lat="44.0144073" lon="8.0075281"><ele>453.0</ele><time>2026-05-03T16:13:08.458Z</time></trkpt><trkpt lat="44.0143504" lon="8.0074819"><ele>453.0</ele><time>2026-05-03T16:13:09.46Z</time></trkpt><trkpt lat="44.0142547" lon="8.0074285"><ele>453.0</ele><time>2026-05-03T16:13:11.461Z</time></trkpt><trkpt lat="44.0141844" lon="8.0074055"><ele>453.0</ele><time>2026-05-03T16:13:12.465Z</time></trkpt><trkpt lat="44.0141213" lon="8.0073663"><ele>453.0</ele><time>2026-05-03T16:13:13.459Z</time></trkpt><trkpt lat="44.0140683" lon="8.0073146"><ele>459.0</ele><time>2026-05-03T16:13:14.459Z</time></trkpt><trkpt lat="44.0140125" lon="8.0072532"><ele>465.0</ele><time>2026-05-03T16:13:15.458Z</time></trkpt><trkpt lat="44.013926" lon="8.0072035"><ele>471.0</ele><time>2026-05-03T16:13:17.465Z</time></trkpt><trkpt lat="44.0138127" lon="8.0072835"><ele>477.0</ele><time>2026-05-03T16:13:19.464Z</time></trkpt><trkpt lat="44.0137466" lon="8.0073506"><ele>483.0</ele><time>2026-05-03T16:13:20.458Z</time></trkpt><trkpt lat="44.0136827" lon="8.0074023"><ele>489.0</ele><time>2026-05-03T16:13:21.459Z</time></trkpt><trkpt lat="44.0136206" lon="8.0074366"><ele>489.0</ele><time>2026-05-03T16:13:22.461Z</time></trkpt><trkpt lat="44.0135537" lon="8.0074612"><ele>489.0</ele><time>2026-05-03T16:13:23.459Z</time></trkpt><trkpt lat="44.0134403" lon="8.0074598"><ele>489.0</ele><time>2026-05-03T16:13:25.463Z</time></trkpt><trkpt lat="44.0133617" lon="8.0074573"><ele>489.0</ele><time>2026-05-03T16:13:26.462Z</time></trkpt><trkpt lat="44.0132859" lon="8.0074565"><ele>489.0</ele><time>2026-05-03T16:13:27.462Z</time></trkpt><trkpt lat="44.013216" lon="8.0074803"><ele>489.0</ele><time>2026-05-03T16:13:28.461Z</time></trkpt><trkpt lat="44.0131077" lon="8.0075541"><ele>487.2</ele><time>2026-05-03T16:13:30.457Z</time></trkpt><trkpt lat="44.0130722" lon="8.0076467"><ele>485.4</ele><time>2026-05-03T16:13:31.46Z</time></trkpt><trkpt lat="44.0130269" lon="8.0077168"><ele>483.6</ele><time>2026-05-03T16:13:32.458Z</time></trkpt><trkpt lat="44.012961" lon="8.0077923"><ele>481.8</ele><time>2026-05-03T16:13:34.46Z</time></trkpt><trkpt lat="44.0128596" lon="8.0078271"><ele>480.0</ele><time>2026-05-03T16:13:36.46Z</time></trkpt><trkpt lat="44.0127646" lon="8.0079229"><ele>480.0</ele><time>2026-05-03T16:13:38.461Z</time></trkpt><trkpt lat="44.0127319" lon="8.0080162"><ele>480.0</ele><time>2026-05-03T16:13:39.46Z</time></trkpt><trkpt lat="44.0126836" lon="8.0080776"><ele>480.0</ele><time>2026-05-03T16:13:40.459Z</time></trkpt><trkpt lat="44.0125849" lon="8.0080418"><ele>480.0</ele><time>2026-05-03T16:13:42.462Z</time></trkpt><trkpt lat="44.0125131" lon="8.0080039"><ele>480.0</ele><time>2026-05-03T16:13:43.457Z</time></trkpt><trkpt lat="44.0124386" lon="8.0079556"><ele>480.0</ele><time>2026-05-03T16:13:44.463Z</time></trkpt><trkpt lat="44.0123702" lon="8.0079026"><ele>478.3333333333333</ele><time>2026-05-03T16:13:45.464Z</time></trkpt><trkpt lat="44.0123075" lon="8.0078902"><ele>476.66666666666663</ele><time>2026-05-03T16:13:46.464Z</time></trkpt><trkpt lat="44.0122444" lon="8.0078906"><ele>475.0</ele><time>2026-05-03T16:13:47.46Z</time></trkpt><trkpt lat="44.012146" lon="8.0079727"><ele>473.3333333333333</ele><time>2026-05-03T16:13:49.459Z</time></trkpt><trkpt lat="44.0120959" lon="8.0080749"><ele>471.66666666666663</ele><time>2026-05-03T16:13:50.466Z</time></trkpt><trkpt lat="44.0120771" lon="8.0082077"><ele>470.0</ele><time>2026-05-03T16:13:51.457Z</time></trkpt><trkpt lat="44.0120384" lon="8.0083268"><ele>469.99999999999994</ele><time>2026-05-03T16:13:52.462Z</time></trkpt><trkpt lat="44.0119961" lon="8.0084129"><ele>470.0</ele><time>2026-05-03T16:13:53.462Z</time></trkpt><trkpt lat="44.0119019" lon="8.0084701"><ele>470.0</ele><time>2026-05-03T16:13:55.459Z</time></trkpt><trkpt lat="44.0118208" lon="8.0084921"><ele>470.0</ele><time>2026-05-03T16:13:56.464Z</time></trkpt><trkpt lat="44.0117635" lon="8.0085435"><ele>469.99999999999994</ele><time>2026-05-03T16:13:57.462Z</time></trkpt><trkpt lat="44.011706" lon="8.0086088"><ele>470.0</ele><time>2026-05-03T16:13:58.459Z</time></trkpt><trkpt lat="44.0116399" lon="8.0086872"><ele>467.49999999999994</ele><time>2026-05-03T16:13:59.458Z</time></trkpt><trkpt lat="44.0115843" lon="8.00874"><ele>465.0</ele><time>2026-05-03T16:14:00.46Z</time></trkpt><trkpt lat="44.0114819" lon="8.0087962"><ele>462.5</ele><time>2026-05-03T16:14:02.462Z</time></trkpt><trkpt lat="44.0113888" lon="8.0087577"><ele>460.0</ele><time>2026-05-03T16:14:04.46Z</time></trkpt><trkpt lat="44.0113381" lon="8.0086842"><ele>457.49999999999994</ele><time>2026-05-03T16:14:05.457Z</time></trkpt><trkpt lat="44.0112814" lon="8.0085723"><ele>455.0</ele><time>2026-05-03T16:14:06.456Z</time></trkpt><trkpt lat="44.0112189" lon="8.0084429"><ele>463.5</ele><time>2026-05-03T16:14:07.466Z</time></trkpt><trkpt lat="44.0111625" lon="8.0082862"><ele>472.0</ele><time>2026-05-03T16:14:08.458Z</time></trkpt><trkpt lat="44.011106" lon="8.0081386"><ele>480.5</ele><time>2026-05-03T16:14:09.46Z</time></trkpt><trkpt lat="44.0110473" lon="8.0080077"><ele>489.0</ele><time>2026-05-03T16:14:10.46Z</time></trkpt><trkpt lat="44.0109978" lon="8.0078863"><ele>489.0</ele><time>2026-05-03T16:14:11.464Z</time></trkpt><trkpt lat="44.0109527" lon="8.0077889"><ele>489.0</ele><time>2026-05-03T16:14:12.464Z</time></trkpt><trkpt lat="44.0108849" lon="8.0077272"><ele>489.0</ele><time>2026-05-03T16:14:13.458Z</time></trkpt><trkpt lat="44.0108112" lon="8.0076774"><ele>489.0</ele><time>2026-05-03T16:14:14.459Z</time></trkpt><trkpt lat="44.0107299" lon="8.0076947"><ele>489.0</ele><time>2026-05-03T16:14:15.461Z</time></trkpt><trkpt lat="44.0106555" lon="8.0076633"><ele>489.0</ele><time>2026-05-03T16:14:16.46Z</time></trkpt><trkpt lat="44.0105924" lon="8.0076234"><ele>488.5</ele><time>2026-05-03T16:14:17.463Z</time></trkpt><trkpt lat="44.0105333" lon="8.007564"><ele>488.0</ele><time>2026-05-03T16:14:18.461Z</time></trkpt><trkpt lat="44.0104682" lon="8.007413"><ele>487.5</ele><time>2026-05-03T16:14:20.466Z</time></trkpt><trkpt lat="44.0104523" lon="8.0073063"><ele>487.0</ele><time>2026-05-03T16:14:21.457Z</time></trkpt><trkpt lat="44.0104254" lon="8.0072048"><ele>486.5</ele><time>2026-05-03T16:14:22.459Z</time></trkpt><trkpt lat="44.0103864" lon="8.0071348"><ele>486.0</ele><time>2026-05-03T16:14:23.461Z</time></trkpt><trkpt lat="44.0103119" lon="8.0070796"><ele>486.0</ele><time>2026-05-03T16:14:24.461Z</time></trkpt><trkpt lat="44.0102436" lon="8.0070198"><ele>486.0</ele><time>2026-05-03T16:14:25.459Z</time></trkpt><trkpt lat="44.0101862" lon="8.0069373"><ele>486.0</ele><time>2026-05-03T16:14:26.465Z</time></trkpt><trkpt lat="44.0101486" lon="8.0068602"><ele>486.0</ele><time>2026-05-03T16:14:27.458Z</time></trkpt><trkpt lat="44.010035" lon="8.0068193"><ele>486.0</ele><time>2026-05-03T16:14:29.464Z</time></trkpt><trkpt lat="44.0099665" lon="8.0068456"><ele>486.0</ele><time>2026-05-03T16:14:30.46Z</time></trkpt><trkpt lat="44.0098741" lon="8.0068225"><ele>486.0</ele><time>2026-05-03T16:14:32.462Z</time></trkpt><trkpt lat="44.0098943" lon="8.006735"><ele>486.0</ele><time>2026-05-03T16:14:34.461Z</time></trkpt><trkpt lat="44.0099863" lon="8.0067201"><ele>486.0</ele><time>2026-05-03T16:14:36.456Z</time></trkpt><trkpt lat="44.0101004" lon="8.0067416"><ele>486.0</ele><time>2026-05-03T16:14:38.467Z</time></trkpt><trkpt lat="44.010166" lon="8.0067874"><ele>486.0</ele><time>2026-05-03T16:14:39.458Z</time></trkpt><trkpt lat="44.0102207" lon="8.006838"><ele>486.0</ele><time>2026-05-03T16:14:40.462Z</time></trkpt><trkpt lat="44.0102897" lon="8.0068835"><ele>486.0</ele><time>2026-05-03T16:14:41.458Z</time></trkpt><trkpt lat="44.010347" lon="8.0069345"><ele>486.0</ele><time>2026-05-03T16:14:42.461Z</time></trkpt><trkpt lat="44.0104443" lon="8.0069643"><ele>486.0</ele><time>2026-05-03T16:14:44.46Z</time></trkpt><trkpt lat="44.0105213" lon="8.0070034"><ele>486.0</ele><time>2026-05-03T16:14:46.459Z</time></trkpt><trkpt lat="44.0105928" lon="8.0070971"><ele>486.0</ele><time>2026-05-03T16:14:48.46Z</time></trkpt><trkpt lat="44.0106686" lon="8.0072255"><ele>486.0</ele><time>2026-05-03T16:14:50.462Z</time></trkpt><trkpt lat="44.0107886" lon="8.0072634"><ele>486.0</ele><time>2026-05-03T16:14:52.461Z</time></trkpt><trkpt lat="44.0108545" lon="8.0072806"><ele>486.0</ele><time>2026-05-03T16:14:53.461Z</time></trkpt><trkpt lat="44.010935" lon="8.0072978"><ele>486.0</ele><time>2026-05-03T16:14:54.458Z</time></trkpt><trkpt lat="44.0110149" lon="8.0073163"><ele>486.0</ele><time>2026-05-03T16:14:55.456Z</time></trkpt><trkpt lat="44.0110841" lon="8.0073814"><ele>486.0</ele><time>2026-05-03T16:14:56.457Z</time></trkpt><trkpt lat="44.0111524" lon="8.0074116"><ele>486.6</ele><time>2026-05-03T16:14:57.459Z</time></trkpt><trkpt lat="44.0112187" lon="8.0075018"><ele>487.20000000000005</ele><time>2026-05-03T16:14:58.461Z</time></trkpt><trkpt lat="44.0112656" lon="8.0075911"><ele>487.79999999999995</ele><time>2026-05-03T16:14:59.458Z</time></trkpt><trkpt lat="44.011317" lon="8.007646"><ele>488.4</ele><time>2026-05-03T16:15:00.46Z</time></trkpt><trkpt lat="44.0114131" lon="8.0076981"><ele>489.0</ele><time>2026-05-03T16:15:02.459Z</time></trkpt><trkpt lat="44.0114869" lon="8.0075764"><ele>493.79999999999995</ele><time>2026-05-03T16:15:05.462Z</time></trkpt><trkpt lat="44.0115413" lon="8.0074777"><ele>498.59999999999997</ele><time>2026-05-03T16:15:06.462Z</time></trkpt><trkpt lat="44.0115741" lon="8.0073717"><ele>503.4</ele><time>2026-05-03T16:15:07.458Z</time></trkpt><trkpt lat="44.0116657" lon="8.0072461"><ele>508.2</ele><time>2026-05-03T16:15:09.463Z</time></trkpt><trkpt lat="44.0116981" lon="8.0071699"><ele>513.0</ele><time>2026-05-03T16:15:10.46Z</time></trkpt><trkpt lat="44.0117721" lon="8.0070499"><ele>514.5</ele><time>2026-05-03T16:15:12.459Z</time></trkpt><trkpt lat="44.0118604" lon="8.0069487"><ele>516.0</ele><time>2026-05-03T16:15:14.463Z</time></trkpt><trkpt lat="44.0119245" lon="8.0068662"><ele>517.5</ele><time>2026-05-03T16:15:15.462Z</time></trkpt><trkpt lat="44.0119882" lon="8.0068025"><ele>519.0</ele><time>2026-05-03T16:15:16.456Z</time></trkpt><trkpt lat="44.0120516" lon="8.0067431"><ele>520.5</ele><time>2026-05-03T16:15:17.456Z</time></trkpt><trkpt lat="44.0121196" lon="8.0066914"><ele>522.0</ele><time>2026-05-03T16:15:18.459Z</time></trkpt><trkpt lat="44.0122018" lon="8.0066495"><ele>523.6666666666666</ele><time>2026-05-03T16:15:19.459Z</time></trkpt><trkpt lat="44.0122765" lon="8.0066202"><ele>525.3333333333334</ele><time>2026-05-03T16:15:20.46Z</time></trkpt><trkpt lat="44.0123459" lon="8.0065858"><ele>527.0</ele><time>2026-05-03T16:15:21.46Z</time></trkpt><trkpt lat="44.012393" lon="8.0065225"><ele>528.6666666666667</ele><time>2026-05-03T16:15:22.459Z</time></trkpt><trkpt lat="44.0124505" lon="8.006444"><ele>530.3333333333334</ele><time>2026-05-03T16:15:23.46Z</time></trkpt><trkpt lat="44.012507" lon="8.0063701"><ele>532.0</ele><time>2026-05-03T16:15:24.459Z</time></trkpt><trkpt lat="44.012559" lon="8.006291"><ele>532.0</ele><time>2026-05-03T16:15:25.465Z</time></trkpt><trkpt lat="44.0126178" lon="8.0062577"><ele>532.0</ele><time>2026-05-03T16:15:26.457Z</time></trkpt><trkpt lat="44.012686" lon="8.0062408"><ele>532.0</ele><time>2026-05-03T16:15:27.458Z</time></trkpt><trkpt lat="44.0127531" lon="8.00621"><ele>532.0</ele><time>2026-05-03T16:15:28.458Z</time></trkpt><trkpt lat="44.0128439" lon="8.006178"><ele>532.0</ele><time>2026-05-03T16:15:29.459Z</time></trkpt><trkpt lat="44.0129233" lon="8.0061483"><ele>532.0</ele><time>2026-05-03T16:15:30.458Z</time></trkpt><trkpt lat="44.0130016" lon="8.0061067"><ele>532.0</ele><time>2026-05-03T16:15:31.458Z</time></trkpt><trkpt lat="44.0131373" lon="8.0060666"><ele>532.0</ele><time>2026-05-03T16:15:33.461Z</time></trkpt><trkpt lat="44.0132606" lon="8.0060205"><ele>532.0</ele><time>2026-05-03T16:15:35.462Z</time></trkpt><trkpt lat="44.0133272" lon="8.005967"><ele>532.0</ele><time>2026-05-03T16:15:36.458Z</time></trkpt><trkpt lat="44.0133905" lon="8.0058962"><ele>532.0</ele><time>2026-05-03T16:15:37.459Z</time></trkpt><trkpt lat="44.0134962" lon="8.005765"><ele>534.4</ele><time>2026-05-03T16:15:39.462Z</time></trkpt><trkpt lat="44.0135649" lon="8.0057047"><ele>536.8000000000001</ele><time>2026-05-03T16:15:40.458Z</time></trkpt><trkpt lat="44.013646" lon="8.0056491"><ele>539.2</ele><time>2026-05-03T16:15:41.46Z</time></trkpt><trkpt lat="44.0137237" lon="8.0055863"><ele>541.6</ele><time>2026-05-03T16:15:42.459Z</time></trkpt><trkpt lat="44.0138371" lon="8.0054963"><ele>544.0</ele><time>2026-05-03T16:15:44.466Z</time></trkpt><trkpt lat="44.0139489" lon="8.0054281"><ele>544.0</ele><time>2026-05-03T16:15:46.457Z</time></trkpt><trkpt lat="44.0140156" lon="8.0054405"><ele>544.0</ele><time>2026-05-03T16:15:47.457Z</time></trkpt><trkpt lat="44.0140992" lon="8.0054462"><ele>544.0</ele><time>2026-05-03T16:15:48.459Z</time></trkpt><trkpt lat="44.0141802" lon="8.0054611"><ele>544.0</ele><time>2026-05-03T16:15:49.465Z</time></trkpt><trkpt lat="44.0142738" lon="8.0055074"><ele>544.0</ele><time>2026-05-03T16:15:50.459Z</time></trkpt><trkpt lat="44.0143714" lon="8.005557"><ele>544.0</ele><time>2026-05-03T16:15:51.459Z</time></trkpt><trkpt lat="44.0144512" lon="8.0055976"><ele>542.6666666666667</ele><time>2026-05-03T16:15:52.457Z</time></trkpt><trkpt lat="44.0145299" lon="8.0056412"><ele>541.3333333333334</ele><time>2026-05-03T16:15:53.462Z</time></trkpt><trkpt lat="44.0145932" lon="8.0056902"><ele>540.0</ele><time>2026-05-03T16:15:54.458Z</time></trkpt><trkpt lat="44.0146593" lon="8.0057402"><ele>538.6666666666666</ele><time>2026-05-03T16:15:55.461Z</time></trkpt><trkpt lat="44.014721" lon="8.0058023"><ele>537.3333333333333</ele><time>2026-05-03T16:15:56.459Z</time></trkpt><trkpt lat="44.0147908" lon="8.0058782"><ele>536.0</ele><time>2026-05-03T16:15:57.462Z</time></trkpt><trkpt lat="44.0148599" lon="8.0059642"><ele>535.8333333333333</ele><time>2026-05-03T16:15:58.458Z</time></trkpt><trkpt lat="44.0149327" lon="8.006057"><ele>535.6666666666666</ele><time>2026-05-03T16:15:59.459Z</time></trkpt><trkpt lat="44.0149908" lon="8.0061391"><ele>535.5</ele><time>2026-05-03T16:16:00.461Z</time></trkpt><trkpt lat="44.0150428" lon="8.0062318"><ele>535.3333333333334</ele><time>2026-05-03T16:16:01.459Z</time></trkpt><trkpt lat="44.0150811" lon="8.0063268"><ele>535.1666666666667</ele><time>2026-05-03T16:16:02.459Z</time></trkpt><trkpt lat="44.0151299" lon="8.0064116"><ele>535.0</ele><time>2026-05-03T16:16:03.461Z</time></trkpt><trkpt lat="44.0151759" lon="8.0064926"><ele>535.0</ele><time>2026-05-03T16:16:04.462Z</time></trkpt><trkpt lat="44.0152771" lon="8.0065709"><ele>535.0</ele><time>2026-05-03T16:16:06.466Z</time></trkpt><trkpt lat="44.0152984" lon="8.0064506"><ele>535.0</ele><time>2026-05-03T16:16:12.461Z</time></trkpt><trkpt lat="44.0152012" lon="8.0063474"><ele>535.0</ele><time>2026-05-03T16:16:14.464Z</time></trkpt><trkpt lat="44.0151653" lon="8.0062618"><ele>535.0</ele><time>2026-05-03T16:16:15.46Z</time></trkpt><trkpt lat="44.0151211" lon="8.0061819"><ele>535.0</ele><time>2026-05-03T16:16:16.458Z</time></trkpt><trkpt lat="44.0150832" lon="8.0061013"><ele>535.0</ele><time>2026-05-03T16:16:17.46Z</time></trkpt><trkpt lat="44.0150601" lon="8.0060138"><ele>535.0</ele><time>2026-05-03T16:16:18.455Z</time></trkpt><trkpt lat="44.0150307" lon="8.0059344"><ele>535.0</ele><time>2026-05-03T16:16:19.464Z</time></trkpt><trkpt lat="44.0149795" lon="8.0058686"><ele>535.0</ele><time>2026-05-03T16:16:20.465Z</time></trkpt><trkpt lat="44.0149421" lon="8.0057827"><ele>535.0</ele><time>2026-05-03T16:16:21.46Z</time></trkpt><trkpt lat="44.0149056" lon="8.0057019"><ele>535.0</ele><time>2026-05-03T16:16:22.462Z</time></trkpt><trkpt lat="44.0148628" lon="8.0056272"><ele>535.1428571428571</ele><time>2026-05-03T16:16:23.457Z</time></trkpt><trkpt lat="44.0148161" lon="8.005555"><ele>535.2857142857143</ele><time>2026-05-03T16:16:24.46Z</time></trkpt><trkpt lat="44.0147707" lon="8.005471"><ele>535.4285714285714</ele><time>2026-05-03T16:16:25.459Z</time></trkpt><trkpt lat="44.0147236" lon="8.0053961"><ele>535.5714285714286</ele><time>2026-05-03T16:16:26.461Z</time></trkpt><trkpt lat="44.0146558" lon="8.0053526"><ele>535.7142857142857</ele><time>2026-05-03T16:16:27.462Z</time></trkpt><trkpt lat="44.0145907" lon="8.0053093"><ele>535.8571428571429</ele><time>2026-05-03T16:16:28.46Z</time></trkpt><trkpt lat="44.0145248" lon="8.0052731"><ele>536.0</ele><time>2026-05-03T16:16:29.462Z</time></trkpt><trkpt lat="44.0144578" lon="8.0052299"><ele>536.0</ele><time>2026-05-03T16:16:30.459Z</time></trkpt><trkpt lat="44.0143973" lon="8.0051696"><ele>536.0</ele><time>2026-05-03T16:16:31.459Z</time></trkpt><trkpt lat="44.0143328" lon="8.0050991"><ele>536.0</ele><time>2026-05-03T16:16:32.461Z</time></trkpt><trkpt lat="44.0142561" lon="8.0050346"><ele>536.0</ele><time>2026-05-03T16:16:33.457Z</time></trkpt><trkpt lat="44.0141827" lon="8.0049868"><ele>536.0</ele><time>2026-05-03T16:16:34.459Z</time></trkpt><trkpt lat="44.0141116" lon="8.0049563"><ele>536.0</ele><time>2026-05-03T16:16:35.467Z</time></trkpt><trkpt lat="44.0140406" lon="8.0049257"><ele>534.8333333333333</ele><time>2026-05-03T16:16:36.459Z</time></trkpt><trkpt lat="44.0139632" lon="8.0049226"><ele>533.6666666666666</ele><time>2026-05-03T16:16:37.464Z</time></trkpt><trkpt lat="44.0138967" lon="8.0049095"><ele>532.5</ele><time>2026-05-03T16:16:38.458Z</time></trkpt><trkpt lat="44.0138321" lon="8.0049095"><ele>531.3333333333334</ele><time>2026-05-03T16:16:39.459Z</time></trkpt><trkpt lat="44.0137158" lon="8.0049128"><ele>530.1666666666667</ele><time>2026-05-03T16:16:41.463Z</time></trkpt><trkpt lat="44.0136049" lon="8.0049576"><ele>529.0</ele><time>2026-05-03T16:16:43.463Z</time></trkpt><trkpt lat="44.0135183" lon="8.0050606"><ele>531.6</ele><time>2026-05-03T16:16:45.46Z</time></trkpt><trkpt lat="44.0134254" lon="8.0051102"><ele>534.2</ele><time>2026-05-03T16:16:47.457Z</time></trkpt><trkpt lat="44.0133268" lon="8.0050587"><ele>536.8000000000001</ele><time>2026-05-03T16:16:49.466Z</time></trkpt><trkpt lat="44.0132086" lon="8.0050012"><ele>539.4</ele><time>2026-05-03T16:16:51.467Z</time></trkpt><trkpt lat="44.0131344" lon="8.0049893"><ele>542.0</ele><time>2026-05-03T16:16:52.46Z</time></trkpt><trkpt lat="44.0130661" lon="8.0049784"><ele>542.0</ele><time>2026-05-03T16:16:53.46Z</time></trkpt><trkpt lat="44.0129971" lon="8.0049665"><ele>542.0</ele><time>2026-05-03T16:16:54.46Z</time></trkpt><trkpt lat="44.0129277" lon="8.004955"><ele>542.0</ele><time>2026-05-03T16:16:55.461Z</time></trkpt><trkpt lat="44.0128415" lon="8.0049813"><ele>542.0</ele><time>2026-05-03T16:16:56.46Z</time></trkpt><trkpt lat="44.0127685" lon="8.0049996"><ele>542.0</ele><time>2026-05-03T16:16:57.459Z</time></trkpt><trkpt lat="44.0127087" lon="8.0050336"><ele>542.0</ele><time>2026-05-03T16:16:58.459Z</time></trkpt><trkpt lat="44.012635" lon="8.0050667"><ele>542.0</ele><time>2026-05-03T16:16:59.46Z</time></trkpt><trkpt lat="44.0125653" lon="8.0051101"><ele>546.8333333333333</ele><time>2026-05-03T16:17:00.462Z</time></trkpt><trkpt lat="44.0124865" lon="8.0051461"><ele>551.6666666666666</ele><time>2026-05-03T16:17:01.46Z</time></trkpt><trkpt lat="44.0124159" lon="8.0051833"><ele>556.5</ele><time>2026-05-03T16:17:02.458Z</time></trkpt><trkpt lat="44.0123361" lon="8.0052173"><ele>561.3333333333334</ele><time>2026-05-03T16:17:03.461Z</time></trkpt><trkpt lat="44.0122651" lon="8.0052538"><ele>566.1666666666667</ele><time>2026-05-03T16:17:04.464Z</time></trkpt><trkpt lat="44.0121858" lon="8.0052611"><ele>571.0</ele><time>2026-05-03T16:17:05.459Z</time></trkpt><trkpt lat="44.012116" lon="8.0052777"><ele>571.0</ele><time>2026-05-03T16:17:06.458Z</time></trkpt><trkpt lat="44.0120413" lon="8.0052985"><ele>571.0</ele><time>2026-05-03T16:17:07.462Z</time></trkpt><trkpt lat="44.0119678" lon="8.00532"><ele>571.0</ele><time>2026-05-03T16:17:08.466Z</time></trkpt><trkpt lat="44.0118935" lon="8.0053329"><ele>571.0</ele><time>2026-05-03T16:17:09.461Z</time></trkpt><trkpt lat="44.0118263" lon="8.0053434"><ele>571.0</ele><time>2026-05-03T16:17:10.461Z</time></trkpt><trkpt lat="44.0117537" lon="8.0053843"><ele>571.0</ele><time>2026-05-03T16:17:11.463Z</time></trkpt><trkpt lat="44.0116906" lon="8.0054508"><ele>566.2</ele><time>2026-05-03T16:17:12.459Z</time></trkpt><trkpt lat="44.0116169" lon="8.0055553"><ele>561.4000000000001</ele><time>2026-05-03T16:17:14.46Z</time></trkpt><trkpt lat="44.0115576" lon="8.0055999"><ele>556.6</ele><time>2026-05-03T16:17:15.458Z</time></trkpt><trkpt lat="44.0114434" lon="8.0056571"><ele>551.8000000000001</ele><time>2026-05-03T16:17:17.459Z</time></trkpt><trkpt lat="44.0113393" lon="8.0056768"><ele>547.0</ele><time>2026-05-03T16:17:19.458Z</time></trkpt><trkpt lat="44.0112643" lon="8.0055929"><ele>547.0</ele><time>2026-05-03T16:17:21.457Z</time></trkpt><trkpt lat="44.0112203" lon="8.0055284"><ele>547.0</ele><time>2026-05-03T16:17:22.462Z</time></trkpt><trkpt lat="44.0111678" lon="8.0053958"><ele>547.0</ele><time>2026-05-03T16:17:24.461Z</time></trkpt><trkpt lat="44.0111324" lon="8.0053129"><ele>547.0</ele><time>2026-05-03T16:17:25.462Z</time></trkpt><trkpt lat="44.0111059" lon="8.0052278"><ele>547.0</ele><time>2026-05-03T16:17:26.459Z</time></trkpt><trkpt lat="44.0110868" lon="8.0051338"><ele>547.0</ele><time>2026-05-03T16:17:27.461Z</time></trkpt><trkpt lat="44.0110652" lon="8.0050486"><ele>547.0</ele><time>2026-05-03T16:17:28.46Z</time></trkpt><trkpt lat="44.0110892" lon="8.004909"><ele>549.75</ele><time>2026-05-03T16:17:30.461Z</time></trkpt><trkpt lat="44.0111029" lon="8.0047286"><ele>552.5</ele><time>2026-05-03T16:17:32.458Z</time></trkpt><trkpt lat="44.0110792" lon="8.0045545"><ele>555.25</ele><time>2026-05-03T16:17:34.459Z</time></trkpt><trkpt lat="44.0110573" lon="8.0043491"><ele>558.0</ele><time>2026-05-03T16:17:36.458Z</time></trkpt><trkpt lat="44.0110345" lon="8.004253"><ele>560.4</ele><time>2026-05-03T16:17:37.461Z</time></trkpt><trkpt lat="44.0110065" lon="8.0040955"><ele>562.8</ele><time>2026-05-03T16:17:39.459Z</time></trkpt><trkpt lat="44.0109941" lon="8.0039384"><ele>565.2</ele><time>2026-05-03T16:17:41.459Z</time></trkpt><trkpt lat="44.0109832" lon="8.0038435"><ele>567.6</ele><time>2026-05-03T16:17:42.459Z</time></trkpt><trkpt lat="44.0109555" lon="8.0037493"><ele>570.0</ele><time>2026-05-03T16:17:43.47Z</time></trkpt><trkpt lat="44.0109507" lon="8.0036042"><ele>570.0</ele><time>2026-05-03T16:17:45.459Z</time></trkpt><trkpt lat="44.0109006" lon="8.0035105"><ele>570.0</ele><time>2026-05-03T16:17:46.46Z</time></trkpt><trkpt lat="44.0108761" lon="8.0034227"><ele>570.0</ele><time>2026-05-03T16:17:47.46Z</time></trkpt><trkpt lat="44.0108392" lon="8.0033479"><ele>570.0</ele><time>2026-05-03T16:17:48.458Z</time></trkpt><trkpt lat="44.0108093" lon="8.0032642"><ele>570.0</ele><time>2026-05-03T16:17:49.46Z</time></trkpt><trkpt lat="44.0107921" lon="8.0031795"><ele>570.0</ele><time>2026-05-03T16:17:50.465Z</time></trkpt><trkpt lat="44.010771" lon="8.0030029"><ele>569.4</ele><time>2026-05-03T16:17:52.462Z</time></trkpt><trkpt lat="44.0107372" lon="8.0028706"><ele>568.8</ele><time>2026-05-03T16:17:54.46Z</time></trkpt><trkpt lat="44.0107001" lon="8.0027537"><ele>568.2</ele><time>2026-05-03T16:17:56.468Z</time></trkpt><trkpt lat="44.0106274" lon="8.0026419"><ele>567.6</ele><time>2026-05-03T16:17:58.458Z</time></trkpt><trkpt lat="44.010546" lon="8.002552"><ele>567.0</ele><time>2026-05-03T16:18:00.464Z</time></trkpt><trkpt lat="44.0104643" lon="8.0024624"><ele>567.0</ele><time>2026-05-03T16:18:02.461Z</time></trkpt><trkpt lat="44.0103628" lon="8.0023665"><ele>567.0</ele><time>2026-05-03T16:18:04.464Z</time></trkpt><trkpt lat="44.0102518" lon="8.0023026"><ele>567.0</ele><time>2026-05-03T16:18:06.462Z</time></trkpt><trkpt lat="44.0101579" lon="8.0022893"><ele>567.0</ele><time>2026-05-03T16:18:08.464Z</time></trkpt><trkpt lat="44.0100492" lon="8.0022842"><ele>567.0</ele><time>2026-05-03T16:18:10.459Z</time></trkpt><trkpt lat="44.0099364" lon="8.0022588"><ele>571.4</ele><time>2026-05-03T16:18:12.463Z</time></trkpt><trkpt lat="44.0098428" lon="8.0021939"><ele>575.8000000000001</ele><time>2026-05-03T16:18:14.462Z</time></trkpt><trkpt lat="44.0097744" lon="8.0020822"><ele>580.2</ele><time>2026-05-03T16:18:16.468Z</time></trkpt><trkpt lat="44.0097329" lon="8.0020155"><ele>584.6</ele><time>2026-05-03T16:18:17.455Z</time></trkpt><trkpt lat="44.0096848" lon="8.001953"><ele>589.0</ele><time>2026-05-03T16:18:18.456Z</time></trkpt><trkpt lat="44.0095843" lon="8.0018451"><ele>589.0</ele><time>2026-05-03T16:18:20.465Z</time></trkpt><trkpt lat="44.0095206" lon="8.0018219"><ele>589.0</ele><time>2026-05-03T16:18:21.462Z</time></trkpt><trkpt lat="44.0094547" lon="8.0017874"><ele>589.0</ele><time>2026-05-03T16:18:22.461Z</time></trkpt><trkpt lat="44.009391" lon="8.0017521"><ele>589.0</ele><time>2026-05-03T16:18:23.46Z</time></trkpt><trkpt lat="44.0092659" lon="8.0017595"><ele>589.0</ele><time>2026-05-03T16:18:25.463Z</time></trkpt><trkpt lat="44.0091489" lon="8.0017643"><ele>589.0</ele><time>2026-05-03T16:18:27.461Z</time></trkpt><trkpt lat="44.009021" lon="8.0017387"><ele>587.6</ele><time>2026-05-03T16:18:29.459Z</time></trkpt><trkpt lat="44.0089061" lon="8.0016945"><ele>586.2</ele><time>2026-05-03T16:18:31.46Z</time></trkpt><trkpt lat="44.0088405" lon="8.0016745"><ele>584.8000000000001</ele><time>2026-05-03T16:18:32.463Z</time></trkpt><trkpt lat="44.0087358" lon="8.0016574"><ele>583.4</ele><time>2026-05-03T16:18:34.463Z</time></trkpt><trkpt lat="44.0086169" lon="8.0016754"><ele>582.0</ele><time>2026-05-03T16:18:36.461Z</time></trkpt><trkpt lat="44.0085353" lon="8.0017"><ele>584.6666666666666</ele><time>2026-05-03T16:18:38.462Z</time></trkpt><trkpt lat="44.0084484" lon="8.0017669"><ele>587.3333333333334</ele><time>2026-05-03T16:18:40.466Z</time></trkpt><trkpt lat="44.0083488" lon="8.0018303"><ele>590.0</ele><time>2026-05-03T16:18:42.461Z</time></trkpt><trkpt lat="44.0082854" lon="8.0018442"><ele>592.6666666666667</ele><time>2026-05-03T16:18:43.459Z</time></trkpt><trkpt lat="44.0082078" lon="8.0018432"><ele>595.3333333333334</ele><time>2026-05-03T16:18:44.461Z</time></trkpt><trkpt lat="44.0081329" lon="8.0018479"><ele>598.0</ele><time>2026-05-03T16:18:45.46Z</time></trkpt><trkpt lat="44.0080552" lon="8.0018768"><ele>600.4</ele><time>2026-05-03T16:18:46.46Z</time></trkpt><trkpt lat="44.0079385" lon="8.0019135"><ele>602.8</ele><time>2026-05-03T16:18:48.459Z</time></trkpt><trkpt lat="44.0078699" lon="8.0019322"><ele>605.2</ele><time>2026-05-03T16:18:49.466Z</time></trkpt><trkpt lat="44.0077554" lon="8.0019119"><ele>607.6</ele><time>2026-05-03T16:18:51.464Z</time></trkpt><trkpt lat="44.0076405" lon="8.0018735"><ele>610.0</ele><time>2026-05-03T16:18:53.46Z</time></trkpt><trkpt lat="44.0075976" lon="8.001809"><ele>610.0</ele><time>2026-05-03T16:18:54.459Z</time></trkpt><trkpt lat="44.0075025" lon="8.001709"><ele>610.0</ele><time>2026-05-03T16:18:56.46Z</time></trkpt><trkpt lat="44.0074019" lon="8.0016213"><ele>610.0</ele><time>2026-05-03T16:18:58.462Z</time></trkpt><trkpt lat="44.0072803" lon="8.001554"><ele>610.0</ele><time>2026-05-03T16:19:00.46Z</time></trkpt><trkpt lat="44.0071833" lon="8.0015529"><ele>612.4285714285714</ele><time>2026-05-03T16:19:02.461Z</time></trkpt><trkpt lat="44.0071115" lon="8.001561"><ele>614.8571428571428</ele><time>2026-05-03T16:19:03.461Z</time></trkpt><trkpt lat="44.0070493" lon="8.0015391"><ele>617.2857142857142</ele><time>2026-05-03T16:19:04.459Z</time></trkpt><trkpt lat="44.0069871" lon="8.0015204"><ele>619.7142857142858</ele><time>2026-05-03T16:19:05.459Z</time></trkpt><trkpt lat="44.006924" lon="8.0015166"><ele>622.1428571428571</ele><time>2026-05-03T16:19:06.459Z</time></trkpt><trkpt lat="44.006847" lon="8.0015234"><ele>624.5714285714286</ele><time>2026-05-03T16:19:07.461Z</time></trkpt><trkpt lat="44.0067719" lon="8.001631"><ele>627.0</ele><time>2026-05-03T16:19:09.461Z</time></trkpt><trkpt lat="44.0067089" lon="8.001748"><ele>628.3333333333334</ele><time>2026-05-03T16:19:11.456Z</time></trkpt><trkpt lat="44.0066261" lon="8.0018521"><ele>629.6666666666666</ele><time>2026-05-03T16:19:13.459Z</time></trkpt><trkpt lat="44.006553" lon="8.0019303"><ele>631.0</ele><time>2026-05-03T16:19:14.464Z</time></trkpt><trkpt lat="44.0064882" lon="8.0019977"><ele>632.3333333333333</ele><time>2026-05-03T16:19:15.461Z</time></trkpt><trkpt lat="44.0064213" lon="8.0020379"><ele>633.6666666666666</ele><time>2026-05-03T16:19:16.456Z</time></trkpt><trkpt lat="44.0063504" lon="8.0020834"><ele>635.0</ele><time>2026-05-03T16:19:17.459Z</time></trkpt><trkpt lat="44.0062343" lon="8.0020658"><ele>634.9999999999999</ele><time>2026-05-03T16:19:19.465Z</time></trkpt><trkpt lat="44.0061438" lon="8.0020098"><ele>635.0</ele><time>2026-05-03T16:19:21.467Z</time></trkpt><trkpt lat="44.0061105" lon="8.0019339"><ele>635.0</ele><time>2026-05-03T16:19:24.459Z</time></trkpt><trkpt lat="44.0060934" lon="8.0018412"><ele>635.0</ele><time>2026-05-03T16:19:26.462Z</time></trkpt><trkpt lat="44.0060445" lon="8.0017778"><ele>635.0</ele><time>2026-05-03T16:19:27.465Z</time></trkpt><trkpt lat="44.0059958" lon="8.0017201"><ele>634.9999999999999</ele><time>2026-05-03T16:19:28.463Z</time></trkpt><trkpt lat="44.0059321" lon="8.0016467"><ele>635.0</ele><time>2026-05-03T16:19:29.469Z</time></trkpt><trkpt lat="44.0058371" lon="8.0016011"><ele>637.75</ele><time>2026-05-03T16:19:30.46Z</time></trkpt><trkpt lat="44.005733" lon="8.0015692"><ele>640.5</ele><time>2026-05-03T16:19:31.459Z</time></trkpt><trkpt lat="44.0056209" lon="8.0015836"><ele>643.25</ele><time>2026-05-03T16:19:32.46Z</time></trkpt><trkpt lat="44.0055105" lon="8.0016192"><ele>646.0</ele><time>2026-05-03T16:19:33.462Z</time></trkpt><trkpt lat="44.0054006" lon="8.0016869"><ele>646.0</ele><time>2026-05-03T16:19:34.461Z</time></trkpt><trkpt lat="44.0053025" lon="8.0017836"><ele>646.0</ele><time>2026-05-03T16:19:35.458Z</time></trkpt><trkpt lat="44.0052255" lon="8.0018839"><ele>646.0</ele><time>2026-05-03T16:19:36.464Z</time></trkpt><trkpt lat="44.0051536" lon="8.0019621"><ele>646.0</ele><time>2026-05-03T16:19:37.459Z</time></trkpt><trkpt lat="44.0050623" lon="8.0020245"><ele>646.0</ele><time>2026-05-03T16:19:38.462Z</time></trkpt><trkpt lat="44.0049635" lon="8.0020377"><ele>651.75</ele><time>2026-05-03T16:19:39.465Z</time></trkpt><trkpt lat="44.0048614" lon="8.0020356"><ele>657.5</ele><time>2026-05-03T16:19:40.463Z</time></trkpt><trkpt lat="44.0047576" lon="8.002086"><ele>663.25</ele><time>2026-05-03T16:19:41.463Z</time></trkpt><trkpt lat="44.0046617" lon="8.0021739"><ele>669.0</ele><time>2026-05-03T16:19:42.463Z</time></trkpt><trkpt lat="44.0045671" lon="8.0022907"><ele>669.0</ele><time>2026-05-03T16:19:43.467Z</time></trkpt><trkpt lat="44.0044804" lon="8.0024094"><ele>669.0</ele><time>2026-05-03T16:19:44.464Z</time></trkpt><trkpt lat="44.0043968" lon="8.0025171"><ele>669.0</ele><time>2026-05-03T16:19:45.459Z</time></trkpt><trkpt lat="44.0043499" lon="8.0026393"><ele>669.0</ele><time>2026-05-03T16:19:46.461Z</time></trkpt><trkpt lat="44.0042988" lon="8.0027651"><ele>669.0</ele><time>2026-05-03T16:19:47.46Z</time></trkpt><trkpt lat="44.0042889" lon="8.0029519"><ele>662.5</ele><time>2026-05-03T16:19:48.459Z</time></trkpt><trkpt lat="44.0042719" lon="8.0031735"><ele>656.0</ele><time>2026-05-03T16:19:49.46Z</time></trkpt><trkpt lat="44.0042519" lon="8.0033624"><ele>649.5</ele><time>2026-05-03T16:19:50.469Z</time></trkpt><trkpt lat="44.0042173" lon="8.0035441"><ele>643.0</ele><time>2026-05-03T16:19:51.462Z</time></trkpt><trkpt lat="44.0041785" lon="8.0036906"><ele>650.0</ele><time>2026-05-03T16:19:52.46Z</time></trkpt><trkpt lat="44.0041144" lon="8.0037953"><ele>657.0</ele><time>2026-05-03T16:19:53.46Z</time></trkpt><trkpt lat="44.0040261" lon="8.0039114"><ele>664.0</ele><time>2026-05-03T16:19:54.463Z</time></trkpt><trkpt lat="44.0039101" lon="8.0039998"><ele>671.0</ele><time>2026-05-03T16:19:55.461Z</time></trkpt><trkpt lat="44.0037804" lon="8.0040777"><ele>671.0</ele><time>2026-05-03T16:19:56.463Z</time></trkpt><trkpt lat="44.0036582" lon="8.004142"><ele>671.0</ele><time>2026-05-03T16:19:57.462Z</time></trkpt><trkpt lat="44.0035384" lon="8.0042012"><ele>671.0</ele><time>2026-05-03T16:19:58.46Z</time></trkpt><trkpt lat="44.0034332" lon="8.0042635"><ele>671.0</ele><time>2026-05-03T16:19:59.464Z</time></trkpt><trkpt lat="44.0033373" lon="8.0043296"><ele>671.0</ele><time>2026-05-03T16:20:00.462Z</time></trkpt><trkpt lat="44.0032677" lon="8.0044274"><ele>671.0</ele><time>2026-05-03T16:20:01.458Z</time></trkpt><trkpt lat="44.0032068" lon="8.0045364"><ele>671.0</ele><time>2026-05-03T16:20:02.461Z</time></trkpt><trkpt lat="44.003235" lon="8.004675"><ele>671.0</ele><time>2026-05-03T16:20:03.461Z</time></trkpt><trkpt lat="44.0032236" lon="8.004806"><ele>671.0</ele><time>2026-05-03T16:20:04.463Z</time></trkpt><trkpt lat="44.0031933" lon="8.0049217"><ele>664.4</ele><time>2026-05-03T16:20:05.46Z</time></trkpt><trkpt lat="44.0031561" lon="8.0050005"><ele>657.8</ele><time>2026-05-03T16:20:06.462Z</time></trkpt><trkpt lat="44.0030813" lon="8.0050536"><ele>651.1999999999999</ele><time>2026-05-03T16:20:07.466Z</time></trkpt><trkpt lat="44.0029955" lon="8.0051047"><ele>644.5999999999999</ele><time>2026-05-03T16:20:08.471Z</time></trkpt><trkpt lat="44.0028043" lon="8.0051623"><ele>638.0</ele><time>2026-05-03T16:20:09.462Z</time></trkpt><trkpt lat="44.0026817" lon="8.0051297"><ele>638.0</ele><time>2026-05-03T16:20:10.462Z</time></trkpt><trkpt lat="44.0025701" lon="8.00515"><ele>638.0</ele><time>2026-05-03T16:20:11.46Z</time></trkpt><trkpt lat="44.002487" lon="8.0052227"><ele>638.0</ele><time>2026-05-03T16:20:12.459Z</time></trkpt><trkpt lat="44.0024099" lon="8.0052998"><ele>638.0</ele><time>2026-05-03T16:20:13.462Z</time></trkpt><trkpt lat="44.0023508" lon="8.0054056"><ele>638.0</ele><time>2026-05-03T16:20:14.461Z</time></trkpt><trkpt lat="44.0023368" lon="8.0055266"><ele>635.5</ele><time>2026-05-03T16:20:15.463Z</time></trkpt><trkpt lat="44.0023249" lon="8.0056705"><ele>633.0</ele><time>2026-05-03T16:20:16.46Z</time></trkpt><trkpt lat="44.0023719" lon="8.0058404"><ele>630.5</ele><time>2026-05-03T16:20:17.463Z</time></trkpt><trkpt lat="44.0024252" lon="8.0061016"><ele>628.0</ele><time>2026-05-03T16:20:18.461Z</time></trkpt><trkpt lat="44.0025058" lon="8.0062875"><ele>628.0</ele><time>2026-05-03T16:20:19.459Z</time></trkpt><trkpt lat="44.0025729" lon="8.0064612"><ele>628.0</ele><time>2026-05-03T16:20:20.46Z</time></trkpt><trkpt lat="44.0026357" lon="8.0066057"><ele>628.0</ele><time>2026-05-03T16:20:21.46Z</time></trkpt><trkpt lat="44.0026895" lon="8.0067561"><ele>628.0</ele><time>2026-05-03T16:20:22.463Z</time></trkpt><trkpt lat="44.0027286" lon="8.0068782"><ele>628.5</ele><time>2026-05-03T16:20:23.463Z</time></trkpt><trkpt lat="44.0027106" lon="8.0070076"><ele>629.0</ele><time>2026-05-03T16:20:24.466Z</time></trkpt><trkpt lat="44.002659" lon="8.0071879"><ele>629.5</ele><time>2026-05-03T16:20:25.461Z</time></trkpt><trkpt lat="44.0025324" lon="8.0073808"><ele>630.0</ele><time>2026-05-03T16:20:26.465Z</time></trkpt><trkpt lat="44.0024496" lon="8.0075583"><ele>634.25</ele><time>2026-05-03T16:20:27.459Z</time></trkpt><trkpt lat="44.0023735" lon="8.0077445"><ele>638.5</ele><time>2026-05-03T16:20:28.46Z</time></trkpt><trkpt lat="44.0023321" lon="8.007925"><ele>642.75</ele><time>2026-05-03T16:20:29.459Z</time></trkpt><trkpt lat="44.0023022" lon="8.008121"><ele>647.0</ele><time>2026-05-03T16:20:30.459Z</time></trkpt><trkpt lat="44.0022915" lon="8.0083425"><ele>647.0</ele><time>2026-05-03T16:20:31.461Z</time></trkpt><trkpt lat="44.0022448" lon="8.0085606"><ele>647.0</ele><time>2026-05-03T16:20:32.46Z</time></trkpt><trkpt lat="44.0022059" lon="8.0087812"><ele>647.0</ele><time>2026-05-03T16:20:33.463Z</time></trkpt><trkpt lat="44.0021738" lon="8.0089994"><ele>641.5</ele><time>2026-05-03T16:20:34.466Z</time></trkpt><trkpt lat="44.0021259" lon="8.0092039"><ele>636.0</ele><time>2026-05-03T16:20:35.466Z</time></trkpt><trkpt lat="44.0020845" lon="8.009378"><ele>630.5</ele><time>2026-05-03T16:20:36.467Z</time></trkpt><trkpt lat="44.0020645" lon="8.0095407"><ele>625.0</ele><time>2026-05-03T16:20:37.463Z</time></trkpt><trkpt lat="44.0020378" lon="8.0097169"><ele>625.0</ele><time>2026-05-03T16:20:38.461Z</time></trkpt><trkpt lat="44.0020617" lon="8.0098678"><ele>625.0</ele><time>2026-05-03T16:20:39.463Z</time></trkpt><trkpt lat="44.0021068" lon="8.0100286"><ele>625.0</ele><time>2026-05-03T16:20:40.461Z</time></trkpt><trkpt lat="44.0021915" lon="8.0102095"><ele>625.0</ele><time>2026-05-03T16:20:41.462Z</time></trkpt><trkpt lat="44.0022859" lon="8.0103693"><ele>625.75</ele><time>2026-05-03T16:20:42.462Z</time></trkpt><trkpt lat="44.0023383" lon="8.0105419"><ele>626.5</ele><time>2026-05-03T16:20:43.466Z</time></trkpt><trkpt lat="44.0023802" lon="8.0107165"><ele>627.25</ele><time>2026-05-03T16:20:44.46Z</time></trkpt><trkpt lat="44.0024182" lon="8.0109066"><ele>628.0</ele><time>2026-05-03T16:20:45.462Z</time></trkpt><trkpt lat="44.0024228" lon="8.0111019"><ele>628.0</ele><time>2026-05-03T16:20:46.456Z</time></trkpt><trkpt lat="44.0024134" lon="8.0113154"><ele>628.0</ele><time>2026-05-03T16:20:47.458Z</time></trkpt><trkpt lat="44.0023735" lon="8.011509"><ele>628.0</ele><time>2026-05-03T16:20:48.462Z</time></trkpt><trkpt lat="44.0023514" lon="8.0116767"><ele>628.0</ele><time>2026-05-03T16:20:49.459Z</time></trkpt><trkpt lat="44.0023841" lon="8.0118447"><ele>629.25</ele><time>2026-05-03T16:20:50.461Z</time></trkpt><trkpt lat="44.0024084" lon="8.0120056"><ele>630.5</ele><time>2026-05-03T16:20:51.464Z</time></trkpt><trkpt lat="44.0024543" lon="8.012147"><ele>631.75</ele><time>2026-05-03T16:20:52.46Z</time></trkpt><trkpt lat="44.0025279" lon="8.0123179"><ele>633.0</ele><time>2026-05-03T16:20:53.464Z</time></trkpt><trkpt lat="44.0025955" lon="8.0125432"><ele>626.25</ele><time>2026-05-03T16:20:54.467Z</time></trkpt><trkpt lat="44.0026564" lon="8.0127366"><ele>619.5</ele><time>2026-05-03T16:20:55.46Z</time></trkpt><trkpt lat="44.0027126" lon="8.0129245"><ele>612.75</ele><time>2026-05-03T16:20:56.462Z</time></trkpt><trkpt lat="44.0027793" lon="8.0131075"><ele>606.0</ele><time>2026-05-03T16:20:57.46Z</time></trkpt><trkpt lat="44.0028552" lon="8.013277"><ele>608.0</ele><time>2026-05-03T16:20:58.459Z</time></trkpt><trkpt lat="44.002931" lon="8.0134252"><ele>610.0</ele><time>2026-05-03T16:20:59.46Z</time></trkpt><trkpt lat="44.0030173" lon="8.0135476"><ele>612.0</ele><time>2026-05-03T16:21:00.461Z</time></trkpt><trkpt lat="44.0030943" lon="8.0136508"><ele>614.0</ele><time>2026-05-03T16:21:01.462Z</time></trkpt><trkpt lat="44.0031878" lon="8.0137805"><ele>614.0</ele><time>2026-05-03T16:21:02.464Z</time></trkpt><trkpt lat="44.0032769" lon="8.0139102"><ele>614.0</ele><time>2026-05-03T16:21:03.463Z</time></trkpt><trkpt lat="44.0033425" lon="8.0140715"><ele>614.0</ele><time>2026-05-03T16:21:04.461Z</time></trkpt><trkpt lat="44.0033719" lon="8.014211"><ele>614.0</ele><time>2026-05-03T16:21:05.469Z</time></trkpt><trkpt lat="44.0033633" lon="8.0143148"><ele>614.0</ele><time>2026-05-03T16:21:06.462Z</time></trkpt><trkpt lat="44.0033209" lon="8.014555"><ele>615.3333333333333</ele><time>2026-05-03T16:21:07.46Z</time></trkpt><trkpt lat="44.0032516" lon="8.0148085"><ele>616.6666666666666</ele><time>2026-05-03T16:21:08.46Z</time></trkpt><trkpt lat="44.0032289" lon="8.015027"><ele>618.0</ele><time>2026-05-03T16:21:09.46Z</time></trkpt><trkpt lat="44.0031903" lon="8.0152286"><ele>615.5</ele><time>2026-05-03T16:21:10.46Z</time></trkpt><trkpt lat="44.0031929" lon="8.0154159"><ele>613.0</ele><time>2026-05-03T16:21:11.462Z</time></trkpt><trkpt lat="44.0032241" lon="8.0155887"><ele>610.5</ele><time>2026-05-03T16:21:12.461Z</time></trkpt><trkpt lat="44.0032808" lon="8.0157766"><ele>608.0</ele><time>2026-05-03T16:21:13.462Z</time></trkpt><trkpt lat="44.0033398" lon="8.015967"><ele>600.6666666666666</ele><time>2026-05-03T16:21:14.46Z</time></trkpt><trkpt lat="44.0034819" lon="8.0161621"><ele>593.3333333333334</ele><time>2026-05-03T16:21:15.462Z</time></trkpt><trkpt lat="44.0036166" lon="8.0163414"><ele>586.0</ele><time>2026-05-03T16:21:16.459Z</time></trkpt><trkpt lat="44.0037466" lon="8.0165037"><ele>587.3333333333334</ele><time>2026-05-03T16:21:17.457Z</time></trkpt><trkpt lat="44.0038836" lon="8.0166551"><ele>588.6666666666666</ele><time>2026-05-03T16:21:18.458Z</time></trkpt><trkpt lat="44.0040175" lon="8.0168052"><ele>590.0</ele><time>2026-05-03T16:21:19.456Z</time></trkpt><trkpt lat="44.004148" lon="8.0169432"><ele>583.6666666666666</ele><time>2026-05-03T16:21:20.46Z</time></trkpt><trkpt lat="44.0042686" lon="8.0170818"><ele>577.3333333333334</ele><time>2026-05-03T16:21:21.463Z</time></trkpt><trkpt lat="44.0043752" lon="8.0172395"><ele>571.0</ele><time>2026-05-03T16:21:22.461Z</time></trkpt><trkpt lat="44.0044458" lon="8.0174183"><ele>572.75</ele><time>2026-05-03T16:21:23.461Z</time></trkpt><trkpt lat="44.0045366" lon="8.0175615"><ele>574.5</ele><time>2026-05-03T16:21:24.468Z</time></trkpt><trkpt lat="44.0046119" lon="8.0176938"><ele>576.25</ele><time>2026-05-03T16:21:25.466Z</time></trkpt><trkpt lat="44.0046896" lon="8.0177932"><ele>578.0</ele><time>2026-05-03T16:21:26.459Z</time></trkpt><trkpt lat="44.0047787" lon="8.0178689"><ele>578.0</ele><time>2026-05-03T16:21:27.461Z</time></trkpt><trkpt lat="44.0048915" lon="8.0179204"><ele>578.0</ele><time>2026-05-03T16:21:28.46Z</time></trkpt><trkpt lat="44.0050365" lon="8.0179514"><ele>578.0</ele><time>2026-05-03T16:21:29.462Z</time></trkpt><trkpt lat="44.0051764" lon="8.0180063"><ele>578.0</ele><time>2026-05-03T16:21:30.465Z</time></trkpt><trkpt lat="44.0053213" lon="8.0180694"><ele>574.5</ele><time>2026-05-03T16:21:31.463Z</time></trkpt><trkpt lat="44.0054513" lon="8.0181408"><ele>571.0</ele><time>2026-05-03T16:21:32.47Z</time></trkpt><trkpt lat="44.0055753" lon="8.0182078"><ele>567.5</ele><time>2026-05-03T16:21:33.461Z</time></trkpt><trkpt lat="44.0056886" lon="8.0182573"><ele>564.0</ele><time>2026-05-03T16:21:34.461Z</time></trkpt><trkpt lat="44.0057929" lon="8.0183165"><ele>566.5</ele><time>2026-05-03T16:21:35.46Z</time></trkpt><trkpt lat="44.0058802" lon="8.0183437"><ele>569.0</ele><time>2026-05-03T16:21:36.462Z</time></trkpt><trkpt lat="44.0059869" lon="8.0184214"><ele>571.5</ele><time>2026-05-03T16:21:37.46Z</time></trkpt><trkpt lat="44.0060811" lon="8.0186056"><ele>574.0</ele><time>2026-05-03T16:21:38.466Z</time></trkpt><trkpt lat="44.0061632" lon="8.0187673"><ele>574.0</ele><time>2026-05-03T16:21:39.461Z</time></trkpt><trkpt lat="44.0062657" lon="8.0189301"><ele>574.0</ele><time>2026-05-03T16:21:40.46Z</time></trkpt><trkpt lat="44.0064018" lon="8.0190506"><ele>574.0</ele><time>2026-05-03T16:21:41.46Z</time></trkpt><trkpt lat="44.006496" lon="8.0192247"><ele>573.0</ele><time>2026-05-03T16:21:42.472Z</time></trkpt><trkpt lat="44.0065787" lon="8.0193748"><ele>572.0</ele><time>2026-05-03T16:21:43.464Z</time></trkpt><trkpt lat="44.0066664" lon="8.0195412"><ele>571.0</ele><time>2026-05-03T16:21:44.461Z</time></trkpt><trkpt lat="44.0067486" lon="8.0196685"><ele>570.0</ele><time>2026-05-03T16:21:45.46Z</time></trkpt><trkpt lat="44.0068545" lon="8.019748"><ele>570.0</ele><time>2026-05-03T16:21:46.462Z</time></trkpt><trkpt lat="44.0069642" lon="8.019802"><ele>570.0</ele><time>2026-05-03T16:21:47.457Z</time></trkpt><trkpt lat="44.007084" lon="8.019806"><ele>570.0</ele><time>2026-05-03T16:21:48.457Z</time></trkpt><trkpt lat="44.0072067" lon="8.0197873"><ele>570.0</ele><time>2026-05-03T16:21:49.46Z</time></trkpt><trkpt lat="44.0073235" lon="8.01974"><ele>570.0</ele><time>2026-05-03T16:21:50.465Z</time></trkpt><trkpt lat="44.0074352" lon="8.0197097"><ele>570.0</ele><time>2026-05-03T16:21:51.464Z</time></trkpt><trkpt lat="44.007526" lon="8.0197045"><ele>570.0</ele><time>2026-05-03T16:21:52.465Z</time></trkpt><trkpt lat="44.0076287" lon="8.0197179"><ele>570.0</ele><time>2026-05-03T16:21:53.464Z</time></trkpt><trkpt lat="44.0077776" lon="8.0198055"><ele>572.25</ele><time>2026-05-03T16:21:54.467Z</time></trkpt><trkpt lat="44.0079084" lon="8.0198556"><ele>574.5</ele><time>2026-05-03T16:21:55.47Z</time></trkpt><trkpt lat="44.0080175" lon="8.0199463"><ele>576.75</ele><time>2026-05-03T16:21:56.459Z</time></trkpt><trkpt lat="44.0081256" lon="8.0200345"><ele>579.0</ele><time>2026-05-03T16:21:57.459Z</time></trkpt><trkpt lat="44.0081946" lon="8.0201605"><ele>579.0</ele><time>2026-05-03T16:21:58.46Z</time></trkpt><trkpt lat="44.0082914" lon="8.0203422"><ele>579.0</ele><time>2026-05-03T16:21:59.46Z</time></trkpt><trkpt lat="44.0083993" lon="8.0205244"><ele>579.0</ele><time>2026-05-03T16:22:00.46Z</time></trkpt><trkpt lat="44.0084836" lon="8.0207141"><ele>581.0</ele><time>2026-05-03T16:22:01.463Z</time></trkpt><trkpt lat="44.008497" lon="8.0209154"><ele>583.0</ele><time>2026-05-03T16:22:02.463Z</time></trkpt><trkpt lat="44.0085413" lon="8.0211075"><ele>585.0</ele><time>2026-05-03T16:22:03.465Z</time></trkpt><trkpt lat="44.0086113" lon="8.0212764"><ele>587.0</ele><time>2026-05-03T16:22:04.462Z</time></trkpt><trkpt lat="44.0086739" lon="8.0214427"><ele>587.0</ele><time>2026-05-03T16:22:05.461Z</time></trkpt><trkpt lat="44.0088338" lon="8.0215818"><ele>587.0</ele><time>2026-05-03T16:22:06.46Z</time></trkpt><trkpt lat="44.0089775" lon="8.0217302"><ele>587.0</ele><time>2026-05-03T16:22:07.459Z</time></trkpt><trkpt lat="44.009116" lon="8.0218816"><ele>582.6666666666666</ele><time>2026-05-03T16:22:08.458Z</time></trkpt><trkpt lat="44.0092673" lon="8.0220002"><ele>578.3333333333334</ele><time>2026-05-03T16:22:09.456Z</time></trkpt><trkpt lat="44.0094372" lon="8.0220844"><ele>574.0</ele><time>2026-05-03T16:22:10.463Z</time></trkpt><trkpt lat="44.0095864" lon="8.0221657"><ele>574.0</ele><time>2026-05-03T16:22:11.464Z</time></trkpt><trkpt lat="44.0097236" lon="8.0222233"><ele>574.0</ele><time>2026-05-03T16:22:12.464Z</time></trkpt><trkpt lat="44.0098583" lon="8.0222727"><ele>574.0</ele><time>2026-05-03T16:22:13.461Z</time></trkpt><trkpt lat="44.0099951" lon="8.022231"><ele>574.0</ele><time>2026-05-03T16:22:14.469Z</time></trkpt><trkpt lat="44.0101219" lon="8.0221603"><ele>569.5</ele><time>2026-05-03T16:22:15.459Z</time></trkpt><trkpt lat="44.0102693" lon="8.0220788"><ele>565.0</ele><time>2026-05-03T16:22:16.461Z</time></trkpt><trkpt lat="44.0104091" lon="8.0220282"><ele>560.5</ele><time>2026-05-03T16:22:17.461Z</time></trkpt><trkpt lat="44.0105463" lon="8.0219811"><ele>556.0</ele><time>2026-05-03T16:22:18.462Z</time></trkpt><trkpt lat="44.0106699" lon="8.0219348"><ele>556.0</ele><time>2026-05-03T16:22:19.464Z</time></trkpt><trkpt lat="44.0107668" lon="8.0219138"><ele>556.0</ele><time>2026-05-03T16:22:20.467Z</time></trkpt><trkpt lat="44.010877" lon="8.0219134"><ele>556.0</ele><time>2026-05-03T16:22:21.462Z</time></trkpt><trkpt lat="44.0109934" lon="8.0219647"><ele>556.0</ele><time>2026-05-03T16:22:22.464Z</time></trkpt><trkpt lat="44.0111186" lon="8.0221006"><ele>556.3333333333334</ele><time>2026-05-03T16:22:23.46Z</time></trkpt><trkpt lat="44.0112484" lon="8.0222644"><ele>556.6666666666666</ele><time>2026-05-03T16:22:24.461Z</time></trkpt><trkpt lat="44.0113741" lon="8.0223943"><ele>557.0</ele><time>2026-05-03T16:22:25.46Z</time></trkpt><trkpt lat="44.0115143" lon="8.0225056"><ele>557.3333333333333</ele><time>2026-05-03T16:22:26.463Z</time></trkpt><trkpt lat="44.0116616" lon="8.0225637"><ele>557.6666666666666</ele><time>2026-05-03T16:22:27.458Z</time></trkpt><trkpt lat="44.0118069" lon="8.0226652"><ele>558.0</ele><time>2026-05-03T16:22:28.458Z</time></trkpt><trkpt lat="44.0119188" lon="8.022786"><ele>558.0</ele><time>2026-05-03T16:22:29.46Z</time></trkpt><trkpt lat="44.0119901" lon="8.0228863"><ele>558.0</ele><time>2026-05-03T16:22:30.46Z</time></trkpt><trkpt lat="44.0120794" lon="8.0230018"><ele>558.0</ele><time>2026-05-03T16:22:31.463Z</time></trkpt><trkpt lat="44.0121485" lon="8.0231067"><ele>558.0</ele><time>2026-05-03T16:22:32.463Z</time></trkpt><trkpt lat="44.0121327" lon="8.0231927"><ele>558.0</ele><time>2026-05-03T16:22:33.461Z</time></trkpt><trkpt lat="44.0121037" lon="8.02329"><ele>556.3333333333334</ele><time>2026-05-03T16:22:34.463Z</time></trkpt><trkpt lat="44.0120822" lon="8.0233902"><ele>554.6666666666666</ele><time>2026-05-03T16:22:35.461Z</time></trkpt><trkpt lat="44.0119881" lon="8.0234025"><ele>553.0</ele><time>2026-05-03T16:22:36.462Z</time></trkpt><trkpt lat="44.0119028" lon="8.0234117"><ele>551.3333333333333</ele><time>2026-05-03T16:22:37.463Z</time></trkpt><trkpt lat="44.0118093" lon="8.023422"><ele>549.6666666666666</ele><time>2026-05-03T16:22:38.461Z</time></trkpt><trkpt lat="44.0117366" lon="8.0234229"><ele>548.0</ele><time>2026-05-03T16:22:39.466Z</time></trkpt><trkpt lat="44.0116592" lon="8.0233634"><ele>547.6</ele><time>2026-05-03T16:22:40.463Z</time></trkpt><trkpt lat="44.0115939" lon="8.023315"><ele>547.1999999999999</ele><time>2026-05-03T16:22:41.467Z</time></trkpt><trkpt lat="44.0115223" lon="8.0232203"><ele>546.8</ele><time>2026-05-03T16:22:43.464Z</time></trkpt><trkpt lat="44.0114029" lon="8.0232084"><ele>546.4</ele><time>2026-05-03T16:23:07.459Z</time></trkpt><trkpt lat="44.0112725" lon="8.0231922"><ele>546.0</ele><time>2026-05-03T16:23:08.463Z</time></trkpt><trkpt lat="44.0111509" lon="8.0231722"><ele>552.0</ele><time>2026-05-03T16:23:09.459Z</time></trkpt><trkpt lat="44.011028" lon="8.0231261"><ele>558.0</ele><time>2026-05-03T16:23:10.459Z</time></trkpt><trkpt lat="44.0109171" lon="8.0231413"><ele>564.0</ele><time>2026-05-03T16:23:11.458Z</time></trkpt><trkpt lat="44.0107981" lon="8.0231215"><ele>570.0</ele><time>2026-05-03T16:23:12.46Z</time></trkpt><trkpt lat="44.0106824" lon="8.0231238"><ele>570.0</ele><time>2026-05-03T16:23:13.463Z</time></trkpt><trkpt lat="44.0105423" lon="8.0232118"><ele>570.0</ele><time>2026-05-03T16:23:14.467Z</time></trkpt><trkpt lat="44.0104086" lon="8.0232673"><ele>570.0</ele><time>2026-05-03T16:23:15.461Z</time></trkpt><trkpt lat="44.0102991" lon="8.0233127"><ele>570.0</ele><time>2026-05-03T16:23:16.459Z</time></trkpt><trkpt lat="44.0101933" lon="8.0233304"><ele>571.6</ele><time>2026-05-03T16:23:17.463Z</time></trkpt><trkpt lat="44.0100901" lon="8.0233191"><ele>573.2</ele><time>2026-05-03T16:23:18.463Z</time></trkpt><trkpt lat="44.009981" lon="8.023324"><ele>574.8</ele><time>2026-05-03T16:23:19.466Z</time></trkpt><trkpt lat="44.0098983" lon="8.0233371"><ele>576.4</ele><time>2026-05-03T16:23:20.462Z</time></trkpt><trkpt lat="44.0098115" lon="8.0233971"><ele>578.0</ele><time>2026-05-03T16:23:21.463Z</time></trkpt><trkpt lat="44.0097093" lon="8.0235773"><ele>578.0</ele><time>2026-05-03T16:23:22.459Z</time></trkpt><trkpt lat="44.0095912" lon="8.0237393"><ele>578.0</ele><time>2026-05-03T16:23:23.463Z</time></trkpt><trkpt lat="44.0094939" lon="8.0238853"><ele>578.0</ele><time>2026-05-03T16:23:24.46Z</time></trkpt><trkpt lat="44.009411" lon="8.024056"><ele>574.5</ele><time>2026-05-03T16:23:25.462Z</time></trkpt><trkpt lat="44.0093222" lon="8.0242109"><ele>571.0</ele><time>2026-05-03T16:23:26.464Z</time></trkpt><trkpt lat="44.0092355" lon="8.024359"><ele>567.5</ele><time>2026-05-03T16:23:27.464Z</time></trkpt><trkpt lat="44.0091443" lon="8.0244756"><ele>564.0</ele><time>2026-05-03T16:23:28.468Z</time></trkpt><trkpt lat="44.0090376" lon="8.0245851"><ele>564.0</ele><time>2026-05-03T16:23:29.457Z</time></trkpt><trkpt lat="44.0089022" lon="8.0246517"><ele>564.0</ele><time>2026-05-03T16:23:30.457Z</time></trkpt><trkpt lat="44.0087405" lon="8.0247182"><ele>564.0</ele><time>2026-05-03T16:23:31.459Z</time></trkpt><trkpt lat="44.0085772" lon="8.0248119"><ele>564.0</ele><time>2026-05-03T16:23:32.462Z</time></trkpt><trkpt lat="44.0084272" lon="8.0249123"><ele>564.0</ele><time>2026-05-03T16:23:33.46Z</time></trkpt><trkpt lat="44.008279" lon="8.0249895"><ele>564.0</ele><time>2026-05-03T16:23:34.463Z</time></trkpt><trkpt lat="44.0081246" lon="8.0250744"><ele>553.6666666666666</ele><time>2026-05-03T16:23:35.462Z</time></trkpt><trkpt lat="44.0079724" lon="8.0251601"><ele>543.3333333333333</ele><time>2026-05-03T16:23:36.462Z</time></trkpt><trkpt lat="44.0078375" lon="8.0252604"><ele>533.0</ele><time>2026-05-03T16:23:37.461Z</time></trkpt><trkpt lat="44.0077072" lon="8.0253699"><ele>533.0</ele><time>2026-05-03T16:23:38.461Z</time></trkpt><trkpt lat="44.0075895" lon="8.0254925"><ele>533.0</ele><time>2026-05-03T16:23:39.46Z</time></trkpt><trkpt lat="44.0074545" lon="8.025593"><ele>533.0</ele><time>2026-05-03T16:23:40.46Z</time></trkpt><trkpt lat="44.0072868" lon="8.0256836"><ele>529.0</ele><time>2026-05-03T16:23:41.468Z</time></trkpt><trkpt lat="44.0071355" lon="8.0257209"><ele>525.0</ele><time>2026-05-03T16:23:42.461Z</time></trkpt><trkpt lat="44.0069733" lon="8.0257594"><ele>521.0</ele><time>2026-05-03T16:23:43.464Z</time></trkpt><trkpt lat="44.0068326" lon="8.025791"><ele>517.5</ele><time>2026-05-03T16:23:44.462Z</time></trkpt><trkpt lat="44.0067037" lon="8.0258661"><ele>514.0</ele><time>2026-05-03T16:23:45.466Z</time></trkpt><trkpt lat="44.0065726" lon="8.0259454"><ele>510.5</ele><time>2026-05-03T16:23:46.466Z</time></trkpt><trkpt lat="44.0064321" lon="8.0260585"><ele>507.0</ele><time>2026-05-03T16:23:47.468Z</time></trkpt><trkpt lat="44.0063003" lon="8.0261704"><ele>505.75</ele><time>2026-05-03T16:23:48.467Z</time></trkpt><trkpt lat="44.006173" lon="8.0262891"><ele>504.5</ele><time>2026-05-03T16:23:49.456Z</time></trkpt><trkpt lat="44.0060617" lon="8.0264115"><ele>503.25</ele><time>2026-05-03T16:23:50.458Z</time></trkpt><trkpt lat="44.0059552" lon="8.0265016"><ele>502.0</ele><time>2026-05-03T16:23:51.461Z</time></trkpt><trkpt lat="44.0058431" lon="8.0265642"><ele>494.75</ele><time>2026-05-03T16:23:52.458Z</time></trkpt><trkpt lat="44.0057385" lon="8.0265823"><ele>487.5</ele><time>2026-05-03T16:23:53.463Z</time></trkpt><trkpt lat="44.0056558" lon="8.0265274"><ele>480.25</ele><time>2026-05-03T16:23:54.462Z</time></trkpt><trkpt lat="44.0055631" lon="8.0264207"><ele>473.0</ele><time>2026-05-03T16:23:55.464Z</time></trkpt><trkpt lat="44.0054883" lon="8.0262178"><ele>473.0</ele><time>2026-05-03T16:23:56.462Z</time></trkpt><trkpt lat="44.0054405" lon="8.0259779"><ele>473.0</ele><time>2026-05-03T16:23:57.46Z</time></trkpt><trkpt lat="44.0053967" lon="8.0257231"><ele>473.0</ele><time>2026-05-03T16:23:58.463Z</time></trkpt><trkpt lat="44.0054439" lon="8.0254625"><ele>474.0</ele><time>2026-05-03T16:23:59.464Z</time></trkpt><trkpt lat="44.0054428" lon="8.025235"><ele>475.0</ele><time>2026-05-03T16:24:00.46Z</time></trkpt><trkpt lat="44.0054266" lon="8.0250111"><ele>476.0</ele><time>2026-05-03T16:24:01.459Z</time></trkpt><trkpt lat="44.0054224" lon="8.0247854"><ele>476.5</ele><time>2026-05-03T16:24:02.462Z</time></trkpt><trkpt lat="44.0054148" lon="8.0245689"><ele>477.0</ele><time>2026-05-03T16:24:03.461Z</time></trkpt><trkpt lat="44.0054147" lon="8.0243762"><ele>477.5</ele><time>2026-05-03T16:24:04.465Z</time></trkpt><trkpt lat="44.005408" lon="8.0242046"><ele>478.0</ele><time>2026-05-03T16:24:05.465Z</time></trkpt><trkpt lat="44.0053965" lon="8.024073"><ele>478.00000000000006</ele><time>2026-05-03T16:24:06.464Z</time></trkpt><trkpt lat="44.0053827" lon="8.0239593"><ele>478.0</ele><time>2026-05-03T16:24:07.463Z</time></trkpt><trkpt lat="44.0053372" lon="8.0238743"><ele>478.0</ele><time>2026-05-03T16:24:09.459Z</time></trkpt><trkpt lat="44.0052953" lon="8.0239716"><ele>478.0</ele><time>2026-05-03T16:24:10.46Z</time></trkpt><trkpt lat="44.0052925" lon="8.0240619"><ele>478.00000000000006</ele><time>2026-05-03T16:24:11.464Z</time></trkpt><trkpt lat="44.0052707" lon="8.0241975"><ele>478.0</ele><time>2026-05-03T16:24:12.466Z</time></trkpt><trkpt lat="44.0052529" lon="8.0244633"><ele>478.0</ele><time>2026-05-03T16:24:13.466Z</time></trkpt><trkpt lat="44.0052401" lon="8.02469"><ele>478.0</ele><time>2026-05-03T16:24:14.467Z</time></trkpt><trkpt lat="44.0052166" lon="8.0249073"><ele>478.0</ele><time>2026-05-03T16:24:15.463Z</time></trkpt><trkpt lat="44.005201" lon="8.025137"><ele>477.33333333333337</ele><time>2026-05-03T16:24:16.462Z</time></trkpt><trkpt lat="44.0051827" lon="8.0253662"><ele>476.66666666666663</ele><time>2026-05-03T16:24:17.467Z</time></trkpt><trkpt lat="44.0051691" lon="8.0255738"><ele>476.0</ele><time>2026-05-03T16:24:18.458Z</time></trkpt><trkpt lat="44.0051472" lon="8.0257891"><ele>475.25</ele><time>2026-05-03T16:24:19.465Z</time></trkpt><trkpt lat="44.0051341" lon="8.025989"><ele>474.5</ele><time>2026-05-03T16:24:20.46Z</time></trkpt><trkpt lat="44.0051203" lon="8.0261787"><ele>473.75</ele><time>2026-05-03T16:24:21.46Z</time></trkpt><trkpt lat="44.0051198" lon="8.0263651"><ele>473.0</ele><time>2026-05-03T16:24:22.458Z</time></trkpt><trkpt lat="44.005129" lon="8.0265551"><ele>472.0</ele><time>2026-05-03T16:24:23.465Z</time></trkpt><trkpt lat="44.0051466" lon="8.0267432"><ele>471.0</ele><time>2026-05-03T16:24:24.462Z</time></trkpt><trkpt lat="44.0051618" lon="8.0269244"><ele>470.0</ele><time>2026-05-03T16:24:25.462Z</time></trkpt><trkpt lat="44.0051744" lon="8.027087"><ele>469.0</ele><time>2026-05-03T16:24:26.46Z</time></trkpt><trkpt lat="44.0051915" lon="8.0272245"><ele>469.00000000000006</ele><time>2026-05-03T16:24:27.462Z</time></trkpt><trkpt lat="44.0051939" lon="8.027332"><ele>469.0</ele><time>2026-05-03T16:24:28.461Z</time></trkpt><trkpt lat="44.0052082" lon="8.0274758"><ele>469.0</ele><time>2026-05-03T16:24:30.46Z</time></trkpt><trkpt lat="44.0052211" lon="8.0275844"><ele>469.0</ele><time>2026-05-03T16:24:32.462Z</time></trkpt><trkpt lat="44.005225" lon="8.0277169"><ele>469.00000000000006</ele><time>2026-05-03T16:24:34.465Z</time></trkpt><trkpt lat="44.0052309" lon="8.0278162"><ele>469.0</ele><time>2026-05-03T16:24:35.46Z</time></trkpt><trkpt lat="44.0052373" lon="8.0279226"><ele>467.6666666666667</ele><time>2026-05-03T16:24:36.467Z</time></trkpt><trkpt lat="44.0052466" lon="8.0280132"><ele>466.33333333333337</ele><time>2026-05-03T16:24:37.462Z</time></trkpt><trkpt lat="44.0052504" lon="8.0281557"><ele>465.0</ele><time>2026-05-03T16:24:39.465Z</time></trkpt><trkpt lat="44.005297" lon="8.0282905"><ele>463.66666666666663</ele><time>2026-05-03T16:25:59.468Z</time></trkpt><trkpt lat="44.0053244" lon="8.0284002"><ele>462.3333333333333</ele><time>2026-05-03T16:26:00.469Z</time></trkpt><trkpt lat="44.0053182" lon="8.0285222"><ele>461.0</ele><time>2026-05-03T16:26:01.46Z</time></trkpt><trkpt lat="44.0053136" lon="8.0286542"><ele>460.0</ele><time>2026-05-03T16:26:02.465Z</time></trkpt><trkpt lat="44.0053054" lon="8.0287957"><ele>459.0</ele><time>2026-05-03T16:26:03.463Z</time></trkpt><trkpt lat="44.0053015" lon="8.0289533"><ele>458.0</ele><time>2026-05-03T16:26:04.465Z</time></trkpt><trkpt lat="44.0053026" lon="8.029112"><ele>457.0</ele><time>2026-05-03T16:26:05.464Z</time></trkpt><trkpt lat="44.0052898" lon="8.029279"><ele>457.0</ele><time>2026-05-03T16:26:06.469Z</time></trkpt><trkpt lat="44.0052874" lon="8.0294252"><ele>457.00000000000006</ele><time>2026-05-03T16:26:07.464Z</time></trkpt><trkpt lat="44.0052758" lon="8.0295544"><ele>457.00000000000006</ele><time>2026-05-03T16:26:08.465Z</time></trkpt><trkpt lat="44.0052631" lon="8.0296759"><ele>457.0</ele><time>2026-05-03T16:26:09.466Z</time></trkpt><trkpt lat="44.0052508" lon="8.0298057"><ele>457.0</ele><time>2026-05-03T16:26:10.461Z</time></trkpt><trkpt lat="44.0052362" lon="8.0299366"><ele>456.20000000000005</ele><time>2026-05-03T16:26:11.47Z</time></trkpt><trkpt lat="44.005242" lon="8.0300616"><ele>455.40000000000003</ele><time>2026-05-03T16:26:12.46Z</time></trkpt><trkpt lat="44.0052588" lon="8.0301892"><ele>454.59999999999997</ele><time>2026-05-03T16:26:13.461Z</time></trkpt><trkpt lat="44.0052808" lon="8.0303236"><ele>453.79999999999995</ele><time>2026-05-03T16:26:14.461Z</time></trkpt><trkpt lat="44.0053038" lon="8.0304463"><ele>453.0</ele><time>2026-05-03T16:26:15.46Z</time></trkpt><trkpt lat="44.0053373" lon="8.0305787"><ele>453.0</ele><time>2026-05-03T16:26:16.461Z</time></trkpt><trkpt lat="44.0053961" lon="8.030714"><ele>453.0</ele><time>2026-05-03T16:26:17.465Z</time></trkpt><trkpt lat="44.0054525" lon="8.0308504"><ele>453.0</ele><time>2026-05-03T16:26:18.467Z</time></trkpt><trkpt lat="44.0054958" lon="8.0309947"><ele>453.0</ele><time>2026-05-03T16:26:19.47Z</time></trkpt><trkpt lat="44.0055395" lon="8.0311516"><ele>452.75</ele><time>2026-05-03T16:26:20.461Z</time></trkpt><trkpt lat="44.0055717" lon="8.0313161"><ele>452.5</ele><time>2026-05-03T16:26:21.46Z</time></trkpt><trkpt lat="44.005586" lon="8.0315007"><ele>452.25</ele><time>2026-05-03T16:26:22.459Z</time></trkpt><trkpt lat="44.0056085" lon="8.031675"><ele>452.0</ele><time>2026-05-03T16:26:23.463Z</time></trkpt><trkpt lat="44.0056351" lon="8.0318413"><ele>452.0</ele><time>2026-05-03T16:26:24.464Z</time></trkpt><trkpt lat="44.0056617" lon="8.0320024"><ele>452.0</ele><time>2026-05-03T16:26:25.463Z</time></trkpt><trkpt lat="44.00568" lon="8.0321544"><ele>452.0</ele><time>2026-05-03T16:26:26.467Z</time></trkpt><trkpt lat="44.0057209" lon="8.0322911"><ele>452.0</ele><time>2026-05-03T16:26:27.464Z</time></trkpt><trkpt lat="44.0058122" lon="8.0324423"><ele>449.5</ele><time>2026-05-03T16:26:28.464Z</time></trkpt><trkpt lat="44.0059062" lon="8.0325585"><ele>447.0</ele><time>2026-05-03T16:26:29.461Z</time></trkpt><trkpt lat="44.0059949" lon="8.0326791"><ele>444.5</ele><time>2026-05-03T16:26:30.466Z</time></trkpt><trkpt lat="44.0060699" lon="8.0328045"><ele>442.0</ele><time>2026-05-03T16:26:31.465Z</time></trkpt><trkpt lat="44.006142" lon="8.0329385"><ele>442.0</ele><time>2026-05-03T16:26:32.459Z</time></trkpt><trkpt lat="44.0061952" lon="8.0331116"><ele>442.0</ele><time>2026-05-03T16:26:33.458Z</time></trkpt><trkpt lat="44.0062527" lon="8.0332728"><ele>442.0</ele><time>2026-05-03T16:26:34.459Z</time></trkpt><trkpt lat="44.0063057" lon="8.0334245"><ele>442.0</ele><time>2026-05-03T16:26:35.459Z</time></trkpt><trkpt lat="44.0063715" lon="8.0335433"><ele>440.8</ele><time>2026-05-03T16:26:36.459Z</time></trkpt><trkpt lat="44.0064432" lon="8.0336566"><ele>439.6</ele><time>2026-05-03T16:26:37.462Z</time></trkpt><trkpt lat="44.0065121" lon="8.0337772"><ele>438.40000000000003</ele><time>2026-05-03T16:26:38.46Z</time></trkpt><trkpt lat="44.006557" lon="8.0339085"><ele>437.20000000000005</ele><time>2026-05-03T16:26:39.461Z</time></trkpt><trkpt lat="44.0065935" lon="8.034053"><ele>436.0</ele><time>2026-05-03T16:26:40.46Z</time></trkpt><trkpt lat="44.00662" lon="8.0341877"><ele>436.50000000000006</ele><time>2026-05-03T16:26:41.459Z</time></trkpt><trkpt lat="44.0066497" lon="8.0343023"><ele>437.0</ele><time>2026-05-03T16:26:42.46Z</time></trkpt><trkpt lat="44.0066704" lon="8.0344172"><ele>437.5</ele><time>2026-05-03T16:26:43.46Z</time></trkpt><trkpt lat="44.0066892" lon="8.0345082"><ele>438.0</ele><time>2026-05-03T16:26:44.461Z</time></trkpt><trkpt lat="44.0067201" lon="8.0346574"><ele>438.50000000000006</ele><time>2026-05-03T16:26:46.462Z</time></trkpt><trkpt lat="44.0067939" lon="8.0346384"><ele>439.0</ele><time>2026-05-03T16:26:49.469Z</time></trkpt><trkpt lat="44.0067796" lon="8.0345521"><ele>439.0</ele><time>2026-05-03T16:26:50.469Z</time></trkpt><trkpt lat="44.0067343" lon="8.0344222"><ele>439.0</ele><time>2026-05-03T16:26:51.464Z</time></trkpt><trkpt lat="44.0067127" lon="8.0342648"><ele>439.0</ele><time>2026-05-03T16:26:52.466Z</time></trkpt><trkpt lat="44.0066906" lon="8.0341003"><ele>439.0</ele><time>2026-05-03T16:26:53.458Z</time></trkpt><trkpt lat="44.0066701" lon="8.0339525"><ele>439.0</ele><time>2026-05-03T16:26:54.459Z</time></trkpt><trkpt lat="44.0066533" lon="8.0338205"><ele>438.25</ele><time>2026-05-03T16:26:55.459Z</time></trkpt><trkpt lat="44.0066044" lon="8.0336893"><ele>437.5</ele><time>2026-05-03T16:26:56.457Z</time></trkpt><trkpt lat="44.0065409" lon="8.0335634"><ele>436.75</ele><time>2026-05-03T16:26:57.463Z</time></trkpt><trkpt lat="44.0064656" lon="8.033431"><ele>436.0</ele><time>2026-05-03T16:26:58.464Z</time></trkpt><trkpt lat="44.0064157" lon="8.0332706"><ele>437.5</ele><time>2026-05-03T16:26:59.467Z</time></trkpt><trkpt lat="44.006367" lon="8.0331101"><ele>439.0</ele><time>2026-05-03T16:27:00.462Z</time></trkpt><trkpt lat="44.0063341" lon="8.032956"><ele>440.5</ele><time>2026-05-03T16:27:01.461Z</time></trkpt><trkpt lat="44.0062982" lon="8.0327917"><ele>442.0</ele><time>2026-05-03T16:27:02.459Z</time></trkpt><trkpt lat="44.0062414" lon="8.0326256"><ele>442.0</ele><time>2026-05-03T16:27:03.459Z</time></trkpt><trkpt lat="44.0061602" lon="8.0324755"><ele>442.0</ele><time>2026-05-03T16:27:04.461Z</time></trkpt><trkpt lat="44.0060823" lon="8.0323357"><ele>442.0</ele><time>2026-05-03T16:27:05.46Z</time></trkpt><trkpt lat="44.0060227" lon="8.0322054"><ele>442.0</ele><time>2026-05-03T16:27:06.46Z</time></trkpt><trkpt lat="44.0059512" lon="8.0320791"><ele>441.5</ele><time>2026-05-03T16:27:07.463Z</time></trkpt><trkpt lat="44.0058993" lon="8.0319364"><ele>441.0</ele><time>2026-05-03T16:27:08.464Z</time></trkpt><trkpt lat="44.0059262" lon="8.0317493"><ele>440.5</ele><time>2026-05-03T16:27:09.461Z</time></trkpt><trkpt lat="44.0059262" lon="8.031594"><ele>440.0</ele><time>2026-05-03T16:27:10.461Z</time></trkpt><trkpt lat="44.0059482" lon="8.0314414"><ele>440.0</ele><time>2026-05-03T16:27:11.458Z</time></trkpt><trkpt lat="44.0059742" lon="8.0313184"><ele>440.0</ele><time>2026-05-03T16:27:12.458Z</time></trkpt><trkpt lat="44.0059909" lon="8.0311986"><ele>440.0</ele><time>2026-05-03T16:27:13.459Z</time></trkpt><trkpt lat="44.0059778" lon="8.0310708"><ele>440.0</ele><time>2026-05-03T16:27:14.459Z</time></trkpt><trkpt lat="44.0059716" lon="8.0309449"><ele>440.0</ele><time>2026-05-03T16:27:15.461Z</time></trkpt><trkpt lat="44.0058794" lon="8.0307472"><ele>439.0</ele><time>2026-05-03T16:27:16.459Z</time></trkpt><trkpt lat="44.0058406" lon="8.0305859"><ele>438.0</ele><time>2026-05-03T16:27:17.46Z</time></trkpt><trkpt lat="44.0058099" lon="8.0304192"><ele>437.0</ele><time>2026-05-03T16:27:18.466Z</time></trkpt><trkpt lat="44.0057934" lon="8.0302541"><ele>436.0</ele><time>2026-05-03T16:27:19.465Z</time></trkpt><trkpt lat="44.0057824" lon="8.0300818"><ele>441.25</ele><time>2026-05-03T16:27:20.463Z</time></trkpt><trkpt lat="44.005784" lon="8.0299031"><ele>446.5</ele><time>2026-05-03T16:27:21.463Z</time></trkpt><trkpt lat="44.0057749" lon="8.0297331"><ele>451.75</ele><time>2026-05-03T16:27:22.459Z</time></trkpt><trkpt lat="44.0057718" lon="8.0295735"><ele>457.0</ele><time>2026-05-03T16:27:23.46Z</time></trkpt><trkpt lat="44.0058156" lon="8.0294069"><ele>455.0</ele><time>2026-05-03T16:27:24.459Z</time></trkpt><trkpt lat="44.0058516" lon="8.0292584"><ele>453.00000000000006</ele><time>2026-05-03T16:27:25.465Z</time></trkpt><trkpt lat="44.0058725" lon="8.0291057"><ele>451.00000000000006</ele><time>2026-05-03T16:27:26.466Z</time></trkpt><trkpt lat="44.0058538" lon="8.0289504"><ele>449.0</ele><time>2026-05-03T16:27:27.463Z</time></trkpt><trkpt lat="44.0058664" lon="8.028827"><ele>447.0</ele><time>2026-05-03T16:27:28.46Z</time></trkpt><trkpt lat="44.0058938" lon="8.0287254"><ele>447.0</ele><time>2026-05-03T16:27:29.469Z</time></trkpt><trkpt lat="44.0059353" lon="8.0286401"><ele>447.00000000000006</ele><time>2026-05-03T16:27:30.467Z</time></trkpt><trkpt lat="44.0060094" lon="8.0285811"><ele>447.00000000000006</ele><time>2026-05-03T16:27:31.459Z</time></trkpt><trkpt lat="44.0060949" lon="8.0285681"><ele>447.0</ele><time>2026-05-03T16:27:32.462Z</time></trkpt><trkpt lat="44.0061925" lon="8.0285768"><ele>447.0</ele><time>2026-05-03T16:27:33.459Z</time></trkpt><trkpt lat="44.0063293" lon="8.028601"><ele>447.0</ele><time>2026-05-03T16:27:34.462Z</time></trkpt><trkpt lat="44.006425" lon="8.0286055"><ele>447.00000000000006</ele><time>2026-05-03T16:27:35.464Z</time></trkpt><trkpt lat="44.0065155" lon="8.0285882"><ele>447.00000000000006</ele><time>2026-05-03T16:27:36.457Z</time></trkpt><trkpt lat="44.0065632" lon="8.0285008"><ele>447.0</ele><time>2026-05-03T16:27:37.461Z</time></trkpt><trkpt lat="44.0066516" lon="8.028386"><ele>447.0</ele><time>2026-05-03T16:27:38.462Z</time></trkpt><trkpt lat="44.0067494" lon="8.028284"><ele>448.40000000000003</ele><time>2026-05-03T16:27:39.463Z</time></trkpt><trkpt lat="44.006851" lon="8.0281738"><ele>449.80000000000007</ele><time>2026-05-03T16:27:40.465Z</time></trkpt><trkpt lat="44.0069313" lon="8.0280691"><ele>451.2</ele><time>2026-05-03T16:27:41.458Z</time></trkpt><trkpt lat="44.0070188" lon="8.0280084"><ele>452.6</ele><time>2026-05-03T16:27:42.461Z</time></trkpt><trkpt lat="44.0071132" lon="8.02796"><ele>454.0</ele><time>2026-05-03T16:27:43.461Z</time></trkpt><trkpt lat="44.0072214" lon="8.0279172"><ele>454.0</ele><time>2026-05-03T16:27:44.46Z</time></trkpt><trkpt lat="44.0073271" lon="8.0279469"><ele>454.0</ele><time>2026-05-03T16:27:45.464Z</time></trkpt><trkpt lat="44.0074488" lon="8.0280189"><ele>454.0</ele><time>2026-05-03T16:27:46.462Z</time></trkpt><trkpt lat="44.0075397" lon="8.0280759"><ele>454.0</ele><time>2026-05-03T16:27:47.467Z</time></trkpt><trkpt lat="44.0076023" lon="8.0280948"><ele>454.0</ele><time>2026-05-03T16:27:48.466Z</time></trkpt><trkpt lat="44.0076676" lon="8.0280521"><ele>451.4</ele><time>2026-05-03T16:27:49.461Z</time></trkpt><trkpt lat="44.0077317" lon="8.0279836"><ele>448.79999999999995</ele><time>2026-05-03T16:27:50.459Z</time></trkpt><trkpt lat="44.0078038" lon="8.0278605"><ele>446.20000000000005</ele><time>2026-05-03T16:27:51.462Z</time></trkpt><trkpt lat="44.0078766" lon="8.0277162"><ele>443.6</ele><time>2026-05-03T16:27:52.462Z</time></trkpt><trkpt lat="44.0079372" lon="8.0275936"><ele>441.0</ele><time>2026-05-03T16:27:53.462Z</time></trkpt><trkpt lat="44.0079917" lon="8.0274781"><ele>443.6</ele><time>2026-05-03T16:27:54.469Z</time></trkpt><trkpt lat="44.0080598" lon="8.0273941"><ele>446.20000000000005</ele><time>2026-05-03T16:27:55.462Z</time></trkpt><trkpt lat="44.008136" lon="8.0273721"><ele>448.79999999999995</ele><time>2026-05-03T16:27:56.467Z</time></trkpt><trkpt lat="44.0082361" lon="8.0273846"><ele>451.4</ele><time>2026-05-03T16:27:57.46Z</time></trkpt><trkpt lat="44.0083437" lon="8.0273631"><ele>454.0</ele><time>2026-05-03T16:27:58.463Z</time></trkpt><trkpt lat="44.0084467" lon="8.0273191"><ele>454.0</ele><time>2026-05-03T16:27:59.466Z</time></trkpt><trkpt lat="44.0085445" lon="8.0273502"><ele>454.0</ele><time>2026-05-03T16:28:00.461Z</time></trkpt><trkpt lat="44.0086424" lon="8.0274137"><ele>454.0</ele><time>2026-05-03T16:28:01.462Z</time></trkpt><trkpt lat="44.0087424" lon="8.0274762"><ele>454.0</ele><time>2026-05-03T16:28:02.461Z</time></trkpt><trkpt lat="44.0088436" lon="8.0275235"><ele>454.0</ele><time>2026-05-03T16:28:03.465Z</time></trkpt><trkpt lat="44.0089533" lon="8.0275309"><ele>447.6</ele><time>2026-05-03T16:28:04.465Z</time></trkpt><trkpt lat="44.0090615" lon="8.0275454"><ele>441.2</ele><time>2026-05-03T16:28:05.46Z</time></trkpt><trkpt lat="44.0091683" lon="8.0275552"><ele>434.8</ele><time>2026-05-03T16:28:06.461Z</time></trkpt><trkpt lat="44.0092816" lon="8.0275685"><ele>428.40000000000003</ele><time>2026-05-03T16:28:07.458Z</time></trkpt><trkpt lat="44.0093705" lon="8.0276464"><ele>422.0</ele><time>2026-05-03T16:28:08.458Z</time></trkpt><trkpt lat="44.0094364" lon="8.0277276"><ele>421.6</ele><time>2026-05-03T16:28:09.463Z</time></trkpt><trkpt lat="44.009514" lon="8.0277934"><ele>421.20000000000005</ele><time>2026-05-03T16:28:10.46Z</time></trkpt><trkpt lat="44.0095871" lon="8.0277762"><ele>420.8</ele><time>2026-05-03T16:28:11.462Z</time></trkpt><trkpt lat="44.0096748" lon="8.027741"><ele>420.4</ele><time>2026-05-03T16:28:12.463Z</time></trkpt><trkpt lat="44.0097682" lon="8.0277062"><ele>420.0</ele><time>2026-05-03T16:28:13.463Z</time></trkpt><trkpt lat="44.0098688" lon="8.0276721"><ele>420.0</ele><time>2026-05-03T16:28:14.467Z</time></trkpt><trkpt lat="44.0099565" lon="8.0276067"><ele>420.0</ele><time>2026-05-03T16:28:15.459Z</time></trkpt><trkpt lat="44.0100307" lon="8.0274511"><ele>420.0</ele><time>2026-05-03T16:28:16.466Z</time></trkpt><trkpt lat="44.0101046" lon="8.0273254"><ele>420.0</ele><time>2026-05-03T16:28:17.462Z</time></trkpt><trkpt lat="44.0101838" lon="8.0271965"><ele>422.75</ele><time>2026-05-03T16:28:18.463Z</time></trkpt><trkpt lat="44.0102668" lon="8.0271042"><ele>425.5</ele><time>2026-05-03T16:28:19.461Z</time></trkpt><trkpt lat="44.010367" lon="8.0270384"><ele>428.25</ele><time>2026-05-03T16:28:20.465Z</time></trkpt><trkpt lat="44.0104723" lon="8.0269842"><ele>431.0</ele><time>2026-05-03T16:28:21.46Z</time></trkpt><trkpt lat="44.0105751" lon="8.0268853"><ele>431.0</ele><time>2026-05-03T16:28:22.46Z</time></trkpt><trkpt lat="44.0106778" lon="8.0268044"><ele>431.0</ele><time>2026-05-03T16:28:23.459Z</time></trkpt><trkpt lat="44.0107585" lon="8.0267262"><ele>431.0</ele><time>2026-05-03T16:28:24.46Z</time></trkpt><trkpt lat="44.010841" lon="8.0266576"><ele>431.0</ele><time>2026-05-03T16:28:25.465Z</time></trkpt><trkpt lat="44.0109098" lon="8.026643"><ele>431.0</ele><time>2026-05-03T16:28:26.459Z</time></trkpt><trkpt lat="44.0109803" lon="8.0267084"><ele>427.8333333333333</ele><time>2026-05-03T16:28:28.457Z</time></trkpt><trkpt lat="44.0109626" lon="8.0268021"><ele>424.66666666666663</ele><time>2026-05-03T16:28:32.462Z</time></trkpt><trkpt lat="44.0109685" lon="8.0269769"><ele>421.5</ele><time>2026-05-03T16:28:50.464Z</time></trkpt><trkpt lat="44.010991" lon="8.0270808"><ele>418.33333333333337</ele><time>2026-05-03T16:28:51.465Z</time></trkpt><trkpt lat="44.0110049" lon="8.0271975"><ele>415.1666666666667</ele><time>2026-05-03T16:28:52.459Z</time></trkpt><trkpt lat="44.0110271" lon="8.0273044"><ele>412.0</ele><time>2026-05-03T16:28:53.459Z</time></trkpt><trkpt lat="44.0110497" lon="8.0274164"><ele>408.2857142857143</ele><time>2026-05-03T16:28:54.46Z</time></trkpt><trkpt lat="44.0110795" lon="8.0275108"><ele>404.57142857142856</ele><time>2026-05-03T16:28:55.462Z</time></trkpt><trkpt lat="44.0111232" lon="8.02758"><ele>400.8571428571429</ele><time>2026-05-03T16:28:56.463Z</time></trkpt><trkpt lat="44.0111717" lon="8.0276451"><ele>397.1428571428571</ele><time>2026-05-03T16:28:57.46Z</time></trkpt><trkpt lat="44.011233" lon="8.0277005"><ele>393.42857142857144</ele><time>2026-05-03T16:28:58.463Z</time></trkpt><trkpt lat="44.011289" lon="8.0277458"><ele>389.7142857142857</ele><time>2026-05-03T16:28:59.459Z</time></trkpt><trkpt lat="44.0113273" lon="8.0278158"><ele>386.0</ele><time>2026-05-03T16:29:00.461Z</time></trkpt><trkpt lat="44.0113659" lon="8.0279634"><ele>386.0</ele><time>2026-05-03T16:29:02.46Z</time></trkpt><trkpt lat="44.0113383" lon="8.0281074"><ele>386.0</ele><time>2026-05-03T16:29:04.461Z</time></trkpt><trkpt lat="44.0113139" lon="8.0282591"><ele>386.0</ele><time>2026-05-03T16:29:06.46Z</time></trkpt><trkpt lat="44.0112913" lon="8.0283626"><ele>386.0</ele><time>2026-05-03T16:29:07.46Z</time></trkpt><trkpt lat="44.0113374" lon="8.0284991"><ele>386.0</ele><time>2026-05-03T16:29:09.459Z</time></trkpt><trkpt lat="44.011394" lon="8.0285856"><ele>383.3333333333333</ele><time>2026-05-03T16:29:10.464Z</time></trkpt><trkpt lat="44.0114618" lon="8.0286672"><ele>380.66666666666663</ele><time>2026-05-03T16:29:11.463Z</time></trkpt><trkpt lat="44.011522" lon="8.0287533"><ele>378.0</ele><time>2026-05-03T16:29:12.464Z</time></trkpt><trkpt lat="44.0115731" lon="8.0288431"><ele>375.3333333333333</ele><time>2026-05-03T16:29:13.46Z</time></trkpt><trkpt lat="44.0116053" lon="8.028954"><ele>372.66666666666663</ele><time>2026-05-03T16:29:14.459Z</time></trkpt><trkpt lat="44.0116241" lon="8.029079"><ele>370.0</ele><time>2026-05-03T16:29:15.462Z</time></trkpt><trkpt lat="44.0116166" lon="8.0292069"><ele>368.16666666666663</ele><time>2026-05-03T16:29:16.462Z</time></trkpt><trkpt lat="44.0115983" lon="8.029339"><ele>366.3333333333333</ele><time>2026-05-03T16:29:17.46Z</time></trkpt><trkpt lat="44.0115887" lon="8.0294596"><ele>364.5</ele><time>2026-05-03T16:29:18.462Z</time></trkpt><trkpt lat="44.0115821" lon="8.0295657"><ele>362.6666666666667</ele><time>2026-05-03T16:29:19.464Z</time></trkpt><trkpt lat="44.0116204" lon="8.0297044"><ele>360.83333333333337</ele><time>2026-05-03T16:29:21.46Z</time></trkpt><trkpt lat="44.011685" lon="8.0297438"><ele>359.0</ele><time>2026-05-03T16:29:22.461Z</time></trkpt><trkpt lat="44.0117678" lon="8.0297904"><ele>360.4</ele><time>2026-05-03T16:29:23.468Z</time></trkpt><trkpt lat="44.0118599" lon="8.0298542"><ele>361.79999999999995</ele><time>2026-05-03T16:29:24.459Z</time></trkpt><trkpt lat="44.0119471" lon="8.0299221"><ele>363.20000000000005</ele><time>2026-05-03T16:29:25.463Z</time></trkpt><trkpt lat="44.0120205" lon="8.030005"><ele>364.6</ele><time>2026-05-03T16:29:26.46Z</time></trkpt><trkpt lat="44.0120791" lon="8.0301064"><ele>366.0</ele><time>2026-05-03T16:29:27.463Z</time></trkpt><trkpt lat="44.012164" lon="8.0301974"><ele>366.0</ele><time>2026-05-03T16:29:28.459Z</time></trkpt><trkpt lat="44.0122485" lon="8.0302568"><ele>366.0</ele><time>2026-05-03T16:29:29.46Z</time></trkpt><trkpt lat="44.0123529" lon="8.0302959"><ele>366.0</ele><time>2026-05-03T16:29:31.46Z</time></trkpt><trkpt lat="44.0124189" lon="8.0303318"><ele>366.0</ele><time>2026-05-03T16:29:33.46Z</time></trkpt><trkpt lat="44.0124996" lon="8.0303085"><ele>366.0</ele><time>2026-05-03T16:29:36.462Z</time></trkpt><trkpt lat="44.0125535" lon="8.0301662"><ele>367.3333333333333</ele><time>2026-05-03T16:29:38.466Z</time></trkpt><trkpt lat="44.012583" lon="8.0300719"><ele>368.6666666666667</ele><time>2026-05-03T16:29:39.461Z</time></trkpt><trkpt lat="44.0126149" lon="8.0299938"><ele>370.0</ele><time>2026-05-03T16:29:40.461Z</time></trkpt><trkpt lat="44.0126623" lon="8.0298985"><ele>371.33333333333337</ele><time>2026-05-03T16:29:41.461Z</time></trkpt><trkpt lat="44.0127088" lon="8.0297732"><ele>372.6666666666667</ele><time>2026-05-03T16:29:42.464Z</time></trkpt><trkpt lat="44.0127648" lon="8.0297314"><ele>374.0</ele><time>2026-05-03T16:29:43.459Z</time></trkpt><trkpt lat="44.0128239" lon="8.0296769"><ele>379.6</ele><time>2026-05-03T16:29:44.46Z</time></trkpt><trkpt lat="44.01288" lon="8.029602"><ele>385.2</ele><time>2026-05-03T16:29:45.458Z</time></trkpt><trkpt lat="44.0129688" lon="8.0294906"><ele>390.8</ele><time>2026-05-03T16:29:47.463Z</time></trkpt><trkpt lat="44.013048" lon="8.0294356"><ele>396.40000000000003</ele><time>2026-05-03T16:29:48.461Z</time></trkpt><trkpt lat="44.0131375" lon="8.0293876"><ele>402.0</ele><time>2026-05-03T16:29:49.461Z</time></trkpt><trkpt lat="44.0132155" lon="8.0293259"><ele>402.0</ele><time>2026-05-03T16:29:50.463Z</time></trkpt><trkpt lat="44.0132857" lon="8.0292395"><ele>402.0</ele><time>2026-05-03T16:29:51.465Z</time></trkpt><trkpt lat="44.0133631" lon="8.0292307"><ele>402.0</ele><time>2026-05-03T16:29:52.46Z</time></trkpt><trkpt lat="44.0134232" lon="8.0291985"><ele>402.0</ele><time>2026-05-03T16:29:53.457Z</time></trkpt><trkpt lat="44.0134985" lon="8.0291371"><ele>402.0</ele><time>2026-05-03T16:29:54.456Z</time></trkpt><trkpt lat="44.0135399" lon="8.029009"><ele>402.0</ele><time>2026-05-03T16:29:56.462Z</time></trkpt><trkpt lat="44.0135691" lon="8.028892"><ele>402.20000000000005</ele><time>2026-05-03T16:29:57.467Z</time></trkpt><trkpt lat="44.0136041" lon="8.0287934"><ele>402.4</ele><time>2026-05-03T16:29:58.462Z</time></trkpt><trkpt lat="44.0136632" lon="8.028636"><ele>402.6</ele><time>2026-05-03T16:30:00.459Z</time></trkpt><trkpt lat="44.0137096" lon="8.0285675"><ele>402.79999999999995</ele><time>2026-05-03T16:30:01.458Z</time></trkpt><trkpt lat="44.0137603" lon="8.0284842"><ele>403.0</ele><time>2026-05-03T16:30:02.465Z</time></trkpt><trkpt lat="44.0138581" lon="8.0283916"><ele>403.0</ele><time>2026-05-03T16:30:03.459Z</time></trkpt><trkpt lat="44.0139352" lon="8.0283393"><ele>403.0</ele><time>2026-05-03T16:30:04.462Z</time></trkpt><trkpt lat="44.0140052" lon="8.0281959"><ele>403.0</ele><time>2026-05-03T16:30:06.464Z</time></trkpt><trkpt lat="44.0140783" lon="8.0281302"><ele>403.0</ele><time>2026-05-03T16:30:07.46Z</time></trkpt><trkpt lat="44.0141715" lon="8.028124"><ele>403.0</ele><time>2026-05-03T16:30:08.459Z</time></trkpt><trkpt lat="44.0142583" lon="8.0280821"><ele>404.79999999999995</ele><time>2026-05-03T16:30:09.467Z</time></trkpt><trkpt lat="44.0143252" lon="8.0280711"><ele>406.6</ele><time>2026-05-03T16:30:10.461Z</time></trkpt><trkpt lat="44.0144315" lon="8.0279794"><ele>408.4</ele><time>2026-05-03T16:30:12.476Z</time></trkpt><trkpt lat="44.0145185" lon="8.027942"><ele>410.20000000000005</ele><time>2026-05-03T16:30:14.459Z</time></trkpt><trkpt lat="44.0146765" lon="8.0280044"><ele>412.0</ele><time>2026-05-03T16:30:17.463Z</time></trkpt><trkpt lat="44.0147044" lon="8.0281457"><ele>412.0</ele><time>2026-05-03T16:30:18.462Z</time></trkpt><trkpt lat="44.0147339" lon="8.0282433"><ele>412.0</ele><time>2026-05-03T16:30:19.461Z</time></trkpt><trkpt lat="44.0147075" lon="8.0284004"><ele>412.0</ele><time>2026-05-03T16:30:20.466Z</time></trkpt><trkpt lat="44.0146919" lon="8.0285498"><ele>412.0</ele><time>2026-05-03T16:30:22.461Z</time></trkpt><trkpt lat="44.0146868" lon="8.0286699"><ele>412.0</ele><time>2026-05-03T16:30:23.461Z</time></trkpt><trkpt lat="44.0147337" lon="8.0287607"><ele>406.83333333333337</ele><time>2026-05-03T16:30:24.463Z</time></trkpt><trkpt lat="44.0147734" lon="8.0288392"><ele>401.6666666666667</ele><time>2026-05-03T16:30:25.46Z</time></trkpt><trkpt lat="44.01483" lon="8.0288844"><ele>396.5</ele><time>2026-05-03T16:30:26.467Z</time></trkpt><trkpt lat="44.0148691" lon="8.0289858"><ele>391.33333333333337</ele><time>2026-05-03T16:30:29.46Z</time></trkpt><trkpt lat="44.0148379" lon="8.0290844"><ele>386.1666666666667</ele><time>2026-05-03T16:30:31.46Z</time></trkpt><trkpt lat="44.0148409" lon="8.0292274"><ele>381.0</ele><time>2026-05-03T16:30:33.458Z</time></trkpt><trkpt lat="44.01484" lon="8.029315"><ele>380.20000000000005</ele><time>2026-05-03T16:30:34.462Z</time></trkpt><trkpt lat="44.0149166" lon="8.029472"><ele>379.40000000000003</ele><time>2026-05-03T16:30:36.465Z</time></trkpt><trkpt lat="44.0149948" lon="8.0295845"><ele>378.6</ele><time>2026-05-03T16:30:37.461Z</time></trkpt><trkpt lat="44.0150574" lon="8.029682"><ele>377.8</ele><time>2026-05-03T16:30:38.459Z</time></trkpt><trkpt lat="44.0151212" lon="8.0297638"><ele>377.0</ele><time>2026-05-03T16:30:39.467Z</time></trkpt><trkpt lat="44.0151457" lon="8.0298691"><ele>377.0</ele><time>2026-05-03T16:30:40.458Z</time></trkpt><trkpt lat="44.0151922" lon="8.029974"><ele>377.0</ele><time>2026-05-03T16:30:41.46Z</time></trkpt><trkpt lat="44.0152271" lon="8.0300865"><ele>377.0</ele><time>2026-05-03T16:30:42.459Z</time></trkpt><trkpt lat="44.0152787" lon="8.0302581"><ele>377.0</ele><time>2026-05-03T16:30:44.461Z</time></trkpt><trkpt lat="44.0153115" lon="8.0303343"><ele>377.0</ele><time>2026-05-03T16:30:45.461Z</time></trkpt><trkpt lat="44.0153451" lon="8.0304561"><ele>372.25</ele><time>2026-05-03T16:30:47.459Z</time></trkpt><trkpt lat="44.0153293" lon="8.0307713"><ele>367.5</ele><time>2026-05-03T16:31:04.464Z</time></trkpt><trkpt lat="44.0153054" lon="8.0309153"><ele>362.75</ele><time>2026-05-03T16:31:05.466Z</time></trkpt><trkpt lat="44.0152959" lon="8.0310418"><ele>358.0</ele><time>2026-05-03T16:31:06.462Z</time></trkpt><trkpt lat="44.0152845" lon="8.0311551"><ele>356.5</ele><time>2026-05-03T16:31:07.458Z</time></trkpt><trkpt lat="44.015295" lon="8.0313081"><ele>355.0</ele><time>2026-05-03T16:31:08.46Z</time></trkpt><trkpt lat="44.0153036" lon="8.0314443"><ele>353.5</ele><time>2026-05-03T16:31:09.46Z</time></trkpt><trkpt lat="44.0153179" lon="8.0315614"><ele>352.0</ele><time>2026-05-03T16:31:10.46Z</time></trkpt><trkpt lat="44.0153272" lon="8.0316566"><ele>350.5</ele><time>2026-05-03T16:31:11.46Z</time></trkpt><trkpt lat="44.015345" lon="8.0317584"><ele>349.0</ele><time>2026-05-03T16:31:12.463Z</time></trkpt><trkpt lat="44.0153739" lon="8.0318381"><ele>347.4</ele><time>2026-05-03T16:31:13.458Z</time></trkpt><trkpt lat="44.0154357" lon="8.0319784"><ele>345.79999999999995</ele><time>2026-05-03T16:31:15.462Z</time></trkpt><trkpt lat="44.0155294" lon="8.032161"><ele>344.20000000000005</ele><time>2026-05-03T16:31:17.462Z</time></trkpt><trkpt lat="44.0155801" lon="8.032238"><ele>342.6</ele><time>2026-05-03T16:31:18.462Z</time></trkpt><trkpt lat="44.0156337" lon="8.0322954"><ele>341.0</ele><time>2026-05-03T16:31:19.459Z</time></trkpt><trkpt lat="44.015686" lon="8.0323538"><ele>341.0</ele><time>2026-05-03T16:31:20.46Z</time></trkpt><trkpt lat="44.0157433" lon="8.0324083"><ele>341.0</ele><time>2026-05-03T16:31:21.459Z</time></trkpt><trkpt lat="44.0158758" lon="8.0324182"><ele>341.0</ele><time>2026-05-03T16:31:23.459Z</time></trkpt><trkpt lat="44.0159414" lon="8.0324205"><ele>341.0</ele><time>2026-05-03T16:31:24.46Z</time></trkpt><trkpt lat="44.016019" lon="8.0323782"><ele>341.0</ele><time>2026-05-03T16:31:25.459Z</time></trkpt><trkpt lat="44.0161067" lon="8.0323454"><ele>341.0</ele><time>2026-05-03T16:31:26.461Z</time></trkpt><trkpt lat="44.0161743" lon="8.0323118"><ele>346.1666666666667</ele><time>2026-05-03T16:31:27.461Z</time></trkpt><trkpt lat="44.0162371" lon="8.0322907"><ele>351.33333333333337</ele><time>2026-05-03T16:31:28.462Z</time></trkpt><trkpt lat="44.0162982" lon="8.0322692"><ele>356.5</ele><time>2026-05-03T16:31:29.461Z</time></trkpt><trkpt lat="44.0163969" lon="8.0321653"><ele>361.6666666666667</ele><time>2026-05-03T16:31:31.461Z</time></trkpt><trkpt lat="44.0164345" lon="8.0320688"><ele>366.8333333333333</ele><time>2026-05-03T16:31:32.461Z</time></trkpt><trkpt lat="44.0164808" lon="8.0319911"><ele>372.0</ele><time>2026-05-03T16:31:33.461Z</time></trkpt><trkpt lat="44.0165422" lon="8.0318688"><ele>371.0</ele><time>2026-05-03T16:31:35.463Z</time></trkpt><trkpt lat="44.016675" lon="8.0318512"><ele>370.0</ele><time>2026-05-03T16:31:37.469Z</time></trkpt><trkpt lat="44.0167558" lon="8.0318468"><ele>369.0</ele><time>2026-05-03T16:31:38.459Z</time></trkpt><trkpt lat="44.0168215" lon="8.031865"><ele>368.0</ele><time>2026-05-03T16:31:39.457Z</time></trkpt><trkpt lat="44.0169022" lon="8.0318731"><ele>367.0</ele><time>2026-05-03T16:31:40.46Z</time></trkpt><trkpt lat="44.0169693" lon="8.0318747"><ele>366.0</ele><time>2026-05-03T16:31:41.459Z</time></trkpt><trkpt lat="44.0170451" lon="8.0318228"><ele>366.0</ele><time>2026-05-03T16:31:42.461Z</time></trkpt><trkpt lat="44.0171003" lon="8.03178"><ele>366.0</ele><time>2026-05-03T16:31:43.464Z</time></trkpt><trkpt lat="44.017162" lon="8.0317542"><ele>366.0</ele><time>2026-05-03T16:31:44.461Z</time></trkpt><trkpt lat="44.0172755" lon="8.0315639"><ele>366.0</ele><time>2026-05-03T16:31:46.463Z</time></trkpt><trkpt lat="44.0173424" lon="8.0315045"><ele>366.0</ele><time>2026-05-03T16:31:47.465Z</time></trkpt><trkpt lat="44.0174213" lon="8.0314563"><ele>370.6</ele><time>2026-05-03T16:31:48.46Z</time></trkpt><trkpt lat="44.0175114" lon="8.0313443"><ele>375.20000000000005</ele><time>2026-05-03T16:31:50.461Z</time></trkpt><trkpt lat="44.0175715" lon="8.031236"><ele>379.79999999999995</ele><time>2026-05-03T16:31:51.46Z</time></trkpt><trkpt lat="44.0176183" lon="8.0311458"><ele>384.4</ele><time>2026-05-03T16:31:52.462Z</time></trkpt><trkpt lat="44.0176623" lon="8.0310659"><ele>389.0</ele><time>2026-05-03T16:31:53.462Z</time></trkpt><trkpt lat="44.0177331" lon="8.030966"><ele>389.0</ele><time>2026-05-03T16:31:55.461Z</time></trkpt><trkpt lat="44.0178658" lon="8.0309012"><ele>389.0</ele><time>2026-05-03T16:31:57.463Z</time></trkpt><trkpt lat="44.0179626" lon="8.0309516"><ele>389.0</ele><time>2026-05-03T16:31:59.462Z</time></trkpt><trkpt lat="44.0179984" lon="8.0310586"><ele>389.0</ele><time>2026-05-03T16:32:01.471Z</time></trkpt><trkpt lat="44.0179996" lon="8.0312313"><ele>388.99999999999994</ele><time>2026-05-03T16:32:03.462Z</time></trkpt><trkpt lat="44.0180082" lon="8.031392"><ele>389.0</ele><time>2026-05-03T16:32:05.459Z</time></trkpt><trkpt lat="44.0180338" lon="8.0315039"><ele>389.0</ele><time>2026-05-03T16:32:07.46Z</time></trkpt><trkpt lat="44.0180119" lon="8.0316256"><ele>389.0</ele><time>2026-05-03T16:32:09.456Z</time></trkpt><trkpt lat="44.0180001" lon="8.0317135"><ele>388.99999999999994</ele><time>2026-05-03T16:32:10.461Z</time></trkpt><trkpt lat="44.017985" lon="8.0318126"><ele>389.0</ele><time>2026-05-03T16:32:11.464Z</time></trkpt><trkpt lat="44.0179816" lon="8.0319358"><ele>382.99999999999994</ele><time>2026-05-03T16:32:12.463Z</time></trkpt><trkpt lat="44.017988" lon="8.0320475"><ele>377.0</ele><time>2026-05-03T16:32:13.464Z</time></trkpt><trkpt lat="44.0179942" lon="8.0321619"><ele>371.0</ele><time>2026-05-03T16:32:14.464Z</time></trkpt><trkpt lat="44.0179938" lon="8.0322667"><ele>365.0</ele><time>2026-05-03T16:32:15.462Z</time></trkpt><trkpt lat="44.0179921" lon="8.0323785"><ele>359.0</ele><time>2026-05-03T16:32:16.46Z</time></trkpt><trkpt lat="44.017989" lon="8.0324908"><ele>353.0</ele><time>2026-05-03T16:32:17.461Z</time></trkpt><trkpt lat="44.0179515" lon="8.0325948"><ele>349.0</ele><time>2026-05-03T16:32:18.462Z</time></trkpt><trkpt lat="44.0179204" lon="8.0327074"><ele>345.0</ele><time>2026-05-03T16:32:19.459Z</time></trkpt><trkpt lat="44.0178954" lon="8.0328021"><ele>341.0</ele><time>2026-05-03T16:32:20.461Z</time></trkpt><trkpt lat="44.0178759" lon="8.0329091"><ele>337.0</ele><time>2026-05-03T16:32:21.46Z</time></trkpt><trkpt lat="44.0178677" lon="8.0330114"><ele>333.0</ele><time>2026-05-03T16:32:22.46Z</time></trkpt><trkpt lat="44.0178595" lon="8.0331434"><ele>329.0</ele><time>2026-05-03T16:32:24.459Z</time></trkpt><trkpt lat="44.0178147" lon="8.0332973"><ele>328.2</ele><time>2026-05-03T16:32:40.462Z</time></trkpt><trkpt lat="44.0178051" lon="8.033399"><ele>327.4</ele><time>2026-05-03T16:32:41.463Z</time></trkpt><trkpt lat="44.0178176" lon="8.0334997"><ele>326.6</ele><time>2026-05-03T16:32:42.462Z</time></trkpt><trkpt lat="44.0178732" lon="8.0336303"><ele>325.8</ele><time>2026-05-03T16:32:44.461Z</time></trkpt><trkpt lat="44.0179177" lon="8.0337905"><ele>325.0</ele><time>2026-05-03T16:32:46.463Z</time></trkpt><trkpt lat="44.0179063" lon="8.0339217"><ele>325.0</ele><time>2026-05-03T16:32:48.46Z</time></trkpt><trkpt lat="44.0178138" lon="8.034055"><ele>325.0</ele><time>2026-05-03T16:32:50.459Z</time></trkpt><trkpt lat="44.0177916" lon="8.034162"><ele>325.0</ele><time>2026-05-03T16:32:51.458Z</time></trkpt><trkpt lat="44.0177644" lon="8.0342783"><ele>325.0</ele><time>2026-05-03T16:32:52.464Z</time></trkpt><trkpt lat="44.017777" lon="8.034382"><ele>325.0</ele><time>2026-05-03T16:32:53.458Z</time></trkpt><trkpt lat="44.0177584" lon="8.0344992"><ele>325.0</ele><time>2026-05-03T16:32:54.458Z</time></trkpt><trkpt lat="44.0177233" lon="8.0346137"><ele>325.0</ele><time>2026-05-03T16:32:55.459Z</time></trkpt><trkpt lat="44.0176805" lon="8.0347849"><ele>325.0</ele><time>2026-05-03T16:32:57.461Z</time></trkpt><trkpt lat="44.0176895" lon="8.0349214"><ele>325.0</ele><time>2026-05-03T16:32:59.462Z</time></trkpt><trkpt lat="44.0177233" lon="8.0350039"><ele>325.0</ele><time>2026-05-03T16:33:00.464Z</time></trkpt><trkpt lat="44.0177675" lon="8.0350821"><ele>325.0</ele><time>2026-05-03T16:33:01.46Z</time></trkpt><trkpt lat="44.0178247" lon="8.035213"><ele>325.0</ele><time>2026-05-03T16:33:03.461Z</time></trkpt><trkpt lat="44.0178765" lon="8.0353398"><ele>325.0</ele><time>2026-05-03T16:33:05.466Z</time></trkpt><trkpt lat="44.0179299" lon="8.0354394"><ele>325.0</ele><time>2026-05-03T16:33:07.46Z</time></trkpt><trkpt lat="44.018001" lon="8.0355329"><ele>325.0</ele><time>2026-05-03T16:33:09.461Z</time></trkpt><trkpt lat="44.0180442" lon="8.0356062"><ele>325.0</ele><time>2026-05-03T16:33:11.463Z</time></trkpt><trkpt lat="44.0179645" lon="8.0356095"><ele>325.0</ele><time>2026-05-03T16:33:16.457Z</time></trkpt><trkpt lat="44.017872" lon="8.0355353"><ele>325.0</ele><time>2026-05-03T16:33:18.461Z</time></trkpt><trkpt lat="44.0177661" lon="8.0354375"><ele>325.0</ele><time>2026-05-03T16:33:20.459Z</time></trkpt><trkpt lat="44.0177253" lon="8.0353555"><ele>325.0</ele><time>2026-05-03T16:33:21.458Z</time></trkpt><trkpt lat="44.0176868" lon="8.0352711"><ele>325.0</ele><time>2026-05-03T16:33:22.459Z</time></trkpt><trkpt lat="44.0176429" lon="8.0352015"><ele>325.0</ele><time>2026-05-03T16:33:23.461Z</time></trkpt><trkpt lat="44.017569" lon="8.0350688"><ele>325.0</ele><time>2026-05-03T16:33:25.461Z</time></trkpt><trkpt lat="44.0175311" lon="8.0349821"><ele>325.0</ele><time>2026-05-03T16:33:26.462Z</time></trkpt><trkpt lat="44.017514" lon="8.0348976"><ele>325.0</ele><time>2026-05-03T16:33:27.459Z</time></trkpt><trkpt lat="44.0175332" lon="8.0347583"><ele>325.0</ele><time>2026-05-03T16:33:29.463Z</time></trkpt><trkpt lat="44.0175864" lon="8.0346171"><ele>325.0</ele><time>2026-05-03T16:33:31.464Z</time></trkpt><trkpt lat="44.0176131" lon="8.0344638"><ele>325.0</ele><time>2026-05-03T16:33:33.462Z</time></trkpt><trkpt lat="44.0175826" lon="8.0343016"><ele>325.0</ele><time>2026-05-03T16:33:35.458Z</time></trkpt><trkpt lat="44.017527" lon="8.0341752"><ele>325.0</ele><time>2026-05-03T16:33:37.462Z</time></trkpt><trkpt lat="44.0175324" lon="8.0340693"><ele>325.0</ele><time>2026-05-03T16:33:39.462Z</time></trkpt><trkpt lat="44.0175233" lon="8.0339519"><ele>320.5</ele><time>2026-05-03T16:33:41.459Z</time></trkpt><trkpt lat="44.0174565" lon="8.0337993"><ele>316.0</ele><time>2026-05-03T16:33:43.461Z</time></trkpt><trkpt lat="44.0173739" lon="8.0336776"><ele>311.5</ele><time>2026-05-03T16:33:45.459Z</time></trkpt><trkpt lat="44.0173127" lon="8.03355"><ele>307.0</ele><time>2026-05-03T16:33:47.463Z</time></trkpt><trkpt lat="44.0173107" lon="8.0334104"><ele>312.0</ele><time>2026-05-03T16:33:49.464Z</time></trkpt><trkpt lat="44.0173523" lon="8.0332983"><ele>317.0</ele><time>2026-05-03T16:33:51.461Z</time></trkpt><trkpt lat="44.0173822" lon="8.0331275"><ele>322.0</ele><time>2026-05-03T16:33:53.467Z</time></trkpt><trkpt lat="44.0173865" lon="8.0330174"><ele>327.0</ele><time>2026-05-03T16:33:54.46Z</time></trkpt><trkpt lat="44.0173926" lon="8.0329255"><ele>332.0</ele><time>2026-05-03T16:33:55.457Z</time></trkpt><trkpt lat="44.0174118" lon="8.0328371"><ele>337.0</ele><time>2026-05-03T16:33:56.459Z</time></trkpt><trkpt lat="44.0174447" lon="8.0326781"><ele>335.66666666666663</ele><time>2026-05-03T16:33:58.458Z</time></trkpt><trkpt lat="44.0174866" lon="8.0326116"><ele>334.3333333333333</ele><time>2026-05-03T16:33:59.464Z</time></trkpt><trkpt lat="44.0175172" lon="8.0324933"><ele>333.0</ele><time>2026-05-03T16:34:01.46Z</time></trkpt><trkpt lat="44.0175118" lon="8.0323733"><ele>331.6666666666667</ele><time>2026-05-03T16:34:03.458Z</time></trkpt><trkpt lat="44.0174811" lon="8.0322572"><ele>330.33333333333337</ele><time>2026-05-03T16:34:05.461Z</time></trkpt><trkpt lat="44.0174205" lon="8.0321944"><ele>329.0</ele><time>2026-05-03T16:34:07.46Z</time></trkpt><trkpt lat="44.0173481" lon="8.0321834"><ele>330.6</ele><time>2026-05-03T16:34:09.462Z</time></trkpt><trkpt lat="44.0172211" lon="8.0323046"><ele>332.2</ele><time>2026-05-03T16:34:12.459Z</time></trkpt><trkpt lat="44.0171766" lon="8.0323708"><ele>333.8</ele><time>2026-05-03T16:34:13.463Z</time></trkpt><trkpt lat="44.0170737" lon="8.0324859"><ele>335.40000000000003</ele><time>2026-05-03T16:34:15.459Z</time></trkpt><trkpt lat="44.0170269" lon="8.0325525"><ele>337.0</ele><time>2026-05-03T16:34:16.46Z</time></trkpt><trkpt lat="44.0169601" lon="8.0325362"><ele>337.0</ele><time>2026-05-03T16:34:17.46Z</time></trkpt><trkpt lat="44.016898" lon="8.0325657"><ele>337.0</ele><time>2026-05-03T16:34:18.459Z</time></trkpt><trkpt lat="44.0168117" lon="8.0326666"><ele>337.0</ele><time>2026-05-03T16:34:20.462Z</time></trkpt><trkpt lat="44.0167439" lon="8.032812"><ele>337.0</ele><time>2026-05-03T16:34:22.461Z</time></trkpt><trkpt lat="44.0166577" lon="8.0328238"><ele>337.0</ele><time>2026-05-03T16:34:24.457Z</time></trkpt><trkpt lat="44.0165773" lon="8.0329129"><ele>335.0</ele><time>2026-05-03T16:34:26.459Z</time></trkpt><trkpt lat="44.0164945" lon="8.0329874"><ele>333.0</ele><time>2026-05-03T16:34:28.46Z</time></trkpt><trkpt lat="44.0164073" lon="8.0330908"><ele>331.0</ele><time>2026-05-03T16:34:30.463Z</time></trkpt><trkpt lat="44.016332" lon="8.0332155"><ele>329.0</ele><time>2026-05-03T16:34:32.466Z</time></trkpt><trkpt lat="44.0162924" lon="8.033307"><ele>327.0</ele><time>2026-05-03T16:34:33.46Z</time></trkpt><trkpt lat="44.0162275" lon="8.0333879"><ele>327.0</ele><time>2026-05-03T16:34:34.462Z</time></trkpt><trkpt lat="44.0161831" lon="8.0335441"><ele>327.0</ele><time>2026-05-03T16:34:36.461Z</time></trkpt><trkpt lat="44.0161326" lon="8.0335997"><ele>327.0</ele><time>2026-05-03T16:34:37.461Z</time></trkpt><trkpt lat="44.0160621" lon="8.0337072"><ele>327.0</ele><time>2026-05-03T16:34:39.463Z</time></trkpt><trkpt lat="44.0160038" lon="8.033789"><ele>327.0</ele><time>2026-05-03T16:34:40.463Z</time></trkpt><trkpt lat="44.0159566" lon="8.033865"><ele>327.0</ele><time>2026-05-03T16:34:41.463Z</time></trkpt><trkpt lat="44.0158362" lon="8.0339527"><ele>324.6666666666667</ele><time>2026-05-03T16:34:43.462Z</time></trkpt><trkpt lat="44.0157667" lon="8.0340837"><ele>322.3333333333333</ele><time>2026-05-03T16:34:45.46Z</time></trkpt><trkpt lat="44.0157092" lon="8.0341239"><ele>320.0</ele><time>2026-05-03T16:34:46.462Z</time></trkpt><trkpt lat="44.0156547" lon="8.0341855"><ele>317.66666666666663</ele><time>2026-05-03T16:34:47.462Z</time></trkpt><trkpt lat="44.015599" lon="8.0342571"><ele>315.3333333333333</ele><time>2026-05-03T16:34:48.466Z</time></trkpt><trkpt lat="44.015532" lon="8.0343827"><ele>313.0</ele><time>2026-05-03T16:34:50.466Z</time></trkpt><trkpt lat="44.0154663" lon="8.0344582"><ele>309.0</ele><time>2026-05-03T16:34:52.463Z</time></trkpt><trkpt lat="44.0153718" lon="8.0344708"><ele>305.0</ele><time>2026-05-03T16:34:54.458Z</time></trkpt><trkpt lat="44.0152733" lon="8.03445"><ele>301.0</ele><time>2026-05-03T16:34:56.466Z</time></trkpt><trkpt lat="44.0151592" lon="8.0344013"><ele>297.0</ele><time>2026-05-03T16:34:58.461Z</time></trkpt><trkpt lat="44.0150624" lon="8.0343267"><ele>293.0</ele><time>2026-05-03T16:35:00.47Z</time></trkpt><trkpt lat="44.0150139" lon="8.0342579"><ele>290.4</ele><time>2026-05-03T16:35:01.459Z</time></trkpt><trkpt lat="44.0149511" lon="8.0341381"><ele>287.8</ele><time>2026-05-03T16:35:03.46Z</time></trkpt><trkpt lat="44.0148887" lon="8.0340842"><ele>285.2</ele><time>2026-05-03T16:35:04.462Z</time></trkpt><trkpt lat="44.0148016" lon="8.0339929"><ele>282.6</ele><time>2026-05-03T16:35:06.459Z</time></trkpt><trkpt lat="44.0147356" lon="8.0338747"><ele>280.0</ele><time>2026-05-03T16:35:08.465Z</time></trkpt><trkpt lat="44.0146651" lon="8.0337919"><ele>280.0</ele><time>2026-05-03T16:35:10.469Z</time></trkpt><trkpt lat="44.0146188" lon="8.0336921"><ele>280.0</ele><time>2026-05-03T16:35:12.46Z</time></trkpt><trkpt lat="44.0145536" lon="8.0335732"><ele>280.0</ele><time>2026-05-03T16:35:14.462Z</time></trkpt><trkpt lat="44.0144718" lon="8.0334661"><ele>280.0</ele><time>2026-05-03T16:35:16.464Z</time></trkpt><trkpt lat="44.014409" lon="8.0333772"><ele>280.0</ele><time>2026-05-03T16:35:18.464Z</time></trkpt><trkpt lat="44.0143259" lon="8.0333285"><ele>280.0</ele><time>2026-05-03T16:35:20.464Z</time></trkpt><trkpt lat="44.014234" lon="8.033324"><ele>280.0</ele><time>2026-05-03T16:35:22.463Z</time></trkpt><trkpt lat="44.0141469" lon="8.0332808"><ele>280.0</ele><time>2026-05-03T16:35:24.456Z</time></trkpt><trkpt lat="44.0140722" lon="8.0332232"><ele>280.0</ele><time>2026-05-03T16:35:26.46Z</time></trkpt><trkpt lat="44.0140167" lon="8.0331665"><ele>280.0</ele><time>2026-05-03T16:35:28.461Z</time></trkpt><trkpt lat="44.0139616" lon="8.0331005"><ele>280.0</ele><time>2026-05-03T16:35:30.463Z</time></trkpt><trkpt lat="44.0139194" lon="8.0330287"><ele>278.66666666666663</ele><time>2026-05-03T16:35:32.466Z</time></trkpt><trkpt lat="44.0138574" lon="8.0330016"><ele>277.3333333333333</ele><time>2026-05-03T16:35:34.464Z</time></trkpt><trkpt lat="44.0138227" lon="8.0330987"><ele>276.0</ele><time>2026-05-03T16:35:36.463Z</time></trkpt><trkpt lat="44.0138569" lon="8.0332027"><ele>274.6666666666667</ele><time>2026-05-03T16:35:38.459Z</time></trkpt><trkpt lat="44.0138824" lon="8.0332878"><ele>273.33333333333337</ele><time>2026-05-03T16:35:40.465Z</time></trkpt><trkpt lat="44.013927" lon="8.0333891"><ele>272.0</ele><time>2026-05-03T16:35:42.459Z</time></trkpt><trkpt lat="44.0139793" lon="8.0334797"><ele>273.33333333333337</ele><time>2026-05-03T16:35:44.463Z</time></trkpt><trkpt lat="44.014029" lon="8.0335687"><ele>274.6666666666667</ele><time>2026-05-03T16:35:46.459Z</time></trkpt><trkpt lat="44.0140847" lon="8.033638"><ele>276.0</ele><time>2026-05-03T16:35:48.461Z</time></trkpt><trkpt lat="44.0141511" lon="8.0336807"><ele>277.3333333333333</ele><time>2026-05-03T16:35:50.459Z</time></trkpt><trkpt lat="44.0142082" lon="8.0337473"><ele>278.66666666666663</ele><time>2026-05-03T16:35:52.464Z</time></trkpt><trkpt lat="44.0142492" lon="8.0338595"><ele>280.0</ele><time>2026-05-03T16:35:54.462Z</time></trkpt><trkpt lat="44.0142644" lon="8.0339635"><ele>280.0</ele><time>2026-05-03T16:35:56.46Z</time></trkpt><trkpt lat="44.014273" lon="8.0340568"><ele>280.0</ele><time>2026-05-03T16:35:58.462Z</time></trkpt><trkpt lat="44.0143017" lon="8.0341399"><ele>280.0</ele><time>2026-05-03T16:36:00.463Z</time></trkpt><trkpt lat="44.0143555" lon="8.0342534"><ele>280.0</ele><time>2026-05-03T16:36:02.461Z</time></trkpt><trkpt lat="44.0144162" lon="8.0343628"><ele>280.0</ele><time>2026-05-03T16:36:04.464Z</time></trkpt><trkpt lat="44.0144769" lon="8.0344591"><ele>280.0</ele><time>2026-05-03T16:36:06.461Z</time></trkpt><trkpt lat="44.0145202" lon="8.0345294"><ele>276.6</ele><time>2026-05-03T16:36:07.465Z</time></trkpt><trkpt lat="44.0145704" lon="8.0346005"><ele>273.2</ele><time>2026-05-03T16:36:08.463Z</time></trkpt><trkpt lat="44.0146145" lon="8.0346707"><ele>269.8</ele><time>2026-05-03T16:36:09.462Z</time></trkpt><trkpt lat="44.0146914" lon="8.0348069"><ele>266.4</ele><time>2026-05-03T16:36:11.465Z</time></trkpt><trkpt lat="44.0147811" lon="8.0349212"><ele>263.0</ele><time>2026-05-03T16:36:13.461Z</time></trkpt><trkpt lat="44.0148595" lon="8.0350237"><ele>263.5</ele><time>2026-05-03T16:36:15.46Z</time></trkpt><trkpt lat="44.0148953" lon="8.0351093"><ele>264.0</ele><time>2026-05-03T16:36:16.466Z</time></trkpt><trkpt lat="44.0149502" lon="8.0351557"><ele>264.5</ele><time>2026-05-03T16:36:17.457Z</time></trkpt><trkpt lat="44.0150048" lon="8.0352188"><ele>265.0</ele><time>2026-05-03T16:36:18.46Z</time></trkpt><trkpt lat="44.0151123" lon="8.03529"><ele>265.5</ele><time>2026-05-03T16:36:20.46Z</time></trkpt><trkpt lat="44.0152207" lon="8.0353525"><ele>266.0</ele><time>2026-05-03T16:36:22.462Z</time></trkpt><trkpt lat="44.0152919" lon="8.0353434"><ele>266.0</ele><time>2026-05-03T16:36:23.459Z</time></trkpt><trkpt lat="44.0153756" lon="8.035336"><ele>266.0</ele><time>2026-05-03T16:36:24.464Z</time></trkpt><trkpt lat="44.0154439" lon="8.0353294"><ele>266.0</ele><time>2026-05-03T16:36:25.462Z</time></trkpt><trkpt lat="44.0155563" lon="8.0352859"><ele>266.0</ele><time>2026-05-03T16:36:27.462Z</time></trkpt><trkpt lat="44.0156531" lon="8.0352549"><ele>266.0</ele><time>2026-05-03T16:36:29.459Z</time></trkpt><trkpt lat="44.0157643" lon="8.0351524"><ele>267.2</ele><time>2026-05-03T16:36:31.46Z</time></trkpt><trkpt lat="44.0158333" lon="8.0351199"><ele>268.40000000000003</ele><time>2026-05-03T16:36:32.46Z</time></trkpt><trkpt lat="44.0159015" lon="8.0350875"><ele>269.6</ele><time>2026-05-03T16:36:34.46Z</time></trkpt><trkpt lat="44.015984" lon="8.0350082"><ele>270.8</ele><time>2026-05-03T16:36:36.464Z</time></trkpt><trkpt lat="44.0160833" lon="8.0349474"><ele>272.0</ele><time>2026-05-03T16:36:38.463Z</time></trkpt><trkpt lat="44.0161655" lon="8.0348475"><ele>272.0</ele><time>2026-05-03T16:36:40.46Z</time></trkpt><trkpt lat="44.0161849" lon="8.0347457"><ele>272.0</ele><time>2026-05-03T16:36:42.46Z</time></trkpt><trkpt lat="44.016239" lon="8.0346546"><ele>272.0</ele><time>2026-05-03T16:36:45.463Z</time></trkpt><trkpt lat="44.0163319" lon="8.0348287"><ele>272.0</ele><time>2026-05-03T16:36:49.461Z</time></trkpt><trkpt lat="44.0163261" lon="8.0349209"><ele>272.0</ele><time>2026-05-03T16:36:51.461Z</time></trkpt><trkpt lat="44.0162882" lon="8.0350515"><ele>272.0</ele><time>2026-05-03T16:36:53.461Z</time></trkpt><trkpt lat="44.0162646" lon="8.0351373"><ele>272.0</ele><time>2026-05-03T16:36:54.461Z</time></trkpt><trkpt lat="44.0162394" lon="8.0352715"><ele>272.0</ele><time>2026-05-03T16:36:56.461Z</time></trkpt><trkpt lat="44.0162069" lon="8.0354075"><ele>272.0</ele><time>2026-05-03T16:36:58.462Z</time></trkpt><trkpt lat="44.0161834" lon="8.0355519"><ele>272.0</ele><time>2026-05-03T16:37:00.463Z</time></trkpt><trkpt lat="44.0161808" lon="8.0357112"><ele>268.1666666666667</ele><time>2026-05-03T16:37:02.462Z</time></trkpt><trkpt lat="44.0161878" lon="8.0358039"><ele>264.33333333333337</ele><time>2026-05-03T16:37:03.463Z</time></trkpt><trkpt lat="44.0161633" lon="8.0358943"><ele>260.5</ele><time>2026-05-03T16:37:04.467Z</time></trkpt><trkpt lat="44.0161269" lon="8.0360609"><ele>256.6666666666667</ele><time>2026-05-03T16:37:06.462Z</time></trkpt><trkpt lat="44.0161199" lon="8.0362023"><ele>252.83333333333334</ele><time>2026-05-03T16:37:08.458Z</time></trkpt><trkpt lat="44.0161219" lon="8.0363115"><ele>249.0</ele><time>2026-05-03T16:37:10.461Z</time></trkpt><trkpt lat="44.0161368" lon="8.0364477"><ele>249.0</ele><time>2026-05-03T16:37:13.465Z</time></trkpt><trkpt lat="44.0161375" lon="8.0365479"><ele>248.99999999999997</ele><time>2026-05-03T16:37:15.467Z</time></trkpt><trkpt lat="44.0161496" lon="8.0366678"><ele>248.99999999999997</ele><time>2026-05-03T16:37:17.462Z</time></trkpt><trkpt lat="44.0161331" lon="8.0368029"><ele>249.0</ele><time>2026-05-03T16:37:19.462Z</time></trkpt><trkpt lat="44.0161374" lon="8.0369446"><ele>249.0</ele><time>2026-05-03T16:37:21.462Z</time></trkpt><trkpt lat="44.016175" lon="8.0370634"><ele>246.7142857142857</ele><time>2026-05-03T16:37:23.461Z</time></trkpt><trkpt lat="44.0162231" lon="8.0371208"><ele>244.4285714285714</ele><time>2026-05-03T16:37:25.46Z</time></trkpt><trkpt lat="44.0163085" lon="8.0371916"><ele>242.14285714285714</ele><time>2026-05-03T16:37:28.459Z</time></trkpt><trkpt lat="44.0163554" lon="8.0372508"><ele>239.85714285714283</ele><time>2026-05-03T16:37:30.461Z</time></trkpt><trkpt lat="44.0163963" lon="8.0373331"><ele>237.57142857142856</ele><time>2026-05-03T16:37:32.467Z</time></trkpt><trkpt lat="44.0164298" lon="8.0374179"><ele>235.28571428571428</ele><time>2026-05-03T16:37:34.462Z</time></trkpt><trkpt lat="44.0164563" lon="8.0375241"><ele>233.0</ele><time>2026-05-03T16:37:36.459Z</time></trkpt><trkpt lat="44.0165053" lon="8.0376373"><ele>235.16666666666669</ele><time>2026-05-03T16:37:39.461Z</time></trkpt><trkpt lat="44.0165494" lon="8.0377161"><ele>237.33333333333334</ele><time>2026-05-03T16:37:41.463Z</time></trkpt><trkpt lat="44.0166324" lon="8.0377742"><ele>239.5</ele><time>2026-05-03T16:37:43.459Z</time></trkpt><trkpt lat="44.0166786" lon="8.0378409"><ele>241.66666666666669</ele><time>2026-05-03T16:37:45.461Z</time></trkpt><trkpt lat="44.0167366" lon="8.0379177"><ele>243.83333333333334</ele><time>2026-05-03T16:37:47.46Z</time></trkpt><trkpt lat="44.0167756" lon="8.0380866"><ele>246.0</ele><time>2026-05-03T16:37:49.46Z</time></trkpt><trkpt lat="44.0168194" lon="8.038225"><ele>240.0</ele><time>2026-05-03T16:37:51.466Z</time></trkpt><trkpt lat="44.0168818" lon="8.0383442"><ele>234.00000000000003</ele><time>2026-05-03T16:37:53.468Z</time></trkpt><trkpt lat="44.016937" lon="8.0384704"><ele>228.00000000000003</ele><time>2026-05-03T16:37:55.461Z</time></trkpt><trkpt lat="44.0169837" lon="8.038556"><ele>222.0</ele><time>2026-05-03T16:37:57.46Z</time></trkpt><trkpt lat="44.0170483" lon="8.038642"><ele>216.0</ele><time>2026-05-03T16:37:59.462Z</time></trkpt><trkpt lat="44.0171337" lon="8.0386816"><ele>216.0</ele><time>2026-05-03T16:38:01.465Z</time></trkpt><trkpt lat="44.0172504" lon="8.0387307"><ele>216.00000000000003</ele><time>2026-05-03T16:38:03.46Z</time></trkpt><trkpt lat="44.0172705" lon="8.0388187"><ele>216.00000000000003</ele><time>2026-05-03T16:38:04.459Z</time></trkpt><trkpt lat="44.0173438" lon="8.0389064"><ele>216.0</ele><time>2026-05-03T16:38:06.457Z</time></trkpt><trkpt lat="44.0174092" lon="8.0389966"><ele>216.0</ele><time>2026-05-03T16:38:08.462Z</time></trkpt><trkpt lat="44.0174985" lon="8.0390662"><ele>215.60000000000002</ele><time>2026-05-03T16:38:10.466Z</time></trkpt><trkpt lat="44.0175961" lon="8.0391426"><ele>215.20000000000002</ele><time>2026-05-03T16:38:12.465Z</time></trkpt><trkpt lat="44.0175998" lon="8.0392527"><ele>214.79999999999998</ele><time>2026-05-03T16:38:13.461Z</time></trkpt><trkpt lat="44.0176711" lon="8.039351"><ele>214.39999999999998</ele><time>2026-05-03T16:38:15.46Z</time></trkpt><trkpt lat="44.0177239" lon="8.039415"><ele>214.0</ele><time>2026-05-03T16:38:16.463Z</time></trkpt><trkpt lat="44.0177971" lon="8.0395464"><ele>213.99999999999997</ele><time>2026-05-03T16:38:18.46Z</time></trkpt><trkpt lat="44.0178316" lon="8.039621"><ele>214.0</ele><time>2026-05-03T16:38:19.463Z</time></trkpt><trkpt lat="44.0178743" lon="8.0396927"><ele>214.0</ele><time>2026-05-03T16:38:20.461Z</time></trkpt><trkpt lat="44.0179083" lon="8.0397929"><ele>214.0</ele><time>2026-05-03T16:38:21.465Z</time></trkpt><trkpt lat="44.0179655" lon="8.0399325"><ele>213.99999999999997</ele><time>2026-05-03T16:38:23.46Z</time></trkpt><trkpt lat="44.0180022" lon="8.0400279"><ele>214.0</ele><time>2026-05-03T16:38:24.461Z</time></trkpt><trkpt lat="44.018081" lon="8.04013"><ele>214.83333333333331</ele><time>2026-05-03T16:38:26.463Z</time></trkpt><trkpt lat="44.0181328" lon="8.0401882"><ele>215.66666666666666</ele><time>2026-05-03T16:38:27.464Z</time></trkpt><trkpt lat="44.0182028" lon="8.0402547"><ele>216.5</ele><time>2026-05-03T16:38:29.466Z</time></trkpt><trkpt lat="44.0182629" lon="8.0403446"><ele>217.33333333333331</ele><time>2026-05-03T16:38:31.469Z</time></trkpt><trkpt lat="44.0183192" lon="8.0404774"><ele>218.16666666666666</ele><time>2026-05-03T16:38:33.462Z</time></trkpt><trkpt lat="44.0183708" lon="8.0405771"><ele>219.0</ele><time>2026-05-03T16:38:35.461Z</time></trkpt><trkpt lat="44.01844" lon="8.0406169"><ele>219.0</ele><time>2026-05-03T16:38:37.459Z</time></trkpt><trkpt lat="44.0184818" lon="8.0407437"><ele>219.0</ele><time>2026-05-03T16:38:39.464Z</time></trkpt><trkpt lat="44.0185227" lon="8.0408366"><ele>219.0</ele><time>2026-05-03T16:38:41.46Z</time></trkpt><trkpt lat="44.0185952" lon="8.0409239"><ele>219.0</ele><time>2026-05-03T16:38:43.461Z</time></trkpt><trkpt lat="44.0186585" lon="8.0410069"><ele>219.0</ele><time>2026-05-03T16:38:45.461Z</time></trkpt><trkpt lat="44.0187038" lon="8.041075"><ele>219.0</ele><time>2026-05-03T16:38:47.461Z</time></trkpt><trkpt lat="44.0187686" lon="8.0410951"><ele>218.16666666666666</ele><time>2026-05-03T16:38:49.461Z</time></trkpt><trkpt lat="44.0188295" lon="8.0411201"><ele>217.33333333333331</ele><time>2026-05-03T16:38:51.461Z</time></trkpt><trkpt lat="44.0189618" lon="8.0411268"><ele>216.5</ele><time>2026-05-03T16:38:54.462Z</time></trkpt><trkpt lat="44.0190315" lon="8.0411071"><ele>215.66666666666666</ele><time>2026-05-03T16:38:55.462Z</time></trkpt><trkpt lat="44.0191054" lon="8.0411033"><ele>214.83333333333331</ele><time>2026-05-03T16:38:56.467Z</time></trkpt><trkpt lat="44.019175" lon="8.0411285"><ele>214.0</ele><time>2026-05-03T16:38:57.465Z</time></trkpt><trkpt lat="44.0192433" lon="8.0411743"><ele>214.0</ele><time>2026-05-03T16:38:58.465Z</time></trkpt><trkpt lat="44.0193147" lon="8.0412111"><ele>213.99999999999997</ele><time>2026-05-03T16:38:59.462Z</time></trkpt><trkpt lat="44.0194173" lon="8.0412539"><ele>213.99999999999997</ele><time>2026-05-03T16:39:01.459Z</time></trkpt><trkpt lat="44.0195454" lon="8.0412695"><ele>214.0</ele><time>2026-05-03T16:39:03.461Z</time></trkpt><trkpt lat="44.019673" lon="8.041289"><ele>214.0</ele><time>2026-05-03T16:39:05.464Z</time></trkpt><trkpt lat="44.0197818" lon="8.0412993"><ele>214.00000000000003</ele><time>2026-05-03T16:39:07.469Z</time></trkpt><trkpt lat="44.0198483" lon="8.0413034"><ele>214.0</ele><time>2026-05-03T16:39:08.461Z</time></trkpt><trkpt lat="44.0199166" lon="8.0413056"><ele>214.0</ele><time>2026-05-03T16:39:09.467Z</time></trkpt><trkpt lat="44.0199804" lon="8.0413037"><ele>214.0</ele><time>2026-05-03T16:39:10.46Z</time></trkpt><trkpt lat="44.0200475" lon="8.0412924"><ele>214.0</ele><time>2026-05-03T16:39:11.46Z</time></trkpt><trkpt lat="44.0201214" lon="8.0412826"><ele>214.00000000000003</ele><time>2026-05-03T16:39:12.46Z</time></trkpt><trkpt lat="44.0201997" lon="8.041268"><ele>214.0</ele><time>2026-05-03T16:39:13.463Z</time></trkpt><trkpt lat="44.0202751" lon="8.0412797"><ele>214.39999999999998</ele><time>2026-05-03T16:39:14.464Z</time></trkpt><trkpt lat="44.0203747" lon="8.0413006"><ele>214.79999999999998</ele><time>2026-05-03T16:39:16.463Z</time></trkpt><trkpt lat="44.020474" lon="8.041368"><ele>215.20000000000002</ele><time>2026-05-03T16:39:18.459Z</time></trkpt><trkpt lat="44.0205703" lon="8.0414211"><ele>215.60000000000002</ele><time>2026-05-03T16:39:20.46Z</time></trkpt><trkpt lat="44.0206441" lon="8.0415669"><ele>216.0</ele><time>2026-05-03T16:39:22.462Z</time></trkpt><trkpt lat="44.020703" lon="8.0416712"><ele>212.28571428571428</ele><time>2026-05-03T16:39:24.461Z</time></trkpt><trkpt lat="44.0207358" lon="8.0417555"><ele>208.57142857142856</ele><time>2026-05-03T16:39:25.466Z</time></trkpt><trkpt lat="44.0207645" lon="8.0418419"><ele>204.85714285714286</ele><time>2026-05-03T16:39:26.463Z</time></trkpt><trkpt lat="44.0207984" lon="8.041935"><ele>201.14285714285714</ele><time>2026-05-03T16:39:27.461Z</time></trkpt><trkpt lat="44.0208509" lon="8.0420117"><ele>197.42857142857144</ele><time>2026-05-03T16:39:28.464Z</time></trkpt><trkpt lat="44.020901" lon="8.0420787"><ele>193.71428571428572</ele><time>2026-05-03T16:39:29.46Z</time></trkpt><trkpt lat="44.0209625" lon="8.0421512"><ele>190.0</ele><time>2026-05-03T16:39:30.459Z</time></trkpt><trkpt lat="44.0210182" lon="8.0422042"><ele>190.0</ele><time>2026-05-03T16:39:31.461Z</time></trkpt><trkpt lat="44.0210536" lon="8.0422966"><ele>190.0</ele><time>2026-05-03T16:39:32.469Z</time></trkpt><trkpt lat="44.0211207" lon="8.0424053"><ele>190.0</ele><time>2026-05-03T16:39:34.463Z</time></trkpt><trkpt lat="44.0211984" lon="8.0424804"><ele>190.0</ele><time>2026-05-03T16:39:36.46Z</time></trkpt><trkpt lat="44.0212695" lon="8.0425946"><ele>190.0</ele><time>2026-05-03T16:39:38.461Z</time></trkpt><trkpt lat="44.0213466" lon="8.0425898"><ele>188.8</ele><time>2026-05-03T16:39:39.465Z</time></trkpt><trkpt lat="44.0214685" lon="8.0426069"><ele>187.6</ele><time>2026-05-03T16:39:42.46Z</time></trkpt><trkpt lat="44.0215908" lon="8.0426336"><ele>186.39999999999998</ele><time>2026-05-03T16:39:44.461Z</time></trkpt><trkpt lat="44.0216652" lon="8.0426395"><ele>185.2</ele><time>2026-05-03T16:39:45.468Z</time></trkpt><trkpt lat="44.0217319" lon="8.04266"><ele>184.0</ele><time>2026-05-03T16:39:46.459Z</time></trkpt><trkpt lat="44.0218135" lon="8.0426685"><ele>184.0</ele><time>2026-05-03T16:39:47.465Z</time></trkpt><trkpt lat="44.0219479" lon="8.0426319"><ele>184.0</ele><time>2026-05-03T16:39:49.461Z</time></trkpt><trkpt lat="44.0220499" lon="8.0426467"><ele>184.0</ele><time>2026-05-03T16:39:51.461Z</time></trkpt><trkpt lat="44.0221326" lon="8.0427247"><ele>184.0</ele><time>2026-05-03T16:39:53.465Z</time></trkpt><trkpt lat="44.0222225" lon="8.0428233"><ele>184.0</ele><time>2026-05-03T16:39:55.469Z</time></trkpt><trkpt lat="44.0223442" lon="8.0428232"><ele>184.0</ele><time>2026-05-03T16:39:57.468Z</time></trkpt><trkpt lat="44.0224417" lon="8.0428289"><ele>184.0</ele><time>2026-05-03T16:39:59.462Z</time></trkpt><trkpt lat="44.0225183" lon="8.0428577"><ele>184.0</ele><time>2026-05-03T16:40:00.462Z</time></trkpt><trkpt lat="44.0226101" lon="8.0428731"><ele>184.0</ele><time>2026-05-03T16:40:01.46Z</time></trkpt><trkpt lat="44.0226723" lon="8.0429002"><ele>185.0</ele><time>2026-05-03T16:40:02.461Z</time></trkpt><trkpt lat="44.0227485" lon="8.0428954"><ele>186.0</ele><time>2026-05-03T16:40:03.461Z</time></trkpt><trkpt lat="44.0228375" lon="8.0429152"><ele>187.0</ele><time>2026-05-03T16:40:04.463Z</time></trkpt><trkpt lat="44.0229084" lon="8.0429364"><ele>188.0</ele><time>2026-05-03T16:40:05.461Z</time></trkpt><trkpt lat="44.0230325" lon="8.0429595"><ele>189.0</ele><time>2026-05-03T16:40:07.46Z</time></trkpt><trkpt lat="44.0231659" lon="8.0429836"><ele>189.0</ele><time>2026-05-03T16:40:09.459Z</time></trkpt><trkpt lat="44.0233072" lon="8.0430203"><ele>189.0</ele><time>2026-05-03T16:40:11.46Z</time></trkpt><trkpt lat="44.0233969" lon="8.0430382"><ele>189.0</ele><time>2026-05-03T16:40:12.46Z</time></trkpt><trkpt lat="44.02348" lon="8.0430462"><ele>189.0</ele><time>2026-05-03T16:40:13.462Z</time></trkpt><trkpt lat="44.023603" lon="8.0431149"><ele>190.16666666666666</ele><time>2026-05-03T16:40:15.46Z</time></trkpt><trkpt lat="44.0236999" lon="8.0431736"><ele>191.33333333333331</ele><time>2026-05-03T16:40:17.46Z</time></trkpt><trkpt lat="44.0237609" lon="8.043229"><ele>192.5</ele><time>2026-05-03T16:40:18.46Z</time></trkpt><trkpt lat="44.0238255" lon="8.0433278"><ele>193.66666666666666</ele><time>2026-05-03T16:40:19.464Z</time></trkpt><trkpt lat="44.0238897" lon="8.0433835"><ele>194.83333333333331</ele><time>2026-05-03T16:40:20.459Z</time></trkpt><trkpt lat="44.0239736" lon="8.0433798"><ele>196.0</ele><time>2026-05-03T16:40:21.458Z</time></trkpt><trkpt lat="44.0240285" lon="8.0434721"><ele>191.4</ele><time>2026-05-03T16:40:22.459Z</time></trkpt><trkpt lat="44.0241012" lon="8.0434993"><ele>186.8</ele><time>2026-05-03T16:40:23.456Z</time></trkpt><trkpt lat="44.0242008" lon="8.043585"><ele>182.20000000000002</ele><time>2026-05-03T16:40:25.463Z</time></trkpt><trkpt lat="44.0242619" lon="8.0436216"><ele>177.60000000000002</ele><time>2026-05-03T16:40:26.463Z</time></trkpt><trkpt lat="44.0243577" lon="8.0437318"><ele>173.0</ele><time>2026-05-03T16:40:28.467Z</time></trkpt><trkpt lat="44.0244296" lon="8.0437985"><ele>173.0</ele><time>2026-05-03T16:40:29.462Z</time></trkpt><trkpt lat="44.0244931" lon="8.0438378"><ele>173.0</ele><time>2026-05-03T16:40:30.459Z</time></trkpt><trkpt lat="44.0245459" lon="8.0439008"><ele>173.0</ele><time>2026-05-03T16:40:31.461Z</time></trkpt><trkpt lat="44.024652" lon="8.043955"><ele>173.0</ele><time>2026-05-03T16:40:33.461Z</time></trkpt><trkpt lat="44.0247329" lon="8.04402"><ele>173.0</ele><time>2026-05-03T16:40:35.465Z</time></trkpt><trkpt lat="44.0248125" lon="8.0440649"><ele>173.0</ele><time>2026-05-03T16:40:37.461Z</time></trkpt><trkpt lat="44.0248609" lon="8.0441215"><ele>171.4</ele><time>2026-05-03T16:41:50.458Z</time></trkpt><trkpt lat="44.0249485" lon="8.0441828"><ele>169.8</ele><time>2026-05-03T16:41:52.458Z</time></trkpt><trkpt lat="44.0250485" lon="8.0442746"><ele>168.2</ele><time>2026-05-03T16:41:54.458Z</time></trkpt><trkpt lat="44.0251626" lon="8.0442723"><ele>166.6</ele><time>2026-05-03T16:41:56.462Z</time></trkpt><trkpt lat="44.0252274" lon="8.0442961"><ele>165.0</ele><time>2026-05-03T16:41:57.46Z</time></trkpt><trkpt lat="44.0253589" lon="8.0443808"><ele>164.2</ele><time>2026-05-03T16:41:59.461Z</time></trkpt><trkpt lat="44.025459" lon="8.0444462"><ele>163.4</ele><time>2026-05-03T16:42:01.461Z</time></trkpt><trkpt lat="44.0255467" lon="8.0445327"><ele>162.60000000000002</ele><time>2026-05-03T16:42:03.468Z</time></trkpt><trkpt lat="44.0255909" lon="8.0446049"><ele>161.8</ele><time>2026-05-03T16:42:04.461Z</time></trkpt><trkpt lat="44.0256166" lon="8.0446942"><ele>161.0</ele><time>2026-05-03T16:42:05.461Z</time></trkpt><trkpt lat="44.0256928" lon="8.0448394"><ele>161.0</ele><time>2026-05-03T16:42:07.462Z</time></trkpt><trkpt lat="44.0257283" lon="8.0449402"><ele>161.0</ele><time>2026-05-03T16:42:08.463Z</time></trkpt><trkpt lat="44.025778" lon="8.0450143"><ele>161.0</ele><time>2026-05-03T16:42:09.461Z</time></trkpt><trkpt lat="44.0258196" lon="8.0451198"><ele>161.0</ele><time>2026-05-03T16:42:10.462Z</time></trkpt><trkpt lat="44.0258701" lon="8.0452232"><ele>161.0</ele><time>2026-05-03T16:42:11.466Z</time></trkpt><trkpt lat="44.0258863" lon="8.0453353"><ele>161.0</ele><time>2026-05-03T16:42:12.462Z</time></trkpt><trkpt lat="44.0259194" lon="8.0454287"><ele>161.83333333333331</ele><time>2026-05-03T16:42:13.459Z</time></trkpt><trkpt lat="44.0259649" lon="8.045527"><ele>162.66666666666666</ele><time>2026-05-03T16:42:14.458Z</time></trkpt><trkpt lat="44.0260042" lon="8.045663"><ele>163.5</ele><time>2026-05-03T16:42:15.46Z</time></trkpt><trkpt lat="44.0260305" lon="8.0457834"><ele>164.33333333333334</ele><time>2026-05-03T16:42:16.462Z</time></trkpt><trkpt lat="44.0260444" lon="8.045875"><ele>165.16666666666669</ele><time>2026-05-03T16:42:17.461Z</time></trkpt><trkpt lat="44.0260591" lon="8.0459669"><ele>166.0</ele><time>2026-05-03T16:42:18.462Z</time></trkpt><trkpt lat="44.0260756" lon="8.0460816"><ele>166.0</ele><time>2026-05-03T16:42:19.463Z</time></trkpt><trkpt lat="44.026095" lon="8.0461962"><ele>166.0</ele><time>2026-05-03T16:42:20.467Z</time></trkpt><trkpt lat="44.0261121" lon="8.046322"><ele>166.0</ele><time>2026-05-03T16:42:21.46Z</time></trkpt><trkpt lat="44.0261371" lon="8.0464119"><ele>166.0</ele><time>2026-05-03T16:42:22.466Z</time></trkpt><trkpt lat="44.0261549" lon="8.0465294"><ele>166.0</ele><time>2026-05-03T16:42:23.462Z</time></trkpt><trkpt lat="44.0261597" lon="8.0466613"><ele>166.0</ele><time>2026-05-03T16:42:24.46Z</time></trkpt><trkpt lat="44.0261728" lon="8.0467664"><ele>167.0</ele><time>2026-05-03T16:42:25.467Z</time></trkpt><trkpt lat="44.0261924" lon="8.0468845"><ele>168.0</ele><time>2026-05-03T16:42:26.46Z</time></trkpt><trkpt lat="44.0261975" lon="8.047011"><ele>169.0</ele><time>2026-05-03T16:42:27.461Z</time></trkpt><trkpt lat="44.0262067" lon="8.0471418"><ele>170.0</ele><time>2026-05-03T16:42:28.461Z</time></trkpt><trkpt lat="44.0262053" lon="8.0472606"><ele>171.0</ele><time>2026-05-03T16:42:29.463Z</time></trkpt><trkpt lat="44.026215" lon="8.0473561"><ele>172.0</ele><time>2026-05-03T16:42:30.464Z</time></trkpt><trkpt lat="44.0262301" lon="8.0474844"><ele>172.6</ele><time>2026-05-03T16:42:31.461Z</time></trkpt><trkpt lat="44.0262524" lon="8.0476104"><ele>173.2</ele><time>2026-05-03T16:42:32.459Z</time></trkpt><trkpt lat="44.0262713" lon="8.0477395"><ele>173.8</ele><time>2026-05-03T16:42:33.457Z</time></trkpt><trkpt lat="44.0262728" lon="8.0478391"><ele>174.4</ele><time>2026-05-03T16:42:34.46Z</time></trkpt><trkpt lat="44.0262728" lon="8.0479938"><ele>175.0</ele><time>2026-05-03T16:42:35.459Z</time></trkpt><trkpt lat="44.0263164" lon="8.0481729"><ele>175.0</ele><time>2026-05-03T16:42:37.461Z</time></trkpt><trkpt lat="44.0263344" lon="8.0483018"><ele>175.0</ele><time>2026-05-03T16:42:38.459Z</time></trkpt><trkpt lat="44.0263253" lon="8.0484142"><ele>175.0</ele><time>2026-05-03T16:42:39.475Z</time></trkpt><trkpt lat="44.0263514" lon="8.0485492"><ele>175.0</ele><time>2026-05-03T16:42:40.465Z</time></trkpt><trkpt lat="44.0263522" lon="8.0487118"><ele>175.0</ele><time>2026-05-03T16:42:41.461Z</time></trkpt><trkpt lat="44.0263933" lon="8.0488131"><ele>175.0</ele><time>2026-05-03T16:42:42.462Z</time></trkpt><trkpt lat="44.0263893" lon="8.0489598"><ele>175.0</ele><time>2026-05-03T16:42:43.462Z</time></trkpt><trkpt lat="44.0264039" lon="8.0491124"><ele>175.0</ele><time>2026-05-03T16:42:44.459Z</time></trkpt><trkpt lat="44.0264036" lon="8.0492501"><ele>175.0</ele><time>2026-05-03T16:42:45.46Z</time></trkpt><trkpt lat="44.0264084" lon="8.0493962"><ele>175.0</ele><time>2026-05-03T16:42:46.46Z</time></trkpt><trkpt lat="44.0264273" lon="8.0495461"><ele>173.4</ele><time>2026-05-03T16:42:47.466Z</time></trkpt><trkpt lat="44.0264408" lon="8.0496852"><ele>171.8</ele><time>2026-05-03T16:42:48.461Z</time></trkpt><trkpt lat="44.0264657" lon="8.0498248"><ele>170.2</ele><time>2026-05-03T16:42:49.464Z</time></trkpt><trkpt lat="44.0264943" lon="8.0499493"><ele>168.6</ele><time>2026-05-03T16:42:50.46Z</time></trkpt><trkpt lat="44.0264992" lon="8.0500581"><ele>167.0</ele><time>2026-05-03T16:42:51.464Z</time></trkpt><trkpt lat="44.0264932" lon="8.0501982"><ele>167.0</ele><time>2026-05-03T16:42:52.461Z</time></trkpt><trkpt lat="44.0264981" lon="8.0503709"><ele>167.0</ele><time>2026-05-03T16:42:53.462Z</time></trkpt><trkpt lat="44.0265189" lon="8.0505149"><ele>167.0</ele><time>2026-05-03T16:42:54.461Z</time></trkpt><trkpt lat="44.0265191" lon="8.0506621"><ele>167.0</ele><time>2026-05-03T16:42:55.46Z</time></trkpt><trkpt lat="44.0265246" lon="8.0508096"><ele>167.0</ele><time>2026-05-03T16:42:56.464Z</time></trkpt><trkpt lat="44.0265486" lon="8.0509502"><ele>167.0</ele><time>2026-05-03T16:42:57.459Z</time></trkpt><trkpt lat="44.0265589" lon="8.0510766"><ele>167.0</ele><time>2026-05-03T16:42:58.461Z</time></trkpt><trkpt lat="44.0265737" lon="8.0512237"><ele>167.0</ele><time>2026-05-03T16:42:59.462Z</time></trkpt><trkpt lat="44.0265837" lon="8.0513491"><ele>167.0</ele><time>2026-05-03T16:43:00.46Z</time></trkpt><trkpt lat="44.0266077" lon="8.0515303"><ele>167.0</ele><time>2026-05-03T16:43:02.467Z</time></trkpt><trkpt lat="44.0266345" lon="8.0516153"><ele>163.0</ele><time>2026-05-03T16:43:03.46Z</time></trkpt><trkpt lat="44.0266697" lon="8.0517065"><ele>159.0</ele><time>2026-05-03T16:43:04.46Z</time></trkpt><trkpt lat="44.0267231" lon="8.0518125"><ele>155.0</ele><time>2026-05-03T16:43:05.459Z</time></trkpt><trkpt lat="44.0267725" lon="8.0518964"><ele>151.0</ele><time>2026-05-03T16:43:06.461Z</time></trkpt><trkpt lat="44.0268212" lon="8.0519527"><ele>147.0</ele><time>2026-05-03T16:43:07.462Z</time></trkpt><trkpt lat="44.0268381" lon="8.0520541"><ele>143.0</ele><time>2026-05-03T16:43:08.465Z</time></trkpt><trkpt lat="44.0268585" lon="8.0521576"><ele>143.0</ele><time>2026-05-03T16:43:09.462Z</time></trkpt><trkpt lat="44.0268752" lon="8.0522468"><ele>143.0</ele><time>2026-05-03T16:43:10.467Z</time></trkpt><trkpt lat="44.0269335" lon="8.0523779"><ele>143.0</ele><time>2026-05-03T16:43:12.462Z</time></trkpt><trkpt lat="44.0269883" lon="8.0524487"><ele>143.0</ele><time>2026-05-03T16:43:13.461Z</time></trkpt><trkpt lat="44.0270507" lon="8.0525132"><ele>143.0</ele><time>2026-05-03T16:43:14.463Z</time></trkpt><trkpt lat="44.027087" lon="8.0526703"><ele>143.0</ele><time>2026-05-03T16:43:16.468Z</time></trkpt><trkpt lat="44.0270985" lon="8.0528078"><ele>144.5</ele><time>2026-05-03T16:43:18.464Z</time></trkpt><trkpt lat="44.0271023" lon="8.0529333"><ele>146.0</ele><time>2026-05-03T16:43:20.463Z</time></trkpt><trkpt lat="44.0271012" lon="8.0531274"><ele>147.5</ele><time>2026-05-03T16:43:22.465Z</time></trkpt><trkpt lat="44.0271" lon="8.0532948"><ele>149.0</ele><time>2026-05-03T16:43:23.468Z</time></trkpt><trkpt lat="44.0271032" lon="8.0534387"><ele>149.16666666666666</ele><time>2026-05-03T16:43:24.466Z</time></trkpt><trkpt lat="44.0270911" lon="8.0535538"><ele>149.33333333333331</ele><time>2026-05-03T16:43:25.462Z</time></trkpt><trkpt lat="44.0270908" lon="8.0536574"><ele>149.5</ele><time>2026-05-03T16:43:26.462Z</time></trkpt><trkpt lat="44.0270858" lon="8.0538114"><ele>149.66666666666666</ele><time>2026-05-03T16:43:28.46Z</time></trkpt><trkpt lat="44.0271026" lon="8.0539001"><ele>149.83333333333334</ele><time>2026-05-03T16:43:30.464Z</time></trkpt><trkpt lat="44.0271255" lon="8.053994"><ele>150.0</ele><time>2026-05-03T16:43:32.467Z</time></trkpt><trkpt lat="44.0271485" lon="8.054112"><ele>150.28571428571428</ele><time>2026-05-03T16:43:34.463Z</time></trkpt><trkpt lat="44.0271705" lon="8.0541957"><ele>150.57142857142856</ele><time>2026-05-03T16:43:35.462Z</time></trkpt><trkpt lat="44.027198" lon="8.0542814"><ele>150.85714285714283</ele><time>2026-05-03T16:43:36.466Z</time></trkpt><trkpt lat="44.027223" lon="8.05438"><ele>151.14285714285714</ele><time>2026-05-03T16:43:37.461Z</time></trkpt><trkpt lat="44.0272537" lon="8.0544769"><ele>151.42857142857144</ele><time>2026-05-03T16:43:38.463Z</time></trkpt><trkpt lat="44.0272851" lon="8.0545657"><ele>151.7142857142857</ele><time>2026-05-03T16:43:39.463Z</time></trkpt><trkpt lat="44.0273139" lon="8.054645"><ele>152.0</ele><time>2026-05-03T16:43:40.464Z</time></trkpt><trkpt lat="44.027324" lon="8.0547739"><ele>152.0</ele><time>2026-05-03T16:43:42.466Z</time></trkpt><trkpt lat="44.0273132" lon="8.0548646"><ele>152.0</ele><time>2026-05-03T16:43:43.463Z</time></trkpt><trkpt lat="44.0273036" lon="8.054955"><ele>152.0</ele><time>2026-05-03T16:43:44.466Z</time></trkpt><trkpt lat="44.0272998" lon="8.0551022"><ele>152.0</ele><time>2026-05-03T16:43:46.462Z</time></trkpt><trkpt lat="44.0273414" lon="8.0552419"><ele>152.0</ele><time>2026-05-03T16:43:48.46Z</time></trkpt><trkpt lat="44.0273698" lon="8.0553598"><ele>152.0</ele><time>2026-05-03T16:43:50.466Z</time></trkpt><trkpt lat="44.0273888" lon="8.0554546"><ele>153.0</ele><time>2026-05-03T16:43:52.462Z</time></trkpt><trkpt lat="44.0274458" lon="8.0555451"><ele>154.0</ele><time>2026-05-03T16:44:08.464Z</time></trkpt><trkpt lat="44.0275203" lon="8.0555286"><ele>155.0</ele><time>2026-05-03T16:44:11.464Z</time></trkpt><trkpt lat="44.0275895" lon="8.0554373"><ele>156.0</ele><time>2026-05-03T16:44:13.459Z</time></trkpt><trkpt lat="44.0276749" lon="8.055345"><ele>157.0</ele><time>2026-05-03T16:44:15.459Z</time></trkpt><trkpt lat="44.0277364" lon="8.0553146"><ele>158.0</ele><time>2026-05-03T16:44:16.459Z</time></trkpt><trkpt lat="44.027863" lon="8.0552666"><ele>154.5</ele><time>2026-05-03T16:44:18.461Z</time></trkpt><trkpt lat="44.0279315" lon="8.0552422"><ele>151.0</ele><time>2026-05-03T16:44:20.467Z</time></trkpt><trkpt lat="44.0279962" lon="8.0552216"><ele>147.5</ele><time>2026-05-03T16:44:22.463Z</time></trkpt><trkpt lat="44.028111" lon="8.0551653"><ele>144.0</ele><time>2026-05-03T16:44:24.46Z</time></trkpt><trkpt lat="44.028224" lon="8.055103"><ele>140.5</ele><time>2026-05-03T16:44:26.464Z</time></trkpt><trkpt lat="44.0282905" lon="8.0550927"><ele>137.0</ele><time>2026-05-03T16:44:28.464Z</time></trkpt><trkpt lat="44.0283345" lon="8.0551625"><ele>137.0</ele><time>2026-05-03T16:44:30.465Z</time></trkpt><trkpt lat="44.0283808" lon="8.0552746"><ele>137.0</ele><time>2026-05-03T16:44:32.471Z</time></trkpt><trkpt lat="44.0284742" lon="8.0554253"><ele>137.0</ele><time>2026-05-03T16:44:34.466Z</time></trkpt><trkpt lat="44.0285238" lon="8.0554812"><ele>137.0</ele><time>2026-05-03T16:44:35.461Z</time></trkpt><trkpt lat="44.0285898" lon="8.0555345"><ele>137.0</ele><time>2026-05-03T16:44:36.462Z</time></trkpt><trkpt lat="44.0286678" lon="8.055584"><ele>137.0</ele><time>2026-05-03T16:44:37.463Z</time></trkpt><trkpt lat="44.0287498" lon="8.0556026"><ele>137.0</ele><time>2026-05-03T16:44:38.466Z</time></trkpt><trkpt lat="44.0288384" lon="8.0556182"><ele>137.0</ele><time>2026-05-03T16:44:39.466Z</time></trkpt><trkpt lat="44.0289169" lon="8.0556506"><ele>137.0</ele><time>2026-05-03T16:44:40.462Z</time></trkpt><trkpt lat="44.029005" lon="8.0556628"><ele>137.0</ele><time>2026-05-03T16:44:41.459Z</time></trkpt><trkpt lat="44.0290909" lon="8.0556843"><ele>137.0</ele><time>2026-05-03T16:44:42.46Z</time></trkpt><trkpt lat="44.0291702" lon="8.055709"><ele>137.6</ele><time>2026-05-03T16:44:43.46Z</time></trkpt><trkpt lat="44.0292618" lon="8.0557249"><ele>138.2</ele><time>2026-05-03T16:44:44.46Z</time></trkpt><trkpt lat="44.029367" lon="8.0557934"><ele>138.8</ele><time>2026-05-03T16:44:46.462Z</time></trkpt><trkpt lat="44.0294329" lon="8.0557896"><ele>139.4</ele><time>2026-05-03T16:44:47.462Z</time></trkpt><trkpt lat="44.0295039" lon="8.0557761"><ele>140.0</ele><time>2026-05-03T16:44:48.463Z</time></trkpt><trkpt lat="44.0296448" lon="8.0557504"><ele>140.0</ele><time>2026-05-03T16:44:50.465Z</time></trkpt><trkpt lat="44.0297198" lon="8.0557622"><ele>140.0</ele><time>2026-05-03T16:44:51.461Z</time></trkpt><trkpt lat="44.0298204" lon="8.0557724"><ele>140.0</ele><time>2026-05-03T16:44:52.461Z</time></trkpt><trkpt lat="44.0299362" lon="8.055807"><ele>140.0</ele><time>2026-05-03T16:44:53.46Z</time></trkpt><trkpt lat="44.0300393" lon="8.0558445"><ele>140.0</ele><time>2026-05-03T16:44:54.467Z</time></trkpt><trkpt lat="44.0301325" lon="8.05589"><ele>142.5</ele><time>2026-05-03T16:44:55.457Z</time></trkpt><trkpt lat="44.0302057" lon="8.0559124"><ele>145.0</ele><time>2026-05-03T16:44:56.46Z</time></trkpt><trkpt lat="44.0302845" lon="8.055882"><ele>147.5</ele><time>2026-05-03T16:44:57.461Z</time></trkpt><trkpt lat="44.030349" lon="8.0558733"><ele>150.0</ele><time>2026-05-03T16:44:58.46Z</time></trkpt><trkpt lat="44.0304553" lon="8.0557866"><ele>152.5</ele><time>2026-05-03T16:45:00.462Z</time></trkpt><trkpt lat="44.030511" lon="8.0556992"><ele>155.0</ele><time>2026-05-03T16:45:01.462Z</time></trkpt><trkpt lat="44.030542" lon="8.0556187"><ele>158.8</ele><time>2026-05-03T16:45:02.46Z</time></trkpt><trkpt lat="44.0305654" lon="8.0554315"><ele>162.6</ele><time>2026-05-03T16:45:04.465Z</time></trkpt><trkpt lat="44.0305658" lon="8.0553287"><ele>166.39999999999998</ele><time>2026-05-03T16:45:05.461Z</time></trkpt><trkpt lat="44.0305886" lon="8.0552073"><ele>170.2</ele><time>2026-05-03T16:45:06.461Z</time></trkpt><trkpt lat="44.030622" lon="8.0550907"><ele>174.0</ele><time>2026-05-03T16:45:07.463Z</time></trkpt><trkpt lat="44.0306454" lon="8.0549488"><ele>175.5</ele><time>2026-05-03T16:45:08.461Z</time></trkpt><trkpt lat="44.0307479" lon="8.0547955"><ele>177.0</ele><time>2026-05-03T16:45:09.463Z</time></trkpt><trkpt lat="44.0308229" lon="8.0546547"><ele>178.5</ele><time>2026-05-03T16:45:10.462Z</time></trkpt><trkpt lat="44.0308979" lon="8.0545212"><ele>180.0</ele><time>2026-05-03T16:45:11.466Z</time></trkpt><trkpt lat="44.0309514" lon="8.0543812"><ele>180.0</ele><time>2026-05-03T16:45:13.458Z</time></trkpt><trkpt lat="44.0309762" lon="8.0542606"><ele>180.0</ele><time>2026-05-03T16:45:15.464Z</time></trkpt><trkpt lat="44.0309089" lon="8.0542169"><ele>180.0</ele><time>2026-05-03T16:45:42.467Z</time></trkpt><trkpt lat="44.0308403" lon="8.0542444"><ele>180.0</ele><time>2026-05-03T16:45:43.461Z</time></trkpt><trkpt lat="44.0307692" lon="8.0542602"><ele>180.0</ele><time>2026-05-03T16:45:44.46Z</time></trkpt><trkpt lat="44.0306898" lon="8.0542784"><ele>180.0</ele><time>2026-05-03T16:45:45.464Z</time></trkpt><trkpt lat="44.030616" lon="8.0542927"><ele>181.66666666666666</ele><time>2026-05-03T16:45:46.468Z</time></trkpt><trkpt lat="44.030538" lon="8.054321"><ele>183.33333333333334</ele><time>2026-05-03T16:45:47.462Z</time></trkpt><trkpt lat="44.0304634" lon="8.0543368"><ele>185.0</ele><time>2026-05-03T16:45:48.461Z</time></trkpt><trkpt lat="44.0303828" lon="8.0543483"><ele>186.66666666666669</ele><time>2026-05-03T16:45:49.46Z</time></trkpt><trkpt lat="44.0302945" lon="8.054385"><ele>188.33333333333334</ele><time>2026-05-03T16:45:50.466Z</time></trkpt><trkpt lat="44.030215" lon="8.0544041"><ele>190.0</ele><time>2026-05-03T16:45:51.465Z</time></trkpt><trkpt lat="44.0301296" lon="8.0544323"><ele>190.0</ele><time>2026-05-03T16:45:52.465Z</time></trkpt><trkpt lat="44.0300462" lon="8.0544666"><ele>190.0</ele><time>2026-05-03T16:45:53.463Z</time></trkpt><trkpt lat="44.0299675" lon="8.0545085"><ele>190.0</ele><time>2026-05-03T16:45:54.463Z</time></trkpt><trkpt lat="44.0298926" lon="8.0545448"><ele>190.0</ele><time>2026-05-03T16:45:55.461Z</time></trkpt><trkpt lat="44.0298276" lon="8.0545474"><ele>190.0</ele><time>2026-05-03T16:45:56.462Z</time></trkpt><trkpt lat="44.0297368" lon="8.0545224"><ele>190.0</ele><time>2026-05-03T16:45:58.46Z</time></trkpt><trkpt lat="44.0296821" lon="8.0543649"><ele>186.8</ele><time>2026-05-03T16:46:00.462Z</time></trkpt><trkpt lat="44.0296794" lon="8.0542508"><ele>183.6</ele><time>2026-05-03T16:46:01.466Z</time></trkpt><trkpt lat="44.0296854" lon="8.0541415"><ele>180.39999999999998</ele><time>2026-05-03T16:46:02.465Z</time></trkpt><trkpt lat="44.0297136" lon="8.0539816"><ele>177.2</ele><time>2026-05-03T16:46:03.463Z</time></trkpt><trkpt lat="44.0297427" lon="8.0537873"><ele>174.0</ele><time>2026-05-03T16:46:04.465Z</time></trkpt><trkpt lat="44.0297612" lon="8.0536233"><ele>174.0</ele><time>2026-05-03T16:46:05.467Z</time></trkpt><trkpt lat="44.0297829" lon="8.0534897"><ele>174.0</ele><time>2026-05-03T16:46:06.468Z</time></trkpt><trkpt lat="44.0298215" lon="8.0533649"><ele>174.0</ele><time>2026-05-03T16:46:07.465Z</time></trkpt><trkpt lat="44.0298717" lon="8.0532307"><ele>174.0</ele><time>2026-05-03T16:46:08.46Z</time></trkpt><trkpt lat="44.0299466" lon="8.0531317"><ele>174.0</ele><time>2026-05-03T16:46:09.461Z</time></trkpt><trkpt lat="44.0300223" lon="8.0530434"><ele>178.6</ele><time>2026-05-03T16:46:10.461Z</time></trkpt><trkpt lat="44.0301191" lon="8.0529582"><ele>183.2</ele><time>2026-05-03T16:46:11.463Z</time></trkpt><trkpt lat="44.0302121" lon="8.0528822"><ele>187.79999999999998</ele><time>2026-05-03T16:46:12.466Z</time></trkpt><trkpt lat="44.0302747" lon="8.0527852"><ele>192.39999999999998</ele><time>2026-05-03T16:46:13.463Z</time></trkpt><trkpt lat="44.0303288" lon="8.0526809"><ele>197.0</ele><time>2026-05-03T16:46:14.46Z</time></trkpt><trkpt lat="44.0303573" lon="8.0525718"><ele>197.0</ele><time>2026-05-03T16:46:15.463Z</time></trkpt><trkpt lat="44.0303726" lon="8.0524586"><ele>197.0</ele><time>2026-05-03T16:46:16.461Z</time></trkpt><trkpt lat="44.0303117" lon="8.0523641"><ele>197.0</ele><time>2026-05-03T16:46:17.464Z</time></trkpt><trkpt lat="44.0302387" lon="8.0523107"><ele>197.0</ele><time>2026-05-03T16:46:18.46Z</time></trkpt><trkpt lat="44.0301558" lon="8.0522563"><ele>197.0</ele><time>2026-05-03T16:46:19.46Z</time></trkpt><trkpt lat="44.0300232" lon="8.0522829"><ele>195.83333333333334</ele><time>2026-05-03T16:46:20.463Z</time></trkpt><trkpt lat="44.0299224" lon="8.0522794"><ele>194.66666666666669</ele><time>2026-05-03T16:46:21.463Z</time></trkpt><trkpt lat="44.0298449" lon="8.0522592"><ele>193.5</ele><time>2026-05-03T16:46:22.462Z</time></trkpt><trkpt lat="44.0297731" lon="8.0522313"><ele>192.33333333333334</ele><time>2026-05-03T16:46:23.461Z</time></trkpt><trkpt lat="44.0297056" lon="8.0521535"><ele>191.16666666666669</ele><time>2026-05-03T16:46:24.46Z</time></trkpt><trkpt lat="44.029652" lon="8.0520649"><ele>190.0</ele><time>2026-05-03T16:46:25.461Z</time></trkpt><trkpt lat="44.0296035" lon="8.0519626"><ele>190.0</ele><time>2026-05-03T16:46:26.46Z</time></trkpt><trkpt lat="44.0295478" lon="8.051853"><ele>190.0</ele><time>2026-05-03T16:46:27.46Z</time></trkpt><trkpt lat="44.0295014" lon="8.0517384"><ele>190.0</ele><time>2026-05-03T16:46:28.459Z</time></trkpt><trkpt lat="44.0294643" lon="8.0516254"><ele>190.0</ele><time>2026-05-03T16:46:29.46Z</time></trkpt><trkpt lat="44.0294504" lon="8.0514898"><ele>190.0</ele><time>2026-05-03T16:46:30.462Z</time></trkpt><trkpt lat="44.0294403" lon="8.0513539"><ele>191.4</ele><time>2026-05-03T16:46:31.462Z</time></trkpt><trkpt lat="44.0294262" lon="8.0512483"><ele>192.8</ele><time>2026-05-03T16:46:32.466Z</time></trkpt><trkpt lat="44.0293985" lon="8.0511152"><ele>194.2</ele><time>2026-05-03T16:46:34.461Z</time></trkpt><trkpt lat="44.0292962" lon="8.051057"><ele>195.6</ele><time>2026-05-03T16:46:37.461Z</time></trkpt><trkpt lat="44.0292157" lon="8.0510087"><ele>197.0</ele><time>2026-05-03T16:46:38.467Z</time></trkpt><trkpt lat="44.029135" lon="8.050939"><ele>194.0</ele><time>2026-05-03T16:46:39.463Z</time></trkpt><trkpt lat="44.0290478" lon="8.0508527"><ele>191.0</ele><time>2026-05-03T16:46:40.468Z</time></trkpt><trkpt lat="44.0289505" lon="8.0507787"><ele>188.0</ele><time>2026-05-03T16:46:41.467Z</time></trkpt><trkpt lat="44.0288791" lon="8.0507127"><ele>185.0</ele><time>2026-05-03T16:46:42.464Z</time></trkpt><trkpt lat="44.0287987" lon="8.0506394"><ele>182.0</ele><time>2026-05-03T16:46:43.471Z</time></trkpt><trkpt lat="44.0287152" lon="8.050542"><ele>182.0</ele><time>2026-05-03T16:46:44.463Z</time></trkpt><trkpt lat="44.0286396" lon="8.0504615"><ele>182.0</ele><time>2026-05-03T16:46:45.46Z</time></trkpt><trkpt lat="44.0285573" lon="8.0503662"><ele>182.0</ele><time>2026-05-03T16:46:46.461Z</time></trkpt><trkpt lat="44.0284987" lon="8.0502786"><ele>182.0</ele><time>2026-05-03T16:46:47.462Z</time></trkpt><trkpt lat="44.0284476" lon="8.050183"><ele>182.0</ele><time>2026-05-03T16:46:48.463Z</time></trkpt><trkpt lat="44.0284055" lon="8.0500684"><ele>182.39999999999998</ele><time>2026-05-03T16:46:49.465Z</time></trkpt><trkpt lat="44.0283691" lon="8.0499477"><ele>182.79999999999998</ele><time>2026-05-03T16:46:50.459Z</time></trkpt><trkpt lat="44.0283313" lon="8.049809"><ele>183.2</ele><time>2026-05-03T16:46:51.466Z</time></trkpt><trkpt lat="44.028298" lon="8.0496728"><ele>183.6</ele><time>2026-05-03T16:46:52.461Z</time></trkpt><trkpt lat="44.0282605" lon="8.0495576"><ele>184.0</ele><time>2026-05-03T16:46:53.46Z</time></trkpt><trkpt lat="44.0282268" lon="8.0494504"><ele>178.5</ele><time>2026-05-03T16:46:54.462Z</time></trkpt><trkpt lat="44.0282076" lon="8.0493522"><ele>173.0</ele><time>2026-05-03T16:46:55.46Z</time></trkpt><trkpt lat="44.028194" lon="8.0492545"><ele>167.5</ele><time>2026-05-03T16:46:56.461Z</time></trkpt><trkpt lat="44.0281878" lon="8.049156"><ele>162.0</ele><time>2026-05-03T16:46:57.463Z</time></trkpt><trkpt lat="44.028195" lon="8.049015"><ele>156.5</ele><time>2026-05-03T16:46:58.464Z</time></trkpt><trkpt lat="44.0282232" lon="8.0488805"><ele>151.0</ele><time>2026-05-03T16:46:59.463Z</time></trkpt><trkpt lat="44.0282463" lon="8.0487304"><ele>151.0</ele><time>2026-05-03T16:47:00.461Z</time></trkpt><trkpt lat="44.0282534" lon="8.0485989"><ele>151.0</ele><time>2026-05-03T16:47:01.459Z</time></trkpt><trkpt lat="44.0282614" lon="8.0484819"><ele>151.0</ele><time>2026-05-03T16:47:02.462Z</time></trkpt><trkpt lat="44.0282525" lon="8.0483467"><ele>151.0</ele><time>2026-05-03T16:47:03.462Z</time></trkpt><trkpt lat="44.0282146" lon="8.048205"><ele>151.0</ele><time>2026-05-03T16:47:04.468Z</time></trkpt><trkpt lat="44.0281648" lon="8.048044"><ele>151.2</ele><time>2026-05-03T16:47:05.464Z</time></trkpt><trkpt lat="44.0281143" lon="8.047901"><ele>151.39999999999998</ele><time>2026-05-03T16:47:06.461Z</time></trkpt><trkpt lat="44.0280716" lon="8.0477566"><ele>151.6</ele><time>2026-05-03T16:47:07.465Z</time></trkpt><trkpt lat="44.028039" lon="8.0476142"><ele>151.79999999999998</ele><time>2026-05-03T16:47:08.464Z</time></trkpt><trkpt lat="44.028007" lon="8.0475029"><ele>152.0</ele><time>2026-05-03T16:47:09.464Z</time></trkpt><trkpt lat="44.0279461" lon="8.0474105"><ele>152.5</ele><time>2026-05-03T16:47:10.461Z</time></trkpt><trkpt lat="44.0278724" lon="8.0473244"><ele>153.0</ele><time>2026-05-03T16:47:11.462Z</time></trkpt><trkpt lat="44.0277873" lon="8.0472488"><ele>153.5</ele><time>2026-05-03T16:47:12.466Z</time></trkpt><trkpt lat="44.0277218" lon="8.0471701"><ele>154.0</ele><time>2026-05-03T16:47:13.462Z</time></trkpt><trkpt lat="44.0276712" lon="8.047103"><ele>154.5</ele><time>2026-05-03T16:47:14.461Z</time></trkpt><trkpt lat="44.0276426" lon="8.0470098"><ele>155.0</ele><time>2026-05-03T16:47:15.462Z</time></trkpt><trkpt lat="44.027634" lon="8.0469046"><ele>155.0</ele><time>2026-05-03T16:47:16.461Z</time></trkpt><trkpt lat="44.0276426" lon="8.0467922"><ele>155.0</ele><time>2026-05-03T16:47:17.468Z</time></trkpt><trkpt lat="44.027678" lon="8.0466844"><ele>155.0</ele><time>2026-05-03T16:47:18.464Z</time></trkpt><trkpt lat="44.0277092" lon="8.046564"><ele>155.0</ele><time>2026-05-03T16:47:19.462Z</time></trkpt><trkpt lat="44.0277318" lon="8.0464252"><ele>155.0</ele><time>2026-05-03T16:47:20.461Z</time></trkpt><trkpt lat="44.0277182" lon="8.0462411"><ele>154.75</ele><time>2026-05-03T16:47:21.462Z</time></trkpt><trkpt lat="44.0277124" lon="8.0460622"><ele>154.5</ele><time>2026-05-03T16:47:22.461Z</time></trkpt><trkpt lat="44.0277255" lon="8.0458236"><ele>154.25</ele><time>2026-05-03T16:47:23.46Z</time></trkpt><trkpt lat="44.0277449" lon="8.045631"><ele>154.0</ele><time>2026-05-03T16:47:24.466Z</time></trkpt><trkpt lat="44.0277588" lon="8.0454513"><ele>153.2</ele><time>2026-05-03T16:47:25.461Z</time></trkpt><trkpt lat="44.0277682" lon="8.045286"><ele>152.4</ele><time>2026-05-03T16:47:26.461Z</time></trkpt><trkpt lat="44.0277906" lon="8.0451524"><ele>151.6</ele><time>2026-05-03T16:47:27.46Z</time></trkpt><trkpt lat="44.0278285" lon="8.0450119"><ele>150.8</ele><time>2026-05-03T16:47:28.462Z</time></trkpt><trkpt lat="44.0278742" lon="8.0448638"><ele>150.0</ele><time>2026-05-03T16:47:29.463Z</time></trkpt><trkpt lat="44.0279512" lon="8.0447377"><ele>149.6</ele><time>2026-05-03T16:47:30.458Z</time></trkpt><trkpt lat="44.0280212" lon="8.0446513"><ele>149.2</ele><time>2026-05-03T16:47:31.462Z</time></trkpt><trkpt lat="44.0280624" lon="8.0445596"><ele>148.8</ele><time>2026-05-03T16:47:32.457Z</time></trkpt><trkpt lat="44.0280827" lon="8.0444366"><ele>148.4</ele><time>2026-05-03T16:47:33.463Z</time></trkpt><trkpt lat="44.0280862" lon="8.0442976"><ele>148.0</ele><time>2026-05-03T16:47:34.461Z</time></trkpt><trkpt lat="44.0280736" lon="8.0441596"><ele>149.25</ele><time>2026-05-03T16:47:35.462Z</time></trkpt><trkpt lat="44.0280739" lon="8.0440122"><ele>150.5</ele><time>2026-05-03T16:47:36.462Z</time></trkpt><trkpt lat="44.0280904" lon="8.0438545"><ele>151.75</ele><time>2026-05-03T16:47:37.46Z</time></trkpt><trkpt lat="44.028133" lon="8.0437175"><ele>153.0</ele><time>2026-05-03T16:47:38.461Z</time></trkpt><trkpt lat="44.0282014" lon="8.0435654"><ele>153.0</ele><time>2026-05-03T16:47:39.46Z</time></trkpt><trkpt lat="44.0282802" lon="8.0434227"><ele>153.0</ele><time>2026-05-03T16:47:40.461Z</time></trkpt><trkpt lat="44.0283474" lon="8.0432851"><ele>153.0</ele><time>2026-05-03T16:47:41.463Z</time></trkpt><trkpt lat="44.0284062" lon="8.0431405"><ele>153.0</ele><time>2026-05-03T16:47:42.46Z</time></trkpt><trkpt lat="44.028468" lon="8.0429999"><ele>154.4</ele><time>2026-05-03T16:47:43.461Z</time></trkpt><trkpt lat="44.0285251" lon="8.0428892"><ele>155.8</ele><time>2026-05-03T16:47:44.461Z</time></trkpt><trkpt lat="44.0285886" lon="8.0427723"><ele>157.2</ele><time>2026-05-03T16:47:45.46Z</time></trkpt><trkpt lat="44.0286328" lon="8.0426641"><ele>158.6</ele><time>2026-05-03T16:47:46.463Z</time></trkpt><trkpt lat="44.0286586" lon="8.042554"><ele>160.0</ele><time>2026-05-03T16:47:47.463Z</time></trkpt><trkpt lat="44.0286742" lon="8.0423927"><ele>160.0</ele><time>2026-05-03T16:47:48.46Z</time></trkpt><trkpt lat="44.0286726" lon="8.042218"><ele>160.0</ele><time>2026-05-03T16:47:49.461Z</time></trkpt><trkpt lat="44.0286611" lon="8.0420126"><ele>160.0</ele><time>2026-05-03T16:47:50.46Z</time></trkpt><trkpt lat="44.0286408" lon="8.0418537"><ele>160.0</ele><time>2026-05-03T16:47:51.465Z</time></trkpt><trkpt lat="44.0286124" lon="8.0417116"><ele>161.2</ele><time>2026-05-03T16:47:52.463Z</time></trkpt><trkpt lat="44.0286076" lon="8.0416086"><ele>162.4</ele><time>2026-05-03T16:47:53.46Z</time></trkpt><trkpt lat="44.0286432" lon="8.0414732"><ele>163.60000000000002</ele><time>2026-05-03T16:47:55.461Z</time></trkpt><trkpt lat="44.0287006" lon="8.0413956"><ele>164.8</ele><time>2026-05-03T16:47:56.461Z</time></trkpt><trkpt lat="44.0287692" lon="8.0413322"><ele>166.0</ele><time>2026-05-03T16:47:57.459Z</time></trkpt><trkpt lat="44.0288204" lon="8.0411628"><ele>166.0</ele><time>2026-05-03T16:47:59.46Z</time></trkpt><trkpt lat="44.0288277" lon="8.0410676"><ele>166.0</ele><time>2026-05-03T16:48:00.459Z</time></trkpt><trkpt lat="44.028812" lon="8.0409477"><ele>166.0</ele><time>2026-05-03T16:48:01.458Z</time></trkpt><trkpt lat="44.0287537" lon="8.0408343"><ele>166.0</ele><time>2026-05-03T16:48:02.466Z</time></trkpt><trkpt lat="44.0286959" lon="8.0407278"><ele>166.0</ele><time>2026-05-03T16:48:03.461Z</time></trkpt><trkpt lat="44.0286295" lon="8.0405922"><ele>165.8</ele><time>2026-05-03T16:48:04.462Z</time></trkpt><trkpt lat="44.0285778" lon="8.0404486"><ele>165.60000000000002</ele><time>2026-05-03T16:48:05.461Z</time></trkpt><trkpt lat="44.0285274" lon="8.0403132"><ele>165.4</ele><time>2026-05-03T16:48:06.462Z</time></trkpt><trkpt lat="44.0284903" lon="8.040191"><ele>165.2</ele><time>2026-05-03T16:48:07.462Z</time></trkpt><trkpt lat="44.0284748" lon="8.0400705"><ele>165.0</ele><time>2026-05-03T16:48:08.46Z</time></trkpt><trkpt lat="44.0284766" lon="8.0399472"><ele>165.0</ele><time>2026-05-03T16:48:09.462Z</time></trkpt><trkpt lat="44.0284819" lon="8.0398288"><ele>165.0</ele><time>2026-05-03T16:48:10.464Z</time></trkpt><trkpt lat="44.0285029" lon="8.0397026"><ele>165.0</ele><time>2026-05-03T16:48:11.461Z</time></trkpt><trkpt lat="44.0285377" lon="8.0395677"><ele>165.0</ele><time>2026-05-03T16:48:12.461Z</time></trkpt><trkpt lat="44.0285657" lon="8.0394091"><ele>165.0</ele><time>2026-05-03T16:48:13.466Z</time></trkpt><trkpt lat="44.0286038" lon="8.0392187"><ele>165.0</ele><time>2026-05-03T16:48:14.465Z</time></trkpt><trkpt lat="44.0286388" lon="8.039041"><ele>165.0</ele><time>2026-05-03T16:48:15.463Z</time></trkpt><trkpt lat="44.0286788" lon="8.038854"><ele>165.0</ele><time>2026-05-03T16:48:16.461Z</time></trkpt><trkpt lat="44.0287044" lon="8.0386586"><ele>165.0</ele><time>2026-05-03T16:48:17.462Z</time></trkpt><trkpt lat="44.0287198" lon="8.0384673"><ele>165.4</ele><time>2026-05-03T16:48:18.462Z</time></trkpt><trkpt lat="44.0287452" lon="8.0382866"><ele>165.8</ele><time>2026-05-03T16:48:19.463Z</time></trkpt><trkpt lat="44.0287747" lon="8.0381294"><ele>166.2</ele><time>2026-05-03T16:48:20.461Z</time></trkpt><trkpt lat="44.0288082" lon="8.0380046"><ele>166.6</ele><time>2026-05-03T16:48:21.466Z</time></trkpt><trkpt lat="44.0288533" lon="8.0379108"><ele>167.0</ele><time>2026-05-03T16:48:22.461Z</time></trkpt><trkpt lat="44.0288999" lon="8.0378032"><ele>167.0</ele><time>2026-05-03T16:48:23.462Z</time></trkpt><trkpt lat="44.0289798" lon="8.037699"><ele>167.0</ele><time>2026-05-03T16:48:24.464Z</time></trkpt><trkpt lat="44.0290214" lon="8.0375883"><ele>167.0</ele><time>2026-05-03T16:48:25.462Z</time></trkpt><trkpt lat="44.0290543" lon="8.0374714"><ele>167.0</ele><time>2026-05-03T16:48:26.462Z</time></trkpt><trkpt lat="44.0290479" lon="8.037297"><ele>167.0</ele><time>2026-05-03T16:48:27.46Z</time></trkpt><trkpt lat="44.0290332" lon="8.0371444"><ele>167.5</ele><time>2026-05-03T16:48:28.463Z</time></trkpt><trkpt lat="44.0290021" lon="8.0369849"><ele>168.0</ele><time>2026-05-03T16:48:29.463Z</time></trkpt><trkpt lat="44.028958" lon="8.0368029"><ele>168.5</ele><time>2026-05-03T16:48:30.458Z</time></trkpt><trkpt lat="44.0289112" lon="8.0366345"><ele>169.0</ele><time>2026-05-03T16:48:31.463Z</time></trkpt><trkpt lat="44.0288549" lon="8.0364534"><ele>170.0</ele><time>2026-05-03T16:48:32.46Z</time></trkpt><trkpt lat="44.0287988" lon="8.0362735"><ele>171.0</ele><time>2026-05-03T16:48:33.462Z</time></trkpt><trkpt lat="44.0287538" lon="8.0360868"><ele>172.0</ele><time>2026-05-03T16:48:34.462Z</time></trkpt><trkpt lat="44.0287157" lon="8.035895"><ele>173.0</ele><time>2026-05-03T16:48:35.464Z</time></trkpt><trkpt lat="44.0286763" lon="8.0357202"><ele>173.75</ele><time>2026-05-03T16:48:36.461Z</time></trkpt><trkpt lat="44.0286465" lon="8.0355285"><ele>174.5</ele><time>2026-05-03T16:48:37.463Z</time></trkpt><trkpt lat="44.0286121" lon="8.0353517"><ele>175.25</ele><time>2026-05-03T16:48:38.459Z</time></trkpt><trkpt lat="44.0285919" lon="8.0351668"><ele>176.0</ele><time>2026-05-03T16:48:39.461Z</time></trkpt><trkpt lat="44.0285673" lon="8.0349545"><ele>176.0</ele><time>2026-05-03T16:48:40.464Z</time></trkpt><trkpt lat="44.0285553" lon="8.0347338"><ele>176.0</ele><time>2026-05-03T16:48:41.464Z</time></trkpt><trkpt lat="44.0285349" lon="8.0345047"><ele>176.0</ele><time>2026-05-03T16:48:42.461Z</time></trkpt><trkpt lat="44.0285186" lon="8.0342955"><ele>175.75</ele><time>2026-05-03T16:48:43.461Z</time></trkpt><trkpt lat="44.0285096" lon="8.034109"><ele>175.5</ele><time>2026-05-03T16:48:44.46Z</time></trkpt><trkpt lat="44.0284999" lon="8.033909"><ele>175.25</ele><time>2026-05-03T16:48:45.461Z</time></trkpt><trkpt lat="44.0284897" lon="8.0337357"><ele>175.0</ele><time>2026-05-03T16:48:46.463Z</time></trkpt><trkpt lat="44.0284762" lon="8.033567"><ele>175.0</ele><time>2026-05-03T16:48:47.464Z</time></trkpt><trkpt lat="44.0284605" lon="8.0333918"><ele>175.0</ele><time>2026-05-03T16:48:48.466Z</time></trkpt><trkpt lat="44.0284466" lon="8.0332278"><ele>175.0</ele><time>2026-05-03T16:48:49.46Z</time></trkpt><trkpt lat="44.0284485" lon="8.0330724"><ele>175.0</ele><time>2026-05-03T16:48:50.46Z</time></trkpt><trkpt lat="44.0284528" lon="8.0329112"><ele>174.8</ele><time>2026-05-03T16:48:51.462Z</time></trkpt><trkpt lat="44.0284708" lon="8.0327569"><ele>174.6</ele><time>2026-05-03T16:48:52.459Z</time></trkpt><trkpt lat="44.0285203" lon="8.0326117"><ele>174.39999999999998</ele><time>2026-05-03T16:48:53.46Z</time></trkpt><trkpt lat="44.0285619" lon="8.0324844"><ele>174.2</ele><time>2026-05-03T16:48:54.462Z</time></trkpt><trkpt lat="44.0285907" lon="8.0323676"><ele>174.0</ele><time>2026-05-03T16:48:55.464Z</time></trkpt><trkpt lat="44.028612" lon="8.0322124"><ele>174.0</ele><time>2026-05-03T16:48:56.46Z</time></trkpt><trkpt lat="44.0286205" lon="8.0320335"><ele>174.0</ele><time>2026-05-03T16:48:57.462Z</time></trkpt><trkpt lat="44.0286156" lon="8.0318392"><ele>174.0</ele><time>2026-05-03T16:48:58.46Z</time></trkpt><trkpt lat="44.0286163" lon="8.0316588"><ele>174.0</ele><time>2026-05-03T16:48:59.464Z</time></trkpt><trkpt lat="44.028618" lon="8.0314611"><ele>174.0</ele><time>2026-05-03T16:49:00.459Z</time></trkpt><trkpt lat="44.0286184" lon="8.0312759"><ele>174.0</ele><time>2026-05-03T16:49:01.461Z</time></trkpt><trkpt lat="44.0286103" lon="8.0310987"><ele>174.0</ele><time>2026-05-03T16:49:02.46Z</time></trkpt><trkpt lat="44.0286007" lon="8.0309304"><ele>174.0</ele><time>2026-05-03T16:49:03.461Z</time></trkpt><trkpt lat="44.0285833" lon="8.0307792"><ele>174.0</ele><time>2026-05-03T16:49:04.46Z</time></trkpt><trkpt lat="44.0285674" lon="8.0306241"><ele>174.0</ele><time>2026-05-03T16:49:05.462Z</time></trkpt><trkpt lat="44.0285458" lon="8.0304827"><ele>174.0</ele><time>2026-05-03T16:49:06.461Z</time></trkpt><trkpt lat="44.0285266" lon="8.0303435"><ele>174.0</ele><time>2026-05-03T16:49:07.463Z</time></trkpt><trkpt lat="44.0285145" lon="8.0302278"><ele>174.0</ele><time>2026-05-03T16:49:08.464Z</time></trkpt><trkpt lat="44.0285032" lon="8.0301212"><ele>174.0</ele><time>2026-05-03T16:49:09.462Z</time></trkpt><trkpt lat="44.0284898" lon="8.03"><ele>174.0</ele><time>2026-05-03T16:49:10.459Z</time></trkpt><trkpt lat="44.0284785" lon="8.029894"><ele>174.0</ele><time>2026-05-03T16:49:11.463Z</time></trkpt><trkpt lat="44.0284717" lon="8.029738"><ele>174.0</ele><time>2026-05-03T16:49:13.46Z</time></trkpt><trkpt lat="44.0284711" lon="8.0296044"><ele>174.0</ele><time>2026-05-03T16:49:15.463Z</time></trkpt><trkpt lat="44.0284849" lon="8.0294592"><ele>174.6</ele><time>2026-05-03T16:49:17.46Z</time></trkpt><trkpt lat="44.0284836" lon="8.029337"><ele>175.2</ele><time>2026-05-03T16:49:18.46Z</time></trkpt><trkpt lat="44.0284754" lon="8.0292009"><ele>175.79999999999998</ele><time>2026-05-03T16:49:19.465Z</time></trkpt><trkpt lat="44.0284593" lon="8.0290699"><ele>176.39999999999998</ele><time>2026-05-03T16:49:20.46Z</time></trkpt><trkpt lat="44.028425" lon="8.0289508"><ele>177.0</ele><time>2026-05-03T16:49:21.46Z</time></trkpt><trkpt lat="44.0283697" lon="8.0288046"><ele>177.39999999999998</ele><time>2026-05-03T16:49:22.46Z</time></trkpt><trkpt lat="44.0283137" lon="8.0286775"><ele>177.79999999999998</ele><time>2026-05-03T16:49:23.461Z</time></trkpt><trkpt lat="44.0282671" lon="8.0285488"><ele>178.2</ele><time>2026-05-03T16:49:24.462Z</time></trkpt><trkpt lat="44.0282454" lon="8.0284318"><ele>178.6</ele><time>2026-05-03T16:49:25.462Z</time></trkpt><trkpt lat="44.028229" lon="8.0283045"><ele>179.0</ele><time>2026-05-03T16:49:26.463Z</time></trkpt><trkpt lat="44.0282741" lon="8.0281263"><ele>180.5</ele><time>2026-05-03T16:49:27.466Z</time></trkpt><trkpt lat="44.0283095" lon="8.0279545"><ele>182.0</ele><time>2026-05-03T16:49:28.46Z</time></trkpt><trkpt lat="44.0283589" lon="8.0277808"><ele>183.5</ele><time>2026-05-03T16:49:29.46Z</time></trkpt><trkpt lat="44.0284145" lon="8.0276136"><ele>185.0</ele><time>2026-05-03T16:49:30.464Z</time></trkpt><trkpt lat="44.0284631" lon="8.0274517"><ele>186.5</ele><time>2026-05-03T16:49:31.458Z</time></trkpt><trkpt lat="44.028522" lon="8.027288"><ele>188.0</ele><time>2026-05-03T16:49:32.462Z</time></trkpt><trkpt lat="44.0285707" lon="8.0271395"><ele>189.5</ele><time>2026-05-03T16:49:33.463Z</time></trkpt><trkpt lat="44.0286289" lon="8.0269848"><ele>191.0</ele><time>2026-05-03T16:49:34.462Z</time></trkpt><trkpt lat="44.0286756" lon="8.0268376"><ele>191.0</ele><time>2026-05-03T16:49:35.464Z</time></trkpt><trkpt lat="44.0287278" lon="8.0266944"><ele>191.0</ele><time>2026-05-03T16:49:36.46Z</time></trkpt><trkpt lat="44.028768" lon="8.0265639"><ele>191.0</ele><time>2026-05-03T16:49:37.46Z</time></trkpt><trkpt lat="44.0287972" lon="8.0264255"><ele>191.0</ele><time>2026-05-03T16:49:38.46Z</time></trkpt><trkpt lat="44.028775" lon="8.0262735"><ele>191.0</ele><time>2026-05-03T16:49:39.461Z</time></trkpt><trkpt lat="44.0287577" lon="8.0261173"><ele>191.60000000000002</ele><time>2026-05-03T16:49:40.462Z</time></trkpt><trkpt lat="44.0287173" lon="8.0259901"><ele>192.2</ele><time>2026-05-03T16:49:41.462Z</time></trkpt><trkpt lat="44.0286733" lon="8.0258637"><ele>192.8</ele><time>2026-05-03T16:49:42.465Z</time></trkpt><trkpt lat="44.0286215" lon="8.0257405"><ele>193.39999999999998</ele><time>2026-05-03T16:49:43.463Z</time></trkpt><trkpt lat="44.0285272" lon="8.0256308"><ele>194.0</ele><time>2026-05-03T16:49:44.463Z</time></trkpt><trkpt lat="44.0284612" lon="8.0255519"><ele>194.75</ele><time>2026-05-03T16:49:45.46Z</time></trkpt><trkpt lat="44.0283733" lon="8.0255"><ele>195.5</ele><time>2026-05-03T16:49:46.466Z</time></trkpt><trkpt lat="44.0282501" lon="8.0254551"><ele>196.25</ele><time>2026-05-03T16:49:47.46Z</time></trkpt><trkpt lat="44.0281256" lon="8.0254268"><ele>197.0</ele><time>2026-05-03T16:49:48.459Z</time></trkpt><trkpt lat="44.0280189" lon="8.0254117"><ele>197.00000000000003</ele><time>2026-05-03T16:49:49.465Z</time></trkpt><trkpt lat="44.027933" lon="8.0253807"><ele>197.0</ele><time>2026-05-03T16:49:50.464Z</time></trkpt><trkpt lat="44.0278417" lon="8.0253549"><ele>197.0</ele><time>2026-05-03T16:49:51.462Z</time></trkpt><trkpt lat="44.0277451" lon="8.0253158"><ele>197.0</ele><time>2026-05-03T16:49:52.463Z</time></trkpt><trkpt lat="44.0276877" lon="8.025241"><ele>197.00000000000003</ele><time>2026-05-03T16:49:53.461Z</time></trkpt><trkpt lat="44.0276286" lon="8.0251697"><ele>197.0</ele><time>2026-05-03T16:49:54.46Z</time></trkpt><trkpt lat="44.0275884" lon="8.0250775"><ele>199.5</ele><time>2026-05-03T16:49:55.463Z</time></trkpt><trkpt lat="44.0275753" lon="8.0249384"><ele>202.0</ele><time>2026-05-03T16:49:56.46Z</time></trkpt><trkpt lat="44.027557" lon="8.024776"><ele>204.5</ele><time>2026-05-03T16:49:57.462Z</time></trkpt><trkpt lat="44.0275727" lon="8.0245965"><ele>207.0</ele><time>2026-05-03T16:49:58.468Z</time></trkpt><trkpt lat="44.0276181" lon="8.0244426"><ele>207.0</ele><time>2026-05-03T16:49:59.46Z</time></trkpt><trkpt lat="44.0276462" lon="8.0243043"><ele>207.0</ele><time>2026-05-03T16:50:00.461Z</time></trkpt><trkpt lat="44.0277169" lon="8.0241736"><ele>207.0</ele><time>2026-05-03T16:50:01.459Z</time></trkpt><trkpt lat="44.0277888" lon="8.0240639"><ele>207.0</ele><time>2026-05-03T16:50:02.459Z</time></trkpt><trkpt lat="44.0278279" lon="8.023945"><ele>207.0</ele><time>2026-05-03T16:50:03.46Z</time></trkpt><trkpt lat="44.0278468" lon="8.0237797"><ele>206.5</ele><time>2026-05-03T16:50:04.461Z</time></trkpt><trkpt lat="44.0278669" lon="8.0236069"><ele>206.0</ele><time>2026-05-03T16:50:05.459Z</time></trkpt><trkpt lat="44.0278677" lon="8.0234382"><ele>205.5</ele><time>2026-05-03T16:50:06.465Z</time></trkpt><trkpt lat="44.0278831" lon="8.0232783"><ele>205.0</ele><time>2026-05-03T16:50:07.46Z</time></trkpt><trkpt lat="44.0279047" lon="8.0231313"><ele>204.75</ele><time>2026-05-03T16:50:08.46Z</time></trkpt><trkpt lat="44.0279123" lon="8.0229803"><ele>204.5</ele><time>2026-05-03T16:50:09.46Z</time></trkpt><trkpt lat="44.0279026" lon="8.0228251"><ele>204.25</ele><time>2026-05-03T16:50:10.464Z</time></trkpt><trkpt lat="44.0278955" lon="8.0226622"><ele>204.0</ele><time>2026-05-03T16:50:11.466Z</time></trkpt><trkpt lat="44.0278972" lon="8.0225034"><ele>207.2</ele><time>2026-05-03T16:50:12.462Z</time></trkpt><trkpt lat="44.0278813" lon="8.0223741"><ele>210.39999999999998</ele><time>2026-05-03T16:50:13.461Z</time></trkpt><trkpt lat="44.0279011" lon="8.0222468"><ele>213.6</ele><time>2026-05-03T16:50:14.459Z</time></trkpt><trkpt lat="44.0278852" lon="8.0221221"><ele>216.8</ele><time>2026-05-03T16:50:15.462Z</time></trkpt><trkpt lat="44.0278649" lon="8.0219923"><ele>220.0</ele><time>2026-05-03T16:50:16.462Z</time></trkpt><trkpt lat="44.0277852" lon="8.0218304"><ele>220.0</ele><time>2026-05-03T16:50:17.464Z</time></trkpt><trkpt lat="44.0277333" lon="8.021689"><ele>220.0</ele><time>2026-05-03T16:50:18.464Z</time></trkpt><trkpt lat="44.0276421" lon="8.0215779"><ele>220.0</ele><time>2026-05-03T16:50:19.462Z</time></trkpt><trkpt lat="44.027548" lon="8.0214933"><ele>220.0</ele><time>2026-05-03T16:50:20.464Z</time></trkpt><trkpt lat="44.0274649" lon="8.0214191"><ele>220.0</ele><time>2026-05-03T16:50:21.459Z</time></trkpt><trkpt lat="44.0273826" lon="8.0213432"><ele>219.8</ele><time>2026-05-03T16:50:22.46Z</time></trkpt><trkpt lat="44.027305" lon="8.0212772"><ele>219.6</ele><time>2026-05-03T16:50:23.46Z</time></trkpt><trkpt lat="44.0272163" lon="8.0212028"><ele>219.39999999999998</ele><time>2026-05-03T16:50:24.459Z</time></trkpt><trkpt lat="44.0271305" lon="8.0211215"><ele>219.2</ele><time>2026-05-03T16:50:25.461Z</time></trkpt><trkpt lat="44.0270457" lon="8.0210399"><ele>219.0</ele><time>2026-05-03T16:50:26.46Z</time></trkpt><trkpt lat="44.0269708" lon="8.0209156"><ele>222.0</ele><time>2026-05-03T16:50:27.462Z</time></trkpt><trkpt lat="44.026912" lon="8.0207967"><ele>225.0</ele><time>2026-05-03T16:50:28.461Z</time></trkpt><trkpt lat="44.0268515" lon="8.0206656"><ele>228.0</ele><time>2026-05-03T16:50:29.461Z</time></trkpt><trkpt lat="44.0267965" lon="8.020526"><ele>231.0</ele><time>2026-05-03T16:50:30.459Z</time></trkpt><trkpt lat="44.0267253" lon="8.0203699"><ele>231.0</ele><time>2026-05-03T16:50:31.462Z</time></trkpt><trkpt lat="44.0266509" lon="8.0202314"><ele>231.00000000000003</ele><time>2026-05-03T16:50:32.459Z</time></trkpt><trkpt lat="44.026564" lon="8.0201257"><ele>231.00000000000003</ele><time>2026-05-03T16:50:33.46Z</time></trkpt><trkpt lat="44.0264838" lon="8.0200285"><ele>231.0</ele><time>2026-05-03T16:50:34.46Z</time></trkpt><trkpt lat="44.0264089" lon="8.0199562"><ele>231.0</ele><time>2026-05-03T16:50:35.459Z</time></trkpt><trkpt lat="44.0263398" lon="8.0198829"><ele>227.83333333333334</ele><time>2026-05-03T16:50:36.463Z</time></trkpt><trkpt lat="44.0262913" lon="8.019809"><ele>224.66666666666669</ele><time>2026-05-03T16:50:37.462Z</time></trkpt><trkpt lat="44.026285" lon="8.0196857"><ele>221.5</ele><time>2026-05-03T16:50:39.465Z</time></trkpt><trkpt lat="44.0263809" lon="8.0196539"><ele>218.33333333333334</ele><time>2026-05-03T16:50:41.47Z</time></trkpt><trkpt lat="44.0264457" lon="8.019661"><ele>215.16666666666669</ele><time>2026-05-03T16:50:42.462Z</time></trkpt><trkpt lat="44.0265392" lon="8.0196449"><ele>212.0</ele><time>2026-05-03T16:50:43.463Z</time></trkpt><trkpt lat="44.0266357" lon="8.0196218"><ele>212.0</ele><time>2026-05-03T16:50:44.469Z</time></trkpt><trkpt lat="44.0267026" lon="8.0195997"><ele>212.0</ele><time>2026-05-03T16:50:45.461Z</time></trkpt><trkpt lat="44.0267896" lon="8.0195164"><ele>212.0</ele><time>2026-05-03T16:50:47.462Z</time></trkpt><trkpt lat="44.0267798" lon="8.0193801"><ele>212.0</ele><time>2026-05-03T16:50:49.464Z</time></trkpt><trkpt lat="44.0266588" lon="8.0192824"><ele>212.0</ele><time>2026-05-03T16:50:51.468Z</time></trkpt><trkpt lat="44.0266084" lon="8.0192072"><ele>212.33333333333334</ele><time>2026-05-03T16:50:52.464Z</time></trkpt><trkpt lat="44.0265586" lon="8.0191141"><ele>212.66666666666669</ele><time>2026-05-03T16:50:53.464Z</time></trkpt><trkpt lat="44.0265179" lon="8.0190255"><ele>213.0</ele><time>2026-05-03T16:50:54.46Z</time></trkpt><trkpt lat="44.0265029" lon="8.0189098"><ele>213.33333333333331</ele><time>2026-05-03T16:50:55.462Z</time></trkpt><trkpt lat="44.0264909" lon="8.0187977"><ele>213.66666666666666</ele><time>2026-05-03T16:50:56.46Z</time></trkpt><trkpt lat="44.0264786" lon="8.0186827"><ele>214.0</ele><time>2026-05-03T16:50:57.46Z</time></trkpt><trkpt lat="44.0264685" lon="8.0185721"><ele>213.99999999999997</ele><time>2026-05-03T16:50:58.465Z</time></trkpt><trkpt lat="44.0264645" lon="8.0184582"><ele>214.0</ele><time>2026-05-03T16:50:59.463Z</time></trkpt><trkpt lat="44.026476" lon="8.0183548"><ele>214.0</ele><time>2026-05-03T16:51:00.46Z</time></trkpt><trkpt lat="44.0264813" lon="8.0182388"><ele>214.0</ele><time>2026-05-03T16:51:01.462Z</time></trkpt><trkpt lat="44.0264952" lon="8.0181234"><ele>213.99999999999997</ele><time>2026-05-03T16:51:02.459Z</time></trkpt><trkpt lat="44.0265115" lon="8.0180184"><ele>214.0</ele><time>2026-05-03T16:51:03.461Z</time></trkpt><trkpt lat="44.0265254" lon="8.0178588"><ele>214.2</ele><time>2026-05-03T16:51:04.461Z</time></trkpt><trkpt lat="44.0265406" lon="8.0177121"><ele>214.39999999999998</ele><time>2026-05-03T16:51:05.461Z</time></trkpt><trkpt lat="44.026535" lon="8.0175701"><ele>214.6</ele><time>2026-05-03T16:51:06.461Z</time></trkpt><trkpt lat="44.0265328" lon="8.0174171"><ele>214.8</ele><time>2026-05-03T16:51:07.461Z</time></trkpt><trkpt lat="44.0265253" lon="8.017258"><ele>215.0</ele><time>2026-05-03T16:51:08.462Z</time></trkpt><trkpt lat="44.0265236" lon="8.0171151"><ele>215.0</ele><time>2026-05-03T16:51:09.462Z</time></trkpt><trkpt lat="44.0265303" lon="8.0169741"><ele>215.0</ele><time>2026-05-03T16:51:10.459Z</time></trkpt><trkpt lat="44.0265339" lon="8.0168462"><ele>215.0</ele><time>2026-05-03T16:51:11.462Z</time></trkpt><trkpt lat="44.0265206" lon="8.0167323"><ele>215.0</ele><time>2026-05-03T16:51:12.459Z</time></trkpt><trkpt lat="44.0264975" lon="8.0166149"><ele>215.0</ele><time>2026-05-03T16:51:13.462Z</time></trkpt><trkpt lat="44.0264638" lon="8.0164926"><ele>216.2</ele><time>2026-05-03T16:51:14.46Z</time></trkpt><trkpt lat="44.0264164" lon="8.0163714"><ele>217.4</ele><time>2026-05-03T16:51:15.459Z</time></trkpt><trkpt lat="44.0263726" lon="8.0162285"><ele>218.60000000000002</ele><time>2026-05-03T16:51:16.46Z</time></trkpt><trkpt lat="44.0263562" lon="8.0160869"><ele>219.8</ele><time>2026-05-03T16:51:17.461Z</time></trkpt><trkpt lat="44.0263373" lon="8.0159608"><ele>221.0</ele><time>2026-05-03T16:51:18.461Z</time></trkpt><trkpt lat="44.0263134" lon="8.0158399"><ele>225.60000000000002</ele><time>2026-05-03T16:51:19.46Z</time></trkpt><trkpt lat="44.0262785" lon="8.0157209"><ele>230.20000000000002</ele><time>2026-05-03T16:51:20.46Z</time></trkpt><trkpt lat="44.0262329" lon="8.0155989"><ele>234.79999999999998</ele><time>2026-05-03T16:51:21.459Z</time></trkpt><trkpt lat="44.0261704" lon="8.0154685"><ele>239.39999999999998</ele><time>2026-05-03T16:51:22.461Z</time></trkpt><trkpt lat="44.0261045" lon="8.0153593"><ele>244.0</ele><time>2026-05-03T16:51:23.459Z</time></trkpt><trkpt lat="44.0260236" lon="8.0152676"><ele>244.0</ele><time>2026-05-03T16:51:24.46Z</time></trkpt><trkpt lat="44.0259403" lon="8.0151977"><ele>243.99999999999997</ele><time>2026-05-03T16:51:25.46Z</time></trkpt><trkpt lat="44.025884" lon="8.015146"><ele>243.99999999999997</ele><time>2026-05-03T16:51:26.463Z</time></trkpt><trkpt lat="44.0257962" lon="8.015069"><ele>244.0</ele><time>2026-05-03T16:51:27.461Z</time></trkpt><trkpt lat="44.0256922" lon="8.0149847"><ele>244.0</ele><time>2026-05-03T16:51:28.467Z</time></trkpt><trkpt lat="44.0255843" lon="8.0149478"><ele>243.6</ele><time>2026-05-03T16:51:29.462Z</time></trkpt><trkpt lat="44.025503" lon="8.0148758"><ele>243.2</ele><time>2026-05-03T16:51:30.459Z</time></trkpt><trkpt lat="44.0254212" lon="8.0147867"><ele>242.79999999999998</ele><time>2026-05-03T16:51:31.461Z</time></trkpt><trkpt lat="44.025345" lon="8.0147206"><ele>242.39999999999998</ele><time>2026-05-03T16:51:32.461Z</time></trkpt><trkpt lat="44.0252517" lon="8.0147107"><ele>242.0</ele><time>2026-05-03T16:51:33.461Z</time></trkpt><trkpt lat="44.0251591" lon="8.0146921"><ele>242.0</ele><time>2026-05-03T16:51:34.461Z</time></trkpt><trkpt lat="44.02509" lon="8.0146658"><ele>241.99999999999997</ele><time>2026-05-03T16:51:35.461Z</time></trkpt><trkpt lat="44.0250259" lon="8.0146457"><ele>242.0</ele><time>2026-05-03T16:51:36.462Z</time></trkpt><trkpt lat="44.0249773" lon="8.0145202"><ele>242.0</ele><time>2026-05-03T16:51:38.464Z</time></trkpt><trkpt lat="44.024954" lon="8.0144314"><ele>241.99999999999997</ele><time>2026-05-03T16:51:39.465Z</time></trkpt><trkpt lat="44.0249646" lon="8.0143278"><ele>242.0</ele><time>2026-05-03T16:51:40.46Z</time></trkpt><trkpt lat="44.0249645" lon="8.0142358"><ele>242.0</ele><time>2026-05-03T16:51:41.461Z</time></trkpt><trkpt lat="44.0249027" lon="8.0141118"><ele>241.39999999999998</ele><time>2026-05-03T16:51:43.465Z</time></trkpt><trkpt lat="44.0248066" lon="8.0140754"><ele>240.79999999999998</ele><time>2026-05-03T16:51:45.46Z</time></trkpt><trkpt lat="44.0247302" lon="8.0140343"><ele>240.2</ele><time>2026-05-03T16:51:46.46Z</time></trkpt><trkpt lat="44.0246823" lon="8.0139417"><ele>239.6</ele><time>2026-05-03T16:51:47.462Z</time></trkpt><trkpt lat="44.0246188" lon="8.0138599"><ele>239.0</ele><time>2026-05-03T16:51:48.462Z</time></trkpt><trkpt lat="44.0245801" lon="8.0137162"><ele>239.0</ele><time>2026-05-03T16:51:49.459Z</time></trkpt><trkpt lat="44.0245405" lon="8.0135966"><ele>238.99999999999997</ele><time>2026-05-03T16:51:50.461Z</time></trkpt><trkpt lat="44.0245016" lon="8.0134661"><ele>238.99999999999997</ele><time>2026-05-03T16:51:51.46Z</time></trkpt><trkpt lat="44.0244486" lon="8.0133457"><ele>239.0</ele><time>2026-05-03T16:51:52.463Z</time></trkpt><trkpt lat="44.0244073" lon="8.0132225"><ele>239.0</ele><time>2026-05-03T16:51:53.464Z</time></trkpt><trkpt lat="44.0243653" lon="8.013095"><ele>237.79999999999998</ele><time>2026-05-03T16:51:54.459Z</time></trkpt><trkpt lat="44.0243187" lon="8.0129683"><ele>236.59999999999997</ele><time>2026-05-03T16:51:55.463Z</time></trkpt><trkpt lat="44.0242685" lon="8.0128419"><ele>235.4</ele><time>2026-05-03T16:51:56.462Z</time></trkpt><trkpt lat="44.0242423" lon="8.012735"><ele>234.2</ele><time>2026-05-03T16:51:57.463Z</time></trkpt><trkpt lat="44.0241991" lon="8.0126132"><ele>233.0</ele><time>2026-05-03T16:51:58.464Z</time></trkpt><trkpt lat="44.0241408" lon="8.0125252"><ele>235.4</ele><time>2026-05-03T16:51:59.463Z</time></trkpt><trkpt lat="44.0240809" lon="8.0124303"><ele>237.8</ele><time>2026-05-03T16:52:00.459Z</time></trkpt><trkpt lat="44.0240177" lon="8.0123327"><ele>240.2</ele><time>2026-05-03T16:52:01.46Z</time></trkpt><trkpt lat="44.0239525" lon="8.0122244"><ele>242.6</ele><time>2026-05-03T16:52:02.458Z</time></trkpt><trkpt lat="44.0238964" lon="8.0121213"><ele>245.0</ele><time>2026-05-03T16:52:03.462Z</time></trkpt><trkpt lat="44.0238456" lon="8.0120269"><ele>245.00000000000003</ele><time>2026-05-03T16:52:04.463Z</time></trkpt><trkpt lat="44.0237866" lon="8.0119493"><ele>245.0</ele><time>2026-05-03T16:52:05.467Z</time></trkpt><trkpt lat="44.0237412" lon="8.0118731"><ele>245.0</ele><time>2026-05-03T16:52:06.461Z</time></trkpt><trkpt lat="44.0236976" lon="8.0118095"><ele>245.0</ele><time>2026-05-03T16:52:07.463Z</time></trkpt><trkpt lat="44.023701" lon="8.0117162"><ele>245.00000000000003</ele><time>2026-05-03T16:52:08.463Z</time></trkpt><trkpt lat="44.0237412" lon="8.0115897"><ele>245.0</ele><time>2026-05-03T16:52:10.461Z</time></trkpt><trkpt lat="44.0238124" lon="8.0114453"><ele>246.8</ele><time>2026-05-03T16:52:12.462Z</time></trkpt><trkpt lat="44.0239133" lon="8.0113611"><ele>248.6</ele><time>2026-05-03T16:52:13.461Z</time></trkpt><trkpt lat="44.0239955" lon="8.0113164"><ele>250.39999999999998</ele><time>2026-05-03T16:52:14.46Z</time></trkpt><trkpt lat="44.0240848" lon="8.0112559"><ele>252.2</ele><time>2026-05-03T16:52:15.462Z</time></trkpt><trkpt lat="44.0241644" lon="8.0112268"><ele>254.0</ele><time>2026-05-03T16:52:16.466Z</time></trkpt><trkpt lat="44.0242306" lon="8.0111995"><ele>256.0</ele><time>2026-05-03T16:52:17.465Z</time></trkpt><trkpt lat="44.0243154" lon="8.011118"><ele>258.0</ele><time>2026-05-03T16:52:19.461Z</time></trkpt><trkpt lat="44.0243384" lon="8.0109956"><ele>260.0</ele><time>2026-05-03T16:52:21.463Z</time></trkpt><trkpt lat="44.0242477" lon="8.010862"><ele>262.0</ele><time>2026-05-03T16:52:23.466Z</time></trkpt><trkpt lat="44.0241882" lon="8.0107688"><ele>264.0</ele><time>2026-05-03T16:52:24.459Z</time></trkpt><trkpt lat="44.0241206" lon="8.0106912"><ele>264.0</ele><time>2026-05-03T16:52:25.462Z</time></trkpt><trkpt lat="44.0240074" lon="8.0106129"><ele>264.0</ele><time>2026-05-03T16:52:26.461Z</time></trkpt><trkpt lat="44.023955" lon="8.0105535"><ele>264.0</ele><time>2026-05-03T16:52:27.46Z</time></trkpt><trkpt lat="44.0238823" lon="8.0104998"><ele>264.0</ele><time>2026-05-03T16:52:28.462Z</time></trkpt><trkpt lat="44.0238502" lon="8.0104222"><ele>264.0</ele><time>2026-05-03T16:52:29.467Z</time></trkpt><trkpt lat="44.0238158" lon="8.0103285"><ele>264.0</ele><time>2026-05-03T16:52:30.461Z</time></trkpt><trkpt lat="44.0237841" lon="8.0102208"><ele>264.0</ele><time>2026-05-03T16:52:31.46Z</time></trkpt><trkpt lat="44.0237515" lon="8.0101052"><ele>264.0</ele><time>2026-05-03T16:52:32.459Z</time></trkpt><trkpt lat="44.0237137" lon="8.0100234"><ele>264.0</ele><time>2026-05-03T16:52:33.459Z</time></trkpt><trkpt lat="44.0236663" lon="8.0099356"><ele>264.0</ele><time>2026-05-03T16:52:34.465Z</time></trkpt><trkpt lat="44.0236366" lon="8.0098584"><ele>264.0</ele><time>2026-05-03T16:52:35.461Z</time></trkpt><trkpt lat="44.0236297" lon="8.0097579"><ele>264.0</ele><time>2026-05-03T16:52:36.461Z</time></trkpt><trkpt lat="44.023634" lon="8.0096498"><ele>264.8</ele><time>2026-05-03T16:52:37.463Z</time></trkpt><trkpt lat="44.0236481" lon="8.0095261"><ele>265.59999999999997</ele><time>2026-05-03T16:52:38.46Z</time></trkpt><trkpt lat="44.0236643" lon="8.0094005"><ele>266.4</ele><time>2026-05-03T16:52:39.465Z</time></trkpt><trkpt lat="44.0236992" lon="8.0092418"><ele>267.2</ele><time>2026-05-03T16:52:40.459Z</time></trkpt><trkpt lat="44.0237063" lon="8.0090972"><ele>268.0</ele><time>2026-05-03T16:52:41.468Z</time></trkpt><trkpt lat="44.023707" lon="8.0089593"><ele>271.4</ele><time>2026-05-03T16:52:42.463Z</time></trkpt><trkpt lat="44.0237004" lon="8.008829"><ele>274.8</ele><time>2026-05-03T16:52:43.46Z</time></trkpt><trkpt lat="44.0236902" lon="8.0087149"><ele>278.2</ele><time>2026-05-03T16:52:44.461Z</time></trkpt><trkpt lat="44.0236914" lon="8.0086019"><ele>281.6</ele><time>2026-05-03T16:52:45.467Z</time></trkpt><trkpt lat="44.0236974" lon="8.008488"><ele>285.0</ele><time>2026-05-03T16:52:46.461Z</time></trkpt><trkpt lat="44.0236651" lon="8.0083393"><ele>282.8333333333333</ele><time>2026-05-03T16:52:48.459Z</time></trkpt><trkpt lat="44.023626" lon="8.0082607"><ele>280.6666666666667</ele><time>2026-05-03T16:52:49.462Z</time></trkpt><trkpt lat="44.0235646" lon="8.0082079"><ele>278.5</ele><time>2026-05-03T16:52:50.46Z</time></trkpt><trkpt lat="44.0234966" lon="8.0081229"><ele>276.33333333333337</ele><time>2026-05-03T16:52:51.459Z</time></trkpt><trkpt lat="44.0234141" lon="8.0080606"><ele>274.1666666666667</ele><time>2026-05-03T16:52:52.46Z</time></trkpt><trkpt lat="44.0233531" lon="8.0079888"><ele>272.0</ele><time>2026-05-03T16:52:53.46Z</time></trkpt><trkpt lat="44.023284" lon="8.0079192"><ele>272.0</ele><time>2026-05-03T16:52:54.462Z</time></trkpt><trkpt lat="44.0232473" lon="8.0078451"><ele>272.0</ele><time>2026-05-03T16:52:55.461Z</time></trkpt><trkpt lat="44.0232123" lon="8.0077292"><ele>272.0</ele><time>2026-05-03T16:52:57.464Z</time></trkpt><trkpt lat="44.0232479" lon="8.00756"><ele>272.0</ele><time>2026-05-03T16:52:59.47Z</time></trkpt><trkpt lat="44.0232464" lon="8.0074705"><ele>272.0</ele><time>2026-05-03T16:53:00.465Z</time></trkpt><trkpt lat="44.0232305" lon="8.0073631"><ele>272.0</ele><time>2026-05-03T16:53:01.458Z</time></trkpt><trkpt lat="44.0232021" lon="8.0072557"><ele>274.1666666666667</ele><time>2026-05-03T16:53:02.462Z</time></trkpt><trkpt lat="44.0231619" lon="8.0071506"><ele>276.33333333333337</ele><time>2026-05-03T16:53:03.461Z</time></trkpt><trkpt lat="44.0231028" lon="8.0070635"><ele>278.5</ele><time>2026-05-03T16:53:04.463Z</time></trkpt><trkpt lat="44.0230369" lon="8.0069609"><ele>280.6666666666667</ele><time>2026-05-03T16:53:05.467Z</time></trkpt><trkpt lat="44.0229828" lon="8.0068717"><ele>282.8333333333333</ele><time>2026-05-03T16:53:06.461Z</time></trkpt><trkpt lat="44.0229345" lon="8.0067734"><ele>285.0</ele><time>2026-05-03T16:53:07.461Z</time></trkpt><trkpt lat="44.022902" lon="8.0066763"><ele>285.5</ele><time>2026-05-03T16:53:08.462Z</time></trkpt><trkpt lat="44.0228685" lon="8.0065536"><ele>286.0</ele><time>2026-05-03T16:53:09.46Z</time></trkpt><trkpt lat="44.0228534" lon="8.0064527"><ele>286.5</ele><time>2026-05-03T16:53:10.461Z</time></trkpt><trkpt lat="44.0228872" lon="8.0063213"><ele>287.0</ele><time>2026-05-03T16:53:11.465Z</time></trkpt><trkpt lat="44.0228947" lon="8.0062032"><ele>287.5</ele><time>2026-05-03T16:53:12.46Z</time></trkpt><trkpt lat="44.0229018" lon="8.0060902"><ele>288.0</ele><time>2026-05-03T16:53:13.461Z</time></trkpt><trkpt lat="44.0229081" lon="8.005956"><ele>288.0</ele><time>2026-05-03T16:53:14.46Z</time></trkpt><trkpt lat="44.0229181" lon="8.0058547"><ele>288.0</ele><time>2026-05-03T16:53:15.463Z</time></trkpt><trkpt lat="44.0229338" lon="8.005745"><ele>288.0</ele><time>2026-05-03T16:53:16.46Z</time></trkpt><trkpt lat="44.0229576" lon="8.0056392"><ele>288.0</ele><time>2026-05-03T16:53:17.461Z</time></trkpt><trkpt lat="44.0229943" lon="8.0055331"><ele>288.0</ele><time>2026-05-03T16:53:18.461Z</time></trkpt><trkpt lat="44.0230192" lon="8.0054014"><ele>288.0</ele><time>2026-05-03T16:53:19.462Z</time></trkpt><trkpt lat="44.0230487" lon="8.0052323"><ele>288.6</ele><time>2026-05-03T16:53:20.469Z</time></trkpt><trkpt lat="44.0230771" lon="8.0050894"><ele>289.20000000000005</ele><time>2026-05-03T16:53:21.46Z</time></trkpt><trkpt lat="44.0230947" lon="8.0049475"><ele>289.8</ele><time>2026-05-03T16:53:22.46Z</time></trkpt><trkpt lat="44.0230917" lon="8.0048021"><ele>290.40000000000003</ele><time>2026-05-03T16:53:23.461Z</time></trkpt><trkpt lat="44.0230797" lon="8.0046638"><ele>291.0</ele><time>2026-05-03T16:53:24.463Z</time></trkpt><trkpt lat="44.0230537" lon="8.0045596"><ele>291.5</ele><time>2026-05-03T16:53:25.464Z</time></trkpt><trkpt lat="44.0230296" lon="8.004448"><ele>292.0</ele><time>2026-05-03T16:53:26.46Z</time></trkpt><trkpt lat="44.0230217" lon="8.0043589"><ele>292.5</ele><time>2026-05-03T16:53:27.461Z</time></trkpt><trkpt lat="44.0230197" lon="8.0042636"><ele>293.0</ele><time>2026-05-03T16:53:28.463Z</time></trkpt><trkpt lat="44.0230457" lon="8.0041198"><ele>293.5</ele><time>2026-05-03T16:53:30.462Z</time></trkpt><trkpt lat="44.0231221" lon="8.0040928"><ele>294.0</ele><time>2026-05-03T16:53:32.462Z</time></trkpt><trkpt lat="44.0231764" lon="8.0041885"><ele>294.1666666666667</ele><time>2026-05-03T16:53:35.463Z</time></trkpt><trkpt lat="44.0231874" lon="8.0043081"><ele>294.3333333333333</ele><time>2026-05-03T16:53:37.461Z</time></trkpt><trkpt lat="44.023219" lon="8.0044335"><ele>294.5</ele><time>2026-05-03T16:53:38.469Z</time></trkpt><trkpt lat="44.0232573" lon="8.0045481"><ele>294.66666666666663</ele><time>2026-05-03T16:53:39.461Z</time></trkpt><trkpt lat="44.0232902" lon="8.0046584"><ele>294.8333333333333</ele><time>2026-05-03T16:53:40.467Z</time></trkpt><trkpt lat="44.0233115" lon="8.004764"><ele>295.0</ele><time>2026-05-03T16:53:41.459Z</time></trkpt><trkpt lat="44.0233316" lon="8.004876"><ele>303.0</ele><time>2026-05-03T16:53:42.46Z</time></trkpt><trkpt lat="44.0233407" lon="8.0050122"><ele>311.0</ele><time>2026-05-03T16:53:43.46Z</time></trkpt><trkpt lat="44.0233411" lon="8.0051366"><ele>319.0</ele><time>2026-05-03T16:53:44.462Z</time></trkpt><trkpt lat="44.0233332" lon="8.0052669"><ele>327.0</ele><time>2026-05-03T16:53:45.462Z</time></trkpt><trkpt lat="44.023335" lon="8.0053971"><ele>335.0</ele><time>2026-05-03T16:53:46.461Z</time></trkpt><trkpt lat="44.0233477" lon="8.0055275"><ele>335.0</ele><time>2026-05-03T16:53:47.461Z</time></trkpt><trkpt lat="44.0233637" lon="8.0056544"><ele>335.0</ele><time>2026-05-03T16:53:48.46Z</time></trkpt><trkpt lat="44.0233781" lon="8.0057776"><ele>335.0</ele><time>2026-05-03T16:53:49.464Z</time></trkpt><trkpt lat="44.0233861" lon="8.0059121"><ele>335.0</ele><time>2026-05-03T16:53:50.464Z</time></trkpt><trkpt lat="44.0234021" lon="8.0060346"><ele>335.0</ele><time>2026-05-03T16:53:51.459Z</time></trkpt><trkpt lat="44.023414" lon="8.0061352"><ele>335.0</ele><time>2026-05-03T16:53:52.461Z</time></trkpt><trkpt lat="44.0234173" lon="8.0062421"><ele>334.1666666666667</ele><time>2026-05-03T16:53:53.46Z</time></trkpt><trkpt lat="44.0234306" lon="8.006336"><ele>333.33333333333337</ele><time>2026-05-03T16:53:54.463Z</time></trkpt><trkpt lat="44.0234861" lon="8.0064624"><ele>332.5</ele><time>2026-05-03T16:53:56.463Z</time></trkpt><trkpt lat="44.0235507" lon="8.0064452"><ele>331.6666666666667</ele><time>2026-05-03T16:53:58.461Z</time></trkpt><trkpt lat="44.023558" lon="8.0063429"><ele>330.8333333333333</ele><time>2026-05-03T16:54:00.465Z</time></trkpt><trkpt lat="44.0235353" lon="8.0062382"><ele>330.0</ele><time>2026-05-03T16:54:01.463Z</time></trkpt><trkpt lat="44.0235185" lon="8.0061089"><ele>330.0</ele><time>2026-05-03T16:54:02.464Z</time></trkpt><trkpt lat="44.0235193" lon="8.0059625"><ele>330.0</ele><time>2026-05-03T16:54:03.461Z</time></trkpt><trkpt lat="44.023525" lon="8.0058157"><ele>330.0</ele><time>2026-05-03T16:54:04.464Z</time></trkpt><trkpt lat="44.0235321" lon="8.005676"><ele>330.0</ele><time>2026-05-03T16:54:05.466Z</time></trkpt><trkpt lat="44.0235418" lon="8.0055321"><ele>330.0</ele><time>2026-05-03T16:54:06.462Z</time></trkpt><trkpt lat="44.0235487" lon="8.0053883"><ele>329.4</ele><time>2026-05-03T16:54:07.461Z</time></trkpt><trkpt lat="44.0235632" lon="8.0052487"><ele>328.8</ele><time>2026-05-03T16:54:08.461Z</time></trkpt><trkpt lat="44.0235776" lon="8.0051114"><ele>328.20000000000005</ele><time>2026-05-03T16:54:09.46Z</time></trkpt><trkpt lat="44.0235903" lon="8.0049789"><ele>327.6</ele><time>2026-05-03T16:54:10.464Z</time></trkpt><trkpt lat="44.0235994" lon="8.0048645"><ele>327.0</ele><time>2026-05-03T16:54:11.46Z</time></trkpt><trkpt lat="44.023614" lon="8.0047628"><ele>327.0</ele><time>2026-05-03T16:54:12.462Z</time></trkpt><trkpt lat="44.0236442" lon="8.0046755"><ele>327.0</ele><time>2026-05-03T16:54:13.466Z</time></trkpt><trkpt lat="44.0236884" lon="8.0046055"><ele>327.0</ele><time>2026-05-03T16:54:14.461Z</time></trkpt><trkpt lat="44.0237473" lon="8.0045422"><ele>327.0</ele><time>2026-05-03T16:54:15.468Z</time></trkpt><trkpt lat="44.0238247" lon="8.0044912"><ele>327.0</ele><time>2026-05-03T16:54:16.467Z</time></trkpt><trkpt lat="44.0239106" lon="8.0044417"><ele>327.0</ele><time>2026-05-03T16:54:17.459Z</time></trkpt><trkpt lat="44.0239826" lon="8.0043805"><ele>327.0</ele><time>2026-05-03T16:54:18.461Z</time></trkpt><trkpt lat="44.0240577" lon="8.0043376"><ele>327.0</ele><time>2026-05-03T16:54:19.462Z</time></trkpt><trkpt lat="44.0241315" lon="8.004319"><ele>327.0</ele><time>2026-05-03T16:54:20.459Z</time></trkpt><trkpt lat="44.0242113" lon="8.0043078"><ele>327.0</ele><time>2026-05-03T16:54:21.463Z</time></trkpt><trkpt lat="44.024289" lon="8.004288"><ele>327.0</ele><time>2026-05-03T16:54:22.461Z</time></trkpt><trkpt lat="44.0243322" lon="8.0041703"><ele>327.0</ele><time>2026-05-03T16:54:24.459Z</time></trkpt><trkpt lat="44.0243275" lon="8.0039822"><ele>331.0</ele><time>2026-05-03T16:54:26.47Z</time></trkpt><trkpt lat="44.0243003" lon="8.0038804"><ele>335.0</ele><time>2026-05-03T16:54:27.461Z</time></trkpt><trkpt lat="44.0243152" lon="8.0037736"><ele>339.0</ele><time>2026-05-03T16:54:28.46Z</time></trkpt><trkpt lat="44.0243344" lon="8.0036391"><ele>343.0</ele><time>2026-05-03T16:54:29.461Z</time></trkpt><trkpt lat="44.0243393" lon="8.0034996"><ele>347.0</ele><time>2026-05-03T16:54:30.46Z</time></trkpt><trkpt lat="44.0243298" lon="8.0033695"><ele>351.0</ele><time>2026-05-03T16:54:31.461Z</time></trkpt><trkpt lat="44.0243351" lon="8.0032454"><ele>351.4</ele><time>2026-05-03T16:54:32.463Z</time></trkpt><trkpt lat="44.0243454" lon="8.0031361"><ele>351.8</ele><time>2026-05-03T16:54:33.465Z</time></trkpt><trkpt lat="44.0243677" lon="8.0030006"><ele>352.2</ele><time>2026-05-03T16:54:34.461Z</time></trkpt><trkpt lat="44.0243894" lon="8.0028588"><ele>352.59999999999997</ele><time>2026-05-03T16:54:35.465Z</time></trkpt><trkpt lat="44.0244002" lon="8.0027232"><ele>353.0</ele><time>2026-05-03T16:54:36.46Z</time></trkpt><trkpt lat="44.0244291" lon="8.0025848"><ele>352.79999999999995</ele><time>2026-05-03T16:54:37.46Z</time></trkpt><trkpt lat="44.0244418" lon="8.00245"><ele>352.6</ele><time>2026-05-03T16:54:38.46Z</time></trkpt><trkpt lat="44.0244775" lon="8.0023139"><ele>352.4</ele><time>2026-05-03T16:54:39.46Z</time></trkpt><trkpt lat="44.0245202" lon="8.0021825"><ele>352.20000000000005</ele><time>2026-05-03T16:54:40.46Z</time></trkpt><trkpt lat="44.0245317" lon="8.0020604"><ele>352.0</ele><time>2026-05-03T16:54:41.461Z</time></trkpt><trkpt lat="44.0245292" lon="8.0019381"><ele>352.0</ele><time>2026-05-03T16:54:42.462Z</time></trkpt><trkpt lat="44.024551" lon="8.0018281"><ele>352.0</ele><time>2026-05-03T16:54:43.463Z</time></trkpt><trkpt lat="44.0245654" lon="8.0017026"><ele>352.0</ele><time>2026-05-03T16:54:44.46Z</time></trkpt><trkpt lat="44.0245846" lon="8.0015932"><ele>352.0</ele><time>2026-05-03T16:54:45.46Z</time></trkpt><trkpt lat="44.024603" lon="8.0015046"><ele>352.0</ele><time>2026-05-03T16:54:46.459Z</time></trkpt><trkpt lat="44.0246508" lon="8.0014415"><ele>352.0</ele><time>2026-05-03T16:54:47.463Z</time></trkpt><trkpt lat="44.0246943" lon="8.0013645"><ele>353.3333333333333</ele><time>2026-05-03T16:54:48.46Z</time></trkpt><trkpt lat="44.0247296" lon="8.0012743"><ele>354.66666666666663</ele><time>2026-05-03T16:54:49.461Z</time></trkpt><trkpt lat="44.0247703" lon="8.0011916"><ele>356.0</ele><time>2026-05-03T16:54:50.462Z</time></trkpt><trkpt lat="44.0248172" lon="8.0010889"><ele>357.3333333333333</ele><time>2026-05-03T16:54:51.462Z</time></trkpt><trkpt lat="44.0248634" lon="8.0010032"><ele>358.6666666666667</ele><time>2026-05-03T16:54:52.462Z</time></trkpt><trkpt lat="44.024917" lon="8.0009351"><ele>360.0</ele><time>2026-05-03T16:54:53.459Z</time></trkpt><trkpt lat="44.0249724" lon="8.0008083"><ele>366.2</ele><time>2026-05-03T16:54:55.459Z</time></trkpt><trkpt lat="44.0249581" lon="8.0006985"><ele>372.4</ele><time>2026-05-03T16:54:57.462Z</time></trkpt><trkpt lat="44.0248858" lon="8.0005765"><ele>378.6</ele><time>2026-05-03T16:54:59.465Z</time></trkpt><trkpt lat="44.0248167" lon="8.0004828"><ele>384.8</ele><time>2026-05-03T16:55:00.46Z</time></trkpt><trkpt lat="44.0247428" lon="8.0004232"><ele>391.0</ele><time>2026-05-03T16:55:01.461Z</time></trkpt><trkpt lat="44.024678" lon="8.0003543"><ele>391.00000000000006</ele><time>2026-05-03T16:55:02.466Z</time></trkpt><trkpt lat="44.0246133" lon="8.0002986"><ele>391.0</ele><time>2026-05-03T16:55:03.462Z</time></trkpt><trkpt lat="44.0245474" lon="8.00026"><ele>391.0</ele><time>2026-05-03T16:55:04.461Z</time></trkpt><trkpt lat="44.0244705" lon="8.0002429"><ele>391.0</ele><time>2026-05-03T16:55:05.461Z</time></trkpt><trkpt lat="44.0243699" lon="8.0002318"><ele>391.00000000000006</ele><time>2026-05-03T16:55:06.462Z</time></trkpt><trkpt lat="44.0242841" lon="8.0002216"><ele>391.0</ele><time>2026-05-03T16:55:07.466Z</time></trkpt><trkpt lat="44.0241731" lon="8.0002315"><ele>390.00000000000006</ele><time>2026-05-03T16:55:08.461Z</time></trkpt><trkpt lat="44.0240892" lon="8.0002043"><ele>389.0</ele><time>2026-05-03T16:55:09.46Z</time></trkpt><trkpt lat="44.0240224" lon="8.0001956"><ele>388.0</ele><time>2026-05-03T16:55:10.46Z</time></trkpt><trkpt lat="44.0239288" lon="8.0002266"><ele>387.0</ele><time>2026-05-03T16:55:12.462Z</time></trkpt><trkpt lat="44.0239585" lon="8.000122"><ele>386.00000000000006</ele><time>2026-05-03T16:55:15.46Z</time></trkpt><trkpt lat="44.0240268" lon="8.0000363"><ele>385.0</ele><time>2026-05-03T16:55:17.465Z</time></trkpt><trkpt lat="44.0240873" lon="7.9999488"><ele>387.0</ele><time>2026-05-03T16:55:19.46Z</time></trkpt><trkpt lat="44.0243015" lon="7.9998483"><ele>389.0</ele><time>2026-05-03T16:55:21.462Z</time></trkpt><trkpt lat="44.0244191" lon="7.9998242"><ele>391.0</ele><time>2026-05-03T16:55:22.467Z</time></trkpt><trkpt lat="44.0245411" lon="7.9997821"><ele>391.0</ele><time>2026-05-03T16:55:23.457Z</time></trkpt><trkpt lat="44.0246403" lon="7.9997739"><ele>391.0</ele><time>2026-05-03T16:55:24.458Z</time></trkpt><trkpt lat="44.0247413" lon="7.9997546"><ele>391.0</ele><time>2026-05-03T16:55:25.458Z</time></trkpt><trkpt lat="44.0248356" lon="7.9997577"><ele>391.0</ele><time>2026-05-03T16:55:26.463Z</time></trkpt><trkpt lat="44.0249229" lon="7.9997541"><ele>391.0</ele><time>2026-05-03T16:55:27.46Z</time></trkpt><trkpt lat="44.0250061" lon="7.9997576"><ele>392.6</ele><time>2026-05-03T16:55:28.463Z</time></trkpt><trkpt lat="44.0250945" lon="7.9997867"><ele>394.20000000000005</ele><time>2026-05-03T16:55:29.462Z</time></trkpt><trkpt lat="44.0251907" lon="7.9998311"><ele>395.79999999999995</ele><time>2026-05-03T16:55:30.464Z</time></trkpt><trkpt lat="44.0252766" lon="7.999908"><ele>397.4</ele><time>2026-05-03T16:55:31.464Z</time></trkpt><trkpt lat="44.0253401" lon="7.9999901"><ele>399.0</ele><time>2026-05-03T16:55:32.462Z</time></trkpt><trkpt lat="44.0254023" lon="8.0000641"><ele>399.0</ele><time>2026-05-03T16:55:33.465Z</time></trkpt><trkpt lat="44.0254595" lon="8.0001554"><ele>399.0</ele><time>2026-05-03T16:55:34.461Z</time></trkpt><trkpt lat="44.025511" lon="8.0002383"><ele>399.0</ele><time>2026-05-03T16:55:35.461Z</time></trkpt><trkpt lat="44.0255566" lon="8.0003362"><ele>399.0</ele><time>2026-05-03T16:55:37.461Z</time></trkpt><trkpt lat="44.0255932" lon="8.0004293"><ele>399.0</ele><time>2026-05-03T16:55:40.461Z</time></trkpt><trkpt lat="44.0256044" lon="8.0005172"><ele>399.0</ele><time>2026-05-03T16:55:42.463Z</time></trkpt><trkpt lat="44.0256509" lon="8.0005997"><ele>399.0</ele><time>2026-05-03T16:55:45.463Z</time></trkpt><trkpt lat="44.0256497" lon="8.0003181"><ele>399.0</ele><time>2026-05-03T16:55:49.461Z</time></trkpt><trkpt lat="44.0256271" lon="8.0001872"><ele>399.0</ele><time>2026-05-03T16:55:50.461Z</time></trkpt><trkpt lat="44.0256126" lon="8.000039"><ele>399.0</ele><time>2026-05-03T16:55:51.463Z</time></trkpt><trkpt lat="44.0255762" lon="7.9999061"><ele>399.0</ele><time>2026-05-03T16:55:52.463Z</time></trkpt><trkpt lat="44.0255518" lon="7.9997729"><ele>399.0</ele><time>2026-05-03T16:55:53.464Z</time></trkpt><trkpt lat="44.0254816" lon="7.9996357"><ele>399.0</ele><time>2026-05-03T16:55:54.459Z</time></trkpt><trkpt lat="44.0254115" lon="7.9995206"><ele>399.0</ele><time>2026-05-03T16:55:55.459Z</time></trkpt><trkpt lat="44.0253436" lon="7.9994141"><ele>399.0</ele><time>2026-05-03T16:55:56.462Z</time></trkpt><trkpt lat="44.0252476" lon="7.9993356"><ele>399.0</ele><time>2026-05-03T16:55:57.464Z</time></trkpt><trkpt lat="44.0251531" lon="7.999286"><ele>399.0</ele><time>2026-05-03T16:55:58.463Z</time></trkpt><trkpt lat="44.025058" lon="7.9992412"><ele>399.0</ele><time>2026-05-03T16:55:59.461Z</time></trkpt><trkpt lat="44.0249832" lon="7.9992436"><ele>399.0</ele><time>2026-05-03T16:56:00.464Z</time></trkpt><trkpt lat="44.0249139" lon="7.9992525"><ele>399.0</ele><time>2026-05-03T16:56:01.462Z</time></trkpt><trkpt lat="44.0248158" lon="7.9992056"><ele>400.5</ele><time>2026-05-03T16:56:03.464Z</time></trkpt><trkpt lat="44.0247406" lon="7.9990989"><ele>402.0</ele><time>2026-05-03T16:56:05.466Z</time></trkpt><trkpt lat="44.0248178" lon="7.9988766"><ele>403.5</ele><time>2026-05-03T16:56:07.463Z</time></trkpt><trkpt lat="44.0249245" lon="7.9987123"><ele>405.0</ele><time>2026-05-03T16:56:08.461Z</time></trkpt><trkpt lat="44.0249935" lon="7.9985633"><ele>408.66666666666663</ele><time>2026-05-03T16:56:09.466Z</time></trkpt><trkpt lat="44.0250861" lon="7.9984194"><ele>412.3333333333333</ele><time>2026-05-03T16:56:10.463Z</time></trkpt><trkpt lat="44.0251829" lon="7.9982828"><ele>416.0</ele><time>2026-05-03T16:56:11.465Z</time></trkpt><trkpt lat="44.0253347" lon="7.9981621"><ele>416.0</ele><time>2026-05-03T16:56:12.464Z</time></trkpt><trkpt lat="44.0254724" lon="7.9980564"><ele>416.0</ele><time>2026-05-03T16:56:13.464Z</time></trkpt><trkpt lat="44.0256243" lon="7.9979488"><ele>416.0</ele><time>2026-05-03T16:56:14.465Z</time></trkpt><trkpt lat="44.0257654" lon="7.9978444"><ele>418.6</ele><time>2026-05-03T16:56:15.464Z</time></trkpt><trkpt lat="44.0258754" lon="7.9977633"><ele>421.20000000000005</ele><time>2026-05-03T16:56:16.464Z</time></trkpt><trkpt lat="44.0259788" lon="7.9976846"><ele>423.79999999999995</ele><time>2026-05-03T16:56:17.462Z</time></trkpt><trkpt lat="44.0260498" lon="7.9976077"><ele>426.4</ele><time>2026-05-03T16:56:18.466Z</time></trkpt><trkpt lat="44.0261018" lon="7.9975212"><ele>429.0</ele><time>2026-05-03T16:56:19.46Z</time></trkpt><trkpt lat="44.0261508" lon="7.997424"><ele>429.0</ele><time>2026-05-03T16:56:20.46Z</time></trkpt><trkpt lat="44.0261764" lon="7.9972615"><ele>429.0</ele><time>2026-05-03T16:56:21.463Z</time></trkpt><trkpt lat="44.0261181" lon="7.9971237"><ele>429.0</ele><time>2026-05-03T16:56:22.465Z</time></trkpt><trkpt lat="44.0260023" lon="7.9969437"><ele>429.0</ele><time>2026-05-03T16:56:23.463Z</time></trkpt><trkpt lat="44.0259465" lon="7.9968117"><ele>429.0</ele><time>2026-05-03T16:56:24.459Z</time></trkpt><trkpt lat="44.0259139" lon="7.9966909"><ele>429.0</ele><time>2026-05-03T16:56:25.457Z</time></trkpt><trkpt lat="44.0259148" lon="7.9965667"><ele>429.0</ele><time>2026-05-03T16:56:26.461Z</time></trkpt><trkpt lat="44.0259782" lon="7.9964433"><ele>429.0</ele><time>2026-05-03T16:56:27.464Z</time></trkpt><trkpt lat="44.0260643" lon="7.9963064"><ele>429.0</ele><time>2026-05-03T16:56:28.462Z</time></trkpt><trkpt lat="44.0261592" lon="7.9961271"><ele>428.66666666666663</ele><time>2026-05-03T16:56:29.468Z</time></trkpt><trkpt lat="44.0262393" lon="7.99593"><ele>428.3333333333333</ele><time>2026-05-03T16:56:30.461Z</time></trkpt><trkpt lat="44.0263091" lon="7.9957182"><ele>428.0</ele><time>2026-05-03T16:56:31.461Z</time></trkpt><trkpt lat="44.0263841" lon="7.9955391"><ele>424.5</ele><time>2026-05-03T16:56:32.46Z</time></trkpt><trkpt lat="44.0264597" lon="7.9953786"><ele>421.0</ele><time>2026-05-03T16:56:33.465Z</time></trkpt><trkpt lat="44.0265345" lon="7.9952412"><ele>417.5</ele><time>2026-05-03T16:56:34.462Z</time></trkpt><trkpt lat="44.0266115" lon="7.9950909"><ele>414.0</ele><time>2026-05-03T16:56:35.461Z</time></trkpt><trkpt lat="44.0266242" lon="7.9948508"><ele>420.25</ele><time>2026-05-03T16:56:36.464Z</time></trkpt><trkpt lat="44.0266661" lon="7.9946564"><ele>426.5</ele><time>2026-05-03T16:56:37.462Z</time></trkpt><trkpt lat="44.0267074" lon="7.9944727"><ele>432.75</ele><time>2026-05-03T16:56:38.467Z</time></trkpt><trkpt lat="44.0267756" lon="7.9943066"><ele>439.0</ele><time>2026-05-03T16:56:39.463Z</time></trkpt><trkpt lat="44.0268099" lon="7.9941153"><ele>439.0</ele><time>2026-05-03T16:56:40.462Z</time></trkpt><trkpt lat="44.0268236" lon="7.9938973"><ele>439.0</ele><time>2026-05-03T16:56:41.46Z</time></trkpt><trkpt lat="44.0268343" lon="7.9936779"><ele>439.0</ele><time>2026-05-03T16:56:42.462Z</time></trkpt><trkpt lat="44.0268477" lon="7.9934858"><ele>438.0</ele><time>2026-05-03T16:56:43.462Z</time></trkpt><trkpt lat="44.0268676" lon="7.9933028"><ele>437.0</ele><time>2026-05-03T16:56:44.457Z</time></trkpt><trkpt lat="44.0268896" lon="7.9931077"><ele>436.0</ele><time>2026-05-03T16:56:45.459Z</time></trkpt><trkpt lat="44.0269516" lon="7.9929204"><ele>435.0</ele><time>2026-05-03T16:56:46.458Z</time></trkpt><trkpt lat="44.027018" lon="7.9927275"><ele>435.0</ele><time>2026-05-03T16:56:47.46Z</time></trkpt><trkpt lat="44.0270727" lon="7.9925496"><ele>435.0</ele><time>2026-05-03T16:56:48.466Z</time></trkpt><trkpt lat="44.0271217" lon="7.9923942"><ele>435.0</ele><time>2026-05-03T16:56:49.462Z</time></trkpt><trkpt lat="44.0271545" lon="7.9922523"><ele>435.0</ele><time>2026-05-03T16:56:50.466Z</time></trkpt><trkpt lat="44.0271651" lon="7.9921094"><ele>436.4</ele><time>2026-05-03T16:56:51.467Z</time></trkpt><trkpt lat="44.02713" lon="7.9919766"><ele>437.8</ele><time>2026-05-03T16:56:52.47Z</time></trkpt><trkpt lat="44.0270506" lon="7.9918784"><ele>439.20000000000005</ele><time>2026-05-03T16:56:53.468Z</time></trkpt><trkpt lat="44.0269668" lon="7.9918118"><ele>440.6</ele><time>2026-05-03T16:56:54.461Z</time></trkpt><trkpt lat="44.0268792" lon="7.9917534"><ele>442.0</ele><time>2026-05-03T16:56:55.463Z</time></trkpt><trkpt lat="44.0267754" lon="7.9917441"><ele>442.0</ele><time>2026-05-03T16:56:56.462Z</time></trkpt><trkpt lat="44.026671" lon="7.9917262"><ele>442.0</ele><time>2026-05-03T16:56:57.463Z</time></trkpt><trkpt lat="44.0265746" lon="7.9917232"><ele>442.0</ele><time>2026-05-03T16:56:58.464Z</time></trkpt><trkpt lat="44.0264258" lon="7.9917372"><ele>442.0</ele><time>2026-05-03T16:56:59.464Z</time></trkpt><trkpt lat="44.026289" lon="7.9916897"><ele>448.25</ele><time>2026-05-03T16:57:00.463Z</time></trkpt><trkpt lat="44.0261595" lon="7.991599"><ele>454.5</ele><time>2026-05-03T16:57:01.463Z</time></trkpt><trkpt lat="44.0260331" lon="7.9915311"><ele>460.75</ele><time>2026-05-03T16:57:02.462Z</time></trkpt><trkpt lat="44.0258889" lon="7.9915145"><ele>467.0</ele><time>2026-05-03T16:57:03.46Z</time></trkpt><trkpt lat="44.0257214" lon="7.9915234"><ele>472.0</ele><time>2026-05-03T16:57:04.464Z</time></trkpt><trkpt lat="44.0255352" lon="7.9915713"><ele>477.0</ele><time>2026-05-03T16:57:05.461Z</time></trkpt><trkpt lat="44.0253528" lon="7.9915887"><ele>482.0</ele><time>2026-05-03T16:57:06.461Z</time></trkpt><trkpt lat="44.0251934" lon="7.9916097"><ele>482.0</ele><time>2026-05-03T16:57:07.463Z</time></trkpt><trkpt lat="44.0250566" lon="7.9916324"><ele>482.0</ele><time>2026-05-03T16:57:08.463Z</time></trkpt><trkpt lat="44.0249292" lon="7.9917106"><ele>482.0</ele><time>2026-05-03T16:57:09.466Z</time></trkpt><trkpt lat="44.0248021" lon="7.9918129"><ele>482.0</ele><time>2026-05-03T16:57:10.47Z</time></trkpt><trkpt lat="44.0246883" lon="7.9919467"><ele>480.0</ele><time>2026-05-03T16:57:11.462Z</time></trkpt><trkpt lat="44.0246018" lon="7.992043"><ele>478.0</ele><time>2026-05-03T16:57:12.462Z</time></trkpt><trkpt lat="44.0244805" lon="7.9920843"><ele>476.0</ele><time>2026-05-03T16:57:13.464Z</time></trkpt><trkpt lat="44.0243627" lon="7.9921308"><ele>474.0</ele><time>2026-05-03T16:57:14.46Z</time></trkpt><trkpt lat="44.0242285" lon="7.9921499"><ele>477.25</ele><time>2026-05-03T16:57:15.462Z</time></trkpt><trkpt lat="44.0240858" lon="7.9921682"><ele>480.5</ele><time>2026-05-03T16:57:16.461Z</time></trkpt><trkpt lat="44.0239628" lon="7.9922184"><ele>483.75</ele><time>2026-05-03T16:57:17.463Z</time></trkpt><trkpt lat="44.0238346" lon="7.9922873"><ele>487.0</ele><time>2026-05-03T16:57:18.469Z</time></trkpt><trkpt lat="44.0237225" lon="7.9924137"><ele>478.6666666666667</ele><time>2026-05-03T16:57:19.461Z</time></trkpt><trkpt lat="44.0235385" lon="7.9925222"><ele>470.33333333333337</ele><time>2026-05-03T16:57:20.461Z</time></trkpt><trkpt lat="44.0234087" lon="7.9926177"><ele>462.0</ele><time>2026-05-03T16:57:21.465Z</time></trkpt><trkpt lat="44.0232785" lon="7.9926921"><ele>460.75</ele><time>2026-05-03T16:57:22.461Z</time></trkpt><trkpt lat="44.0231402" lon="7.9927836"><ele>459.5</ele><time>2026-05-03T16:57:23.464Z</time></trkpt><trkpt lat="44.0230437" lon="7.9927925"><ele>458.25</ele><time>2026-05-03T16:57:24.463Z</time></trkpt><trkpt lat="44.0229606" lon="7.9927648"><ele>457.0</ele><time>2026-05-03T16:57:25.462Z</time></trkpt><trkpt lat="44.0229224" lon="7.9925685"><ele>459.6666666666667</ele><time>2026-05-03T16:57:26.463Z</time></trkpt><trkpt lat="44.0229239" lon="7.9923522"><ele>462.33333333333337</ele><time>2026-05-03T16:57:27.466Z</time></trkpt><trkpt lat="44.0229078" lon="7.9921443"><ele>465.0</ele><time>2026-05-03T16:57:28.462Z</time></trkpt><trkpt lat="44.0229177" lon="7.9919344"><ele>465.0</ele><time>2026-05-03T16:57:29.465Z</time></trkpt><trkpt lat="44.0229265" lon="7.9917264"><ele>465.0</ele><time>2026-05-03T16:57:30.463Z</time></trkpt><trkpt lat="44.0229462" lon="7.9915312"><ele>465.0</ele><time>2026-05-03T16:57:31.46Z</time></trkpt><trkpt lat="44.0229992" lon="7.9913495"><ele>465.0</ele><time>2026-05-03T16:57:32.459Z</time></trkpt><trkpt lat="44.0230419" lon="7.9911905"><ele>466.25</ele><time>2026-05-03T16:57:33.464Z</time></trkpt><trkpt lat="44.023044" lon="7.9910093"><ele>467.5</ele><time>2026-05-03T16:57:34.467Z</time></trkpt><trkpt lat="44.0230255" lon="7.99085"><ele>468.75</ele><time>2026-05-03T16:57:35.465Z</time></trkpt><trkpt lat="44.0229537" lon="7.9906213"><ele>470.0</ele><time>2026-05-03T16:57:36.463Z</time></trkpt><trkpt lat="44.0228622" lon="7.9903444"><ele>472.66666666666663</ele><time>2026-05-03T16:57:37.464Z</time></trkpt><trkpt lat="44.0227837" lon="7.9900687"><ele>475.33333333333337</ele><time>2026-05-03T16:57:38.461Z</time></trkpt><trkpt lat="44.0226994" lon="7.9897763"><ele>478.0</ele><time>2026-05-03T16:57:39.46Z</time></trkpt><trkpt lat="44.0226132" lon="7.989491"><ele>478.6666666666667</ele><time>2026-05-03T16:57:40.464Z</time></trkpt><trkpt lat="44.0225253" lon="7.9892164"><ele>479.33333333333337</ele><time>2026-05-03T16:57:41.465Z</time></trkpt><trkpt lat="44.0224522" lon="7.9889651"><ele>480.0</ele><time>2026-05-03T16:57:42.467Z</time></trkpt><trkpt lat="44.0223781" lon="7.9887351"><ele>480.0</ele><time>2026-05-03T16:57:43.462Z</time></trkpt><trkpt lat="44.0223138" lon="7.9885289"><ele>480.0</ele><time>2026-05-03T16:57:44.461Z</time></trkpt><trkpt lat="44.0222433" lon="7.9883155"><ele>480.0</ele><time>2026-05-03T16:57:45.464Z</time></trkpt><trkpt lat="44.0222553" lon="7.9880903"><ele>485.33333333333337</ele><time>2026-05-03T16:57:46.461Z</time></trkpt><trkpt lat="44.0222459" lon="7.987867"><ele>490.6666666666667</ele><time>2026-05-03T16:57:47.465Z</time></trkpt><trkpt lat="44.0222144" lon="7.9876542"><ele>496.0</ele><time>2026-05-03T16:57:48.463Z</time></trkpt><trkpt lat="44.0221458" lon="7.9874683"><ele>497.0</ele><time>2026-05-03T16:57:49.466Z</time></trkpt><trkpt lat="44.0220747" lon="7.987286"><ele>498.0</ele><time>2026-05-03T16:57:50.463Z</time></trkpt><trkpt lat="44.0220264" lon="7.9871187"><ele>499.0</ele><time>2026-05-03T16:57:51.463Z</time></trkpt><trkpt lat="44.0219887" lon="7.986958"><ele>500.0</ele><time>2026-05-03T16:57:52.463Z</time></trkpt><trkpt lat="44.021949" lon="7.9867851"><ele>502.25</ele><time>2026-05-03T16:57:53.461Z</time></trkpt><trkpt lat="44.0219329" lon="7.986623"><ele>504.5</ele><time>2026-05-03T16:57:54.463Z</time></trkpt><trkpt lat="44.0219688" lon="7.9864846"><ele>506.75</ele><time>2026-05-03T16:57:55.461Z</time></trkpt><trkpt lat="44.0219653" lon="7.9863019"><ele>509.0</ele><time>2026-05-03T16:57:56.461Z</time></trkpt><trkpt lat="44.021968" lon="7.9861417"><ele>509.0</ele><time>2026-05-03T16:57:57.462Z</time></trkpt><trkpt lat="44.0219391" lon="7.9860072"><ele>509.0</ele><time>2026-05-03T16:57:58.466Z</time></trkpt><trkpt lat="44.0218759" lon="7.9858371"><ele>509.0</ele><time>2026-05-03T16:57:59.469Z</time></trkpt><trkpt lat="44.0217773" lon="7.9857355"><ele>509.0</ele><time>2026-05-03T16:58:00.467Z</time></trkpt><trkpt lat="44.0217012" lon="7.9856742"><ele>509.0</ele><time>2026-05-03T16:58:01.462Z</time></trkpt><trkpt lat="44.0216097" lon="7.9856297"><ele>506.79999999999995</ele><time>2026-05-03T16:58:02.46Z</time></trkpt><trkpt lat="44.0215501" lon="7.9855832"><ele>504.59999999999997</ele><time>2026-05-03T16:58:03.46Z</time></trkpt><trkpt lat="44.0214856" lon="7.9855168"><ele>502.4</ele><time>2026-05-03T16:58:04.462Z</time></trkpt><trkpt lat="44.0214318" lon="7.9853732"><ele>500.2</ele><time>2026-05-03T16:58:05.461Z</time></trkpt><trkpt lat="44.0214092" lon="7.985199"><ele>498.0</ele><time>2026-05-03T16:58:06.463Z</time></trkpt><trkpt lat="44.0213565" lon="7.9850392"><ele>501.25</ele><time>2026-05-03T16:58:07.461Z</time></trkpt><trkpt lat="44.0212873" lon="7.9848907"><ele>504.5</ele><time>2026-05-03T16:58:08.471Z</time></trkpt><trkpt lat="44.0212478" lon="7.9847682"><ele>507.75</ele><time>2026-05-03T16:58:09.461Z</time></trkpt><trkpt lat="44.0211861" lon="7.9846247"><ele>511.0</ele><time>2026-05-03T16:58:10.462Z</time></trkpt><trkpt lat="44.021144" lon="7.9844724"><ele>511.0</ele><time>2026-05-03T16:58:11.462Z</time></trkpt><trkpt lat="44.021105" lon="7.9842959"><ele>511.0</ele><time>2026-05-03T16:58:12.461Z</time></trkpt><trkpt lat="44.0210821" lon="7.9840989"><ele>511.0</ele><time>2026-05-03T16:58:13.463Z</time></trkpt><trkpt lat="44.0210633" lon="7.9839623"><ele>511.0</ele><time>2026-05-03T16:58:14.462Z</time></trkpt><trkpt lat="44.0210465" lon="7.9838218"><ele>512.6</ele><time>2026-05-03T16:58:15.463Z</time></trkpt><trkpt lat="44.021048" lon="7.9836982"><ele>514.2</ele><time>2026-05-03T16:58:16.464Z</time></trkpt><trkpt lat="44.0210981" lon="7.9835744"><ele>515.8</ele><time>2026-05-03T16:58:17.46Z</time></trkpt><trkpt lat="44.0211688" lon="7.9834664"><ele>517.4</ele><time>2026-05-03T16:58:18.461Z</time></trkpt><trkpt lat="44.0212187" lon="7.9833572"><ele>519.0</ele><time>2026-05-03T16:58:19.461Z</time></trkpt><trkpt lat="44.0212285" lon="7.9832064"><ele>521.2</ele><time>2026-05-03T16:58:20.466Z</time></trkpt><trkpt lat="44.0212285" lon="7.9830468"><ele>523.4</ele><time>2026-05-03T16:58:21.462Z</time></trkpt><trkpt lat="44.0212111" lon="7.9829184"><ele>525.6</ele><time>2026-05-03T16:58:22.461Z</time></trkpt><trkpt lat="44.0211765" lon="7.982793"><ele>527.8</ele><time>2026-05-03T16:58:23.461Z</time></trkpt><trkpt lat="44.0211424" lon="7.9826894"><ele>530.0</ele><time>2026-05-03T16:58:24.462Z</time></trkpt><trkpt lat="44.0210508" lon="7.9827234"><ele>530.0</ele><time>2026-05-03T16:58:25.463Z</time></trkpt><trkpt lat="44.0209472" lon="7.98278"><ele>530.0</ele><time>2026-05-03T16:58:26.462Z</time></trkpt><trkpt lat="44.0208304" lon="7.9828036"><ele>530.0</ele><time>2026-05-03T16:58:27.462Z</time></trkpt><trkpt lat="44.0207288" lon="7.9827955"><ele>530.0</ele><time>2026-05-03T16:58:28.466Z</time></trkpt><trkpt lat="44.0205961" lon="7.9827578"><ele>531.75</ele><time>2026-05-03T16:58:29.462Z</time></trkpt><trkpt lat="44.0204667" lon="7.9827248"><ele>533.5</ele><time>2026-05-03T16:58:30.464Z</time></trkpt><trkpt lat="44.0203618" lon="7.9827091"><ele>535.25</ele><time>2026-05-03T16:58:31.46Z</time></trkpt><trkpt lat="44.0202401" lon="7.9827354"><ele>537.0</ele><time>2026-05-03T16:58:32.461Z</time></trkpt><trkpt lat="44.020139" lon="7.9828262"><ele>537.0</ele><time>2026-05-03T16:58:33.461Z</time></trkpt><trkpt lat="44.020093" lon="7.9829395"><ele>537.0</ele><time>2026-05-03T16:58:35.462Z</time></trkpt><trkpt lat="44.0199438" lon="7.9829082"><ele>537.0</ele><time>2026-05-03T16:58:37.461Z</time></trkpt><trkpt lat="44.0198696" lon="7.9828698"><ele>537.0</ele><time>2026-05-03T16:58:38.47Z</time></trkpt><trkpt lat="44.0197764" lon="7.9827894"><ele>537.0</ele><time>2026-05-03T16:58:39.463Z</time></trkpt><trkpt lat="44.0196938" lon="7.9827121"><ele>540.4</ele><time>2026-05-03T16:58:40.463Z</time></trkpt><trkpt lat="44.0196056" lon="7.9826038"><ele>543.8000000000001</ele><time>2026-05-03T16:58:41.462Z</time></trkpt><trkpt lat="44.0195179" lon="7.9824898"><ele>547.2</ele><time>2026-05-03T16:58:43.467Z</time></trkpt><trkpt lat="44.019464" lon="7.9824356"><ele>550.6</ele><time>2026-05-03T16:58:44.464Z</time></trkpt><trkpt lat="44.0193897" lon="7.9824581"><ele>554.0</ele><time>2026-05-03T16:58:45.46Z</time></trkpt><trkpt lat="44.0192959" lon="7.9825917"><ele>554.0</ele><time>2026-05-03T16:58:46.465Z</time></trkpt><trkpt lat="44.0192437" lon="7.9826836"><ele>554.0</ele><time>2026-05-03T16:58:47.465Z</time></trkpt><trkpt lat="44.0192122" lon="7.9828734"><ele>554.0</ele><time>2026-05-03T16:58:48.461Z</time></trkpt><trkpt lat="44.0191715" lon="7.9830294"><ele>554.0</ele><time>2026-05-03T16:58:49.464Z</time></trkpt><trkpt lat="44.0191324" lon="7.983158"><ele>554.0</ele><time>2026-05-03T16:58:50.461Z</time></trkpt><trkpt lat="44.0191043" lon="7.9832569"><ele>559.2</ele><time>2026-05-03T16:58:51.462Z</time></trkpt><trkpt lat="44.0190207" lon="7.9833586"><ele>564.4</ele><time>2026-05-03T16:58:53.462Z</time></trkpt><trkpt lat="44.0188481" lon="7.9833656"><ele>569.6</ele><time>2026-05-03T16:58:55.469Z</time></trkpt><trkpt lat="44.0187863" lon="7.9834191"><ele>574.8</ele><time>2026-05-03T16:58:56.468Z</time></trkpt><trkpt lat="44.0187364" lon="7.9835234"><ele>580.0</ele><time>2026-05-03T16:58:57.465Z</time></trkpt><trkpt lat="44.0187001" lon="7.9836248"><ele>580.0</ele><time>2026-05-03T16:58:58.462Z</time></trkpt><trkpt lat="44.0186763" lon="7.9838135"><ele>580.0</ele><time>2026-05-03T16:58:59.466Z</time></trkpt><trkpt lat="44.0186375" lon="7.9840143"><ele>580.0</ele><time>2026-05-03T16:59:00.465Z</time></trkpt><trkpt lat="44.0186249" lon="7.9841467"><ele>580.0</ele><time>2026-05-03T16:59:01.464Z</time></trkpt><trkpt lat="44.0185807" lon="7.9842587"><ele>580.0</ele><time>2026-05-03T16:59:02.461Z</time></trkpt><trkpt lat="44.0185379" lon="7.9843725"><ele>580.0</ele><time>2026-05-03T16:59:03.461Z</time></trkpt><trkpt lat="44.018437" lon="7.9845013"><ele>580.0</ele><time>2026-05-03T16:59:04.462Z</time></trkpt><trkpt lat="44.0183356" lon="7.9845985"><ele>580.0</ele><time>2026-05-03T16:59:05.462Z</time></trkpt><trkpt lat="44.0182127" lon="7.9847228"><ele>580.0</ele><time>2026-05-03T16:59:06.463Z</time></trkpt><trkpt lat="44.018105" lon="7.9848764"><ele>580.0</ele><time>2026-05-03T16:59:07.462Z</time></trkpt><trkpt lat="44.0179904" lon="7.9850365"><ele>580.0</ele><time>2026-05-03T16:59:08.467Z</time></trkpt><trkpt lat="44.0178558" lon="7.9851155"><ele>574.25</ele><time>2026-05-03T16:59:09.46Z</time></trkpt><trkpt lat="44.0177398" lon="7.9851571"><ele>568.5</ele><time>2026-05-03T16:59:10.461Z</time></trkpt><trkpt lat="44.0176237" lon="7.9851605"><ele>562.75</ele><time>2026-05-03T16:59:11.461Z</time></trkpt><trkpt lat="44.0175035" lon="7.9851142"><ele>557.0</ele><time>2026-05-03T16:59:12.46Z</time></trkpt><trkpt lat="44.0174213" lon="7.9850357"><ele>558.8000000000001</ele><time>2026-05-03T16:59:13.461Z</time></trkpt><trkpt lat="44.0173405" lon="7.9849186"><ele>560.6</ele><time>2026-05-03T16:59:14.463Z</time></trkpt><trkpt lat="44.0172626" lon="7.9847968"><ele>562.4000000000001</ele><time>2026-05-03T16:59:15.466Z</time></trkpt><trkpt lat="44.017193" lon="7.9846986"><ele>564.2</ele><time>2026-05-03T16:59:16.465Z</time></trkpt><trkpt lat="44.0171165" lon="7.9846255"><ele>566.0</ele><time>2026-05-03T16:59:17.462Z</time></trkpt><trkpt lat="44.0170189" lon="7.9846084"><ele>566.0</ele><time>2026-05-03T16:59:18.469Z</time></trkpt><trkpt lat="44.016914" lon="7.9846421"><ele>566.0</ele><time>2026-05-03T16:59:19.464Z</time></trkpt><trkpt lat="44.0168204" lon="7.9846542"><ele>566.0</ele><time>2026-05-03T16:59:20.462Z</time></trkpt><trkpt lat="44.0167253" lon="7.9846712"><ele>566.0</ele><time>2026-05-03T16:59:21.462Z</time></trkpt><trkpt lat="44.0166517" lon="7.984657"><ele>566.0</ele><time>2026-05-03T16:59:22.465Z</time></trkpt><trkpt lat="44.0166116" lon="7.9845557"><ele>564.75</ele><time>2026-05-03T16:59:23.462Z</time></trkpt><trkpt lat="44.0165899" lon="7.9844462"><ele>563.5</ele><time>2026-05-03T16:59:24.463Z</time></trkpt><trkpt lat="44.0165497" lon="7.9843175"><ele>562.25</ele><time>2026-05-03T16:59:25.466Z</time></trkpt><trkpt lat="44.0164969" lon="7.9841362"><ele>561.0</ele><time>2026-05-03T16:59:26.462Z</time></trkpt><trkpt lat="44.0164117" lon="7.9839632"><ele>561.0</ele><time>2026-05-03T16:59:27.463Z</time></trkpt><trkpt lat="44.0163241" lon="7.983812"><ele>561.0</ele><time>2026-05-03T16:59:28.463Z</time></trkpt><trkpt lat="44.0162092" lon="7.9836901"><ele>561.0</ele><time>2026-05-03T16:59:29.462Z</time></trkpt><trkpt lat="44.0161259" lon="7.9835309"><ele>561.0</ele><time>2026-05-03T16:59:30.459Z</time></trkpt><trkpt lat="44.016041" lon="7.9833891"><ele>566.25</ele><time>2026-05-03T16:59:31.46Z</time></trkpt><trkpt lat="44.0159506" lon="7.9832486"><ele>571.5</ele><time>2026-05-03T16:59:32.46Z</time></trkpt><trkpt lat="44.0158883" lon="7.9830893"><ele>576.75</ele><time>2026-05-03T16:59:33.464Z</time></trkpt><trkpt lat="44.0158176" lon="7.9829821"><ele>582.0</ele><time>2026-05-03T16:59:34.467Z</time></trkpt><trkpt lat="44.0157735" lon="7.982852"><ele>582.0</ele><time>2026-05-03T16:59:35.465Z</time></trkpt><trkpt lat="44.0157447" lon="7.9827153"><ele>582.0</ele><time>2026-05-03T16:59:36.46Z</time></trkpt><trkpt lat="44.0157098" lon="7.9825864"><ele>582.0</ele><time>2026-05-03T16:59:37.462Z</time></trkpt><trkpt lat="44.0156809" lon="7.982466"><ele>582.0</ele><time>2026-05-03T16:59:38.468Z</time></trkpt><trkpt lat="44.0156386" lon="7.9823811"><ele>582.0</ele><time>2026-05-03T16:59:39.462Z</time></trkpt><trkpt lat="44.0155242" lon="7.9822943"><ele>588.75</ele><time>2026-05-03T16:59:41.46Z</time></trkpt><trkpt lat="44.0153935" lon="7.98222"><ele>595.5</ele><time>2026-05-03T16:59:42.463Z</time></trkpt><trkpt lat="44.0152445" lon="7.9822203"><ele>602.25</ele><time>2026-05-03T16:59:43.462Z</time></trkpt><trkpt lat="44.0151299" lon="7.9822106"><ele>609.0</ele><time>2026-05-03T16:59:44.464Z</time></trkpt><trkpt lat="44.0150309" lon="7.9822241"><ele>609.0</ele><time>2026-05-03T16:59:45.464Z</time></trkpt><trkpt lat="44.0149914" lon="7.9824029"><ele>609.0</ele><time>2026-05-03T16:59:46.461Z</time></trkpt><trkpt lat="44.0149322" lon="7.9825496"><ele>609.0</ele><time>2026-05-03T16:59:47.461Z</time></trkpt><trkpt lat="44.0148775" lon="7.9826833"><ele>609.0</ele><time>2026-05-03T16:59:48.46Z</time></trkpt><trkpt lat="44.0148018" lon="7.9827888"><ele>607.6666666666666</ele><time>2026-05-03T16:59:49.46Z</time></trkpt><trkpt lat="44.0146754" lon="7.982852"><ele>606.3333333333333</ele><time>2026-05-03T16:59:50.465Z</time></trkpt><trkpt lat="44.0145173" lon="7.9829423"><ele>605.0</ele><time>2026-05-03T16:59:51.462Z</time></trkpt><trkpt lat="44.0143585" lon="7.9830162"><ele>605.0</ele><time>2026-05-03T16:59:52.463Z</time></trkpt><trkpt lat="44.0142138" lon="7.9830918"><ele>605.0</ele><time>2026-05-03T16:59:53.465Z</time></trkpt><trkpt lat="44.0140347" lon="7.9831241"><ele>605.0</ele><time>2026-05-03T16:59:54.462Z</time></trkpt><trkpt lat="44.0138643" lon="7.9831545"><ele>613.3333333333333</ele><time>2026-05-03T16:59:55.464Z</time></trkpt><trkpt lat="44.0136917" lon="7.9831719"><ele>621.6666666666666</ele><time>2026-05-03T16:59:56.46Z</time></trkpt><trkpt lat="44.0135355" lon="7.9831898"><ele>630.0</ele><time>2026-05-03T16:59:57.461Z</time></trkpt><trkpt lat="44.0133849" lon="7.9832417"><ele>634.6666666666666</ele><time>2026-05-03T16:59:58.461Z</time></trkpt><trkpt lat="44.0132042" lon="7.9833052"><ele>639.3333333333333</ele><time>2026-05-03T16:59:59.47Z</time></trkpt><trkpt lat="44.0130753" lon="7.9833428"><ele>644.0</ele><time>2026-05-03T17:00:00.461Z</time></trkpt><trkpt lat="44.0129252" lon="7.9834328"><ele>644.0</ele><time>2026-05-03T17:00:01.465Z</time></trkpt><trkpt lat="44.0128549" lon="7.9835777"><ele>644.0</ele><time>2026-05-03T17:00:02.461Z</time></trkpt><trkpt lat="44.0127788" lon="7.9838283"><ele>644.0</ele><time>2026-05-03T17:00:03.461Z</time></trkpt><trkpt lat="44.012702" lon="7.9840127"><ele>637.0</ele><time>2026-05-03T17:00:04.466Z</time></trkpt><trkpt lat="44.0126476" lon="7.9842927"><ele>630.0</ele><time>2026-05-03T17:00:05.466Z</time></trkpt><trkpt lat="44.0125874" lon="7.9844757"><ele>623.0</ele><time>2026-05-03T17:00:06.461Z</time></trkpt><trkpt lat="44.0125236" lon="7.9846459"><ele>624.5</ele><time>2026-05-03T17:00:07.461Z</time></trkpt><trkpt lat="44.0124324" lon="7.984787"><ele>626.0</ele><time>2026-05-03T17:00:08.469Z</time></trkpt><trkpt lat="44.0123361" lon="7.9849063"><ele>627.5</ele><time>2026-05-03T17:00:09.461Z</time></trkpt><trkpt lat="44.0122205" lon="7.9849714"><ele>629.0</ele><time>2026-05-03T17:00:10.469Z</time></trkpt><trkpt lat="44.0120597" lon="7.9850149"><ele>629.0</ele><time>2026-05-03T17:00:11.462Z</time></trkpt><trkpt lat="44.0118864" lon="7.9850653"><ele>629.0</ele><time>2026-05-03T17:00:12.462Z</time></trkpt><trkpt lat="44.0117401" lon="7.985127"><ele>629.0</ele><time>2026-05-03T17:00:13.467Z</time></trkpt><trkpt lat="44.0116062" lon="7.9852503"><ele>640.6666666666666</ele><time>2026-05-03T17:00:14.46Z</time></trkpt><trkpt lat="44.0114947" lon="7.9853744"><ele>652.3333333333334</ele><time>2026-05-03T17:00:15.464Z</time></trkpt><trkpt lat="44.0113985" lon="7.9855551"><ele>664.0</ele><time>2026-05-03T17:00:16.462Z</time></trkpt><trkpt lat="44.0113003" lon="7.9857238"><ele>660.75</ele><time>2026-05-03T17:00:17.461Z</time></trkpt><trkpt lat="44.0111898" lon="7.985888"><ele>657.5</ele><time>2026-05-03T17:00:18.463Z</time></trkpt><trkpt lat="44.0110588" lon="7.9859914"><ele>654.25</ele><time>2026-05-03T17:00:19.461Z</time></trkpt><trkpt lat="44.0109481" lon="7.9861013"><ele>651.0</ele><time>2026-05-03T17:00:20.464Z</time></trkpt><trkpt lat="44.0108766" lon="7.9862452"><ele>658.3333333333334</ele><time>2026-05-03T17:00:21.462Z</time></trkpt><trkpt lat="44.0108085" lon="7.9863907"><ele>665.6666666666667</ele><time>2026-05-03T17:00:22.466Z</time></trkpt><trkpt lat="44.0107801" lon="7.9866254"><ele>673.0</ele><time>2026-05-03T17:00:23.466Z</time></trkpt><trkpt lat="44.010758" lon="7.9868686"><ele>674.75</ele><time>2026-05-03T17:00:24.465Z</time></trkpt><trkpt lat="44.0107216" lon="7.9870701"><ele>676.5</ele><time>2026-05-03T17:00:25.459Z</time></trkpt><trkpt lat="44.0107215" lon="7.9872489"><ele>678.25</ele><time>2026-05-03T17:00:26.46Z</time></trkpt><trkpt lat="44.0107526" lon="7.9874278"><ele>680.0</ele><time>2026-05-03T17:00:27.462Z</time></trkpt><trkpt lat="44.0107843" lon="7.9876049"><ele>682.75</ele><time>2026-05-03T17:00:28.461Z</time></trkpt><trkpt lat="44.0107607" lon="7.9877523"><ele>685.5</ele><time>2026-05-03T17:00:29.462Z</time></trkpt><trkpt lat="44.0107266" lon="7.9879177"><ele>688.25</ele><time>2026-05-03T17:00:30.461Z</time></trkpt><trkpt lat="44.0106849" lon="7.9880673"><ele>691.0</ele><time>2026-05-03T17:00:31.463Z</time></trkpt><trkpt lat="44.0106253" lon="7.9882428"><ele>691.25</ele><time>2026-05-03T17:00:32.465Z</time></trkpt><trkpt lat="44.0105773" lon="7.9884476"><ele>691.5</ele><time>2026-05-03T17:00:33.462Z</time></trkpt><trkpt lat="44.0105569" lon="7.98863"><ele>691.75</ele><time>2026-05-03T17:00:34.466Z</time></trkpt><trkpt lat="44.0105712" lon="7.9888145"><ele>692.0</ele><time>2026-05-03T17:00:35.461Z</time></trkpt><trkpt lat="44.0106135" lon="7.9890214"><ele>688.0</ele><time>2026-05-03T17:00:36.466Z</time></trkpt><trkpt lat="44.0106825" lon="7.9892114"><ele>684.0</ele><time>2026-05-03T17:00:37.461Z</time></trkpt><trkpt lat="44.0107522" lon="7.9893714"><ele>680.0</ele><time>2026-05-03T17:00:38.46Z</time></trkpt><trkpt lat="44.0107881" lon="7.9895688"><ele>676.0</ele><time>2026-05-03T17:00:39.463Z</time></trkpt><trkpt lat="44.0108076" lon="7.9897414"><ele>676.0</ele><time>2026-05-03T17:00:40.466Z</time></trkpt><trkpt lat="44.01081" lon="7.9899277"><ele>676.0</ele><time>2026-05-03T17:00:41.469Z</time></trkpt><trkpt lat="44.0107939" lon="7.9900784"><ele>676.0</ele><time>2026-05-03T17:00:42.466Z</time></trkpt><trkpt lat="44.0107173" lon="7.9901592"><ele>676.0</ele><time>2026-05-03T17:00:43.464Z</time></trkpt><trkpt lat="44.0106307" lon="7.9901697"><ele>676.0</ele><time>2026-05-03T17:00:44.461Z</time></trkpt><trkpt lat="44.0105064" lon="7.990131"><ele>676.0</ele><time>2026-05-03T17:00:45.459Z</time></trkpt><trkpt lat="44.0103268" lon="7.9900316"><ele>676.0</ele><time>2026-05-03T17:00:46.459Z</time></trkpt><trkpt lat="44.010162" lon="7.9899693"><ele>676.0</ele><time>2026-05-03T17:00:47.459Z</time></trkpt><trkpt lat="44.0100143" lon="7.989979"><ele>673.3333333333334</ele><time>2026-05-03T17:00:48.461Z</time></trkpt><trkpt lat="44.0098692" lon="7.9900501"><ele>670.6666666666666</ele><time>2026-05-03T17:00:49.461Z</time></trkpt><trkpt lat="44.0097356" lon="7.9901583"><ele>668.0</ele><time>2026-05-03T17:00:50.462Z</time></trkpt><trkpt lat="44.0096034" lon="7.990301"><ele>668.0</ele><time>2026-05-03T17:00:51.464Z</time></trkpt><trkpt lat="44.0094555" lon="7.9904179"><ele>668.0</ele><time>2026-05-03T17:00:52.468Z</time></trkpt><trkpt lat="44.0093193" lon="7.9905122"><ele>668.0</ele><time>2026-05-03T17:00:53.462Z</time></trkpt><trkpt lat="44.0091887" lon="7.9906104"><ele>672.6666666666666</ele><time>2026-05-03T17:00:54.461Z</time></trkpt><trkpt lat="44.0090441" lon="7.9906642"><ele>677.3333333333334</ele><time>2026-05-03T17:00:55.464Z</time></trkpt><trkpt lat="44.008878" lon="7.990681"><ele>682.0</ele><time>2026-05-03T17:00:56.466Z</time></trkpt><trkpt lat="44.0086825" lon="7.9907787"><ele>676.3333333333334</ele><time>2026-05-03T17:00:57.468Z</time></trkpt><trkpt lat="44.0085137" lon="7.9908721"><ele>670.6666666666666</ele><time>2026-05-03T17:00:58.461Z</time></trkpt><trkpt lat="44.0083589" lon="7.9909601"><ele>665.0</ele><time>2026-05-03T17:00:59.461Z</time></trkpt><trkpt lat="44.0082034" lon="7.9910517"><ele>665.0</ele><time>2026-05-03T17:01:00.461Z</time></trkpt><trkpt lat="44.0080368" lon="7.9910966"><ele>665.0</ele><time>2026-05-03T17:01:01.466Z</time></trkpt><trkpt lat="44.0078465" lon="7.9911303"><ele>665.0</ele><time>2026-05-03T17:01:02.462Z</time></trkpt><trkpt lat="44.0076588" lon="7.9911371"><ele>665.0</ele><time>2026-05-03T17:01:03.462Z</time></trkpt><trkpt lat="44.0075227" lon="7.9911423"><ele>665.0</ele><time>2026-05-03T17:01:04.462Z</time></trkpt><trkpt lat="44.007424" lon="7.9911117"><ele>665.0</ele><time>2026-05-03T17:01:05.462Z</time></trkpt><trkpt lat="44.0073447" lon="7.9910819"><ele>665.0</ele><time>2026-05-03T17:01:06.462Z</time></trkpt><trkpt lat="44.0072413" lon="7.9910546"><ele>665.0</ele><time>2026-05-03T17:01:08.46Z</time></trkpt><trkpt lat="44.0072016" lon="7.990963"><ele>665.0</ele><time>2026-05-03T17:01:11.465Z</time></trkpt><trkpt lat="44.0071643" lon="7.9908891"><ele>665.0</ele><time>2026-05-03T17:01:13.466Z</time></trkpt><trkpt lat="44.007144" lon="7.9908017"><ele>665.0</ele><time>2026-05-03T17:08:18.46Z</time></trkpt><trkpt lat="44.0072129" lon="7.9907965"><ele>665.0</ele><time>2026-05-03T17:08:23.466Z</time></trkpt><trkpt lat="44.0072311" lon="7.9909077"><ele>665.0</ele><time>2026-05-03T17:08:26.461Z</time></trkpt><trkpt lat="44.0071811" lon="7.9910251"><ele>665.0</ele><time>2026-05-03T17:08:28.461Z</time></trkpt><trkpt lat="44.007114" lon="7.991107"><ele>669.0</ele><time>2026-05-03T17:08:29.46Z</time></trkpt><trkpt lat="44.0069576" lon="7.9912342"><ele>673.0</ele><time>2026-05-03T17:08:30.468Z</time></trkpt><trkpt lat="44.0068828" lon="7.9913425"><ele>677.0</ele><time>2026-05-03T17:08:31.462Z</time></trkpt><trkpt lat="44.0068232" lon="7.9914494"><ele>681.0</ele><time>2026-05-03T17:08:32.461Z</time></trkpt><trkpt lat="44.0067592" lon="7.9915779"><ele>683.0</ele><time>2026-05-03T17:08:33.466Z</time></trkpt><trkpt lat="44.0067096" lon="7.9917444"><ele>685.0</ele><time>2026-05-03T17:08:34.463Z</time></trkpt><trkpt lat="44.0067149" lon="7.9920077"><ele>687.0</ele><time>2026-05-03T17:08:35.465Z</time></trkpt><trkpt lat="44.006713" lon="7.992243"><ele>687.0</ele><time>2026-05-03T17:08:36.461Z</time></trkpt><trkpt lat="44.0067204" lon="7.9924807"><ele>687.0</ele><time>2026-05-03T17:08:37.46Z</time></trkpt><trkpt lat="44.0067343" lon="7.9927043"><ele>687.0</ele><time>2026-05-03T17:08:38.467Z</time></trkpt><trkpt lat="44.0067397" lon="7.9929224"><ele>683.0</ele><time>2026-05-03T17:08:39.462Z</time></trkpt><trkpt lat="44.0067284" lon="7.9931346"><ele>679.0</ele><time>2026-05-03T17:08:40.461Z</time></trkpt><trkpt lat="44.0066968" lon="7.9933673"><ele>675.0</ele><time>2026-05-03T17:08:41.466Z</time></trkpt><trkpt lat="44.0066238" lon="7.9935971"><ele>684.3333333333334</ele><time>2026-05-03T17:08:42.462Z</time></trkpt><trkpt lat="44.0065413" lon="7.9938283"><ele>693.6666666666667</ele><time>2026-05-03T17:08:43.464Z</time></trkpt><trkpt lat="44.0064762" lon="7.9940442"><ele>703.0</ele><time>2026-05-03T17:08:44.465Z</time></trkpt><trkpt lat="44.0063963" lon="7.9942552"><ele>703.0</ele><time>2026-05-03T17:08:45.463Z</time></trkpt><trkpt lat="44.0063164" lon="7.9944448"><ele>703.0</ele><time>2026-05-03T17:08:46.466Z</time></trkpt><trkpt lat="44.006273" lon="7.994623"><ele>703.0</ele><time>2026-05-03T17:08:47.461Z</time></trkpt><trkpt lat="44.0062573" lon="7.9948207"><ele>703.0</ele><time>2026-05-03T17:08:48.461Z</time></trkpt><trkpt lat="44.0062691" lon="7.9950441"><ele>698.0</ele><time>2026-05-03T17:08:49.462Z</time></trkpt><trkpt lat="44.0062598" lon="7.9952419"><ele>693.0</ele><time>2026-05-03T17:08:50.465Z</time></trkpt><trkpt lat="44.0062862" lon="7.995449"><ele>688.0</ele><time>2026-05-03T17:08:51.464Z</time></trkpt><trkpt lat="44.0062993" lon="7.9956262"><ele>683.0</ele><time>2026-05-03T17:08:52.46Z</time></trkpt><trkpt lat="44.0063016" lon="7.9957804"><ele>675.5</ele><time>2026-05-03T17:08:53.468Z</time></trkpt><trkpt lat="44.006274" lon="7.9959056"><ele>668.0</ele><time>2026-05-03T17:08:54.464Z</time></trkpt><trkpt lat="44.00623" lon="7.9960294"><ele>660.5</ele><time>2026-05-03T17:08:55.463Z</time></trkpt><trkpt lat="44.0061601" lon="7.9961351"><ele>653.0</ele><time>2026-05-03T17:08:56.46Z</time></trkpt><trkpt lat="44.0060194" lon="7.9962755"><ele>653.0</ele><time>2026-05-03T17:08:57.465Z</time></trkpt><trkpt lat="44.0059027" lon="7.9964042"><ele>653.0</ele><time>2026-05-03T17:08:58.465Z</time></trkpt><trkpt lat="44.0057886" lon="7.9965571"><ele>653.0</ele><time>2026-05-03T17:08:59.462Z</time></trkpt><trkpt lat="44.0056683" lon="7.996713"><ele>661.0</ele><time>2026-05-03T17:09:00.464Z</time></trkpt><trkpt lat="44.0055545" lon="7.9969036"><ele>669.0</ele><time>2026-05-03T17:09:01.468Z</time></trkpt><trkpt lat="44.0054591" lon="7.9971531"><ele>677.0</ele><time>2026-05-03T17:09:02.464Z</time></trkpt><trkpt lat="44.005371" lon="7.9973794"><ele>675.5</ele><time>2026-05-03T17:09:03.466Z</time></trkpt><trkpt lat="44.0052851" lon="7.9975852"><ele>674.0</ele><time>2026-05-03T17:09:04.464Z</time></trkpt><trkpt lat="44.0052181" lon="7.9977524"><ele>672.5</ele><time>2026-05-03T17:09:05.465Z</time></trkpt><trkpt lat="44.005161" lon="7.9979142"><ele>671.0</ele><time>2026-05-03T17:09:06.459Z</time></trkpt><trkpt lat="44.0051341" lon="7.9980656"><ele>671.0</ele><time>2026-05-03T17:09:07.459Z</time></trkpt><trkpt lat="44.005157" lon="7.9982152"><ele>671.0</ele><time>2026-05-03T17:09:08.461Z</time></trkpt><trkpt lat="44.0052273" lon="7.998379"><ele>671.0</ele><time>2026-05-03T17:09:09.464Z</time></trkpt><trkpt lat="44.0053172" lon="7.998555"><ele>671.0</ele><time>2026-05-03T17:09:10.464Z</time></trkpt><trkpt lat="44.0054169" lon="7.9987486"><ele>677.0</ele><time>2026-05-03T17:09:11.461Z</time></trkpt><trkpt lat="44.0055219" lon="7.9989168"><ele>683.0</ele><time>2026-05-03T17:09:12.464Z</time></trkpt><trkpt lat="44.0056213" lon="7.9990821"><ele>689.0</ele><time>2026-05-03T17:09:13.463Z</time></trkpt><trkpt lat="44.0057096" lon="7.9992513"><ele>692.6666666666666</ele><time>2026-05-03T17:09:14.463Z</time></trkpt><trkpt lat="44.0057808" lon="7.9994401"><ele>696.3333333333334</ele><time>2026-05-03T17:09:15.46Z</time></trkpt><trkpt lat="44.0058339" lon="7.9996497"><ele>700.0</ele><time>2026-05-03T17:09:16.46Z</time></trkpt><trkpt lat="44.0059807" lon="7.9997569"><ele>688.25</ele><time>2026-05-03T17:09:17.464Z</time></trkpt><trkpt lat="44.006072" lon="7.9998926"><ele>676.5</ele><time>2026-05-03T17:09:18.461Z</time></trkpt><trkpt lat="44.0061618" lon="8.0000022"><ele>664.75</ele><time>2026-05-03T17:09:19.464Z</time></trkpt><trkpt lat="44.0062322" lon="8.0001377"><ele>653.0</ele><time>2026-05-03T17:09:20.466Z</time></trkpt><trkpt lat="44.0063036" lon="8.0002816"><ele>653.0</ele><time>2026-05-03T17:09:21.461Z</time></trkpt><trkpt lat="44.0063266" lon="8.0004358"><ele>653.0</ele><time>2026-05-03T17:09:22.463Z</time></trkpt><trkpt lat="44.006381" lon="8.000576"><ele>653.0</ele><time>2026-05-03T17:09:23.463Z</time></trkpt><trkpt lat="44.0064694" lon="8.0007191"><ele>653.0</ele><time>2026-05-03T17:09:24.468Z</time></trkpt><trkpt lat="44.0065651" lon="8.0008485"><ele>653.4</ele><time>2026-05-03T17:09:25.461Z</time></trkpt><trkpt lat="44.0066586" lon="8.0009084"><ele>653.8</ele><time>2026-05-03T17:09:26.464Z</time></trkpt><trkpt lat="44.0067393" lon="8.0009826"><ele>654.2</ele><time>2026-05-03T17:09:27.458Z</time></trkpt><trkpt lat="44.0067967" lon="8.0010568"><ele>654.6</ele><time>2026-05-03T17:09:28.458Z</time></trkpt><trkpt lat="44.0068181" lon="8.0011471"><ele>655.0</ele><time>2026-05-03T17:09:29.459Z</time></trkpt><trkpt lat="44.0067943" lon="8.0013016"><ele>648.3333333333334</ele><time>2026-05-03T17:09:31.463Z</time></trkpt><trkpt lat="44.0067793" lon="8.0014118"><ele>641.6666666666666</ele><time>2026-05-03T17:09:32.474Z</time></trkpt><trkpt lat="44.0066657" lon="8.001672"><ele>635.0</ele><time>2026-05-03T17:09:33.464Z</time></trkpt><trkpt lat="44.0065755" lon="8.0018732"><ele>635.0</ele><time>2026-05-03T17:09:34.46Z</time></trkpt><trkpt lat="44.0064461" lon="8.0019664"><ele>635.0</ele><time>2026-05-03T17:09:35.462Z</time></trkpt><trkpt lat="44.0063581" lon="8.0020882"><ele>635.0</ele><time>2026-05-03T17:09:36.463Z</time></trkpt><trkpt lat="44.0062501" lon="8.0021202"><ele>635.0</ele><time>2026-05-03T17:09:37.464Z</time></trkpt><trkpt lat="44.0061416" lon="8.0021013"><ele>635.0</ele><time>2026-05-03T17:09:38.464Z</time></trkpt><trkpt lat="44.006018" lon="8.0020771"><ele>635.0</ele><time>2026-05-03T17:09:39.461Z</time></trkpt><trkpt lat="44.0059194" lon="8.0020163"><ele>635.0</ele><time>2026-05-03T17:09:40.464Z</time></trkpt><trkpt lat="44.0058448" lon="8.001839"><ele>635.0</ele><time>2026-05-03T17:09:41.461Z</time></trkpt><trkpt lat="44.0057195" lon="8.001766"><ele>637.75</ele><time>2026-05-03T17:09:42.463Z</time></trkpt><trkpt lat="44.0055739" lon="8.001768"><ele>640.5</ele><time>2026-05-03T17:09:43.464Z</time></trkpt><trkpt lat="44.005431" lon="8.0017909"><ele>643.25</ele><time>2026-05-03T17:09:44.462Z</time></trkpt><trkpt lat="44.0053025" lon="8.0018408"><ele>646.0</ele><time>2026-05-03T17:09:45.463Z</time></trkpt><trkpt lat="44.0052044" lon="8.0019991"><ele>646.0</ele><time>2026-05-03T17:09:46.466Z</time></trkpt><trkpt lat="44.00511" lon="8.0020962"><ele>646.0</ele><time>2026-05-03T17:09:47.462Z</time></trkpt><trkpt lat="44.005008" lon="8.0021621"><ele>646.0</ele><time>2026-05-03T17:09:48.465Z</time></trkpt><trkpt lat="44.0048893" lon="8.0021783"><ele>646.0</ele><time>2026-05-03T17:09:49.46Z</time></trkpt><trkpt lat="44.0047878" lon="8.0021726"><ele>645.25</ele><time>2026-05-03T17:09:50.463Z</time></trkpt><trkpt lat="44.0046843" lon="8.0022317"><ele>644.5</ele><time>2026-05-03T17:09:51.462Z</time></trkpt><trkpt lat="44.0045678" lon="8.0023266"><ele>643.75</ele><time>2026-05-03T17:09:52.464Z</time></trkpt><trkpt lat="44.0044601" lon="8.0024396"><ele>643.0</ele><time>2026-05-03T17:09:53.465Z</time></trkpt><trkpt lat="44.0044046" lon="8.0025666"><ele>643.0</ele><time>2026-05-03T17:09:54.467Z</time></trkpt><trkpt lat="44.0043594" lon="8.0027075"><ele>643.0</ele><time>2026-05-03T17:09:55.461Z</time></trkpt><trkpt lat="44.0043468" lon="8.0028845"><ele>643.0</ele><time>2026-05-03T17:09:56.463Z</time></trkpt><trkpt lat="44.0043395" lon="8.003101"><ele>643.0</ele><time>2026-05-03T17:09:57.462Z</time></trkpt><trkpt lat="44.0043171" lon="8.0033142"><ele>640.0</ele><time>2026-05-03T17:09:58.462Z</time></trkpt><trkpt lat="44.0042909" lon="8.0035026"><ele>637.0</ele><time>2026-05-03T17:09:59.466Z</time></trkpt><trkpt lat="44.0042294" lon="8.0036505"><ele>634.0</ele><time>2026-05-03T17:10:00.464Z</time></trkpt><trkpt lat="44.0041753" lon="8.0037962"><ele>631.0</ele><time>2026-05-03T17:10:01.464Z</time></trkpt><trkpt lat="44.0041021" lon="8.0039337"><ele>633.5</ele><time>2026-05-03T17:10:02.464Z</time></trkpt><trkpt lat="44.0039917" lon="8.0040616"><ele>636.0</ele><time>2026-05-03T17:10:03.462Z</time></trkpt><trkpt lat="44.0038421" lon="8.0041229"><ele>638.5</ele><time>2026-05-03T17:10:04.466Z</time></trkpt><trkpt lat="44.0037111" lon="8.0041877"><ele>641.0</ele><time>2026-05-03T17:10:05.461Z</time></trkpt><trkpt lat="44.0035837" lon="8.0042522"><ele>641.0</ele><time>2026-05-03T17:10:06.463Z</time></trkpt><trkpt lat="44.0034704" lon="8.0043187"><ele>641.0</ele><time>2026-05-03T17:10:07.461Z</time></trkpt><trkpt lat="44.0033785" lon="8.0043949"><ele>641.0</ele><time>2026-05-03T17:10:08.463Z</time></trkpt><trkpt lat="44.0033249" lon="8.0045078"><ele>641.0</ele><time>2026-05-03T17:10:09.464Z</time></trkpt><trkpt lat="44.0032943" lon="8.0046594"><ele>641.0</ele><time>2026-05-03T17:10:10.46Z</time></trkpt><trkpt lat="44.0032799" lon="8.0048133"><ele>640.4</ele><time>2026-05-03T17:10:11.462Z</time></trkpt><trkpt lat="44.0032587" lon="8.0048965"><ele>639.8</ele><time>2026-05-03T17:10:12.465Z</time></trkpt><trkpt lat="44.0032019" lon="8.0050052"><ele>639.1999999999999</ele><time>2026-05-03T17:10:13.465Z</time></trkpt><trkpt lat="44.0031533" lon="8.0050893"><ele>638.5999999999999</ele><time>2026-05-03T17:10:14.463Z</time></trkpt><trkpt lat="44.0030486" lon="8.0051149"><ele>638.0</ele><time>2026-05-03T17:10:15.462Z</time></trkpt><trkpt lat="44.0029387" lon="8.0051652"><ele>638.0</ele><time>2026-05-03T17:10:16.464Z</time></trkpt><trkpt lat="44.0027703" lon="8.0051699"><ele>638.0</ele><time>2026-05-03T17:10:17.465Z</time></trkpt><trkpt lat="44.002666" lon="8.0051816"><ele>638.0</ele><time>2026-05-03T17:10:18.468Z</time></trkpt><trkpt lat="44.0025596" lon="8.0052252"><ele>638.0</ele><time>2026-05-03T17:10:19.463Z</time></trkpt><trkpt lat="44.0024984" lon="8.0053095"><ele>635.5</ele><time>2026-05-03T17:10:20.463Z</time></trkpt><trkpt lat="44.0024408" lon="8.0054503"><ele>633.0</ele><time>2026-05-03T17:10:21.462Z</time></trkpt><trkpt lat="44.0024323" lon="8.0056092"><ele>630.5</ele><time>2026-05-03T17:10:22.461Z</time></trkpt><trkpt lat="44.0024833" lon="8.0057762"><ele>628.0</ele><time>2026-05-03T17:10:23.462Z</time></trkpt><trkpt lat="44.0025666" lon="8.0059606"><ele>628.0</ele><time>2026-05-03T17:10:24.462Z</time></trkpt><trkpt lat="44.002653" lon="8.0061426"><ele>628.0</ele><time>2026-05-03T17:10:25.463Z</time></trkpt><trkpt lat="44.0027381" lon="8.0063103"><ele>628.0</ele><time>2026-05-03T17:10:26.467Z</time></trkpt><trkpt lat="44.0028163" lon="8.0064694"><ele>628.0</ele><time>2026-05-03T17:10:27.463Z</time></trkpt><trkpt lat="44.0028583" lon="8.0066194"><ele>628.4</ele><time>2026-05-03T17:10:28.464Z</time></trkpt><trkpt lat="44.0028751" lon="8.0067606"><ele>628.8</ele><time>2026-05-03T17:10:29.461Z</time></trkpt><trkpt lat="44.0028593" lon="8.0068929"><ele>629.2</ele><time>2026-05-03T17:10:30.464Z</time></trkpt><trkpt lat="44.0028366" lon="8.0070185"><ele>629.6</ele><time>2026-05-03T17:10:31.467Z</time></trkpt><trkpt lat="44.0027557" lon="8.007157"><ele>630.0</ele><time>2026-05-03T17:10:32.466Z</time></trkpt><trkpt lat="44.00265" lon="8.0073411"><ele>626.0</ele><time>2026-05-03T17:10:33.464Z</time></trkpt><trkpt lat="44.00257" lon="8.0075163"><ele>622.0</ele><time>2026-05-03T17:10:34.461Z</time></trkpt><trkpt lat="44.0024921" lon="8.0077061"><ele>618.0</ele><time>2026-05-03T17:10:35.462Z</time></trkpt><trkpt lat="44.0024438" lon="8.0079348"><ele>627.6666666666666</ele><time>2026-05-03T17:10:36.463Z</time></trkpt><trkpt lat="44.0024085" lon="8.0081787"><ele>637.3333333333333</ele><time>2026-05-03T17:10:37.463Z</time></trkpt><trkpt lat="44.0023999" lon="8.0084178"><ele>647.0</ele><time>2026-05-03T17:10:38.465Z</time></trkpt><trkpt lat="44.0023727" lon="8.0086696"><ele>647.0</ele><time>2026-05-03T17:10:39.461Z</time></trkpt><trkpt lat="44.0023498" lon="8.0088893"><ele>647.0</ele><time>2026-05-03T17:10:40.461Z</time></trkpt><trkpt lat="44.0023003" lon="8.0091034"><ele>647.0</ele><time>2026-05-03T17:10:41.462Z</time></trkpt><trkpt lat="44.0022585" lon="8.0092653"><ele>647.0</ele><time>2026-05-03T17:10:42.462Z</time></trkpt><trkpt lat="44.002181" lon="8.0094626"><ele>641.5</ele><time>2026-05-03T17:10:43.463Z</time></trkpt><trkpt lat="44.0021806" lon="8.0096294"><ele>636.0</ele><time>2026-05-03T17:10:44.465Z</time></trkpt><trkpt lat="44.0022151" lon="8.0098007"><ele>630.5</ele><time>2026-05-03T17:10:45.464Z</time></trkpt><trkpt lat="44.0022702" lon="8.0099828"><ele>625.0</ele><time>2026-05-03T17:10:46.462Z</time></trkpt><trkpt lat="44.0023549" lon="8.0101412"><ele>624.0</ele><time>2026-05-03T17:10:47.462Z</time></trkpt><trkpt lat="44.0024297" lon="8.0103035"><ele>623.0</ele><time>2026-05-03T17:10:48.466Z</time></trkpt><trkpt lat="44.0024807" lon="8.0104506"><ele>622.0</ele><time>2026-05-03T17:10:49.465Z</time></trkpt><trkpt lat="44.0025052" lon="8.0106306"><ele>621.0</ele><time>2026-05-03T17:10:50.465Z</time></trkpt><trkpt lat="44.002534" lon="8.0108212"><ele>616.5</ele><time>2026-05-03T17:10:51.461Z</time></trkpt><trkpt lat="44.0025627" lon="8.0110112"><ele>612.0</ele><time>2026-05-03T17:10:52.463Z</time></trkpt><trkpt lat="44.0025644" lon="8.0112253"><ele>607.5</ele><time>2026-05-03T17:10:53.462Z</time></trkpt><trkpt lat="44.0025418" lon="8.0114228"><ele>603.0</ele><time>2026-05-03T17:10:54.466Z</time></trkpt><trkpt lat="44.0025117" lon="8.0116012"><ele>602.75</ele><time>2026-05-03T17:10:55.461Z</time></trkpt><trkpt lat="44.0025321" lon="8.0117812"><ele>602.5</ele><time>2026-05-03T17:10:56.462Z</time></trkpt><trkpt lat="44.0025446" lon="8.011964"><ele>602.25</ele><time>2026-05-03T17:10:57.467Z</time></trkpt><trkpt lat="44.0025823" lon="8.0121521"><ele>602.0</ele><time>2026-05-03T17:10:58.466Z</time></trkpt><trkpt lat="44.0026704" lon="8.0123176"><ele>603.0</ele><time>2026-05-03T17:10:59.462Z</time></trkpt><trkpt lat="44.0027387" lon="8.0125165"><ele>604.0</ele><time>2026-05-03T17:11:00.461Z</time></trkpt><trkpt lat="44.0027816" lon="8.012675"><ele>605.0</ele><time>2026-05-03T17:11:01.459Z</time></trkpt><trkpt lat="44.0028146" lon="8.0128826"><ele>606.0</ele><time>2026-05-03T17:11:02.459Z</time></trkpt><trkpt lat="44.0028706" lon="8.0130738"><ele>606.0</ele><time>2026-05-03T17:11:03.462Z</time></trkpt><trkpt lat="44.0029404" lon="8.0132526"><ele>606.0</ele><time>2026-05-03T17:11:04.463Z</time></trkpt><trkpt lat="44.0030423" lon="8.013422"><ele>606.0</ele><time>2026-05-03T17:11:05.462Z</time></trkpt><trkpt lat="44.0031565" lon="8.0135689"><ele>608.0</ele><time>2026-05-03T17:11:06.463Z</time></trkpt><trkpt lat="44.0032478" lon="8.0137122"><ele>610.0</ele><time>2026-05-03T17:11:07.465Z</time></trkpt><trkpt lat="44.003326" lon="8.0138567"><ele>612.0</ele><time>2026-05-03T17:11:08.464Z</time></trkpt><trkpt lat="44.0034034" lon="8.0139952"><ele>614.0</ele><time>2026-05-03T17:11:09.463Z</time></trkpt><trkpt lat="44.0034352" lon="8.0141595"><ele>612.5</ele><time>2026-05-03T17:11:10.467Z</time></trkpt><trkpt lat="44.0034451" lon="8.0143575"><ele>611.0</ele><time>2026-05-03T17:11:11.464Z</time></trkpt><trkpt lat="44.0034151" lon="8.0145222"><ele>609.5</ele><time>2026-05-03T17:11:12.462Z</time></trkpt><trkpt lat="44.0033677" lon="8.014766"><ele>608.0</ele><time>2026-05-03T17:11:13.462Z</time></trkpt><trkpt lat="44.0033162" lon="8.0150257"><ele>608.0</ele><time>2026-05-03T17:11:14.464Z</time></trkpt><trkpt lat="44.0032759" lon="8.0152206"><ele>608.0</ele><time>2026-05-03T17:11:15.464Z</time></trkpt><trkpt lat="44.0032576" lon="8.0154256"><ele>608.0</ele><time>2026-05-03T17:11:16.464Z</time></trkpt><trkpt lat="44.0032718" lon="8.015619"><ele>608.0</ele><time>2026-05-03T17:11:17.464Z</time></trkpt><trkpt lat="44.0033173" lon="8.0158051"><ele>602.5</ele><time>2026-05-03T17:11:18.467Z</time></trkpt><trkpt lat="44.0034074" lon="8.0159619"><ele>597.0</ele><time>2026-05-03T17:11:19.465Z</time></trkpt><trkpt lat="44.0034992" lon="8.016112"><ele>591.5</ele><time>2026-05-03T17:11:20.464Z</time></trkpt><trkpt lat="44.0036112" lon="8.0162615"><ele>586.0</ele><time>2026-05-03T17:11:21.459Z</time></trkpt><trkpt lat="44.0037249" lon="8.0164047"><ele>586.0</ele><time>2026-05-03T17:11:22.461Z</time></trkpt><trkpt lat="44.0038392" lon="8.0165441"><ele>586.0</ele><time>2026-05-03T17:11:23.461Z</time></trkpt><trkpt lat="44.0039667" lon="8.0166745"><ele>586.0</ele><time>2026-05-03T17:11:24.461Z</time></trkpt><trkpt lat="44.0040784" lon="8.0168234"><ele>581.0</ele><time>2026-05-03T17:11:25.463Z</time></trkpt><trkpt lat="44.0042092" lon="8.0169686"><ele>576.0</ele><time>2026-05-03T17:11:26.462Z</time></trkpt><trkpt lat="44.0043179" lon="8.0171303"><ele>571.0</ele><time>2026-05-03T17:11:27.463Z</time></trkpt><trkpt lat="44.0044297" lon="8.0173018"><ele>571.0</ele><time>2026-05-03T17:11:28.464Z</time></trkpt><trkpt lat="44.0045169" lon="8.0174798"><ele>571.0</ele><time>2026-05-03T17:11:29.465Z</time></trkpt><trkpt lat="44.004604" lon="8.0176358"><ele>571.0</ele><time>2026-05-03T17:11:30.462Z</time></trkpt><trkpt lat="44.0046768" lon="8.0177844"><ele>571.0</ele><time>2026-05-03T17:11:31.461Z</time></trkpt><trkpt lat="44.004771" lon="8.01789"><ele>572.75</ele><time>2026-05-03T17:11:32.462Z</time></trkpt><trkpt lat="44.0048859" lon="8.0179334"><ele>574.5</ele><time>2026-05-03T17:11:33.464Z</time></trkpt><trkpt lat="44.0050292" lon="8.0179706"><ele>576.25</ele><time>2026-05-03T17:11:34.463Z</time></trkpt><trkpt lat="44.0051706" lon="8.0180249"><ele>578.0</ele><time>2026-05-03T17:11:35.463Z</time></trkpt><trkpt lat="44.0053146" lon="8.018125"><ele>577.3333333333333</ele><time>2026-05-03T17:11:36.464Z</time></trkpt><trkpt lat="44.0054773" lon="8.0182141"><ele>576.6666666666666</ele><time>2026-05-03T17:11:37.466Z</time></trkpt><trkpt lat="44.0056589" lon="8.0182725"><ele>576.0</ele><time>2026-05-03T17:11:38.463Z</time></trkpt><trkpt lat="44.0057954" lon="8.0183322"><ele>575.5</ele><time>2026-05-03T17:11:39.464Z</time></trkpt><trkpt lat="44.0059254" lon="8.0184014"><ele>575.0</ele><time>2026-05-03T17:11:40.46Z</time></trkpt><trkpt lat="44.0060413" lon="8.0184782"><ele>574.5</ele><time>2026-05-03T17:11:41.46Z</time></trkpt><trkpt lat="44.0061174" lon="8.0186198"><ele>574.0</ele><time>2026-05-03T17:11:42.459Z</time></trkpt><trkpt lat="44.0062101" lon="8.0187741"><ele>574.0</ele><time>2026-05-03T17:11:43.463Z</time></trkpt><trkpt lat="44.0063334" lon="8.0189188"><ele>574.0</ele><time>2026-05-03T17:11:44.464Z</time></trkpt><trkpt lat="44.0064774" lon="8.0190579"><ele>574.0</ele><time>2026-05-03T17:11:45.465Z</time></trkpt><trkpt lat="44.0065916" lon="8.0192381"><ele>573.0</ele><time>2026-05-03T17:11:46.464Z</time></trkpt><trkpt lat="44.0066632" lon="8.0194095"><ele>572.0</ele><time>2026-05-03T17:11:47.462Z</time></trkpt><trkpt lat="44.0067537" lon="8.0195657"><ele>571.0</ele><time>2026-05-03T17:11:48.463Z</time></trkpt><trkpt lat="44.0068411" lon="8.0197019"><ele>570.0</ele><time>2026-05-03T17:11:49.464Z</time></trkpt><trkpt lat="44.0069542" lon="8.0197641"><ele>570.0</ele><time>2026-05-03T17:11:50.463Z</time></trkpt><trkpt lat="44.007067" lon="8.0198108"><ele>570.0</ele><time>2026-05-03T17:11:51.465Z</time></trkpt><trkpt lat="44.0071859" lon="8.0197997"><ele>570.0</ele><time>2026-05-03T17:11:52.464Z</time></trkpt><trkpt lat="44.007303" lon="8.0197722"><ele>570.0</ele><time>2026-05-03T17:11:53.462Z</time></trkpt><trkpt lat="44.0074147" lon="8.019723"><ele>566.0</ele><time>2026-05-03T17:11:54.465Z</time></trkpt><trkpt lat="44.007529" lon="8.0197181"><ele>562.0</ele><time>2026-05-03T17:11:55.465Z</time></trkpt><trkpt lat="44.0076618" lon="8.019729"><ele>558.0</ele><time>2026-05-03T17:11:56.468Z</time></trkpt><trkpt lat="44.0078056" lon="8.0197651"><ele>554.0</ele><time>2026-05-03T17:11:57.463Z</time></trkpt><trkpt lat="44.0079441" lon="8.0198312"><ele>554.0</ele><time>2026-05-03T17:11:58.467Z</time></trkpt><trkpt lat="44.0080726" lon="8.0199134"><ele>554.0</ele><time>2026-05-03T17:11:59.463Z</time></trkpt><trkpt lat="44.0081911" lon="8.0199988"><ele>554.0</ele><time>2026-05-03T17:12:00.46Z</time></trkpt><trkpt lat="44.0082954" lon="8.0201305"><ele>554.0</ele><time>2026-05-03T17:12:01.466Z</time></trkpt><trkpt lat="44.0083787" lon="8.0203421"><ele>557.0</ele><time>2026-05-03T17:12:02.461Z</time></trkpt><trkpt lat="44.0084347" lon="8.020512"><ele>560.0</ele><time>2026-05-03T17:12:03.463Z</time></trkpt><trkpt lat="44.0085267" lon="8.0206816"><ele>563.0</ele><time>2026-05-03T17:12:04.464Z</time></trkpt><trkpt lat="44.0085946" lon="8.0208891"><ele>569.0</ele><time>2026-05-03T17:12:05.467Z</time></trkpt><trkpt lat="44.00864" lon="8.0210753"><ele>575.0</ele><time>2026-05-03T17:12:06.466Z</time></trkpt><trkpt lat="44.0086994" lon="8.021254"><ele>581.0</ele><time>2026-05-03T17:12:07.465Z</time></trkpt><trkpt lat="44.0088078" lon="8.0214097"><ele>587.0</ele><time>2026-05-03T17:12:08.464Z</time></trkpt><trkpt lat="44.0089307" lon="8.0215537"><ele>582.6666666666666</ele><time>2026-05-03T17:12:09.464Z</time></trkpt><trkpt lat="44.0090813" lon="8.0216718"><ele>578.3333333333334</ele><time>2026-05-03T17:12:10.462Z</time></trkpt><trkpt lat="44.0092139" lon="8.0217936"><ele>574.0</ele><time>2026-05-03T17:12:11.462Z</time></trkpt><trkpt lat="44.0093563" lon="8.0219091"><ele>574.0</ele><time>2026-05-03T17:12:12.462Z</time></trkpt><trkpt lat="44.0094978" lon="8.0220124"><ele>574.0</ele><time>2026-05-03T17:12:13.462Z</time></trkpt><trkpt lat="44.0096544" lon="8.0220836"><ele>574.0</ele><time>2026-05-03T17:12:14.463Z</time></trkpt><trkpt lat="44.0098027" lon="8.0221325"><ele>574.0</ele><time>2026-05-03T17:12:15.465Z</time></trkpt><trkpt lat="44.0099138" lon="8.022175"><ele>574.0</ele><time>2026-05-03T17:12:16.466Z</time></trkpt><trkpt lat="44.0100336" lon="8.0221723"><ele>574.0</ele><time>2026-05-03T17:12:17.463Z</time></trkpt><trkpt lat="44.0101409" lon="8.0221296"><ele>574.0</ele><time>2026-05-03T17:12:18.464Z</time></trkpt><trkpt lat="44.0102711" lon="8.0220523"><ele>569.5</ele><time>2026-05-03T17:12:19.461Z</time></trkpt><trkpt lat="44.0104113" lon="8.0219949"><ele>565.0</ele><time>2026-05-03T17:12:20.46Z</time></trkpt><trkpt lat="44.0105551" lon="8.0219464"><ele>560.5</ele><time>2026-05-03T17:12:21.46Z</time></trkpt><trkpt lat="44.0106787" lon="8.0219042"><ele>556.0</ele><time>2026-05-03T17:12:22.46Z</time></trkpt><trkpt lat="44.0107869" lon="8.0218842"><ele>556.25</ele><time>2026-05-03T17:12:23.462Z</time></trkpt><trkpt lat="44.0108944" lon="8.0218835"><ele>556.5</ele><time>2026-05-03T17:12:24.464Z</time></trkpt><trkpt lat="44.0109849" lon="8.021957"><ele>556.75</ele><time>2026-05-03T17:12:25.464Z</time></trkpt><trkpt lat="44.0110931" lon="8.0220799"><ele>557.0</ele><time>2026-05-03T17:12:26.462Z</time></trkpt><trkpt lat="44.0112013" lon="8.0221811"><ele>557.0</ele><time>2026-05-03T17:12:27.465Z</time></trkpt><trkpt lat="44.0113496" lon="8.0223352"><ele>557.0</ele><time>2026-05-03T17:12:28.461Z</time></trkpt><trkpt lat="44.0114895" lon="8.0224482"><ele>557.0</ele><time>2026-05-03T17:12:29.462Z</time></trkpt><trkpt lat="44.0116301" lon="8.0225445"><ele>557.25</ele><time>2026-05-03T17:12:30.464Z</time></trkpt><trkpt lat="44.0117524" lon="8.0226465"><ele>557.5</ele><time>2026-05-03T17:12:31.463Z</time></trkpt><trkpt lat="44.0118719" lon="8.0227794"><ele>557.75</ele><time>2026-05-03T17:12:32.464Z</time></trkpt><trkpt lat="44.0119835" lon="8.0228981"><ele>558.0</ele><time>2026-05-03T17:12:33.467Z</time></trkpt><trkpt lat="44.0121091" lon="8.0230082"><ele>558.0</ele><time>2026-05-03T17:12:34.464Z</time></trkpt><trkpt lat="44.0121527" lon="8.0231109"><ele>558.0</ele><time>2026-05-03T17:12:35.464Z</time></trkpt><trkpt lat="44.0121832" lon="8.0232002"><ele>558.0</ele><time>2026-05-03T17:12:36.463Z</time></trkpt><trkpt lat="44.0121822" lon="8.0233349"><ele>558.0</ele><time>2026-05-03T17:12:37.462Z</time></trkpt><trkpt lat="44.0121447" lon="8.0234652"><ele>558.0</ele><time>2026-05-03T17:12:38.461Z</time></trkpt><trkpt lat="44.0120982" lon="8.0235905"><ele>555.5</ele><time>2026-05-03T17:12:39.463Z</time></trkpt><trkpt lat="44.0120031" lon="8.0236542"><ele>553.0</ele><time>2026-05-03T17:12:40.46Z</time></trkpt><trkpt lat="44.0118852" lon="8.0237456"><ele>550.5</ele><time>2026-05-03T17:12:41.46Z</time></trkpt><trkpt lat="44.0117727" lon="8.0236729"><ele>548.0</ele><time>2026-05-03T17:12:42.463Z</time></trkpt><trkpt lat="44.0116528" lon="8.0235682"><ele>547.3333333333333</ele><time>2026-05-03T17:12:43.465Z</time></trkpt><trkpt lat="44.011519" lon="8.0235038"><ele>546.6666666666666</ele><time>2026-05-03T17:12:44.466Z</time></trkpt><trkpt lat="44.0113554" lon="8.0234887"><ele>546.0</ele><time>2026-05-03T17:12:45.467Z</time></trkpt><trkpt lat="44.0112093" lon="8.0234293"><ele>546.0</ele><time>2026-05-03T17:12:46.466Z</time></trkpt><trkpt lat="44.0110494" lon="8.0233842"><ele>546.0</ele><time>2026-05-03T17:12:47.462Z</time></trkpt><trkpt lat="44.0108918" lon="8.0234062"><ele>546.0</ele><time>2026-05-03T17:12:48.462Z</time></trkpt><trkpt lat="44.0107455" lon="8.0234688"><ele>547.6666666666666</ele><time>2026-05-03T17:12:49.462Z</time></trkpt><trkpt lat="44.0105908" lon="8.0235293"><ele>549.3333333333333</ele><time>2026-05-03T17:12:50.462Z</time></trkpt><trkpt lat="44.0104364" lon="8.0235862"><ele>551.0</ele><time>2026-05-03T17:12:51.467Z</time></trkpt><trkpt lat="44.0102907" lon="8.0236118"><ele>551.0</ele><time>2026-05-03T17:12:52.463Z</time></trkpt><trkpt lat="44.0101596" lon="8.0236094"><ele>551.0</ele><time>2026-05-03T17:12:53.464Z</time></trkpt><trkpt lat="44.0100487" lon="8.0235491"><ele>551.0</ele><time>2026-05-03T17:12:54.465Z</time></trkpt><trkpt lat="44.0099252" lon="8.0235072"><ele>551.0</ele><time>2026-05-03T17:12:55.462Z</time></trkpt><trkpt lat="44.0098319" lon="8.0236148"><ele>550.75</ele><time>2026-05-03T17:12:56.462Z</time></trkpt><trkpt lat="44.0097293" lon="8.0236722"><ele>550.5</ele><time>2026-05-03T17:12:57.466Z</time></trkpt><trkpt lat="44.0096184" lon="8.0237844"><ele>550.25</ele><time>2026-05-03T17:12:58.465Z</time></trkpt><trkpt lat="44.0095281" lon="8.0240046"><ele>550.0</ele><time>2026-05-03T17:12:59.468Z</time></trkpt><trkpt lat="44.0094296" lon="8.0241711"><ele>550.0</ele><time>2026-05-03T17:13:00.463Z</time></trkpt><trkpt lat="44.0093374" lon="8.0243322"><ele>550.0</ele><time>2026-05-03T17:13:01.462Z</time></trkpt><trkpt lat="44.0092316" lon="8.0244948"><ele>550.0</ele><time>2026-05-03T17:13:02.462Z</time></trkpt><trkpt lat="44.0091365" lon="8.0246351"><ele>550.0</ele><time>2026-05-03T17:13:03.463Z</time></trkpt><trkpt lat="44.0090209" lon="8.0247433"><ele>554.6666666666667</ele><time>2026-05-03T17:13:04.462Z</time></trkpt><trkpt lat="44.0088722" lon="8.024802"><ele>559.3333333333334</ele><time>2026-05-03T17:13:05.464Z</time></trkpt><trkpt lat="44.0086567" lon="8.0249313"><ele>564.0</ele><time>2026-05-03T17:13:06.463Z</time></trkpt><trkpt lat="44.0085014" lon="8.025019"><ele>553.6666666666666</ele><time>2026-05-03T17:13:07.461Z</time></trkpt><trkpt lat="44.0083365" lon="8.0251274"><ele>543.3333333333333</ele><time>2026-05-03T17:13:08.462Z</time></trkpt><trkpt lat="44.0081786" lon="8.0251995"><ele>533.0</ele><time>2026-05-03T17:13:09.461Z</time></trkpt><trkpt lat="44.0080203" lon="8.0252702"><ele>533.0</ele><time>2026-05-03T17:13:10.464Z</time></trkpt><trkpt lat="44.0078748" lon="8.0253695"><ele>533.0</ele><time>2026-05-03T17:13:11.463Z</time></trkpt><trkpt lat="44.0077392" lon="8.0254859"><ele>533.0</ele><time>2026-05-03T17:13:12.466Z</time></trkpt><trkpt lat="44.0076157" lon="8.0256061"><ele>529.0</ele><time>2026-05-03T17:13:13.468Z</time></trkpt><trkpt lat="44.0074568" lon="8.0256869"><ele>525.0</ele><time>2026-05-03T17:13:14.466Z</time></trkpt><trkpt lat="44.0072934" lon="8.0257513"><ele>521.0</ele><time>2026-05-03T17:13:15.466Z</time></trkpt><trkpt lat="44.0071194" lon="8.0257925"><ele>516.3333333333333</ele><time>2026-05-03T17:13:16.467Z</time></trkpt><trkpt lat="44.0069565" lon="8.0258338"><ele>511.66666666666663</ele><time>2026-05-03T17:13:17.461Z</time></trkpt><trkpt lat="44.0067981" lon="8.0258766"><ele>507.0</ele><time>2026-05-03T17:13:18.463Z</time></trkpt><trkpt lat="44.0066535" lon="8.025956"><ele>505.33333333333337</ele><time>2026-05-03T17:13:19.462Z</time></trkpt><trkpt lat="44.0065096" lon="8.0260862"><ele>503.6666666666667</ele><time>2026-05-03T17:13:20.461Z</time></trkpt><trkpt lat="44.0063677" lon="8.0262125"><ele>502.0</ele><time>2026-05-03T17:13:21.464Z</time></trkpt><trkpt lat="44.0062262" lon="8.026332"><ele>502.0</ele><time>2026-05-03T17:13:22.467Z</time></trkpt><trkpt lat="44.0060982" lon="8.0264486"><ele>502.0</ele><time>2026-05-03T17:13:23.465Z</time></trkpt><trkpt lat="44.0059872" lon="8.0265293"><ele>502.0</ele><time>2026-05-03T17:13:24.465Z</time></trkpt><trkpt lat="44.0058833" lon="8.026603"><ele>502.0</ele><time>2026-05-03T17:13:25.468Z</time></trkpt><trkpt lat="44.0057861" lon="8.026621"><ele>496.20000000000005</ele><time>2026-05-03T17:13:26.462Z</time></trkpt><trkpt lat="44.0056776" lon="8.0265613"><ele>490.40000000000003</ele><time>2026-05-03T17:13:27.462Z</time></trkpt><trkpt lat="44.0055998" lon="8.0264784"><ele>484.59999999999997</ele><time>2026-05-03T17:13:28.463Z</time></trkpt><trkpt lat="44.0055589" lon="8.0263649"><ele>478.79999999999995</ele><time>2026-05-03T17:13:29.464Z</time></trkpt><trkpt lat="44.0055301" lon="8.0262669"><ele>473.0</ele><time>2026-05-03T17:13:30.464Z</time></trkpt><trkpt lat="44.0054757" lon="8.0260581"><ele>474.5</ele><time>2026-05-03T17:13:31.463Z</time></trkpt><trkpt lat="44.005431" lon="8.0257778"><ele>476.0</ele><time>2026-05-03T17:13:32.465Z</time></trkpt><trkpt lat="44.0053934" lon="8.0254071"><ele>476.0</ele><time>2026-05-03T17:13:33.464Z</time></trkpt><trkpt lat="44.0053606" lon="8.0251351"><ele>476.0</ele><time>2026-05-03T17:13:34.463Z</time></trkpt><trkpt lat="44.0054003" lon="8.0248967"><ele>476.0</ele><time>2026-05-03T17:13:35.461Z</time></trkpt><trkpt lat="44.0053812" lon="8.0246423"><ele>476.5</ele><time>2026-05-03T17:13:36.464Z</time></trkpt><trkpt lat="44.005367" lon="8.0244264"><ele>477.0</ele><time>2026-05-03T17:13:37.462Z</time></trkpt><trkpt lat="44.0053655" lon="8.0242564"><ele>477.5</ele><time>2026-05-03T17:13:38.462Z</time></trkpt><trkpt lat="44.0053661" lon="8.0241205"><ele>478.0</ele><time>2026-05-03T17:13:39.465Z</time></trkpt><trkpt lat="44.0053527" lon="8.0240047"><ele>478.0</ele><time>2026-05-03T17:13:40.461Z</time></trkpt><trkpt lat="44.0053221" lon="8.0238956"><ele>477.99999999999994</ele><time>2026-05-03T17:13:42.461Z</time></trkpt><trkpt lat="44.0052599" lon="8.0239276"><ele>477.99999999999994</ele><time>2026-05-03T17:13:43.467Z</time></trkpt><trkpt lat="44.0052046" lon="8.0239709"><ele>478.0</ele><time>2026-05-03T17:13:44.471Z</time></trkpt><trkpt lat="44.0051365" lon="8.0241011"><ele>478.0</ele><time>2026-05-03T17:13:45.464Z</time></trkpt><trkpt lat="44.0051706" lon="8.0246685"><ele>478.0</ele><time>2026-05-03T17:13:46.461Z</time></trkpt><trkpt lat="44.005171" lon="8.0249692"><ele>478.0</ele><time>2026-05-03T17:13:47.463Z</time></trkpt><trkpt lat="44.0051568" lon="8.0252381"><ele>478.0</ele><time>2026-05-03T17:13:48.463Z</time></trkpt><trkpt lat="44.0051619" lon="8.025512"><ele>477.33333333333337</ele><time>2026-05-03T17:13:49.464Z</time></trkpt><trkpt lat="44.0051323" lon="8.0257365"><ele>476.66666666666663</ele><time>2026-05-03T17:13:50.463Z</time></trkpt><trkpt lat="44.0051016" lon="8.0259522"><ele>476.0</ele><time>2026-05-03T17:13:51.466Z</time></trkpt><trkpt lat="44.0050963" lon="8.026181"><ele>475.0</ele><time>2026-05-03T17:13:52.466Z</time></trkpt><trkpt lat="44.0051108" lon="8.0264133"><ele>474.0</ele><time>2026-05-03T17:13:53.463Z</time></trkpt><trkpt lat="44.0051279" lon="8.0266313"><ele>473.0</ele><time>2026-05-03T17:13:54.466Z</time></trkpt><trkpt lat="44.0051513" lon="8.0268448"><ele>472.0</ele><time>2026-05-03T17:13:55.461Z</time></trkpt><trkpt lat="44.0051606" lon="8.0270472"><ele>471.0</ele><time>2026-05-03T17:13:56.461Z</time></trkpt><trkpt lat="44.0051725" lon="8.0272323"><ele>470.0</ele><time>2026-05-03T17:13:57.463Z</time></trkpt><trkpt lat="44.0051877" lon="8.0273931"><ele>469.0</ele><time>2026-05-03T17:13:58.465Z</time></trkpt><trkpt lat="44.0052024" lon="8.0275082"><ele>467.4</ele><time>2026-05-03T17:13:59.462Z</time></trkpt><trkpt lat="44.0052048" lon="8.0276034"><ele>465.79999999999995</ele><time>2026-05-03T17:14:00.46Z</time></trkpt><trkpt lat="44.0052016" lon="8.0277735"><ele>464.20000000000005</ele><time>2026-05-03T17:14:02.471Z</time></trkpt><trkpt lat="44.0052125" lon="8.0278837"><ele>462.6</ele><time>2026-05-03T17:14:03.467Z</time></trkpt><trkpt lat="44.0052556" lon="8.028075"><ele>461.0</ele><time>2026-05-03T17:14:04.464Z</time></trkpt><trkpt lat="44.0052918" lon="8.0282497"><ele>459.75</ele><time>2026-05-03T17:14:05.464Z</time></trkpt><trkpt lat="44.0052996" lon="8.0284018"><ele>458.5</ele><time>2026-05-03T17:14:06.462Z</time></trkpt><trkpt lat="44.0052983" lon="8.0285777"><ele>457.25</ele><time>2026-05-03T17:14:07.463Z</time></trkpt><trkpt lat="44.0052928" lon="8.0287796"><ele>456.0</ele><time>2026-05-03T17:14:08.462Z</time></trkpt><trkpt lat="44.0052887" lon="8.0289845"><ele>456.25</ele><time>2026-05-03T17:14:09.462Z</time></trkpt><trkpt lat="44.0052714" lon="8.0291632"><ele>456.5</ele><time>2026-05-03T17:14:10.465Z</time></trkpt><trkpt lat="44.0052627" lon="8.0293514"><ele>456.75</ele><time>2026-05-03T17:14:11.463Z</time></trkpt><trkpt lat="44.0052616" lon="8.0295343"><ele>457.0</ele><time>2026-05-03T17:14:12.468Z</time></trkpt><trkpt lat="44.0052601" lon="8.0297103"><ele>457.0</ele><time>2026-05-03T17:14:13.466Z</time></trkpt><trkpt lat="44.0052392" lon="8.0298773"><ele>457.0</ele><time>2026-05-03T17:14:14.468Z</time></trkpt><trkpt lat="44.0052326" lon="8.0300395"><ele>457.0</ele><time>2026-05-03T17:14:15.462Z</time></trkpt><trkpt lat="44.0052587" lon="8.0302056"><ele>457.0</ele><time>2026-05-03T17:14:16.461Z</time></trkpt><trkpt lat="44.0052843" lon="8.0303806"><ele>456.5</ele><time>2026-05-03T17:14:17.463Z</time></trkpt><trkpt lat="44.0053306" lon="8.0305497"><ele>456.0</ele><time>2026-05-03T17:14:18.463Z</time></trkpt><trkpt lat="44.005403" lon="8.0307278"><ele>455.5</ele><time>2026-05-03T17:14:19.466Z</time></trkpt><trkpt lat="44.0054738" lon="8.0309034"><ele>455.0</ele><time>2026-05-03T17:14:20.46Z</time></trkpt><trkpt lat="44.0055377" lon="8.0310759"><ele>455.0</ele><time>2026-05-03T17:14:21.461Z</time></trkpt><trkpt lat="44.0055852" lon="8.0312701"><ele>455.0</ele><time>2026-05-03T17:14:22.461Z</time></trkpt><trkpt lat="44.0056118" lon="8.0314659"><ele>455.0</ele><time>2026-05-03T17:14:23.461Z</time></trkpt><trkpt lat="44.0056428" lon="8.0316909"><ele>454.25</ele><time>2026-05-03T17:14:24.462Z</time></trkpt><trkpt lat="44.0056745" lon="8.0318998"><ele>453.5</ele><time>2026-05-03T17:14:25.461Z</time></trkpt><trkpt lat="44.0057122" lon="8.0320851"><ele>452.75</ele><time>2026-05-03T17:14:26.466Z</time></trkpt><trkpt lat="44.005764" lon="8.0322534"><ele>452.0</ele><time>2026-05-03T17:14:27.468Z</time></trkpt><trkpt lat="44.0058371" lon="8.032399"><ele>449.5</ele><time>2026-05-03T17:14:28.463Z</time></trkpt><trkpt lat="44.0059367" lon="8.0325321"><ele>447.0</ele><time>2026-05-03T17:14:29.467Z</time></trkpt><trkpt lat="44.0060359" lon="8.0326629"><ele>444.5</ele><time>2026-05-03T17:14:30.463Z</time></trkpt><trkpt lat="44.0061171" lon="8.032789"><ele>442.0</ele><time>2026-05-03T17:14:31.463Z</time></trkpt><trkpt lat="44.0062013" lon="8.0329502"><ele>442.0</ele><time>2026-05-03T17:14:32.463Z</time></trkpt><trkpt lat="44.0062543" lon="8.0331416"><ele>442.0</ele><time>2026-05-03T17:14:33.461Z</time></trkpt><trkpt lat="44.0063102" lon="8.0333261"><ele>442.0</ele><time>2026-05-03T17:14:34.466Z</time></trkpt><trkpt lat="44.006404" lon="8.0334715"><ele>442.0</ele><time>2026-05-03T17:14:35.462Z</time></trkpt><trkpt lat="44.0064886" lon="8.033622"><ele>441.25</ele><time>2026-05-03T17:14:36.464Z</time></trkpt><trkpt lat="44.0065773" lon="8.033766"><ele>440.5</ele><time>2026-05-03T17:14:37.462Z</time></trkpt><trkpt lat="44.0066349" lon="8.0339307"><ele>439.75</ele><time>2026-05-03T17:14:38.465Z</time></trkpt><trkpt lat="44.0066765" lon="8.0341305"><ele>439.0</ele><time>2026-05-03T17:14:39.465Z</time></trkpt><trkpt lat="44.0067048" lon="8.0343733"><ele>439.0</ele><time>2026-05-03T17:14:40.465Z</time></trkpt><trkpt lat="44.0067502" lon="8.0345977"><ele>439.0</ele><time>2026-05-03T17:14:41.463Z</time></trkpt><trkpt lat="44.0068074" lon="8.0348015"><ele>439.0</ele><time>2026-05-03T17:14:42.461Z</time></trkpt><trkpt lat="44.0068695" lon="8.0349901"><ele>438.75</ele><time>2026-05-03T17:14:43.461Z</time></trkpt><trkpt lat="44.0069069" lon="8.0351607"><ele>438.5</ele><time>2026-05-03T17:14:44.462Z</time></trkpt><trkpt lat="44.0069357" lon="8.0353302"><ele>438.25</ele><time>2026-05-03T17:14:45.466Z</time></trkpt><trkpt lat="44.0069858" lon="8.0354787"><ele>438.0</ele><time>2026-05-03T17:14:46.464Z</time></trkpt><trkpt lat="44.0070509" lon="8.0356233"><ele>438.0</ele><time>2026-05-03T17:14:47.462Z</time></trkpt><trkpt lat="44.0071254" lon="8.0357599"><ele>437.99999999999994</ele><time>2026-05-03T17:14:48.461Z</time></trkpt><trkpt lat="44.0071944" lon="8.0358676"><ele>437.99999999999994</ele><time>2026-05-03T17:14:49.463Z</time></trkpt><trkpt lat="44.007273" lon="8.0359589"><ele>438.0</ele><time>2026-05-03T17:14:50.467Z</time></trkpt><trkpt lat="44.0073015" lon="8.0360543"><ele>438.0</ele><time>2026-05-03T17:14:52.461Z</time></trkpt><trkpt lat="44.0073226" lon="8.0361715"><ele>437.0</ele><time>2026-05-03T17:14:54.462Z</time></trkpt><trkpt lat="44.0073178" lon="8.0363285"><ele>436.0</ele><time>2026-05-03T17:14:56.461Z</time></trkpt><trkpt lat="44.0072989" lon="8.0364374"><ele>435.0</ele><time>2026-05-03T17:14:57.469Z</time></trkpt><trkpt lat="44.0072822" lon="8.0365466"><ele>434.0</ele><time>2026-05-03T17:14:58.462Z</time></trkpt><trkpt lat="44.007271" lon="8.0366706"><ele>433.0</ele><time>2026-05-03T17:14:59.461Z</time></trkpt><trkpt lat="44.0072388" lon="8.0367528"><ele>432.0</ele><time>2026-05-03T17:15:00.463Z</time></trkpt><trkpt lat="44.0071878" lon="8.0368533"><ele>431.5</ele><time>2026-05-03T17:15:01.465Z</time></trkpt><trkpt lat="44.007155" lon="8.0369715"><ele>431.0</ele><time>2026-05-03T17:15:02.464Z</time></trkpt><trkpt lat="44.0071169" lon="8.037091"><ele>430.5</ele><time>2026-05-03T17:15:03.463Z</time></trkpt><trkpt lat="44.0070933" lon="8.0372167"><ele>430.0</ele><time>2026-05-03T17:15:04.463Z</time></trkpt><trkpt lat="44.00709" lon="8.0373475"><ele>429.5</ele><time>2026-05-03T17:15:05.465Z</time></trkpt><trkpt lat="44.0070661" lon="8.0374485"><ele>429.0</ele><time>2026-05-03T17:15:06.463Z</time></trkpt><trkpt lat="44.0070403" lon="8.037534"><ele>429.0</ele><time>2026-05-03T17:15:07.463Z</time></trkpt><trkpt lat="44.0069812" lon="8.0376168"><ele>429.0</ele><time>2026-05-03T17:15:08.469Z</time></trkpt><trkpt lat="44.0069291" lon="8.0376924"><ele>429.0</ele><time>2026-05-03T17:15:09.468Z</time></trkpt><trkpt lat="44.0068884" lon="8.0377823"><ele>429.0</ele><time>2026-05-03T17:15:10.465Z</time></trkpt><trkpt lat="44.0068207" lon="8.0378743"><ele>429.0</ele><time>2026-05-03T17:15:11.464Z</time></trkpt><trkpt lat="44.0067456" lon="8.0379562"><ele>429.0</ele><time>2026-05-03T17:15:12.461Z</time></trkpt><trkpt lat="44.0066825" lon="8.0380261"><ele>424.2</ele><time>2026-05-03T17:15:13.463Z</time></trkpt><trkpt lat="44.0066315" lon="8.0381037"><ele>419.4</ele><time>2026-05-03T17:15:14.467Z</time></trkpt><trkpt lat="44.0065892" lon="8.03818"><ele>414.6</ele><time>2026-05-03T17:15:15.464Z</time></trkpt><trkpt lat="44.0065534" lon="8.0382714"><ele>409.8</ele><time>2026-05-03T17:15:16.459Z</time></trkpt><trkpt lat="44.0065507" lon="8.0384339"><ele>405.0</ele><time>2026-05-03T17:15:18.459Z</time></trkpt><trkpt lat="44.0066258" lon="8.0385541"><ele>410.8333333333333</ele><time>2026-05-03T17:15:20.465Z</time></trkpt><trkpt lat="44.0066874" lon="8.0386077"><ele>416.66666666666663</ele><time>2026-05-03T17:15:21.462Z</time></trkpt><trkpt lat="44.0067482" lon="8.0386338"><ele>422.5</ele><time>2026-05-03T17:15:22.467Z</time></trkpt><trkpt lat="44.0068388" lon="8.0387288"><ele>428.3333333333333</ele><time>2026-05-03T17:15:24.468Z</time></trkpt><trkpt lat="44.0068769" lon="8.0388333"><ele>434.16666666666663</ele><time>2026-05-03T17:15:26.462Z</time></trkpt><trkpt lat="44.0068903" lon="8.0389864"><ele>440.0</ele><time>2026-05-03T17:15:28.469Z</time></trkpt><trkpt lat="44.0068651" lon="8.0391295"><ele>439.49999999999994</ele><time>2026-05-03T17:15:30.465Z</time></trkpt><trkpt lat="44.0068187" lon="8.0392147"><ele>439.0</ele><time>2026-05-03T17:15:31.463Z</time></trkpt><trkpt lat="44.0068094" lon="8.0393386"><ele>438.5</ele><time>2026-05-03T17:15:33.468Z</time></trkpt><trkpt lat="44.0068411" lon="8.0394312"><ele>438.0</ele><time>2026-05-03T17:15:34.467Z</time></trkpt><trkpt lat="44.0068478" lon="8.0396053"><ele>437.49999999999994</ele><time>2026-05-03T17:15:36.465Z</time></trkpt><trkpt lat="44.0068394" lon="8.0396997"><ele>437.0</ele><time>2026-05-03T17:15:37.459Z</time></trkpt><trkpt lat="44.0068316" lon="8.0398023"><ele>437.0</ele><time>2026-05-03T17:15:38.461Z</time></trkpt><trkpt lat="44.0068398" lon="8.0398918"><ele>437.0</ele><time>2026-05-03T17:15:39.462Z</time></trkpt><trkpt lat="44.006821" lon="8.0400205"><ele>437.0</ele><time>2026-05-03T17:15:40.463Z</time></trkpt><trkpt lat="44.0068437" lon="8.0401148"><ele>437.0</ele><time>2026-05-03T17:15:41.464Z</time></trkpt><trkpt lat="44.0068535" lon="8.0402055"><ele>437.0</ele><time>2026-05-03T17:15:42.463Z</time></trkpt><trkpt lat="44.0068723" lon="8.0402923"><ele>437.0</ele><time>2026-05-03T17:15:43.464Z</time></trkpt><trkpt lat="44.006899" lon="8.0403759"><ele>437.0</ele><time>2026-05-03T17:15:44.466Z</time></trkpt><trkpt lat="44.0069511" lon="8.0404575"><ele>435.75</ele><time>2026-05-03T17:15:45.469Z</time></trkpt><trkpt lat="44.0070084" lon="8.0405885"><ele>434.5</ele><time>2026-05-03T17:15:47.463Z</time></trkpt><trkpt lat="44.0070126" lon="8.0407773"><ele>433.25</ele><time>2026-05-03T17:15:49.465Z</time></trkpt><trkpt lat="44.0069885" lon="8.0408859"><ele>432.0</ele><time>2026-05-03T17:15:50.465Z</time></trkpt><trkpt lat="44.0069839" lon="8.041082"><ele>431.0</ele><time>2026-05-03T17:15:52.463Z</time></trkpt><trkpt lat="44.0069816" lon="8.0412064"><ele>430.00000000000006</ele><time>2026-05-03T17:15:53.465Z</time></trkpt><trkpt lat="44.0069471" lon="8.0412872"><ele>429.00000000000006</ele><time>2026-05-03T17:15:54.463Z</time></trkpt><trkpt lat="44.0069499" lon="8.0414373"><ele>428.0</ele><time>2026-05-03T17:15:56.461Z</time></trkpt><trkpt lat="44.0069919" lon="8.0415815"><ele>427.0</ele><time>2026-05-03T17:15:58.463Z</time></trkpt><trkpt lat="44.0070068" lon="8.0417061"><ele>426.6</ele><time>2026-05-03T17:16:00.463Z</time></trkpt><trkpt lat="44.0070006" lon="8.0418603"><ele>426.20000000000005</ele><time>2026-05-03T17:16:02.461Z</time></trkpt><trkpt lat="44.0070086" lon="8.0419622"><ele>425.8</ele><time>2026-05-03T17:16:04.463Z</time></trkpt><trkpt lat="44.0070341" lon="8.0421382"><ele>425.4</ele><time>2026-05-03T17:16:06.469Z</time></trkpt><trkpt lat="44.0070481" lon="8.0422356"><ele>425.0</ele><time>2026-05-03T17:16:07.467Z</time></trkpt><trkpt lat="44.0070705" lon="8.0423329"><ele>425.0</ele><time>2026-05-03T17:16:08.463Z</time></trkpt><trkpt lat="44.007104" lon="8.0424243"><ele>425.0</ele><time>2026-05-03T17:16:09.462Z</time></trkpt><trkpt lat="44.007142" lon="8.042525"><ele>425.0</ele><time>2026-05-03T17:16:10.461Z</time></trkpt><trkpt lat="44.00714" lon="8.042627"><ele>425.0</ele><time>2026-05-03T17:16:11.461Z</time></trkpt><trkpt lat="44.0071084" lon="8.0428106"><ele>425.0</ele><time>2026-05-03T17:16:13.463Z</time></trkpt><trkpt lat="44.0071307" lon="8.0429683"><ele>424.16666666666663</ele><time>2026-05-03T17:16:15.464Z</time></trkpt><trkpt lat="44.0071468" lon="8.0430643"><ele>423.3333333333333</ele><time>2026-05-03T17:16:16.461Z</time></trkpt><trkpt lat="44.0071299" lon="8.0432063"><ele>422.5</ele><time>2026-05-03T17:16:18.46Z</time></trkpt><trkpt lat="44.0070803" lon="8.0433082"><ele>421.66666666666663</ele><time>2026-05-03T17:16:20.463Z</time></trkpt><trkpt lat="44.0070148" lon="8.043401"><ele>420.8333333333333</ele><time>2026-05-03T17:16:22.468Z</time></trkpt><trkpt lat="44.0069781" lon="8.0434722"><ele>420.0</ele><time>2026-05-03T17:16:23.467Z</time></trkpt><trkpt lat="44.0069622" lon="8.0435781"><ele>420.0</ele><time>2026-05-03T17:16:24.467Z</time></trkpt><trkpt lat="44.0069186" lon="8.0436748"><ele>420.0</ele><time>2026-05-03T17:16:25.463Z</time></trkpt><trkpt lat="44.0069056" lon="8.0437796"><ele>420.0</ele><time>2026-05-03T17:16:26.462Z</time></trkpt><trkpt lat="44.0068996" lon="8.0438708"><ele>420.0</ele><time>2026-05-03T17:16:27.464Z</time></trkpt><trkpt lat="44.0069071" lon="8.0439934"><ele>420.0</ele><time>2026-05-03T17:16:28.465Z</time></trkpt><trkpt lat="44.0069017" lon="8.0440936"><ele>420.0</ele><time>2026-05-03T17:16:29.463Z</time></trkpt><trkpt lat="44.0068806" lon="8.0442105"><ele>421.5</ele><time>2026-05-03T17:16:30.466Z</time></trkpt><trkpt lat="44.0068533" lon="8.0442979"><ele>423.0</ele><time>2026-05-03T17:16:31.462Z</time></trkpt><trkpt lat="44.0068251" lon="8.0443775"><ele>424.5</ele><time>2026-05-03T17:16:32.466Z</time></trkpt><trkpt lat="44.0067977" lon="8.0445271"><ele>426.0</ele><time>2026-05-03T17:16:34.463Z</time></trkpt><trkpt lat="44.0067716" lon="8.044674"><ele>427.5</ele><time>2026-05-03T17:16:36.462Z</time></trkpt><trkpt lat="44.0067599" lon="8.044779"><ele>429.0</ele><time>2026-05-03T17:16:38.462Z</time></trkpt><trkpt lat="44.0066907" lon="8.0449098"><ele>423.4</ele><time>2026-05-03T17:16:40.465Z</time></trkpt><trkpt lat="44.0065821" lon="8.045009"><ele>417.79999999999995</ele><time>2026-05-03T17:16:42.465Z</time></trkpt><trkpt lat="44.0065567" lon="8.0451245"><ele>412.20000000000005</ele><time>2026-05-03T17:16:44.462Z</time></trkpt><trkpt lat="44.0065648" lon="8.0452491"><ele>406.6</ele><time>2026-05-03T17:16:46.461Z</time></trkpt><trkpt lat="44.0065735" lon="8.0453949"><ele>401.0</ele><time>2026-05-03T17:16:48.461Z</time></trkpt><trkpt lat="44.0066028" lon="8.0455088"><ele>401.0</ele><time>2026-05-03T17:16:50.463Z</time></trkpt><trkpt lat="44.0066568" lon="8.0455794"><ele>401.0</ele><time>2026-05-03T17:16:51.466Z</time></trkpt><trkpt lat="44.0065923" lon="8.045649"><ele>401.0</ele><time>2026-05-03T17:16:52.465Z</time></trkpt><trkpt lat="44.0065376" lon="8.0457421"><ele>401.0</ele><time>2026-05-03T17:16:54.462Z</time></trkpt><trkpt lat="44.006479" lon="8.0458555"><ele>401.0</ele><time>2026-05-03T17:16:56.462Z</time></trkpt><trkpt lat="44.0063802" lon="8.0459617"><ele>401.0</ele><time>2026-05-03T17:16:58.462Z</time></trkpt><trkpt lat="44.0063019" lon="8.046095"><ele>401.0</ele><time>2026-05-03T17:17:00.466Z</time></trkpt><trkpt lat="44.0061988" lon="8.0462596"><ele>401.0</ele><time>2026-05-03T17:17:02.472Z</time></trkpt><trkpt lat="44.0061427" lon="8.0463277"><ele>401.0</ele><time>2026-05-03T17:17:03.464Z</time></trkpt><trkpt lat="44.006096" lon="8.04649"><ele>401.0</ele><time>2026-05-03T17:17:05.467Z</time></trkpt><trkpt lat="44.0060621" lon="8.0465667"><ele>401.0</ele><time>2026-05-03T17:17:06.463Z</time></trkpt><trkpt lat="44.0060201" lon="8.0467085"><ele>401.0</ele><time>2026-05-03T17:17:08.461Z</time></trkpt><trkpt lat="44.0060674" lon="8.0468112"><ele>401.0</ele><time>2026-05-03T17:17:10.464Z</time></trkpt><trkpt lat="44.0060993" lon="8.0469332"><ele>401.0</ele><time>2026-05-03T17:17:12.47Z</time></trkpt><trkpt lat="44.006116" lon="8.0470898"><ele>401.16666666666663</ele><time>2026-05-03T17:17:14.461Z</time></trkpt><trkpt lat="44.0060588" lon="8.0471371"><ele>401.3333333333333</ele><time>2026-05-03T17:17:15.46Z</time></trkpt><trkpt lat="44.0060018" lon="8.0472495"><ele>401.5</ele><time>2026-05-03T17:17:17.461Z</time></trkpt><trkpt lat="44.0059515" lon="8.0473744"><ele>401.66666666666663</ele><time>2026-05-03T17:17:19.462Z</time></trkpt><trkpt lat="44.005964" lon="8.0474645"><ele>401.8333333333333</ele><time>2026-05-03T17:17:22.46Z</time></trkpt><trkpt lat="44.0060155" lon="8.047586"><ele>402.0</ele><time>2026-05-03T17:17:28.462Z</time></trkpt><trkpt lat="44.006117" lon="8.0476432"><ele>402.0</ele><time>2026-05-03T17:17:30.472Z</time></trkpt><trkpt lat="44.0061815" lon="8.0476957"><ele>402.0</ele><time>2026-05-03T17:17:32.465Z</time></trkpt><trkpt lat="44.0062335" lon="8.0477807"><ele>402.0</ele><time>2026-05-03T17:17:34.462Z</time></trkpt><trkpt lat="44.0063334" lon="8.0478339"><ele>402.0</ele><time>2026-05-03T17:17:36.466Z</time></trkpt><trkpt lat="44.0064446" lon="8.0478965"><ele>402.0</ele><time>2026-05-03T17:17:38.47Z</time></trkpt><trkpt lat="44.006532" lon="8.0479672"><ele>402.0</ele><time>2026-05-03T17:17:40.468Z</time></trkpt><trkpt lat="44.0066299" lon="8.0480104"><ele>402.0</ele><time>2026-05-03T17:17:42.461Z</time></trkpt><trkpt lat="44.0067226" lon="8.0479615"><ele>402.0</ele><time>2026-05-03T17:17:44.464Z</time></trkpt><trkpt lat="44.0067951" lon="8.0478799"><ele>402.0</ele><time>2026-05-03T17:17:46.462Z</time></trkpt><trkpt lat="44.0068715" lon="8.047825"><ele>402.0</ele><time>2026-05-03T17:17:48.462Z</time></trkpt><trkpt lat="44.0070257" lon="8.0478454"><ele>406.20000000000005</ele><time>2026-05-03T17:17:52.468Z</time></trkpt><trkpt lat="44.0070941" lon="8.0478312"><ele>410.4</ele><time>2026-05-03T17:17:54.468Z</time></trkpt><trkpt lat="44.0071774" lon="8.0478437"><ele>414.6</ele><time>2026-05-03T17:17:57.464Z</time></trkpt><trkpt lat="44.0072891" lon="8.0478562"><ele>418.79999999999995</ele><time>2026-05-03T17:18:01.464Z</time></trkpt><trkpt lat="44.0073679" lon="8.0478525"><ele>423.0</ele><time>2026-05-03T17:18:02.461Z</time></trkpt><trkpt lat="44.0074782" lon="8.0478942"><ele>422.5</ele><time>2026-05-03T17:18:04.465Z</time></trkpt><trkpt lat="44.0075523" lon="8.0479261"><ele>422.0</ele><time>2026-05-03T17:18:06.465Z</time></trkpt><trkpt lat="44.0076314" lon="8.0479625"><ele>421.5</ele><time>2026-05-03T17:18:08.459Z</time></trkpt><trkpt lat="44.0077328" lon="8.0480053"><ele>421.0</ele><time>2026-05-03T17:18:10.46Z</time></trkpt><trkpt lat="44.0077897" lon="8.0480558"><ele>420.5</ele><time>2026-05-03T17:18:12.463Z</time></trkpt><trkpt lat="44.0078323" lon="8.0481254"><ele>420.0</ele><time>2026-05-03T17:18:14.466Z</time></trkpt><trkpt lat="44.0079143" lon="8.0481706"><ele>420.0</ele><time>2026-05-03T17:18:16.462Z</time></trkpt><trkpt lat="44.0080658" lon="8.0481823"><ele>420.0</ele><time>2026-05-03T17:18:19.464Z</time></trkpt><trkpt lat="44.0082038" lon="8.0483008"><ele>420.0</ele><time>2026-05-03T17:18:23.467Z</time></trkpt><trkpt lat="44.0082351" lon="8.0484424"><ele>420.0</ele><time>2026-05-03T17:18:24.462Z</time></trkpt><trkpt lat="44.0082662" lon="8.0485453"><ele>417.1666666666667</ele><time>2026-05-03T17:18:25.468Z</time></trkpt><trkpt lat="44.0082967" lon="8.0486694"><ele>414.33333333333337</ele><time>2026-05-03T17:18:26.463Z</time></trkpt><trkpt lat="44.0083247" lon="8.048773"><ele>411.5</ele><time>2026-05-03T17:18:27.465Z</time></trkpt><trkpt lat="44.0083713" lon="8.0488607"><ele>408.6666666666667</ele><time>2026-05-03T17:18:28.462Z</time></trkpt><trkpt lat="44.0083824" lon="8.0489623"><ele>405.83333333333337</ele><time>2026-05-03T17:18:29.464Z</time></trkpt><trkpt lat="44.0084099" lon="8.0490539"><ele>403.0</ele><time>2026-05-03T17:18:30.465Z</time></trkpt><trkpt lat="44.008486" lon="8.0491868"><ele>398.59999999999997</ele><time>2026-05-03T17:18:32.464Z</time></trkpt><trkpt lat="44.0085544" lon="8.0492851"><ele>394.2</ele><time>2026-05-03T17:18:34.464Z</time></trkpt><trkpt lat="44.0086473" lon="8.0493999"><ele>389.8</ele><time>2026-05-03T17:18:36.464Z</time></trkpt><trkpt lat="44.0086797" lon="8.0494832"><ele>385.4</ele><time>2026-05-03T17:18:37.465Z</time></trkpt><trkpt lat="44.0087436" lon="8.0496217"><ele>381.0</ele><time>2026-05-03T17:18:39.465Z</time></trkpt><trkpt lat="44.0088338" lon="8.0497329"><ele>381.0</ele><time>2026-05-03T17:18:41.464Z</time></trkpt><trkpt lat="44.0088935" lon="8.0497883"><ele>381.0</ele><time>2026-05-03T17:18:42.463Z</time></trkpt><trkpt lat="44.008947" lon="8.0498516"><ele>381.0</ele><time>2026-05-03T17:18:43.463Z</time></trkpt><trkpt lat="44.009049" lon="8.0499506"><ele>381.0</ele><time>2026-05-03T17:18:45.462Z</time></trkpt><trkpt lat="44.0091402" lon="8.0500297"><ele>381.0</ele><time>2026-05-03T17:18:47.467Z</time></trkpt><trkpt lat="44.0092262" lon="8.0501172"><ele>381.8</ele><time>2026-05-03T17:18:49.468Z</time></trkpt><trkpt lat="44.009333" lon="8.0502173"><ele>382.6</ele><time>2026-05-03T17:18:51.463Z</time></trkpt><trkpt lat="44.009391" lon="8.050258"><ele>383.4</ele><time>2026-05-03T17:18:52.464Z</time></trkpt><trkpt lat="44.009498" lon="8.0503419"><ele>384.2</ele><time>2026-05-03T17:18:54.468Z</time></trkpt><trkpt lat="44.009536" lon="8.050427"><ele>385.0</ele><time>2026-05-03T17:18:55.463Z</time></trkpt><trkpt lat="44.0096087" lon="8.0505442"><ele>385.0</ele><time>2026-05-03T17:18:57.46Z</time></trkpt><trkpt lat="44.0095969" lon="8.0506656"><ele>385.0</ele><time>2026-05-03T17:18:59.46Z</time></trkpt><trkpt lat="44.0095622" lon="8.0507854"><ele>385.0</ele><time>2026-05-03T17:19:01.462Z</time></trkpt><trkpt lat="44.0094978" lon="8.0509324"><ele>385.0</ele><time>2026-05-03T17:19:03.464Z</time></trkpt><trkpt lat="44.0094761" lon="8.0510394"><ele>385.0</ele><time>2026-05-03T17:19:05.463Z</time></trkpt><trkpt lat="44.0094452" lon="8.0511506"><ele>381.33333333333337</ele><time>2026-05-03T17:19:06.467Z</time></trkpt><trkpt lat="44.0094" lon="8.051223"><ele>377.6666666666667</ele><time>2026-05-03T17:19:08.462Z</time></trkpt><trkpt lat="44.0093192" lon="8.0512629"><ele>374.0</ele><time>2026-05-03T17:19:10.463Z</time></trkpt><trkpt lat="44.009207" lon="8.0513069"><ele>370.33333333333337</ele><time>2026-05-03T17:19:12.461Z</time></trkpt><trkpt lat="44.0091327" lon="8.0513774"><ele>366.6666666666667</ele><time>2026-05-03T17:19:14.462Z</time></trkpt><trkpt lat="44.0090779" lon="8.0514314"><ele>363.0</ele><time>2026-05-03T17:19:15.465Z</time></trkpt><trkpt lat="44.0090464" lon="8.051554"><ele>356.59999999999997</ele><time>2026-05-03T17:19:17.46Z</time></trkpt><trkpt lat="44.0089775" lon="8.0516415"><ele>350.2</ele><time>2026-05-03T17:19:19.46Z</time></trkpt><trkpt lat="44.0088892" lon="8.0517039"><ele>343.8</ele><time>2026-05-03T17:19:21.462Z</time></trkpt><trkpt lat="44.00878" lon="8.0517852"><ele>337.4</ele><time>2026-05-03T17:19:23.463Z</time></trkpt><trkpt lat="44.008715" lon="8.0518062"><ele>331.0</ele><time>2026-05-03T17:19:24.462Z</time></trkpt><trkpt lat="44.0086191" lon="8.0518683"><ele>331.0</ele><time>2026-05-03T17:19:26.463Z</time></trkpt><trkpt lat="44.0085467" lon="8.0519514"><ele>331.0</ele><time>2026-05-03T17:19:28.462Z</time></trkpt><trkpt lat="44.0084777" lon="8.0519774"><ele>331.0</ele><time>2026-05-03T17:19:29.461Z</time></trkpt><trkpt lat="44.0084018" lon="8.0520566"><ele>331.0</ele><time>2026-05-03T17:19:31.465Z</time></trkpt><trkpt lat="44.0083479" lon="8.0521887"><ele>331.0</ele><time>2026-05-03T17:19:33.464Z</time></trkpt><trkpt lat="44.0082958" lon="8.0523016"><ele>327.66666666666663</ele><time>2026-05-03T17:19:35.462Z</time></trkpt><trkpt lat="44.0082659" lon="8.0524012"><ele>324.3333333333333</ele><time>2026-05-03T17:19:37.462Z</time></trkpt><trkpt lat="44.0082138" lon="8.0525135"><ele>321.0</ele><time>2026-05-03T17:19:39.459Z</time></trkpt><trkpt lat="44.0081747" lon="8.0525883"><ele>317.6666666666667</ele><time>2026-05-03T17:19:40.468Z</time></trkpt><trkpt lat="44.0081354" lon="8.0526598"><ele>314.33333333333337</ele><time>2026-05-03T17:19:41.462Z</time></trkpt><trkpt lat="44.0080628" lon="8.052764"><ele>311.0</ele><time>2026-05-03T17:19:43.464Z</time></trkpt><trkpt lat="44.0080152" lon="8.0528505"><ele>311.0</ele><time>2026-05-03T17:19:45.462Z</time></trkpt><trkpt lat="44.0079735" lon="8.0529454"><ele>311.0</ele><time>2026-05-03T17:19:47.462Z</time></trkpt><trkpt lat="44.007929" lon="8.053017"><ele>311.0</ele><time>2026-05-03T17:19:49.468Z</time></trkpt><trkpt lat="44.0079104" lon="8.0531052"><ele>311.0</ele><time>2026-05-03T17:19:51.464Z</time></trkpt><trkpt lat="44.0079293" lon="8.0532083"><ele>311.0</ele><time>2026-05-03T17:19:53.465Z</time></trkpt><trkpt lat="44.0079501" lon="8.0533262"><ele>311.0</ele><time>2026-05-03T17:19:55.464Z</time></trkpt><trkpt lat="44.0079874" lon="8.05341"><ele>311.0</ele><time>2026-05-03T17:19:56.464Z</time></trkpt><trkpt lat="44.0080456" lon="8.0535663"><ele>312.1666666666667</ele><time>2026-05-03T17:19:58.461Z</time></trkpt><trkpt lat="44.007991" lon="8.0536592"><ele>313.33333333333337</ele><time>2026-05-03T17:20:00.467Z</time></trkpt><trkpt lat="44.007912" lon="8.0537351"><ele>314.5</ele><time>2026-05-03T17:20:02.467Z</time></trkpt><trkpt lat="44.007866" lon="8.0538026"><ele>315.6666666666667</ele><time>2026-05-03T17:20:03.472Z</time></trkpt><trkpt lat="44.0078371" lon="8.0538814"><ele>316.8333333333333</ele><time>2026-05-03T17:20:04.47Z</time></trkpt><trkpt lat="44.0077938" lon="8.0539753"><ele>318.0</ele><time>2026-05-03T17:20:05.462Z</time></trkpt><trkpt lat="44.0077732" lon="8.0540695"><ele>318.8333333333333</ele><time>2026-05-03T17:20:06.463Z</time></trkpt><trkpt lat="44.0077386" lon="8.0541509"><ele>319.6666666666667</ele><time>2026-05-03T17:20:07.463Z</time></trkpt><trkpt lat="44.0077002" lon="8.0542276"><ele>320.5</ele><time>2026-05-03T17:20:08.463Z</time></trkpt><trkpt lat="44.0076508" lon="8.0543797"><ele>321.33333333333337</ele><time>2026-05-03T17:20:10.472Z</time></trkpt><trkpt lat="44.0076324" lon="8.0544682"><ele>322.1666666666667</ele><time>2026-05-03T17:20:11.467Z</time></trkpt><trkpt lat="44.00763" lon="8.0545679"><ele>323.0</ele><time>2026-05-03T17:20:12.466Z</time></trkpt><trkpt lat="44.0076401" lon="8.0546945"><ele>323.0</ele><time>2026-05-03T17:20:13.468Z</time></trkpt><trkpt lat="44.0076534" lon="8.0547929"><ele>323.0</ele><time>2026-05-03T17:20:14.466Z</time></trkpt><trkpt lat="44.0076642" lon="8.0549017"><ele>323.0</ele><time>2026-05-03T17:20:15.464Z</time></trkpt><trkpt lat="44.0076264" lon="8.0550605"><ele>323.0</ele><time>2026-05-03T17:20:17.462Z</time></trkpt><trkpt lat="44.0076077" lon="8.0551595"><ele>323.0</ele><time>2026-05-03T17:20:18.462Z</time></trkpt><trkpt lat="44.0075912" lon="8.055251"><ele>323.0</ele><time>2026-05-03T17:20:19.463Z</time></trkpt><trkpt lat="44.0075609" lon="8.0553377"><ele>324.5</ele><time>2026-05-03T17:20:20.464Z</time></trkpt><trkpt lat="44.0075115" lon="8.0554424"><ele>326.0</ele><time>2026-05-03T17:20:21.467Z</time></trkpt><trkpt lat="44.0074259" lon="8.055511"><ele>327.5</ele><time>2026-05-03T17:20:23.465Z</time></trkpt><trkpt lat="44.0073718" lon="8.0555575"><ele>329.0</ele><time>2026-05-03T17:20:24.466Z</time></trkpt><trkpt lat="44.0073139" lon="8.0556322"><ele>330.5</ele><time>2026-05-03T17:20:25.471Z</time></trkpt><trkpt lat="44.0072575" lon="8.0556921"><ele>332.0</ele><time>2026-05-03T17:20:26.465Z</time></trkpt><trkpt lat="44.0071788" lon="8.0557384"><ele>331.40000000000003</ele><time>2026-05-03T17:20:27.463Z</time></trkpt><trkpt lat="44.0071121" lon="8.0557827"><ele>330.8</ele><time>2026-05-03T17:20:28.467Z</time></trkpt><trkpt lat="44.0070485" lon="8.0558298"><ele>330.2</ele><time>2026-05-03T17:20:29.464Z</time></trkpt><trkpt lat="44.0069856" lon="8.0558606"><ele>329.6</ele><time>2026-05-03T17:20:30.477Z</time></trkpt><trkpt lat="44.0068583" lon="8.0558902"><ele>329.0</ele><time>2026-05-03T17:20:32.465Z</time></trkpt><trkpt lat="44.0067453" lon="8.0559629"><ele>329.0</ele><time>2026-05-03T17:20:34.466Z</time></trkpt><trkpt lat="44.0066913" lon="8.0560182"><ele>329.0</ele><time>2026-05-03T17:20:35.466Z</time></trkpt><trkpt lat="44.0066272" lon="8.0560812"><ele>329.0</ele><time>2026-05-03T17:20:36.464Z</time></trkpt><trkpt lat="44.0065593" lon="8.0561456"><ele>329.0</ele><time>2026-05-03T17:20:37.463Z</time></trkpt><trkpt lat="44.0064854" lon="8.0562395"><ele>329.0</ele><time>2026-05-03T17:20:39.462Z</time></trkpt><trkpt lat="44.0064152" lon="8.0562598"><ele>329.0</ele><time>2026-05-03T17:20:41.467Z</time></trkpt><trkpt lat="44.006345" lon="8.0562398"><ele>326.5</ele><time>2026-05-03T17:21:18.459Z</time></trkpt><trkpt lat="44.0062729" lon="8.0562254"><ele>324.0</ele><time>2026-05-03T17:21:19.464Z</time></trkpt><trkpt lat="44.006155" lon="8.0562992"><ele>321.5</ele><time>2026-05-03T17:21:21.464Z</time></trkpt><trkpt lat="44.0061034" lon="8.056354"><ele>319.0</ele><time>2026-05-03T17:21:22.461Z</time></trkpt><trkpt lat="44.0060459" lon="8.0564122"><ele>316.5</ele><time>2026-05-03T17:21:23.462Z</time></trkpt><trkpt lat="44.0059989" lon="8.0564747"><ele>314.0</ele><time>2026-05-03T17:21:24.463Z</time></trkpt><trkpt lat="44.0059573" lon="8.0566121"><ele>317.6</ele><time>2026-05-03T17:21:26.463Z</time></trkpt><trkpt lat="44.005966" lon="8.0567778"><ele>321.2</ele><time>2026-05-03T17:21:28.462Z</time></trkpt><trkpt lat="44.0059759" lon="8.0568905"><ele>324.8</ele><time>2026-05-03T17:21:29.463Z</time></trkpt><trkpt lat="44.0059908" lon="8.0570194"><ele>328.40000000000003</ele><time>2026-05-03T17:21:30.463Z</time></trkpt><trkpt lat="44.0060064" lon="8.0571387"><ele>332.0</ele><time>2026-05-03T17:21:31.465Z</time></trkpt><trkpt lat="44.0060336" lon="8.057267"><ele>332.0</ele><time>2026-05-03T17:21:32.467Z</time></trkpt><trkpt lat="44.0060612" lon="8.0573978"><ele>332.0</ele><time>2026-05-03T17:21:33.467Z</time></trkpt><trkpt lat="44.0060805" lon="8.0575266"><ele>332.0</ele><time>2026-05-03T17:21:34.467Z</time></trkpt><trkpt lat="44.0060836" lon="8.0576403"><ele>332.0</ele><time>2026-05-03T17:21:35.463Z</time></trkpt><trkpt lat="44.0060795" lon="8.0577381"><ele>332.0</ele><time>2026-05-03T17:21:36.464Z</time></trkpt><trkpt lat="44.0060836" lon="8.0578803"><ele>332.0</ele><time>2026-05-03T17:21:38.463Z</time></trkpt><trkpt lat="44.0061139" lon="8.0580506"><ele>334.0</ele><time>2026-05-03T17:21:40.464Z</time></trkpt><trkpt lat="44.0061263" lon="8.0581498"><ele>336.0</ele><time>2026-05-03T17:21:41.461Z</time></trkpt><trkpt lat="44.0061359" lon="8.0583048"><ele>338.0</ele><time>2026-05-03T17:21:43.463Z</time></trkpt><trkpt lat="44.0061783" lon="8.0581908"><ele>340.0</ele><time>2026-05-03T17:21:49.47Z</time></trkpt><trkpt lat="44.006196" lon="8.0580289"><ele>342.0</ele><time>2026-05-03T17:21:51.463Z</time></trkpt><trkpt lat="44.006234" lon="8.0578703"><ele>342.0</ele><time>2026-05-03T17:21:53.463Z</time></trkpt><trkpt lat="44.0062567" lon="8.057782"><ele>342.0</ele><time>2026-05-03T17:21:54.463Z</time></trkpt><trkpt lat="44.0062626" lon="8.0576882"><ele>342.0</ele><time>2026-05-03T17:21:55.47Z</time></trkpt><trkpt lat="44.0062913" lon="8.0575905"><ele>342.0</ele><time>2026-05-03T17:21:56.467Z</time></trkpt><trkpt lat="44.0063034" lon="8.0574857"><ele>342.0</ele><time>2026-05-03T17:21:57.464Z</time></trkpt><trkpt lat="44.0063262" lon="8.0573485"><ele>342.0</ele><time>2026-05-03T17:21:59.464Z</time></trkpt><trkpt lat="44.0063686" lon="8.0572836"><ele>342.0</ele><time>2026-05-03T17:22:01.464Z</time></trkpt><trkpt lat="44.0064399" lon="8.0574606"><ele>342.0</ele><time>2026-05-03T17:22:05.464Z</time></trkpt><trkpt lat="44.00643" lon="8.0575582"><ele>342.0</ele><time>2026-05-03T17:22:06.472Z</time></trkpt><trkpt lat="44.0064087" lon="8.0577384"><ele>342.0</ele><time>2026-05-03T17:22:08.463Z</time></trkpt><trkpt lat="44.0064088" lon="8.0578863"><ele>342.0</ele><time>2026-05-03T17:22:10.468Z</time></trkpt><trkpt lat="44.0064689" lon="8.0579615"><ele>342.0</ele><time>2026-05-03T17:22:12.466Z</time></trkpt><trkpt lat="44.0065499" lon="8.0579516"><ele>342.0</ele><time>2026-05-03T17:22:14.462Z</time></trkpt><trkpt lat="44.0066131" lon="8.0579226"><ele>342.0</ele><time>2026-05-03T17:22:15.464Z</time></trkpt><trkpt lat="44.0066759" lon="8.0579101"><ele>342.0</ele><time>2026-05-03T17:22:16.466Z</time></trkpt><trkpt lat="44.0067978" lon="8.0578748"><ele>342.0</ele><time>2026-05-03T17:22:18.464Z</time></trkpt><trkpt lat="44.0068804" lon="8.0578586"><ele>348.0</ele><time>2026-05-03T17:22:19.463Z</time></trkpt><trkpt lat="44.0069609" lon="8.0578459"><ele>354.0</ele><time>2026-05-03T17:22:20.464Z</time></trkpt><trkpt lat="44.0070874" lon="8.0578292"><ele>360.0</ele><time>2026-05-03T17:22:22.462Z</time></trkpt><trkpt lat="44.0071515" lon="8.0578062"><ele>366.0</ele><time>2026-05-03T17:22:23.46Z</time></trkpt><trkpt lat="44.0072521" lon="8.0577128"><ele>372.0</ele><time>2026-05-03T17:22:25.463Z</time></trkpt><trkpt lat="44.0073785" lon="8.0576923"><ele>372.0</ele><time>2026-05-03T17:22:27.466Z</time></trkpt><trkpt lat="44.0074588" lon="8.0576705"><ele>372.0</ele><time>2026-05-03T17:22:28.466Z</time></trkpt><trkpt lat="44.0075215" lon="8.0576379"><ele>372.0</ele><time>2026-05-03T17:22:29.464Z</time></trkpt><trkpt lat="44.0076333" lon="8.0576565"><ele>372.0</ele><time>2026-05-03T17:22:31.464Z</time></trkpt><trkpt lat="44.0077323" lon="8.0577542"><ele>372.0</ele><time>2026-05-03T17:22:33.466Z</time></trkpt><trkpt lat="44.0078045" lon="8.0578431"><ele>372.0</ele><time>2026-05-03T17:22:35.465Z</time></trkpt><trkpt lat="44.0078528" lon="8.0577679"><ele>372.0</ele><time>2026-05-03T17:22:38.462Z</time></trkpt><trkpt lat="44.0077638" lon="8.057668"><ele>372.0</ele><time>2026-05-03T17:22:40.469Z</time></trkpt><trkpt lat="44.00771" lon="8.0576142"><ele>372.0</ele><time>2026-05-03T17:22:41.467Z</time></trkpt><trkpt lat="44.0076209" lon="8.0575296"><ele>372.0</ele><time>2026-05-03T17:22:43.463Z</time></trkpt><trkpt lat="44.007609" lon="8.057388"><ele>372.0</ele><time>2026-05-03T17:22:45.465Z</time></trkpt><trkpt lat="44.0076689" lon="8.0572942"><ele>372.0</ele><time>2026-05-03T17:22:47.464Z</time></trkpt><trkpt lat="44.0077913" lon="8.0573046"><ele>372.0</ele><time>2026-05-03T17:22:49.47Z</time></trkpt><trkpt lat="44.007883" lon="8.0573014"><ele>372.0</ele><time>2026-05-03T17:22:50.462Z</time></trkpt><trkpt lat="44.0079682" lon="8.057285"><ele>372.0</ele><time>2026-05-03T17:22:51.469Z</time></trkpt><trkpt lat="44.0080694" lon="8.0572617"><ele>372.0</ele><time>2026-05-03T17:22:52.463Z</time></trkpt><trkpt lat="44.0081495" lon="8.0572338"><ele>372.0</ele><time>2026-05-03T17:22:53.465Z</time></trkpt><trkpt lat="44.0082496" lon="8.0571986"><ele>372.0</ele><time>2026-05-03T17:22:54.463Z</time></trkpt><trkpt lat="44.0083372" lon="8.057156"><ele>372.0</ele><time>2026-05-03T17:22:55.464Z</time></trkpt><trkpt lat="44.0084312" lon="8.0570838"><ele>372.0</ele><time>2026-05-03T17:22:56.463Z</time></trkpt><trkpt lat="44.0085053" lon="8.05701"><ele>372.6</ele><time>2026-05-03T17:22:57.465Z</time></trkpt><trkpt lat="44.0085969" lon="8.0569221"><ele>373.20000000000005</ele><time>2026-05-03T17:22:58.462Z</time></trkpt><trkpt lat="44.0086704" lon="8.0568476"><ele>373.8</ele><time>2026-05-03T17:22:59.463Z</time></trkpt><trkpt lat="44.0087451" lon="8.0567508"><ele>374.4</ele><time>2026-05-03T17:23:00.465Z</time></trkpt><trkpt lat="44.0088003" lon="8.0566507"><ele>375.0</ele><time>2026-05-03T17:23:01.467Z</time></trkpt><trkpt lat="44.0088939" lon="8.0565523"><ele>375.0</ele><time>2026-05-03T17:23:02.463Z</time></trkpt><trkpt lat="44.008954" lon="8.0564353"><ele>375.0</ele><time>2026-05-03T17:23:03.464Z</time></trkpt><trkpt lat="44.0089827" lon="8.0563375"><ele>375.0</ele><time>2026-05-03T17:23:04.467Z</time></trkpt><trkpt lat="44.0090578" lon="8.0562018"><ele>375.0</ele><time>2026-05-03T17:23:06.463Z</time></trkpt><trkpt lat="44.0091139" lon="8.056147"><ele>375.0</ele><time>2026-05-03T17:23:07.465Z</time></trkpt><trkpt lat="44.0091832" lon="8.0560987"><ele>375.0</ele><time>2026-05-03T17:23:08.464Z</time></trkpt><trkpt lat="44.0092417" lon="8.0560597"><ele>380.0</ele><time>2026-05-03T17:23:09.464Z</time></trkpt><trkpt lat="44.0093197" lon="8.0559759"><ele>385.0</ele><time>2026-05-03T17:23:11.468Z</time></trkpt><trkpt lat="44.00939" lon="8.0560128"><ele>390.0</ele><time>2026-05-03T17:23:14.464Z</time></trkpt><trkpt lat="44.0093321" lon="8.0560962"><ele>395.0</ele><time>2026-05-03T17:23:17.466Z</time></trkpt><trkpt lat="44.0092365" lon="8.0562262"><ele>400.0</ele><time>2026-05-03T17:23:19.464Z</time></trkpt><trkpt lat="44.0091967" lon="8.0563394"><ele>398.50000000000006</ele><time>2026-05-03T17:23:20.461Z</time></trkpt><trkpt lat="44.0091486" lon="8.0564462"><ele>397.0</ele><time>2026-05-03T17:23:21.459Z</time></trkpt><trkpt lat="44.0091099" lon="8.0565613"><ele>395.5</ele><time>2026-05-03T17:23:22.46Z</time></trkpt><trkpt lat="44.009085" lon="8.0566707"><ele>394.0</ele><time>2026-05-03T17:23:23.461Z</time></trkpt><trkpt lat="44.0090089" lon="8.0567628"><ele>392.50000000000006</ele><time>2026-05-03T17:23:24.467Z</time></trkpt><trkpt lat="44.0089524" lon="8.0568444"><ele>391.0</ele><time>2026-05-03T17:23:25.463Z</time></trkpt><trkpt lat="44.008934" lon="8.0569971"><ele>391.00000000000006</ele><time>2026-05-03T17:23:27.463Z</time></trkpt><trkpt lat="44.0090088" lon="8.0570144"><ele>391.0</ele><time>2026-05-03T17:23:30.465Z</time></trkpt><trkpt lat="44.0090498" lon="8.0569063"><ele>391.0</ele><time>2026-05-03T17:23:32.464Z</time></trkpt><trkpt lat="44.0091201" lon="8.056805"><ele>391.0</ele><time>2026-05-03T17:23:34.463Z</time></trkpt><trkpt lat="44.0091848" lon="8.0567714"><ele>391.00000000000006</ele><time>2026-05-03T17:23:35.463Z</time></trkpt><trkpt lat="44.0092493" lon="8.0567077"><ele>391.0</ele><time>2026-05-03T17:23:36.467Z</time></trkpt><trkpt lat="44.0093152" lon="8.0566394"><ele>392.50000000000006</ele><time>2026-05-03T17:23:37.464Z</time></trkpt><trkpt lat="44.0093867" lon="8.0565739"><ele>394.0</ele><time>2026-05-03T17:23:38.463Z</time></trkpt><trkpt lat="44.0094736" lon="8.0565106"><ele>395.5</ele><time>2026-05-03T17:23:39.463Z</time></trkpt><trkpt lat="44.0095331" lon="8.0564232"><ele>397.0</ele><time>2026-05-03T17:23:40.465Z</time></trkpt><trkpt lat="44.0096079" lon="8.0563853"><ele>398.50000000000006</ele><time>2026-05-03T17:23:41.463Z</time></trkpt><trkpt lat="44.0096885" lon="8.0563252"><ele>400.0</ele><time>2026-05-03T17:23:42.463Z</time></trkpt><trkpt lat="44.0097782" lon="8.0562568"><ele>400.00000000000006</ele><time>2026-05-03T17:23:43.467Z</time></trkpt><trkpt lat="44.0098523" lon="8.0561777"><ele>400.0</ele><time>2026-05-03T17:23:44.463Z</time></trkpt><trkpt lat="44.0099284" lon="8.0560986"><ele>400.0</ele><time>2026-05-03T17:23:45.465Z</time></trkpt><trkpt lat="44.0099959" lon="8.0560338"><ele>400.0</ele><time>2026-05-03T17:23:46.463Z</time></trkpt><trkpt lat="44.0100687" lon="8.0559788"><ele>400.00000000000006</ele><time>2026-05-03T17:23:47.463Z</time></trkpt><trkpt lat="44.0101506" lon="8.0559626"><ele>400.0</ele><time>2026-05-03T17:23:48.466Z</time></trkpt><trkpt lat="44.0102434" lon="8.0559062"><ele>404.8</ele><time>2026-05-03T17:23:50.464Z</time></trkpt><trkpt lat="44.0102678" lon="8.055783"><ele>409.6</ele><time>2026-05-03T17:23:52.461Z</time></trkpt><trkpt lat="44.0102945" lon="8.0555788"><ele>414.4</ele><time>2026-05-03T17:23:54.463Z</time></trkpt><trkpt lat="44.010322" lon="8.0554763"><ele>419.2</ele><time>2026-05-03T17:23:55.465Z</time></trkpt><trkpt lat="44.0103414" lon="8.0553503"><ele>424.0</ele><time>2026-05-03T17:23:56.468Z</time></trkpt><trkpt lat="44.0103468" lon="8.0552385"><ele>424.0</ele><time>2026-05-03T17:23:57.464Z</time></trkpt><trkpt lat="44.0103625" lon="8.0551241"><ele>424.0</ele><time>2026-05-03T17:23:58.469Z</time></trkpt><trkpt lat="44.0103784" lon="8.0549841"><ele>424.0</ele><time>2026-05-03T17:23:59.463Z</time></trkpt><trkpt lat="44.010387" lon="8.0548433"><ele>424.0</ele><time>2026-05-03T17:24:00.462Z</time></trkpt><trkpt lat="44.0103993" lon="8.0547299"><ele>424.0</ele><time>2026-05-03T17:24:01.465Z</time></trkpt><trkpt lat="44.010412" lon="8.0546058"><ele>423.4</ele><time>2026-05-03T17:24:02.463Z</time></trkpt><trkpt lat="44.0104452" lon="8.0544979"><ele>422.79999999999995</ele><time>2026-05-03T17:24:03.464Z</time></trkpt><trkpt lat="44.0104983" lon="8.0543929"><ele>422.20000000000005</ele><time>2026-05-03T17:24:04.465Z</time></trkpt><trkpt lat="44.0105502" lon="8.0542775"><ele>421.6</ele><time>2026-05-03T17:24:05.465Z</time></trkpt><trkpt lat="44.0106008" lon="8.0541725"><ele>421.0</ele><time>2026-05-03T17:24:06.468Z</time></trkpt><trkpt lat="44.0106429" lon="8.0540474"><ele>420.20000000000005</ele><time>2026-05-03T17:24:07.465Z</time></trkpt><trkpt lat="44.0107009" lon="8.0539631"><ele>419.40000000000003</ele><time>2026-05-03T17:24:08.463Z</time></trkpt><trkpt lat="44.0107804" lon="8.0538883"><ele>418.6</ele><time>2026-05-03T17:24:09.462Z</time></trkpt><trkpt lat="44.0108607" lon="8.0538284"><ele>417.8</ele><time>2026-05-03T17:24:10.463Z</time></trkpt><trkpt lat="44.0109439" lon="8.0537696"><ele>417.0</ele><time>2026-05-03T17:24:11.465Z</time></trkpt><trkpt lat="44.0110202" lon="8.0537092"><ele>420.6</ele><time>2026-05-03T17:24:12.462Z</time></trkpt><trkpt lat="44.0110834" lon="8.0536139"><ele>424.20000000000005</ele><time>2026-05-03T17:24:13.464Z</time></trkpt><trkpt lat="44.011161" lon="8.0535021"><ele>427.8</ele><time>2026-05-03T17:24:14.464Z</time></trkpt><trkpt lat="44.0112118" lon="8.0533929"><ele>431.4</ele><time>2026-05-03T17:24:15.468Z</time></trkpt><trkpt lat="44.0112778" lon="8.053337"><ele>435.0</ele><time>2026-05-03T17:24:16.466Z</time></trkpt><trkpt lat="44.0113328" lon="8.0532637"><ele>435.0</ele><time>2026-05-03T17:24:17.464Z</time></trkpt><trkpt lat="44.0114129" lon="8.0532416"><ele>435.0</ele><time>2026-05-03T17:24:18.462Z</time></trkpt><trkpt lat="44.0115081" lon="8.0531314"><ele>435.0</ele><time>2026-05-03T17:24:20.463Z</time></trkpt><trkpt lat="44.011535" lon="8.0530138"><ele>435.0</ele><time>2026-05-03T17:24:21.461Z</time></trkpt><trkpt lat="44.0115768" lon="8.0529011"><ele>435.0</ele><time>2026-05-03T17:24:22.461Z</time></trkpt><trkpt lat="44.0116014" lon="8.0527723"><ele>435.0</ele><time>2026-05-03T17:24:23.464Z</time></trkpt><trkpt lat="44.0116183" lon="8.0526567"><ele>435.0</ele><time>2026-05-03T17:24:24.465Z</time></trkpt><trkpt lat="44.0116098" lon="8.0525271"><ele>435.0</ele><time>2026-05-03T17:24:25.469Z</time></trkpt><trkpt lat="44.0116055" lon="8.0524247"><ele>435.0</ele><time>2026-05-03T17:24:26.466Z</time></trkpt><trkpt lat="44.0115932" lon="8.0523075"><ele>435.0</ele><time>2026-05-03T17:24:27.464Z</time></trkpt><trkpt lat="44.0116081" lon="8.0521737"><ele>435.0</ele><time>2026-05-03T17:24:28.463Z</time></trkpt><trkpt lat="44.011611" lon="8.0520563"><ele>435.6</ele><time>2026-05-03T17:24:29.465Z</time></trkpt><trkpt lat="44.011595" lon="8.0519463"><ele>436.2</ele><time>2026-05-03T17:24:30.464Z</time></trkpt><trkpt lat="44.0115971" lon="8.0518584"><ele>436.79999999999995</ele><time>2026-05-03T17:24:31.463Z</time></trkpt><trkpt lat="44.0116057" lon="8.0517664"><ele>437.4</ele><time>2026-05-03T17:24:32.462Z</time></trkpt><trkpt lat="44.0116444" lon="8.0515922"><ele>438.0</ele><time>2026-05-03T17:24:34.465Z</time></trkpt><trkpt lat="44.0116969" lon="8.0514296"><ele>445.0</ele><time>2026-05-03T17:24:36.465Z</time></trkpt><trkpt lat="44.0117358" lon="8.0513387"><ele>452.0</ele><time>2026-05-03T17:24:37.464Z</time></trkpt><trkpt lat="44.0117334" lon="8.0512232"><ele>459.0</ele><time>2026-05-03T17:24:38.466Z</time></trkpt><trkpt lat="44.0117488" lon="8.0511209"><ele>466.0</ele><time>2026-05-03T17:24:39.464Z</time></trkpt><trkpt lat="44.0117622" lon="8.0510131"><ele>473.0</ele><time>2026-05-03T17:24:40.465Z</time></trkpt><trkpt lat="44.0117919" lon="8.050925"><ele>480.0</ele><time>2026-05-03T17:24:41.461Z</time></trkpt><trkpt lat="44.0118921" lon="8.0510235"><ele>480.0</ele><time>2026-05-03T17:24:46.463Z</time></trkpt><trkpt lat="44.0118844" lon="8.0511386"><ele>480.0</ele><time>2026-05-03T17:24:47.468Z</time></trkpt><trkpt lat="44.0119047" lon="8.0512712"><ele>480.0</ele><time>2026-05-03T17:24:48.464Z</time></trkpt><trkpt lat="44.0118524" lon="8.0515252"><ele>480.0</ele><time>2026-05-03T17:24:49.469Z</time></trkpt><trkpt lat="44.0118692" lon="8.0517334"><ele>478.33333333333337</ele><time>2026-05-03T17:24:50.465Z</time></trkpt><trkpt lat="44.0119098" lon="8.0519479"><ele>476.6666666666667</ele><time>2026-05-03T17:24:51.464Z</time></trkpt><trkpt lat="44.011927" lon="8.0521805"><ele>475.0</ele><time>2026-05-03T17:24:52.466Z</time></trkpt><trkpt lat="44.0119478" lon="8.0523991"><ele>473.5</ele><time>2026-05-03T17:24:53.466Z</time></trkpt><trkpt lat="44.011967" lon="8.0525995"><ele>472.0</ele><time>2026-05-03T17:24:54.468Z</time></trkpt><trkpt lat="44.0119905" lon="8.0527924"><ele>470.5</ele><time>2026-05-03T17:24:55.463Z</time></trkpt><trkpt lat="44.0119909" lon="8.0529924"><ele>469.0</ele><time>2026-05-03T17:24:56.463Z</time></trkpt><trkpt lat="44.0119835" lon="8.0531792"><ele>469.75</ele><time>2026-05-03T17:24:57.465Z</time></trkpt><trkpt lat="44.0119684" lon="8.0533563"><ele>470.5</ele><time>2026-05-03T17:24:58.466Z</time></trkpt><trkpt lat="44.0119386" lon="8.0535374"><ele>471.25</ele><time>2026-05-03T17:24:59.463Z</time></trkpt><trkpt lat="44.0118818" lon="8.0536763"><ele>472.0</ele><time>2026-05-03T17:25:00.462Z</time></trkpt><trkpt lat="44.0117591" lon="8.053787"><ele>472.0</ele><time>2026-05-03T17:25:01.462Z</time></trkpt><trkpt lat="44.0116993" lon="8.0539304"><ele>472.0</ele><time>2026-05-03T17:25:02.462Z</time></trkpt><trkpt lat="44.0116379" lon="8.0541068"><ele>472.0</ele><time>2026-05-03T17:25:03.462Z</time></trkpt><trkpt lat="44.0115539" lon="8.0542757"><ele>472.0</ele><time>2026-05-03T17:25:04.465Z</time></trkpt><trkpt lat="44.0114695" lon="8.0544343"><ele>468.5</ele><time>2026-05-03T17:25:05.463Z</time></trkpt><trkpt lat="44.0114021" lon="8.0545987"><ele>465.0</ele><time>2026-05-03T17:25:06.468Z</time></trkpt><trkpt lat="44.0113256" lon="8.0547508"><ele>461.5</ele><time>2026-05-03T17:25:07.466Z</time></trkpt><trkpt lat="44.0112481" lon="8.0548744"><ele>458.0</ele><time>2026-05-03T17:25:08.466Z</time></trkpt><trkpt lat="44.0111925" lon="8.0549753"><ele>458.0</ele><time>2026-05-03T17:25:09.465Z</time></trkpt><trkpt lat="44.0111825" lon="8.0550765"><ele>457.99999999999994</ele><time>2026-05-03T17:25:10.463Z</time></trkpt><trkpt lat="44.0111854" lon="8.0551667"><ele>457.99999999999994</ele><time>2026-05-03T17:25:11.464Z</time></trkpt><trkpt lat="44.0112789" lon="8.0551728"><ele>458.0</ele><time>2026-05-03T17:25:12.463Z</time></trkpt><trkpt lat="44.0113619" lon="8.0551649"><ele>458.0</ele><time>2026-05-03T17:25:13.462Z</time></trkpt><trkpt lat="44.0114901" lon="8.0551058"><ele>458.0</ele><time>2026-05-03T17:25:14.467Z</time></trkpt><trkpt lat="44.0116212" lon="8.0550639"><ele>458.0</ele><time>2026-05-03T17:25:15.462Z</time></trkpt><trkpt lat="44.0117725" lon="8.0550219"><ele>458.0</ele><time>2026-05-03T17:25:16.463Z</time></trkpt><trkpt lat="44.0119221" lon="8.0549827"><ele>458.0</ele><time>2026-05-03T17:25:17.466Z</time></trkpt><trkpt lat="44.0120597" lon="8.0549489"><ele>466.66666666666663</ele><time>2026-05-03T17:25:18.464Z</time></trkpt><trkpt lat="44.0122055" lon="8.0549204"><ele>475.33333333333337</ele><time>2026-05-03T17:25:19.466Z</time></trkpt><trkpt lat="44.0123663" lon="8.0549106"><ele>484.0</ele><time>2026-05-03T17:25:20.463Z</time></trkpt><trkpt lat="44.0125232" lon="8.0549303"><ele>483.5</ele><time>2026-05-03T17:25:21.463Z</time></trkpt><trkpt lat="44.0126531" lon="8.0549555"><ele>483.0</ele><time>2026-05-03T17:25:22.466Z</time></trkpt><trkpt lat="44.0127642" lon="8.0550074"><ele>482.5</ele><time>2026-05-03T17:25:23.461Z</time></trkpt><trkpt lat="44.0128736" lon="8.0550824"><ele>482.0</ele><time>2026-05-03T17:25:24.462Z</time></trkpt><trkpt lat="44.0129315" lon="8.0551743"><ele>482.0</ele><time>2026-05-03T17:25:25.461Z</time></trkpt><trkpt lat="44.012997" lon="8.0553135"><ele>482.0</ele><time>2026-05-03T17:25:26.466Z</time></trkpt><trkpt lat="44.0131122" lon="8.0554283"><ele>482.0</ele><time>2026-05-03T17:25:27.464Z</time></trkpt><trkpt lat="44.0132138" lon="8.0555555"><ele>482.0</ele><time>2026-05-03T17:25:28.465Z</time></trkpt><trkpt lat="44.0133096" lon="8.0556795"><ele>479.5</ele><time>2026-05-03T17:25:29.467Z</time></trkpt><trkpt lat="44.0134249" lon="8.0557564"><ele>477.0</ele><time>2026-05-03T17:25:30.463Z</time></trkpt><trkpt lat="44.0135306" lon="8.0558373"><ele>474.5</ele><time>2026-05-03T17:25:31.463Z</time></trkpt><trkpt lat="44.0136261" lon="8.0559388"><ele>472.0</ele><time>2026-05-03T17:25:32.466Z</time></trkpt><trkpt lat="44.0137185" lon="8.0560324"><ele>472.0</ele><time>2026-05-03T17:25:33.465Z</time></trkpt><trkpt lat="44.0138035" lon="8.0561387"><ele>472.0</ele><time>2026-05-03T17:25:34.466Z</time></trkpt><trkpt lat="44.0138792" lon="8.0562559"><ele>472.0</ele><time>2026-05-03T17:25:35.468Z</time></trkpt><trkpt lat="44.0139355" lon="8.0564207"><ele>472.0</ele><time>2026-05-03T17:25:36.469Z</time></trkpt><trkpt lat="44.0139496" lon="8.0565953"><ele>467.6</ele><time>2026-05-03T17:25:37.468Z</time></trkpt><trkpt lat="44.0139776" lon="8.0567435"><ele>463.20000000000005</ele><time>2026-05-03T17:25:38.466Z</time></trkpt><trkpt lat="44.0139702" lon="8.0568911"><ele>458.8</ele><time>2026-05-03T17:25:39.463Z</time></trkpt><trkpt lat="44.0139628" lon="8.057041"><ele>454.4</ele><time>2026-05-03T17:25:40.463Z</time></trkpt><trkpt lat="44.0140193" lon="8.0571917"><ele>450.0</ele><time>2026-05-03T17:25:41.463Z</time></trkpt><trkpt lat="44.014104" lon="8.057361"><ele>457.25</ele><time>2026-05-03T17:25:42.465Z</time></trkpt><trkpt lat="44.0142173" lon="8.0575287"><ele>464.5</ele><time>2026-05-03T17:25:43.466Z</time></trkpt><trkpt lat="44.0143195" lon="8.0576825"><ele>471.75</ele><time>2026-05-03T17:25:44.465Z</time></trkpt><trkpt lat="44.0144055" lon="8.0578174"><ele>479.0</ele><time>2026-05-03T17:25:45.467Z</time></trkpt><trkpt lat="44.0144534" lon="8.0579778"><ele>479.0</ele><time>2026-05-03T17:25:46.464Z</time></trkpt><trkpt lat="44.0144663" lon="8.0581703"><ele>479.0</ele><time>2026-05-03T17:25:47.466Z</time></trkpt><trkpt lat="44.0144591" lon="8.0583433"><ele>479.0</ele><time>2026-05-03T17:25:48.464Z</time></trkpt><trkpt lat="44.0144491" lon="8.0585283"><ele>479.0</ele><time>2026-05-03T17:25:49.463Z</time></trkpt><trkpt lat="44.014471" lon="8.058743"><ele>474.0</ele><time>2026-05-03T17:25:50.464Z</time></trkpt><trkpt lat="44.0145063" lon="8.0589785"><ele>469.0</ele><time>2026-05-03T17:25:51.465Z</time></trkpt><trkpt lat="44.0145326" lon="8.0592344"><ele>464.0</ele><time>2026-05-03T17:25:52.465Z</time></trkpt><trkpt lat="44.0145484" lon="8.0594914"><ele>460.0</ele><time>2026-05-03T17:25:53.465Z</time></trkpt><trkpt lat="44.0145673" lon="8.0597534"><ele>456.0</ele><time>2026-05-03T17:25:54.464Z</time></trkpt><trkpt lat="44.0145737" lon="8.0599984"><ele>452.0</ele><time>2026-05-03T17:25:55.465Z</time></trkpt><trkpt lat="44.0145658" lon="8.0602105"><ele>450.5</ele><time>2026-05-03T17:25:56.462Z</time></trkpt><trkpt lat="44.0145469" lon="8.0604039"><ele>449.0</ele><time>2026-05-03T17:25:57.464Z</time></trkpt><trkpt lat="44.0145434" lon="8.0605698"><ele>447.5</ele><time>2026-05-03T17:25:58.463Z</time></trkpt><trkpt lat="44.0145879" lon="8.0607007"><ele>446.0</ele><time>2026-05-03T17:25:59.466Z</time></trkpt><trkpt lat="44.01466" lon="8.0608054"><ele>444.5</ele><time>2026-05-03T17:26:00.464Z</time></trkpt><trkpt lat="44.0147658" lon="8.0608813"><ele>443.0</ele><time>2026-05-03T17:26:01.466Z</time></trkpt><trkpt lat="44.0148944" lon="8.0609457"><ele>441.5</ele><time>2026-05-03T17:26:02.465Z</time></trkpt><trkpt lat="44.0149967" lon="8.0610167"><ele>440.0</ele><time>2026-05-03T17:26:03.463Z</time></trkpt><trkpt lat="44.0150862" lon="8.0610988"><ele>445.5</ele><time>2026-05-03T17:26:04.465Z</time></trkpt><trkpt lat="44.0151515" lon="8.0611956"><ele>451.0</ele><time>2026-05-03T17:26:05.462Z</time></trkpt><trkpt lat="44.0151622" lon="8.0613207"><ele>456.5</ele><time>2026-05-03T17:26:06.469Z</time></trkpt><trkpt lat="44.0151567" lon="8.0614439"><ele>462.0</ele><time>2026-05-03T17:26:07.466Z</time></trkpt><trkpt lat="44.015082" lon="8.0616733"><ele>462.0</ele><time>2026-05-03T17:26:08.464Z</time></trkpt><trkpt lat="44.0150584" lon="8.0618801"><ele>462.0</ele><time>2026-05-03T17:26:09.465Z</time></trkpt><trkpt lat="44.0150321" lon="8.0620587"><ele>462.0</ele><time>2026-05-03T17:26:10.465Z</time></trkpt><trkpt lat="44.0149904" lon="8.0622173"><ele>462.0</ele><time>2026-05-03T17:26:11.466Z</time></trkpt><trkpt lat="44.0149284" lon="8.0623549"><ele>454.40000000000003</ele><time>2026-05-03T17:26:12.467Z</time></trkpt><trkpt lat="44.0148613" lon="8.0624722"><ele>446.80000000000007</ele><time>2026-05-03T17:26:13.463Z</time></trkpt><trkpt lat="44.0148008" lon="8.0625865"><ele>439.2</ele><time>2026-05-03T17:26:14.464Z</time></trkpt><trkpt lat="44.0147676" lon="8.0627133"><ele>431.6</ele><time>2026-05-03T17:26:15.463Z</time></trkpt><trkpt lat="44.0147783" lon="8.0628778"><ele>424.0</ele><time>2026-05-03T17:26:16.465Z</time></trkpt><trkpt lat="44.0147411" lon="8.0631069"><ele>425.0</ele><time>2026-05-03T17:26:17.467Z</time></trkpt><trkpt lat="44.0147129" lon="8.0632963"><ele>426.0</ele><time>2026-05-03T17:26:18.465Z</time></trkpt><trkpt lat="44.0146628" lon="8.0634784"><ele>427.0</ele><time>2026-05-03T17:26:19.463Z</time></trkpt><trkpt lat="44.0146252" lon="8.0635961"><ele>428.0</ele><time>2026-05-03T17:26:20.467Z</time></trkpt><trkpt lat="44.0146196" lon="8.0637461"><ele>428.0</ele><time>2026-05-03T17:26:21.467Z</time></trkpt><trkpt lat="44.0146494" lon="8.0638934"><ele>427.99999999999994</ele><time>2026-05-03T17:26:22.464Z</time></trkpt><trkpt lat="44.0146734" lon="8.0640103"><ele>427.99999999999994</ele><time>2026-05-03T17:26:23.461Z</time></trkpt><trkpt lat="44.0146994" lon="8.0641222"><ele>428.0</ele><time>2026-05-03T17:26:24.461Z</time></trkpt><trkpt lat="44.0147365" lon="8.0642238"><ele>428.0</ele><time>2026-05-03T17:26:25.461Z</time></trkpt><trkpt lat="44.0146408" lon="8.0643959"><ele>427.75</ele><time>2026-05-03T17:26:26.469Z</time></trkpt><trkpt lat="44.0145881" lon="8.0645473"><ele>427.5</ele><time>2026-05-03T17:26:27.468Z</time></trkpt><trkpt lat="44.0145533" lon="8.0647461"><ele>427.25</ele><time>2026-05-03T17:26:28.466Z</time></trkpt><trkpt lat="44.0145197" lon="8.0649921"><ele>427.0</ele><time>2026-05-03T17:26:29.466Z</time></trkpt><trkpt lat="44.0144909" lon="8.0651851"><ele>427.0</ele><time>2026-05-03T17:26:30.468Z</time></trkpt><trkpt lat="44.0144986" lon="8.0653967"><ele>427.0</ele><time>2026-05-03T17:26:31.467Z</time></trkpt><trkpt lat="44.0144773" lon="8.0655871"><ele>427.0</ele><time>2026-05-03T17:26:32.463Z</time></trkpt><trkpt lat="44.0144473" lon="8.065764"><ele>427.0</ele><time>2026-05-03T17:26:33.467Z</time></trkpt><trkpt lat="44.0144064" lon="8.0659409"><ele>430.5</ele><time>2026-05-03T17:26:34.463Z</time></trkpt><trkpt lat="44.0143435" lon="8.066084"><ele>434.0</ele><time>2026-05-03T17:26:35.464Z</time></trkpt><trkpt lat="44.014241" lon="8.0661997"><ele>437.5</ele><time>2026-05-03T17:26:36.464Z</time></trkpt><trkpt lat="44.0141424" lon="8.0663048"><ele>441.0</ele><time>2026-05-03T17:26:37.463Z</time></trkpt><trkpt lat="44.0140703" lon="8.0664461"><ele>436.75</ele><time>2026-05-03T17:26:38.463Z</time></trkpt><trkpt lat="44.0140145" lon="8.0666056"><ele>432.5</ele><time>2026-05-03T17:26:39.464Z</time></trkpt><trkpt lat="44.0139375" lon="8.0667367"><ele>428.25</ele><time>2026-05-03T17:26:40.465Z</time></trkpt><trkpt lat="44.0138567" lon="8.0668683"><ele>424.0</ele><time>2026-05-03T17:26:41.467Z</time></trkpt><trkpt lat="44.013757" lon="8.066963"><ele>424.0</ele><time>2026-05-03T17:26:42.467Z</time></trkpt><trkpt lat="44.0136617" lon="8.0670637"><ele>424.0</ele><time>2026-05-03T17:26:43.462Z</time></trkpt><trkpt lat="44.0135627" lon="8.0671673"><ele>424.0</ele><time>2026-05-03T17:26:44.464Z</time></trkpt><trkpt lat="44.0134722" lon="8.0672629"><ele>424.0</ele><time>2026-05-03T17:26:45.464Z</time></trkpt><trkpt lat="44.0133975" lon="8.0673617"><ele>426.1666666666667</ele><time>2026-05-03T17:26:46.467Z</time></trkpt><trkpt lat="44.0133586" lon="8.0674638"><ele>428.33333333333337</ele><time>2026-05-03T17:26:47.463Z</time></trkpt><trkpt lat="44.01334" lon="8.0675487"><ele>430.5</ele><time>2026-05-03T17:26:48.462Z</time></trkpt><trkpt lat="44.0133281" lon="8.0676376"><ele>432.66666666666663</ele><time>2026-05-03T17:26:50.464Z</time></trkpt><trkpt lat="44.0134304" lon="8.0677238"><ele>434.8333333333333</ele><time>2026-05-03T17:28:07.462Z</time></trkpt><trkpt lat="44.0134954" lon="8.06778"><ele>437.0</ele><time>2026-05-03T17:28:08.465Z</time></trkpt><trkpt lat="44.0135594" lon="8.0678668"><ele>437.0</ele><time>2026-05-03T17:28:09.471Z</time></trkpt><trkpt lat="44.0136272" lon="8.0679766"><ele>437.00000000000006</ele><time>2026-05-03T17:28:10.469Z</time></trkpt><trkpt lat="44.0136969" lon="8.0681001"><ele>437.00000000000006</ele><time>2026-05-03T17:28:11.464Z</time></trkpt><trkpt lat="44.0137705" lon="8.0682098"><ele>437.0</ele><time>2026-05-03T17:28:12.464Z</time></trkpt><trkpt lat="44.0138605" lon="8.0683027"><ele>437.0</ele><time>2026-05-03T17:28:13.463Z</time></trkpt><trkpt lat="44.0139751" lon="8.0683787"><ele>434.0</ele><time>2026-05-03T17:28:14.469Z</time></trkpt><trkpt lat="44.0140748" lon="8.0684258"><ele>431.00000000000006</ele><time>2026-05-03T17:28:15.467Z</time></trkpt><trkpt lat="44.0141544" lon="8.0684804"><ele>428.0</ele><time>2026-05-03T17:28:16.463Z</time></trkpt><trkpt lat="44.0142047" lon="8.068564"><ele>425.0</ele><time>2026-05-03T17:28:17.463Z</time></trkpt><trkpt lat="44.0142373" lon="8.0687042"><ele>422.0</ele><time>2026-05-03T17:28:18.466Z</time></trkpt><trkpt lat="44.0142621" lon="8.0688802"><ele>426.25</ele><time>2026-05-03T17:28:19.468Z</time></trkpt><trkpt lat="44.0142814" lon="8.069076"><ele>430.5</ele><time>2026-05-03T17:28:20.466Z</time></trkpt><trkpt lat="44.0142932" lon="8.069278"><ele>434.75</ele><time>2026-05-03T17:28:21.464Z</time></trkpt><trkpt lat="44.0142933" lon="8.0694712"><ele>439.0</ele><time>2026-05-03T17:28:22.466Z</time></trkpt><trkpt lat="44.014289" lon="8.0696499"><ele>439.0</ele><time>2026-05-03T17:28:23.465Z</time></trkpt><trkpt lat="44.0142603" lon="8.0698122"><ele>439.0</ele><time>2026-05-03T17:28:24.467Z</time></trkpt><trkpt lat="44.0142361" lon="8.0699633"><ele>439.0</ele><time>2026-05-03T17:28:25.473Z</time></trkpt><trkpt lat="44.0142137" lon="8.0700906"><ele>439.0</ele><time>2026-05-03T17:28:26.466Z</time></trkpt><trkpt lat="44.0142067" lon="8.0702239"><ele>439.0</ele><time>2026-05-03T17:28:27.463Z</time></trkpt><trkpt lat="44.0142626" lon="8.0703216"><ele>439.6</ele><time>2026-05-03T17:28:28.465Z</time></trkpt><trkpt lat="44.0143233" lon="8.0704241"><ele>440.2</ele><time>2026-05-03T17:28:29.462Z</time></trkpt><trkpt lat="44.0143884" lon="8.0705212"><ele>440.80000000000007</ele><time>2026-05-03T17:28:30.471Z</time></trkpt><trkpt lat="44.014434" lon="8.0706388"><ele>441.40000000000003</ele><time>2026-05-03T17:28:31.464Z</time></trkpt><trkpt lat="44.0144556" lon="8.0708009"><ele>442.0</ele><time>2026-05-03T17:28:32.466Z</time></trkpt><trkpt lat="44.0144734" lon="8.0710041"><ele>439.5</ele><time>2026-05-03T17:28:33.464Z</time></trkpt><trkpt lat="44.0144425" lon="8.0711856"><ele>437.0</ele><time>2026-05-03T17:28:34.467Z</time></trkpt><trkpt lat="44.0144017" lon="8.0713527"><ele>434.5</ele><time>2026-05-03T17:28:35.461Z</time></trkpt><trkpt lat="44.0143904" lon="8.0715049"><ele>432.0</ele><time>2026-05-03T17:28:36.46Z</time></trkpt><trkpt lat="44.0143873" lon="8.0716354"><ele>431.8333333333333</ele><time>2026-05-03T17:28:37.464Z</time></trkpt><trkpt lat="44.0144087" lon="8.0717487"><ele>431.66666666666663</ele><time>2026-05-03T17:28:38.463Z</time></trkpt><trkpt lat="44.0144283" lon="8.071856"><ele>431.5</ele><time>2026-05-03T17:28:39.463Z</time></trkpt><trkpt lat="44.0144458" lon="8.0719737"><ele>431.3333333333333</ele><time>2026-05-03T17:28:40.468Z</time></trkpt><trkpt lat="44.0144346" lon="8.0721053"><ele>431.16666666666663</ele><time>2026-05-03T17:28:41.462Z</time></trkpt><trkpt lat="44.0143913" lon="8.072233"><ele>431.0</ele><time>2026-05-03T17:28:42.465Z</time></trkpt><trkpt lat="44.0143573" lon="8.0723602"><ele>431.3333333333333</ele><time>2026-05-03T17:28:43.464Z</time></trkpt><trkpt lat="44.0143458" lon="8.0724752"><ele>431.66666666666663</ele><time>2026-05-03T17:28:44.462Z</time></trkpt><trkpt lat="44.0143589" lon="8.0725786"><ele>432.0</ele><time>2026-05-03T17:28:45.464Z</time></trkpt><trkpt lat="44.0144384" lon="8.0726422"><ele>432.33333333333337</ele><time>2026-05-03T17:28:46.463Z</time></trkpt><trkpt lat="44.0145248" lon="8.0726793"><ele>432.6666666666667</ele><time>2026-05-03T17:28:47.464Z</time></trkpt><trkpt lat="44.0146066" lon="8.0726915"><ele>433.0</ele><time>2026-05-03T17:28:48.463Z</time></trkpt><trkpt lat="44.0146887" lon="8.0727112"><ele>433.00000000000006</ele><time>2026-05-03T17:28:49.463Z</time></trkpt><trkpt lat="44.014771" lon="8.0727386"><ele>433.0</ele><time>2026-05-03T17:28:50.466Z</time></trkpt><trkpt lat="44.0148539" lon="8.0727627"><ele>433.0</ele><time>2026-05-03T17:28:51.464Z</time></trkpt><trkpt lat="44.0149326" lon="8.0728014"><ele>433.0</ele><time>2026-05-03T17:28:52.463Z</time></trkpt><trkpt lat="44.0150131" lon="8.0728643"><ele>433.00000000000006</ele><time>2026-05-03T17:28:53.464Z</time></trkpt><trkpt lat="44.0151021" lon="8.0729222"><ele>433.0</ele><time>2026-05-03T17:28:54.466Z</time></trkpt><trkpt lat="44.0152017" lon="8.072963"><ele>438.75</ele><time>2026-05-03T17:28:55.463Z</time></trkpt><trkpt lat="44.01532" lon="8.0730011"><ele>444.5</ele><time>2026-05-03T17:28:56.464Z</time></trkpt><trkpt lat="44.0154388" lon="8.0730461"><ele>450.25</ele><time>2026-05-03T17:28:57.465Z</time></trkpt><trkpt lat="44.01556" lon="8.0731046"><ele>456.0</ele><time>2026-05-03T17:28:58.466Z</time></trkpt><trkpt lat="44.0156836" lon="8.073158"><ele>456.0</ele><time>2026-05-03T17:28:59.465Z</time></trkpt><trkpt lat="44.0158097" lon="8.0732259"><ele>456.0</ele><time>2026-05-03T17:29:00.461Z</time></trkpt><trkpt lat="44.0159225" lon="8.0732903"><ele>456.0</ele><time>2026-05-03T17:29:01.462Z</time></trkpt><trkpt lat="44.0160237" lon="8.0733874"><ele>456.0</ele><time>2026-05-03T17:29:02.463Z</time></trkpt><trkpt lat="44.0161092" lon="8.0735384"><ele>455.0</ele><time>2026-05-03T17:29:03.464Z</time></trkpt><trkpt lat="44.0161973" lon="8.0737195"><ele>454.0</ele><time>2026-05-03T17:29:04.465Z</time></trkpt><trkpt lat="44.0162661" lon="8.0739241"><ele>453.0</ele><time>2026-05-03T17:29:05.463Z</time></trkpt><trkpt lat="44.0163282" lon="8.0741402"><ele>446.0</ele><time>2026-05-03T17:29:06.464Z</time></trkpt><trkpt lat="44.0163856" lon="8.0743682"><ele>439.0</ele><time>2026-05-03T17:29:07.467Z</time></trkpt><trkpt lat="44.0163999" lon="8.0746178"><ele>432.0</ele><time>2026-05-03T17:29:08.466Z</time></trkpt><trkpt lat="44.0164063" lon="8.074872"><ele>429.66666666666663</ele><time>2026-05-03T17:29:09.465Z</time></trkpt><trkpt lat="44.0164205" lon="8.0751133"><ele>427.3333333333333</ele><time>2026-05-03T17:29:10.461Z</time></trkpt><trkpt lat="44.016461" lon="8.0753294"><ele>425.0</ele><time>2026-05-03T17:29:11.463Z</time></trkpt><trkpt lat="44.0164902" lon="8.075551"><ele>424.0</ele><time>2026-05-03T17:29:12.463Z</time></trkpt><trkpt lat="44.0164876" lon="8.0757811"><ele>423.0</ele><time>2026-05-03T17:29:13.466Z</time></trkpt><trkpt lat="44.0164584" lon="8.0760063"><ele>422.0</ele><time>2026-05-03T17:29:14.464Z</time></trkpt><trkpt lat="44.0164136" lon="8.0762247"><ele>422.0</ele><time>2026-05-03T17:29:15.464Z</time></trkpt><trkpt lat="44.0163875" lon="8.0764416"><ele>422.0</ele><time>2026-05-03T17:29:16.469Z</time></trkpt><trkpt lat="44.0163788" lon="8.0766518"><ele>422.0</ele><time>2026-05-03T17:29:17.464Z</time></trkpt><trkpt lat="44.0163274" lon="8.0768352"><ele>423.66666666666663</ele><time>2026-05-03T17:29:18.464Z</time></trkpt><trkpt lat="44.0162452" lon="8.07702"><ele>425.33333333333337</ele><time>2026-05-03T17:29:19.466Z</time></trkpt><trkpt lat="44.0161761" lon="8.0772049"><ele>427.0</ele><time>2026-05-03T17:29:20.463Z</time></trkpt><trkpt lat="44.016077" lon="8.0773902"><ele>429.75</ele><time>2026-05-03T17:29:21.462Z</time></trkpt><trkpt lat="44.0160082" lon="8.077561"><ele>432.5</ele><time>2026-05-03T17:29:22.462Z</time></trkpt><trkpt lat="44.0159524" lon="8.0777"><ele>435.25</ele><time>2026-05-03T17:29:23.464Z</time></trkpt><trkpt lat="44.0159223" lon="8.0778321"><ele>438.0</ele><time>2026-05-03T17:29:24.466Z</time></trkpt><trkpt lat="44.0158937" lon="8.077976"><ele>438.0</ele><time>2026-05-03T17:29:25.461Z</time></trkpt><trkpt lat="44.0159317" lon="8.0780742"><ele>437.99999999999994</ele><time>2026-05-03T17:29:26.463Z</time></trkpt><trkpt lat="44.0160046" lon="8.0781696"><ele>437.99999999999994</ele><time>2026-05-03T17:29:27.463Z</time></trkpt><trkpt lat="44.0160938" lon="8.0782436"><ele>438.0</ele><time>2026-05-03T17:29:28.467Z</time></trkpt><trkpt lat="44.0161772" lon="8.0783607"><ele>438.0</ele><time>2026-05-03T17:29:29.463Z</time></trkpt><trkpt lat="44.0162551" lon="8.0785129"><ele>437.0</ele><time>2026-05-03T17:29:30.466Z</time></trkpt><trkpt lat="44.0163222" lon="8.0786832"><ele>435.99999999999994</ele><time>2026-05-03T17:29:31.468Z</time></trkpt><trkpt lat="44.016368" lon="8.078831"><ele>434.99999999999994</ele><time>2026-05-03T17:29:32.463Z</time></trkpt><trkpt lat="44.0164051" lon="8.0789577"><ele>434.0</ele><time>2026-05-03T17:29:33.462Z</time></trkpt><trkpt lat="44.016481" lon="8.0790264"><ele>433.0</ele><time>2026-05-03T17:29:35.466Z</time></trkpt><trkpt lat="44.0165623" lon="8.0789923"><ele>433.0</ele><time>2026-05-03T17:29:37.466Z</time></trkpt><trkpt lat="44.0165978" lon="8.0789152"><ele>432.99999999999994</ele><time>2026-05-03T17:29:54.47Z</time></trkpt><trkpt lat="44.0166589" lon="8.0788292"><ele>432.99999999999994</ele><time>2026-05-03T17:29:57.467Z</time></trkpt><trkpt lat="44.0167528" lon="8.0787411"><ele>433.0</ele><time>2026-05-03T17:29:59.466Z</time></trkpt><trkpt lat="44.0168613" lon="8.0786949"><ele>433.0</ele><time>2026-05-03T17:30:01.464Z</time></trkpt><trkpt lat="44.0169653" lon="8.0786466"><ele>437.0</ele><time>2026-05-03T17:30:03.473Z</time></trkpt><trkpt lat="44.0171032" lon="8.0786012"><ele>441.0</ele><time>2026-05-03T17:30:05.464Z</time></trkpt><trkpt lat="44.0171849" lon="8.0785094"><ele>445.0</ele><time>2026-05-03T17:30:07.468Z</time></trkpt><trkpt lat="44.0171587" lon="8.0783036"><ele>449.0</ele><time>2026-05-03T17:30:09.464Z</time></trkpt><trkpt lat="44.0171277" lon="8.0781304"><ele>450.25</ele><time>2026-05-03T17:30:10.465Z</time></trkpt><trkpt lat="44.0170968" lon="8.077948"><ele>451.5</ele><time>2026-05-03T17:30:11.472Z</time></trkpt><trkpt lat="44.0170839" lon="8.0777778"><ele>452.75</ele><time>2026-05-03T17:30:12.467Z</time></trkpt><trkpt lat="44.017077" lon="8.0776216"><ele>454.0</ele><time>2026-05-03T17:30:13.464Z</time></trkpt><trkpt lat="44.0170873" lon="8.077485"><ele>453.79999999999995</ele><time>2026-05-03T17:30:14.467Z</time></trkpt><trkpt lat="44.0171147" lon="8.0773716"><ele>453.59999999999997</ele><time>2026-05-03T17:30:15.466Z</time></trkpt><trkpt lat="44.0171566" lon="8.077278"><ele>453.4</ele><time>2026-05-03T17:30:16.472Z</time></trkpt><trkpt lat="44.0172629" lon="8.077228"><ele>453.2</ele><time>2026-05-03T17:30:17.467Z</time></trkpt><trkpt lat="44.0173565" lon="8.077166"><ele>453.0</ele><time>2026-05-03T17:30:18.466Z</time></trkpt><trkpt lat="44.0175054" lon="8.0771718"><ele>453.0</ele><time>2026-05-03T17:30:19.468Z</time></trkpt><trkpt lat="44.0176377" lon="8.0771605"><ele>453.0</ele><time>2026-05-03T17:30:20.464Z</time></trkpt><trkpt lat="44.0177574" lon="8.0771601"><ele>453.0</ele><time>2026-05-03T17:30:21.469Z</time></trkpt><trkpt lat="44.0178929" lon="8.0771677"><ele>453.0</ele><time>2026-05-03T17:30:22.465Z</time></trkpt><trkpt lat="44.0179966" lon="8.0771494"><ele>453.0</ele><time>2026-05-03T17:30:23.463Z</time></trkpt><trkpt lat="44.0181022" lon="8.0770856"><ele>452.99999999999994</ele><time>2026-05-03T17:30:24.464Z</time></trkpt><trkpt lat="44.0181926" lon="8.0770027"><ele>452.99999999999994</ele><time>2026-05-03T17:30:25.468Z</time></trkpt><trkpt lat="44.0182208" lon="8.0768955"><ele>453.0</ele><time>2026-05-03T17:30:26.469Z</time></trkpt><trkpt lat="44.0182447" lon="8.0767872"><ele>453.0</ele><time>2026-05-03T17:30:27.469Z</time></trkpt><trkpt lat="44.0182651" lon="8.0766354"><ele>455.0</ele><time>2026-05-03T17:30:28.464Z</time></trkpt><trkpt lat="44.0182914" lon="8.076449"><ele>457.0</ele><time>2026-05-03T17:30:29.464Z</time></trkpt><trkpt lat="44.0183241" lon="8.0762731"><ele>459.0</ele><time>2026-05-03T17:30:30.462Z</time></trkpt><trkpt lat="44.0183353" lon="8.0761169"><ele>461.0</ele><time>2026-05-03T17:30:31.465Z</time></trkpt><trkpt lat="44.0183164" lon="8.0759586"><ele>461.0</ele><time>2026-05-03T17:30:32.466Z</time></trkpt><trkpt lat="44.0182473" lon="8.0758034"><ele>461.0</ele><time>2026-05-03T17:30:33.468Z</time></trkpt><trkpt lat="44.0182103" lon="8.0756396"><ele>461.0</ele><time>2026-05-03T17:30:34.466Z</time></trkpt><trkpt lat="44.0181903" lon="8.0754996"><ele>461.0</ele><time>2026-05-03T17:30:35.467Z</time></trkpt><trkpt lat="44.0181867" lon="8.0753599"><ele>461.8</ele><time>2026-05-03T17:30:36.464Z</time></trkpt><trkpt lat="44.018207" lon="8.0752395"><ele>462.6</ele><time>2026-05-03T17:30:37.462Z</time></trkpt><trkpt lat="44.0182383" lon="8.0751483"><ele>463.4</ele><time>2026-05-03T17:30:38.464Z</time></trkpt><trkpt lat="44.0183129" lon="8.075102"><ele>464.2</ele><time>2026-05-03T17:30:39.467Z</time></trkpt><trkpt lat="44.0184659" lon="8.0750182"><ele>465.0</ele><time>2026-05-03T17:30:40.465Z</time></trkpt><trkpt lat="44.0185647" lon="8.0749385"><ele>461.5</ele><time>2026-05-03T17:30:41.466Z</time></trkpt><trkpt lat="44.0186624" lon="8.0748739"><ele>458.0</ele><time>2026-05-03T17:30:42.468Z</time></trkpt><trkpt lat="44.0187782" lon="8.0749115"><ele>454.5</ele><time>2026-05-03T17:30:43.463Z</time></trkpt><trkpt lat="44.0188879" lon="8.0750016"><ele>451.0</ele><time>2026-05-03T17:30:44.463Z</time></trkpt><trkpt lat="44.0189877" lon="8.0751362"><ele>445.25</ele><time>2026-05-03T17:30:45.466Z</time></trkpt><trkpt lat="44.0190795" lon="8.0752686"><ele>439.5</ele><time>2026-05-03T17:30:46.466Z</time></trkpt><trkpt lat="44.0191639" lon="8.0753786"><ele>433.75</ele><time>2026-05-03T17:30:47.465Z</time></trkpt><trkpt lat="44.0192485" lon="8.0754518"><ele>428.0</ele><time>2026-05-03T17:30:48.466Z</time></trkpt><trkpt lat="44.0193493" lon="8.0754868"><ele>426.25</ele><time>2026-05-03T17:30:49.465Z</time></trkpt><trkpt lat="44.0194588" lon="8.0754503"><ele>424.5</ele><time>2026-05-03T17:30:50.47Z</time></trkpt><trkpt lat="44.0195655" lon="8.0754223"><ele>422.75</ele><time>2026-05-03T17:30:51.466Z</time></trkpt><trkpt lat="44.0196813" lon="8.0754273"><ele>421.0</ele><time>2026-05-03T17:30:52.464Z</time></trkpt><trkpt lat="44.0197259" lon="8.075572"><ele>421.0</ele><time>2026-05-03T17:30:53.462Z</time></trkpt><trkpt lat="44.0198167" lon="8.0756797"><ele>421.0</ele><time>2026-05-03T17:30:54.468Z</time></trkpt><trkpt lat="44.0199101" lon="8.0758009"><ele>421.0</ele><time>2026-05-03T17:30:55.463Z</time></trkpt><trkpt lat="44.0198983" lon="8.0760391"><ele>421.0</ele><time>2026-05-03T17:30:56.463Z</time></trkpt><trkpt lat="44.019926" lon="8.0762488"><ele>413.25</ele><time>2026-05-03T17:30:57.463Z</time></trkpt><trkpt lat="44.0199719" lon="8.0764438"><ele>405.5</ele><time>2026-05-03T17:30:58.465Z</time></trkpt><trkpt lat="44.0200415" lon="8.076623"><ele>397.75</ele><time>2026-05-03T17:30:59.468Z</time></trkpt><trkpt lat="44.0201311" lon="8.0767836"><ele>390.0</ele><time>2026-05-03T17:31:00.463Z</time></trkpt><trkpt lat="44.0202434" lon="8.0769229"><ele>388.2</ele><time>2026-05-03T17:31:01.464Z</time></trkpt><trkpt lat="44.0203443" lon="8.0770425"><ele>386.4</ele><time>2026-05-03T17:31:02.462Z</time></trkpt><trkpt lat="44.0204157" lon="8.0771595"><ele>384.6</ele><time>2026-05-03T17:31:03.467Z</time></trkpt><trkpt lat="44.0204826" lon="8.0772646"><ele>382.8</ele><time>2026-05-03T17:31:04.462Z</time></trkpt><trkpt lat="44.0205496" lon="8.0773126"><ele>381.0</ele><time>2026-05-03T17:31:05.462Z</time></trkpt><trkpt lat="44.0206702" lon="8.0772668"><ele>381.0</ele><time>2026-05-03T17:31:07.468Z</time></trkpt><trkpt lat="44.020747" lon="8.0771947"><ele>381.0</ele><time>2026-05-03T17:31:08.464Z</time></trkpt><trkpt lat="44.0207776" lon="8.07705"><ele>381.0</ele><time>2026-05-03T17:31:09.463Z</time></trkpt><trkpt lat="44.0208132" lon="8.076901"><ele>381.0</ele><time>2026-05-03T17:31:10.466Z</time></trkpt><trkpt lat="44.0208691" lon="8.0767923"><ele>381.0</ele><time>2026-05-03T17:31:11.467Z</time></trkpt><trkpt lat="44.0209426" lon="8.0767104"><ele>382.5</ele><time>2026-05-03T17:31:12.467Z</time></trkpt><trkpt lat="44.0210358" lon="8.0766809"><ele>384.0</ele><time>2026-05-03T17:31:13.466Z</time></trkpt><trkpt lat="44.0211449" lon="8.0767107"><ele>385.5</ele><time>2026-05-03T17:31:14.47Z</time></trkpt><trkpt lat="44.0212432" lon="8.0768407"><ele>387.0</ele><time>2026-05-03T17:31:15.465Z</time></trkpt><trkpt lat="44.0213583" lon="8.0769589"><ele>387.0</ele><time>2026-05-03T17:31:16.466Z</time></trkpt><trkpt lat="44.0214874" lon="8.0770778"><ele>387.0</ele><time>2026-05-03T17:31:17.467Z</time></trkpt><trkpt lat="44.0216236" lon="8.077178"><ele>387.0</ele><time>2026-05-03T17:31:18.464Z</time></trkpt><trkpt lat="44.0217373" lon="8.0772567"><ele>387.0</ele><time>2026-05-03T17:31:19.463Z</time></trkpt><trkpt lat="44.0218447" lon="8.0773282"><ele>387.0</ele><time>2026-05-03T17:31:20.466Z</time></trkpt><trkpt lat="44.0219492" lon="8.0773559"><ele>387.0</ele><time>2026-05-03T17:31:21.466Z</time></trkpt><trkpt lat="44.0220543" lon="8.0773823"><ele>387.0</ele><time>2026-05-03T17:31:22.467Z</time></trkpt><trkpt lat="44.0222322" lon="8.0772741"><ele>387.0</ele><time>2026-05-03T17:31:23.469Z</time></trkpt><trkpt lat="44.0223844" lon="8.0772295"><ele>384.75</ele><time>2026-05-03T17:31:24.464Z</time></trkpt><trkpt lat="44.0225358" lon="8.0771971"><ele>382.5</ele><time>2026-05-03T17:31:25.465Z</time></trkpt><trkpt lat="44.0226778" lon="8.0771808"><ele>380.25</ele><time>2026-05-03T17:31:26.464Z</time></trkpt><trkpt lat="44.0228099" lon="8.0771889"><ele>378.0</ele><time>2026-05-03T17:31:27.463Z</time></trkpt><trkpt lat="44.0229682" lon="8.0772594"><ele>378.0</ele><time>2026-05-03T17:31:28.465Z</time></trkpt><trkpt lat="44.0231111" lon="8.0773084"><ele>378.0</ele><time>2026-05-03T17:31:29.467Z</time></trkpt><trkpt lat="44.023235" lon="8.0773529"><ele>378.0</ele><time>2026-05-03T17:31:30.472Z</time></trkpt><trkpt lat="44.0233333" lon="8.0773683"><ele>378.0</ele><time>2026-05-03T17:31:31.47Z</time></trkpt><trkpt lat="44.0234094" lon="8.0773211"><ele>373.75</ele><time>2026-05-03T17:31:32.465Z</time></trkpt><trkpt lat="44.0234925" lon="8.077264"><ele>369.5</ele><time>2026-05-03T17:31:33.465Z</time></trkpt><trkpt lat="44.0235608" lon="8.077188"><ele>365.25</ele><time>2026-05-03T17:31:34.464Z</time></trkpt><trkpt lat="44.0236456" lon="8.0770865"><ele>361.0</ele><time>2026-05-03T17:31:35.466Z</time></trkpt><trkpt lat="44.0237906" lon="8.0769057"><ele>361.0</ele><time>2026-05-03T17:31:36.463Z</time></trkpt><trkpt lat="44.0238467" lon="8.0767638"><ele>361.0</ele><time>2026-05-03T17:31:37.466Z</time></trkpt><trkpt lat="44.0239407" lon="8.0766413"><ele>361.0</ele><time>2026-05-03T17:31:38.467Z</time></trkpt><trkpt lat="44.024019" lon="8.0765078"><ele>361.0</ele><time>2026-05-03T17:31:39.47Z</time></trkpt><trkpt lat="44.0240719" lon="8.0763479"><ele>355.5</ele><time>2026-05-03T17:31:40.463Z</time></trkpt><trkpt lat="44.0241477" lon="8.0762146"><ele>350.0</ele><time>2026-05-03T17:31:41.465Z</time></trkpt><trkpt lat="44.0242324" lon="8.0760663"><ele>344.5</ele><time>2026-05-03T17:31:42.465Z</time></trkpt><trkpt lat="44.0243018" lon="8.0759365"><ele>339.0</ele><time>2026-05-03T17:31:43.464Z</time></trkpt><trkpt lat="44.0243674" lon="8.0758088"><ele>337.5</ele><time>2026-05-03T17:31:44.471Z</time></trkpt><trkpt lat="44.0244795" lon="8.0757119"><ele>336.0</ele><time>2026-05-03T17:31:45.466Z</time></trkpt><trkpt lat="44.0245961" lon="8.0756119"><ele>334.5</ele><time>2026-05-03T17:31:46.465Z</time></trkpt><trkpt lat="44.0246969" lon="8.0755173"><ele>333.0</ele><time>2026-05-03T17:31:47.465Z</time></trkpt><trkpt lat="44.0247595" lon="8.075434"><ele>333.0</ele><time>2026-05-03T17:31:48.465Z</time></trkpt><trkpt lat="44.0248282" lon="8.0753469"><ele>333.0</ele><time>2026-05-03T17:31:49.467Z</time></trkpt><trkpt lat="44.0249035" lon="8.0752813"><ele>333.0</ele><time>2026-05-03T17:31:50.464Z</time></trkpt><trkpt lat="44.0249721" lon="8.0752339"><ele>333.0</ele><time>2026-05-03T17:31:51.464Z</time></trkpt><trkpt lat="44.0250312" lon="8.0753"><ele>333.0</ele><time>2026-05-03T17:31:52.464Z</time></trkpt><trkpt lat="44.0250519" lon="8.0753934"><ele>333.0</ele><time>2026-05-03T17:31:53.469Z</time></trkpt><trkpt lat="44.0250446" lon="8.0754852"><ele>333.0</ele><time>2026-05-03T17:31:54.462Z</time></trkpt><trkpt lat="44.0249851" lon="8.0756058"><ele>333.0</ele><time>2026-05-03T17:31:55.467Z</time></trkpt><trkpt lat="44.0248714" lon="8.0756875"><ele>333.0</ele><time>2026-05-03T17:31:56.464Z</time></trkpt><trkpt lat="44.0247149" lon="8.0757492"><ele>333.0</ele><time>2026-05-03T17:31:57.467Z</time></trkpt><trkpt lat="44.0246073" lon="8.0758268"><ele>334.5</ele><time>2026-05-03T17:31:58.464Z</time></trkpt><trkpt lat="44.0245298" lon="8.0759672"><ele>336.0</ele><time>2026-05-03T17:31:59.468Z</time></trkpt><trkpt lat="44.024465" lon="8.076116"><ele>337.5</ele><time>2026-05-03T17:32:00.466Z</time></trkpt><trkpt lat="44.0244118" lon="8.0762703"><ele>339.0</ele><time>2026-05-03T17:32:01.466Z</time></trkpt><trkpt lat="44.0243732" lon="8.0764496"><ele>336.6</ele><time>2026-05-03T17:32:02.464Z</time></trkpt><trkpt lat="44.0243638" lon="8.0766134"><ele>334.2</ele><time>2026-05-03T17:32:03.464Z</time></trkpt><trkpt lat="44.0243503" lon="8.0767653"><ele>331.8</ele><time>2026-05-03T17:32:04.464Z</time></trkpt><trkpt lat="44.0243285" lon="8.0769068"><ele>329.40000000000003</ele><time>2026-05-03T17:32:05.465Z</time></trkpt><trkpt lat="44.0242579" lon="8.077024"><ele>327.0</ele><time>2026-05-03T17:32:06.464Z</time></trkpt><trkpt lat="44.024235" lon="8.0771872"><ele>327.0</ele><time>2026-05-03T17:32:07.463Z</time></trkpt><trkpt lat="44.0242567" lon="8.0774008"><ele>327.0</ele><time>2026-05-03T17:32:08.464Z</time></trkpt><trkpt lat="44.0242917" lon="8.0776235"><ele>327.0</ele><time>2026-05-03T17:32:09.467Z</time></trkpt><trkpt lat="44.0243314" lon="8.0778521"><ele>325.0</ele><time>2026-05-03T17:32:10.466Z</time></trkpt><trkpt lat="44.024364" lon="8.078083"><ele>323.0</ele><time>2026-05-03T17:32:11.463Z</time></trkpt><trkpt lat="44.0244049" lon="8.078287"><ele>321.0</ele><time>2026-05-03T17:32:12.461Z</time></trkpt><trkpt lat="44.0244504" lon="8.0784515"><ele>319.0</ele><time>2026-05-03T17:32:13.464Z</time></trkpt><trkpt lat="44.0244829" lon="8.0785883"><ele>317.4</ele><time>2026-05-03T17:32:14.467Z</time></trkpt><trkpt lat="44.0244974" lon="8.0787377"><ele>315.79999999999995</ele><time>2026-05-03T17:32:16.463Z</time></trkpt><trkpt lat="44.0244637" lon="8.0788934"><ele>314.20000000000005</ele><time>2026-05-03T17:32:18.463Z</time></trkpt><trkpt lat="44.024387" lon="8.0790218"><ele>312.6</ele><time>2026-05-03T17:32:20.463Z</time></trkpt><trkpt lat="44.0243352" lon="8.0790866"><ele>311.0</ele><time>2026-05-03T17:32:21.466Z</time></trkpt><trkpt lat="44.0242547" lon="8.0791816"><ele>311.1666666666667</ele><time>2026-05-03T17:32:23.463Z</time></trkpt><trkpt lat="44.0241764" lon="8.0791577"><ele>311.33333333333337</ele><time>2026-05-03T17:32:25.464Z</time></trkpt><trkpt lat="44.0240559" lon="8.0790629"><ele>311.5</ele><time>2026-05-03T17:32:27.463Z</time></trkpt><trkpt lat="44.0239973" lon="8.0790176"><ele>311.6666666666667</ele><time>2026-05-03T17:32:28.467Z</time></trkpt><trkpt lat="44.0239369" lon="8.0789618"><ele>311.8333333333333</ele><time>2026-05-03T17:32:29.463Z</time></trkpt><trkpt lat="44.0238731" lon="8.0788995"><ele>312.0</ele><time>2026-05-03T17:32:30.463Z</time></trkpt><trkpt lat="44.023802" lon="8.0788354"><ele>312.0</ele><time>2026-05-03T17:32:31.47Z</time></trkpt><trkpt lat="44.0237442" lon="8.0787836"><ele>312.0</ele><time>2026-05-03T17:32:32.464Z</time></trkpt><trkpt lat="44.023648" lon="8.0786947"><ele>312.0</ele><time>2026-05-03T17:32:34.465Z</time></trkpt><trkpt lat="44.023531" lon="8.0786431"><ele>312.0</ele><time>2026-05-03T17:32:36.466Z</time></trkpt><trkpt lat="44.0234484" lon="8.0786242"><ele>312.0</ele><time>2026-05-03T17:32:37.473Z</time></trkpt><trkpt lat="44.023363" lon="8.0786293"><ele>311.8333333333333</ele><time>2026-05-03T17:32:38.474Z</time></trkpt><trkpt lat="44.0232409" lon="8.078609"><ele>311.6666666666667</ele><time>2026-05-03T17:32:40.464Z</time></trkpt><trkpt lat="44.0231732" lon="8.0785923"><ele>311.5</ele><time>2026-05-03T17:32:41.462Z</time></trkpt><trkpt lat="44.02311" lon="8.0785801"><ele>311.33333333333337</ele><time>2026-05-03T17:32:42.464Z</time></trkpt><trkpt lat="44.0230364" lon="8.078534"><ele>311.1666666666667</ele><time>2026-05-03T17:32:43.467Z</time></trkpt><trkpt lat="44.022965" lon="8.0785089"><ele>311.0</ele><time>2026-05-03T17:32:44.467Z</time></trkpt><trkpt lat="44.0228292" lon="8.0784993"><ele>311.0</ele><time>2026-05-03T17:32:46.469Z</time></trkpt><trkpt lat="44.0227551" lon="8.0785098"><ele>311.0</ele><time>2026-05-03T17:32:47.466Z</time></trkpt><trkpt lat="44.0226632" lon="8.0785468"><ele>311.0</ele><time>2026-05-03T17:32:48.473Z</time></trkpt><trkpt lat="44.0225172" lon="8.0785748"><ele>311.0</ele><time>2026-05-03T17:32:50.462Z</time></trkpt><trkpt lat="44.0224421" lon="8.0785903"><ele>311.0</ele><time>2026-05-03T17:32:51.463Z</time></trkpt><trkpt lat="44.0223726" lon="8.0786168"><ele>312.1666666666667</ele><time>2026-05-03T17:32:52.462Z</time></trkpt><trkpt lat="44.022304" lon="8.0786391"><ele>313.33333333333337</ele><time>2026-05-03T17:32:53.464Z</time></trkpt><trkpt lat="44.0222423" lon="8.0786816"><ele>314.5</ele><time>2026-05-03T17:32:54.465Z</time></trkpt><trkpt lat="44.0221723" lon="8.0787452"><ele>315.6666666666667</ele><time>2026-05-03T17:32:55.47Z</time></trkpt><trkpt lat="44.0220996" lon="8.0788044"><ele>316.8333333333333</ele><time>2026-05-03T17:32:56.468Z</time></trkpt><trkpt lat="44.0220043" lon="8.0788568"><ele>318.0</ele><time>2026-05-03T17:32:58.463Z</time></trkpt><trkpt lat="44.0219428" lon="8.0788756"><ele>318.0</ele><time>2026-05-03T17:32:59.464Z</time></trkpt><trkpt lat="44.0218894" lon="8.0789404"><ele>318.0</ele><time>2026-05-03T17:33:01.467Z</time></trkpt><trkpt lat="44.0218156" lon="8.0790705"><ele>318.0</ele><time>2026-05-03T17:33:03.469Z</time></trkpt><trkpt lat="44.0217392" lon="8.0791996"><ele>318.0</ele><time>2026-05-03T17:33:05.469Z</time></trkpt><trkpt lat="44.0217264" lon="8.0792886"><ele>318.0</ele><time>2026-05-03T17:33:06.47Z</time></trkpt><trkpt lat="44.0216562" lon="8.0793709"><ele>316.6666666666667</ele><time>2026-05-03T17:33:07.464Z</time></trkpt><trkpt lat="44.021611" lon="8.0794646"><ele>315.3333333333333</ele><time>2026-05-03T17:33:08.463Z</time></trkpt><trkpt lat="44.0215456" lon="8.0795384"><ele>314.0</ele><time>2026-05-03T17:33:09.471Z</time></trkpt><trkpt lat="44.0214771" lon="8.0796188"><ele>312.66666666666663</ele><time>2026-05-03T17:33:10.466Z</time></trkpt><trkpt lat="44.0214027" lon="8.0796815"><ele>311.3333333333333</ele><time>2026-05-03T17:33:11.465Z</time></trkpt><trkpt lat="44.0213227" lon="8.0796929"><ele>310.0</ele><time>2026-05-03T17:33:12.464Z</time></trkpt><trkpt lat="44.0212534" lon="8.0797553"><ele>310.0</ele><time>2026-05-03T17:33:13.465Z</time></trkpt><trkpt lat="44.0211678" lon="8.079759"><ele>310.0</ele><time>2026-05-03T17:33:14.467Z</time></trkpt><trkpt lat="44.0210969" lon="8.0797643"><ele>310.0</ele><time>2026-05-03T17:33:15.464Z</time></trkpt><trkpt lat="44.0210216" lon="8.0797776"><ele>310.0</ele><time>2026-05-03T17:33:16.464Z</time></trkpt><trkpt lat="44.0209422" lon="8.0797126"><ele>310.0</ele><time>2026-05-03T17:33:17.462Z</time></trkpt><trkpt lat="44.0208735" lon="8.0796838"><ele>310.0</ele><time>2026-05-03T17:33:18.462Z</time></trkpt><trkpt lat="44.0208066" lon="8.0796408"><ele>308.5</ele><time>2026-05-03T17:33:19.464Z</time></trkpt><trkpt lat="44.0207142" lon="8.0796218"><ele>307.0</ele><time>2026-05-03T17:33:20.467Z</time></trkpt><trkpt lat="44.0206381" lon="8.0796108"><ele>305.5</ele><time>2026-05-03T17:33:21.463Z</time></trkpt><trkpt lat="44.0205766" lon="8.079573"><ele>304.0</ele><time>2026-05-03T17:33:22.465Z</time></trkpt><trkpt lat="44.0205139" lon="8.0795468"><ele>302.5</ele><time>2026-05-03T17:33:23.464Z</time></trkpt><trkpt lat="44.0204506" lon="8.0794937"><ele>301.0</ele><time>2026-05-03T17:33:24.464Z</time></trkpt><trkpt lat="44.0203984" lon="8.0794173"><ele>301.0</ele><time>2026-05-03T17:33:25.464Z</time></trkpt><trkpt lat="44.0203413" lon="8.079366"><ele>301.0</ele><time>2026-05-03T17:33:26.465Z</time></trkpt><trkpt lat="44.0202573" lon="8.0793063"><ele>301.0</ele><time>2026-05-03T17:33:27.47Z</time></trkpt><trkpt lat="44.0201757" lon="8.0792545"><ele>301.0</ele><time>2026-05-03T17:33:28.469Z</time></trkpt><trkpt lat="44.0200994" lon="8.0792111"><ele>301.0</ele><time>2026-05-03T17:33:29.47Z</time></trkpt><trkpt lat="44.0200281" lon="8.079145"><ele>301.0</ele><time>2026-05-03T17:33:30.464Z</time></trkpt><trkpt lat="44.0199695" lon="8.0790881"><ele>306.4</ele><time>2026-05-03T17:33:31.463Z</time></trkpt><trkpt lat="44.0198495" lon="8.0790234"><ele>311.8</ele><time>2026-05-03T17:33:33.467Z</time></trkpt><trkpt lat="44.0197601" lon="8.0790655"><ele>317.2</ele><time>2026-05-03T17:33:36.466Z</time></trkpt><trkpt lat="44.0196766" lon="8.0791729"><ele>322.59999999999997</ele><time>2026-05-03T17:33:38.471Z</time></trkpt><trkpt lat="44.0196395" lon="8.0792755"><ele>328.0</ele><time>2026-05-03T17:33:39.464Z</time></trkpt><trkpt lat="44.0195721" lon="8.0794129"><ele>328.0</ele><time>2026-05-03T17:33:41.468Z</time></trkpt><trkpt lat="44.0195566" lon="8.0794994"><ele>328.0</ele><time>2026-05-03T17:33:42.465Z</time></trkpt><trkpt lat="44.0195281" lon="8.0795796"><ele>328.0</ele><time>2026-05-03T17:33:43.472Z</time></trkpt><trkpt lat="44.0195252" lon="8.0796886"><ele>328.0</ele><time>2026-05-03T17:33:44.464Z</time></trkpt><trkpt lat="44.0195286" lon="8.079872"><ele>328.0</ele><time>2026-05-03T17:33:46.467Z</time></trkpt><trkpt lat="44.0195001" lon="8.0800128"><ele>328.0</ele><time>2026-05-03T17:33:48.466Z</time></trkpt><trkpt lat="44.019417" lon="8.080124"><ele>325.79999999999995</ele><time>2026-05-03T17:33:50.467Z</time></trkpt><trkpt lat="44.0192869" lon="8.0801919"><ele>323.59999999999997</ele><time>2026-05-03T17:33:52.465Z</time></trkpt><trkpt lat="44.0192142" lon="8.0802716"><ele>321.4</ele><time>2026-05-03T17:33:53.465Z</time></trkpt><trkpt lat="44.0191532" lon="8.0803289"><ele>319.2</ele><time>2026-05-03T17:33:54.467Z</time></trkpt><trkpt lat="44.0190798" lon="8.0803768"><ele>317.0</ele><time>2026-05-03T17:33:55.468Z</time></trkpt><trkpt lat="44.0190117" lon="8.080435"><ele>323.1666666666667</ele><time>2026-05-03T17:33:56.468Z</time></trkpt><trkpt lat="44.0189068" lon="8.0805449"><ele>329.33333333333337</ele><time>2026-05-03T17:33:58.465Z</time></trkpt><trkpt lat="44.0189594" lon="8.0806481"><ele>335.5</ele><time>2026-05-03T17:34:00.47Z</time></trkpt><trkpt lat="44.0189894" lon="8.0807432"><ele>341.6666666666667</ele><time>2026-05-03T17:34:01.463Z</time></trkpt><trkpt lat="44.019017" lon="8.0808326"><ele>347.8333333333333</ele><time>2026-05-03T17:34:02.464Z</time></trkpt><trkpt lat="44.0190678" lon="8.0809228"><ele>354.0</ele><time>2026-05-03T17:34:03.464Z</time></trkpt><trkpt lat="44.0191243" lon="8.0810244"><ele>349.7142857142857</ele><time>2026-05-03T17:34:04.463Z</time></trkpt><trkpt lat="44.0191575" lon="8.0811198"><ele>345.4285714285714</ele><time>2026-05-03T17:34:05.466Z</time></trkpt><trkpt lat="44.0191949" lon="8.0811922"><ele>341.1428571428571</ele><time>2026-05-03T17:34:06.463Z</time></trkpt><trkpt lat="44.0192133" lon="8.0812939"><ele>336.8571428571429</ele><time>2026-05-03T17:34:07.462Z</time></trkpt><trkpt lat="44.019245" lon="8.0813773"><ele>332.57142857142856</ele><time>2026-05-03T17:34:08.465Z</time></trkpt><trkpt lat="44.0193029" lon="8.0814909"><ele>328.2857142857143</ele><time>2026-05-03T17:34:10.464Z</time></trkpt><trkpt lat="44.0193444" lon="8.081559"><ele>324.0</ele><time>2026-05-03T17:34:11.468Z</time></trkpt><trkpt lat="44.0194163" lon="8.0817386"><ele>324.0</ele><time>2026-05-03T17:34:13.467Z</time></trkpt><trkpt lat="44.0195176" lon="8.0818544"><ele>324.0</ele><time>2026-05-03T17:34:15.466Z</time></trkpt><trkpt lat="44.0196016" lon="8.0820023"><ele>324.0</ele><time>2026-05-03T17:34:17.462Z</time></trkpt><trkpt lat="44.0196454" lon="8.0820812"><ele>324.0</ele><time>2026-05-03T17:34:18.464Z</time></trkpt><trkpt lat="44.019682" lon="8.0821875"><ele>324.0</ele><time>2026-05-03T17:34:19.467Z</time></trkpt><trkpt lat="44.0197168" lon="8.0823064"><ele>324.0</ele><time>2026-05-03T17:34:20.466Z</time></trkpt><trkpt lat="44.0197357" lon="8.0824091"><ele>324.0</ele><time>2026-05-03T17:34:21.465Z</time></trkpt><trkpt lat="44.0197574" lon="8.0824961"><ele>324.0</ele><time>2026-05-03T17:34:22.463Z</time></trkpt><trkpt lat="44.0197816" lon="8.082593"><ele>324.0</ele><time>2026-05-03T17:34:23.466Z</time></trkpt><trkpt lat="44.0198179" lon="8.0827349"><ele>324.0</ele><time>2026-05-03T17:34:25.474Z</time></trkpt><trkpt lat="44.0198753" lon="8.0828009"><ele>324.0</ele><time>2026-05-03T17:34:26.468Z</time></trkpt><trkpt lat="44.0199297" lon="8.0828721"><ele>322.4</ele><time>2026-05-03T17:34:27.467Z</time></trkpt><trkpt lat="44.0200116" lon="8.082972"><ele>320.79999999999995</ele><time>2026-05-03T17:34:29.469Z</time></trkpt><trkpt lat="44.0200715" lon="8.0830935"><ele>319.20000000000005</ele><time>2026-05-03T17:34:31.47Z</time></trkpt><trkpt lat="44.0200823" lon="8.0832624"><ele>317.6</ele><time>2026-05-03T17:34:33.464Z</time></trkpt><trkpt lat="44.0200656" lon="8.0833987"><ele>316.0</ele><time>2026-05-03T17:34:35.466Z</time></trkpt><trkpt lat="44.0200003" lon="8.083522"><ele>316.0</ele><time>2026-05-03T17:34:37.473Z</time></trkpt><trkpt lat="44.0199658" lon="8.0836007"><ele>316.0</ele><time>2026-05-03T17:34:38.464Z</time></trkpt><trkpt lat="44.019948" lon="8.0837747"><ele>316.0</ele><time>2026-05-03T17:34:40.472Z</time></trkpt><trkpt lat="44.0200141" lon="8.0838591"><ele>316.0</ele><time>2026-05-03T17:34:41.471Z</time></trkpt><trkpt lat="44.0200487" lon="8.0840125"><ele>316.0</ele><time>2026-05-03T17:34:43.463Z</time></trkpt><trkpt lat="44.0200815" lon="8.0841147"><ele>317.20000000000005</ele><time>2026-05-03T17:34:44.466Z</time></trkpt><trkpt lat="44.0201254" lon="8.0842266"><ele>318.40000000000003</ele><time>2026-05-03T17:34:45.463Z</time></trkpt><trkpt lat="44.0201529" lon="8.0843303"><ele>319.6</ele><time>2026-05-03T17:34:46.463Z</time></trkpt><trkpt lat="44.0202069" lon="8.0844665"><ele>320.8</ele><time>2026-05-03T17:34:48.466Z</time></trkpt><trkpt lat="44.0201425" lon="8.0845568"><ele>322.0</ele><time>2026-05-03T17:34:51.469Z</time></trkpt><trkpt lat="44.0200667" lon="8.0845662"><ele>321.20000000000005</ele><time>2026-05-03T17:34:53.465Z</time></trkpt><trkpt lat="44.019958" lon="8.0846294"><ele>320.40000000000003</ele><time>2026-05-03T17:34:55.469Z</time></trkpt><trkpt lat="44.0199417" lon="8.0847625"><ele>319.6</ele><time>2026-05-03T17:34:57.468Z</time></trkpt><trkpt lat="44.0199661" lon="8.0849103"><ele>318.8</ele><time>2026-05-03T17:34:59.47Z</time></trkpt><trkpt lat="44.0199714" lon="8.0849986"><ele>318.0</ele><time>2026-05-03T17:35:00.467Z</time></trkpt><trkpt lat="44.0200122" lon="8.0851734"><ele>326.8</ele><time>2026-05-03T17:35:02.467Z</time></trkpt><trkpt lat="44.0199508" lon="8.0852873"><ele>335.6</ele><time>2026-05-03T17:35:03.466Z</time></trkpt><trkpt lat="44.0199254" lon="8.0853896"><ele>344.40000000000003</ele><time>2026-05-03T17:35:04.467Z</time></trkpt><trkpt lat="44.0199361" lon="8.085514"><ele>353.20000000000005</ele><time>2026-05-03T17:35:06.465Z</time></trkpt><trkpt lat="44.0199597" lon="8.0856541"><ele>362.0</ele><time>2026-05-03T17:35:08.464Z</time></trkpt><trkpt lat="44.0199752" lon="8.0857828"><ele>354.0</ele><time>2026-05-03T17:35:10.461Z</time></trkpt><trkpt lat="44.0200094" lon="8.0858625"><ele>346.0</ele><time>2026-05-03T17:35:12.468Z</time></trkpt><trkpt lat="44.0200948" lon="8.0859271"><ele>338.0</ele><time>2026-05-03T17:35:14.465Z</time></trkpt><trkpt lat="44.0201629" lon="8.0859925"><ele>330.0</ele><time>2026-05-03T17:35:16.466Z</time></trkpt><trkpt lat="44.0202639" lon="8.0860817"><ele>322.0</ele><time>2026-05-03T17:35:18.467Z</time></trkpt><trkpt lat="44.0203608" lon="8.0860836"><ele>322.0</ele><time>2026-05-03T17:35:20.463Z</time></trkpt><trkpt lat="44.0204281" lon="8.0860754"><ele>322.0</ele><time>2026-05-03T17:35:21.47Z</time></trkpt><trkpt lat="44.0205046" lon="8.0860496"><ele>322.0</ele><time>2026-05-03T17:35:22.464Z</time></trkpt><trkpt lat="44.0206302" lon="8.0859887"><ele>322.0</ele><time>2026-05-03T17:35:24.469Z</time></trkpt><trkpt lat="44.0207368" lon="8.0860141"><ele>322.0</ele><time>2026-05-03T17:35:26.466Z</time></trkpt><trkpt lat="44.0207836" lon="8.0861135"><ele>322.0</ele><time>2026-05-03T17:35:28.467Z</time></trkpt><trkpt lat="44.020801" lon="8.0861982"><ele>322.0</ele><time>2026-05-03T17:35:29.469Z</time></trkpt><trkpt lat="44.0207865" lon="8.086342"><ele>322.0</ele><time>2026-05-03T17:35:30.467Z</time></trkpt><trkpt lat="44.0207705" lon="8.0864432"><ele>322.0</ele><time>2026-05-03T17:35:31.468Z</time></trkpt><trkpt lat="44.0207578" lon="8.0865651"><ele>322.0</ele><time>2026-05-03T17:35:32.465Z</time></trkpt><trkpt lat="44.020739" lon="8.0866729"><ele>322.0</ele><time>2026-05-03T17:35:33.468Z</time></trkpt><trkpt lat="44.0207184" lon="8.0867699"><ele>323.16666666666663</ele><time>2026-05-03T17:35:34.467Z</time></trkpt><trkpt lat="44.0206823" lon="8.0869335"><ele>324.3333333333333</ele><time>2026-05-03T17:35:36.466Z</time></trkpt><trkpt lat="44.0206695" lon="8.0870303"><ele>325.5</ele><time>2026-05-03T17:35:37.466Z</time></trkpt><trkpt lat="44.020653" lon="8.0871525"><ele>326.6666666666667</ele><time>2026-05-03T17:35:38.471Z</time></trkpt><trkpt lat="44.0206487" lon="8.0872609"><ele>327.83333333333337</ele><time>2026-05-03T17:35:39.466Z</time></trkpt><trkpt lat="44.0206422" lon="8.0873728"><ele>329.0</ele><time>2026-05-03T17:35:40.464Z</time></trkpt><trkpt lat="44.0206464" lon="8.087475"><ele>329.5</ele><time>2026-05-03T17:35:41.463Z</time></trkpt><trkpt lat="44.0207027" lon="8.0875582"><ele>330.0</ele><time>2026-05-03T17:35:42.468Z</time></trkpt><trkpt lat="44.0207658" lon="8.0877369"><ele>330.5</ele><time>2026-05-03T17:35:44.466Z</time></trkpt><trkpt lat="44.0208116" lon="8.0878198"><ele>331.0</ele><time>2026-05-03T17:35:45.464Z</time></trkpt><trkpt lat="44.0208436" lon="8.0879099"><ele>331.5</ele><time>2026-05-03T17:35:46.469Z</time></trkpt><trkpt lat="44.0208823" lon="8.0879797"><ele>332.0</ele><time>2026-05-03T17:35:47.469Z</time></trkpt><trkpt lat="44.0209611" lon="8.0880391"><ele>323.8</ele><time>2026-05-03T17:35:49.464Z</time></trkpt><trkpt lat="44.021053" lon="8.0880339"><ele>315.6</ele><time>2026-05-03T17:35:51.465Z</time></trkpt><trkpt lat="44.0211671" lon="8.0879964"><ele>307.40000000000003</ele><time>2026-05-03T17:35:53.466Z</time></trkpt><trkpt lat="44.0212788" lon="8.0879953"><ele>299.20000000000005</ele><time>2026-05-03T17:35:55.464Z</time></trkpt><trkpt lat="44.0213431" lon="8.0880798"><ele>291.0</ele><time>2026-05-03T17:35:57.469Z</time></trkpt><trkpt lat="44.0214239" lon="8.0881865"><ele>292.40000000000003</ele><time>2026-05-03T17:35:59.473Z</time></trkpt><trkpt lat="44.0214523" lon="8.0882992"><ele>293.8</ele><time>2026-05-03T17:36:01.467Z</time></trkpt><trkpt lat="44.0214749" lon="8.0883927"><ele>295.20000000000005</ele><time>2026-05-03T17:36:02.465Z</time></trkpt><trkpt lat="44.0215042" lon="8.0885018"><ele>296.6</ele><time>2026-05-03T17:36:03.464Z</time></trkpt><trkpt lat="44.0214994" lon="8.0886654"><ele>298.0</ele><time>2026-05-03T17:36:05.466Z</time></trkpt><trkpt lat="44.0215149" lon="8.088808"><ele>298.0</ele><time>2026-05-03T17:36:07.466Z</time></trkpt><trkpt lat="44.0216091" lon="8.0889136"><ele>298.0</ele><time>2026-05-03T17:36:09.469Z</time></trkpt><trkpt lat="44.0216804" lon="8.0889749"><ele>298.0</ele><time>2026-05-03T17:36:10.472Z</time></trkpt><trkpt lat="44.0217593" lon="8.0890091"><ele>298.0</ele><time>2026-05-03T17:36:11.468Z</time></trkpt><trkpt lat="44.0218508" lon="8.0890993"><ele>298.0</ele><time>2026-05-03T17:36:13.471Z</time></trkpt><trkpt lat="44.0218857" lon="8.0891838"><ele>296.5</ele><time>2026-05-03T17:36:14.466Z</time></trkpt><trkpt lat="44.0219366" lon="8.0892523"><ele>295.0</ele><time>2026-05-03T17:36:15.468Z</time></trkpt><trkpt lat="44.0219929" lon="8.0893316"><ele>293.5</ele><time>2026-05-03T17:36:16.467Z</time></trkpt><trkpt lat="44.022067" lon="8.0893741"><ele>292.0</ele><time>2026-05-03T17:36:17.467Z</time></trkpt><trkpt lat="44.022135" lon="8.0894451"><ele>290.5</ele><time>2026-05-03T17:36:18.465Z</time></trkpt><trkpt lat="44.0222112" lon="8.0895009"><ele>289.0</ele><time>2026-05-03T17:36:19.462Z</time></trkpt><trkpt lat="44.0222828" lon="8.0895725"><ele>289.0</ele><time>2026-05-03T17:36:20.463Z</time></trkpt><trkpt lat="44.0223424" lon="8.0897197"><ele>289.0</ele><time>2026-05-03T17:36:22.467Z</time></trkpt><trkpt lat="44.0223226" lon="8.0898339"><ele>289.0</ele><time>2026-05-03T17:36:24.464Z</time></trkpt><trkpt lat="44.0222771" lon="8.089902"><ele>289.0</ele><time>2026-05-03T17:36:25.469Z</time></trkpt><trkpt lat="44.0222325" lon="8.0899756"><ele>289.0</ele><time>2026-05-03T17:36:26.469Z</time></trkpt><trkpt lat="44.0221936" lon="8.0900522"><ele>289.0</ele><time>2026-05-03T17:36:27.467Z</time></trkpt><trkpt lat="44.0221629" lon="8.0902047"><ele>291.4</ele><time>2026-05-03T17:36:29.466Z</time></trkpt><trkpt lat="44.0221646" lon="8.090319"><ele>293.79999999999995</ele><time>2026-05-03T17:36:30.467Z</time></trkpt><trkpt lat="44.0221757" lon="8.09043"><ele>296.20000000000005</ele><time>2026-05-03T17:36:31.469Z</time></trkpt><trkpt lat="44.022172" lon="8.0905264"><ele>298.6</ele><time>2026-05-03T17:36:32.467Z</time></trkpt><trkpt lat="44.0221365" lon="8.0906801"><ele>301.0</ele><time>2026-05-03T17:36:34.467Z</time></trkpt><trkpt lat="44.0221496" lon="8.0908313"><ele>301.2</ele><time>2026-05-03T17:36:36.466Z</time></trkpt><trkpt lat="44.0222614" lon="8.090945"><ele>301.40000000000003</ele><time>2026-05-03T17:36:38.471Z</time></trkpt><trkpt lat="44.0223254" lon="8.090991"><ele>301.6</ele><time>2026-05-03T17:36:39.463Z</time></trkpt><trkpt lat="44.0224446" lon="8.0911089"><ele>301.8</ele><time>2026-05-03T17:36:41.465Z</time></trkpt><trkpt lat="44.0224994" lon="8.0911829"><ele>302.0</ele><time>2026-05-03T17:36:42.467Z</time></trkpt><trkpt lat="44.0225515" lon="8.0912357"><ele>297.8</ele><time>2026-05-03T17:36:43.467Z</time></trkpt><trkpt lat="44.0226673" lon="8.0913222"><ele>293.6</ele><time>2026-05-03T17:36:45.466Z</time></trkpt><trkpt lat="44.0227384" lon="8.0913832"><ele>289.40000000000003</ele><time>2026-05-03T17:36:46.467Z</time></trkpt><trkpt lat="44.0228172" lon="8.0914324"><ele>285.2</ele><time>2026-05-03T17:36:47.463Z</time></trkpt><trkpt lat="44.0228752" lon="8.0914858"><ele>281.0</ele><time>2026-05-03T17:36:48.467Z</time></trkpt><trkpt lat="44.0229418" lon="8.0916133"><ele>281.0</ele><time>2026-05-03T17:36:50.465Z</time></trkpt><trkpt lat="44.0229713" lon="8.0917822"><ele>281.0</ele><time>2026-05-03T17:36:52.47Z</time></trkpt><trkpt lat="44.0229793" lon="8.0918874"><ele>281.0</ele><time>2026-05-03T17:36:53.469Z</time></trkpt><trkpt lat="44.0229836" lon="8.0919822"><ele>281.0</ele><time>2026-05-03T17:36:54.465Z</time></trkpt><trkpt lat="44.0230077" lon="8.0920736"><ele>281.0</ele><time>2026-05-03T17:36:55.467Z</time></trkpt><trkpt lat="44.0230163" lon="8.0922136"><ele>281.0</ele><time>2026-05-03T17:36:57.464Z</time></trkpt><trkpt lat="44.0229349" lon="8.0922168"><ele>281.0</ele><time>2026-05-03T17:36:58.466Z</time></trkpt><trkpt lat="44.0228674" lon="8.0922864"><ele>281.0</ele><time>2026-05-03T17:37:00.464Z</time></trkpt><trkpt lat="44.0227646" lon="8.0923052"><ele>281.0</ele><time>2026-05-03T17:37:02.468Z</time></trkpt><trkpt lat="44.0226997" lon="8.0923224"><ele>281.0</ele><time>2026-05-03T17:37:03.469Z</time></trkpt><trkpt lat="44.0226336" lon="8.0923006"><ele>281.0</ele><time>2026-05-03T17:37:04.468Z</time></trkpt><trkpt lat="44.0225317" lon="8.0922775"><ele>281.0</ele><time>2026-05-03T17:37:06.463Z</time></trkpt><trkpt lat="44.0224146" lon="8.0922627"><ele>283.1666666666667</ele><time>2026-05-03T17:37:08.47Z</time></trkpt><trkpt lat="44.0223412" lon="8.0922584"><ele>285.33333333333337</ele><time>2026-05-03T17:37:09.466Z</time></trkpt><trkpt lat="44.0222311" lon="8.0922491"><ele>287.5</ele><time>2026-05-03T17:37:11.466Z</time></trkpt><trkpt lat="44.0221663" lon="8.092293"><ele>289.6666666666667</ele><time>2026-05-03T17:37:13.466Z</time></trkpt><trkpt lat="44.022098" lon="8.0923721"><ele>291.8333333333333</ele><time>2026-05-03T17:37:14.472Z</time></trkpt><trkpt lat="44.022053" lon="8.0924633"><ele>294.0</ele><time>2026-05-03T17:37:15.47Z</time></trkpt><trkpt lat="44.0220007" lon="8.0925393"><ele>289.5</ele><time>2026-05-03T17:37:16.468Z</time></trkpt><trkpt lat="44.0219142" lon="8.0926209"><ele>285.0</ele><time>2026-05-03T17:37:17.467Z</time></trkpt><trkpt lat="44.0218325" lon="8.0927109"><ele>280.5</ele><time>2026-05-03T17:37:19.463Z</time></trkpt><trkpt lat="44.0217626" lon="8.0927729"><ele>276.0</ele><time>2026-05-03T17:37:20.463Z</time></trkpt><trkpt lat="44.021687" lon="8.0927573"><ele>271.5</ele><time>2026-05-03T17:37:21.464Z</time></trkpt><trkpt lat="44.021622" lon="8.0927523"><ele>267.0</ele><time>2026-05-03T17:37:22.465Z</time></trkpt><trkpt lat="44.0215062" lon="8.0926497"><ele>269.1666666666667</ele><time>2026-05-03T17:37:24.468Z</time></trkpt><trkpt lat="44.0214562" lon="8.0925658"><ele>271.3333333333333</ele><time>2026-05-03T17:37:25.466Z</time></trkpt><trkpt lat="44.0213893" lon="8.0924898"><ele>273.5</ele><time>2026-05-03T17:37:26.466Z</time></trkpt><trkpt lat="44.0213612" lon="8.0924103"><ele>275.66666666666663</ele><time>2026-05-03T17:37:27.468Z</time></trkpt><trkpt lat="44.0213088" lon="8.0923342"><ele>277.8333333333333</ele><time>2026-05-03T17:37:28.474Z</time></trkpt><trkpt lat="44.0212323" lon="8.0922764"><ele>280.0</ele><time>2026-05-03T17:37:29.464Z</time></trkpt><trkpt lat="44.0211748" lon="8.0922346"><ele>280.0</ele><time>2026-05-03T17:37:30.467Z</time></trkpt><trkpt lat="44.021112" lon="8.0921005"><ele>280.0</ele><time>2026-05-03T17:37:32.465Z</time></trkpt><trkpt lat="44.0210178" lon="8.0920608"><ele>280.0</ele><time>2026-05-03T17:37:34.469Z</time></trkpt><trkpt lat="44.0209133" lon="8.0920711"><ele>280.0</ele><time>2026-05-03T17:37:36.468Z</time></trkpt><trkpt lat="44.0207793" lon="8.0920001"><ele>279.0</ele><time>2026-05-03T17:37:38.463Z</time></trkpt><trkpt lat="44.0207089" lon="8.0919589"><ele>278.0</ele><time>2026-05-03T17:37:39.468Z</time></trkpt><trkpt lat="44.0206383" lon="8.0919086"><ele>277.0</ele><time>2026-05-03T17:37:40.466Z</time></trkpt><trkpt lat="44.0205727" lon="8.0918902"><ele>276.0</ele><time>2026-05-03T17:37:41.466Z</time></trkpt><trkpt lat="44.0205044" lon="8.0918484"><ele>275.0</ele><time>2026-05-03T17:37:42.464Z</time></trkpt><trkpt lat="44.0204534" lon="8.0917941"><ele>274.0</ele><time>2026-05-03T17:37:43.464Z</time></trkpt><trkpt lat="44.0203645" lon="8.0917524"><ele>274.0</ele><time>2026-05-03T17:37:45.464Z</time></trkpt><trkpt lat="44.020253" lon="8.0917637"><ele>274.0</ele><time>2026-05-03T17:37:47.463Z</time></trkpt><trkpt lat="44.0201443" lon="8.0918039"><ele>274.0</ele><time>2026-05-03T17:37:49.467Z</time></trkpt><trkpt lat="44.0200729" lon="8.0917871"><ele>274.0</ele><time>2026-05-03T17:37:50.467Z</time></trkpt><trkpt lat="44.0199921" lon="8.0917354"><ele>274.0</ele><time>2026-05-03T17:37:52.466Z</time></trkpt><trkpt lat="44.019933" lon="8.0918104"><ele>280.2</ele><time>2026-05-03T17:37:55.468Z</time></trkpt><trkpt lat="44.0198661" lon="8.0919506"><ele>286.4</ele><time>2026-05-03T17:37:57.466Z</time></trkpt><trkpt lat="44.0198229" lon="8.0920363"><ele>292.6</ele><time>2026-05-03T17:37:58.466Z</time></trkpt><trkpt lat="44.019833" lon="8.0921731"><ele>298.8</ele><time>2026-05-03T17:37:59.47Z</time></trkpt><trkpt lat="44.0198663" lon="8.0922929"><ele>305.0</ele><time>2026-05-03T17:38:00.465Z</time></trkpt><trkpt lat="44.0198587" lon="8.092407"><ele>302.6</ele><time>2026-05-03T17:38:01.464Z</time></trkpt><trkpt lat="44.01983" lon="8.092548"><ele>300.2</ele><time>2026-05-03T17:38:02.466Z</time></trkpt><trkpt lat="44.0198263" lon="8.092664"><ele>297.8</ele><time>2026-05-03T17:38:03.464Z</time></trkpt><trkpt lat="44.0198258" lon="8.0928124"><ele>295.4</ele><time>2026-05-03T17:38:04.463Z</time></trkpt><trkpt lat="44.0198501" lon="8.0929288"><ele>293.0</ele><time>2026-05-03T17:38:05.464Z</time></trkpt><trkpt lat="44.0198336" lon="8.0930385"><ele>293.0</ele><time>2026-05-03T17:38:06.467Z</time></trkpt><trkpt lat="44.0197838" lon="8.0931771"><ele>293.0</ele><time>2026-05-03T17:38:08.463Z</time></trkpt><trkpt lat="44.0196672" lon="8.0932158"><ele>293.0</ele><time>2026-05-03T17:38:10.463Z</time></trkpt><trkpt lat="44.0195624" lon="8.093242"><ele>293.0</ele><time>2026-05-03T17:38:11.465Z</time></trkpt><trkpt lat="44.0194427" lon="8.0932956"><ele>290.2</ele><time>2026-05-03T17:38:13.465Z</time></trkpt><trkpt lat="44.0193534" lon="8.0933789"><ele>287.4</ele><time>2026-05-03T17:38:15.468Z</time></trkpt><trkpt lat="44.0192987" lon="8.0935087"><ele>284.59999999999997</ele><time>2026-05-03T17:38:17.469Z</time></trkpt><trkpt lat="44.0192608" lon="8.0936492"><ele>281.8</ele><time>2026-05-03T17:38:19.471Z</time></trkpt><trkpt lat="44.0192953" lon="8.0937393"><ele>279.0</ele><time>2026-05-03T17:38:20.467Z</time></trkpt><trkpt lat="44.0192689" lon="8.0938223"><ele>279.0</ele><time>2026-05-03T17:38:21.466Z</time></trkpt><trkpt lat="44.0192419" lon="8.0939867"><ele>279.0</ele><time>2026-05-03T17:38:23.469Z</time></trkpt><trkpt lat="44.0192029" lon="8.0940599"><ele>279.0</ele><time>2026-05-03T17:38:24.464Z</time></trkpt><trkpt lat="44.0191775" lon="8.0941595"><ele>279.0</ele><time>2026-05-03T17:38:25.466Z</time></trkpt><trkpt lat="44.0191408" lon="8.0942396"><ele>279.0</ele><time>2026-05-03T17:38:26.469Z</time></trkpt><trkpt lat="44.0191037" lon="8.0943299"><ele>279.0</ele><time>2026-05-03T17:38:27.465Z</time></trkpt><trkpt lat="44.019066" lon="8.0944104"><ele>281.6666666666667</ele><time>2026-05-03T17:38:28.466Z</time></trkpt><trkpt lat="44.0190135" lon="8.0945323"><ele>284.3333333333333</ele><time>2026-05-03T17:38:30.467Z</time></trkpt><trkpt lat="44.0189527" lon="8.0946339"><ele>287.0</ele><time>2026-05-03T17:38:32.465Z</time></trkpt><trkpt lat="44.0188888" lon="8.0946751"><ele>289.66666666666663</ele><time>2026-05-03T17:38:33.466Z</time></trkpt><trkpt lat="44.0188328" lon="8.0947322"><ele>292.3333333333333</ele><time>2026-05-03T17:38:34.467Z</time></trkpt><trkpt lat="44.0187774" lon="8.0948493"><ele>295.0</ele><time>2026-05-03T17:38:36.464Z</time></trkpt><trkpt lat="44.0187792" lon="8.0949941"><ele>295.0</ele><time>2026-05-03T17:38:38.469Z</time></trkpt><trkpt lat="44.0188877" lon="8.0950792"><ele>295.0</ele><time>2026-05-03T17:38:40.464Z</time></trkpt><trkpt lat="44.0189115" lon="8.0951799"><ele>295.0</ele><time>2026-05-03T17:38:42.465Z</time></trkpt><trkpt lat="44.0189213" lon="8.0953259"><ele>295.0</ele><time>2026-05-03T17:38:44.465Z</time></trkpt><trkpt lat="44.0189808" lon="8.0955097"><ele>295.0</ele><time>2026-05-03T17:38:46.465Z</time></trkpt><trkpt lat="44.0190261" lon="8.0955873"><ele>295.0</ele><time>2026-05-03T17:38:47.467Z</time></trkpt><trkpt lat="44.0191012" lon="8.095641"><ele>295.0</ele><time>2026-05-03T17:38:48.464Z</time></trkpt><trkpt lat="44.019151" lon="8.0957081"><ele>295.0</ele><time>2026-05-03T17:38:49.466Z</time></trkpt><trkpt lat="44.0192245" lon="8.0958409"><ele>295.0</ele><time>2026-05-03T17:38:51.466Z</time></trkpt><trkpt lat="44.019256" lon="8.0959435"><ele>295.0</ele><time>2026-05-03T17:38:52.466Z</time></trkpt><trkpt lat="44.0192926" lon="8.0960383"><ele>291.8333333333333</ele><time>2026-05-03T17:38:53.464Z</time></trkpt><trkpt lat="44.0193168" lon="8.0961204"><ele>288.66666666666663</ele><time>2026-05-03T17:38:54.463Z</time></trkpt><trkpt lat="44.0193593" lon="8.0962201"><ele>285.5</ele><time>2026-05-03T17:38:55.464Z</time></trkpt><trkpt lat="44.019422" lon="8.0962967"><ele>282.3333333333333</ele><time>2026-05-03T17:38:56.464Z</time></trkpt><trkpt lat="44.0195143" lon="8.0964222"><ele>279.1666666666667</ele><time>2026-05-03T17:38:58.467Z</time></trkpt><trkpt lat="44.0195545" lon="8.0965021"><ele>276.0</ele><time>2026-05-03T17:38:59.465Z</time></trkpt><trkpt lat="44.0195658" lon="8.0965903"><ele>276.0</ele><time>2026-05-03T17:39:00.466Z</time></trkpt><trkpt lat="44.0195798" lon="8.096698"><ele>276.0</ele><time>2026-05-03T17:39:01.468Z</time></trkpt><trkpt lat="44.0195748" lon="8.0967988"><ele>276.0</ele><time>2026-05-03T17:39:02.47Z</time></trkpt><trkpt lat="44.0195455" lon="8.0968939"><ele>276.0</ele><time>2026-05-03T17:39:03.474Z</time></trkpt><trkpt lat="44.0195278" lon="8.0969827"><ele>276.0</ele><time>2026-05-03T17:39:04.468Z</time></trkpt><trkpt lat="44.0194586" lon="8.0971101"><ele>276.0</ele><time>2026-05-03T17:39:06.465Z</time></trkpt><trkpt lat="44.0194007" lon="8.0971598"><ele>276.0</ele><time>2026-05-03T17:39:07.467Z</time></trkpt><trkpt lat="44.0193208" lon="8.0972752"><ele>276.0</ele><time>2026-05-03T17:39:09.467Z</time></trkpt><trkpt lat="44.0192661" lon="8.0974137"><ele>276.0</ele><time>2026-05-03T17:39:11.465Z</time></trkpt><trkpt lat="44.0192482" lon="8.0975302"><ele>276.0</ele><time>2026-05-03T17:39:12.47Z</time></trkpt><trkpt lat="44.0192162" lon="8.0976175"><ele>276.0</ele><time>2026-05-03T17:39:13.465Z</time></trkpt><trkpt lat="44.0192168" lon="8.0977888"><ele>274.8333333333333</ele><time>2026-05-03T17:39:15.466Z</time></trkpt><trkpt lat="44.0192574" lon="8.097935"><ele>273.6666666666667</ele><time>2026-05-03T17:39:17.464Z</time></trkpt><trkpt lat="44.0193263" lon="8.0980067"><ele>272.5</ele><time>2026-05-03T17:39:19.467Z</time></trkpt><trkpt lat="44.0194012" lon="8.0980651"><ele>271.33333333333337</ele><time>2026-05-03T17:39:20.467Z</time></trkpt><trkpt lat="44.0194676" lon="8.098126"><ele>270.1666666666667</ele><time>2026-05-03T17:39:21.467Z</time></trkpt><trkpt lat="44.0195312" lon="8.0981752"><ele>269.0</ele><time>2026-05-03T17:39:22.465Z</time></trkpt><trkpt lat="44.0196657" lon="8.0982514"><ele>269.8</ele><time>2026-05-03T17:39:24.467Z</time></trkpt><trkpt lat="44.0197427" lon="8.0982944"><ele>270.59999999999997</ele><time>2026-05-03T17:39:25.464Z</time></trkpt><trkpt lat="44.0197984" lon="8.0983493"><ele>271.4</ele><time>2026-05-03T17:39:26.465Z</time></trkpt><trkpt lat="44.0198757" lon="8.0984169"><ele>272.2</ele><time>2026-05-03T17:39:27.467Z</time></trkpt><trkpt lat="44.019976" lon="8.0985542"><ele>273.0</ele><time>2026-05-03T17:39:29.465Z</time></trkpt><trkpt lat="44.0200423" lon="8.0985812"><ele>268.6666666666667</ele><time>2026-05-03T17:39:30.465Z</time></trkpt><trkpt lat="44.020112" lon="8.0986009"><ele>264.3333333333333</ele><time>2026-05-03T17:39:31.464Z</time></trkpt><trkpt lat="44.020201" lon="8.098582"><ele>260.0</ele><time>2026-05-03T17:39:32.464Z</time></trkpt><trkpt lat="44.0202983" lon="8.098552"><ele>255.66666666666666</ele><time>2026-05-03T17:39:33.469Z</time></trkpt><trkpt lat="44.0203889" lon="8.0985062"><ele>251.33333333333331</ele><time>2026-05-03T17:39:34.465Z</time></trkpt><trkpt lat="44.0204655" lon="8.0984748"><ele>247.0</ele><time>2026-05-03T17:39:35.465Z</time></trkpt><trkpt lat="44.0205372" lon="8.0984811"><ele>246.99999999999997</ele><time>2026-05-03T17:39:36.465Z</time></trkpt><trkpt lat="44.0206015" lon="8.0984969"><ele>247.0</ele><time>2026-05-03T17:39:37.466Z</time></trkpt><trkpt lat="44.0206586" lon="8.0985459"><ele>247.0</ele><time>2026-05-03T17:39:38.466Z</time></trkpt><trkpt lat="44.0207666" lon="8.0986754"><ele>247.0</ele><time>2026-05-03T17:39:40.465Z</time></trkpt><trkpt lat="44.0208581" lon="8.0987427"><ele>246.99999999999997</ele><time>2026-05-03T17:39:42.465Z</time></trkpt><trkpt lat="44.020923" lon="8.0987751"><ele>247.0</ele><time>2026-05-03T17:39:43.464Z</time></trkpt><trkpt lat="44.0210126" lon="8.0987387"><ele>244.16666666666666</ele><time>2026-05-03T17:39:44.465Z</time></trkpt><trkpt lat="44.0211086" lon="8.0987306"><ele>241.33333333333331</ele><time>2026-05-03T17:39:45.467Z</time></trkpt><trkpt lat="44.0211847" lon="8.0987151"><ele>238.5</ele><time>2026-05-03T17:39:46.469Z</time></trkpt><trkpt lat="44.0212725" lon="8.0986823"><ele>235.66666666666669</ele><time>2026-05-03T17:39:47.467Z</time></trkpt><trkpt lat="44.0213382" lon="8.0986452"><ele>232.83333333333334</ele><time>2026-05-03T17:39:48.463Z</time></trkpt><trkpt lat="44.0214083" lon="8.0986087"><ele>230.0</ele><time>2026-05-03T17:39:49.464Z</time></trkpt><trkpt lat="44.0214805" lon="8.0986175"><ele>230.00000000000003</ele><time>2026-05-03T17:39:50.466Z</time></trkpt><trkpt lat="44.0215521" lon="8.0986599"><ele>230.0</ele><time>2026-05-03T17:39:51.467Z</time></trkpt><trkpt lat="44.0216367" lon="8.0987005"><ele>230.0</ele><time>2026-05-03T17:39:52.47Z</time></trkpt><trkpt lat="44.0217032" lon="8.0987479"><ele>230.0</ele><time>2026-05-03T17:39:53.465Z</time></trkpt><trkpt lat="44.0217712" lon="8.0987925"><ele>230.00000000000003</ele><time>2026-05-03T17:39:54.465Z</time></trkpt><trkpt lat="44.0218331" lon="8.0988324"><ele>230.0</ele><time>2026-05-03T17:39:55.465Z</time></trkpt><trkpt lat="44.0218994" lon="8.0988567"><ele>228.8</ele><time>2026-05-03T17:39:56.469Z</time></trkpt><trkpt lat="44.0220569" lon="8.0987998"><ele>227.6</ele><time>2026-05-03T17:39:58.47Z</time></trkpt><trkpt lat="44.0221384" lon="8.0987442"><ele>226.39999999999998</ele><time>2026-05-03T17:39:59.466Z</time></trkpt><trkpt lat="44.022219" lon="8.0986867"><ele>225.2</ele><time>2026-05-03T17:40:00.465Z</time></trkpt><trkpt lat="44.0223078" lon="8.0986306"><ele>224.0</ele><time>2026-05-03T17:40:01.468Z</time></trkpt><trkpt lat="44.0223992" lon="8.0985782"><ele>223.39999999999998</ele><time>2026-05-03T17:40:02.468Z</time></trkpt><trkpt lat="44.0224842" lon="8.0985465"><ele>222.79999999999998</ele><time>2026-05-03T17:40:03.464Z</time></trkpt><trkpt lat="44.0225605" lon="8.0985014"><ele>222.20000000000002</ele><time>2026-05-03T17:40:04.466Z</time></trkpt><trkpt lat="44.0226189" lon="8.0984515"><ele>221.60000000000002</ele><time>2026-05-03T17:40:05.467Z</time></trkpt><trkpt lat="44.0227267" lon="8.0983808"><ele>221.0</ele><time>2026-05-03T17:40:07.464Z</time></trkpt><trkpt lat="44.0228194" lon="8.0984339"><ele>221.00000000000003</ele><time>2026-05-03T17:40:09.467Z</time></trkpt><trkpt lat="44.0228858" lon="8.0985423"><ele>221.0</ele><time>2026-05-03T17:40:11.463Z</time></trkpt><trkpt lat="44.0229402" lon="8.0986656"><ele>221.0</ele><time>2026-05-03T17:40:13.467Z</time></trkpt><trkpt lat="44.0229687" lon="8.0987444"><ele>221.0</ele><time>2026-05-03T17:40:14.466Z</time></trkpt><trkpt lat="44.0230372" lon="8.0988156"><ele>221.00000000000003</ele><time>2026-05-03T17:40:15.464Z</time></trkpt><trkpt lat="44.0230904" lon="8.0989208"><ele>221.0</ele><time>2026-05-03T17:40:16.468Z</time></trkpt><trkpt lat="44.0231357" lon="8.0990092"><ele>222.8</ele><time>2026-05-03T17:40:17.463Z</time></trkpt><trkpt lat="44.0232053" lon="8.0990972"><ele>224.60000000000002</ele><time>2026-05-03T17:40:18.472Z</time></trkpt><trkpt lat="44.0232835" lon="8.0991604"><ele>226.4</ele><time>2026-05-03T17:40:19.466Z</time></trkpt><trkpt lat="44.0233614" lon="8.0991931"><ele>228.2</ele><time>2026-05-03T17:40:20.463Z</time></trkpt><trkpt lat="44.0234563" lon="8.0992257"><ele>230.0</ele><time>2026-05-03T17:40:22.469Z</time></trkpt><trkpt lat="44.0235456" lon="8.0991746"><ele>230.0</ele><time>2026-05-03T17:40:23.467Z</time></trkpt><trkpt lat="44.0236335" lon="8.0991253"><ele>230.0</ele><time>2026-05-03T17:40:24.464Z</time></trkpt><trkpt lat="44.0237086" lon="8.0990668"><ele>230.0</ele><time>2026-05-03T17:40:25.465Z</time></trkpt><trkpt lat="44.0237875" lon="8.0990305"><ele>230.0</ele><time>2026-05-03T17:40:26.466Z</time></trkpt><trkpt lat="44.0238628" lon="8.0989832"><ele>230.0</ele><time>2026-05-03T17:40:27.464Z</time></trkpt><trkpt lat="44.0239815" lon="8.0989998"><ele>230.00000000000003</ele><time>2026-05-03T17:40:29.464Z</time></trkpt><trkpt lat="44.0240492" lon="8.0990543"><ele>230.0</ele><time>2026-05-03T17:40:30.465Z</time></trkpt><trkpt lat="44.0241334" lon="8.0991733"><ele>230.0</ele><time>2026-05-03T17:40:32.464Z</time></trkpt><trkpt lat="44.0241794" lon="8.0992643"><ele>230.0</ele><time>2026-05-03T17:40:33.464Z</time></trkpt><trkpt lat="44.0242418" lon="8.0993475"><ele>230.00000000000003</ele><time>2026-05-03T17:40:34.466Z</time></trkpt><trkpt lat="44.0243041" lon="8.0994069"><ele>230.0</ele><time>2026-05-03T17:40:35.466Z</time></trkpt><trkpt lat="44.0243881" lon="8.0995076"><ele>231.1428571428571</ele><time>2026-05-03T17:40:37.466Z</time></trkpt><trkpt lat="44.0244174" lon="8.0995929"><ele>232.28571428571428</ele><time>2026-05-03T17:40:39.465Z</time></trkpt><trkpt lat="44.0243896" lon="8.0996968"><ele>233.42857142857142</ele><time>2026-05-03T17:40:42.465Z</time></trkpt><trkpt lat="44.0243306" lon="8.0997559"><ele>234.57142857142856</ele><time>2026-05-03T17:40:43.475Z</time></trkpt><trkpt lat="44.0242713" lon="8.0998202"><ele>235.71428571428572</ele><time>2026-05-03T17:40:44.465Z</time></trkpt><trkpt lat="44.0242184" lon="8.0998927"><ele>236.85714285714286</ele><time>2026-05-03T17:40:45.468Z</time></trkpt><trkpt lat="44.0241733" lon="8.0999677"><ele>238.0</ele><time>2026-05-03T17:40:46.468Z</time></trkpt><trkpt lat="44.0241114" lon="8.099997"><ele>237.99999999999997</ele><time>2026-05-03T17:40:47.47Z</time></trkpt><trkpt lat="44.0240489" lon="8.1000313"><ele>238.0</ele><time>2026-05-03T17:40:48.464Z</time></trkpt><trkpt lat="44.0239675" lon="8.1000847"><ele>238.0</ele><time>2026-05-03T17:40:49.466Z</time></trkpt><trkpt lat="44.0238985" lon="8.1001454"><ele>238.0</ele><time>2026-05-03T17:40:50.465Z</time></trkpt><trkpt lat="44.0238255" lon="8.1002095"><ele>237.99999999999997</ele><time>2026-05-03T17:40:51.467Z</time></trkpt><trkpt lat="44.0237453" lon="8.1002776"><ele>238.0</ele><time>2026-05-03T17:40:52.467Z</time></trkpt><trkpt lat="44.0236826" lon="8.1002938"><ele>237.99999999999997</ele><time>2026-05-03T17:40:53.466Z</time></trkpt><trkpt lat="44.0236212" lon="8.1003394"><ele>238.0</ele><time>2026-05-03T17:40:54.47Z</time></trkpt><trkpt lat="44.0235585" lon="8.1004216"><ele>238.0</ele><time>2026-05-03T17:40:55.464Z</time></trkpt><trkpt lat="44.0234978" lon="8.1005099"><ele>238.0</ele><time>2026-05-03T17:40:56.468Z</time></trkpt><trkpt lat="44.0234508" lon="8.1006009"><ele>237.99999999999997</ele><time>2026-05-03T17:40:57.467Z</time></trkpt><trkpt lat="44.0233908" lon="8.1006441"><ele>238.0</ele><time>2026-05-03T17:40:58.471Z</time></trkpt><trkpt lat="44.0232891" lon="8.1007968"><ele>236.49999999999997</ele><time>2026-05-03T17:41:00.466Z</time></trkpt><trkpt lat="44.0232443" lon="8.1008732"><ele>235.0</ele><time>2026-05-03T17:41:01.467Z</time></trkpt><trkpt lat="44.0232646" lon="8.1009898"><ele>233.5</ele><time>2026-05-03T17:41:02.467Z</time></trkpt><trkpt lat="44.0232807" lon="8.1011014"><ele>232.0</ele><time>2026-05-03T17:41:03.464Z</time></trkpt><trkpt lat="44.0233184" lon="8.1012022"><ele>230.49999999999997</ele><time>2026-05-03T17:41:04.469Z</time></trkpt><trkpt lat="44.0233305" lon="8.1012885"><ele>229.0</ele><time>2026-05-03T17:41:05.469Z</time></trkpt><trkpt lat="44.0234023" lon="8.1013381"><ele>228.99999999999997</ele><time>2026-05-03T17:41:06.465Z</time></trkpt><trkpt lat="44.0234522" lon="8.1014277"><ele>229.0</ele><time>2026-05-03T17:41:07.463Z</time></trkpt><trkpt lat="44.0234913" lon="8.101513"><ele>229.0</ele><time>2026-05-03T17:41:08.465Z</time></trkpt><trkpt lat="44.0235206" lon="8.1015966"><ele>229.0</ele><time>2026-05-03T17:41:09.465Z</time></trkpt><trkpt lat="44.0234592" lon="8.1017388"><ele>228.99999999999997</ele><time>2026-05-03T17:41:11.474Z</time></trkpt><trkpt lat="44.0234098" lon="8.1018001"><ele>229.0</ele><time>2026-05-03T17:41:12.465Z</time></trkpt><trkpt lat="44.0233298" lon="8.1018895"><ele>228.79999999999998</ele><time>2026-05-03T17:41:13.466Z</time></trkpt><trkpt lat="44.023258" lon="8.101983"><ele>228.59999999999997</ele><time>2026-05-03T17:41:14.469Z</time></trkpt><trkpt lat="44.0231963" lon="8.1020784"><ele>228.4</ele><time>2026-05-03T17:41:15.468Z</time></trkpt><trkpt lat="44.0231336" lon="8.1021653"><ele>228.2</ele><time>2026-05-03T17:41:16.465Z</time></trkpt><trkpt lat="44.0230842" lon="8.1022282"><ele>228.0</ele><time>2026-05-03T17:41:17.464Z</time></trkpt><trkpt lat="44.0229797" lon="8.102306"><ele>225.0</ele><time>2026-05-03T17:41:19.468Z</time></trkpt><trkpt lat="44.02292" lon="8.1024546"><ele>222.0</ele><time>2026-05-03T17:41:21.469Z</time></trkpt><trkpt lat="44.0228924" lon="8.1025802"><ele>219.0</ele><time>2026-05-03T17:41:23.467Z</time></trkpt><trkpt lat="44.0228519" lon="8.1026517"><ele>216.0</ele><time>2026-05-03T17:41:24.469Z</time></trkpt><trkpt lat="44.0227959" lon="8.1027115"><ele>213.0</ele><time>2026-05-03T17:41:25.463Z</time></trkpt><trkpt lat="44.022749" lon="8.1027766"><ele>210.0</ele><time>2026-05-03T17:41:26.465Z</time></trkpt><trkpt lat="44.0226854" lon="8.1027597"><ele>210.0</ele><time>2026-05-03T17:41:27.477Z</time></trkpt><trkpt lat="44.0225657" lon="8.1027357"><ele>210.0</ele><time>2026-05-03T17:41:29.466Z</time></trkpt><trkpt lat="44.0225131" lon="8.102648"><ele>210.0</ele><time>2026-05-03T17:41:30.467Z</time></trkpt><trkpt lat="44.0224718" lon="8.1025728"><ele>210.0</ele><time>2026-05-03T17:41:31.466Z</time></trkpt><trkpt lat="44.0224016" lon="8.1024957"><ele>210.0</ele><time>2026-05-03T17:41:32.468Z</time></trkpt><trkpt lat="44.0223583" lon="8.1024209"><ele>210.0</ele><time>2026-05-03T17:41:33.469Z</time></trkpt><trkpt lat="44.0222975" lon="8.1023758"><ele>211.5</ele><time>2026-05-03T17:41:34.468Z</time></trkpt><trkpt lat="44.0222502" lon="8.1023104"><ele>213.0</ele><time>2026-05-03T17:41:35.469Z</time></trkpt><trkpt lat="44.0221969" lon="8.102256"><ele>214.5</ele><time>2026-05-03T17:41:36.463Z</time></trkpt><trkpt lat="44.0221326" lon="8.1022229"><ele>216.0</ele><time>2026-05-03T17:41:37.466Z</time></trkpt><trkpt lat="44.0220607" lon="8.102198"><ele>217.5</ele><time>2026-05-03T17:41:38.464Z</time></trkpt><trkpt lat="44.0219382" lon="8.1021818"><ele>219.0</ele><time>2026-05-03T17:41:40.467Z</time></trkpt><trkpt lat="44.0218706" lon="8.1021849"><ele>219.0</ele><time>2026-05-03T17:41:41.467Z</time></trkpt><trkpt lat="44.0217998" lon="8.1021881"><ele>218.99999999999997</ele><time>2026-05-03T17:41:42.467Z</time></trkpt><trkpt lat="44.0216897" lon="8.1022583"><ele>218.99999999999997</ele><time>2026-05-03T17:41:44.463Z</time></trkpt><trkpt lat="44.0215849" lon="8.1022916"><ele>219.0</ele><time>2026-05-03T17:41:46.464Z</time></trkpt><trkpt lat="44.0215238" lon="8.102313"><ele>219.0</ele><time>2026-05-03T17:41:47.465Z</time></trkpt><trkpt lat="44.0214219" lon="8.1023287"><ele>217.0</ele><time>2026-05-03T17:41:49.464Z</time></trkpt><trkpt lat="44.021343" lon="8.1024267"><ele>214.99999999999997</ele><time>2026-05-03T17:41:51.467Z</time></trkpt><trkpt lat="44.0212877" lon="8.1025813"><ele>213.0</ele><time>2026-05-03T17:41:53.469Z</time></trkpt><trkpt lat="44.021307" lon="8.1027068"><ele>211.0</ele><time>2026-05-03T17:41:54.472Z</time></trkpt><trkpt lat="44.0212887" lon="8.1027978"><ele>209.0</ele><time>2026-05-03T17:41:55.471Z</time></trkpt><trkpt lat="44.0212863" lon="8.1028965"><ele>209.0</ele><time>2026-05-03T17:41:56.467Z</time></trkpt><trkpt lat="44.0212184" lon="8.1029831"><ele>209.0</ele><time>2026-05-03T17:41:58.464Z</time></trkpt><trkpt lat="44.0211304" lon="8.1030249"><ele>209.0</ele><time>2026-05-03T17:42:00.469Z</time></trkpt><trkpt lat="44.0210221" lon="8.1030001"><ele>209.0</ele><time>2026-05-03T17:42:02.471Z</time></trkpt><trkpt lat="44.0209575" lon="8.1029952"><ele>209.0</ele><time>2026-05-03T17:42:03.468Z</time></trkpt><trkpt lat="44.0208565" lon="8.1029679"><ele>212.16666666666669</ele><time>2026-05-03T17:42:05.465Z</time></trkpt><trkpt lat="44.0207607" lon="8.1030098"><ele>215.33333333333334</ele><time>2026-05-03T17:42:07.466Z</time></trkpt><trkpt lat="44.0207116" lon="8.1030796"><ele>218.5</ele><time>2026-05-03T17:42:08.466Z</time></trkpt><trkpt lat="44.0206031" lon="8.1031436"><ele>221.66666666666669</ele><time>2026-05-03T17:42:10.466Z</time></trkpt><trkpt lat="44.0205385" lon="8.1031598"><ele>224.83333333333334</ele><time>2026-05-03T17:42:11.466Z</time></trkpt><trkpt lat="44.0204682" lon="8.1031986"><ele>228.0</ele><time>2026-05-03T17:42:12.467Z</time></trkpt><trkpt lat="44.0204075" lon="8.1032422"><ele>225.0</ele><time>2026-05-03T17:42:13.467Z</time></trkpt><trkpt lat="44.0203502" lon="8.1032945"><ele>221.99999999999997</ele><time>2026-05-03T17:42:14.463Z</time></trkpt><trkpt lat="44.0202804" lon="8.1033521"><ele>219.0</ele><time>2026-05-03T17:42:15.463Z</time></trkpt><trkpt lat="44.0202214" lon="8.1034004"><ele>216.0</ele><time>2026-05-03T17:42:16.464Z</time></trkpt><trkpt lat="44.0201701" lon="8.1034664"><ele>213.0</ele><time>2026-05-03T17:42:17.466Z</time></trkpt><trkpt lat="44.0201181" lon="8.1035317"><ele>210.0</ele><time>2026-05-03T17:42:18.466Z</time></trkpt><trkpt lat="44.0200681" lon="8.1036171"><ele>207.0</ele><time>2026-05-03T17:42:20.465Z</time></trkpt><trkpt lat="44.0201002" lon="8.1037434"><ele>207.0</ele><time>2026-05-03T17:42:22.47Z</time></trkpt><trkpt lat="44.0201774" lon="8.1038578"><ele>207.0</ele><time>2026-05-03T17:42:24.465Z</time></trkpt><trkpt lat="44.0202633" lon="8.1038455"><ele>207.0</ele><time>2026-05-03T17:42:25.476Z</time></trkpt><trkpt lat="44.0203779" lon="8.1039063"><ele>207.0</ele><time>2026-05-03T17:42:27.465Z</time></trkpt><trkpt lat="44.0204316" lon="8.1039676"><ele>207.0</ele><time>2026-05-03T17:42:28.465Z</time></trkpt><trkpt lat="44.0205287" lon="8.1041013"><ele>206.8</ele><time>2026-05-03T17:42:30.465Z</time></trkpt><trkpt lat="44.0206244" lon="8.1042384"><ele>206.6</ele><time>2026-05-03T17:42:32.466Z</time></trkpt><trkpt lat="44.0206891" lon="8.104301"><ele>206.4</ele><time>2026-05-03T17:42:33.472Z</time></trkpt><trkpt lat="44.0207518" lon="8.1043714"><ele>206.20000000000002</ele><time>2026-05-03T17:42:34.467Z</time></trkpt><trkpt lat="44.0208543" lon="8.1044829"><ele>206.0</ele><time>2026-05-03T17:42:36.463Z</time></trkpt><trkpt lat="44.0209097" lon="8.1045283"><ele>203.20000000000002</ele><time>2026-05-03T17:42:37.466Z</time></trkpt><trkpt lat="44.0209794" lon="8.1045719"><ele>200.4</ele><time>2026-05-03T17:42:38.464Z</time></trkpt><trkpt lat="44.0210334" lon="8.1046192"><ele>197.6</ele><time>2026-05-03T17:42:39.467Z</time></trkpt><trkpt lat="44.0211202" lon="8.1047535"><ele>194.8</ele><time>2026-05-03T17:42:41.466Z</time></trkpt><trkpt lat="44.0211935" lon="8.1049064"><ele>192.0</ele><time>2026-05-03T17:42:43.466Z</time></trkpt><trkpt lat="44.0212362" lon="8.1049802"><ele>192.0</ele><time>2026-05-03T17:42:44.465Z</time></trkpt><trkpt lat="44.0212948" lon="8.1050429"><ele>192.0</ele><time>2026-05-03T17:42:45.466Z</time></trkpt><trkpt lat="44.0213399" lon="8.105115"><ele>192.0</ele><time>2026-05-03T17:42:46.464Z</time></trkpt><trkpt lat="44.0213476" lon="8.1052658"><ele>192.0</ele><time>2026-05-03T17:42:48.467Z</time></trkpt><trkpt lat="44.0213364" lon="8.1053532"><ele>192.0</ele><time>2026-05-03T17:42:49.469Z</time></trkpt><trkpt lat="44.0213194" lon="8.1054488"><ele>192.0</ele><time>2026-05-03T17:42:50.466Z</time></trkpt><trkpt lat="44.0213006" lon="8.1055451"><ele>192.0</ele><time>2026-05-03T17:42:51.466Z</time></trkpt><trkpt lat="44.0212476" lon="8.1056893"><ele>192.0</ele><time>2026-05-03T17:42:53.468Z</time></trkpt><trkpt lat="44.0212092" lon="8.1058369"><ele>192.0</ele><time>2026-05-03T17:42:55.467Z</time></trkpt><trkpt lat="44.0211956" lon="8.1060174"><ele>192.0</ele><time>2026-05-03T17:42:57.467Z</time></trkpt><trkpt lat="44.0212553" lon="8.10609"><ele>192.0</ele><time>2026-05-03T17:42:59.465Z</time></trkpt><trkpt lat="44.0213277" lon="8.1060656"><ele>192.6</ele><time>2026-05-03T17:43:00.466Z</time></trkpt><trkpt lat="44.0213989" lon="8.105989"><ele>193.2</ele><time>2026-05-03T17:43:02.465Z</time></trkpt><trkpt lat="44.0214933" lon="8.1059574"><ele>193.8</ele><time>2026-05-03T17:43:04.466Z</time></trkpt><trkpt lat="44.0215814" lon="8.1059474"><ele>194.4</ele><time>2026-05-03T17:43:06.466Z</time></trkpt><trkpt lat="44.0216667" lon="8.1058749"><ele>195.0</ele><time>2026-05-03T17:43:08.472Z</time></trkpt><trkpt lat="44.0217083" lon="8.1057811"><ele>188.5</ele><time>2026-05-03T17:43:09.468Z</time></trkpt><trkpt lat="44.0217551" lon="8.1057119"><ele>182.0</ele><time>2026-05-03T17:43:10.463Z</time></trkpt><trkpt lat="44.0218552" lon="8.1056442"><ele>175.5</ele><time>2026-05-03T17:43:12.463Z</time></trkpt><trkpt lat="44.0219674" lon="8.1056224"><ele>169.0</ele><time>2026-05-03T17:43:14.466Z</time></trkpt><trkpt lat="44.0220371" lon="8.105625"><ele>162.5</ele><time>2026-05-03T17:43:15.469Z</time></trkpt><trkpt lat="44.0221004" lon="8.1055879"><ele>156.0</ele><time>2026-05-03T17:43:16.467Z</time></trkpt><trkpt lat="44.0221625" lon="8.1055413"><ele>156.0</ele><time>2026-05-03T17:43:17.467Z</time></trkpt><trkpt lat="44.0222809" lon="8.1054632"><ele>156.0</ele><time>2026-05-03T17:43:19.468Z</time></trkpt><trkpt lat="44.0223411" lon="8.1055001"><ele>156.0</ele><time>2026-05-03T17:43:20.465Z</time></trkpt><trkpt lat="44.0224387" lon="8.1055648"><ele>156.0</ele><time>2026-05-03T17:43:22.465Z</time></trkpt><trkpt lat="44.0225264" lon="8.1056994"><ele>156.0</ele><time>2026-05-03T17:43:24.465Z</time></trkpt><trkpt lat="44.0225796" lon="8.1057582"><ele>156.4</ele><time>2026-05-03T17:43:25.467Z</time></trkpt><trkpt lat="44.0227051" lon="8.1058253"><ele>156.8</ele><time>2026-05-03T17:43:27.468Z</time></trkpt><trkpt lat="44.0227689" lon="8.1058514"><ele>157.20000000000002</ele><time>2026-05-03T17:43:28.465Z</time></trkpt><trkpt lat="44.0228763" lon="8.1058264"><ele>157.6</ele><time>2026-05-03T17:43:30.464Z</time></trkpt><trkpt lat="44.0229419" lon="8.105825"><ele>158.0</ele><time>2026-05-03T17:43:31.463Z</time></trkpt><trkpt lat="44.0230302" lon="8.1058379"><ele>158.0</ele><time>2026-05-03T17:43:32.475Z</time></trkpt><trkpt lat="44.0231219" lon="8.1058542"><ele>158.0</ele><time>2026-05-03T17:43:33.464Z</time></trkpt><trkpt lat="44.0232013" lon="8.1058811"><ele>158.0</ele><time>2026-05-03T17:43:34.469Z</time></trkpt><trkpt lat="44.0232751" lon="8.105898"><ele>158.0</ele><time>2026-05-03T17:43:35.464Z</time></trkpt><trkpt lat="44.0233597" lon="8.1058733"><ele>158.0</ele><time>2026-05-03T17:43:36.467Z</time></trkpt><trkpt lat="44.0234344" lon="8.1058542"><ele>158.0</ele><time>2026-05-03T17:43:37.47Z</time></trkpt><trkpt lat="44.0235068" lon="8.1058766"><ele>156.33333333333331</ele><time>2026-05-03T17:43:38.467Z</time></trkpt><trkpt lat="44.0235871" lon="8.1059108"><ele>154.66666666666666</ele><time>2026-05-03T17:43:39.465Z</time></trkpt><trkpt lat="44.0236858" lon="8.1059578"><ele>153.0</ele><time>2026-05-03T17:43:40.464Z</time></trkpt><trkpt lat="44.0237798" lon="8.1059871"><ele>151.33333333333334</ele><time>2026-05-03T17:43:41.464Z</time></trkpt><trkpt lat="44.0238624" lon="8.1060384"><ele>149.66666666666669</ele><time>2026-05-03T17:43:42.469Z</time></trkpt><trkpt lat="44.0239339" lon="8.1060646"><ele>148.0</ele><time>2026-05-03T17:43:43.464Z</time></trkpt><trkpt lat="44.0240194" lon="8.1061006"><ele>148.0</ele><time>2026-05-03T17:43:44.464Z</time></trkpt><trkpt lat="44.0241159" lon="8.1061266"><ele>148.0</ele><time>2026-05-03T17:43:45.465Z</time></trkpt><trkpt lat="44.0242125" lon="8.1061659"><ele>148.0</ele><time>2026-05-03T17:43:46.466Z</time></trkpt><trkpt lat="44.0243251" lon="8.1061889"><ele>148.0</ele><time>2026-05-03T17:43:47.466Z</time></trkpt><trkpt lat="44.0244452" lon="8.1062071"><ele>148.0</ele><time>2026-05-03T17:43:48.465Z</time></trkpt><trkpt lat="44.0245419" lon="8.1062143"><ele>147.0</ele><time>2026-05-03T17:43:49.466Z</time></trkpt><trkpt lat="44.0246564" lon="8.1061748"><ele>146.0</ele><time>2026-05-03T17:43:50.466Z</time></trkpt><trkpt lat="44.0247587" lon="8.1061468"><ele>145.0</ele><time>2026-05-03T17:43:51.467Z</time></trkpt><trkpt lat="44.0248473" lon="8.106138"><ele>144.0</ele><time>2026-05-03T17:43:52.464Z</time></trkpt><trkpt lat="44.0249405" lon="8.1061535"><ele>143.0</ele><time>2026-05-03T17:43:53.464Z</time></trkpt><trkpt lat="44.0250428" lon="8.1061893"><ele>140.8</ele><time>2026-05-03T17:43:54.468Z</time></trkpt><trkpt lat="44.0251368" lon="8.1062479"><ele>138.60000000000002</ele><time>2026-05-03T17:43:55.464Z</time></trkpt><trkpt lat="44.0252111" lon="8.1063137"><ele>136.39999999999998</ele><time>2026-05-03T17:43:56.465Z</time></trkpt><trkpt lat="44.0252892" lon="8.1063961"><ele>134.2</ele><time>2026-05-03T17:43:57.465Z</time></trkpt><trkpt lat="44.0253553" lon="8.1064794"><ele>132.0</ele><time>2026-05-03T17:43:58.469Z</time></trkpt><trkpt lat="44.025429" lon="8.106566"><ele>136.83333333333334</ele><time>2026-05-03T17:43:59.467Z</time></trkpt><trkpt lat="44.0254871" lon="8.1066549"><ele>141.66666666666666</ele><time>2026-05-03T17:44:00.47Z</time></trkpt><trkpt lat="44.0255313" lon="8.1067386"><ele>146.5</ele><time>2026-05-03T17:44:01.465Z</time></trkpt><trkpt lat="44.02556" lon="8.1068356"><ele>151.33333333333331</ele><time>2026-05-03T17:44:02.464Z</time></trkpt><trkpt lat="44.0255832" lon="8.1069203"><ele>156.16666666666666</ele><time>2026-05-03T17:44:03.466Z</time></trkpt><trkpt lat="44.0256061" lon="8.1070177"><ele>161.0</ele><time>2026-05-03T17:44:05.465Z</time></trkpt><trkpt lat="44.0256486" lon="8.1071785"><ele>161.0</ele><time>2026-05-03T17:44:18.467Z</time></trkpt><trkpt lat="44.0257531" lon="8.1073095"><ele>161.0</ele><time>2026-05-03T17:44:20.466Z</time></trkpt><trkpt lat="44.0258289" lon="8.1074276"><ele>161.0</ele><time>2026-05-03T17:44:22.459Z</time></trkpt><trkpt lat="44.0258302" lon="8.1075848"><ele>161.0</ele><time>2026-05-03T17:44:24.465Z</time></trkpt><trkpt lat="44.0258045" lon="8.1076797"><ele>161.0</ele><time>2026-05-03T17:44:25.476Z</time></trkpt><trkpt lat="44.0257517" lon="8.1078054"><ele>163.66666666666666</ele><time>2026-05-03T17:44:26.466Z</time></trkpt><trkpt lat="44.025705" lon="8.1079048"><ele>166.33333333333331</ele><time>2026-05-03T17:44:27.466Z</time></trkpt><trkpt lat="44.0256571" lon="8.107963"><ele>169.0</ele><time>2026-05-03T17:44:28.477Z</time></trkpt><trkpt lat="44.0255868" lon="8.1080113"><ele>171.66666666666666</ele><time>2026-05-03T17:44:29.467Z</time></trkpt><trkpt lat="44.0255069" lon="8.1080463"><ele>174.33333333333334</ele><time>2026-05-03T17:44:30.465Z</time></trkpt><trkpt lat="44.0254277" lon="8.1080637"><ele>177.0</ele><time>2026-05-03T17:44:31.464Z</time></trkpt><trkpt lat="44.0253581" lon="8.1080523"><ele>177.0</ele><time>2026-05-03T17:44:32.464Z</time></trkpt><trkpt lat="44.0252887" lon="8.1080641"><ele>177.0</ele><time>2026-05-03T17:44:33.464Z</time></trkpt><trkpt lat="44.0251983" lon="8.1080696"><ele>177.0</ele><time>2026-05-03T17:44:34.465Z</time></trkpt><trkpt lat="44.0251259" lon="8.1081335"><ele>177.0</ele><time>2026-05-03T17:44:35.469Z</time></trkpt><trkpt lat="44.0250356" lon="8.1082468"><ele>177.0</ele><time>2026-05-03T17:44:37.466Z</time></trkpt><trkpt lat="44.024966" lon="8.1082374"><ele>177.0</ele><time>2026-05-03T17:44:39.468Z</time></trkpt><trkpt lat="44.0249522" lon="8.1081241"><ele>177.0</ele><time>2026-05-03T17:44:41.474Z</time></trkpt><trkpt lat="44.0250087" lon="8.1079934"><ele>177.0</ele><time>2026-05-03T17:44:43.464Z</time></trkpt><trkpt lat="44.0251029" lon="8.1079791"><ele>177.0</ele><time>2026-05-03T17:44:44.468Z</time></trkpt><trkpt lat="44.025181" lon="8.1079362"><ele>177.0</ele><time>2026-05-03T17:44:45.468Z</time></trkpt><trkpt lat="44.0252586" lon="8.1078585"><ele>177.0</ele><time>2026-05-03T17:44:47.471Z</time></trkpt><trkpt lat="44.0252828" lon="8.1077346"><ele>177.0</ele><time>2026-05-03T17:44:49.47Z</time></trkpt><trkpt lat="44.0252561" lon="8.1076465"><ele>177.0</ele><time>2026-05-03T17:44:50.464Z</time></trkpt><trkpt lat="44.0252301" lon="8.1075209"><ele>177.0</ele><time>2026-05-03T17:44:51.468Z</time></trkpt><trkpt lat="44.0251917" lon="8.1074191"><ele>177.0</ele><time>2026-05-03T17:44:52.466Z</time></trkpt><trkpt lat="44.0251582" lon="8.1073179"><ele>177.0</ele><time>2026-05-03T17:44:53.466Z</time></trkpt><trkpt lat="44.0251022" lon="8.1071908"><ele>177.0</ele><time>2026-05-03T17:44:55.467Z</time></trkpt><trkpt lat="44.0250448" lon="8.1071482"><ele>175.33333333333334</ele><time>2026-05-03T17:44:56.466Z</time></trkpt><trkpt lat="44.0249818" lon="8.1071606"><ele>173.66666666666666</ele><time>2026-05-03T17:44:57.466Z</time></trkpt><trkpt lat="44.024918" lon="8.1071774"><ele>172.0</ele><time>2026-05-03T17:44:58.465Z</time></trkpt><trkpt lat="44.0248371" lon="8.1072284"><ele>170.33333333333331</ele><time>2026-05-03T17:44:59.464Z</time></trkpt><trkpt lat="44.0247602" lon="8.1072531"><ele>168.66666666666666</ele><time>2026-05-03T17:45:00.467Z</time></trkpt><trkpt lat="44.0246805" lon="8.1072431"><ele>167.0</ele><time>2026-05-03T17:45:01.465Z</time></trkpt><trkpt lat="44.0245989" lon="8.1072221"><ele>167.0</ele><time>2026-05-03T17:45:02.471Z</time></trkpt><trkpt lat="44.024508" lon="8.1072337"><ele>167.0</ele><time>2026-05-03T17:45:03.466Z</time></trkpt><trkpt lat="44.0244261" lon="8.1072322"><ele>167.0</ele><time>2026-05-03T17:45:04.469Z</time></trkpt><trkpt lat="44.0243379" lon="8.1072239"><ele>167.0</ele><time>2026-05-03T17:45:05.465Z</time></trkpt><trkpt lat="44.0242533" lon="8.1072205"><ele>167.0</ele><time>2026-05-03T17:45:06.465Z</time></trkpt><trkpt lat="44.0241742" lon="8.1072243"><ele>167.0</ele><time>2026-05-03T17:45:07.465Z</time></trkpt><trkpt lat="44.0240921" lon="8.107248"><ele>167.83333333333331</ele><time>2026-05-03T17:45:08.467Z</time></trkpt><trkpt lat="44.0240155" lon="8.107265"><ele>168.66666666666666</ele><time>2026-05-03T17:45:09.468Z</time></trkpt><trkpt lat="44.0239196" lon="8.1072801"><ele>169.5</ele><time>2026-05-03T17:45:11.465Z</time></trkpt><trkpt lat="44.0238997" lon="8.1073677"><ele>170.33333333333334</ele><time>2026-05-03T17:45:13.472Z</time></trkpt><trkpt lat="44.024007" lon="8.1074275"><ele>171.16666666666669</ele><time>2026-05-03T17:45:15.477Z</time></trkpt><trkpt lat="44.024083" lon="8.1074666"><ele>172.0</ele><time>2026-05-03T17:45:16.464Z</time></trkpt><trkpt lat="44.0241697" lon="8.1075117"><ele>175.2</ele><time>2026-05-03T17:45:17.466Z</time></trkpt><trkpt lat="44.0242553" lon="8.1075567"><ele>178.39999999999998</ele><time>2026-05-03T17:45:18.466Z</time></trkpt><trkpt lat="44.0243317" lon="8.1076034"><ele>181.60000000000002</ele><time>2026-05-03T17:45:19.469Z</time></trkpt><trkpt lat="44.0244098" lon="8.1076484"><ele>184.8</ele><time>2026-05-03T17:45:20.467Z</time></trkpt><trkpt lat="44.0244774" lon="8.1076875"><ele>188.0</ele><time>2026-05-03T17:45:21.465Z</time></trkpt><trkpt lat="44.0245726" lon="8.1077908"><ele>188.0</ele><time>2026-05-03T17:45:23.466Z</time></trkpt><trkpt lat="44.0245498" lon="8.1079673"><ele>188.0</ele><time>2026-05-03T17:45:25.471Z</time></trkpt><trkpt lat="44.0244936" lon="8.1080633"><ele>188.0</ele><time>2026-05-03T17:45:27.47Z</time></trkpt><trkpt lat="44.0243487" lon="8.1081055"><ele>188.0</ele><time>2026-05-03T17:45:29.475Z</time></trkpt><trkpt lat="44.0242526" lon="8.1081208"><ele>188.0</ele><time>2026-05-03T17:45:30.463Z</time></trkpt><trkpt lat="44.0241564" lon="8.1081316"><ele>188.0</ele><time>2026-05-03T17:45:31.47Z</time></trkpt><trkpt lat="44.0240623" lon="8.108156"><ele>188.0</ele><time>2026-05-03T17:45:32.467Z</time></trkpt><trkpt lat="44.0239746" lon="8.1081685"><ele>188.0</ele><time>2026-05-03T17:45:33.466Z</time></trkpt><trkpt lat="44.0238836" lon="8.108184"><ele>188.0</ele><time>2026-05-03T17:45:34.469Z</time></trkpt><trkpt lat="44.0237897" lon="8.1081986"><ele>189.8</ele><time>2026-05-03T17:45:35.47Z</time></trkpt><trkpt lat="44.0237113" lon="8.108233"><ele>191.60000000000002</ele><time>2026-05-03T17:45:36.474Z</time></trkpt><trkpt lat="44.0236406" lon="8.1082289"><ele>193.39999999999998</ele><time>2026-05-03T17:45:37.464Z</time></trkpt><trkpt lat="44.0235212" lon="8.1082242"><ele>195.2</ele><time>2026-05-03T17:45:39.467Z</time></trkpt><trkpt lat="44.0234122" lon="8.1081724"><ele>197.0</ele><time>2026-05-03T17:45:41.464Z</time></trkpt><trkpt lat="44.0233129" lon="8.108137"><ele>198.39999999999998</ele><time>2026-05-03T17:45:43.469Z</time></trkpt><trkpt lat="44.0231712" lon="8.1081621"><ele>199.79999999999998</ele><time>2026-05-03T17:45:45.471Z</time></trkpt><trkpt lat="44.023107" lon="8.108192"><ele>201.2</ele><time>2026-05-03T17:45:46.464Z</time></trkpt><trkpt lat="44.023056" lon="8.108255"><ele>202.6</ele><time>2026-05-03T17:45:47.467Z</time></trkpt><trkpt lat="44.0229871" lon="8.1083769"><ele>204.0</ele><time>2026-05-03T17:45:49.466Z</time></trkpt><trkpt lat="44.0229004" lon="8.1084933"><ele>207.0</ele><time>2026-05-03T17:45:51.465Z</time></trkpt><trkpt lat="44.0228567" lon="8.1085565"><ele>210.0</ele><time>2026-05-03T17:45:52.467Z</time></trkpt><trkpt lat="44.0228269" lon="8.1086504"><ele>213.0</ele><time>2026-05-03T17:45:54.467Z</time></trkpt><trkpt lat="44.0228235" lon="8.1087579"><ele>216.0</ele><time>2026-05-03T17:45:55.476Z</time></trkpt><trkpt lat="44.0228175" lon="8.1088646"><ele>219.0</ele><time>2026-05-03T17:45:56.471Z</time></trkpt><trkpt lat="44.0227865" lon="8.1090379"><ele>222.0</ele><time>2026-05-03T17:45:58.479Z</time></trkpt><trkpt lat="44.0227493" lon="8.1091157"><ele>222.66666666666666</ele><time>2026-05-03T17:45:59.466Z</time></trkpt><trkpt lat="44.0227207" lon="8.1091957"><ele>223.33333333333331</ele><time>2026-05-03T17:46:00.466Z</time></trkpt><trkpt lat="44.0226351" lon="8.1092825"><ele>224.0</ele><time>2026-05-03T17:46:02.468Z</time></trkpt><trkpt lat="44.0225531" lon="8.1093137"><ele>224.66666666666666</ele><time>2026-05-03T17:46:04.468Z</time></trkpt><trkpt lat="44.0224522" lon="8.1093078"><ele>225.33333333333331</ele><time>2026-05-03T17:46:06.464Z</time></trkpt><trkpt lat="44.0223782" lon="8.1092858"><ele>226.0</ele><time>2026-05-03T17:46:07.47Z</time></trkpt><trkpt lat="44.0222876" lon="8.1093271"><ele>230.16666666666666</ele><time>2026-05-03T17:46:09.468Z</time></trkpt><trkpt lat="44.0222232" lon="8.1094593"><ele>234.33333333333331</ele><time>2026-05-03T17:46:10.471Z</time></trkpt><trkpt lat="44.0221525" lon="8.1095228"><ele>238.5</ele><time>2026-05-03T17:46:11.472Z</time></trkpt><trkpt lat="44.0221018" lon="8.109583"><ele>242.66666666666669</ele><time>2026-05-03T17:46:12.469Z</time></trkpt><trkpt lat="44.0220663" lon="8.1096833"><ele>246.83333333333334</ele><time>2026-05-03T17:46:13.468Z</time></trkpt><trkpt lat="44.0220551" lon="8.1097701"><ele>251.0</ele><time>2026-05-03T17:46:14.463Z</time></trkpt><trkpt lat="44.0220499" lon="8.1098943"><ele>250.20000000000002</ele><time>2026-05-03T17:46:15.465Z</time></trkpt><trkpt lat="44.022048" lon="8.1100078"><ele>249.40000000000003</ele><time>2026-05-03T17:46:16.467Z</time></trkpt><trkpt lat="44.0220218" lon="8.1101047"><ele>248.6</ele><time>2026-05-03T17:46:17.466Z</time></trkpt><trkpt lat="44.0219511" lon="8.1102124"><ele>247.8</ele><time>2026-05-03T17:46:19.465Z</time></trkpt><trkpt lat="44.0218272" lon="8.1102653"><ele>247.0</ele><time>2026-05-03T17:46:21.464Z</time></trkpt><trkpt lat="44.0217668" lon="8.1103027"><ele>247.0</ele><time>2026-05-03T17:46:22.469Z</time></trkpt><trkpt lat="44.0217049" lon="8.1103731"><ele>247.0</ele><time>2026-05-03T17:46:23.466Z</time></trkpt><trkpt lat="44.0216225" lon="8.1104472"><ele>247.0</ele><time>2026-05-03T17:46:24.47Z</time></trkpt><trkpt lat="44.0215517" lon="8.1105256"><ele>247.0</ele><time>2026-05-03T17:46:25.465Z</time></trkpt><trkpt lat="44.0214427" lon="8.110557"><ele>247.0</ele><time>2026-05-03T17:46:27.465Z</time></trkpt><trkpt lat="44.021369" lon="8.1105139"><ele>249.49999999999997</ele><time>2026-05-03T17:46:28.468Z</time></trkpt><trkpt lat="44.0213005" lon="8.1105194"><ele>252.0</ele><time>2026-05-03T17:46:29.467Z</time></trkpt><trkpt lat="44.0212378" lon="8.1106295"><ele>254.5</ele><time>2026-05-03T17:46:31.469Z</time></trkpt><trkpt lat="44.0212669" lon="8.1107666"><ele>257.0</ele><time>2026-05-03T17:46:33.466Z</time></trkpt><trkpt lat="44.0213021" lon="8.1108614"><ele>259.5</ele><time>2026-05-03T17:46:34.469Z</time></trkpt><trkpt lat="44.0213096" lon="8.1109631"><ele>262.0</ele><time>2026-05-03T17:46:35.464Z</time></trkpt><trkpt lat="44.0213162" lon="8.1110594"><ele>262.0</ele><time>2026-05-03T17:46:36.467Z</time></trkpt><trkpt lat="44.02134" lon="8.1111642"><ele>262.0</ele><time>2026-05-03T17:46:37.464Z</time></trkpt><trkpt lat="44.0213505" lon="8.1112667"><ele>262.0</ele><time>2026-05-03T17:46:38.471Z</time></trkpt><trkpt lat="44.0213404" lon="8.1113767"><ele>262.0</ele><time>2026-05-03T17:46:39.469Z</time></trkpt><trkpt lat="44.0213357" lon="8.1115386"><ele>262.0</ele><time>2026-05-03T17:46:41.466Z</time></trkpt><trkpt lat="44.0212387" lon="8.111635"><ele>262.3333333333333</ele><time>2026-05-03T17:46:44.466Z</time></trkpt><trkpt lat="44.0211763" lon="8.1116543"><ele>262.66666666666663</ele><time>2026-05-03T17:46:45.47Z</time></trkpt><trkpt lat="44.0211107" lon="8.1116602"><ele>263.0</ele><time>2026-05-03T17:46:46.463Z</time></trkpt><trkpt lat="44.0210082" lon="8.1116644"><ele>263.3333333333333</ele><time>2026-05-03T17:46:48.464Z</time></trkpt><trkpt lat="44.0208795" lon="8.1116824"><ele>263.6666666666667</ele><time>2026-05-03T17:46:50.465Z</time></trkpt><trkpt lat="44.0208019" lon="8.1116703"><ele>264.0</ele><time>2026-05-03T17:46:51.468Z</time></trkpt><trkpt lat="44.0207223" lon="8.1116692"><ele>264.0</ele><time>2026-05-03T17:46:52.465Z</time></trkpt><trkpt lat="44.0206771" lon="8.111597"><ele>264.0</ele><time>2026-05-03T17:46:53.466Z</time></trkpt><trkpt lat="44.0206051" lon="8.1116048"><ele>264.0</ele><time>2026-05-03T17:46:54.464Z</time></trkpt><trkpt lat="44.0205384" lon="8.1116346"><ele>264.0</ele><time>2026-05-03T17:46:55.47Z</time></trkpt><trkpt lat="44.020464" lon="8.1116586"><ele>264.0</ele><time>2026-05-03T17:46:56.463Z</time></trkpt><trkpt lat="44.020425" lon="8.1117337"><ele>264.0</ele><time>2026-05-03T17:46:57.472Z</time></trkpt><trkpt lat="44.0203215" lon="8.1117265"><ele>264.0</ele><time>2026-05-03T17:46:59.467Z</time></trkpt><trkpt lat="44.020261" lon="8.1117521"><ele>264.0</ele><time>2026-05-03T17:47:00.464Z</time></trkpt><trkpt lat="44.0201764" lon="8.1117986"><ele>264.0</ele><time>2026-05-03T17:47:01.466Z</time></trkpt><trkpt lat="44.0200825" lon="8.111814"><ele>264.0</ele><time>2026-05-03T17:47:02.469Z</time></trkpt><trkpt lat="44.0199882" lon="8.1118648"><ele>264.0</ele><time>2026-05-03T17:47:03.467Z</time></trkpt><trkpt lat="44.0199017" lon="8.1118869"><ele>264.0</ele><time>2026-05-03T17:47:04.467Z</time></trkpt><trkpt lat="44.0197859" lon="8.1118932"><ele>268.5</ele><time>2026-05-03T17:47:06.464Z</time></trkpt><trkpt lat="44.019722" lon="8.1118832"><ele>273.0</ele><time>2026-05-03T17:47:07.464Z</time></trkpt><trkpt lat="44.0196193" lon="8.1119424"><ele>277.5</ele><time>2026-05-03T17:47:09.465Z</time></trkpt><trkpt lat="44.0195763" lon="8.1120173"><ele>282.0</ele><time>2026-05-03T17:47:10.466Z</time></trkpt><trkpt lat="44.0195389" lon="8.112106"><ele>286.5</ele><time>2026-05-03T17:47:11.466Z</time></trkpt><trkpt lat="44.0196002" lon="8.1122397"><ele>291.0</ele><time>2026-05-03T17:47:13.47Z</time></trkpt><trkpt lat="44.019625" lon="8.112361"><ele>289.42857142857144</ele><time>2026-05-03T17:47:14.464Z</time></trkpt><trkpt lat="44.0196521" lon="8.1124769"><ele>287.85714285714283</ele><time>2026-05-03T17:47:15.466Z</time></trkpt><trkpt lat="44.0196714" lon="8.1125722"><ele>286.2857142857143</ele><time>2026-05-03T17:47:16.481Z</time></trkpt><trkpt lat="44.0196356" lon="8.1126602"><ele>284.7142857142857</ele><time>2026-05-03T17:47:17.463Z</time></trkpt><trkpt lat="44.0196474" lon="8.1127469"><ele>283.1428571428571</ele><time>2026-05-03T17:47:18.464Z</time></trkpt><trkpt lat="44.0195913" lon="8.1127935"><ele>281.57142857142856</ele><time>2026-05-03T17:47:19.468Z</time></trkpt><trkpt lat="44.0195214" lon="8.1127833"><ele>280.0</ele><time>2026-05-03T17:47:21.464Z</time></trkpt><trkpt lat="44.0193869" lon="8.1127263"><ele>280.0</ele><time>2026-05-03T17:47:23.465Z</time></trkpt><trkpt lat="44.0193222" lon="8.1126857"><ele>280.0</ele><time>2026-05-03T17:47:24.466Z</time></trkpt><trkpt lat="44.0191988" lon="8.1126589"><ele>280.0</ele><time>2026-05-03T17:47:26.461Z</time></trkpt><trkpt lat="44.0191289" lon="8.1126471"><ele>280.0</ele><time>2026-05-03T17:47:27.466Z</time></trkpt><trkpt lat="44.0190745" lon="8.112698"><ele>280.0</ele><time>2026-05-03T17:47:28.467Z</time></trkpt><trkpt lat="44.0190186" lon="8.1127925"><ele>280.0</ele><time>2026-05-03T17:47:29.472Z</time></trkpt><trkpt lat="44.0190508" lon="8.1129442"><ele>282.0</ele><time>2026-05-03T17:47:30.471Z</time></trkpt><trkpt lat="44.0190019" lon="8.1130837"><ele>284.0</ele><time>2026-05-03T17:47:32.469Z</time></trkpt><trkpt lat="44.0189538" lon="8.1131469"><ele>286.0</ele><time>2026-05-03T17:47:33.471Z</time></trkpt><trkpt lat="44.018882" lon="8.1132409"><ele>288.0</ele><time>2026-05-03T17:47:35.471Z</time></trkpt><trkpt lat="44.0188501" lon="8.1133182"><ele>290.0</ele><time>2026-05-03T17:47:36.464Z</time></trkpt><trkpt lat="44.0188072" lon="8.1134838"><ele>290.0</ele><time>2026-05-03T17:47:38.465Z</time></trkpt><trkpt lat="44.0188351" lon="8.1136046"><ele>290.0</ele><time>2026-05-03T17:47:39.468Z</time></trkpt><trkpt lat="44.0188664" lon="8.1136961"><ele>290.0</ele><time>2026-05-03T17:47:40.464Z</time></trkpt><trkpt lat="44.0189153" lon="8.1137905"><ele>290.0</ele><time>2026-05-03T17:47:41.475Z</time></trkpt><trkpt lat="44.0189644" lon="8.1139343"><ele>290.0</ele><time>2026-05-03T17:47:43.465Z</time></trkpt><trkpt lat="44.0188894" lon="8.1139343"><ele>290.0</ele><time>2026-05-03T17:47:46.467Z</time></trkpt><trkpt lat="44.0188375" lon="8.1138269"><ele>290.0</ele><time>2026-05-03T17:47:48.474Z</time></trkpt><trkpt lat="44.0187814" lon="8.1137628"><ele>290.0</ele><time>2026-05-03T17:47:49.467Z</time></trkpt><trkpt lat="44.0187057" lon="8.1137021"><ele>290.0</ele><time>2026-05-03T17:47:50.464Z</time></trkpt><trkpt lat="44.0186382" lon="8.1136427"><ele>290.0</ele><time>2026-05-03T17:47:51.469Z</time></trkpt><trkpt lat="44.0185659" lon="8.1135824"><ele>290.0</ele><time>2026-05-03T17:47:52.471Z</time></trkpt><trkpt lat="44.0185052" lon="8.1135429"><ele>290.0</ele><time>2026-05-03T17:47:53.465Z</time></trkpt><trkpt lat="44.0184239" lon="8.113486"><ele>290.0</ele><time>2026-05-03T17:47:54.465Z</time></trkpt><trkpt lat="44.0183372" lon="8.1134572"><ele>290.0</ele><time>2026-05-03T17:47:55.465Z</time></trkpt><trkpt lat="44.0182696" lon="8.1134562"><ele>290.0</ele><time>2026-05-03T17:47:56.463Z</time></trkpt><trkpt lat="44.0182039" lon="8.1134647"><ele>290.0</ele><time>2026-05-03T17:47:57.466Z</time></trkpt><trkpt lat="44.0180926" lon="8.1134448"><ele>290.0</ele><time>2026-05-03T17:47:59.466Z</time></trkpt><trkpt lat="44.0179887" lon="8.1134446"><ele>290.0</ele><time>2026-05-03T17:48:01.472Z</time></trkpt><trkpt lat="44.0178764" lon="8.1134236"><ele>293.0</ele><time>2026-05-03T17:48:03.466Z</time></trkpt><trkpt lat="44.0178101" lon="8.1134862"><ele>296.0</ele><time>2026-05-03T17:48:05.465Z</time></trkpt><trkpt lat="44.0177733" lon="8.113624"><ele>299.0</ele><time>2026-05-03T17:48:07.469Z</time></trkpt><trkpt lat="44.0176861" lon="8.1137042"><ele>302.0</ele><time>2026-05-03T17:48:09.463Z</time></trkpt><trkpt lat="44.0176228" lon="8.1137501"><ele>305.0</ele><time>2026-05-03T17:48:11.466Z</time></trkpt><trkpt lat="44.0176059" lon="8.1139343"><ele>305.0</ele><time>2026-05-03T17:48:13.461Z</time></trkpt><trkpt lat="44.0175663" lon="8.1140122"><ele>305.0</ele><time>2026-05-03T17:48:14.464Z</time></trkpt><trkpt lat="44.0175711" lon="8.1141375"><ele>305.0</ele><time>2026-05-03T17:48:16.466Z</time></trkpt><trkpt lat="44.0175817" lon="8.114245"><ele>305.0</ele><time>2026-05-03T17:48:17.469Z</time></trkpt><trkpt lat="44.0175652" lon="8.1143592"><ele>305.0</ele><time>2026-05-03T17:48:18.468Z</time></trkpt><trkpt lat="44.0175708" lon="8.1145195"><ele>305.0</ele><time>2026-05-03T17:48:20.465Z</time></trkpt><trkpt lat="44.0175015" lon="8.1146216"><ele>306.1666666666667</ele><time>2026-05-03T17:48:22.464Z</time></trkpt><trkpt lat="44.0174367" lon="8.1146446"><ele>307.33333333333337</ele><time>2026-05-03T17:48:23.476Z</time></trkpt><trkpt lat="44.017365" lon="8.1146715"><ele>308.5</ele><time>2026-05-03T17:48:24.47Z</time></trkpt><trkpt lat="44.0173053" lon="8.1147972"><ele>309.6666666666667</ele><time>2026-05-03T17:48:27.467Z</time></trkpt><trkpt lat="44.0172301" lon="8.1149313"><ele>310.8333333333333</ele><time>2026-05-03T17:48:29.472Z</time></trkpt><trkpt lat="44.0171916" lon="8.1150191"><ele>312.0</ele><time>2026-05-03T17:48:30.466Z</time></trkpt><trkpt lat="44.0171588" lon="8.1151042"><ele>312.0</ele><time>2026-05-03T17:48:32.47Z</time></trkpt><trkpt lat="44.0171522" lon="8.115194"><ele>312.0</ele><time>2026-05-03T17:48:34.467Z</time></trkpt><trkpt lat="44.0171804" lon="8.1153675"><ele>312.0</ele><time>2026-05-03T17:48:36.467Z</time></trkpt><trkpt lat="44.0172006" lon="8.1154535"><ele>312.0</ele><time>2026-05-03T17:48:37.468Z</time></trkpt><trkpt lat="44.0172683" lon="8.1155512"><ele>312.0</ele><time>2026-05-03T17:48:39.469Z</time></trkpt><trkpt lat="44.0173128" lon="8.1156215"><ele>312.0</ele><time>2026-05-03T17:48:40.47Z</time></trkpt><trkpt lat="44.0173505" lon="8.1157772"><ele>309.4</ele><time>2026-05-03T17:48:42.464Z</time></trkpt><trkpt lat="44.0173593" lon="8.1158778"><ele>306.79999999999995</ele><time>2026-05-03T17:48:43.465Z</time></trkpt><trkpt lat="44.0173543" lon="8.1159961"><ele>304.2</ele><time>2026-05-03T17:48:45.464Z</time></trkpt><trkpt lat="44.0172885" lon="8.1161222"><ele>301.59999999999997</ele><time>2026-05-03T17:48:47.466Z</time></trkpt><trkpt lat="44.0172291" lon="8.1162778"><ele>299.0</ele><time>2026-05-03T17:48:49.466Z</time></trkpt><trkpt lat="44.0172916" lon="8.1163996"><ele>299.0</ele><time>2026-05-03T17:48:52.463Z</time></trkpt><trkpt lat="44.0173951" lon="8.1165376"><ele>299.0</ele><time>2026-05-03T17:48:54.476Z</time></trkpt><trkpt lat="44.0174566" lon="8.1166049"><ele>299.0</ele><time>2026-05-03T17:48:55.467Z</time></trkpt><trkpt lat="44.0175034" lon="8.1167322"><ele>299.0</ele><time>2026-05-03T17:48:57.465Z</time></trkpt><trkpt lat="44.0175582" lon="8.1167853"><ele>299.0</ele><time>2026-05-03T17:48:58.466Z</time></trkpt><trkpt lat="44.0176021" lon="8.1169145"><ele>296.5</ele><time>2026-05-03T17:49:00.467Z</time></trkpt><trkpt lat="44.0175894" lon="8.1170302"><ele>294.0</ele><time>2026-05-03T17:49:02.47Z</time></trkpt><trkpt lat="44.0175346" lon="8.117134"><ele>291.5</ele><time>2026-05-03T17:49:04.463Z</time></trkpt><trkpt lat="44.0174778" lon="8.1171737"><ele>289.0</ele><time>2026-05-03T17:49:06.464Z</time></trkpt><trkpt lat="44.0174024" lon="8.1172319"><ele>286.5</ele><time>2026-05-03T17:49:08.468Z</time></trkpt><trkpt lat="44.0173205" lon="8.1172634"><ele>284.0</ele><time>2026-05-03T17:49:10.471Z</time></trkpt><trkpt lat="44.0172537" lon="8.1172765"><ele>284.0</ele><time>2026-05-03T17:49:12.466Z</time></trkpt><trkpt lat="44.0172199" lon="8.1173915"><ele>284.0</ele><time>2026-05-03T17:49:15.471Z</time></trkpt><trkpt lat="44.0172162" lon="8.1175435"><ele>284.0</ele><time>2026-05-03T17:49:17.469Z</time></trkpt><trkpt lat="44.0172486" lon="8.1176322"><ele>284.0</ele><time>2026-05-03T17:49:18.469Z</time></trkpt><trkpt lat="44.0173105" lon="8.1177516"><ele>284.0</ele><time>2026-05-03T17:49:20.467Z</time></trkpt><trkpt lat="44.0173297" lon="8.1178416"><ele>284.0</ele><time>2026-05-03T17:49:21.468Z</time></trkpt><trkpt lat="44.0173501" lon="8.1179369"><ele>282.0</ele><time>2026-05-03T17:49:22.464Z</time></trkpt><trkpt lat="44.0173945" lon="8.118015"><ele>280.0</ele><time>2026-05-03T17:49:24.465Z</time></trkpt><trkpt lat="44.0174694" lon="8.1180811"><ele>278.0</ele><time>2026-05-03T17:49:26.465Z</time></trkpt><trkpt lat="44.0175268" lon="8.118162"><ele>276.0</ele><time>2026-05-03T17:49:28.467Z</time></trkpt><trkpt lat="44.0176071" lon="8.1182424"><ele>274.0</ele><time>2026-05-03T17:49:30.466Z</time></trkpt><trkpt lat="44.0176893" lon="8.1183829"><ele>269.16666666666663</ele><time>2026-05-03T17:49:33.463Z</time></trkpt><trkpt lat="44.0177575" lon="8.118506"><ele>264.3333333333333</ele><time>2026-05-03T17:49:35.465Z</time></trkpt><trkpt lat="44.017817" lon="8.1185555"><ele>259.5</ele><time>2026-05-03T17:49:36.466Z</time></trkpt><trkpt lat="44.0178848" lon="8.1186297"><ele>254.66666666666669</ele><time>2026-05-03T17:49:38.465Z</time></trkpt><trkpt lat="44.0179527" lon="8.1186913"><ele>249.83333333333334</ele><time>2026-05-03T17:49:40.461Z</time></trkpt><trkpt lat="44.0179652" lon="8.1187965"><ele>245.0</ele><time>2026-05-03T17:49:42.467Z</time></trkpt><trkpt lat="44.017912" lon="8.118885"><ele>245.00000000000003</ele><time>2026-05-03T17:49:45.466Z</time></trkpt><trkpt lat="44.0178476" lon="8.1189134"><ele>245.0</ele><time>2026-05-03T17:49:47.467Z</time></trkpt><trkpt lat="44.0177399" lon="8.1189631"><ele>245.0</ele><time>2026-05-03T17:49:49.469Z</time></trkpt><trkpt lat="44.017654" lon="8.1189663"><ele>245.0</ele><time>2026-05-03T17:49:51.464Z</time></trkpt><trkpt lat="44.0175821" lon="8.1189788"><ele>245.00000000000003</ele><time>2026-05-03T17:49:53.463Z</time></trkpt><trkpt lat="44.0174886" lon="8.1190152"><ele>245.0</ele><time>2026-05-03T17:49:55.463Z</time></trkpt><trkpt lat="44.0173978" lon="8.1190594"><ele>248.6</ele><time>2026-05-03T17:49:57.468Z</time></trkpt><trkpt lat="44.0173267" lon="8.1190837"><ele>252.2</ele><time>2026-05-03T17:49:58.466Z</time></trkpt><trkpt lat="44.0172223" lon="8.1191901"><ele>255.8</ele><time>2026-05-03T17:50:00.464Z</time></trkpt><trkpt lat="44.0171524" lon="8.1192682"><ele>259.4</ele><time>2026-05-03T17:50:02.466Z</time></trkpt><trkpt lat="44.0170482" lon="8.1193168"><ele>263.0</ele><time>2026-05-03T17:50:04.465Z</time></trkpt><trkpt lat="44.0169981" lon="8.119431"><ele>263.0</ele><time>2026-05-03T17:50:06.466Z</time></trkpt><trkpt lat="44.0170172" lon="8.1195216"><ele>263.0</ele><time>2026-05-03T17:50:08.464Z</time></trkpt><trkpt lat="44.0170438" lon="8.1196268"><ele>263.0</ele><time>2026-05-03T17:50:10.469Z</time></trkpt><trkpt lat="44.0171001" lon="8.1197338"><ele>263.0</ele><time>2026-05-03T17:50:12.464Z</time></trkpt><trkpt lat="44.0171919" lon="8.1198347"><ele>263.0</ele><time>2026-05-03T17:50:13.468Z</time></trkpt><trkpt lat="44.0172815" lon="8.1199235"><ele>261.8</ele><time>2026-05-03T17:50:15.465Z</time></trkpt><trkpt lat="44.0173366" lon="8.1199715"><ele>260.6</ele><time>2026-05-03T17:50:16.465Z</time></trkpt><trkpt lat="44.0174073" lon="8.1200809"><ele>259.4</ele><time>2026-05-03T17:50:17.465Z</time></trkpt><trkpt lat="44.0174833" lon="8.1201326"><ele>258.2</ele><time>2026-05-03T17:50:18.47Z</time></trkpt><trkpt lat="44.01757" lon="8.120162"><ele>257.0</ele><time>2026-05-03T17:50:19.465Z</time></trkpt><trkpt lat="44.0176385" lon="8.1202832"><ele>257.0</ele><time>2026-05-03T17:50:21.469Z</time></trkpt><trkpt lat="44.0176302" lon="8.1203754"><ele>257.0</ele><time>2026-05-03T17:50:23.461Z</time></trkpt><trkpt lat="44.0175853" lon="8.1204679"><ele>257.0</ele><time>2026-05-03T17:50:25.465Z</time></trkpt><trkpt lat="44.017507" lon="8.1205363"><ele>257.0</ele><time>2026-05-03T17:50:27.466Z</time></trkpt><trkpt lat="44.0174625" lon="8.1206239"><ele>257.0</ele><time>2026-05-03T17:50:31.466Z</time></trkpt><trkpt lat="44.0173949" lon="8.1207224"><ele>257.0</ele><time>2026-05-03T17:50:34.465Z</time></trkpt><trkpt lat="44.0173177" lon="8.1208009"><ele>257.4</ele><time>2026-05-03T17:50:36.466Z</time></trkpt><trkpt lat="44.0172541" lon="8.1208883"><ele>257.79999999999995</ele><time>2026-05-03T17:50:38.464Z</time></trkpt><trkpt lat="44.0171718" lon="8.1210256"><ele>258.2</ele><time>2026-05-03T17:50:40.465Z</time></trkpt><trkpt lat="44.0171293" lon="8.1211037"><ele>258.59999999999997</ele><time>2026-05-03T17:50:41.469Z</time></trkpt><trkpt lat="44.0170959" lon="8.121186"><ele>259.0</ele><time>2026-05-03T17:50:42.466Z</time></trkpt><trkpt lat="44.0170571" lon="8.1213192"><ele>259.0</ele><time>2026-05-03T17:50:44.469Z</time></trkpt><trkpt lat="44.0172393" lon="8.1213978"><ele>259.0</ele><time>2026-05-03T17:50:48.472Z</time></trkpt><trkpt lat="44.017297" lon="8.1214369"><ele>259.0</ele><time>2026-05-03T17:50:49.473Z</time></trkpt><trkpt lat="44.0173993" lon="8.1214679"><ele>259.0</ele><time>2026-05-03T17:50:51.471Z</time></trkpt><trkpt lat="44.0175198" lon="8.1214538"><ele>253.39999999999998</ele><time>2026-05-03T17:50:53.464Z</time></trkpt><trkpt lat="44.0176007" lon="8.1214801"><ele>247.79999999999998</ele><time>2026-05-03T17:50:54.465Z</time></trkpt><trkpt lat="44.0177108" lon="8.1215119"><ele>242.20000000000002</ele><time>2026-05-03T17:50:56.467Z</time></trkpt><trkpt lat="44.0177882" lon="8.1214928"><ele>236.60000000000002</ele><time>2026-05-03T17:50:57.469Z</time></trkpt><trkpt lat="44.0178802" lon="8.1214898"><ele>231.0</ele><time>2026-05-03T17:50:58.463Z</time></trkpt><trkpt lat="44.0179792" lon="8.1214795"><ele>231.0</ele><time>2026-05-03T17:50:59.468Z</time></trkpt><trkpt lat="44.018055" lon="8.1214644"><ele>231.0</ele><time>2026-05-03T17:51:00.468Z</time></trkpt><trkpt lat="44.0181377" lon="8.1214531"><ele>231.0</ele><time>2026-05-03T17:51:01.465Z</time></trkpt><trkpt lat="44.0182127" lon="8.1214287"><ele>231.0</ele><time>2026-05-03T17:51:02.464Z</time></trkpt><trkpt lat="44.0182944" lon="8.1214571"><ele>231.0</ele><time>2026-05-03T17:51:04.466Z</time></trkpt><trkpt lat="44.0183923" lon="8.1214507"><ele>231.0</ele><time>2026-05-03T17:51:06.466Z</time></trkpt><trkpt lat="44.0184817" lon="8.1214906"><ele>230.20000000000002</ele><time>2026-05-03T17:51:08.467Z</time></trkpt><trkpt lat="44.0185437" lon="8.1215955"><ele>229.40000000000003</ele><time>2026-05-03T17:51:10.465Z</time></trkpt><trkpt lat="44.0186156" lon="8.1216865"><ele>228.6</ele><time>2026-05-03T17:51:12.464Z</time></trkpt><trkpt lat="44.0187185" lon="8.1217653"><ele>227.8</ele><time>2026-05-03T17:51:14.469Z</time></trkpt><trkpt lat="44.0188486" lon="8.1217457"><ele>227.0</ele><time>2026-05-03T17:51:16.469Z</time></trkpt><trkpt lat="44.0189086" lon="8.1217796"><ele>227.00000000000003</ele><time>2026-05-03T17:51:17.466Z</time></trkpt><trkpt lat="44.0189918" lon="8.1218167"><ele>227.0</ele><time>2026-05-03T17:51:19.468Z</time></trkpt><trkpt lat="44.0190566" lon="8.1218011"><ele>227.0</ele><time>2026-05-03T17:51:20.466Z</time></trkpt><trkpt lat="44.0191361" lon="8.1217653"><ele>227.0</ele><time>2026-05-03T17:51:22.466Z</time></trkpt><trkpt lat="44.0191926" lon="8.1216931"><ele>227.00000000000003</ele><time>2026-05-03T17:51:24.463Z</time></trkpt><trkpt lat="44.019215" lon="8.1215974"><ele>227.0</ele><time>2026-05-03T17:51:26.467Z</time></trkpt><trkpt lat="44.0192919" lon="8.1215593"><ele>223.39999999999998</ele><time>2026-05-03T17:51:29.465Z</time></trkpt><trkpt lat="44.0193239" lon="8.1216606"><ele>219.79999999999998</ele><time>2026-05-03T17:51:31.47Z</time></trkpt><trkpt lat="44.019275" lon="8.1217848"><ele>216.2</ele><time>2026-05-03T17:51:33.465Z</time></trkpt><trkpt lat="44.019246" lon="8.1219385"><ele>212.6</ele><time>2026-05-03T17:51:35.468Z</time></trkpt><trkpt lat="44.0192575" lon="8.1220731"><ele>209.0</ele><time>2026-05-03T17:51:37.464Z</time></trkpt><trkpt lat="44.0192866" lon="8.1221652"><ele>209.0</ele><time>2026-05-03T17:51:39.465Z</time></trkpt><trkpt lat="44.0193028" lon="8.1222963"><ele>209.0</ele><time>2026-05-03T17:51:41.464Z</time></trkpt><trkpt lat="44.0193117" lon="8.1224455"><ele>209.0</ele><time>2026-05-03T17:51:43.469Z</time></trkpt><trkpt lat="44.0193226" lon="8.1225668"><ele>209.0</ele><time>2026-05-03T17:51:45.47Z</time></trkpt><trkpt lat="44.0192777" lon="8.1226801"><ele>209.0</ele><time>2026-05-03T17:51:47.47Z</time></trkpt><trkpt lat="44.0192407" lon="8.1228086"><ele>209.00000000000003</ele><time>2026-05-03T17:51:49.466Z</time></trkpt><trkpt lat="44.0191738" lon="8.1229509"><ele>209.0</ele><time>2026-05-03T17:51:51.465Z</time></trkpt><trkpt lat="44.0191168" lon="8.1230999"><ele>209.0</ele><time>2026-05-03T17:51:53.466Z</time></trkpt><trkpt lat="44.0190703" lon="8.1231608"><ele>209.0</ele><time>2026-05-03T17:51:55.469Z</time></trkpt><trkpt lat="44.0190258" lon="8.1232236"><ele>209.00000000000003</ele><time>2026-05-03T17:51:56.464Z</time></trkpt><trkpt lat="44.0189774" lon="8.1232931"><ele>209.0</ele><time>2026-05-03T17:51:57.462Z</time></trkpt><trkpt lat="44.0189334" lon="8.1233566"><ele>207.66666666666669</ele><time>2026-05-03T17:51:58.462Z</time></trkpt><trkpt lat="44.0189332" lon="8.1234575"><ele>206.33333333333334</ele><time>2026-05-03T17:52:01.466Z</time></trkpt><trkpt lat="44.0190033" lon="8.1235238"><ele>205.0</ele><time>2026-05-03T17:52:03.465Z</time></trkpt><trkpt lat="44.0191178" lon="8.1235311"><ele>203.66666666666669</ele><time>2026-05-03T17:52:05.465Z</time></trkpt><trkpt lat="44.0191952" lon="8.1235495"><ele>202.33333333333334</ele><time>2026-05-03T17:52:06.471Z</time></trkpt><trkpt lat="44.019277" lon="8.1235677"><ele>201.0</ele><time>2026-05-03T17:52:07.465Z</time></trkpt><trkpt lat="44.0193587" lon="8.123565"><ele>201.0</ele><time>2026-05-03T17:52:08.468Z</time></trkpt><trkpt lat="44.0194239" lon="8.123596"><ele>201.0</ele><time>2026-05-03T17:52:09.472Z</time></trkpt><trkpt lat="44.0195344" lon="8.123606"><ele>201.0</ele><time>2026-05-03T17:52:11.466Z</time></trkpt><trkpt lat="44.0196226" lon="8.1236527"><ele>201.0</ele><time>2026-05-03T17:52:13.465Z</time></trkpt><trkpt lat="44.0196928" lon="8.1236627"><ele>201.0</ele><time>2026-05-03T17:52:14.467Z</time></trkpt><trkpt lat="44.0198208" lon="8.1236077"><ele>201.0</ele><time>2026-05-03T17:52:16.469Z</time></trkpt><trkpt lat="44.0198878" lon="8.1236004"><ele>201.0</ele><time>2026-05-03T17:52:17.472Z</time></trkpt><trkpt lat="44.0199504" lon="8.1236413"><ele>201.0</ele><time>2026-05-03T17:52:18.465Z</time></trkpt><trkpt lat="44.0200388" lon="8.123643"><ele>201.0</ele><time>2026-05-03T17:52:20.465Z</time></trkpt><trkpt lat="44.0201159" lon="8.1236991"><ele>201.0</ele><time>2026-05-03T17:52:22.469Z</time></trkpt><trkpt lat="44.0202372" lon="8.1237884"><ele>201.0</ele><time>2026-05-03T17:52:24.465Z</time></trkpt><trkpt lat="44.0202998" lon="8.1238068"><ele>197.0</ele><time>2026-05-03T17:52:25.469Z</time></trkpt><trkpt lat="44.0203681" lon="8.1238211"><ele>193.0</ele><time>2026-05-03T17:52:26.467Z</time></trkpt><trkpt lat="44.0204254" lon="8.1237072"><ele>189.0</ele><time>2026-05-03T17:52:28.464Z</time></trkpt><trkpt lat="44.0204991" lon="8.1235746"><ele>185.0</ele><time>2026-05-03T17:52:30.476Z</time></trkpt><trkpt lat="44.0205488" lon="8.1235032"><ele>181.0</ele><time>2026-05-03T17:52:31.465Z</time></trkpt><trkpt lat="44.0206325" lon="8.1233889"><ele>181.0</ele><time>2026-05-03T17:52:33.465Z</time></trkpt><trkpt lat="44.0207948" lon="8.1233185"><ele>181.0</ele><time>2026-05-03T17:52:40.468Z</time></trkpt><trkpt lat="44.0208668" lon="8.1232679"><ele>181.0</ele><time>2026-05-03T17:52:41.472Z</time></trkpt><trkpt lat="44.0209463" lon="8.123242"><ele>181.0</ele><time>2026-05-03T17:52:42.464Z</time></trkpt><trkpt lat="44.0210258" lon="8.1231935"><ele>181.0</ele><time>2026-05-03T17:52:43.464Z</time></trkpt><trkpt lat="44.0210952" lon="8.1231628"><ele>180.66666666666669</ele><time>2026-05-03T17:52:44.465Z</time></trkpt><trkpt lat="44.0211996" lon="8.1231155"><ele>180.33333333333334</ele><time>2026-05-03T17:52:46.464Z</time></trkpt><trkpt lat="44.0213084" lon="8.1231787"><ele>180.0</ele><time>2026-05-03T17:52:48.465Z</time></trkpt><trkpt lat="44.0213646" lon="8.1232284"><ele>179.66666666666666</ele><time>2026-05-03T17:52:49.467Z</time></trkpt><trkpt lat="44.0214209" lon="8.1233038"><ele>179.33333333333331</ele><time>2026-05-03T17:52:50.461Z</time></trkpt><trkpt lat="44.0214757" lon="8.123368"><ele>179.0</ele><time>2026-05-03T17:52:51.464Z</time></trkpt><trkpt lat="44.0215433" lon="8.1234335"><ele>179.0</ele><time>2026-05-03T17:52:52.464Z</time></trkpt><trkpt lat="44.0216021" lon="8.1234761"><ele>179.0</ele><time>2026-05-03T17:52:53.464Z</time></trkpt><trkpt lat="44.0216959" lon="8.1235667"><ele>179.0</ele><time>2026-05-03T17:52:55.471Z</time></trkpt><trkpt lat="44.021766" lon="8.1235901"><ele>179.0</ele><time>2026-05-03T17:52:56.465Z</time></trkpt><trkpt lat="44.0218669" lon="8.1236269"><ele>179.0</ele><time>2026-05-03T17:52:58.463Z</time></trkpt><trkpt lat="44.0220081" lon="8.1235539"><ele>177.2</ele><time>2026-05-03T17:53:01.466Z</time></trkpt><trkpt lat="44.0220661" lon="8.1234951"><ele>175.39999999999998</ele><time>2026-05-03T17:53:02.468Z</time></trkpt><trkpt lat="44.0221633" lon="8.1234044"><ele>173.6</ele><time>2026-05-03T17:53:03.464Z</time></trkpt><trkpt lat="44.0222655" lon="8.1233247"><ele>171.8</ele><time>2026-05-03T17:53:04.468Z</time></trkpt><trkpt lat="44.0223404" lon="8.123274"><ele>170.0</ele><time>2026-05-03T17:53:05.466Z</time></trkpt><trkpt lat="44.0224279" lon="8.1232407"><ele>167.16666666666666</ele><time>2026-05-03T17:53:06.467Z</time></trkpt><trkpt lat="44.0225037" lon="8.1232211"><ele>164.33333333333331</ele><time>2026-05-03T17:53:07.467Z</time></trkpt><trkpt lat="44.0225726" lon="8.1232033"><ele>161.5</ele><time>2026-05-03T17:53:08.468Z</time></trkpt><trkpt lat="44.0226538" lon="8.1232186"><ele>158.66666666666666</ele><time>2026-05-03T17:53:09.464Z</time></trkpt><trkpt lat="44.0227357" lon="8.1232183"><ele>155.83333333333334</ele><time>2026-05-03T17:53:10.461Z</time></trkpt><trkpt lat="44.0228222" lon="8.123219"><ele>153.0</ele><time>2026-05-03T17:53:11.466Z</time></trkpt><trkpt lat="44.0228921" lon="8.1232096"><ele>153.0</ele><time>2026-05-03T17:53:12.464Z</time></trkpt><trkpt lat="44.022975" lon="8.1231581"><ele>153.0</ele><time>2026-05-03T17:53:13.466Z</time></trkpt><trkpt lat="44.0230517" lon="8.1231022"><ele>153.0</ele><time>2026-05-03T17:53:14.465Z</time></trkpt><trkpt lat="44.0231217" lon="8.1230134"><ele>153.0</ele><time>2026-05-03T17:53:15.467Z</time></trkpt><trkpt lat="44.0231811" lon="8.1229342"><ele>153.0</ele><time>2026-05-03T17:53:16.468Z</time></trkpt><trkpt lat="44.0232476" lon="8.1228294"><ele>153.0</ele><time>2026-05-03T17:53:17.468Z</time></trkpt><trkpt lat="44.0233082" lon="8.1227336"><ele>153.0</ele><time>2026-05-03T17:53:18.465Z</time></trkpt><trkpt lat="44.0233527" lon="8.1226402"><ele>153.0</ele><time>2026-05-03T17:53:19.469Z</time></trkpt><trkpt lat="44.0233923" lon="8.1225492"><ele>153.0</ele><time>2026-05-03T17:53:20.467Z</time></trkpt><trkpt lat="44.0234405" lon="8.1224679"><ele>153.0</ele><time>2026-05-03T17:53:21.466Z</time></trkpt><trkpt lat="44.0234886" lon="8.1223588"><ele>153.0</ele><time>2026-05-03T17:53:22.468Z</time></trkpt><trkpt lat="44.0235362" lon="8.1222536"><ele>153.33333333333334</ele><time>2026-05-03T17:53:23.465Z</time></trkpt><trkpt lat="44.0235793" lon="8.1221565"><ele>153.66666666666666</ele><time>2026-05-03T17:53:24.469Z</time></trkpt><trkpt lat="44.023634" lon="8.1220478"><ele>154.0</ele><time>2026-05-03T17:53:25.47Z</time></trkpt><trkpt lat="44.0236815" lon="8.1219523"><ele>154.33333333333331</ele><time>2026-05-03T17:53:26.464Z</time></trkpt><trkpt lat="44.0237328" lon="8.1218526"><ele>154.66666666666666</ele><time>2026-05-03T17:53:27.467Z</time></trkpt><trkpt lat="44.0237675" lon="8.1217563"><ele>155.0</ele><time>2026-05-03T17:53:28.465Z</time></trkpt><trkpt lat="44.0238507" lon="8.1216226"><ele>156.33333333333331</ele><time>2026-05-03T17:53:30.464Z</time></trkpt><trkpt lat="44.0238882" lon="8.1215472"><ele>157.66666666666666</ele><time>2026-05-03T17:53:31.468Z</time></trkpt><trkpt lat="44.0239386" lon="8.121486"><ele>159.0</ele><time>2026-05-03T17:53:32.467Z</time></trkpt><trkpt lat="44.0239869" lon="8.1214125"><ele>160.33333333333334</ele><time>2026-05-03T17:53:33.47Z</time></trkpt><trkpt lat="44.024081" lon="8.1212901"><ele>161.66666666666669</ele><time>2026-05-03T17:53:35.471Z</time></trkpt><trkpt lat="44.0241094" lon="8.1211347"><ele>163.0</ele><time>2026-05-03T17:53:37.464Z</time></trkpt><trkpt lat="44.0241716" lon="8.1210097"><ele>163.0</ele><time>2026-05-03T17:53:39.468Z</time></trkpt><trkpt lat="44.0242468" lon="8.1209261"><ele>163.0</ele><time>2026-05-03T17:53:41.466Z</time></trkpt><trkpt lat="44.0243239" lon="8.1209019"><ele>163.0</ele><time>2026-05-03T17:53:43.465Z</time></trkpt><trkpt lat="44.0244219" lon="8.1208601"><ele>163.0</ele><time>2026-05-03T17:53:45.467Z</time></trkpt><trkpt lat="44.0244879" lon="8.1208209"><ele>163.0</ele><time>2026-05-03T17:53:47.467Z</time></trkpt><trkpt lat="44.0245812" lon="8.1207839"><ele>163.0</ele><time>2026-05-03T17:53:49.47Z</time></trkpt><trkpt lat="44.0246502" lon="8.1207928"><ele>163.0</ele><time>2026-05-03T17:53:50.463Z</time></trkpt><trkpt lat="44.024713" lon="8.1208133"><ele>163.0</ele><time>2026-05-03T17:53:51.463Z</time></trkpt><trkpt lat="44.0247966" lon="8.1208377"><ele>163.0</ele><time>2026-05-03T17:53:52.467Z</time></trkpt><trkpt lat="44.0248598" lon="8.1208991"><ele>163.0</ele><time>2026-05-03T17:53:53.466Z</time></trkpt><trkpt lat="44.0249491" lon="8.1209266"><ele>163.0</ele><time>2026-05-03T17:53:54.464Z</time></trkpt><trkpt lat="44.0250187" lon="8.1209564"><ele>163.0</ele><time>2026-05-03T17:53:55.466Z</time></trkpt><trkpt lat="44.0250848" lon="8.1210033"><ele>164.0</ele><time>2026-05-03T17:53:56.472Z</time></trkpt><trkpt lat="44.02515" lon="8.1210008"><ele>165.0</ele><time>2026-05-03T17:53:57.465Z</time></trkpt><trkpt lat="44.0252189" lon="8.1209996"><ele>166.0</ele><time>2026-05-03T17:53:58.466Z</time></trkpt><trkpt lat="44.0253009" lon="8.1209439"><ele>167.0</ele><time>2026-05-03T17:53:59.466Z</time></trkpt><trkpt lat="44.0253762" lon="8.1209379"><ele>168.0</ele><time>2026-05-03T17:54:00.467Z</time></trkpt><trkpt lat="44.0254916" lon="8.1209967"><ele>169.0</ele><time>2026-05-03T17:54:02.468Z</time></trkpt><trkpt lat="44.0255821" lon="8.1210846"><ele>169.0</ele><time>2026-05-03T17:54:03.465Z</time></trkpt><trkpt lat="44.0256722" lon="8.1211208"><ele>169.0</ele><time>2026-05-03T17:54:04.465Z</time></trkpt><trkpt lat="44.0257838" lon="8.1211253"><ele>169.0</ele><time>2026-05-03T17:54:05.464Z</time></trkpt><trkpt lat="44.0259077" lon="8.1211112"><ele>169.0</ele><time>2026-05-03T17:54:06.466Z</time></trkpt><trkpt lat="44.0260408" lon="8.1210824"><ele>167.25</ele><time>2026-05-03T17:54:07.462Z</time></trkpt><trkpt lat="44.0261687" lon="8.1210566"><ele>165.5</ele><time>2026-05-03T17:54:08.468Z</time></trkpt><trkpt lat="44.0262906" lon="8.1210354"><ele>163.75</ele><time>2026-05-03T17:54:09.465Z</time></trkpt><trkpt lat="44.0263952" lon="8.1209899"><ele>162.0</ele><time>2026-05-03T17:54:10.465Z</time></trkpt><trkpt lat="44.026497" lon="8.1209053"><ele>162.0</ele><time>2026-05-03T17:54:11.462Z</time></trkpt><trkpt lat="44.0265836" lon="8.1207973"><ele>162.0</ele><time>2026-05-03T17:54:12.47Z</time></trkpt><trkpt lat="44.0266659" lon="8.1206909"><ele>162.0</ele><time>2026-05-03T17:54:13.466Z</time></trkpt><trkpt lat="44.0267312" lon="8.1205296"><ele>162.0</ele><time>2026-05-03T17:54:14.468Z</time></trkpt><trkpt lat="44.0268042" lon="8.1204356"><ele>160.16666666666666</ele><time>2026-05-03T17:54:15.473Z</time></trkpt><trkpt lat="44.0268551" lon="8.1203382"><ele>158.33333333333334</ele><time>2026-05-03T17:54:16.466Z</time></trkpt><trkpt lat="44.0269022" lon="8.1202519"><ele>156.5</ele><time>2026-05-03T17:54:17.465Z</time></trkpt><trkpt lat="44.0269325" lon="8.1201192"><ele>154.66666666666669</ele><time>2026-05-03T17:54:19.464Z</time></trkpt><trkpt lat="44.0268378" lon="8.120078"><ele>152.83333333333334</ele><time>2026-05-03T17:54:21.465Z</time></trkpt><trkpt lat="44.0267592" lon="8.1201012"><ele>151.0</ele><time>2026-05-03T17:54:22.466Z</time></trkpt><trkpt lat="44.0265606" lon="8.1201819"><ele>149.33333333333334</ele><time>2026-05-03T17:54:23.466Z</time></trkpt><trkpt lat="44.0264071" lon="8.1202599"><ele>147.66666666666666</ele><time>2026-05-03T17:54:24.467Z</time></trkpt><trkpt lat="44.0262581" lon="8.120347"><ele>146.0</ele><time>2026-05-03T17:54:25.464Z</time></trkpt><trkpt lat="44.0261175" lon="8.1203963"><ele>146.0</ele><time>2026-05-03T17:54:26.465Z</time></trkpt><trkpt lat="44.0259783" lon="8.1204197"><ele>146.0</ele><time>2026-05-03T17:54:27.467Z</time></trkpt><trkpt lat="44.0258588" lon="8.1204276"><ele>146.0</ele><time>2026-05-03T17:54:28.465Z</time></trkpt><trkpt lat="44.0257496" lon="8.1204326"><ele>146.0</ele><time>2026-05-03T17:54:29.466Z</time></trkpt><trkpt lat="44.0256434" lon="8.1204321"><ele>147.0</ele><time>2026-05-03T17:54:30.464Z</time></trkpt><trkpt lat="44.0255333" lon="8.1204049"><ele>148.0</ele><time>2026-05-03T17:54:31.465Z</time></trkpt><trkpt lat="44.0254525" lon="8.1203358"><ele>149.0</ele><time>2026-05-03T17:54:32.467Z</time></trkpt><trkpt lat="44.0253811" lon="8.1202264"><ele>150.0</ele><time>2026-05-03T17:54:33.467Z</time></trkpt><trkpt lat="44.025293" lon="8.1201419"><ele>151.0</ele><time>2026-05-03T17:54:34.469Z</time></trkpt><trkpt lat="44.0251789" lon="8.1201216"><ele>151.0</ele><time>2026-05-03T17:54:35.465Z</time></trkpt><trkpt lat="44.0250608" lon="8.1201652"><ele>151.0</ele><time>2026-05-03T17:54:36.465Z</time></trkpt><trkpt lat="44.0249662" lon="8.120251"><ele>151.0</ele><time>2026-05-03T17:54:37.464Z</time></trkpt><trkpt lat="44.0248789" lon="8.1203353"><ele>151.0</ele><time>2026-05-03T17:54:38.465Z</time></trkpt><trkpt lat="44.0248124" lon="8.1203851"><ele>151.0</ele><time>2026-05-03T17:54:39.465Z</time></trkpt><trkpt lat="44.0247119" lon="8.1204626"><ele>148.0</ele><time>2026-05-03T17:54:41.466Z</time></trkpt></trkseg></trk></gpx>